<?xml version="1.0" encoding="UTF-8" standalone="no" ?>
<gpx xmlns="http://www.topografix.com/GPX/1/1" xmlns:xsi="http://www.w3.org/2001/XMLSchema-instance" xsi:schemaLocation="http://www.topografix.com/GPX/1/1 http://www.topografix.com/GPX/1/1/gpx.xsd" version="1.1" creator="VisuGPX - https://www.visugpx.com">
  <metadata>
    <name>Rando cyclo-camping 3 jours dans l'Aude</name>
    <desc><![CDATA[Une virée de 3 jours en autonomie pour découvrir les Corbières et la haute vallée de l'Aude. Une terre d'Abbayes et de châteaux moyenâgeux, rendue mythique par l'histoire du catharisme.
[img]https://vr7qlw.am.files.1drv.com/y4mekqlXUBwxKXAfBTY5ZOEoK6MNzj3hoNTwA_5MsuG7L9rpP-dCYBzvxp2iWEBehn4aWu3jUdAz5wUC1BnKMdoOXicRYBWs6DqN7YH9WfXaVpboLnusUH7DchT6_ezJo75Y0k-2vQRrbU5S9XT_ob0MpuWyW-g5Xk2wmIvcBU41wm68nXeqaeEFpbhE4PjDHAwBk3w3U3NjJn-fcK9lSh31w?width=256&height=171&cropmode=none[/img]
Pour une lecture du récit de ces 3 jours rendez-vous sur mon blog [url=https://monexperiencevelo.blogspot.com/2018/05/3-jours-en-cyclo-camping-dans-laude.html]ici[/url].]]></desc>
  </metadata>
  <wpt lat="43.0968" lon="2.40182">
    <ele>281.5</ele>
    <name><![CDATA[Abbaye de Rieunette]]></name>
  </wpt>
  <wpt lat="43.10468" lon="2.4537">
    <ele>493.2</ele>
    <name><![CDATA[Départ / Bivouac 1]]></name>
  </wpt>
  <wpt lat="42.98211" lon="2.37672">
    <ele>663.1</ele>
    <name><![CDATA[Arrivée / Bivouac Mairie Valmigère]]></name>
  </wpt>
  <wpt lat="43.18735" lon="2.97575">
    <ele>20.8</ele>
    <name><![CDATA[Départ/Arrivée Parking]]></name>
  </wpt>
  <trk>
    <name><![CDATA[Aude J1]]></name>
    <extensions>
      <line xmlns="http://www.topografix.com/GPX/gpx_style/0/2">
        <color>ff0000</color>
        <width>4</width>
      </line>
    </extensions>
    <trkseg>
      <trkpt lat="43.18735" lon="2.97575">
        <ele>21</ele>
        <time>2018-05-19T08:09:57Z</time>
      </trkpt>
      <trkpt lat="43.18733" lon="2.97568">
        <ele>21</ele>
        <time>2018-05-19T08:10:02Z</time>
      </trkpt>
      <trkpt lat="43.1873" lon="2.97556">
        <ele>21.1</ele>
        <time>2018-05-19T08:10:07Z</time>
      </trkpt>
      <trkpt lat="43.18737" lon="2.97547">
        <ele>21.2</ele>
        <time>2018-05-19T08:10:12Z</time>
      </trkpt>
      <trkpt lat="43.18754" lon="2.97548">
        <ele>20.8</ele>
        <time>2018-05-19T08:10:17Z</time>
      </trkpt>
      <trkpt lat="43.18767" lon="2.97549">
        <ele>20.6</ele>
        <time>2018-05-19T08:10:22Z</time>
      </trkpt>
      <trkpt lat="43.18783" lon="2.97548">
        <ele>20.3</ele>
        <time>2018-05-19T08:10:27Z</time>
      </trkpt>
      <trkpt lat="43.18791" lon="2.97538">
        <ele>20.3</ele>
        <time>2018-05-19T08:10:32Z</time>
      </trkpt>
      <trkpt lat="43.18791" lon="2.97482">
        <ele>22.4</ele>
        <time>2018-05-19T08:20:17Z</time>
      </trkpt>
      <trkpt lat="43.18789" lon="2.97468">
        <ele>22.6</ele>
        <time>2018-05-19T08:20:22Z</time>
      </trkpt>
      <trkpt lat="43.18789" lon="2.97453">
        <ele>22.9</ele>
        <time>2018-05-19T08:20:27Z</time>
      </trkpt>
      <trkpt lat="43.18791" lon="2.97427">
        <ele>23.2</ele>
        <time>2018-05-19T08:20:32Z</time>
      </trkpt>
      <trkpt lat="43.18791" lon="2.97412">
        <ele>25.1</ele>
        <time>2018-05-19T08:20:37Z</time>
      </trkpt>
      <trkpt lat="43.18789" lon="2.97406">
        <ele>25.2</ele>
        <time>2018-05-19T08:20:42Z</time>
      </trkpt>
      <trkpt lat="43.18787" lon="2.97392">
        <ele>25.4</ele>
        <time>2018-05-19T08:20:47Z</time>
      </trkpt>
      <trkpt lat="43.18782" lon="2.97373">
        <ele>25.8</ele>
        <time>2018-05-19T08:20:52Z</time>
      </trkpt>
      <trkpt lat="43.18777" lon="2.9737">
        <ele>25.8</ele>
        <time>2018-05-19T08:20:57Z</time>
      </trkpt>
      <trkpt lat="43.18767" lon="2.97367">
        <ele>25.9</ele>
        <time>2018-05-19T08:21:02Z</time>
      </trkpt>
      <trkpt lat="43.1875" lon="2.97365">
        <ele>26.1</ele>
        <time>2018-05-19T08:21:07Z</time>
      </trkpt>
      <trkpt lat="43.18739" lon="2.97366">
        <ele>26.1</ele>
        <time>2018-05-19T08:21:12Z</time>
      </trkpt>
      <trkpt lat="43.18726" lon="2.97354">
        <ele>26.2</ele>
        <time>2018-05-19T08:21:17Z</time>
      </trkpt>
      <trkpt lat="43.18719" lon="2.97346">
        <ele>26.3</ele>
        <time>2018-05-19T08:21:22Z</time>
      </trkpt>
      <trkpt lat="43.18711" lon="2.97337">
        <ele>26.4</ele>
        <time>2018-05-19T08:21:27Z</time>
      </trkpt>
      <trkpt lat="43.18707" lon="2.9733">
        <ele>27.5</ele>
        <time>2018-05-19T08:21:32Z</time>
      </trkpt>
      <trkpt lat="43.18715" lon="2.97336">
        <ele>26.4</ele>
        <time>2018-05-19T08:21:37Z</time>
      </trkpt>
      <trkpt lat="43.18728" lon="2.97348">
        <ele>26.3</ele>
        <time>2018-05-19T08:21:42Z</time>
      </trkpt>
      <trkpt lat="43.18738" lon="2.97356">
        <ele>26.2</ele>
        <time>2018-05-19T08:21:47Z</time>
      </trkpt>
      <trkpt lat="43.18744" lon="2.97343">
        <ele>26.6</ele>
        <time>2018-05-19T08:21:52Z</time>
      </trkpt>
      <trkpt lat="43.18747" lon="2.97336">
        <ele>26.8</ele>
        <time>2018-05-19T08:21:57Z</time>
      </trkpt>
      <trkpt lat="43.18756" lon="2.97316">
        <ele>27.9</ele>
        <time>2018-05-19T08:22:02Z</time>
      </trkpt>
      <trkpt lat="43.18763" lon="2.973">
        <ele>28.4</ele>
        <time>2018-05-19T08:22:07Z</time>
      </trkpt>
      <trkpt lat="43.18767" lon="2.97287">
        <ele>28.6</ele>
        <time>2018-05-19T08:22:12Z</time>
      </trkpt>
      <trkpt lat="43.18768" lon="2.97272">
        <ele>28.7</ele>
        <time>2018-05-19T08:22:17Z</time>
      </trkpt>
      <trkpt lat="43.18767" lon="2.97257">
        <ele>28.7</ele>
        <time>2018-05-19T08:22:22Z</time>
      </trkpt>
      <trkpt lat="43.18764" lon="2.97241">
        <ele>30.6</ele>
        <time>2018-05-19T08:22:27Z</time>
      </trkpt>
      <trkpt lat="43.18765" lon="2.97235">
        <ele>31.1</ele>
        <time>2018-05-19T08:22:32Z</time>
      </trkpt>
      <trkpt lat="43.18765" lon="2.97235">
        <ele>31.1</ele>
        <time>2018-05-19T08:22:37Z</time>
      </trkpt>
      <trkpt lat="43.18765" lon="2.97235">
        <ele>31.1</ele>
        <time>2018-05-19T08:22:42Z</time>
      </trkpt>
      <trkpt lat="43.18765" lon="2.97235">
        <ele>31.1</ele>
        <time>2018-05-19T08:22:47Z</time>
      </trkpt>
      <trkpt lat="43.18765" lon="2.97235">
        <ele>31.1</ele>
        <time>2018-05-19T08:22:52Z</time>
      </trkpt>
      <trkpt lat="43.18763" lon="2.97248">
        <ele>30.1</ele>
        <time>2018-05-19T08:23:07Z</time>
      </trkpt>
      <trkpt lat="43.18764" lon="2.97267">
        <ele>28.6</ele>
        <time>2018-05-19T08:23:12Z</time>
      </trkpt>
      <trkpt lat="43.18764" lon="2.97294">
        <ele>28.5</ele>
        <time>2018-05-19T08:23:17Z</time>
      </trkpt>
      <trkpt lat="43.18763" lon="2.97309">
        <ele>28.2</ele>
        <time>2018-05-19T08:23:22Z</time>
      </trkpt>
      <trkpt lat="43.1876" lon="2.97315">
        <ele>28.1</ele>
        <time>2018-05-19T08:23:27Z</time>
      </trkpt>
      <trkpt lat="43.1876" lon="2.97315">
        <ele>28.1</ele>
        <time>2018-05-19T08:23:32Z</time>
      </trkpt>
      <trkpt lat="43.18761" lon="2.97307">
        <ele>28.3</ele>
        <time>2018-05-19T08:23:37Z</time>
      </trkpt>
      <trkpt lat="43.18765" lon="2.97295">
        <ele>28.5</ele>
        <time>2018-05-19T08:23:42Z</time>
      </trkpt>
      <trkpt lat="43.18768" lon="2.97274">
        <ele>28.7</ele>
        <time>2018-05-19T08:23:47Z</time>
      </trkpt>
      <trkpt lat="43.18766" lon="2.97243">
        <ele>30.7</ele>
        <time>2018-05-19T08:23:53Z</time>
      </trkpt>
      <trkpt lat="43.18777" lon="2.9724">
        <ele>31.6</ele>
        <time>2018-05-19T08:23:58Z</time>
      </trkpt>
      <trkpt lat="43.18791" lon="2.97278">
        <ele>29.2</ele>
        <time>2018-05-19T08:24:03Z</time>
      </trkpt>
      <trkpt lat="43.18799" lon="2.97312">
        <ele>28.7</ele>
        <time>2018-05-19T08:24:08Z</time>
      </trkpt>
      <trkpt lat="43.18817" lon="2.97338">
        <ele>26.9</ele>
        <time>2018-05-19T08:24:13Z</time>
      </trkpt>
      <trkpt lat="43.18847" lon="2.97351">
        <ele>27.1</ele>
        <time>2018-05-19T08:24:18Z</time>
      </trkpt>
      <trkpt lat="43.18871" lon="2.97374">
        <ele>26.5</ele>
        <time>2018-05-19T08:24:23Z</time>
      </trkpt>
      <trkpt lat="43.189" lon="2.974">
        <ele>25.6</ele>
        <time>2018-05-19T08:24:28Z</time>
      </trkpt>
      <trkpt lat="43.18929" lon="2.97424">
        <ele>21.9</ele>
        <time>2018-05-19T08:24:33Z</time>
      </trkpt>
      <trkpt lat="43.18962" lon="2.97435">
        <ele>19.6</ele>
        <time>2018-05-19T08:24:38Z</time>
      </trkpt>
      <trkpt lat="43.18998" lon="2.97431">
        <ele>18.5</ele>
        <time>2018-05-19T08:24:43Z</time>
      </trkpt>
      <trkpt lat="43.19029" lon="2.97422">
        <ele>16.5</ele>
        <time>2018-05-19T08:24:48Z</time>
      </trkpt>
      <trkpt lat="43.19061" lon="2.97413">
        <ele>17.2</ele>
        <time>2018-05-19T08:24:53Z</time>
      </trkpt>
      <trkpt lat="43.19091" lon="2.97407">
        <ele>16.4</ele>
        <time>2018-05-19T08:24:58Z</time>
      </trkpt>
      <trkpt lat="43.19107" lon="2.97409">
        <ele>16.6</ele>
        <time>2018-05-19T08:25:03Z</time>
      </trkpt>
      <trkpt lat="43.19128" lon="2.97425">
        <ele>14.5</ele>
        <time>2018-05-19T08:25:08Z</time>
      </trkpt>
      <trkpt lat="43.19128" lon="2.97425">
        <ele>14.5</ele>
        <time>2018-05-19T08:25:13Z</time>
      </trkpt>
      <trkpt lat="43.19171" lon="2.9743">
        <ele>14.7</ele>
        <time>2018-05-19T08:25:18Z</time>
      </trkpt>
      <trkpt lat="43.19195" lon="2.97446">
        <ele>13.6</ele>
        <time>2018-05-19T08:25:23Z</time>
      </trkpt>
      <trkpt lat="43.19204" lon="2.97449">
        <ele>13.5</ele>
        <time>2018-05-19T08:25:28Z</time>
      </trkpt>
      <trkpt lat="43.19204" lon="2.97449">
        <ele>13.5</ele>
        <time>2018-05-19T08:25:33Z</time>
      </trkpt>
      <trkpt lat="43.19204" lon="2.97449">
        <ele>13.5</ele>
        <time>2018-05-19T08:25:38Z</time>
      </trkpt>
      <trkpt lat="43.19203" lon="2.97425">
        <ele>13.9</ele>
        <time>2018-05-19T08:27:03Z</time>
      </trkpt>
      <trkpt lat="43.19206" lon="2.97408">
        <ele>15.7</ele>
        <time>2018-05-19T08:27:08Z</time>
      </trkpt>
      <trkpt lat="43.19211" lon="2.97384">
        <ele>15.9</ele>
        <time>2018-05-19T08:27:13Z</time>
      </trkpt>
      <trkpt lat="43.19214" lon="2.9737">
        <ele>16</ele>
        <time>2018-05-19T08:27:18Z</time>
      </trkpt>
      <trkpt lat="43.19216" lon="2.97355">
        <ele>16.1</ele>
        <time>2018-05-19T08:27:23Z</time>
      </trkpt>
      <trkpt lat="43.19219" lon="2.97341">
        <ele>16.2</ele>
        <time>2018-05-19T08:27:28Z</time>
      </trkpt>
      <trkpt lat="43.19221" lon="2.97327">
        <ele>17.1</ele>
        <time>2018-05-19T08:27:33Z</time>
      </trkpt>
      <trkpt lat="43.19227" lon="2.97298">
        <ele>17.2</ele>
        <time>2018-05-19T08:27:38Z</time>
      </trkpt>
      <trkpt lat="43.19231" lon="2.97275">
        <ele>17.3</ele>
        <time>2018-05-19T08:27:43Z</time>
      </trkpt>
      <trkpt lat="43.19234" lon="2.97262">
        <ele>17.3</ele>
        <time>2018-05-19T08:27:48Z</time>
      </trkpt>
      <trkpt lat="43.19236" lon="2.97249">
        <ele>18</ele>
        <time>2018-05-19T08:27:53Z</time>
      </trkpt>
      <trkpt lat="43.19241" lon="2.97226">
        <ele>18.6</ele>
        <time>2018-05-19T08:27:58Z</time>
      </trkpt>
      <trkpt lat="43.19244" lon="2.97212">
        <ele>19</ele>
        <time>2018-05-19T08:28:03Z</time>
      </trkpt>
      <trkpt lat="43.19248" lon="2.97197">
        <ele>19.4</ele>
        <time>2018-05-19T08:28:08Z</time>
      </trkpt>
      <trkpt lat="43.19253" lon="2.97174">
        <ele>19.4</ele>
        <time>2018-05-19T08:28:13Z</time>
      </trkpt>
      <trkpt lat="43.19256" lon="2.97161">
        <ele>21</ele>
        <time>2018-05-19T08:28:18Z</time>
      </trkpt>
      <trkpt lat="43.1926" lon="2.97146">
        <ele>22.4</ele>
        <time>2018-05-19T08:28:23Z</time>
      </trkpt>
      <trkpt lat="43.19264" lon="2.97131">
        <ele>23.5</ele>
        <time>2018-05-19T08:28:28Z</time>
      </trkpt>
      <trkpt lat="43.19264" lon="2.97131">
        <ele>23.5</ele>
        <time>2018-05-19T08:28:33Z</time>
      </trkpt>
      <trkpt lat="43.19264" lon="2.97131">
        <ele>23.5</ele>
        <time>2018-05-19T08:28:38Z</time>
      </trkpt>
      <trkpt lat="43.19267" lon="2.97099">
        <ele>26.1</ele>
        <time>2018-05-19T08:28:43Z</time>
      </trkpt>
      <trkpt lat="43.19271" lon="2.97074">
        <ele>31.1</ele>
        <time>2018-05-19T08:28:48Z</time>
      </trkpt>
      <trkpt lat="43.19271" lon="2.97074">
        <ele>31.1</ele>
        <time>2018-05-19T08:28:53Z</time>
      </trkpt>
      <trkpt lat="43.19271" lon="2.97074">
        <ele>31.1</ele>
        <time>2018-05-19T08:28:58Z</time>
      </trkpt>
      <trkpt lat="43.19296" lon="2.97061">
        <ele>30.9</ele>
        <time>2018-05-19T08:29:03Z</time>
      </trkpt>
      <trkpt lat="43.19313" lon="2.97037">
        <ele>31.5</ele>
        <time>2018-05-19T08:29:08Z</time>
      </trkpt>
      <trkpt lat="43.19318" lon="2.9702">
        <ele>32</ele>
        <time>2018-05-19T08:29:13Z</time>
      </trkpt>
      <trkpt lat="43.1932" lon="2.97014">
        <ele>32.1</ele>
        <time>2018-05-19T08:29:18Z</time>
      </trkpt>
      <trkpt lat="43.1932" lon="2.97014">
        <ele>32.1</ele>
        <time>2018-05-19T08:29:23Z</time>
      </trkpt>
      <trkpt lat="43.19326" lon="2.96997">
        <ele>34.2</ele>
        <time>2018-05-19T08:29:28Z</time>
      </trkpt>
      <trkpt lat="43.19329" lon="2.96991">
        <ele>34.8</ele>
        <time>2018-05-19T08:29:33Z</time>
      </trkpt>
      <trkpt lat="43.19333" lon="2.96977">
        <ele>36.7</ele>
        <time>2018-05-19T08:29:38Z</time>
      </trkpt>
      <trkpt lat="43.19338" lon="2.96965">
        <ele>32</ele>
        <time>2018-05-19T08:29:43Z</time>
      </trkpt>
      <trkpt lat="43.19345" lon="2.96945">
        <ele>33</ele>
        <time>2018-05-19T08:29:48Z</time>
      </trkpt>
      <trkpt lat="43.19345" lon="2.96945">
        <ele>33</ele>
        <time>2018-05-19T08:29:53Z</time>
      </trkpt>
      <trkpt lat="43.19345" lon="2.96945">
        <ele>33</ele>
        <time>2018-05-19T08:29:58Z</time>
      </trkpt>
      <trkpt lat="43.19345" lon="2.96945">
        <ele>33</ele>
        <time>2018-05-19T08:30:03Z</time>
      </trkpt>
      <trkpt lat="43.19349" lon="2.96932">
        <ele>34</ele>
        <time>2018-05-19T08:30:08Z</time>
      </trkpt>
      <trkpt lat="43.19351" lon="2.96924">
        <ele>34.4</ele>
        <time>2018-05-19T08:30:18Z</time>
      </trkpt>
      <trkpt lat="43.19352" lon="2.96918">
        <ele>34.4</ele>
        <time>2018-05-19T08:30:23Z</time>
      </trkpt>
      <trkpt lat="43.19359" lon="2.96899">
        <ele>36.3</ele>
        <time>2018-05-19T08:30:28Z</time>
      </trkpt>
      <trkpt lat="43.19364" lon="2.96884">
        <ele>36.1</ele>
        <time>2018-05-19T08:30:33Z</time>
      </trkpt>
      <trkpt lat="43.19371" lon="2.96864">
        <ele>36.2</ele>
        <time>2018-05-19T08:30:38Z</time>
      </trkpt>
      <trkpt lat="43.19376" lon="2.9685">
        <ele>36.1</ele>
        <time>2018-05-19T08:30:43Z</time>
      </trkpt>
      <trkpt lat="43.19386" lon="2.96823">
        <ele>38.7</ele>
        <time>2018-05-19T08:30:48Z</time>
      </trkpt>
      <trkpt lat="43.19394" lon="2.96798">
        <ele>39.1</ele>
        <time>2018-05-19T08:30:53Z</time>
      </trkpt>
      <trkpt lat="43.19403" lon="2.96778">
        <ele>39.1</ele>
        <time>2018-05-19T08:30:58Z</time>
      </trkpt>
      <trkpt lat="43.19412" lon="2.96764">
        <ele>38.1</ele>
        <time>2018-05-19T08:31:03Z</time>
      </trkpt>
      <trkpt lat="43.19418" lon="2.96758">
        <ele>34.6</ele>
        <time>2018-05-19T08:31:08Z</time>
      </trkpt>
      <trkpt lat="43.19462" lon="2.9672">
        <ele>33.5</ele>
        <time>2018-05-19T08:31:13Z</time>
      </trkpt>
      <trkpt lat="43.19476" lon="2.96701">
        <ele>33.1</ele>
        <time>2018-05-19T08:31:18Z</time>
      </trkpt>
      <trkpt lat="43.19489" lon="2.96678">
        <ele>32.3</ele>
        <time>2018-05-19T08:31:23Z</time>
      </trkpt>
      <trkpt lat="43.19499" lon="2.96646">
        <ele>32.8</ele>
        <time>2018-05-19T08:31:28Z</time>
      </trkpt>
      <trkpt lat="43.19502" lon="2.96637">
        <ele>33.1</ele>
        <time>2018-05-19T08:31:33Z</time>
      </trkpt>
      <trkpt lat="43.19506" lon="2.96622">
        <ele>33.5</ele>
        <time>2018-05-19T08:31:38Z</time>
      </trkpt>
      <trkpt lat="43.19508" lon="2.96615">
        <ele>33.6</ele>
        <time>2018-05-19T08:31:43Z</time>
      </trkpt>
      <trkpt lat="43.19516" lon="2.96583">
        <ele>34.4</ele>
        <time>2018-05-19T08:31:48Z</time>
      </trkpt>
      <trkpt lat="43.19519" lon="2.96569">
        <ele>34.9</ele>
        <time>2018-05-19T08:31:53Z</time>
      </trkpt>
      <trkpt lat="43.19525" lon="2.96551">
        <ele>35.5</ele>
        <time>2018-05-19T08:31:58Z</time>
      </trkpt>
      <trkpt lat="43.1953" lon="2.96539">
        <ele>35.8</ele>
        <time>2018-05-19T08:32:03Z</time>
      </trkpt>
      <trkpt lat="43.19536" lon="2.96525">
        <ele>36.1</ele>
        <time>2018-05-19T08:32:08Z</time>
      </trkpt>
      <trkpt lat="43.19544" lon="2.96511">
        <ele>36.4</ele>
        <time>2018-05-19T08:32:13Z</time>
      </trkpt>
      <trkpt lat="43.1955" lon="2.96501">
        <ele>36.6</ele>
        <time>2018-05-19T08:32:18Z</time>
      </trkpt>
      <trkpt lat="43.19561" lon="2.96494">
        <ele>37.7</ele>
        <time>2018-05-19T08:32:23Z</time>
      </trkpt>
      <trkpt lat="43.19572" lon="2.96496">
        <ele>37.9</ele>
        <time>2018-05-19T08:32:28Z</time>
      </trkpt>
      <trkpt lat="43.19587" lon="2.965">
        <ele>38.4</ele>
        <time>2018-05-19T08:32:33Z</time>
      </trkpt>
      <trkpt lat="43.19608" lon="2.96504">
        <ele>39.3</ele>
        <time>2018-05-19T08:32:38Z</time>
      </trkpt>
      <trkpt lat="43.19628" lon="2.96509">
        <ele>40.1</ele>
        <time>2018-05-19T08:32:43Z</time>
      </trkpt>
      <trkpt lat="43.19639" lon="2.96512">
        <ele>40.6</ele>
        <time>2018-05-19T08:32:48Z</time>
      </trkpt>
      <trkpt lat="43.19646" lon="2.96494">
        <ele>41.4</ele>
        <time>2018-05-19T08:32:53Z</time>
      </trkpt>
      <trkpt lat="43.1965" lon="2.96475">
        <ele>41.3</ele>
        <time>2018-05-19T08:32:58Z</time>
      </trkpt>
      <trkpt lat="43.19656" lon="2.96455">
        <ele>41.1</ele>
        <time>2018-05-19T08:33:03Z</time>
      </trkpt>
      <trkpt lat="43.19659" lon="2.96442">
        <ele>41.2</ele>
        <time>2018-05-19T08:33:08Z</time>
      </trkpt>
      <trkpt lat="43.19665" lon="2.9642">
        <ele>41.8</ele>
        <time>2018-05-19T08:33:13Z</time>
      </trkpt>
      <trkpt lat="43.19667" lon="2.96412">
        <ele>42.1</ele>
        <time>2018-05-19T08:33:18Z</time>
      </trkpt>
      <trkpt lat="43.19675" lon="2.96387">
        <ele>42.2</ele>
        <time>2018-05-19T08:33:23Z</time>
      </trkpt>
      <trkpt lat="43.1968" lon="2.96373">
        <ele>42</ele>
        <time>2018-05-19T08:33:28Z</time>
      </trkpt>
      <trkpt lat="43.19683" lon="2.96365">
        <ele>41.9</ele>
        <time>2018-05-19T08:33:33Z</time>
      </trkpt>
      <trkpt lat="43.19688" lon="2.9635">
        <ele>41.6</ele>
        <time>2018-05-19T08:33:38Z</time>
      </trkpt>
      <trkpt lat="43.19693" lon="2.96335">
        <ele>41.5</ele>
        <time>2018-05-19T08:33:43Z</time>
      </trkpt>
      <trkpt lat="43.197" lon="2.96315">
        <ele>42.4</ele>
        <time>2018-05-19T08:33:48Z</time>
      </trkpt>
      <trkpt lat="43.19704" lon="2.96302">
        <ele>42.7</ele>
        <time>2018-05-19T08:33:53Z</time>
      </trkpt>
      <trkpt lat="43.19711" lon="2.96283">
        <ele>43.2</ele>
        <time>2018-05-19T08:33:58Z</time>
      </trkpt>
      <trkpt lat="43.19714" lon="2.96276">
        <ele>43.4</ele>
        <time>2018-05-19T08:34:03Z</time>
      </trkpt>
      <trkpt lat="43.19726" lon="2.96246">
        <ele>46.1</ele>
        <time>2018-05-19T08:34:08Z</time>
      </trkpt>
      <trkpt lat="43.19731" lon="2.96232">
        <ele>46.3</ele>
        <time>2018-05-19T08:34:13Z</time>
      </trkpt>
      <trkpt lat="43.19739" lon="2.96214">
        <ele>46.8</ele>
        <time>2018-05-19T08:34:18Z</time>
      </trkpt>
      <trkpt lat="43.19741" lon="2.96208">
        <ele>47</ele>
        <time>2018-05-19T08:34:23Z</time>
      </trkpt>
      <trkpt lat="43.19748" lon="2.9619">
        <ele>47.7</ele>
        <time>2018-05-19T08:34:28Z</time>
      </trkpt>
      <trkpt lat="43.19748" lon="2.9619">
        <ele>47.7</ele>
        <time>2018-05-19T08:34:33Z</time>
      </trkpt>
      <trkpt lat="43.1976" lon="2.96168">
        <ele>48</ele>
        <time>2018-05-19T08:34:38Z</time>
      </trkpt>
      <trkpt lat="43.19766" lon="2.96158">
        <ele>49.7</ele>
        <time>2018-05-19T08:34:43Z</time>
      </trkpt>
      <trkpt lat="43.19769" lon="2.96153">
        <ele>49.8</ele>
        <time>2018-05-19T08:34:48Z</time>
      </trkpt>
      <trkpt lat="43.19775" lon="2.96141">
        <ele>50.2</ele>
        <time>2018-05-19T08:34:53Z</time>
      </trkpt>
      <trkpt lat="43.19783" lon="2.96128">
        <ele>50.6</ele>
        <time>2018-05-19T08:34:58Z</time>
      </trkpt>
      <trkpt lat="43.19787" lon="2.96121">
        <ele>50.7</ele>
        <time>2018-05-19T08:35:03Z</time>
      </trkpt>
      <trkpt lat="43.1979" lon="2.96114">
        <ele>50.9</ele>
        <time>2018-05-19T08:35:08Z</time>
      </trkpt>
      <trkpt lat="43.1979" lon="2.96114">
        <ele>50.9</ele>
        <time>2018-05-19T08:35:13Z</time>
      </trkpt>
      <trkpt lat="43.1979" lon="2.96114">
        <ele>50.9</ele>
        <time>2018-05-19T08:35:18Z</time>
      </trkpt>
      <trkpt lat="43.1979" lon="2.96114">
        <ele>50.9</ele>
        <time>2018-05-19T08:35:23Z</time>
      </trkpt>
      <trkpt lat="43.19792" lon="2.96109">
        <ele>51</ele>
        <time>2018-05-19T08:35:53Z</time>
      </trkpt>
      <trkpt lat="43.19792" lon="2.96109">
        <ele>51</ele>
        <time>2018-05-19T08:35:58Z</time>
      </trkpt>
      <trkpt lat="43.19792" lon="2.96109">
        <ele>51</ele>
        <time>2018-05-19T08:36:03Z</time>
      </trkpt>
      <trkpt lat="43.19792" lon="2.96109">
        <ele>51</ele>
        <time>2018-05-19T08:36:08Z</time>
      </trkpt>
      <trkpt lat="43.19792" lon="2.96109">
        <ele>51</ele>
        <time>2018-05-19T08:36:13Z</time>
      </trkpt>
      <trkpt lat="43.19799" lon="2.96101">
        <ele>51.2</ele>
        <time>2018-05-19T08:36:43Z</time>
      </trkpt>
      <trkpt lat="43.19807" lon="2.96089">
        <ele>51.3</ele>
        <time>2018-05-19T08:36:48Z</time>
      </trkpt>
      <trkpt lat="43.19814" lon="2.96079">
        <ele>55.3</ele>
        <time>2018-05-19T08:36:53Z</time>
      </trkpt>
      <trkpt lat="43.19821" lon="2.96068">
        <ele>55.3</ele>
        <time>2018-05-19T08:36:58Z</time>
      </trkpt>
      <trkpt lat="43.19827" lon="2.96055">
        <ele>56.3</ele>
        <time>2018-05-19T08:37:03Z</time>
      </trkpt>
      <trkpt lat="43.19833" lon="2.96039">
        <ele>57.3</ele>
        <time>2018-05-19T08:37:08Z</time>
      </trkpt>
      <trkpt lat="43.19839" lon="2.96018">
        <ele>56.5</ele>
        <time>2018-05-19T08:37:13Z</time>
      </trkpt>
      <trkpt lat="43.19843" lon="2.96005">
        <ele>57.1</ele>
        <time>2018-05-19T08:37:18Z</time>
      </trkpt>
      <trkpt lat="43.19845" lon="2.95981">
        <ele>61.6</ele>
        <time>2018-05-19T08:37:23Z</time>
      </trkpt>
      <trkpt lat="43.19843" lon="2.95968">
        <ele>62.9</ele>
        <time>2018-05-19T08:37:28Z</time>
      </trkpt>
      <trkpt lat="43.19841" lon="2.95953">
        <ele>64.1</ele>
        <time>2018-05-19T08:37:33Z</time>
      </trkpt>
      <trkpt lat="43.19839" lon="2.95929">
        <ele>65.8</ele>
        <time>2018-05-19T08:37:38Z</time>
      </trkpt>
      <trkpt lat="43.19839" lon="2.95921">
        <ele>66.3</ele>
        <time>2018-05-19T08:37:43Z</time>
      </trkpt>
      <trkpt lat="43.1984" lon="2.95907">
        <ele>69.4</ele>
        <time>2018-05-19T08:37:48Z</time>
      </trkpt>
      <trkpt lat="43.19841" lon="2.95901">
        <ele>70.3</ele>
        <time>2018-05-19T08:37:53Z</time>
      </trkpt>
      <trkpt lat="43.19843" lon="2.95894">
        <ele>71.1</ele>
        <time>2018-05-19T08:37:58Z</time>
      </trkpt>
      <trkpt lat="43.19847" lon="2.9588">
        <ele>72.4</ele>
        <time>2018-05-19T08:38:03Z</time>
      </trkpt>
      <trkpt lat="43.1985" lon="2.95874">
        <ele>72.9</ele>
        <time>2018-05-19T08:38:08Z</time>
      </trkpt>
      <trkpt lat="43.19855" lon="2.95862">
        <ele>73.7</ele>
        <time>2018-05-19T08:38:13Z</time>
      </trkpt>
      <trkpt lat="43.19858" lon="2.95855">
        <ele>74.1</ele>
        <time>2018-05-19T08:38:18Z</time>
      </trkpt>
      <trkpt lat="43.19861" lon="2.95848">
        <ele>74.4</ele>
        <time>2018-05-19T08:38:23Z</time>
      </trkpt>
      <trkpt lat="43.19865" lon="2.95834">
        <ele>74.6</ele>
        <time>2018-05-19T08:38:28Z</time>
      </trkpt>
      <trkpt lat="43.19866" lon="2.95827">
        <ele>77.3</ele>
        <time>2018-05-19T08:38:33Z</time>
      </trkpt>
      <trkpt lat="43.19868" lon="2.9582">
        <ele>77.3</ele>
        <time>2018-05-19T08:38:38Z</time>
      </trkpt>
      <trkpt lat="43.1987" lon="2.95806">
        <ele>77.3</ele>
        <time>2018-05-19T08:38:43Z</time>
      </trkpt>
      <trkpt lat="43.19872" lon="2.95798">
        <ele>77.3</ele>
        <time>2018-05-19T08:38:48Z</time>
      </trkpt>
      <trkpt lat="43.19873" lon="2.95792">
        <ele>77.4</ele>
        <time>2018-05-19T08:38:53Z</time>
      </trkpt>
      <trkpt lat="43.19876" lon="2.95777">
        <ele>77.3</ele>
        <time>2018-05-19T08:38:58Z</time>
      </trkpt>
      <trkpt lat="43.19879" lon="2.95761">
        <ele>77.1</ele>
        <time>2018-05-19T08:39:03Z</time>
      </trkpt>
      <trkpt lat="43.1988" lon="2.95755">
        <ele>76.9</ele>
        <time>2018-05-19T08:39:08Z</time>
      </trkpt>
      <trkpt lat="43.19881" lon="2.95749">
        <ele>74.6</ele>
        <time>2018-05-19T08:39:13Z</time>
      </trkpt>
      <trkpt lat="43.19881" lon="2.95749">
        <ele>74.6</ele>
        <time>2018-05-19T08:39:18Z</time>
      </trkpt>
      <trkpt lat="43.19881" lon="2.95749">
        <ele>74.6</ele>
        <time>2018-05-19T08:39:23Z</time>
      </trkpt>
      <trkpt lat="43.19881" lon="2.95749">
        <ele>74.6</ele>
        <time>2018-05-19T08:39:28Z</time>
      </trkpt>
      <trkpt lat="43.19883" lon="2.95742">
        <ele>74.3</ele>
        <time>2018-05-19T08:39:33Z</time>
      </trkpt>
      <trkpt lat="43.19886" lon="2.95724">
        <ele>73.6</ele>
        <time>2018-05-19T08:39:38Z</time>
      </trkpt>
      <trkpt lat="43.19889" lon="2.95703">
        <ele>72.3</ele>
        <time>2018-05-19T08:39:43Z</time>
      </trkpt>
      <trkpt lat="43.19893" lon="2.95659">
        <ele>65.6</ele>
        <time>2018-05-19T08:39:48Z</time>
      </trkpt>
      <trkpt lat="43.19896" lon="2.95612">
        <ele>64.6</ele>
        <time>2018-05-19T08:39:53Z</time>
      </trkpt>
      <trkpt lat="43.19892" lon="2.95564">
        <ele>60.3</ele>
        <time>2018-05-19T08:39:58Z</time>
      </trkpt>
      <trkpt lat="43.19899" lon="2.95507">
        <ele>57.7</ele>
        <time>2018-05-19T08:40:03Z</time>
      </trkpt>
      <trkpt lat="43.19886" lon="2.95464">
        <ele>56.4</ele>
        <time>2018-05-19T08:40:08Z</time>
      </trkpt>
      <trkpt lat="43.19884" lon="2.95416">
        <ele>54.8</ele>
        <time>2018-05-19T08:40:13Z</time>
      </trkpt>
      <trkpt lat="43.19876" lon="2.95381">
        <ele>54.6</ele>
        <time>2018-05-19T08:40:18Z</time>
      </trkpt>
      <trkpt lat="43.19871" lon="2.95356">
        <ele>54.2</ele>
        <time>2018-05-19T08:40:23Z</time>
      </trkpt>
      <trkpt lat="43.19874" lon="2.95343">
        <ele>54.1</ele>
        <time>2018-05-19T08:40:28Z</time>
      </trkpt>
      <trkpt lat="43.19874" lon="2.95343">
        <ele>54.1</ele>
        <time>2018-05-19T08:40:33Z</time>
      </trkpt>
      <trkpt lat="43.19885" lon="2.95308">
        <ele>52.8</ele>
        <time>2018-05-19T08:40:38Z</time>
      </trkpt>
      <trkpt lat="43.19878" lon="2.95281">
        <ele>52.2</ele>
        <time>2018-05-19T08:40:43Z</time>
      </trkpt>
      <trkpt lat="43.19807" lon="2.95243">
        <ele>47.4</ele>
        <time>2018-05-19T08:40:48Z</time>
      </trkpt>
      <trkpt lat="43.19789" lon="2.95206">
        <ele>46.7</ele>
        <time>2018-05-19T08:40:53Z</time>
      </trkpt>
      <trkpt lat="43.19768" lon="2.95173">
        <ele>45.5</ele>
        <time>2018-05-19T08:40:58Z</time>
      </trkpt>
      <trkpt lat="43.19749" lon="2.95136">
        <ele>43.6</ele>
        <time>2018-05-19T08:41:03Z</time>
      </trkpt>
      <trkpt lat="43.19732" lon="2.95101">
        <ele>43.2</ele>
        <time>2018-05-19T08:41:08Z</time>
      </trkpt>
      <trkpt lat="43.19711" lon="2.95067">
        <ele>40.8</ele>
        <time>2018-05-19T08:41:13Z</time>
      </trkpt>
      <trkpt lat="43.19682" lon="2.95044">
        <ele>40.2</ele>
        <time>2018-05-19T08:41:18Z</time>
      </trkpt>
      <trkpt lat="43.19645" lon="2.95046">
        <ele>40.3</ele>
        <time>2018-05-19T08:41:23Z</time>
      </trkpt>
      <trkpt lat="43.19617" lon="2.95029">
        <ele>40.2</ele>
        <time>2018-05-19T08:41:28Z</time>
      </trkpt>
      <trkpt lat="43.19598" lon="2.95018">
        <ele>40.1</ele>
        <time>2018-05-19T08:41:33Z</time>
      </trkpt>
      <trkpt lat="43.19571" lon="2.95002">
        <ele>40.3</ele>
        <time>2018-05-19T08:41:38Z</time>
      </trkpt>
      <trkpt lat="43.19548" lon="2.94988">
        <ele>39.1</ele>
        <time>2018-05-19T08:41:43Z</time>
      </trkpt>
      <trkpt lat="43.19523" lon="2.94976">
        <ele>39.1</ele>
        <time>2018-05-19T08:41:48Z</time>
      </trkpt>
      <trkpt lat="43.19505" lon="2.94967">
        <ele>39</ele>
        <time>2018-05-19T08:41:53Z</time>
      </trkpt>
      <trkpt lat="43.19491" lon="2.94961">
        <ele>39.2</ele>
        <time>2018-05-19T08:41:58Z</time>
      </trkpt>
      <trkpt lat="43.19463" lon="2.94948">
        <ele>39.1</ele>
        <time>2018-05-19T08:42:03Z</time>
      </trkpt>
      <trkpt lat="43.19439" lon="2.94936">
        <ele>38.9</ele>
        <time>2018-05-19T08:42:08Z</time>
      </trkpt>
      <trkpt lat="43.19418" lon="2.94925">
        <ele>38.4</ele>
        <time>2018-05-19T08:42:13Z</time>
      </trkpt>
      <trkpt lat="43.19395" lon="2.94913">
        <ele>38.2</ele>
        <time>2018-05-19T08:42:18Z</time>
      </trkpt>
      <trkpt lat="43.19382" lon="2.94906">
        <ele>38.4</ele>
        <time>2018-05-19T08:42:23Z</time>
      </trkpt>
      <trkpt lat="43.19359" lon="2.94893">
        <ele>38.6</ele>
        <time>2018-05-19T08:42:28Z</time>
      </trkpt>
      <trkpt lat="43.19345" lon="2.94886">
        <ele>38.7</ele>
        <time>2018-05-19T08:42:33Z</time>
      </trkpt>
      <trkpt lat="43.19328" lon="2.94877">
        <ele>39.4</ele>
        <time>2018-05-19T08:42:38Z</time>
      </trkpt>
      <trkpt lat="43.19304" lon="2.94861">
        <ele>39.2</ele>
        <time>2018-05-19T08:42:43Z</time>
      </trkpt>
      <trkpt lat="43.19283" lon="2.94845">
        <ele>39</ele>
        <time>2018-05-19T08:42:48Z</time>
      </trkpt>
      <trkpt lat="43.19267" lon="2.94832">
        <ele>37.9</ele>
        <time>2018-05-19T08:42:53Z</time>
      </trkpt>
      <trkpt lat="43.19247" lon="2.94815">
        <ele>38.5</ele>
        <time>2018-05-19T08:42:58Z</time>
      </trkpt>
      <trkpt lat="43.19229" lon="2.948">
        <ele>38.7</ele>
        <time>2018-05-19T08:43:03Z</time>
      </trkpt>
      <trkpt lat="43.19216" lon="2.94789">
        <ele>38.8</ele>
        <time>2018-05-19T08:43:08Z</time>
      </trkpt>
      <trkpt lat="43.19192" lon="2.94768">
        <ele>39</ele>
        <time>2018-05-19T08:43:13Z</time>
      </trkpt>
      <trkpt lat="43.19175" lon="2.94753">
        <ele>39</ele>
        <time>2018-05-19T08:43:18Z</time>
      </trkpt>
      <trkpt lat="43.19154" lon="2.94733">
        <ele>38.2</ele>
        <time>2018-05-19T08:43:23Z</time>
      </trkpt>
      <trkpt lat="43.1914" lon="2.94718">
        <ele>37.9</ele>
        <time>2018-05-19T08:43:28Z</time>
      </trkpt>
      <trkpt lat="43.1912" lon="2.94698">
        <ele>37.6</ele>
        <time>2018-05-19T08:43:33Z</time>
      </trkpt>
      <trkpt lat="43.19107" lon="2.94684">
        <ele>37.5</ele>
        <time>2018-05-19T08:43:38Z</time>
      </trkpt>
      <trkpt lat="43.19091" lon="2.94666">
        <ele>36.8</ele>
        <time>2018-05-19T08:43:43Z</time>
      </trkpt>
      <trkpt lat="43.19078" lon="2.94652">
        <ele>36.9</ele>
        <time>2018-05-19T08:43:48Z</time>
      </trkpt>
      <trkpt lat="43.19059" lon="2.94629">
        <ele>36.8</ele>
        <time>2018-05-19T08:43:53Z</time>
      </trkpt>
      <trkpt lat="43.19042" lon="2.9461">
        <ele>36.7</ele>
        <time>2018-05-19T08:43:58Z</time>
      </trkpt>
      <trkpt lat="43.19029" lon="2.94591">
        <ele>36.6</ele>
        <time>2018-05-19T08:44:03Z</time>
      </trkpt>
      <trkpt lat="43.19012" lon="2.94574">
        <ele>35.9</ele>
        <time>2018-05-19T08:44:08Z</time>
      </trkpt>
      <trkpt lat="43.18996" lon="2.94561">
        <ele>35.9</ele>
        <time>2018-05-19T08:44:13Z</time>
      </trkpt>
      <trkpt lat="43.18972" lon="2.94543">
        <ele>35.9</ele>
        <time>2018-05-19T08:44:18Z</time>
      </trkpt>
      <trkpt lat="43.18953" lon="2.94523">
        <ele>35.9</ele>
        <time>2018-05-19T08:44:23Z</time>
      </trkpt>
      <trkpt lat="43.18936" lon="2.94506">
        <ele>35.9</ele>
        <time>2018-05-19T08:44:28Z</time>
      </trkpt>
      <trkpt lat="43.18918" lon="2.94489">
        <ele>35.3</ele>
        <time>2018-05-19T08:44:33Z</time>
      </trkpt>
      <trkpt lat="43.18897" lon="2.94474">
        <ele>35.6</ele>
        <time>2018-05-19T08:44:38Z</time>
      </trkpt>
      <trkpt lat="43.18873" lon="2.94461">
        <ele>35.6</ele>
        <time>2018-05-19T08:44:43Z</time>
      </trkpt>
      <trkpt lat="43.18852" lon="2.94449">
        <ele>35.6</ele>
        <time>2018-05-19T08:44:48Z</time>
      </trkpt>
      <trkpt lat="43.18832" lon="2.94437">
        <ele>36.1</ele>
        <time>2018-05-19T08:44:53Z</time>
      </trkpt>
      <trkpt lat="43.18811" lon="2.94427">
        <ele>36.2</ele>
        <time>2018-05-19T08:44:58Z</time>
      </trkpt>
      <trkpt lat="43.1879" lon="2.94418">
        <ele>36.5</ele>
        <time>2018-05-19T08:45:03Z</time>
      </trkpt>
      <trkpt lat="43.18771" lon="2.94405">
        <ele>35.1</ele>
        <time>2018-05-19T08:45:08Z</time>
      </trkpt>
      <trkpt lat="43.18751" lon="2.94391">
        <ele>35</ele>
        <time>2018-05-19T08:45:13Z</time>
      </trkpt>
      <trkpt lat="43.18733" lon="2.94375">
        <ele>35.7</ele>
        <time>2018-05-19T08:45:18Z</time>
      </trkpt>
      <trkpt lat="43.18718" lon="2.94364">
        <ele>35.7</ele>
        <time>2018-05-19T08:45:23Z</time>
      </trkpt>
      <trkpt lat="43.18699" lon="2.94342">
        <ele>35.8</ele>
        <time>2018-05-19T08:45:28Z</time>
      </trkpt>
      <trkpt lat="43.18689" lon="2.94318">
        <ele>34.5</ele>
        <time>2018-05-19T08:45:33Z</time>
      </trkpt>
      <trkpt lat="43.18668" lon="2.94292">
        <ele>34</ele>
        <time>2018-05-19T08:45:38Z</time>
      </trkpt>
      <trkpt lat="43.1865" lon="2.94264">
        <ele>34</ele>
        <time>2018-05-19T08:45:43Z</time>
      </trkpt>
      <trkpt lat="43.18633" lon="2.94243">
        <ele>32.8</ele>
        <time>2018-05-19T08:45:48Z</time>
      </trkpt>
      <trkpt lat="43.18618" lon="2.94224">
        <ele>32.7</ele>
        <time>2018-05-19T08:45:53Z</time>
      </trkpt>
      <trkpt lat="43.18599" lon="2.94206">
        <ele>32.6</ele>
        <time>2018-05-19T08:45:58Z</time>
      </trkpt>
      <trkpt lat="43.18581" lon="2.94186">
        <ele>32.6</ele>
        <time>2018-05-19T08:46:03Z</time>
      </trkpt>
      <trkpt lat="43.18565" lon="2.94169">
        <ele>32.5</ele>
        <time>2018-05-19T08:46:08Z</time>
      </trkpt>
      <trkpt lat="43.18553" lon="2.94156">
        <ele>32.7</ele>
        <time>2018-05-19T08:46:13Z</time>
      </trkpt>
      <trkpt lat="43.18544" lon="2.94144">
        <ele>32.9</ele>
        <time>2018-05-19T08:46:18Z</time>
      </trkpt>
      <trkpt lat="43.18556" lon="2.94127">
        <ele>32.8</ele>
        <time>2018-05-19T08:46:23Z</time>
      </trkpt>
      <trkpt lat="43.18577" lon="2.941">
        <ele>32.5</ele>
        <time>2018-05-19T08:46:28Z</time>
      </trkpt>
      <trkpt lat="43.18592" lon="2.94074">
        <ele>32.3</ele>
        <time>2018-05-19T08:46:33Z</time>
      </trkpt>
      <trkpt lat="43.18609" lon="2.94052">
        <ele>32.7</ele>
        <time>2018-05-19T08:46:38Z</time>
      </trkpt>
      <trkpt lat="43.18621" lon="2.94032">
        <ele>32.9</ele>
        <time>2018-05-19T08:46:43Z</time>
      </trkpt>
      <trkpt lat="43.18635" lon="2.9401">
        <ele>32.9</ele>
        <time>2018-05-19T08:46:48Z</time>
      </trkpt>
      <trkpt lat="43.18659" lon="2.93992">
        <ele>33</ele>
        <time>2018-05-19T08:46:53Z</time>
      </trkpt>
      <trkpt lat="43.18677" lon="2.9398">
        <ele>32.4</ele>
        <time>2018-05-19T08:46:58Z</time>
      </trkpt>
      <trkpt lat="43.18703" lon="2.93967">
        <ele>32.1</ele>
        <time>2018-05-19T08:47:03Z</time>
      </trkpt>
      <trkpt lat="43.18719" lon="2.93959">
        <ele>31.9</ele>
        <time>2018-05-19T08:47:08Z</time>
      </trkpt>
      <trkpt lat="43.18737" lon="2.93948">
        <ele>31.8</ele>
        <time>2018-05-19T08:47:13Z</time>
      </trkpt>
      <trkpt lat="43.18741" lon="2.93942">
        <ele>31.7</ele>
        <time>2018-05-19T08:47:18Z</time>
      </trkpt>
      <trkpt lat="43.18722" lon="2.93931">
        <ele>31.7</ele>
        <time>2018-05-19T08:47:23Z</time>
      </trkpt>
      <trkpt lat="43.18697" lon="2.93945">
        <ele>32</ele>
        <time>2018-05-19T08:47:28Z</time>
      </trkpt>
      <trkpt lat="43.18676" lon="2.93941">
        <ele>32</ele>
        <time>2018-05-19T08:47:33Z</time>
      </trkpt>
      <trkpt lat="43.18663" lon="2.93931">
        <ele>32.4</ele>
        <time>2018-05-19T08:47:38Z</time>
      </trkpt>
      <trkpt lat="43.18653" lon="2.93932">
        <ele>32.6</ele>
        <time>2018-05-19T08:47:43Z</time>
      </trkpt>
      <trkpt lat="43.18642" lon="2.93953">
        <ele>32.9</ele>
        <time>2018-05-19T08:47:48Z</time>
      </trkpt>
      <trkpt lat="43.18628" lon="2.93977">
        <ele>33.1</ele>
        <time>2018-05-19T08:47:53Z</time>
      </trkpt>
      <trkpt lat="43.18609" lon="2.93999">
        <ele>33.4</ele>
        <time>2018-05-19T08:47:58Z</time>
      </trkpt>
      <trkpt lat="43.18588" lon="2.94016">
        <ele>33.4</ele>
        <time>2018-05-19T08:48:03Z</time>
      </trkpt>
      <trkpt lat="43.18572" lon="2.94027">
        <ele>33.9</ele>
        <time>2018-05-19T08:48:08Z</time>
      </trkpt>
      <trkpt lat="43.18552" lon="2.94045">
        <ele>33.8</ele>
        <time>2018-05-19T08:48:13Z</time>
      </trkpt>
      <trkpt lat="43.18539" lon="2.9406">
        <ele>33.9</ele>
        <time>2018-05-19T08:48:18Z</time>
      </trkpt>
      <trkpt lat="43.18519" lon="2.9408">
        <ele>34.4</ele>
        <time>2018-05-19T08:48:23Z</time>
      </trkpt>
      <trkpt lat="43.18506" lon="2.94093">
        <ele>34.2</ele>
        <time>2018-05-19T08:48:28Z</time>
      </trkpt>
      <trkpt lat="43.18488" lon="2.94101">
        <ele>34.6</ele>
        <time>2018-05-19T08:48:33Z</time>
      </trkpt>
      <trkpt lat="43.18476" lon="2.94092">
        <ele>34.7</ele>
        <time>2018-05-19T08:48:38Z</time>
      </trkpt>
      <trkpt lat="43.18463" lon="2.94072">
        <ele>35.2</ele>
        <time>2018-05-19T08:48:43Z</time>
      </trkpt>
      <trkpt lat="43.18452" lon="2.94064">
        <ele>35.2</ele>
        <time>2018-05-19T08:48:48Z</time>
      </trkpt>
      <trkpt lat="43.18435" lon="2.94053">
        <ele>35.3</ele>
        <time>2018-05-19T08:48:53Z</time>
      </trkpt>
      <trkpt lat="43.18423" lon="2.94041">
        <ele>35.3</ele>
        <time>2018-05-19T08:48:58Z</time>
      </trkpt>
      <trkpt lat="43.18404" lon="2.94026">
        <ele>35.8</ele>
        <time>2018-05-19T08:49:03Z</time>
      </trkpt>
      <trkpt lat="43.18392" lon="2.94015">
        <ele>35.8</ele>
        <time>2018-05-19T08:49:08Z</time>
      </trkpt>
      <trkpt lat="43.18375" lon="2.93999">
        <ele>36</ele>
        <time>2018-05-19T08:49:13Z</time>
      </trkpt>
      <trkpt lat="43.18363" lon="2.93989">
        <ele>36</ele>
        <time>2018-05-19T08:49:18Z</time>
      </trkpt>
      <trkpt lat="43.18344" lon="2.93974">
        <ele>35.9</ele>
        <time>2018-05-19T08:49:23Z</time>
      </trkpt>
      <trkpt lat="43.1834" lon="2.93956">
        <ele>35.8</ele>
        <time>2018-05-19T08:49:28Z</time>
      </trkpt>
      <trkpt lat="43.1834" lon="2.93926">
        <ele>35.4</ele>
        <time>2018-05-19T08:49:33Z</time>
      </trkpt>
      <trkpt lat="43.18347" lon="2.93898">
        <ele>35.5</ele>
        <time>2018-05-19T08:49:38Z</time>
      </trkpt>
      <trkpt lat="43.1835" lon="2.93877">
        <ele>35.5</ele>
        <time>2018-05-19T08:49:43Z</time>
      </trkpt>
      <trkpt lat="43.18354" lon="2.93845">
        <ele>35.5</ele>
        <time>2018-05-19T08:49:48Z</time>
      </trkpt>
      <trkpt lat="43.18362" lon="2.93817">
        <ele>35.2</ele>
        <time>2018-05-19T08:49:53Z</time>
      </trkpt>
      <trkpt lat="43.18364" lon="2.93798">
        <ele>35.2</ele>
        <time>2018-05-19T08:49:58Z</time>
      </trkpt>
      <trkpt lat="43.18369" lon="2.93768">
        <ele>35.2</ele>
        <time>2018-05-19T08:50:03Z</time>
      </trkpt>
      <trkpt lat="43.18373" lon="2.93747">
        <ele>35</ele>
        <time>2018-05-19T08:50:08Z</time>
      </trkpt>
      <trkpt lat="43.18377" lon="2.93715">
        <ele>35</ele>
        <time>2018-05-19T08:50:13Z</time>
      </trkpt>
      <trkpt lat="43.1838" lon="2.93696">
        <ele>35</ele>
        <time>2018-05-19T08:50:18Z</time>
      </trkpt>
      <trkpt lat="43.18385" lon="2.93669">
        <ele>35</ele>
        <time>2018-05-19T08:50:23Z</time>
      </trkpt>
      <trkpt lat="43.18389" lon="2.93647">
        <ele>35</ele>
        <time>2018-05-19T08:50:28Z</time>
      </trkpt>
      <trkpt lat="43.1839" lon="2.9362">
        <ele>35</ele>
        <time>2018-05-19T08:50:33Z</time>
      </trkpt>
      <trkpt lat="43.1839" lon="2.93603">
        <ele>35</ele>
        <time>2018-05-19T08:50:38Z</time>
      </trkpt>
      <trkpt lat="43.18398" lon="2.93575">
        <ele>35.3</ele>
        <time>2018-05-19T08:50:43Z</time>
      </trkpt>
      <trkpt lat="43.18401" lon="2.93556">
        <ele>35.5</ele>
        <time>2018-05-19T08:50:48Z</time>
      </trkpt>
      <trkpt lat="43.18411" lon="2.93522">
        <ele>36.1</ele>
        <time>2018-05-19T08:50:53Z</time>
      </trkpt>
      <trkpt lat="43.18417" lon="2.93502">
        <ele>36.9</ele>
        <time>2018-05-19T08:50:58Z</time>
      </trkpt>
      <trkpt lat="43.18425" lon="2.93474">
        <ele>36.6</ele>
        <time>2018-05-19T08:51:03Z</time>
      </trkpt>
      <trkpt lat="43.18433" lon="2.93445">
        <ele>36.7</ele>
        <time>2018-05-19T08:51:08Z</time>
      </trkpt>
      <trkpt lat="43.18435" lon="2.93428">
        <ele>36.9</ele>
        <time>2018-05-19T08:51:13Z</time>
      </trkpt>
      <trkpt lat="43.18435" lon="2.93402">
        <ele>36.7</ele>
        <time>2018-05-19T08:51:18Z</time>
      </trkpt>
      <trkpt lat="43.18429" lon="2.93391">
        <ele>36.6</ele>
        <time>2018-05-19T08:51:23Z</time>
      </trkpt>
      <trkpt lat="43.18417" lon="2.93376">
        <ele>36.2</ele>
        <time>2018-05-19T08:51:28Z</time>
      </trkpt>
      <trkpt lat="43.18411" lon="2.93359">
        <ele>36</ele>
        <time>2018-05-19T08:51:33Z</time>
      </trkpt>
      <trkpt lat="43.18398" lon="2.93333">
        <ele>35.2</ele>
        <time>2018-05-19T08:51:38Z</time>
      </trkpt>
      <trkpt lat="43.18377" lon="2.93335">
        <ele>35.5</ele>
        <time>2018-05-19T08:51:43Z</time>
      </trkpt>
      <trkpt lat="43.18355" lon="2.93349">
        <ele>35.2</ele>
        <time>2018-05-19T08:51:48Z</time>
      </trkpt>
      <trkpt lat="43.1833" lon="2.93364">
        <ele>34.9</ele>
        <time>2018-05-19T08:51:53Z</time>
      </trkpt>
      <trkpt lat="43.1831" lon="2.93362">
        <ele>35</ele>
        <time>2018-05-19T08:51:58Z</time>
      </trkpt>
      <trkpt lat="43.18281" lon="2.93361">
        <ele>35.3</ele>
        <time>2018-05-19T08:52:03Z</time>
      </trkpt>
      <trkpt lat="43.1826" lon="2.9336">
        <ele>35.5</ele>
        <time>2018-05-19T08:52:08Z</time>
      </trkpt>
      <trkpt lat="43.18244" lon="2.93364">
        <ele>35.2</ele>
        <time>2018-05-19T08:52:13Z</time>
      </trkpt>
      <trkpt lat="43.18224" lon="2.93366">
        <ele>35</ele>
        <time>2018-05-19T08:52:18Z</time>
      </trkpt>
      <trkpt lat="43.18211" lon="2.9337">
        <ele>34.8</ele>
        <time>2018-05-19T08:52:23Z</time>
      </trkpt>
      <trkpt lat="43.18187" lon="2.93373">
        <ele>34.4</ele>
        <time>2018-05-19T08:52:28Z</time>
      </trkpt>
      <trkpt lat="43.18176" lon="2.93371">
        <ele>34.3</ele>
        <time>2018-05-19T08:52:33Z</time>
      </trkpt>
      <trkpt lat="43.18163" lon="2.93357">
        <ele>34.3</ele>
        <time>2018-05-19T08:52:38Z</time>
      </trkpt>
      <trkpt lat="43.18153" lon="2.93353">
        <ele>34.4</ele>
        <time>2018-05-19T08:52:43Z</time>
      </trkpt>
      <trkpt lat="43.18134" lon="2.93367">
        <ele>35</ele>
        <time>2018-05-19T08:52:48Z</time>
      </trkpt>
      <trkpt lat="43.18115" lon="2.93373">
        <ele>35.5</ele>
        <time>2018-05-19T08:52:53Z</time>
      </trkpt>
      <trkpt lat="43.18099" lon="2.93373">
        <ele>35.7</ele>
        <time>2018-05-19T08:52:58Z</time>
      </trkpt>
      <trkpt lat="43.18075" lon="2.93372">
        <ele>36.7</ele>
        <time>2018-05-19T08:53:03Z</time>
      </trkpt>
      <trkpt lat="43.18057" lon="2.93374">
        <ele>36.6</ele>
        <time>2018-05-19T08:53:08Z</time>
      </trkpt>
      <trkpt lat="43.18028" lon="2.93377">
        <ele>36.4</ele>
        <time>2018-05-19T08:53:13Z</time>
      </trkpt>
      <trkpt lat="43.18009" lon="2.93379">
        <ele>36.3</ele>
        <time>2018-05-19T08:53:18Z</time>
      </trkpt>
      <trkpt lat="43.1798" lon="2.93383">
        <ele>36.3</ele>
        <time>2018-05-19T08:53:23Z</time>
      </trkpt>
      <trkpt lat="43.17957" lon="2.93384">
        <ele>36.5</ele>
        <time>2018-05-19T08:53:28Z</time>
      </trkpt>
      <trkpt lat="43.17942" lon="2.93381">
        <ele>36.6</ele>
        <time>2018-05-19T08:53:33Z</time>
      </trkpt>
      <trkpt lat="43.17923" lon="2.93378">
        <ele>36.7</ele>
        <time>2018-05-19T08:53:38Z</time>
      </trkpt>
      <trkpt lat="43.17899" lon="2.93375">
        <ele>37.9</ele>
        <time>2018-05-19T08:53:43Z</time>
      </trkpt>
      <trkpt lat="43.17885" lon="2.93371">
        <ele>38.1</ele>
        <time>2018-05-19T08:53:48Z</time>
      </trkpt>
      <trkpt lat="43.17861" lon="2.93363">
        <ele>38.4</ele>
        <time>2018-05-19T08:53:53Z</time>
      </trkpt>
      <trkpt lat="43.17845" lon="2.93358">
        <ele>38.6</ele>
        <time>2018-05-19T08:53:58Z</time>
      </trkpt>
      <trkpt lat="43.17822" lon="2.93349">
        <ele>39.6</ele>
        <time>2018-05-19T08:54:03Z</time>
      </trkpt>
      <trkpt lat="43.1781" lon="2.93341">
        <ele>39.7</ele>
        <time>2018-05-19T08:54:08Z</time>
      </trkpt>
      <trkpt lat="43.17793" lon="2.93329">
        <ele>40.6</ele>
        <time>2018-05-19T08:54:13Z</time>
      </trkpt>
      <trkpt lat="43.1778" lon="2.93319">
        <ele>40.9</ele>
        <time>2018-05-19T08:54:18Z</time>
      </trkpt>
      <trkpt lat="43.17755" lon="2.93306">
        <ele>41.4</ele>
        <time>2018-05-19T08:54:23Z</time>
      </trkpt>
      <trkpt lat="43.17738" lon="2.93292">
        <ele>42.6</ele>
        <time>2018-05-19T08:54:28Z</time>
      </trkpt>
      <trkpt lat="43.17726" lon="2.93282">
        <ele>42.8</ele>
        <time>2018-05-19T08:54:33Z</time>
      </trkpt>
      <trkpt lat="43.17707" lon="2.93265">
        <ele>42.9</ele>
        <time>2018-05-19T08:54:38Z</time>
      </trkpt>
      <trkpt lat="43.17695" lon="2.93252">
        <ele>42.9</ele>
        <time>2018-05-19T08:54:43Z</time>
      </trkpt>
      <trkpt lat="43.17677" lon="2.93233">
        <ele>45.3</ele>
        <time>2018-05-19T08:54:48Z</time>
      </trkpt>
      <trkpt lat="43.17666" lon="2.93219">
        <ele>43.6</ele>
        <time>2018-05-19T08:54:53Z</time>
      </trkpt>
      <trkpt lat="43.1765" lon="2.932">
        <ele>44</ele>
        <time>2018-05-19T08:54:58Z</time>
      </trkpt>
      <trkpt lat="43.17641" lon="2.93187">
        <ele>44.1</ele>
        <time>2018-05-19T08:55:03Z</time>
      </trkpt>
      <trkpt lat="43.17628" lon="2.93164">
        <ele>45.7</ele>
        <time>2018-05-19T08:55:08Z</time>
      </trkpt>
      <trkpt lat="43.17621" lon="2.9315">
        <ele>45.4</ele>
        <time>2018-05-19T08:55:13Z</time>
      </trkpt>
      <trkpt lat="43.17612" lon="2.9313">
        <ele>45.4</ele>
        <time>2018-05-19T08:55:18Z</time>
      </trkpt>
      <trkpt lat="43.17605" lon="2.93118">
        <ele>45.3</ele>
        <time>2018-05-19T08:55:23Z</time>
      </trkpt>
      <trkpt lat="43.17595" lon="2.93098">
        <ele>44.7</ele>
        <time>2018-05-19T08:55:28Z</time>
      </trkpt>
      <trkpt lat="43.17588" lon="2.93085">
        <ele>43.7</ele>
        <time>2018-05-19T08:55:33Z</time>
      </trkpt>
      <trkpt lat="43.1758" lon="2.93067">
        <ele>43.1</ele>
        <time>2018-05-19T08:55:38Z</time>
      </trkpt>
      <trkpt lat="43.17574" lon="2.93056">
        <ele>43.1</ele>
        <time>2018-05-19T08:55:43Z</time>
      </trkpt>
      <trkpt lat="43.17563" lon="2.93037">
        <ele>43.3</ele>
        <time>2018-05-19T08:55:48Z</time>
      </trkpt>
      <trkpt lat="43.17554" lon="2.93022">
        <ele>43.4</ele>
        <time>2018-05-19T08:55:53Z</time>
      </trkpt>
      <trkpt lat="43.17541" lon="2.92998">
        <ele>45.4</ele>
        <time>2018-05-19T08:55:58Z</time>
      </trkpt>
      <trkpt lat="43.17532" lon="2.92983">
        <ele>45.4</ele>
        <time>2018-05-19T08:56:03Z</time>
      </trkpt>
      <trkpt lat="43.17519" lon="2.92958">
        <ele>45.6</ele>
        <time>2018-05-19T08:56:08Z</time>
      </trkpt>
      <trkpt lat="43.1751" lon="2.92944">
        <ele>45.4</ele>
        <time>2018-05-19T08:56:13Z</time>
      </trkpt>
      <trkpt lat="43.17498" lon="2.9292">
        <ele>44.2</ele>
        <time>2018-05-19T08:56:18Z</time>
      </trkpt>
      <trkpt lat="43.1749" lon="2.929">
        <ele>44.7</ele>
        <time>2018-05-19T08:56:23Z</time>
      </trkpt>
      <trkpt lat="43.17477" lon="2.92875">
        <ele>45.1</ele>
        <time>2018-05-19T08:56:28Z</time>
      </trkpt>
      <trkpt lat="43.1747" lon="2.92861">
        <ele>45.1</ele>
        <time>2018-05-19T08:56:33Z</time>
      </trkpt>
      <trkpt lat="43.17459" lon="2.92838">
        <ele>45.2</ele>
        <time>2018-05-19T08:56:38Z</time>
      </trkpt>
      <trkpt lat="43.1745" lon="2.92823">
        <ele>45.6</ele>
        <time>2018-05-19T08:56:43Z</time>
      </trkpt>
      <trkpt lat="43.17438" lon="2.92801">
        <ele>45.6</ele>
        <time>2018-05-19T08:56:48Z</time>
      </trkpt>
      <trkpt lat="43.1743" lon="2.92785">
        <ele>45.5</ele>
        <time>2018-05-19T08:56:53Z</time>
      </trkpt>
      <trkpt lat="43.17418" lon="2.92763">
        <ele>44.8</ele>
        <time>2018-05-19T08:56:58Z</time>
      </trkpt>
      <trkpt lat="43.1741" lon="2.92746">
        <ele>44.7</ele>
        <time>2018-05-19T08:57:03Z</time>
      </trkpt>
      <trkpt lat="43.17396" lon="2.92722">
        <ele>45.9</ele>
        <time>2018-05-19T08:57:08Z</time>
      </trkpt>
      <trkpt lat="43.17388" lon="2.92707">
        <ele>46.2</ele>
        <time>2018-05-19T08:57:13Z</time>
      </trkpt>
      <trkpt lat="43.17375" lon="2.92682">
        <ele>46.3</ele>
        <time>2018-05-19T08:57:18Z</time>
      </trkpt>
      <trkpt lat="43.17366" lon="2.92665">
        <ele>47.3</ele>
        <time>2018-05-19T08:57:23Z</time>
      </trkpt>
      <trkpt lat="43.17353" lon="2.92639">
        <ele>47.3</ele>
        <time>2018-05-19T08:57:28Z</time>
      </trkpt>
      <trkpt lat="43.17345" lon="2.92624">
        <ele>47.4</ele>
        <time>2018-05-19T08:57:33Z</time>
      </trkpt>
      <trkpt lat="43.17332" lon="2.92598">
        <ele>46.7</ele>
        <time>2018-05-19T08:57:38Z</time>
      </trkpt>
      <trkpt lat="43.17321" lon="2.9258">
        <ele>46.5</ele>
        <time>2018-05-19T08:57:43Z</time>
      </trkpt>
      <trkpt lat="43.17307" lon="2.92552">
        <ele>46.9</ele>
        <time>2018-05-19T08:57:48Z</time>
      </trkpt>
      <trkpt lat="43.17299" lon="2.92536">
        <ele>47</ele>
        <time>2018-05-19T08:57:53Z</time>
      </trkpt>
      <trkpt lat="43.17286" lon="2.9251">
        <ele>46.9</ele>
        <time>2018-05-19T08:57:58Z</time>
      </trkpt>
      <trkpt lat="43.17278" lon="2.92494">
        <ele>47.7</ele>
        <time>2018-05-19T08:58:03Z</time>
      </trkpt>
      <trkpt lat="43.17266" lon="2.92471">
        <ele>47.9</ele>
        <time>2018-05-19T08:58:08Z</time>
      </trkpt>
      <trkpt lat="43.17256" lon="2.92455">
        <ele>48.2</ele>
        <time>2018-05-19T08:58:13Z</time>
      </trkpt>
      <trkpt lat="43.17242" lon="2.92429">
        <ele>48.6</ele>
        <time>2018-05-19T08:58:18Z</time>
      </trkpt>
      <trkpt lat="43.17231" lon="2.92415">
        <ele>50.2</ele>
        <time>2018-05-19T08:58:23Z</time>
      </trkpt>
      <trkpt lat="43.17218" lon="2.92393">
        <ele>51</ele>
        <time>2018-05-19T08:58:28Z</time>
      </trkpt>
      <trkpt lat="43.1721" lon="2.92377">
        <ele>51.4</ele>
        <time>2018-05-19T08:58:33Z</time>
      </trkpt>
      <trkpt lat="43.172" lon="2.92356">
        <ele>52</ele>
        <time>2018-05-19T08:58:38Z</time>
      </trkpt>
      <trkpt lat="43.17192" lon="2.92342">
        <ele>52.2</ele>
        <time>2018-05-19T08:58:43Z</time>
      </trkpt>
      <trkpt lat="43.17179" lon="2.92316">
        <ele>55</ele>
        <time>2018-05-19T08:58:48Z</time>
      </trkpt>
      <trkpt lat="43.1717" lon="2.923">
        <ele>55.6</ele>
        <time>2018-05-19T08:58:53Z</time>
      </trkpt>
      <trkpt lat="43.17158" lon="2.92277">
        <ele>53.3</ele>
        <time>2018-05-19T08:58:58Z</time>
      </trkpt>
      <trkpt lat="43.1715" lon="2.92261">
        <ele>53.7</ele>
        <time>2018-05-19T08:59:03Z</time>
      </trkpt>
      <trkpt lat="43.17139" lon="2.92238">
        <ele>55.5</ele>
        <time>2018-05-19T08:59:08Z</time>
      </trkpt>
      <trkpt lat="43.1713" lon="2.92222">
        <ele>55.5</ele>
        <time>2018-05-19T08:59:13Z</time>
      </trkpt>
      <trkpt lat="43.17119" lon="2.922">
        <ele>55.7</ele>
        <time>2018-05-19T08:59:18Z</time>
      </trkpt>
      <trkpt lat="43.17111" lon="2.92185">
        <ele>55.4</ele>
        <time>2018-05-19T08:59:23Z</time>
      </trkpt>
      <trkpt lat="43.17098" lon="2.92167">
        <ele>56</ele>
        <time>2018-05-19T08:59:28Z</time>
      </trkpt>
      <trkpt lat="43.17089" lon="2.92153">
        <ele>56</ele>
        <time>2018-05-19T08:59:33Z</time>
      </trkpt>
      <trkpt lat="43.17078" lon="2.92129">
        <ele>52.5</ele>
        <time>2018-05-19T08:59:38Z</time>
      </trkpt>
      <trkpt lat="43.1707" lon="2.92111">
        <ele>52.7</ele>
        <time>2018-05-19T08:59:43Z</time>
      </trkpt>
      <trkpt lat="43.1706" lon="2.92084">
        <ele>52.9</ele>
        <time>2018-05-19T08:59:48Z</time>
      </trkpt>
      <trkpt lat="43.17056" lon="2.92066">
        <ele>52.8</ele>
        <time>2018-05-19T08:59:53Z</time>
      </trkpt>
      <trkpt lat="43.17051" lon="2.92038">
        <ele>52.6</ele>
        <time>2018-05-19T08:59:58Z</time>
      </trkpt>
      <trkpt lat="43.17048" lon="2.92022">
        <ele>52.6</ele>
        <time>2018-05-19T09:00:03Z</time>
      </trkpt>
      <trkpt lat="43.17044" lon="2.91994">
        <ele>54.6</ele>
        <time>2018-05-19T09:00:08Z</time>
      </trkpt>
      <trkpt lat="43.17046" lon="2.91972">
        <ele>55.2</ele>
        <time>2018-05-19T09:00:13Z</time>
      </trkpt>
      <trkpt lat="43.17044" lon="2.91944">
        <ele>56.2</ele>
        <time>2018-05-19T09:00:18Z</time>
      </trkpt>
      <trkpt lat="43.17043" lon="2.91925">
        <ele>56.7</ele>
        <time>2018-05-19T09:00:23Z</time>
      </trkpt>
      <trkpt lat="43.17042" lon="2.91897">
        <ele>58.9</ele>
        <time>2018-05-19T09:00:28Z</time>
      </trkpt>
      <trkpt lat="43.17042" lon="2.91882">
        <ele>59</ele>
        <time>2018-05-19T09:00:33Z</time>
      </trkpt>
      <trkpt lat="43.17041" lon="2.91867">
        <ele>59</ele>
        <time>2018-05-19T09:00:38Z</time>
      </trkpt>
      <trkpt lat="43.17039" lon="2.91845">
        <ele>58.8</ele>
        <time>2018-05-19T09:00:43Z</time>
      </trkpt>
      <trkpt lat="43.17037" lon="2.91829">
        <ele>58.5</ele>
        <time>2018-05-19T09:00:48Z</time>
      </trkpt>
      <trkpt lat="43.17035" lon="2.91805">
        <ele>58.3</ele>
        <time>2018-05-19T09:00:53Z</time>
      </trkpt>
      <trkpt lat="43.17034" lon="2.91788">
        <ele>58.1</ele>
        <time>2018-05-19T09:00:58Z</time>
      </trkpt>
      <trkpt lat="43.17033" lon="2.91764">
        <ele>57.7</ele>
        <time>2018-05-19T09:01:03Z</time>
      </trkpt>
      <trkpt lat="43.17032" lon="2.91745">
        <ele>56.5</ele>
        <time>2018-05-19T09:01:08Z</time>
      </trkpt>
      <trkpt lat="43.1703" lon="2.91722">
        <ele>56.5</ele>
        <time>2018-05-19T09:01:13Z</time>
      </trkpt>
      <trkpt lat="43.1703" lon="2.91708">
        <ele>56.5</ele>
        <time>2018-05-19T09:01:18Z</time>
      </trkpt>
      <trkpt lat="43.17029" lon="2.91687">
        <ele>56.1</ele>
        <time>2018-05-19T09:01:23Z</time>
      </trkpt>
      <trkpt lat="43.17028" lon="2.91674">
        <ele>55.8</ele>
        <time>2018-05-19T09:01:28Z</time>
      </trkpt>
      <trkpt lat="43.17022" lon="2.91654">
        <ele>55.5</ele>
        <time>2018-05-19T09:01:33Z</time>
      </trkpt>
      <trkpt lat="43.17017" lon="2.9164">
        <ele>55.7</ele>
        <time>2018-05-19T09:01:38Z</time>
      </trkpt>
      <trkpt lat="43.17006" lon="2.91622">
        <ele>55.8</ele>
        <time>2018-05-19T09:01:43Z</time>
      </trkpt>
      <trkpt lat="43.17" lon="2.91609">
        <ele>55.8</ele>
        <time>2018-05-19T09:01:48Z</time>
      </trkpt>
      <trkpt lat="43.16991" lon="2.91592">
        <ele>54.8</ele>
        <time>2018-05-19T09:01:53Z</time>
      </trkpt>
      <trkpt lat="43.16986" lon="2.91587">
        <ele>54.8</ele>
        <time>2018-05-19T09:01:58Z</time>
      </trkpt>
      <trkpt lat="43.16982" lon="2.91581">
        <ele>54.8</ele>
        <time>2018-05-19T09:02:03Z</time>
      </trkpt>
      <trkpt lat="43.16978" lon="2.91569">
        <ele>54.8</ele>
        <time>2018-05-19T09:02:08Z</time>
      </trkpt>
      <trkpt lat="43.16971" lon="2.91558">
        <ele>54.8</ele>
        <time>2018-05-19T09:02:13Z</time>
      </trkpt>
      <trkpt lat="43.16967" lon="2.91552">
        <ele>54.8</ele>
        <time>2018-05-19T09:02:18Z</time>
      </trkpt>
      <trkpt lat="43.16962" lon="2.91539">
        <ele>54.9</ele>
        <time>2018-05-19T09:02:23Z</time>
      </trkpt>
      <trkpt lat="43.16955" lon="2.91526">
        <ele>54.9</ele>
        <time>2018-05-19T09:02:28Z</time>
      </trkpt>
      <trkpt lat="43.16952" lon="2.91519">
        <ele>54.8</ele>
        <time>2018-05-19T09:02:33Z</time>
      </trkpt>
      <trkpt lat="43.16948" lon="2.91505">
        <ele>54.7</ele>
        <time>2018-05-19T09:02:38Z</time>
      </trkpt>
      <trkpt lat="43.16945" lon="2.91486">
        <ele>56.2</ele>
        <time>2018-05-19T09:02:43Z</time>
      </trkpt>
      <trkpt lat="43.16945" lon="2.91469">
        <ele>56.6</ele>
        <time>2018-05-19T09:02:48Z</time>
      </trkpt>
      <trkpt lat="43.16943" lon="2.91445">
        <ele>56.9</ele>
        <time>2018-05-19T09:02:53Z</time>
      </trkpt>
      <trkpt lat="43.16941" lon="2.91431">
        <ele>57</ele>
        <time>2018-05-19T09:02:58Z</time>
      </trkpt>
      <trkpt lat="43.16937" lon="2.91416">
        <ele>58.1</ele>
        <time>2018-05-19T09:03:03Z</time>
      </trkpt>
      <trkpt lat="43.16935" lon="2.91409">
        <ele>58.1</ele>
        <time>2018-05-19T09:03:08Z</time>
      </trkpt>
      <trkpt lat="43.1693" lon="2.91384">
        <ele>58.8</ele>
        <time>2018-05-19T09:03:13Z</time>
      </trkpt>
      <trkpt lat="43.16926" lon="2.91369">
        <ele>59.1</ele>
        <time>2018-05-19T09:03:18Z</time>
      </trkpt>
      <trkpt lat="43.16919" lon="2.91346">
        <ele>59.2</ele>
        <time>2018-05-19T09:03:23Z</time>
      </trkpt>
      <trkpt lat="43.16913" lon="2.91331">
        <ele>59.1</ele>
        <time>2018-05-19T09:03:28Z</time>
      </trkpt>
      <trkpt lat="43.16905" lon="2.91308">
        <ele>59.4</ele>
        <time>2018-05-19T09:03:33Z</time>
      </trkpt>
      <trkpt lat="43.169" lon="2.91295">
        <ele>59.5</ele>
        <time>2018-05-19T09:03:38Z</time>
      </trkpt>
      <trkpt lat="43.16895" lon="2.91271">
        <ele>60</ele>
        <time>2018-05-19T09:03:43Z</time>
      </trkpt>
      <trkpt lat="43.16893" lon="2.91254">
        <ele>60.2</ele>
        <time>2018-05-19T09:03:48Z</time>
      </trkpt>
      <trkpt lat="43.16893" lon="2.91224">
        <ele>61.9</ele>
        <time>2018-05-19T09:03:53Z</time>
      </trkpt>
      <trkpt lat="43.1689" lon="2.91202">
        <ele>62.4</ele>
        <time>2018-05-19T09:03:58Z</time>
      </trkpt>
      <trkpt lat="43.16889" lon="2.91188">
        <ele>62.8</ele>
        <time>2018-05-19T09:04:03Z</time>
      </trkpt>
      <trkpt lat="43.16885" lon="2.91166">
        <ele>65.5</ele>
        <time>2018-05-19T09:04:08Z</time>
      </trkpt>
      <trkpt lat="43.16883" lon="2.91153">
        <ele>65.5</ele>
        <time>2018-05-19T09:04:13Z</time>
      </trkpt>
      <trkpt lat="43.16878" lon="2.91131">
        <ele>65.8</ele>
        <time>2018-05-19T09:04:18Z</time>
      </trkpt>
      <trkpt lat="43.16875" lon="2.91115">
        <ele>66</ele>
        <time>2018-05-19T09:04:23Z</time>
      </trkpt>
      <trkpt lat="43.16867" lon="2.91092">
        <ele>65.9</ele>
        <time>2018-05-19T09:04:28Z</time>
      </trkpt>
      <trkpt lat="43.16861" lon="2.91075">
        <ele>68.4</ele>
        <time>2018-05-19T09:04:33Z</time>
      </trkpt>
      <trkpt lat="43.16854" lon="2.91052">
        <ele>68.8</ele>
        <time>2018-05-19T09:04:38Z</time>
      </trkpt>
      <trkpt lat="43.16848" lon="2.91037">
        <ele>69</ele>
        <time>2018-05-19T09:04:43Z</time>
      </trkpt>
      <trkpt lat="43.16839" lon="2.91014">
        <ele>68.1</ele>
        <time>2018-05-19T09:04:48Z</time>
      </trkpt>
      <trkpt lat="43.16834" lon="2.91">
        <ele>66.2</ele>
        <time>2018-05-19T09:04:53Z</time>
      </trkpt>
      <trkpt lat="43.16826" lon="2.90978">
        <ele>69.4</ele>
        <time>2018-05-19T09:04:58Z</time>
      </trkpt>
      <trkpt lat="43.1682" lon="2.90964">
        <ele>70.4</ele>
        <time>2018-05-19T09:05:03Z</time>
      </trkpt>
      <trkpt lat="43.16812" lon="2.90942">
        <ele>71.1</ele>
        <time>2018-05-19T09:05:08Z</time>
      </trkpt>
      <trkpt lat="43.16807" lon="2.90926">
        <ele>71.2</ele>
        <time>2018-05-19T09:05:13Z</time>
      </trkpt>
      <trkpt lat="43.16799" lon="2.90904">
        <ele>73.6</ele>
        <time>2018-05-19T09:05:18Z</time>
      </trkpt>
      <trkpt lat="43.16793" lon="2.9089">
        <ele>73.9</ele>
        <time>2018-05-19T09:05:23Z</time>
      </trkpt>
      <trkpt lat="43.16787" lon="2.90868">
        <ele>74.5</ele>
        <time>2018-05-19T09:05:28Z</time>
      </trkpt>
      <trkpt lat="43.16782" lon="2.90854">
        <ele>74.6</ele>
        <time>2018-05-19T09:05:33Z</time>
      </trkpt>
      <trkpt lat="43.16776" lon="2.90831">
        <ele>77.1</ele>
        <time>2018-05-19T09:05:38Z</time>
      </trkpt>
      <trkpt lat="43.16773" lon="2.90814">
        <ele>77.5</ele>
        <time>2018-05-19T09:05:43Z</time>
      </trkpt>
      <trkpt lat="43.16771" lon="2.90788">
        <ele>78.5</ele>
        <time>2018-05-19T09:05:48Z</time>
      </trkpt>
      <trkpt lat="43.16774" lon="2.9077">
        <ele>78.7</ele>
        <time>2018-05-19T09:05:53Z</time>
      </trkpt>
      <trkpt lat="43.1678" lon="2.90747">
        <ele>80.8</ele>
        <time>2018-05-19T09:05:58Z</time>
      </trkpt>
      <trkpt lat="43.16785" lon="2.90735">
        <ele>81.6</ele>
        <time>2018-05-19T09:06:03Z</time>
      </trkpt>
      <trkpt lat="43.16794" lon="2.90718">
        <ele>82.4</ele>
        <time>2018-05-19T09:06:08Z</time>
      </trkpt>
      <trkpt lat="43.168" lon="2.90705">
        <ele>82.6</ele>
        <time>2018-05-19T09:06:13Z</time>
      </trkpt>
      <trkpt lat="43.16809" lon="2.90684">
        <ele>82.9</ele>
        <time>2018-05-19T09:06:18Z</time>
      </trkpt>
      <trkpt lat="43.16813" lon="2.9067">
        <ele>83.1</ele>
        <time>2018-05-19T09:06:23Z</time>
      </trkpt>
      <trkpt lat="43.16817" lon="2.9065">
        <ele>83.4</ele>
        <time>2018-05-19T09:06:28Z</time>
      </trkpt>
      <trkpt lat="43.16818" lon="2.90635">
        <ele>83.3</ele>
        <time>2018-05-19T09:06:33Z</time>
      </trkpt>
      <trkpt lat="43.1682" lon="2.90611">
        <ele>83.3</ele>
        <time>2018-05-19T09:06:38Z</time>
      </trkpt>
      <trkpt lat="43.1682" lon="2.90596">
        <ele>83.2</ele>
        <time>2018-05-19T09:06:43Z</time>
      </trkpt>
      <trkpt lat="43.16819" lon="2.90573">
        <ele>84.2</ele>
        <time>2018-05-19T09:06:48Z</time>
      </trkpt>
      <trkpt lat="43.16818" lon="2.90556">
        <ele>84.7</ele>
        <time>2018-05-19T09:06:53Z</time>
      </trkpt>
      <trkpt lat="43.16815" lon="2.90532">
        <ele>85.1</ele>
        <time>2018-05-19T09:06:58Z</time>
      </trkpt>
      <trkpt lat="43.16813" lon="2.90516">
        <ele>85.1</ele>
        <time>2018-05-19T09:07:03Z</time>
      </trkpt>
      <trkpt lat="43.16812" lon="2.90493">
        <ele>86.3</ele>
        <time>2018-05-19T09:07:08Z</time>
      </trkpt>
      <trkpt lat="43.16811" lon="2.90478">
        <ele>86.7</ele>
        <time>2018-05-19T09:07:13Z</time>
      </trkpt>
      <trkpt lat="43.1681" lon="2.90453">
        <ele>87</ele>
        <time>2018-05-19T09:07:18Z</time>
      </trkpt>
      <trkpt lat="43.16811" lon="2.90438">
        <ele>86.8</ele>
        <time>2018-05-19T09:07:23Z</time>
      </trkpt>
      <trkpt lat="43.16815" lon="2.90415">
        <ele>87</ele>
        <time>2018-05-19T09:07:28Z</time>
      </trkpt>
      <trkpt lat="43.16819" lon="2.90399">
        <ele>87.2</ele>
        <time>2018-05-19T09:07:33Z</time>
      </trkpt>
      <trkpt lat="43.16827" lon="2.90378">
        <ele>87.4</ele>
        <time>2018-05-19T09:07:38Z</time>
      </trkpt>
      <trkpt lat="43.16833" lon="2.90365">
        <ele>86.9</ele>
        <time>2018-05-19T09:07:43Z</time>
      </trkpt>
      <trkpt lat="43.16843" lon="2.9035">
        <ele>87.5</ele>
        <time>2018-05-19T09:07:48Z</time>
      </trkpt>
      <trkpt lat="43.1685" lon="2.90339">
        <ele>87.5</ele>
        <time>2018-05-19T09:07:53Z</time>
      </trkpt>
      <trkpt lat="43.16861" lon="2.90318">
        <ele>86.3</ele>
        <time>2018-05-19T09:07:58Z</time>
      </trkpt>
      <trkpt lat="43.16868" lon="2.90304">
        <ele>86.9</ele>
        <time>2018-05-19T09:08:03Z</time>
      </trkpt>
      <trkpt lat="43.16877" lon="2.90283">
        <ele>86.8</ele>
        <time>2018-05-19T09:08:08Z</time>
      </trkpt>
      <trkpt lat="43.16879" lon="2.90267">
        <ele>86.4</ele>
        <time>2018-05-19T09:08:13Z</time>
      </trkpt>
      <trkpt lat="43.16879" lon="2.90241">
        <ele>84.5</ele>
        <time>2018-05-19T09:08:18Z</time>
      </trkpt>
      <trkpt lat="43.16878" lon="2.90228">
        <ele>84.5</ele>
        <time>2018-05-19T09:08:23Z</time>
      </trkpt>
      <trkpt lat="43.16867" lon="2.90202">
        <ele>84.5</ele>
        <time>2018-05-19T09:08:28Z</time>
      </trkpt>
      <trkpt lat="43.16858" lon="2.90185">
        <ele>84.6</ele>
        <time>2018-05-19T09:08:33Z</time>
      </trkpt>
      <trkpt lat="43.16845" lon="2.90163">
        <ele>87.5</ele>
        <time>2018-05-19T09:08:38Z</time>
      </trkpt>
      <trkpt lat="43.16838" lon="2.90151">
        <ele>88.4</ele>
        <time>2018-05-19T09:08:43Z</time>
      </trkpt>
      <trkpt lat="43.16825" lon="2.90134">
        <ele>90.8</ele>
        <time>2018-05-19T09:08:48Z</time>
      </trkpt>
      <trkpt lat="43.16813" lon="2.90128">
        <ele>91.5</ele>
        <time>2018-05-19T09:08:53Z</time>
      </trkpt>
      <trkpt lat="43.16796" lon="2.90129">
        <ele>91.4</ele>
        <time>2018-05-19T09:08:58Z</time>
      </trkpt>
      <trkpt lat="43.16786" lon="2.90133">
        <ele>91</ele>
        <time>2018-05-19T09:09:03Z</time>
      </trkpt>
      <trkpt lat="43.16769" lon="2.90139">
        <ele>90.2</ele>
        <time>2018-05-19T09:09:08Z</time>
      </trkpt>
      <trkpt lat="43.16758" lon="2.9014">
        <ele>89.6</ele>
        <time>2018-05-19T09:09:13Z</time>
      </trkpt>
      <trkpt lat="43.1674" lon="2.90138">
        <ele>90.1</ele>
        <time>2018-05-19T09:09:18Z</time>
      </trkpt>
      <trkpt lat="43.16731" lon="2.90135">
        <ele>90.7</ele>
        <time>2018-05-19T09:09:23Z</time>
      </trkpt>
      <trkpt lat="43.16716" lon="2.90131">
        <ele>91.3</ele>
        <time>2018-05-19T09:09:28Z</time>
      </trkpt>
      <trkpt lat="43.16705" lon="2.90131">
        <ele>91.4</ele>
        <time>2018-05-19T09:09:33Z</time>
      </trkpt>
      <trkpt lat="43.16691" lon="2.90135">
        <ele>91.2</ele>
        <time>2018-05-19T09:09:38Z</time>
      </trkpt>
      <trkpt lat="43.16684" lon="2.90135">
        <ele>91.1</ele>
        <time>2018-05-19T09:09:43Z</time>
      </trkpt>
      <trkpt lat="43.16671" lon="2.90132">
        <ele>91.3</ele>
        <time>2018-05-19T09:09:48Z</time>
      </trkpt>
      <trkpt lat="43.16659" lon="2.90123">
        <ele>93.1</ele>
        <time>2018-05-19T09:09:53Z</time>
      </trkpt>
      <trkpt lat="43.16655" lon="2.90118">
        <ele>93.4</ele>
        <time>2018-05-19T09:09:58Z</time>
      </trkpt>
      <trkpt lat="43.16647" lon="2.901">
        <ele>94.1</ele>
        <time>2018-05-19T09:10:03Z</time>
      </trkpt>
      <trkpt lat="43.16645" lon="2.90091">
        <ele>94.3</ele>
        <time>2018-05-19T09:10:08Z</time>
      </trkpt>
      <trkpt lat="43.1664" lon="2.90075">
        <ele>95.6</ele>
        <time>2018-05-19T09:10:13Z</time>
      </trkpt>
      <trkpt lat="43.16635" lon="2.90057">
        <ele>95.7</ele>
        <time>2018-05-19T09:10:18Z</time>
      </trkpt>
      <trkpt lat="43.16631" lon="2.90045">
        <ele>95.7</ele>
        <time>2018-05-19T09:10:23Z</time>
      </trkpt>
      <trkpt lat="43.16627" lon="2.90031">
        <ele>95.8</ele>
        <time>2018-05-19T09:10:28Z</time>
      </trkpt>
      <trkpt lat="43.16622" lon="2.90016">
        <ele>95.5</ele>
        <time>2018-05-19T09:10:33Z</time>
      </trkpt>
      <trkpt lat="43.16618" lon="2.90005">
        <ele>95.1</ele>
        <time>2018-05-19T09:10:38Z</time>
      </trkpt>
      <trkpt lat="43.16612" lon="2.8999">
        <ele>95.9</ele>
        <time>2018-05-19T09:10:43Z</time>
      </trkpt>
      <trkpt lat="43.16606" lon="2.89977">
        <ele>95.7</ele>
        <time>2018-05-19T09:10:48Z</time>
      </trkpt>
      <trkpt lat="43.16598" lon="2.89966">
        <ele>95.7</ele>
        <time>2018-05-19T09:10:53Z</time>
      </trkpt>
      <trkpt lat="43.16588" lon="2.89958">
        <ele>95.3</ele>
        <time>2018-05-19T09:10:58Z</time>
      </trkpt>
      <trkpt lat="43.16576" lon="2.89948">
        <ele>92.1</ele>
        <time>2018-05-19T09:11:03Z</time>
      </trkpt>
      <trkpt lat="43.16567" lon="2.89942">
        <ele>92.2</ele>
        <time>2018-05-19T09:11:08Z</time>
      </trkpt>
      <trkpt lat="43.16554" lon="2.89932">
        <ele>92.4</ele>
        <time>2018-05-19T09:11:13Z</time>
      </trkpt>
      <trkpt lat="43.16546" lon="2.89926">
        <ele>92.6</ele>
        <time>2018-05-19T09:11:18Z</time>
      </trkpt>
      <trkpt lat="43.16532" lon="2.89915">
        <ele>92.2</ele>
        <time>2018-05-19T09:11:23Z</time>
      </trkpt>
      <trkpt lat="43.16522" lon="2.89908">
        <ele>92.3</ele>
        <time>2018-05-19T09:11:28Z</time>
      </trkpt>
      <trkpt lat="43.16512" lon="2.89901">
        <ele>92.4</ele>
        <time>2018-05-19T09:11:33Z</time>
      </trkpt>
      <trkpt lat="43.16504" lon="2.89894">
        <ele>92.4</ele>
        <time>2018-05-19T09:11:38Z</time>
      </trkpt>
      <trkpt lat="43.16494" lon="2.89884">
        <ele>93.5</ele>
        <time>2018-05-19T09:11:43Z</time>
      </trkpt>
      <trkpt lat="43.16487" lon="2.89875">
        <ele>93.5</ele>
        <time>2018-05-19T09:11:48Z</time>
      </trkpt>
      <trkpt lat="43.16472" lon="2.8987">
        <ele>93.7</ele>
        <time>2018-05-19T09:11:53Z</time>
      </trkpt>
      <trkpt lat="43.16462" lon="2.89863">
        <ele>93.9</ele>
        <time>2018-05-19T09:11:58Z</time>
      </trkpt>
      <trkpt lat="43.16452" lon="2.89854">
        <ele>94</ele>
        <time>2018-05-19T09:12:03Z</time>
      </trkpt>
      <trkpt lat="43.16441" lon="2.89847">
        <ele>94.2</ele>
        <time>2018-05-19T09:12:08Z</time>
      </trkpt>
      <trkpt lat="43.16431" lon="2.89842">
        <ele>94.5</ele>
        <time>2018-05-19T09:12:13Z</time>
      </trkpt>
      <trkpt lat="43.16421" lon="2.89834">
        <ele>94.8</ele>
        <time>2018-05-19T09:12:18Z</time>
      </trkpt>
      <trkpt lat="43.16412" lon="2.89827">
        <ele>95.6</ele>
        <time>2018-05-19T09:12:23Z</time>
      </trkpt>
      <trkpt lat="43.16404" lon="2.8982">
        <ele>96</ele>
        <time>2018-05-19T09:12:28Z</time>
      </trkpt>
      <trkpt lat="43.16392" lon="2.89813">
        <ele>96.5</ele>
        <time>2018-05-19T09:12:33Z</time>
      </trkpt>
      <trkpt lat="43.16381" lon="2.89808">
        <ele>96.9</ele>
        <time>2018-05-19T09:12:38Z</time>
      </trkpt>
      <trkpt lat="43.16375" lon="2.89806">
        <ele>97.1</ele>
        <time>2018-05-19T09:12:43Z</time>
      </trkpt>
      <trkpt lat="43.16364" lon="2.89805">
        <ele>97.5</ele>
        <time>2018-05-19T09:12:48Z</time>
      </trkpt>
      <trkpt lat="43.16347" lon="2.89809">
        <ele>98</ele>
        <time>2018-05-19T09:12:53Z</time>
      </trkpt>
      <trkpt lat="43.16341" lon="2.89812">
        <ele>98.3</ele>
        <time>2018-05-19T09:12:58Z</time>
      </trkpt>
      <trkpt lat="43.1633" lon="2.89815">
        <ele>100.9</ele>
        <time>2018-05-19T09:13:03Z</time>
      </trkpt>
      <trkpt lat="43.1632" lon="2.8982">
        <ele>101.1</ele>
        <time>2018-05-19T09:13:08Z</time>
      </trkpt>
      <trkpt lat="43.16315" lon="2.89822">
        <ele>101.2</ele>
        <time>2018-05-19T09:13:13Z</time>
      </trkpt>
      <trkpt lat="43.16305" lon="2.89828">
        <ele>101.6</ele>
        <time>2018-05-19T09:13:18Z</time>
      </trkpt>
      <trkpt lat="43.16296" lon="2.89835">
        <ele>102.1</ele>
        <time>2018-05-19T09:13:23Z</time>
      </trkpt>
      <trkpt lat="43.1629" lon="2.89836">
        <ele>102.4</ele>
        <time>2018-05-19T09:13:28Z</time>
      </trkpt>
      <trkpt lat="43.16274" lon="2.89838">
        <ele>103.1</ele>
        <time>2018-05-19T09:13:33Z</time>
      </trkpt>
      <trkpt lat="43.16268" lon="2.89835">
        <ele>103.5</ele>
        <time>2018-05-19T09:13:38Z</time>
      </trkpt>
      <trkpt lat="43.16257" lon="2.89826">
        <ele>104</ele>
        <time>2018-05-19T09:13:43Z</time>
      </trkpt>
      <trkpt lat="43.1625" lon="2.89815">
        <ele>106.2</ele>
        <time>2018-05-19T09:13:48Z</time>
      </trkpt>
      <trkpt lat="43.16247" lon="2.89809">
        <ele>106.4</ele>
        <time>2018-05-19T09:13:53Z</time>
      </trkpt>
      <trkpt lat="43.16239" lon="2.89797">
        <ele>106.7</ele>
        <time>2018-05-19T09:13:58Z</time>
      </trkpt>
      <trkpt lat="43.16232" lon="2.89785">
        <ele>106.9</ele>
        <time>2018-05-19T09:14:03Z</time>
      </trkpt>
      <trkpt lat="43.16224" lon="2.8977">
        <ele>107</ele>
        <time>2018-05-19T09:14:08Z</time>
      </trkpt>
      <trkpt lat="43.16219" lon="2.89763">
        <ele>107.2</ele>
        <time>2018-05-19T09:14:13Z</time>
      </trkpt>
      <trkpt lat="43.16216" lon="2.89741">
        <ele>108.7</ele>
        <time>2018-05-19T09:14:18Z</time>
      </trkpt>
      <trkpt lat="43.16213" lon="2.89727">
        <ele>109.2</ele>
        <time>2018-05-19T09:14:23Z</time>
      </trkpt>
      <trkpt lat="43.1621" lon="2.8971">
        <ele>109.6</ele>
        <time>2018-05-19T09:14:28Z</time>
      </trkpt>
      <trkpt lat="43.16209" lon="2.89694">
        <ele>109.9</ele>
        <time>2018-05-19T09:14:33Z</time>
      </trkpt>
      <trkpt lat="43.16208" lon="2.8968">
        <ele>110.2</ele>
        <time>2018-05-19T09:14:38Z</time>
      </trkpt>
      <trkpt lat="43.16208" lon="2.89663">
        <ele>111.6</ele>
        <time>2018-05-19T09:14:43Z</time>
      </trkpt>
      <trkpt lat="43.16209" lon="2.89654">
        <ele>111.7</ele>
        <time>2018-05-19T09:14:48Z</time>
      </trkpt>
      <trkpt lat="43.1621" lon="2.89633">
        <ele>111.8</ele>
        <time>2018-05-19T09:14:53Z</time>
      </trkpt>
      <trkpt lat="43.16212" lon="2.89624">
        <ele>111.8</ele>
        <time>2018-05-19T09:14:58Z</time>
      </trkpt>
      <trkpt lat="43.16213" lon="2.89603">
        <ele>112</ele>
        <time>2018-05-19T09:15:03Z</time>
      </trkpt>
      <trkpt lat="43.16212" lon="2.89596">
        <ele>112.1</ele>
        <time>2018-05-19T09:15:08Z</time>
      </trkpt>
      <trkpt lat="43.16209" lon="2.89582">
        <ele>113.2</ele>
        <time>2018-05-19T09:15:13Z</time>
      </trkpt>
      <trkpt lat="43.16203" lon="2.8956">
        <ele>113.6</ele>
        <time>2018-05-19T09:15:18Z</time>
      </trkpt>
      <trkpt lat="43.16202" lon="2.89544">
        <ele>113.7</ele>
        <time>2018-05-19T09:15:23Z</time>
      </trkpt>
      <trkpt lat="43.16201" lon="2.89536">
        <ele>113.7</ele>
        <time>2018-05-19T09:15:28Z</time>
      </trkpt>
      <trkpt lat="43.16198" lon="2.89522">
        <ele>113.7</ele>
        <time>2018-05-19T09:15:33Z</time>
      </trkpt>
      <trkpt lat="43.16193" lon="2.89511">
        <ele>113.8</ele>
        <time>2018-05-19T09:15:38Z</time>
      </trkpt>
      <trkpt lat="43.16191" lon="2.89505">
        <ele>113.8</ele>
        <time>2018-05-19T09:15:43Z</time>
      </trkpt>
      <trkpt lat="43.16192" lon="2.8949">
        <ele>113.4</ele>
        <time>2018-05-19T09:15:48Z</time>
      </trkpt>
      <trkpt lat="43.16195" lon="2.89476">
        <ele>113.2</ele>
        <time>2018-05-19T09:15:53Z</time>
      </trkpt>
      <trkpt lat="43.162" lon="2.89461">
        <ele>113</ele>
        <time>2018-05-19T09:15:58Z</time>
      </trkpt>
      <trkpt lat="43.16212" lon="2.89446">
        <ele>112.9</ele>
        <time>2018-05-19T09:16:03Z</time>
      </trkpt>
      <trkpt lat="43.16224" lon="2.89437">
        <ele>112.9</ele>
        <time>2018-05-19T09:16:08Z</time>
      </trkpt>
      <trkpt lat="43.16243" lon="2.89418">
        <ele>113</ele>
        <time>2018-05-19T09:16:13Z</time>
      </trkpt>
      <trkpt lat="43.16259" lon="2.89397">
        <ele>113.6</ele>
        <time>2018-05-19T09:16:18Z</time>
      </trkpt>
      <trkpt lat="43.1627" lon="2.8937">
        <ele>113.5</ele>
        <time>2018-05-19T09:16:23Z</time>
      </trkpt>
      <trkpt lat="43.16279" lon="2.8934">
        <ele>113.2</ele>
        <time>2018-05-19T09:16:28Z</time>
      </trkpt>
      <trkpt lat="43.16288" lon="2.89309">
        <ele>111.3</ele>
        <time>2018-05-19T09:16:33Z</time>
      </trkpt>
      <trkpt lat="43.16298" lon="2.89277">
        <ele>110.8</ele>
        <time>2018-05-19T09:16:38Z</time>
      </trkpt>
      <trkpt lat="43.16307" lon="2.89245">
        <ele>108</ele>
        <time>2018-05-19T09:16:43Z</time>
      </trkpt>
      <trkpt lat="43.16313" lon="2.89209">
        <ele>107.3</ele>
        <time>2018-05-19T09:16:48Z</time>
      </trkpt>
      <trkpt lat="43.1632" lon="2.89173">
        <ele>106.4</ele>
        <time>2018-05-19T09:16:53Z</time>
      </trkpt>
      <trkpt lat="43.16326" lon="2.89133">
        <ele>104.2</ele>
        <time>2018-05-19T09:16:58Z</time>
      </trkpt>
      <trkpt lat="43.1633" lon="2.89092">
        <ele>103.2</ele>
        <time>2018-05-19T09:17:03Z</time>
      </trkpt>
      <trkpt lat="43.1634" lon="2.89057">
        <ele>104.4</ele>
        <time>2018-05-19T09:17:08Z</time>
      </trkpt>
      <trkpt lat="43.16346" lon="2.89018">
        <ele>102.6</ele>
        <time>2018-05-19T09:17:13Z</time>
      </trkpt>
      <trkpt lat="43.1635" lon="2.88978">
        <ele>101</ele>
        <time>2018-05-19T09:17:18Z</time>
      </trkpt>
      <trkpt lat="43.16358" lon="2.88939">
        <ele>101.1</ele>
        <time>2018-05-19T09:17:23Z</time>
      </trkpt>
      <trkpt lat="43.16363" lon="2.88898">
        <ele>99.4</ele>
        <time>2018-05-19T09:17:28Z</time>
      </trkpt>
      <trkpt lat="43.16369" lon="2.88859">
        <ele>99</ele>
        <time>2018-05-19T09:17:33Z</time>
      </trkpt>
      <trkpt lat="43.16372" lon="2.88818">
        <ele>95.6</ele>
        <time>2018-05-19T09:17:38Z</time>
      </trkpt>
      <trkpt lat="43.16382" lon="2.88776">
        <ele>95</ele>
        <time>2018-05-19T09:17:43Z</time>
      </trkpt>
      <trkpt lat="43.16395" lon="2.88734">
        <ele>91.4</ele>
        <time>2018-05-19T09:17:48Z</time>
      </trkpt>
      <trkpt lat="43.16408" lon="2.8869">
        <ele>89.3</ele>
        <time>2018-05-19T09:17:53Z</time>
      </trkpt>
      <trkpt lat="43.16424" lon="2.88648">
        <ele>91</ele>
        <time>2018-05-19T09:17:58Z</time>
      </trkpt>
      <trkpt lat="43.16443" lon="2.8861">
        <ele>90.5</ele>
        <time>2018-05-19T09:18:03Z</time>
      </trkpt>
      <trkpt lat="43.16463" lon="2.88573">
        <ele>84.3</ele>
        <time>2018-05-19T09:18:08Z</time>
      </trkpt>
      <trkpt lat="43.16484" lon="2.88537">
        <ele>83.3</ele>
        <time>2018-05-19T09:18:13Z</time>
      </trkpt>
      <trkpt lat="43.16505" lon="2.88496">
        <ele>81.6</ele>
        <time>2018-05-19T09:18:18Z</time>
      </trkpt>
      <trkpt lat="43.16526" lon="2.88455">
        <ele>81.6</ele>
        <time>2018-05-19T09:18:23Z</time>
      </trkpt>
      <trkpt lat="43.16544" lon="2.88418">
        <ele>80.7</ele>
        <time>2018-05-19T09:18:28Z</time>
      </trkpt>
      <trkpt lat="43.16558" lon="2.88379">
        <ele>75.4</ele>
        <time>2018-05-19T09:18:33Z</time>
      </trkpt>
      <trkpt lat="43.16574" lon="2.8834">
        <ele>74.4</ele>
        <time>2018-05-19T09:18:38Z</time>
      </trkpt>
      <trkpt lat="43.16587" lon="2.88303">
        <ele>75.7</ele>
        <time>2018-05-19T09:18:43Z</time>
      </trkpt>
      <trkpt lat="43.16602" lon="2.8827">
        <ele>75.6</ele>
        <time>2018-05-19T09:18:48Z</time>
      </trkpt>
      <trkpt lat="43.16614" lon="2.88238">
        <ele>73.9</ele>
        <time>2018-05-19T09:18:53Z</time>
      </trkpt>
      <trkpt lat="43.16627" lon="2.88205">
        <ele>73.7</ele>
        <time>2018-05-19T09:18:58Z</time>
      </trkpt>
      <trkpt lat="43.16639" lon="2.88164">
        <ele>71.8</ele>
        <time>2018-05-19T09:19:03Z</time>
      </trkpt>
      <trkpt lat="43.16647" lon="2.88132">
        <ele>71.3</ele>
        <time>2018-05-19T09:19:08Z</time>
      </trkpt>
      <trkpt lat="43.16648" lon="2.88096">
        <ele>70.8</ele>
        <time>2018-05-19T09:19:13Z</time>
      </trkpt>
      <trkpt lat="43.16651" lon="2.88061">
        <ele>70</ele>
        <time>2018-05-19T09:19:18Z</time>
      </trkpt>
      <trkpt lat="43.16651" lon="2.88028">
        <ele>70</ele>
        <time>2018-05-19T09:19:23Z</time>
      </trkpt>
      <trkpt lat="43.16649" lon="2.87995">
        <ele>69.8</ele>
        <time>2018-05-19T09:19:28Z</time>
      </trkpt>
      <trkpt lat="43.16651" lon="2.8796">
        <ele>69.3</ele>
        <time>2018-05-19T09:19:33Z</time>
      </trkpt>
      <trkpt lat="43.16653" lon="2.87923">
        <ele>69.4</ele>
        <time>2018-05-19T09:19:38Z</time>
      </trkpt>
      <trkpt lat="43.16653" lon="2.87899">
        <ele>68.5</ele>
        <time>2018-05-19T09:19:43Z</time>
      </trkpt>
      <trkpt lat="43.16653" lon="2.8787">
        <ele>67.9</ele>
        <time>2018-05-19T09:19:48Z</time>
      </trkpt>
      <trkpt lat="43.16651" lon="2.87836">
        <ele>67.8</ele>
        <time>2018-05-19T09:19:53Z</time>
      </trkpt>
      <trkpt lat="43.16654" lon="2.87814">
        <ele>67.1</ele>
        <time>2018-05-19T09:19:58Z</time>
      </trkpt>
      <trkpt lat="43.1665" lon="2.87779">
        <ele>66.4</ele>
        <time>2018-05-19T09:20:03Z</time>
      </trkpt>
      <trkpt lat="43.16639" lon="2.87752">
        <ele>66.3</ele>
        <time>2018-05-19T09:20:08Z</time>
      </trkpt>
      <trkpt lat="43.16629" lon="2.87734">
        <ele>66.8</ele>
        <time>2018-05-19T09:20:13Z</time>
      </trkpt>
      <trkpt lat="43.16616" lon="2.87708">
        <ele>67.3</ele>
        <time>2018-05-19T09:20:18Z</time>
      </trkpt>
      <trkpt lat="43.16613" lon="2.87677">
        <ele>67.8</ele>
        <time>2018-05-19T09:20:23Z</time>
      </trkpt>
      <trkpt lat="43.16614" lon="2.87643">
        <ele>69.2</ele>
        <time>2018-05-19T09:20:28Z</time>
      </trkpt>
      <trkpt lat="43.16624" lon="2.87616">
        <ele>69.2</ele>
        <time>2018-05-19T09:20:33Z</time>
      </trkpt>
      <trkpt lat="43.16636" lon="2.87589">
        <ele>68.5</ele>
        <time>2018-05-19T09:20:38Z</time>
      </trkpt>
      <trkpt lat="43.16649" lon="2.87559">
        <ele>69.4</ele>
        <time>2018-05-19T09:20:43Z</time>
      </trkpt>
      <trkpt lat="43.16658" lon="2.87528">
        <ele>69.4</ele>
        <time>2018-05-19T09:20:48Z</time>
      </trkpt>
      <trkpt lat="43.16666" lon="2.87494">
        <ele>67.6</ele>
        <time>2018-05-19T09:20:53Z</time>
      </trkpt>
      <trkpt lat="43.16672" lon="2.87469">
        <ele>65.1</ele>
        <time>2018-05-19T09:20:58Z</time>
      </trkpt>
      <trkpt lat="43.16675" lon="2.87446">
        <ele>65.5</ele>
        <time>2018-05-19T09:21:03Z</time>
      </trkpt>
      <trkpt lat="43.16687" lon="2.8741">
        <ele>66.2</ele>
        <time>2018-05-19T09:21:08Z</time>
      </trkpt>
      <trkpt lat="43.16693" lon="2.87381">
        <ele>65.8</ele>
        <time>2018-05-19T09:21:13Z</time>
      </trkpt>
      <trkpt lat="43.16703" lon="2.87366">
        <ele>65.4</ele>
        <time>2018-05-19T09:21:18Z</time>
      </trkpt>
      <trkpt lat="43.16722" lon="2.8734">
        <ele>63.9</ele>
        <time>2018-05-19T09:21:23Z</time>
      </trkpt>
      <trkpt lat="43.1673" lon="2.87314">
        <ele>63.1</ele>
        <time>2018-05-19T09:21:28Z</time>
      </trkpt>
      <trkpt lat="43.16728" lon="2.87288">
        <ele>63.5</ele>
        <time>2018-05-19T09:21:33Z</time>
      </trkpt>
      <trkpt lat="43.16719" lon="2.87261">
        <ele>63.5</ele>
        <time>2018-05-19T09:21:38Z</time>
      </trkpt>
      <trkpt lat="43.16708" lon="2.87236">
        <ele>62.1</ele>
        <time>2018-05-19T09:21:43Z</time>
      </trkpt>
      <trkpt lat="43.16701" lon="2.8722">
        <ele>62.1</ele>
        <time>2018-05-19T09:21:48Z</time>
      </trkpt>
      <trkpt lat="43.16683" lon="2.87197">
        <ele>62</ele>
        <time>2018-05-19T09:21:53Z</time>
      </trkpt>
      <trkpt lat="43.16669" lon="2.87184">
        <ele>62</ele>
        <time>2018-05-19T09:21:58Z</time>
      </trkpt>
      <trkpt lat="43.16643" lon="2.87171">
        <ele>63.6</ele>
        <time>2018-05-19T09:22:03Z</time>
      </trkpt>
      <trkpt lat="43.16616" lon="2.87165">
        <ele>60.5</ele>
        <time>2018-05-19T09:22:08Z</time>
      </trkpt>
      <trkpt lat="43.16595" lon="2.87153">
        <ele>60.8</ele>
        <time>2018-05-19T09:22:13Z</time>
      </trkpt>
      <trkpt lat="43.16577" lon="2.87148">
        <ele>61.5</ele>
        <time>2018-05-19T09:22:18Z</time>
      </trkpt>
      <trkpt lat="43.16551" lon="2.87141">
        <ele>61.5</ele>
        <time>2018-05-19T09:22:23Z</time>
      </trkpt>
      <trkpt lat="43.16535" lon="2.87136">
        <ele>61.7</ele>
        <time>2018-05-19T09:22:28Z</time>
      </trkpt>
      <trkpt lat="43.16508" lon="2.87119">
        <ele>61.4</ele>
        <time>2018-05-19T09:22:33Z</time>
      </trkpt>
      <trkpt lat="43.16485" lon="2.87103">
        <ele>62.5</ele>
        <time>2018-05-19T09:22:38Z</time>
      </trkpt>
      <trkpt lat="43.16469" lon="2.87086">
        <ele>62.7</ele>
        <time>2018-05-19T09:22:43Z</time>
      </trkpt>
      <trkpt lat="43.16457" lon="2.87078">
        <ele>59.9</ele>
        <time>2018-05-19T09:22:48Z</time>
      </trkpt>
      <trkpt lat="43.16451" lon="2.87066">
        <ele>59.9</ele>
        <time>2018-05-19T09:22:53Z</time>
      </trkpt>
      <trkpt lat="43.16447" lon="2.87061">
        <ele>59.8</ele>
        <time>2018-05-19T09:22:58Z</time>
      </trkpt>
      <trkpt lat="43.16447" lon="2.87061">
        <ele>59.8</ele>
        <time>2018-05-19T09:23:03Z</time>
      </trkpt>
      <trkpt lat="43.16447" lon="2.87061">
        <ele>59.8</ele>
        <time>2018-05-19T09:23:08Z</time>
      </trkpt>
      <trkpt lat="43.16447" lon="2.87061">
        <ele>59.8</ele>
        <time>2018-05-19T09:23:13Z</time>
      </trkpt>
      <trkpt lat="43.16442" lon="2.8705">
        <ele>59.6</ele>
        <time>2018-05-19T09:23:23Z</time>
      </trkpt>
      <trkpt lat="43.16434" lon="2.87038">
        <ele>59.3</ele>
        <time>2018-05-19T09:23:28Z</time>
      </trkpt>
      <trkpt lat="43.16418" lon="2.87017">
        <ele>58.6</ele>
        <time>2018-05-19T09:23:33Z</time>
      </trkpt>
      <trkpt lat="43.16396" lon="2.86992">
        <ele>56</ele>
        <time>2018-05-19T09:23:38Z</time>
      </trkpt>
      <trkpt lat="43.16381" lon="2.86992">
        <ele>55.5</ele>
        <time>2018-05-19T09:23:43Z</time>
      </trkpt>
      <trkpt lat="43.16369" lon="2.86986">
        <ele>55.2</ele>
        <time>2018-05-19T09:23:48Z</time>
      </trkpt>
      <trkpt lat="43.1636" lon="2.86978">
        <ele>54.9</ele>
        <time>2018-05-19T09:23:53Z</time>
      </trkpt>
      <trkpt lat="43.1636" lon="2.86978">
        <ele>54.9</ele>
        <time>2018-05-19T09:23:58Z</time>
      </trkpt>
      <trkpt lat="43.1636" lon="2.86978">
        <ele>54.9</ele>
        <time>2018-05-19T09:24:03Z</time>
      </trkpt>
      <trkpt lat="43.1636" lon="2.86978">
        <ele>54.9</ele>
        <time>2018-05-19T09:24:08Z</time>
      </trkpt>
      <trkpt lat="43.1636" lon="2.86978">
        <ele>54.9</ele>
        <time>2018-05-19T09:24:13Z</time>
      </trkpt>
      <trkpt lat="43.16365" lon="2.86978">
        <ele>54.9</ele>
        <time>2018-05-19T09:25:33Z</time>
      </trkpt>
      <trkpt lat="43.16365" lon="2.86978">
        <ele>54.9</ele>
        <time>2018-05-19T09:25:38Z</time>
      </trkpt>
      <trkpt lat="43.16368" lon="2.86973">
        <ele>54.9</ele>
        <time>2018-05-19T09:25:43Z</time>
      </trkpt>
      <trkpt lat="43.16368" lon="2.86973">
        <ele>54.9</ele>
        <time>2018-05-19T09:25:48Z</time>
      </trkpt>
      <trkpt lat="43.16368" lon="2.86973">
        <ele>54.9</ele>
        <time>2018-05-19T09:25:53Z</time>
      </trkpt>
      <trkpt lat="43.16368" lon="2.86973">
        <ele>54.9</ele>
        <time>2018-05-19T09:25:58Z</time>
      </trkpt>
      <trkpt lat="43.16361" lon="2.86974">
        <ele>54.8</ele>
        <time>2018-05-19T09:26:03Z</time>
      </trkpt>
      <trkpt lat="43.16361" lon="2.86975">
        <ele>54.8</ele>
        <time>2018-05-19T09:26:08Z</time>
      </trkpt>
      <trkpt lat="43.16361" lon="2.86975">
        <ele>54.8</ele>
        <time>2018-05-19T09:26:13Z</time>
      </trkpt>
      <trkpt lat="43.16361" lon="2.86975">
        <ele>54.8</ele>
        <time>2018-05-19T09:26:18Z</time>
      </trkpt>
      <trkpt lat="43.16356" lon="2.86975">
        <ele>54.8</ele>
        <time>2018-05-19T09:26:23Z</time>
      </trkpt>
      <trkpt lat="43.16356" lon="2.86975">
        <ele>54.8</ele>
        <time>2018-05-19T09:26:28Z</time>
      </trkpt>
      <trkpt lat="43.16356" lon="2.86975">
        <ele>54.8</ele>
        <time>2018-05-19T09:26:33Z</time>
      </trkpt>
      <trkpt lat="43.16356" lon="2.86975">
        <ele>54.8</ele>
        <time>2018-05-19T09:26:38Z</time>
      </trkpt>
      <trkpt lat="43.16356" lon="2.86975">
        <ele>54.8</ele>
        <time>2018-05-19T09:26:43Z</time>
      </trkpt>
      <trkpt lat="43.16352" lon="2.86978">
        <ele>54.9</ele>
        <time>2018-05-19T09:27:58Z</time>
      </trkpt>
      <trkpt lat="43.16341" lon="2.86972">
        <ele>54.7</ele>
        <time>2018-05-19T09:28:03Z</time>
      </trkpt>
      <trkpt lat="43.16327" lon="2.86967">
        <ele>53.1</ele>
        <time>2018-05-19T09:28:08Z</time>
      </trkpt>
      <trkpt lat="43.16318" lon="2.86961">
        <ele>52.7</ele>
        <time>2018-05-19T09:28:13Z</time>
      </trkpt>
      <trkpt lat="43.16318" lon="2.86961">
        <ele>52.7</ele>
        <time>2018-05-19T09:28:18Z</time>
      </trkpt>
      <trkpt lat="43.16318" lon="2.86961">
        <ele>52.7</ele>
        <time>2018-05-19T09:28:23Z</time>
      </trkpt>
      <trkpt lat="43.16318" lon="2.86961">
        <ele>52.7</ele>
        <time>2018-05-19T09:28:28Z</time>
      </trkpt>
      <trkpt lat="43.16318" lon="2.86961">
        <ele>52.7</ele>
        <time>2018-05-19T09:28:33Z</time>
      </trkpt>
      <trkpt lat="43.16313" lon="2.86958">
        <ele>52.5</ele>
        <time>2018-05-19T09:29:03Z</time>
      </trkpt>
      <trkpt lat="43.16305" lon="2.86947">
        <ele>52.2</ele>
        <time>2018-05-19T09:29:08Z</time>
      </trkpt>
      <trkpt lat="43.16299" lon="2.86942">
        <ele>52.1</ele>
        <time>2018-05-19T09:29:13Z</time>
      </trkpt>
      <trkpt lat="43.16299" lon="2.86942">
        <ele>52.1</ele>
        <time>2018-05-19T09:29:18Z</time>
      </trkpt>
      <trkpt lat="43.16299" lon="2.86942">
        <ele>52.1</ele>
        <time>2018-05-19T09:29:23Z</time>
      </trkpt>
      <trkpt lat="43.16293" lon="2.86939">
        <ele>52</ele>
        <time>2018-05-19T09:29:33Z</time>
      </trkpt>
      <trkpt lat="43.16289" lon="2.86935">
        <ele>51.9</ele>
        <time>2018-05-19T09:29:48Z</time>
      </trkpt>
      <trkpt lat="43.16283" lon="2.86929">
        <ele>51.8</ele>
        <time>2018-05-19T09:29:53Z</time>
      </trkpt>
      <trkpt lat="43.16264" lon="2.86918">
        <ele>51.4</ele>
        <time>2018-05-19T09:29:58Z</time>
      </trkpt>
      <trkpt lat="43.16247" lon="2.86903">
        <ele>50.1</ele>
        <time>2018-05-19T09:30:03Z</time>
      </trkpt>
      <trkpt lat="43.16248" lon="2.86879">
        <ele>49.4</ele>
        <time>2018-05-19T09:30:08Z</time>
      </trkpt>
      <trkpt lat="43.16258" lon="2.86855">
        <ele>49.5</ele>
        <time>2018-05-19T09:30:13Z</time>
      </trkpt>
      <trkpt lat="43.16268" lon="2.86834">
        <ele>49.3</ele>
        <time>2018-05-19T09:30:18Z</time>
      </trkpt>
      <trkpt lat="43.16276" lon="2.86814">
        <ele>48.3</ele>
        <time>2018-05-19T09:30:23Z</time>
      </trkpt>
      <trkpt lat="43.16278" lon="2.86807">
        <ele>48.2</ele>
        <time>2018-05-19T09:30:28Z</time>
      </trkpt>
      <trkpt lat="43.16292" lon="2.86814">
        <ele>48.1</ele>
        <time>2018-05-19T09:30:33Z</time>
      </trkpt>
      <trkpt lat="43.16301" lon="2.86804">
        <ele>48</ele>
        <time>2018-05-19T09:30:38Z</time>
      </trkpt>
      <trkpt lat="43.16316" lon="2.86783">
        <ele>47.8</ele>
        <time>2018-05-19T09:30:43Z</time>
      </trkpt>
      <trkpt lat="43.16327" lon="2.86768">
        <ele>47.5</ele>
        <time>2018-05-19T09:30:48Z</time>
      </trkpt>
      <trkpt lat="43.16344" lon="2.86743">
        <ele>46.7</ele>
        <time>2018-05-19T09:30:53Z</time>
      </trkpt>
      <trkpt lat="43.16355" lon="2.86727">
        <ele>46.5</ele>
        <time>2018-05-19T09:30:58Z</time>
      </trkpt>
      <trkpt lat="43.16377" lon="2.86714">
        <ele>46.3</ele>
        <time>2018-05-19T09:31:03Z</time>
      </trkpt>
      <trkpt lat="43.16398" lon="2.86715">
        <ele>46.3</ele>
        <time>2018-05-19T09:31:08Z</time>
      </trkpt>
      <trkpt lat="43.16414" lon="2.86715">
        <ele>46.3</ele>
        <time>2018-05-19T09:31:13Z</time>
      </trkpt>
      <trkpt lat="43.16435" lon="2.86717">
        <ele>46.9</ele>
        <time>2018-05-19T09:31:18Z</time>
      </trkpt>
      <trkpt lat="43.16451" lon="2.86713">
        <ele>47</ele>
        <time>2018-05-19T09:31:23Z</time>
      </trkpt>
      <trkpt lat="43.16473" lon="2.86705">
        <ele>47.1</ele>
        <time>2018-05-19T09:31:28Z</time>
      </trkpt>
      <trkpt lat="43.16485" lon="2.86701">
        <ele>47.2</ele>
        <time>2018-05-19T09:31:33Z</time>
      </trkpt>
      <trkpt lat="43.16509" lon="2.86701">
        <ele>48.2</ele>
        <time>2018-05-19T09:31:38Z</time>
      </trkpt>
      <trkpt lat="43.16522" lon="2.86703">
        <ele>48.3</ele>
        <time>2018-05-19T09:31:43Z</time>
      </trkpt>
      <trkpt lat="43.16539" lon="2.86709">
        <ele>48.5</ele>
        <time>2018-05-19T09:31:48Z</time>
      </trkpt>
      <trkpt lat="43.16551" lon="2.86708">
        <ele>48.5</ele>
        <time>2018-05-19T09:31:53Z</time>
      </trkpt>
      <trkpt lat="43.16565" lon="2.86674">
        <ele>47.8</ele>
        <time>2018-05-19T09:31:58Z</time>
      </trkpt>
      <trkpt lat="43.1657" lon="2.86661">
        <ele>46.5</ele>
        <time>2018-05-19T09:32:03Z</time>
      </trkpt>
      <trkpt lat="43.16582" lon="2.86639">
        <ele>46.1</ele>
        <time>2018-05-19T09:32:08Z</time>
      </trkpt>
      <trkpt lat="43.16596" lon="2.86609">
        <ele>45.8</ele>
        <time>2018-05-19T09:32:13Z</time>
      </trkpt>
      <trkpt lat="43.16606" lon="2.86588">
        <ele>45.6</ele>
        <time>2018-05-19T09:32:18Z</time>
      </trkpt>
      <trkpt lat="43.16615" lon="2.8656">
        <ele>45.4</ele>
        <time>2018-05-19T09:32:23Z</time>
      </trkpt>
      <trkpt lat="43.16621" lon="2.8653">
        <ele>45.5</ele>
        <time>2018-05-19T09:32:28Z</time>
      </trkpt>
      <trkpt lat="43.16625" lon="2.86501">
        <ele>45.5</ele>
        <time>2018-05-19T09:32:33Z</time>
      </trkpt>
      <trkpt lat="43.16632" lon="2.86464">
        <ele>45.8</ele>
        <time>2018-05-19T09:32:38Z</time>
      </trkpt>
      <trkpt lat="43.16638" lon="2.86438">
        <ele>45.8</ele>
        <time>2018-05-19T09:32:43Z</time>
      </trkpt>
      <trkpt lat="43.1664" lon="2.86418">
        <ele>45.9</ele>
        <time>2018-05-19T09:32:48Z</time>
      </trkpt>
      <trkpt lat="43.16646" lon="2.86386">
        <ele>45.1</ele>
        <time>2018-05-19T09:32:53Z</time>
      </trkpt>
      <trkpt lat="43.16652" lon="2.86357">
        <ele>44.8</ele>
        <time>2018-05-19T09:32:58Z</time>
      </trkpt>
      <trkpt lat="43.16651" lon="2.86338">
        <ele>44.8</ele>
        <time>2018-05-19T09:33:03Z</time>
      </trkpt>
      <trkpt lat="43.16652" lon="2.86315">
        <ele>43.6</ele>
        <time>2018-05-19T09:33:08Z</time>
      </trkpt>
      <trkpt lat="43.16653" lon="2.86295">
        <ele>43</ele>
        <time>2018-05-19T09:33:13Z</time>
      </trkpt>
      <trkpt lat="43.1665" lon="2.86266">
        <ele>42.5</ele>
        <time>2018-05-19T09:33:18Z</time>
      </trkpt>
      <trkpt lat="43.16643" lon="2.8623">
        <ele>41.8</ele>
        <time>2018-05-19T09:33:23Z</time>
      </trkpt>
      <trkpt lat="43.16635" lon="2.86199">
        <ele>41.7</ele>
        <time>2018-05-19T09:33:28Z</time>
      </trkpt>
      <trkpt lat="43.16631" lon="2.86168">
        <ele>41.6</ele>
        <time>2018-05-19T09:33:33Z</time>
      </trkpt>
      <trkpt lat="43.16626" lon="2.86137">
        <ele>41.7</ele>
        <time>2018-05-19T09:33:38Z</time>
      </trkpt>
      <trkpt lat="43.1662" lon="2.86111">
        <ele>41.7</ele>
        <time>2018-05-19T09:33:43Z</time>
      </trkpt>
      <trkpt lat="43.16613" lon="2.86074">
        <ele>42.1</ele>
        <time>2018-05-19T09:33:48Z</time>
      </trkpt>
      <trkpt lat="43.16608" lon="2.86043">
        <ele>42.3</ele>
        <time>2018-05-19T09:33:53Z</time>
      </trkpt>
      <trkpt lat="43.16605" lon="2.86015">
        <ele>42.4</ele>
        <time>2018-05-19T09:33:58Z</time>
      </trkpt>
      <trkpt lat="43.16605" lon="2.85987">
        <ele>42.5</ele>
        <time>2018-05-19T09:34:03Z</time>
      </trkpt>
      <trkpt lat="43.16605" lon="2.85964">
        <ele>42.6</ele>
        <time>2018-05-19T09:34:08Z</time>
      </trkpt>
      <trkpt lat="43.16608" lon="2.85931">
        <ele>42.5</ele>
        <time>2018-05-19T09:34:13Z</time>
      </trkpt>
      <trkpt lat="43.16612" lon="2.85909">
        <ele>41.8</ele>
        <time>2018-05-19T09:34:18Z</time>
      </trkpt>
      <trkpt lat="43.16615" lon="2.85881">
        <ele>41.5</ele>
        <time>2018-05-19T09:34:23Z</time>
      </trkpt>
      <trkpt lat="43.16619" lon="2.85862">
        <ele>41.3</ele>
        <time>2018-05-19T09:34:28Z</time>
      </trkpt>
      <trkpt lat="43.16626" lon="2.85831">
        <ele>40.7</ele>
        <time>2018-05-19T09:34:33Z</time>
      </trkpt>
      <trkpt lat="43.16631" lon="2.8581">
        <ele>40.7</ele>
        <time>2018-05-19T09:34:38Z</time>
      </trkpt>
      <trkpt lat="43.16638" lon="2.85783">
        <ele>40.8</ele>
        <time>2018-05-19T09:34:43Z</time>
      </trkpt>
      <trkpt lat="43.16642" lon="2.85764">
        <ele>40.9</ele>
        <time>2018-05-19T09:34:48Z</time>
      </trkpt>
      <trkpt lat="43.16647" lon="2.85739">
        <ele>41</ele>
        <time>2018-05-19T09:34:53Z</time>
      </trkpt>
      <trkpt lat="43.16651" lon="2.85726">
        <ele>41</ele>
        <time>2018-05-19T09:34:58Z</time>
      </trkpt>
      <trkpt lat="43.16651" lon="2.85726">
        <ele>41</ele>
        <time>2018-05-19T09:35:03Z</time>
      </trkpt>
      <trkpt lat="43.16656" lon="2.85729">
        <ele>41</ele>
        <time>2018-05-19T09:35:08Z</time>
      </trkpt>
      <trkpt lat="43.16656" lon="2.85729">
        <ele>41</ele>
        <time>2018-05-19T09:35:13Z</time>
      </trkpt>
      <trkpt lat="43.16656" lon="2.85729">
        <ele>41</ele>
        <time>2018-05-19T09:35:18Z</time>
      </trkpt>
      <trkpt lat="43.16658" lon="2.85735">
        <ele>41</ele>
        <time>2018-05-19T09:35:23Z</time>
      </trkpt>
      <trkpt lat="43.16662" lon="2.85738">
        <ele>41</ele>
        <time>2018-05-19T09:35:28Z</time>
      </trkpt>
      <trkpt lat="43.16662" lon="2.85738">
        <ele>41</ele>
        <time>2018-05-19T09:35:33Z</time>
      </trkpt>
      <trkpt lat="43.16662" lon="2.85738">
        <ele>41</ele>
        <time>2018-05-19T09:35:38Z</time>
      </trkpt>
      <trkpt lat="43.16662" lon="2.85738">
        <ele>41</ele>
        <time>2018-05-19T09:35:43Z</time>
      </trkpt>
      <trkpt lat="43.16662" lon="2.85738">
        <ele>41</ele>
        <time>2018-05-19T09:35:48Z</time>
      </trkpt>
      <trkpt lat="43.16657" lon="2.85741">
        <ele>41</ele>
        <time>2018-05-19T09:36:18Z</time>
      </trkpt>
      <trkpt lat="43.16657" lon="2.85741">
        <ele>41</ele>
        <time>2018-05-19T09:36:23Z</time>
      </trkpt>
      <trkpt lat="43.16657" lon="2.85741">
        <ele>41</ele>
        <time>2018-05-19T09:36:28Z</time>
      </trkpt>
      <trkpt lat="43.16657" lon="2.85741">
        <ele>41</ele>
        <time>2018-05-19T09:36:33Z</time>
      </trkpt>
      <trkpt lat="43.16657" lon="2.85741">
        <ele>41</ele>
        <time>2018-05-19T09:36:38Z</time>
      </trkpt>
      <trkpt lat="43.16662" lon="2.85743">
        <ele>41</ele>
        <time>2018-05-19T09:40:33Z</time>
      </trkpt>
      <trkpt lat="43.16659" lon="2.85739">
        <ele>41</ele>
        <time>2018-05-19T09:40:38Z</time>
      </trkpt>
      <trkpt lat="43.16659" lon="2.85739">
        <ele>41</ele>
        <time>2018-05-19T09:40:43Z</time>
      </trkpt>
      <trkpt lat="43.16659" lon="2.85739">
        <ele>41</ele>
        <time>2018-05-19T09:40:48Z</time>
      </trkpt>
      <trkpt lat="43.16659" lon="2.85739">
        <ele>41</ele>
        <time>2018-05-19T09:40:53Z</time>
      </trkpt>
      <trkpt lat="43.16659" lon="2.85739">
        <ele>41</ele>
        <time>2018-05-19T09:40:58Z</time>
      </trkpt>
      <trkpt lat="43.16654" lon="2.85735">
        <ele>41</ele>
        <time>2018-05-19T09:43:03Z</time>
      </trkpt>
      <trkpt lat="43.16654" lon="2.85735">
        <ele>41</ele>
        <time>2018-05-19T09:43:08Z</time>
      </trkpt>
      <trkpt lat="43.16654" lon="2.85735">
        <ele>41</ele>
        <time>2018-05-19T09:43:13Z</time>
      </trkpt>
      <trkpt lat="43.16654" lon="2.85735">
        <ele>41</ele>
        <time>2018-05-19T09:43:18Z</time>
      </trkpt>
      <trkpt lat="43.16654" lon="2.85735">
        <ele>41</ele>
        <time>2018-05-19T09:43:23Z</time>
      </trkpt>
      <trkpt lat="43.16649" lon="2.85723">
        <ele>41</ele>
        <time>2018-05-19T09:43:33Z</time>
      </trkpt>
      <trkpt lat="43.16652" lon="2.85707">
        <ele>41</ele>
        <time>2018-05-19T09:43:38Z</time>
      </trkpt>
      <trkpt lat="43.16652" lon="2.85678">
        <ele>41</ele>
        <time>2018-05-19T09:43:43Z</time>
      </trkpt>
      <trkpt lat="43.16651" lon="2.85658">
        <ele>40.9</ele>
        <time>2018-05-19T09:43:48Z</time>
      </trkpt>
      <trkpt lat="43.16655" lon="2.85625">
        <ele>40.8</ele>
        <time>2018-05-19T09:43:53Z</time>
      </trkpt>
      <trkpt lat="43.16662" lon="2.85599">
        <ele>40.9</ele>
        <time>2018-05-19T09:43:58Z</time>
      </trkpt>
      <trkpt lat="43.16667" lon="2.85582">
        <ele>40.9</ele>
        <time>2018-05-19T09:44:03Z</time>
      </trkpt>
      <trkpt lat="43.16674" lon="2.85562">
        <ele>40.2</ele>
        <time>2018-05-19T09:44:08Z</time>
      </trkpt>
      <trkpt lat="43.1668" lon="2.85542">
        <ele>39.8</ele>
        <time>2018-05-19T09:44:13Z</time>
      </trkpt>
      <trkpt lat="43.16691" lon="2.85516">
        <ele>39.5</ele>
        <time>2018-05-19T09:44:18Z</time>
      </trkpt>
      <trkpt lat="43.16698" lon="2.85502">
        <ele>39.5</ele>
        <time>2018-05-19T09:44:23Z</time>
      </trkpt>
      <trkpt lat="43.16708" lon="2.85479">
        <ele>39</ele>
        <time>2018-05-19T09:44:28Z</time>
      </trkpt>
      <trkpt lat="43.16714" lon="2.85464">
        <ele>39</ele>
        <time>2018-05-19T09:44:33Z</time>
      </trkpt>
      <trkpt lat="43.16722" lon="2.8544">
        <ele>39</ele>
        <time>2018-05-19T09:44:38Z</time>
      </trkpt>
      <trkpt lat="43.16729" lon="2.85421">
        <ele>39</ele>
        <time>2018-05-19T09:44:43Z</time>
      </trkpt>
      <trkpt lat="43.16739" lon="2.85392">
        <ele>38.9</ele>
        <time>2018-05-19T09:44:48Z</time>
      </trkpt>
      <trkpt lat="43.16746" lon="2.85374">
        <ele>38.8</ele>
        <time>2018-05-19T09:44:53Z</time>
      </trkpt>
      <trkpt lat="43.16754" lon="2.85347">
        <ele>39.1</ele>
        <time>2018-05-19T09:44:58Z</time>
      </trkpt>
      <trkpt lat="43.16762" lon="2.8533">
        <ele>38.8</ele>
        <time>2018-05-19T09:45:03Z</time>
      </trkpt>
      <trkpt lat="43.16773" lon="2.85308">
        <ele>38.6</ele>
        <time>2018-05-19T09:45:08Z</time>
      </trkpt>
      <trkpt lat="43.16785" lon="2.85283">
        <ele>38.4</ele>
        <time>2018-05-19T09:45:13Z</time>
      </trkpt>
      <trkpt lat="43.16794" lon="2.85266">
        <ele>38.4</ele>
        <time>2018-05-19T09:45:18Z</time>
      </trkpt>
      <trkpt lat="43.16805" lon="2.8524">
        <ele>38.3</ele>
        <time>2018-05-19T09:45:23Z</time>
      </trkpt>
      <trkpt lat="43.16814" lon="2.85221">
        <ele>38.5</ele>
        <time>2018-05-19T09:45:28Z</time>
      </trkpt>
      <trkpt lat="43.16827" lon="2.85193">
        <ele>39</ele>
        <time>2018-05-19T09:45:33Z</time>
      </trkpt>
      <trkpt lat="43.16832" lon="2.85172">
        <ele>39.7</ele>
        <time>2018-05-19T09:45:38Z</time>
      </trkpt>
      <trkpt lat="43.16847" lon="2.85143">
        <ele>39.3</ele>
        <time>2018-05-19T09:45:43Z</time>
      </trkpt>
      <trkpt lat="43.16859" lon="2.85125">
        <ele>39</ele>
        <time>2018-05-19T09:45:48Z</time>
      </trkpt>
      <trkpt lat="43.16872" lon="2.85101">
        <ele>38.8</ele>
        <time>2018-05-19T09:45:53Z</time>
      </trkpt>
      <trkpt lat="43.1688" lon="2.85082">
        <ele>38.5</ele>
        <time>2018-05-19T09:45:58Z</time>
      </trkpt>
      <trkpt lat="43.16893" lon="2.85056">
        <ele>38.6</ele>
        <time>2018-05-19T09:46:03Z</time>
      </trkpt>
      <trkpt lat="43.16902" lon="2.85038">
        <ele>38.6</ele>
        <time>2018-05-19T09:46:08Z</time>
      </trkpt>
      <trkpt lat="43.16916" lon="2.85011">
        <ele>38.8</ele>
        <time>2018-05-19T09:46:13Z</time>
      </trkpt>
      <trkpt lat="43.16924" lon="2.84991">
        <ele>39.2</ele>
        <time>2018-05-19T09:46:18Z</time>
      </trkpt>
      <trkpt lat="43.16931" lon="2.84961">
        <ele>39.7</ele>
        <time>2018-05-19T09:46:23Z</time>
      </trkpt>
      <trkpt lat="43.16936" lon="2.84941">
        <ele>40.1</ele>
        <time>2018-05-19T09:46:28Z</time>
      </trkpt>
      <trkpt lat="43.16943" lon="2.84912">
        <ele>40.4</ele>
        <time>2018-05-19T09:46:33Z</time>
      </trkpt>
      <trkpt lat="43.16946" lon="2.84895">
        <ele>40.1</ele>
        <time>2018-05-19T09:46:38Z</time>
      </trkpt>
      <trkpt lat="43.16948" lon="2.84866">
        <ele>39.7</ele>
        <time>2018-05-19T09:46:43Z</time>
      </trkpt>
      <trkpt lat="43.16957" lon="2.84851">
        <ele>39.6</ele>
        <time>2018-05-19T09:46:48Z</time>
      </trkpt>
      <trkpt lat="43.16975" lon="2.84835">
        <ele>39.4</ele>
        <time>2018-05-19T09:46:53Z</time>
      </trkpt>
      <trkpt lat="43.16987" lon="2.84833">
        <ele>38.4</ele>
        <time>2018-05-19T09:46:58Z</time>
      </trkpt>
      <trkpt lat="43.17006" lon="2.84832">
        <ele>39.2</ele>
        <time>2018-05-19T09:47:03Z</time>
      </trkpt>
      <trkpt lat="43.1702" lon="2.84832">
        <ele>39.5</ele>
        <time>2018-05-19T09:47:08Z</time>
      </trkpt>
      <trkpt lat="43.17042" lon="2.84829">
        <ele>40.2</ele>
        <time>2018-05-19T09:47:13Z</time>
      </trkpt>
      <trkpt lat="43.17055" lon="2.84823">
        <ele>40.7</ele>
        <time>2018-05-19T09:47:18Z</time>
      </trkpt>
      <trkpt lat="43.17069" lon="2.84806">
        <ele>40.7</ele>
        <time>2018-05-19T09:47:23Z</time>
      </trkpt>
      <trkpt lat="43.17075" lon="2.84791">
        <ele>40.5</ele>
        <time>2018-05-19T09:47:28Z</time>
      </trkpt>
      <trkpt lat="43.1708" lon="2.84764">
        <ele>40.5</ele>
        <time>2018-05-19T09:47:33Z</time>
      </trkpt>
      <trkpt lat="43.17085" lon="2.84744">
        <ele>41.3</ele>
        <time>2018-05-19T09:47:38Z</time>
      </trkpt>
      <trkpt lat="43.17091" lon="2.84718">
        <ele>41.7</ele>
        <time>2018-05-19T09:47:43Z</time>
      </trkpt>
      <trkpt lat="43.17094" lon="2.84701">
        <ele>41.6</ele>
        <time>2018-05-19T09:47:48Z</time>
      </trkpt>
      <trkpt lat="43.17102" lon="2.84673">
        <ele>41.2</ele>
        <time>2018-05-19T09:47:53Z</time>
      </trkpt>
      <trkpt lat="43.17108" lon="2.84653">
        <ele>40.2</ele>
        <time>2018-05-19T09:47:58Z</time>
      </trkpt>
      <trkpt lat="43.17115" lon="2.84622">
        <ele>40.1</ele>
        <time>2018-05-19T09:48:03Z</time>
      </trkpt>
      <trkpt lat="43.17122" lon="2.84603">
        <ele>40</ele>
        <time>2018-05-19T09:48:08Z</time>
      </trkpt>
      <trkpt lat="43.17134" lon="2.84581">
        <ele>38.8</ele>
        <time>2018-05-19T09:48:13Z</time>
      </trkpt>
      <trkpt lat="43.17154" lon="2.84558">
        <ele>38.9</ele>
        <time>2018-05-19T09:48:18Z</time>
      </trkpt>
      <trkpt lat="43.17173" lon="2.84545">
        <ele>39.6</ele>
        <time>2018-05-19T09:48:23Z</time>
      </trkpt>
      <trkpt lat="43.17195" lon="2.84537">
        <ele>39.5</ele>
        <time>2018-05-19T09:48:28Z</time>
      </trkpt>
      <trkpt lat="43.17209" lon="2.8453">
        <ele>39.5</ele>
        <time>2018-05-19T09:48:33Z</time>
      </trkpt>
      <trkpt lat="43.17229" lon="2.84522">
        <ele>39.5</ele>
        <time>2018-05-19T09:48:38Z</time>
      </trkpt>
      <trkpt lat="43.17245" lon="2.84514">
        <ele>39.4</ele>
        <time>2018-05-19T09:48:43Z</time>
      </trkpt>
      <trkpt lat="43.17267" lon="2.84496">
        <ele>39</ele>
        <time>2018-05-19T09:48:48Z</time>
      </trkpt>
      <trkpt lat="43.1729" lon="2.84483">
        <ele>39.2</ele>
        <time>2018-05-19T09:48:53Z</time>
      </trkpt>
      <trkpt lat="43.17315" lon="2.8447">
        <ele>39.4</ele>
        <time>2018-05-19T09:48:58Z</time>
      </trkpt>
      <trkpt lat="43.17335" lon="2.84461">
        <ele>39.5</ele>
        <time>2018-05-19T09:49:03Z</time>
      </trkpt>
      <trkpt lat="43.17364" lon="2.8444">
        <ele>38.8</ele>
        <time>2018-05-19T09:49:08Z</time>
      </trkpt>
      <trkpt lat="43.17392" lon="2.84423">
        <ele>38.2</ele>
        <time>2018-05-19T09:49:13Z</time>
      </trkpt>
      <trkpt lat="43.17421" lon="2.84406">
        <ele>37.4</ele>
        <time>2018-05-19T09:49:18Z</time>
      </trkpt>
      <trkpt lat="43.17443" lon="2.84393">
        <ele>37.8</ele>
        <time>2018-05-19T09:49:23Z</time>
      </trkpt>
      <trkpt lat="43.17462" lon="2.84378">
        <ele>38.1</ele>
        <time>2018-05-19T09:49:28Z</time>
      </trkpt>
      <trkpt lat="43.17477" lon="2.84368">
        <ele>38.1</ele>
        <time>2018-05-19T09:49:33Z</time>
      </trkpt>
      <trkpt lat="43.17493" lon="2.84355">
        <ele>38.1</ele>
        <time>2018-05-19T09:49:38Z</time>
      </trkpt>
      <trkpt lat="43.17502" lon="2.84347">
        <ele>38.6</ele>
        <time>2018-05-19T09:49:43Z</time>
      </trkpt>
      <trkpt lat="43.17512" lon="2.84339">
        <ele>38.6</ele>
        <time>2018-05-19T09:49:48Z</time>
      </trkpt>
      <trkpt lat="43.17525" lon="2.84329">
        <ele>37.9</ele>
        <time>2018-05-19T09:49:53Z</time>
      </trkpt>
      <trkpt lat="43.17534" lon="2.84322">
        <ele>37.9</ele>
        <time>2018-05-19T09:49:58Z</time>
      </trkpt>
      <trkpt lat="43.17549" lon="2.8431">
        <ele>38</ele>
        <time>2018-05-19T09:50:03Z</time>
      </trkpt>
      <trkpt lat="43.17561" lon="2.84302">
        <ele>37.9</ele>
        <time>2018-05-19T09:50:08Z</time>
      </trkpt>
      <trkpt lat="43.17582" lon="2.84286">
        <ele>37.8</ele>
        <time>2018-05-19T09:50:13Z</time>
      </trkpt>
      <trkpt lat="43.17597" lon="2.84274">
        <ele>38</ele>
        <time>2018-05-19T09:50:18Z</time>
      </trkpt>
      <trkpt lat="43.17616" lon="2.84257">
        <ele>38</ele>
        <time>2018-05-19T09:50:23Z</time>
      </trkpt>
      <trkpt lat="43.17636" lon="2.84239">
        <ele>36.8</ele>
        <time>2018-05-19T09:50:28Z</time>
      </trkpt>
      <trkpt lat="43.17649" lon="2.84225">
        <ele>36.8</ele>
        <time>2018-05-19T09:50:33Z</time>
      </trkpt>
      <trkpt lat="43.17669" lon="2.84206">
        <ele>38.5</ele>
        <time>2018-05-19T09:50:38Z</time>
      </trkpt>
      <trkpt lat="43.17684" lon="2.84194">
        <ele>38.4</ele>
        <time>2018-05-19T09:50:43Z</time>
      </trkpt>
      <trkpt lat="43.17704" lon="2.84176">
        <ele>38.7</ele>
        <time>2018-05-19T09:50:48Z</time>
      </trkpt>
      <trkpt lat="43.17717" lon="2.84162">
        <ele>36.5</ele>
        <time>2018-05-19T09:50:53Z</time>
      </trkpt>
      <trkpt lat="43.17735" lon="2.84146">
        <ele>36.7</ele>
        <time>2018-05-19T09:50:58Z</time>
      </trkpt>
      <trkpt lat="43.17748" lon="2.84135">
        <ele>36.3</ele>
        <time>2018-05-19T09:51:03Z</time>
      </trkpt>
      <trkpt lat="43.17768" lon="2.8412">
        <ele>37.6</ele>
        <time>2018-05-19T09:51:08Z</time>
      </trkpt>
      <trkpt lat="43.17781" lon="2.84112">
        <ele>37.6</ele>
        <time>2018-05-19T09:51:13Z</time>
      </trkpt>
      <trkpt lat="43.17804" lon="2.84103">
        <ele>37.8</ele>
        <time>2018-05-19T09:51:18Z</time>
      </trkpt>
      <trkpt lat="43.17825" lon="2.84097">
        <ele>37.6</ele>
        <time>2018-05-19T09:51:23Z</time>
      </trkpt>
      <trkpt lat="43.17846" lon="2.84089">
        <ele>38.4</ele>
        <time>2018-05-19T09:51:28Z</time>
      </trkpt>
      <trkpt lat="43.17867" lon="2.84085">
        <ele>39.1</ele>
        <time>2018-05-19T09:51:33Z</time>
      </trkpt>
      <trkpt lat="43.17888" lon="2.84091">
        <ele>39.2</ele>
        <time>2018-05-19T09:51:38Z</time>
      </trkpt>
      <trkpt lat="43.17908" lon="2.84095">
        <ele>38.6</ele>
        <time>2018-05-19T09:51:43Z</time>
      </trkpt>
      <trkpt lat="43.17922" lon="2.84096">
        <ele>38.4</ele>
        <time>2018-05-19T09:51:48Z</time>
      </trkpt>
      <trkpt lat="43.17943" lon="2.84104">
        <ele>39.3</ele>
        <time>2018-05-19T09:51:53Z</time>
      </trkpt>
      <trkpt lat="43.17955" lon="2.84109">
        <ele>39.5</ele>
        <time>2018-05-19T09:51:58Z</time>
      </trkpt>
      <trkpt lat="43.17972" lon="2.84118">
        <ele>39.6</ele>
        <time>2018-05-19T09:52:03Z</time>
      </trkpt>
      <trkpt lat="43.17983" lon="2.84125">
        <ele>39.7</ele>
        <time>2018-05-19T09:52:08Z</time>
      </trkpt>
      <trkpt lat="43.18001" lon="2.84136">
        <ele>38.3</ele>
        <time>2018-05-19T09:52:13Z</time>
      </trkpt>
      <trkpt lat="43.18014" lon="2.84145">
        <ele>38.6</ele>
        <time>2018-05-19T09:52:18Z</time>
      </trkpt>
      <trkpt lat="43.18035" lon="2.84164">
        <ele>38.1</ele>
        <time>2018-05-19T09:52:23Z</time>
      </trkpt>
      <trkpt lat="43.18057" lon="2.84185">
        <ele>42.4</ele>
        <time>2018-05-19T09:52:28Z</time>
      </trkpt>
      <trkpt lat="43.18072" lon="2.84194">
        <ele>42.2</ele>
        <time>2018-05-19T09:52:33Z</time>
      </trkpt>
      <trkpt lat="43.18095" lon="2.84213">
        <ele>38.9</ele>
        <time>2018-05-19T09:52:38Z</time>
      </trkpt>
      <trkpt lat="43.1811" lon="2.84222">
        <ele>38.8</ele>
        <time>2018-05-19T09:52:43Z</time>
      </trkpt>
      <trkpt lat="43.18135" lon="2.84239">
        <ele>38.1</ele>
        <time>2018-05-19T09:52:48Z</time>
      </trkpt>
      <trkpt lat="43.18154" lon="2.84257">
        <ele>40.8</ele>
        <time>2018-05-19T09:52:53Z</time>
      </trkpt>
      <trkpt lat="43.18168" lon="2.84264">
        <ele>38</ele>
        <time>2018-05-19T09:52:58Z</time>
      </trkpt>
      <trkpt lat="43.18189" lon="2.84277">
        <ele>38.8</ele>
        <time>2018-05-19T09:53:03Z</time>
      </trkpt>
      <trkpt lat="43.18202" lon="2.84287">
        <ele>39</ele>
        <time>2018-05-19T09:53:08Z</time>
      </trkpt>
      <trkpt lat="43.18223" lon="2.84305">
        <ele>39.1</ele>
        <time>2018-05-19T09:53:13Z</time>
      </trkpt>
      <trkpt lat="43.18237" lon="2.84316">
        <ele>39</ele>
        <time>2018-05-19T09:53:18Z</time>
      </trkpt>
      <trkpt lat="43.18264" lon="2.84335">
        <ele>39.1</ele>
        <time>2018-05-19T09:53:23Z</time>
      </trkpt>
      <trkpt lat="43.18286" lon="2.8435">
        <ele>39.1</ele>
        <time>2018-05-19T09:53:28Z</time>
      </trkpt>
      <trkpt lat="43.18307" lon="2.84359">
        <ele>38.8</ele>
        <time>2018-05-19T09:53:33Z</time>
      </trkpt>
      <trkpt lat="43.18329" lon="2.8437">
        <ele>38.8</ele>
        <time>2018-05-19T09:53:38Z</time>
      </trkpt>
      <trkpt lat="43.18351" lon="2.84377">
        <ele>37.1</ele>
        <time>2018-05-19T09:53:43Z</time>
      </trkpt>
      <trkpt lat="43.18371" lon="2.84386">
        <ele>37.1</ele>
        <time>2018-05-19T09:53:48Z</time>
      </trkpt>
      <trkpt lat="43.18391" lon="2.84397">
        <ele>37.1</ele>
        <time>2018-05-19T09:53:53Z</time>
      </trkpt>
      <trkpt lat="43.18411" lon="2.84404">
        <ele>37.4</ele>
        <time>2018-05-19T09:53:58Z</time>
      </trkpt>
      <trkpt lat="43.18434" lon="2.84417">
        <ele>36.5</ele>
        <time>2018-05-19T09:54:03Z</time>
      </trkpt>
      <trkpt lat="43.18447" lon="2.84419">
        <ele>38.2</ele>
        <time>2018-05-19T09:54:08Z</time>
      </trkpt>
      <trkpt lat="43.18465" lon="2.84394">
        <ele>35.2</ele>
        <time>2018-05-19T09:54:13Z</time>
      </trkpt>
      <trkpt lat="43.18467" lon="2.84372">
        <ele>34.6</ele>
        <time>2018-05-19T09:54:18Z</time>
      </trkpt>
      <trkpt lat="43.18458" lon="2.84346">
        <ele>34.1</ele>
        <time>2018-05-19T09:54:23Z</time>
      </trkpt>
      <trkpt lat="43.18455" lon="2.84318">
        <ele>32.3</ele>
        <time>2018-05-19T09:54:28Z</time>
      </trkpt>
      <trkpt lat="43.18457" lon="2.84301">
        <ele>32.3</ele>
        <time>2018-05-19T09:54:33Z</time>
      </trkpt>
      <trkpt lat="43.1846" lon="2.84276">
        <ele>32.2</ele>
        <time>2018-05-19T09:54:38Z</time>
      </trkpt>
      <trkpt lat="43.18462" lon="2.84258">
        <ele>32.2</ele>
        <time>2018-05-19T09:54:43Z</time>
      </trkpt>
      <trkpt lat="43.18467" lon="2.84228">
        <ele>33.9</ele>
        <time>2018-05-19T09:54:48Z</time>
      </trkpt>
      <trkpt lat="43.18471" lon="2.84212">
        <ele>34.4</ele>
        <time>2018-05-19T09:54:53Z</time>
      </trkpt>
      <trkpt lat="43.18474" lon="2.84193">
        <ele>35</ele>
        <time>2018-05-19T09:54:58Z</time>
      </trkpt>
      <trkpt lat="43.18475" lon="2.84184">
        <ele>35.3</ele>
        <time>2018-05-19T09:55:03Z</time>
      </trkpt>
      <trkpt lat="43.18475" lon="2.84167">
        <ele>35.6</ele>
        <time>2018-05-19T09:55:08Z</time>
      </trkpt>
      <trkpt lat="43.18476" lon="2.84142">
        <ele>37.4</ele>
        <time>2018-05-19T09:55:13Z</time>
      </trkpt>
      <trkpt lat="43.18479" lon="2.84123">
        <ele>37.5</ele>
        <time>2018-05-19T09:55:18Z</time>
      </trkpt>
      <trkpt lat="43.18482" lon="2.84096">
        <ele>37.7</ele>
        <time>2018-05-19T09:55:23Z</time>
      </trkpt>
      <trkpt lat="43.18483" lon="2.8408">
        <ele>37.8</ele>
        <time>2018-05-19T09:55:28Z</time>
      </trkpt>
      <trkpt lat="43.18486" lon="2.84055">
        <ele>37.6</ele>
        <time>2018-05-19T09:55:33Z</time>
      </trkpt>
      <trkpt lat="43.18487" lon="2.84037">
        <ele>37.5</ele>
        <time>2018-05-19T09:55:38Z</time>
      </trkpt>
      <trkpt lat="43.18489" lon="2.84023">
        <ele>37.3</ele>
        <time>2018-05-19T09:55:43Z</time>
      </trkpt>
      <trkpt lat="43.18484" lon="2.84011">
        <ele>37.3</ele>
        <time>2018-05-19T09:55:48Z</time>
      </trkpt>
      <trkpt lat="43.18484" lon="2.84011">
        <ele>37.3</ele>
        <time>2018-05-19T09:55:53Z</time>
      </trkpt>
      <trkpt lat="43.18484" lon="2.84011">
        <ele>37.3</ele>
        <time>2018-05-19T09:55:58Z</time>
      </trkpt>
      <trkpt lat="43.18484" lon="2.84011">
        <ele>37.3</ele>
        <time>2018-05-19T09:56:03Z</time>
      </trkpt>
      <trkpt lat="43.18484" lon="2.84011">
        <ele>37.3</ele>
        <time>2018-05-19T09:56:08Z</time>
      </trkpt>
      <trkpt lat="43.18475" lon="2.84005">
        <ele>37.3</ele>
        <time>2018-05-19T09:56:23Z</time>
      </trkpt>
      <trkpt lat="43.18457" lon="2.84002">
        <ele>37.3</ele>
        <time>2018-05-19T09:56:28Z</time>
      </trkpt>
      <trkpt lat="43.18421" lon="2.83994">
        <ele>36.8</ele>
        <time>2018-05-19T09:56:33Z</time>
      </trkpt>
      <trkpt lat="43.18399" lon="2.83986">
        <ele>36.2</ele>
        <time>2018-05-19T09:56:38Z</time>
      </trkpt>
      <trkpt lat="43.18381" lon="2.8398">
        <ele>36</ele>
        <time>2018-05-19T09:56:43Z</time>
      </trkpt>
      <trkpt lat="43.18354" lon="2.8397">
        <ele>35.8</ele>
        <time>2018-05-19T09:56:48Z</time>
      </trkpt>
      <trkpt lat="43.18336" lon="2.83966">
        <ele>35.7</ele>
        <time>2018-05-19T09:56:53Z</time>
      </trkpt>
      <trkpt lat="43.18315" lon="2.83959">
        <ele>36.3</ele>
        <time>2018-05-19T09:56:58Z</time>
      </trkpt>
      <trkpt lat="43.18298" lon="2.83956">
        <ele>36.4</ele>
        <time>2018-05-19T09:57:03Z</time>
      </trkpt>
      <trkpt lat="43.18277" lon="2.8395">
        <ele>36.6</ele>
        <time>2018-05-19T09:57:08Z</time>
      </trkpt>
      <trkpt lat="43.18254" lon="2.83943">
        <ele>36.8</ele>
        <time>2018-05-19T09:57:13Z</time>
      </trkpt>
      <trkpt lat="43.18239" lon="2.83937">
        <ele>37.7</ele>
        <time>2018-05-19T09:57:18Z</time>
      </trkpt>
      <trkpt lat="43.18219" lon="2.83932">
        <ele>37.9</ele>
        <time>2018-05-19T09:57:23Z</time>
      </trkpt>
      <trkpt lat="43.1821" lon="2.83925">
        <ele>38.1</ele>
        <time>2018-05-19T09:57:28Z</time>
      </trkpt>
      <trkpt lat="43.18192" lon="2.8392">
        <ele>38.6</ele>
        <time>2018-05-19T09:57:33Z</time>
      </trkpt>
      <trkpt lat="43.1818" lon="2.83914">
        <ele>39.3</ele>
        <time>2018-05-19T09:57:38Z</time>
      </trkpt>
      <trkpt lat="43.18165" lon="2.83904">
        <ele>39.9</ele>
        <time>2018-05-19T09:57:43Z</time>
      </trkpt>
      <trkpt lat="43.18156" lon="2.8389">
        <ele>39.8</ele>
        <time>2018-05-19T09:57:48Z</time>
      </trkpt>
      <trkpt lat="43.18138" lon="2.83871">
        <ele>39.8</ele>
        <time>2018-05-19T09:57:53Z</time>
      </trkpt>
      <trkpt lat="43.18126" lon="2.83865">
        <ele>39.8</ele>
        <time>2018-05-19T09:57:58Z</time>
      </trkpt>
      <trkpt lat="43.18114" lon="2.83864">
        <ele>39.8</ele>
        <time>2018-05-19T09:58:03Z</time>
      </trkpt>
      <trkpt lat="43.18103" lon="2.8386">
        <ele>39.8</ele>
        <time>2018-05-19T09:58:08Z</time>
      </trkpt>
      <trkpt lat="43.18079" lon="2.83855">
        <ele>39.6</ele>
        <time>2018-05-19T09:58:13Z</time>
      </trkpt>
      <trkpt lat="43.1806" lon="2.83847">
        <ele>39.6</ele>
        <time>2018-05-19T09:58:18Z</time>
      </trkpt>
      <trkpt lat="43.18046" lon="2.83841">
        <ele>39.7</ele>
        <time>2018-05-19T09:58:23Z</time>
      </trkpt>
      <trkpt lat="43.18029" lon="2.83827">
        <ele>40.9</ele>
        <time>2018-05-19T09:58:28Z</time>
      </trkpt>
      <trkpt lat="43.18021" lon="2.8382">
        <ele>41</ele>
        <time>2018-05-19T09:58:33Z</time>
      </trkpt>
      <trkpt lat="43.18011" lon="2.83812">
        <ele>41</ele>
        <time>2018-05-19T09:58:38Z</time>
      </trkpt>
      <trkpt lat="43.17996" lon="2.83795">
        <ele>40.8</ele>
        <time>2018-05-19T09:58:43Z</time>
      </trkpt>
      <trkpt lat="43.17985" lon="2.83786">
        <ele>40.8</ele>
        <time>2018-05-19T09:58:48Z</time>
      </trkpt>
      <trkpt lat="43.1797" lon="2.83767">
        <ele>40.8</ele>
        <time>2018-05-19T09:58:53Z</time>
      </trkpt>
      <trkpt lat="43.17964" lon="2.8375">
        <ele>40.8</ele>
        <time>2018-05-19T09:58:58Z</time>
      </trkpt>
      <trkpt lat="43.17961" lon="2.83744">
        <ele>40.7</ele>
        <time>2018-05-19T09:59:03Z</time>
      </trkpt>
      <trkpt lat="43.17957" lon="2.83729">
        <ele>40.6</ele>
        <time>2018-05-19T09:59:08Z</time>
      </trkpt>
      <trkpt lat="43.17948" lon="2.83704">
        <ele>40.4</ele>
        <time>2018-05-19T09:59:13Z</time>
      </trkpt>
      <trkpt lat="43.17935" lon="2.83678">
        <ele>39.9</ele>
        <time>2018-05-19T09:59:18Z</time>
      </trkpt>
      <trkpt lat="43.17925" lon="2.83658">
        <ele>39</ele>
        <time>2018-05-19T09:59:23Z</time>
      </trkpt>
      <trkpt lat="43.17912" lon="2.83619">
        <ele>38.1</ele>
        <time>2018-05-19T09:59:28Z</time>
      </trkpt>
      <trkpt lat="43.17897" lon="2.83593">
        <ele>38</ele>
        <time>2018-05-19T09:59:33Z</time>
      </trkpt>
      <trkpt lat="43.17882" lon="2.83576">
        <ele>37.8</ele>
        <time>2018-05-19T09:59:38Z</time>
      </trkpt>
      <trkpt lat="43.17863" lon="2.83559">
        <ele>37.8</ele>
        <time>2018-05-19T09:59:43Z</time>
      </trkpt>
      <trkpt lat="43.1785" lon="2.83548">
        <ele>37.8</ele>
        <time>2018-05-19T09:59:48Z</time>
      </trkpt>
      <trkpt lat="43.1783" lon="2.83535">
        <ele>38.5</ele>
        <time>2018-05-19T09:59:53Z</time>
      </trkpt>
      <trkpt lat="43.17819" lon="2.83525">
        <ele>38.5</ele>
        <time>2018-05-19T09:59:58Z</time>
      </trkpt>
      <trkpt lat="43.1781" lon="2.83505">
        <ele>38.5</ele>
        <time>2018-05-19T10:00:03Z</time>
      </trkpt>
      <trkpt lat="43.17798" lon="2.835">
        <ele>38.7</ele>
        <time>2018-05-19T10:00:08Z</time>
      </trkpt>
      <trkpt lat="43.17783" lon="2.83495">
        <ele>38.8</ele>
        <time>2018-05-19T10:00:13Z</time>
      </trkpt>
      <trkpt lat="43.17776" lon="2.83493">
        <ele>38.9</ele>
        <time>2018-05-19T10:00:18Z</time>
      </trkpt>
      <trkpt lat="43.17761" lon="2.83485">
        <ele>39.2</ele>
        <time>2018-05-19T10:00:23Z</time>
      </trkpt>
      <trkpt lat="43.17741" lon="2.83482">
        <ele>39.3</ele>
        <time>2018-05-19T10:00:28Z</time>
      </trkpt>
      <trkpt lat="43.17725" lon="2.83479">
        <ele>39</ele>
        <time>2018-05-19T10:00:33Z</time>
      </trkpt>
      <trkpt lat="43.17701" lon="2.83476">
        <ele>38.9</ele>
        <time>2018-05-19T10:00:38Z</time>
      </trkpt>
      <trkpt lat="43.17686" lon="2.83474">
        <ele>38.8</ele>
        <time>2018-05-19T10:00:43Z</time>
      </trkpt>
      <trkpt lat="43.17662" lon="2.8347">
        <ele>39</ele>
        <time>2018-05-19T10:00:48Z</time>
      </trkpt>
      <trkpt lat="43.1764" lon="2.83466">
        <ele>39.2</ele>
        <time>2018-05-19T10:00:53Z</time>
      </trkpt>
      <trkpt lat="43.17622" lon="2.83462">
        <ele>39.3</ele>
        <time>2018-05-19T10:00:58Z</time>
      </trkpt>
      <trkpt lat="43.17595" lon="2.83461">
        <ele>39.5</ele>
        <time>2018-05-19T10:01:03Z</time>
      </trkpt>
      <trkpt lat="43.17578" lon="2.83456">
        <ele>39.8</ele>
        <time>2018-05-19T10:01:08Z</time>
      </trkpt>
      <trkpt lat="43.17557" lon="2.83445">
        <ele>39.8</ele>
        <time>2018-05-19T10:01:13Z</time>
      </trkpt>
      <trkpt lat="43.17535" lon="2.83441">
        <ele>39.7</ele>
        <time>2018-05-19T10:01:18Z</time>
      </trkpt>
      <trkpt lat="43.17512" lon="2.83438">
        <ele>39.5</ele>
        <time>2018-05-19T10:01:23Z</time>
      </trkpt>
      <trkpt lat="43.17497" lon="2.83434">
        <ele>39.3</ele>
        <time>2018-05-19T10:01:28Z</time>
      </trkpt>
      <trkpt lat="43.17472" lon="2.83429">
        <ele>39.4</ele>
        <time>2018-05-19T10:01:33Z</time>
      </trkpt>
      <trkpt lat="43.17454" lon="2.83426">
        <ele>39.5</ele>
        <time>2018-05-19T10:01:38Z</time>
      </trkpt>
      <trkpt lat="43.17428" lon="2.8342">
        <ele>39.8</ele>
        <time>2018-05-19T10:01:43Z</time>
      </trkpt>
      <trkpt lat="43.17411" lon="2.83417">
        <ele>39.8</ele>
        <time>2018-05-19T10:01:48Z</time>
      </trkpt>
      <trkpt lat="43.17388" lon="2.83412">
        <ele>39.8</ele>
        <time>2018-05-19T10:01:53Z</time>
      </trkpt>
      <trkpt lat="43.17373" lon="2.8341">
        <ele>39.6</ele>
        <time>2018-05-19T10:01:58Z</time>
      </trkpt>
      <trkpt lat="43.1735" lon="2.83405">
        <ele>39.4</ele>
        <time>2018-05-19T10:02:03Z</time>
      </trkpt>
      <trkpt lat="43.17334" lon="2.83403">
        <ele>39.3</ele>
        <time>2018-05-19T10:02:08Z</time>
      </trkpt>
      <trkpt lat="43.17308" lon="2.83396">
        <ele>38.7</ele>
        <time>2018-05-19T10:02:13Z</time>
      </trkpt>
      <trkpt lat="43.17291" lon="2.83394">
        <ele>38.5</ele>
        <time>2018-05-19T10:02:18Z</time>
      </trkpt>
      <trkpt lat="43.17268" lon="2.83389">
        <ele>38.3</ele>
        <time>2018-05-19T10:02:23Z</time>
      </trkpt>
      <trkpt lat="43.17247" lon="2.83379">
        <ele>37.7</ele>
        <time>2018-05-19T10:02:28Z</time>
      </trkpt>
      <trkpt lat="43.17226" lon="2.83362">
        <ele>37.6</ele>
        <time>2018-05-19T10:02:33Z</time>
      </trkpt>
      <trkpt lat="43.17211" lon="2.83348">
        <ele>37.7</ele>
        <time>2018-05-19T10:02:38Z</time>
      </trkpt>
      <trkpt lat="43.17189" lon="2.83329">
        <ele>37.8</ele>
        <time>2018-05-19T10:02:43Z</time>
      </trkpt>
      <trkpt lat="43.17175" lon="2.83316">
        <ele>37.9</ele>
        <time>2018-05-19T10:02:48Z</time>
      </trkpt>
      <trkpt lat="43.17155" lon="2.833">
        <ele>38</ele>
        <time>2018-05-19T10:02:53Z</time>
      </trkpt>
      <trkpt lat="43.17142" lon="2.83289">
        <ele>38</ele>
        <time>2018-05-19T10:02:58Z</time>
      </trkpt>
      <trkpt lat="43.17122" lon="2.83271">
        <ele>38</ele>
        <time>2018-05-19T10:03:03Z</time>
      </trkpt>
      <trkpt lat="43.17108" lon="2.83263">
        <ele>38</ele>
        <time>2018-05-19T10:03:08Z</time>
      </trkpt>
      <trkpt lat="43.17086" lon="2.83254">
        <ele>38</ele>
        <time>2018-05-19T10:03:13Z</time>
      </trkpt>
      <trkpt lat="43.17076" lon="2.83252">
        <ele>38.2</ele>
        <time>2018-05-19T10:03:18Z</time>
      </trkpt>
      <trkpt lat="43.17065" lon="2.8325">
        <ele>38.3</ele>
        <time>2018-05-19T10:03:23Z</time>
      </trkpt>
      <trkpt lat="43.1706" lon="2.8325">
        <ele>38.4</ele>
        <time>2018-05-19T10:03:28Z</time>
      </trkpt>
      <trkpt lat="43.17054" lon="2.8325">
        <ele>38.3</ele>
        <time>2018-05-19T10:03:33Z</time>
      </trkpt>
      <trkpt lat="43.17039" lon="2.83252">
        <ele>38.7</ele>
        <time>2018-05-19T10:03:38Z</time>
      </trkpt>
      <trkpt lat="43.17026" lon="2.83253">
        <ele>38.8</ele>
        <time>2018-05-19T10:03:43Z</time>
      </trkpt>
      <trkpt lat="43.17002" lon="2.83257">
        <ele>39</ele>
        <time>2018-05-19T10:03:48Z</time>
      </trkpt>
      <trkpt lat="43.16979" lon="2.83261">
        <ele>39.6</ele>
        <time>2018-05-19T10:03:53Z</time>
      </trkpt>
      <trkpt lat="43.16964" lon="2.83264">
        <ele>39.8</ele>
        <time>2018-05-19T10:03:58Z</time>
      </trkpt>
      <trkpt lat="43.1694" lon="2.83268">
        <ele>40</ele>
        <time>2018-05-19T10:04:03Z</time>
      </trkpt>
      <trkpt lat="43.16925" lon="2.83269">
        <ele>40</ele>
        <time>2018-05-19T10:04:08Z</time>
      </trkpt>
      <trkpt lat="43.16906" lon="2.83265">
        <ele>40.9</ele>
        <time>2018-05-19T10:04:13Z</time>
      </trkpt>
      <trkpt lat="43.16895" lon="2.83262">
        <ele>41.2</ele>
        <time>2018-05-19T10:04:18Z</time>
      </trkpt>
      <trkpt lat="43.1688" lon="2.83256">
        <ele>41.5</ele>
        <time>2018-05-19T10:04:23Z</time>
      </trkpt>
      <trkpt lat="43.16871" lon="2.83251">
        <ele>41.8</ele>
        <time>2018-05-19T10:04:28Z</time>
      </trkpt>
      <trkpt lat="43.16857" lon="2.83245">
        <ele>41.7</ele>
        <time>2018-05-19T10:04:33Z</time>
      </trkpt>
      <trkpt lat="43.16848" lon="2.83242">
        <ele>42</ele>
        <time>2018-05-19T10:04:38Z</time>
      </trkpt>
      <trkpt lat="43.16834" lon="2.83236">
        <ele>42.2</ele>
        <time>2018-05-19T10:04:43Z</time>
      </trkpt>
      <trkpt lat="43.16825" lon="2.83231">
        <ele>42.7</ele>
        <time>2018-05-19T10:04:48Z</time>
      </trkpt>
      <trkpt lat="43.16812" lon="2.83223">
        <ele>42.6</ele>
        <time>2018-05-19T10:04:53Z</time>
      </trkpt>
      <trkpt lat="43.16803" lon="2.83217">
        <ele>42.5</ele>
        <time>2018-05-19T10:04:58Z</time>
      </trkpt>
      <trkpt lat="43.16795" lon="2.83211">
        <ele>42.5</ele>
        <time>2018-05-19T10:05:03Z</time>
      </trkpt>
      <trkpt lat="43.1678" lon="2.832">
        <ele>42.5</ele>
        <time>2018-05-19T10:05:08Z</time>
      </trkpt>
      <trkpt lat="43.16771" lon="2.83192">
        <ele>42.6</ele>
        <time>2018-05-19T10:05:13Z</time>
      </trkpt>
      <trkpt lat="43.16758" lon="2.83182">
        <ele>42.7</ele>
        <time>2018-05-19T10:05:18Z</time>
      </trkpt>
      <trkpt lat="43.1675" lon="2.83175">
        <ele>43</ele>
        <time>2018-05-19T10:05:23Z</time>
      </trkpt>
      <trkpt lat="43.16734" lon="2.83163">
        <ele>42.9</ele>
        <time>2018-05-19T10:05:28Z</time>
      </trkpt>
      <trkpt lat="43.16721" lon="2.83155">
        <ele>42.9</ele>
        <time>2018-05-19T10:05:33Z</time>
      </trkpt>
      <trkpt lat="43.16706" lon="2.83143">
        <ele>42.9</ele>
        <time>2018-05-19T10:05:38Z</time>
      </trkpt>
      <trkpt lat="43.16695" lon="2.83133">
        <ele>42.9</ele>
        <time>2018-05-19T10:05:43Z</time>
      </trkpt>
      <trkpt lat="43.16676" lon="2.8312">
        <ele>43</ele>
        <time>2018-05-19T10:05:48Z</time>
      </trkpt>
      <trkpt lat="43.16664" lon="2.8311">
        <ele>44.5</ele>
        <time>2018-05-19T10:05:53Z</time>
      </trkpt>
      <trkpt lat="43.16642" lon="2.83092">
        <ele>44.7</ele>
        <time>2018-05-19T10:05:58Z</time>
      </trkpt>
      <trkpt lat="43.16627" lon="2.83079">
        <ele>44.5</ele>
        <time>2018-05-19T10:06:03Z</time>
      </trkpt>
      <trkpt lat="43.16604" lon="2.83059">
        <ele>45</ele>
        <time>2018-05-19T10:06:08Z</time>
      </trkpt>
      <trkpt lat="43.16583" lon="2.83042">
        <ele>47.2</ele>
        <time>2018-05-19T10:06:13Z</time>
      </trkpt>
      <trkpt lat="43.16564" lon="2.83022">
        <ele>47.1</ele>
        <time>2018-05-19T10:06:18Z</time>
      </trkpt>
      <trkpt lat="43.16544" lon="2.83003">
        <ele>47.5</ele>
        <time>2018-05-19T10:06:23Z</time>
      </trkpt>
      <trkpt lat="43.16529" lon="2.82988">
        <ele>46.4</ele>
        <time>2018-05-19T10:06:28Z</time>
      </trkpt>
      <trkpt lat="43.16509" lon="2.82971">
        <ele>46.6</ele>
        <time>2018-05-19T10:06:33Z</time>
      </trkpt>
      <trkpt lat="43.16496" lon="2.8296">
        <ele>49</ele>
        <time>2018-05-19T10:06:38Z</time>
      </trkpt>
      <trkpt lat="43.16479" lon="2.82945">
        <ele>48.9</ele>
        <time>2018-05-19T10:06:43Z</time>
      </trkpt>
      <trkpt lat="43.16468" lon="2.82936">
        <ele>49</ele>
        <time>2018-05-19T10:06:48Z</time>
      </trkpt>
      <trkpt lat="43.16453" lon="2.82919">
        <ele>49.3</ele>
        <time>2018-05-19T10:06:53Z</time>
      </trkpt>
      <trkpt lat="43.16443" lon="2.82908">
        <ele>47.4</ele>
        <time>2018-05-19T10:06:58Z</time>
      </trkpt>
      <trkpt lat="43.1643" lon="2.8289">
        <ele>47.3</ele>
        <time>2018-05-19T10:07:03Z</time>
      </trkpt>
      <trkpt lat="43.1642" lon="2.82877">
        <ele>47</ele>
        <time>2018-05-19T10:07:08Z</time>
      </trkpt>
      <trkpt lat="43.16406" lon="2.8286">
        <ele>49.5</ele>
        <time>2018-05-19T10:07:13Z</time>
      </trkpt>
      <trkpt lat="43.16397" lon="2.82848">
        <ele>49.4</ele>
        <time>2018-05-19T10:07:18Z</time>
      </trkpt>
      <trkpt lat="43.16383" lon="2.8283">
        <ele>48.5</ele>
        <time>2018-05-19T10:07:23Z</time>
      </trkpt>
      <trkpt lat="43.16374" lon="2.82819">
        <ele>49</ele>
        <time>2018-05-19T10:07:28Z</time>
      </trkpt>
      <trkpt lat="43.1636" lon="2.82801">
        <ele>49.4</ele>
        <time>2018-05-19T10:07:33Z</time>
      </trkpt>
      <trkpt lat="43.16352" lon="2.82789">
        <ele>49.3</ele>
        <time>2018-05-19T10:07:38Z</time>
      </trkpt>
      <trkpt lat="43.16341" lon="2.8277">
        <ele>49.4</ele>
        <time>2018-05-19T10:07:43Z</time>
      </trkpt>
      <trkpt lat="43.16334" lon="2.82757">
        <ele>49.7</ele>
        <time>2018-05-19T10:07:48Z</time>
      </trkpt>
      <trkpt lat="43.16322" lon="2.82737">
        <ele>50.3</ele>
        <time>2018-05-19T10:07:53Z</time>
      </trkpt>
      <trkpt lat="43.16313" lon="2.82724">
        <ele>50.5</ele>
        <time>2018-05-19T10:07:58Z</time>
      </trkpt>
      <trkpt lat="43.16301" lon="2.82703">
        <ele>50.5</ele>
        <time>2018-05-19T10:08:03Z</time>
      </trkpt>
      <trkpt lat="43.16293" lon="2.82691">
        <ele>50.6</ele>
        <time>2018-05-19T10:08:08Z</time>
      </trkpt>
      <trkpt lat="43.16279" lon="2.82675">
        <ele>50.9</ele>
        <time>2018-05-19T10:08:13Z</time>
      </trkpt>
      <trkpt lat="43.16267" lon="2.82666">
        <ele>50.6</ele>
        <time>2018-05-19T10:08:18Z</time>
      </trkpt>
      <trkpt lat="43.16247" lon="2.82656">
        <ele>52</ele>
        <time>2018-05-19T10:08:23Z</time>
      </trkpt>
      <trkpt lat="43.16232" lon="2.8265">
        <ele>52.1</ele>
        <time>2018-05-19T10:08:28Z</time>
      </trkpt>
      <trkpt lat="43.16216" lon="2.82639">
        <ele>52.2</ele>
        <time>2018-05-19T10:08:33Z</time>
      </trkpt>
      <trkpt lat="43.16208" lon="2.82631">
        <ele>52.2</ele>
        <time>2018-05-19T10:08:38Z</time>
      </trkpt>
      <trkpt lat="43.16192" lon="2.82616">
        <ele>52.5</ele>
        <time>2018-05-19T10:08:43Z</time>
      </trkpt>
      <trkpt lat="43.16181" lon="2.82607">
        <ele>52.8</ele>
        <time>2018-05-19T10:08:48Z</time>
      </trkpt>
      <trkpt lat="43.16169" lon="2.82592">
        <ele>53.4</ele>
        <time>2018-05-19T10:08:53Z</time>
      </trkpt>
      <trkpt lat="43.1616" lon="2.82581">
        <ele>54.4</ele>
        <time>2018-05-19T10:08:58Z</time>
      </trkpt>
      <trkpt lat="43.16149" lon="2.82565">
        <ele>55</ele>
        <time>2018-05-19T10:09:03Z</time>
      </trkpt>
      <trkpt lat="43.16142" lon="2.82556">
        <ele>55.2</ele>
        <time>2018-05-19T10:09:08Z</time>
      </trkpt>
      <trkpt lat="43.16134" lon="2.82544">
        <ele>55.3</ele>
        <time>2018-05-19T10:09:13Z</time>
      </trkpt>
      <trkpt lat="43.16127" lon="2.82533">
        <ele>55.5</ele>
        <time>2018-05-19T10:09:18Z</time>
      </trkpt>
      <trkpt lat="43.1612" lon="2.82524">
        <ele>55.6</ele>
        <time>2018-05-19T10:09:23Z</time>
      </trkpt>
      <trkpt lat="43.16107" lon="2.82512">
        <ele>55.9</ele>
        <time>2018-05-19T10:09:28Z</time>
      </trkpt>
      <trkpt lat="43.16099" lon="2.82504">
        <ele>56.2</ele>
        <time>2018-05-19T10:09:33Z</time>
      </trkpt>
      <trkpt lat="43.16087" lon="2.82493">
        <ele>56.4</ele>
        <time>2018-05-19T10:09:38Z</time>
      </trkpt>
      <trkpt lat="43.1608" lon="2.82484">
        <ele>57.4</ele>
        <time>2018-05-19T10:09:43Z</time>
      </trkpt>
      <trkpt lat="43.16069" lon="2.8247">
        <ele>57.6</ele>
        <time>2018-05-19T10:09:48Z</time>
      </trkpt>
      <trkpt lat="43.16061" lon="2.8246">
        <ele>57.7</ele>
        <time>2018-05-19T10:09:53Z</time>
      </trkpt>
      <trkpt lat="43.16054" lon="2.82452">
        <ele>57.8</ele>
        <time>2018-05-19T10:09:58Z</time>
      </trkpt>
      <trkpt lat="43.16044" lon="2.82441">
        <ele>57.9</ele>
        <time>2018-05-19T10:10:03Z</time>
      </trkpt>
      <trkpt lat="43.16033" lon="2.82429">
        <ele>58.3</ele>
        <time>2018-05-19T10:10:08Z</time>
      </trkpt>
      <trkpt lat="43.16027" lon="2.82421">
        <ele>58.5</ele>
        <time>2018-05-19T10:10:13Z</time>
      </trkpt>
      <trkpt lat="43.16019" lon="2.8241">
        <ele>58.7</ele>
        <time>2018-05-19T10:10:18Z</time>
      </trkpt>
      <trkpt lat="43.16011" lon="2.824">
        <ele>58.8</ele>
        <time>2018-05-19T10:10:23Z</time>
      </trkpt>
      <trkpt lat="43.16003" lon="2.82391">
        <ele>58.8</ele>
        <time>2018-05-19T10:10:28Z</time>
      </trkpt>
      <trkpt lat="43.15991" lon="2.82377">
        <ele>60.8</ele>
        <time>2018-05-19T10:10:33Z</time>
      </trkpt>
      <trkpt lat="43.15984" lon="2.82368">
        <ele>60.9</ele>
        <time>2018-05-19T10:10:38Z</time>
      </trkpt>
      <trkpt lat="43.15972" lon="2.82355">
        <ele>61.1</ele>
        <time>2018-05-19T10:10:43Z</time>
      </trkpt>
      <trkpt lat="43.15963" lon="2.82344">
        <ele>61.4</ele>
        <time>2018-05-19T10:10:48Z</time>
      </trkpt>
      <trkpt lat="43.15955" lon="2.82334">
        <ele>61.7</ele>
        <time>2018-05-19T10:10:53Z</time>
      </trkpt>
      <trkpt lat="43.15945" lon="2.82322">
        <ele>62.5</ele>
        <time>2018-05-19T10:10:58Z</time>
      </trkpt>
      <trkpt lat="43.15935" lon="2.82314">
        <ele>62.7</ele>
        <time>2018-05-19T10:11:03Z</time>
      </trkpt>
      <trkpt lat="43.15927" lon="2.82304">
        <ele>62.8</ele>
        <time>2018-05-19T10:11:08Z</time>
      </trkpt>
      <trkpt lat="43.1592" lon="2.82295">
        <ele>62.9</ele>
        <time>2018-05-19T10:11:13Z</time>
      </trkpt>
      <trkpt lat="43.15909" lon="2.82283">
        <ele>65.4</ele>
        <time>2018-05-19T10:11:18Z</time>
      </trkpt>
      <trkpt lat="43.15902" lon="2.82275">
        <ele>65.5</ele>
        <time>2018-05-19T10:11:23Z</time>
      </trkpt>
      <trkpt lat="43.1589" lon="2.82262">
        <ele>65.7</ele>
        <time>2018-05-19T10:11:28Z</time>
      </trkpt>
      <trkpt lat="43.15885" lon="2.82256">
        <ele>65.8</ele>
        <time>2018-05-19T10:11:33Z</time>
      </trkpt>
      <trkpt lat="43.15876" lon="2.82243">
        <ele>65.8</ele>
        <time>2018-05-19T10:11:38Z</time>
      </trkpt>
      <trkpt lat="43.15864" lon="2.82231">
        <ele>66</ele>
        <time>2018-05-19T10:11:43Z</time>
      </trkpt>
      <trkpt lat="43.15856" lon="2.82224">
        <ele>66.1</ele>
        <time>2018-05-19T10:11:48Z</time>
      </trkpt>
      <trkpt lat="43.15844" lon="2.82213">
        <ele>66.1</ele>
        <time>2018-05-19T10:11:53Z</time>
      </trkpt>
      <trkpt lat="43.15835" lon="2.82206">
        <ele>66</ele>
        <time>2018-05-19T10:11:58Z</time>
      </trkpt>
      <trkpt lat="43.15821" lon="2.82194">
        <ele>67.4</ele>
        <time>2018-05-19T10:12:03Z</time>
      </trkpt>
      <trkpt lat="43.15812" lon="2.82187">
        <ele>67.4</ele>
        <time>2018-05-19T10:12:08Z</time>
      </trkpt>
      <trkpt lat="43.15799" lon="2.82177">
        <ele>67.7</ele>
        <time>2018-05-19T10:12:13Z</time>
      </trkpt>
      <trkpt lat="43.1579" lon="2.8217">
        <ele>67.9</ele>
        <time>2018-05-19T10:12:18Z</time>
      </trkpt>
      <trkpt lat="43.15777" lon="2.8216">
        <ele>67.5</ele>
        <time>2018-05-19T10:12:23Z</time>
      </trkpt>
      <trkpt lat="43.15767" lon="2.82155">
        <ele>67.8</ele>
        <time>2018-05-19T10:12:28Z</time>
      </trkpt>
      <trkpt lat="43.15753" lon="2.82147">
        <ele>67.9</ele>
        <time>2018-05-19T10:12:33Z</time>
      </trkpt>
      <trkpt lat="43.15743" lon="2.82143">
        <ele>69.1</ele>
        <time>2018-05-19T10:12:38Z</time>
      </trkpt>
      <trkpt lat="43.15727" lon="2.82136">
        <ele>69.2</ele>
        <time>2018-05-19T10:12:43Z</time>
      </trkpt>
      <trkpt lat="43.15716" lon="2.82131">
        <ele>69.2</ele>
        <time>2018-05-19T10:12:48Z</time>
      </trkpt>
      <trkpt lat="43.15701" lon="2.82125">
        <ele>69.3</ele>
        <time>2018-05-19T10:12:53Z</time>
      </trkpt>
      <trkpt lat="43.1569" lon="2.8212">
        <ele>69.3</ele>
        <time>2018-05-19T10:12:58Z</time>
      </trkpt>
      <trkpt lat="43.15677" lon="2.82114">
        <ele>69.4</ele>
        <time>2018-05-19T10:13:03Z</time>
      </trkpt>
      <trkpt lat="43.15667" lon="2.82109">
        <ele>70.2</ele>
        <time>2018-05-19T10:13:08Z</time>
      </trkpt>
      <trkpt lat="43.15662" lon="2.82107">
        <ele>70.2</ele>
        <time>2018-05-19T10:13:13Z</time>
      </trkpt>
      <trkpt lat="43.15657" lon="2.82104">
        <ele>70.2</ele>
        <time>2018-05-19T10:13:18Z</time>
      </trkpt>
      <trkpt lat="43.15657" lon="2.82104">
        <ele>70.2</ele>
        <time>2018-05-19T10:13:23Z</time>
      </trkpt>
      <trkpt lat="43.15657" lon="2.82104">
        <ele>70.2</ele>
        <time>2018-05-19T10:13:28Z</time>
      </trkpt>
      <trkpt lat="43.15657" lon="2.82104">
        <ele>70.2</ele>
        <time>2018-05-19T10:13:33Z</time>
      </trkpt>
      <trkpt lat="43.15657" lon="2.82104">
        <ele>70.2</ele>
        <time>2018-05-19T10:13:38Z</time>
      </trkpt>
      <trkpt lat="43.15653" lon="2.82104">
        <ele>70.3</ele>
        <time>2018-05-19T10:13:43Z</time>
      </trkpt>
      <trkpt lat="43.15648" lon="2.82102">
        <ele>70.3</ele>
        <time>2018-05-19T10:13:48Z</time>
      </trkpt>
      <trkpt lat="43.15643" lon="2.82102">
        <ele>70.4</ele>
        <time>2018-05-19T10:13:53Z</time>
      </trkpt>
      <trkpt lat="43.15637" lon="2.82098">
        <ele>70.5</ele>
        <time>2018-05-19T10:13:58Z</time>
      </trkpt>
      <trkpt lat="43.15621" lon="2.8209">
        <ele>70.7</ele>
        <time>2018-05-19T10:14:03Z</time>
      </trkpt>
      <trkpt lat="43.1561" lon="2.82083">
        <ele>70.7</ele>
        <time>2018-05-19T10:14:08Z</time>
      </trkpt>
      <trkpt lat="43.15591" lon="2.82075">
        <ele>71.3</ele>
        <time>2018-05-19T10:14:13Z</time>
      </trkpt>
      <trkpt lat="43.15579" lon="2.82071">
        <ele>71.9</ele>
        <time>2018-05-19T10:14:18Z</time>
      </trkpt>
      <trkpt lat="43.15563" lon="2.82064">
        <ele>71.9</ele>
        <time>2018-05-19T10:14:23Z</time>
      </trkpt>
      <trkpt lat="43.15553" lon="2.82058">
        <ele>71.9</ele>
        <time>2018-05-19T10:14:28Z</time>
      </trkpt>
      <trkpt lat="43.15536" lon="2.82049">
        <ele>71.9</ele>
        <time>2018-05-19T10:14:33Z</time>
      </trkpt>
      <trkpt lat="43.15524" lon="2.82044">
        <ele>72</ele>
        <time>2018-05-19T10:14:38Z</time>
      </trkpt>
      <trkpt lat="43.15505" lon="2.82038">
        <ele>71.9</ele>
        <time>2018-05-19T10:14:43Z</time>
      </trkpt>
      <trkpt lat="43.15492" lon="2.82033">
        <ele>72.9</ele>
        <time>2018-05-19T10:14:48Z</time>
      </trkpt>
      <trkpt lat="43.15473" lon="2.82025">
        <ele>73</ele>
        <time>2018-05-19T10:14:53Z</time>
      </trkpt>
      <trkpt lat="43.15461" lon="2.8202">
        <ele>73.2</ele>
        <time>2018-05-19T10:14:58Z</time>
      </trkpt>
      <trkpt lat="43.15441" lon="2.82012">
        <ele>73.5</ele>
        <time>2018-05-19T10:15:03Z</time>
      </trkpt>
      <trkpt lat="43.15428" lon="2.82007">
        <ele>73.7</ele>
        <time>2018-05-19T10:15:08Z</time>
      </trkpt>
      <trkpt lat="43.15412" lon="2.82002">
        <ele>74.3</ele>
        <time>2018-05-19T10:15:13Z</time>
      </trkpt>
      <trkpt lat="43.15401" lon="2.81998">
        <ele>74</ele>
        <time>2018-05-19T10:15:18Z</time>
      </trkpt>
      <trkpt lat="43.15387" lon="2.81991">
        <ele>74.1</ele>
        <time>2018-05-19T10:15:23Z</time>
      </trkpt>
      <trkpt lat="43.15377" lon="2.81986">
        <ele>74.2</ele>
        <time>2018-05-19T10:15:28Z</time>
      </trkpt>
      <trkpt lat="43.15363" lon="2.81978">
        <ele>74.4</ele>
        <time>2018-05-19T10:15:33Z</time>
      </trkpt>
      <trkpt lat="43.15354" lon="2.81973">
        <ele>74.6</ele>
        <time>2018-05-19T10:15:38Z</time>
      </trkpt>
      <trkpt lat="43.15338" lon="2.81967">
        <ele>74.6</ele>
        <time>2018-05-19T10:15:43Z</time>
      </trkpt>
      <trkpt lat="43.15325" lon="2.81961">
        <ele>75.9</ele>
        <time>2018-05-19T10:15:48Z</time>
      </trkpt>
      <trkpt lat="43.15306" lon="2.8195">
        <ele>75.8</ele>
        <time>2018-05-19T10:15:53Z</time>
      </trkpt>
      <trkpt lat="43.15293" lon="2.81941">
        <ele>75.8</ele>
        <time>2018-05-19T10:15:58Z</time>
      </trkpt>
      <trkpt lat="43.15276" lon="2.81932">
        <ele>75.9</ele>
        <time>2018-05-19T10:16:03Z</time>
      </trkpt>
      <trkpt lat="43.15262" lon="2.81922">
        <ele>75.9</ele>
        <time>2018-05-19T10:16:08Z</time>
      </trkpt>
      <trkpt lat="43.1524" lon="2.81909">
        <ele>75.1</ele>
        <time>2018-05-19T10:16:13Z</time>
      </trkpt>
      <trkpt lat="43.15216" lon="2.81898">
        <ele>74.2</ele>
        <time>2018-05-19T10:16:18Z</time>
      </trkpt>
      <trkpt lat="43.15194" lon="2.81887">
        <ele>73.8</ele>
        <time>2018-05-19T10:16:23Z</time>
      </trkpt>
      <trkpt lat="43.15171" lon="2.81874">
        <ele>73.7</ele>
        <time>2018-05-19T10:16:28Z</time>
      </trkpt>
      <trkpt lat="43.15146" lon="2.81859">
        <ele>73.3</ele>
        <time>2018-05-19T10:16:33Z</time>
      </trkpt>
      <trkpt lat="43.15119" lon="2.81844">
        <ele>73.4</ele>
        <time>2018-05-19T10:16:38Z</time>
      </trkpt>
      <trkpt lat="43.15097" lon="2.81832">
        <ele>73.5</ele>
        <time>2018-05-19T10:16:43Z</time>
      </trkpt>
      <trkpt lat="43.15073" lon="2.81819">
        <ele>73.2</ele>
        <time>2018-05-19T10:16:48Z</time>
      </trkpt>
      <trkpt lat="43.15052" lon="2.81806">
        <ele>72.7</ele>
        <time>2018-05-19T10:16:53Z</time>
      </trkpt>
      <trkpt lat="43.15033" lon="2.81796">
        <ele>72.5</ele>
        <time>2018-05-19T10:16:58Z</time>
      </trkpt>
      <trkpt lat="43.15011" lon="2.81782">
        <ele>72.2</ele>
        <time>2018-05-19T10:17:03Z</time>
      </trkpt>
      <trkpt lat="43.14981" lon="2.8177">
        <ele>71.7</ele>
        <time>2018-05-19T10:17:08Z</time>
      </trkpt>
      <trkpt lat="43.14962" lon="2.81755">
        <ele>71.8</ele>
        <time>2018-05-19T10:17:13Z</time>
      </trkpt>
      <trkpt lat="43.14949" lon="2.81747">
        <ele>71.3</ele>
        <time>2018-05-19T10:17:18Z</time>
      </trkpt>
      <trkpt lat="43.1493" lon="2.81736">
        <ele>71.5</ele>
        <time>2018-05-19T10:17:23Z</time>
      </trkpt>
      <trkpt lat="43.14908" lon="2.81724">
        <ele>71.5</ele>
        <time>2018-05-19T10:17:28Z</time>
      </trkpt>
      <trkpt lat="43.14884" lon="2.81713">
        <ele>71.3</ele>
        <time>2018-05-19T10:17:33Z</time>
      </trkpt>
      <trkpt lat="43.14867" lon="2.81704">
        <ele>71.2</ele>
        <time>2018-05-19T10:17:38Z</time>
      </trkpt>
      <trkpt lat="43.14847" lon="2.81692">
        <ele>71.1</ele>
        <time>2018-05-19T10:17:43Z</time>
      </trkpt>
      <trkpt lat="43.1483" lon="2.81682">
        <ele>71.2</ele>
        <time>2018-05-19T10:17:48Z</time>
      </trkpt>
      <trkpt lat="43.14805" lon="2.81668">
        <ele>71.4</ele>
        <time>2018-05-19T10:17:53Z</time>
      </trkpt>
      <trkpt lat="43.14788" lon="2.8166">
        <ele>70.9</ele>
        <time>2018-05-19T10:17:58Z</time>
      </trkpt>
      <trkpt lat="43.14764" lon="2.81643">
        <ele>71</ele>
        <time>2018-05-19T10:18:03Z</time>
      </trkpt>
      <trkpt lat="43.14746" lon="2.81628">
        <ele>71.4</ele>
        <time>2018-05-19T10:18:08Z</time>
      </trkpt>
      <trkpt lat="43.14726" lon="2.81609">
        <ele>71.2</ele>
        <time>2018-05-19T10:18:13Z</time>
      </trkpt>
      <trkpt lat="43.14711" lon="2.8159">
        <ele>71.3</ele>
        <time>2018-05-19T10:18:18Z</time>
      </trkpt>
      <trkpt lat="43.14692" lon="2.8157">
        <ele>70.5</ele>
        <time>2018-05-19T10:18:23Z</time>
      </trkpt>
      <trkpt lat="43.14676" lon="2.81554">
        <ele>70.4</ele>
        <time>2018-05-19T10:18:28Z</time>
      </trkpt>
      <trkpt lat="43.14657" lon="2.81541">
        <ele>71.7</ele>
        <time>2018-05-19T10:18:33Z</time>
      </trkpt>
      <trkpt lat="43.14632" lon="2.81531">
        <ele>71.8</ele>
        <time>2018-05-19T10:18:38Z</time>
      </trkpt>
      <trkpt lat="43.14614" lon="2.81524">
        <ele>71.9</ele>
        <time>2018-05-19T10:18:43Z</time>
      </trkpt>
      <trkpt lat="43.14596" lon="2.81516">
        <ele>72</ele>
        <time>2018-05-19T10:18:48Z</time>
      </trkpt>
      <trkpt lat="43.14582" lon="2.81513">
        <ele>72</ele>
        <time>2018-05-19T10:18:53Z</time>
      </trkpt>
      <trkpt lat="43.14562" lon="2.815">
        <ele>71.8</ele>
        <time>2018-05-19T10:18:58Z</time>
      </trkpt>
      <trkpt lat="43.14551" lon="2.81494">
        <ele>69.7</ele>
        <time>2018-05-19T10:19:03Z</time>
      </trkpt>
      <trkpt lat="43.14541" lon="2.81487">
        <ele>69.4</ele>
        <time>2018-05-19T10:19:08Z</time>
      </trkpt>
      <trkpt lat="43.14529" lon="2.81482">
        <ele>69.2</ele>
        <time>2018-05-19T10:19:13Z</time>
      </trkpt>
      <trkpt lat="43.14511" lon="2.81473">
        <ele>69.1</ele>
        <time>2018-05-19T10:19:18Z</time>
      </trkpt>
      <trkpt lat="43.14507" lon="2.81457">
        <ele>68.6</ele>
        <time>2018-05-19T10:19:23Z</time>
      </trkpt>
      <trkpt lat="43.14509" lon="2.81426">
        <ele>67.6</ele>
        <time>2018-05-19T10:19:28Z</time>
      </trkpt>
      <trkpt lat="43.14513" lon="2.81407">
        <ele>66.8</ele>
        <time>2018-05-19T10:19:33Z</time>
      </trkpt>
      <trkpt lat="43.14516" lon="2.8138">
        <ele>66.6</ele>
        <time>2018-05-19T10:19:38Z</time>
      </trkpt>
      <trkpt lat="43.14517" lon="2.81363">
        <ele>66.6</ele>
        <time>2018-05-19T10:19:43Z</time>
      </trkpt>
      <trkpt lat="43.14517" lon="2.81342">
        <ele>66.7</ele>
        <time>2018-05-19T10:19:48Z</time>
      </trkpt>
      <trkpt lat="43.14517" lon="2.81328">
        <ele>67.2</ele>
        <time>2018-05-19T10:19:53Z</time>
      </trkpt>
      <trkpt lat="43.14517" lon="2.81306">
        <ele>67.4</ele>
        <time>2018-05-19T10:19:58Z</time>
      </trkpt>
      <trkpt lat="43.14519" lon="2.81286">
        <ele>67.6</ele>
        <time>2018-05-19T10:20:03Z</time>
      </trkpt>
      <trkpt lat="43.14521" lon="2.81262">
        <ele>67.8</ele>
        <time>2018-05-19T10:20:08Z</time>
      </trkpt>
      <trkpt lat="43.14524" lon="2.81246">
        <ele>69.3</ele>
        <time>2018-05-19T10:20:13Z</time>
      </trkpt>
      <trkpt lat="43.14527" lon="2.8123">
        <ele>69.6</ele>
        <time>2018-05-19T10:20:18Z</time>
      </trkpt>
      <trkpt lat="43.14526" lon="2.81215">
        <ele>70</ele>
        <time>2018-05-19T10:20:23Z</time>
      </trkpt>
      <trkpt lat="43.14524" lon="2.81198">
        <ele>70.3</ele>
        <time>2018-05-19T10:20:28Z</time>
      </trkpt>
      <trkpt lat="43.1452" lon="2.81184">
        <ele>70.5</ele>
        <time>2018-05-19T10:20:33Z</time>
      </trkpt>
      <trkpt lat="43.1452" lon="2.81184">
        <ele>70.5</ele>
        <time>2018-05-19T10:20:38Z</time>
      </trkpt>
      <trkpt lat="43.1452" lon="2.81184">
        <ele>70.5</ele>
        <time>2018-05-19T10:20:43Z</time>
      </trkpt>
      <trkpt lat="43.14524" lon="2.81187">
        <ele>70.5</ele>
        <time>2018-05-19T10:20:48Z</time>
      </trkpt>
      <trkpt lat="43.14524" lon="2.81187">
        <ele>70.5</ele>
        <time>2018-05-19T10:20:53Z</time>
      </trkpt>
      <trkpt lat="43.14524" lon="2.81187">
        <ele>70.5</ele>
        <time>2018-05-19T10:20:58Z</time>
      </trkpt>
      <trkpt lat="43.14524" lon="2.81187">
        <ele>70.5</ele>
        <time>2018-05-19T10:21:03Z</time>
      </trkpt>
      <trkpt lat="43.14524" lon="2.81187">
        <ele>70.5</ele>
        <time>2018-05-19T10:21:08Z</time>
      </trkpt>
      <trkpt lat="43.14527" lon="2.81183">
        <ele>70.6</ele>
        <time>2018-05-19T10:21:18Z</time>
      </trkpt>
      <trkpt lat="43.14527" lon="2.81176">
        <ele>70.7</ele>
        <time>2018-05-19T10:21:23Z</time>
      </trkpt>
      <trkpt lat="43.14527" lon="2.81176">
        <ele>70.7</ele>
        <time>2018-05-19T10:21:28Z</time>
      </trkpt>
      <trkpt lat="43.14527" lon="2.81176">
        <ele>70.7</ele>
        <time>2018-05-19T10:21:33Z</time>
      </trkpt>
      <trkpt lat="43.14527" lon="2.81176">
        <ele>70.7</ele>
        <time>2018-05-19T10:21:38Z</time>
      </trkpt>
      <trkpt lat="43.14531" lon="2.8118">
        <ele>70.7</ele>
        <time>2018-05-19T10:21:43Z</time>
      </trkpt>
      <trkpt lat="43.14531" lon="2.8118">
        <ele>70.7</ele>
        <time>2018-05-19T10:21:48Z</time>
      </trkpt>
      <trkpt lat="43.14531" lon="2.8118">
        <ele>70.7</ele>
        <time>2018-05-19T10:21:53Z</time>
      </trkpt>
      <trkpt lat="43.14531" lon="2.8118">
        <ele>70.7</ele>
        <time>2018-05-19T10:21:58Z</time>
      </trkpt>
      <trkpt lat="43.14531" lon="2.8118">
        <ele>70.7</ele>
        <time>2018-05-19T10:22:03Z</time>
      </trkpt>
      <trkpt lat="43.14528" lon="2.81186">
        <ele>70.6</ele>
        <time>2018-05-19T10:23:03Z</time>
      </trkpt>
      <trkpt lat="43.14525" lon="2.81191">
        <ele>70.5</ele>
        <time>2018-05-19T10:23:08Z</time>
      </trkpt>
      <trkpt lat="43.14525" lon="2.81191">
        <ele>70.5</ele>
        <time>2018-05-19T10:23:13Z</time>
      </trkpt>
      <trkpt lat="43.14525" lon="2.81191">
        <ele>70.5</ele>
        <time>2018-05-19T10:23:18Z</time>
      </trkpt>
      <trkpt lat="43.14525" lon="2.81191">
        <ele>70.5</ele>
        <time>2018-05-19T10:23:23Z</time>
      </trkpt>
      <trkpt lat="43.1453" lon="2.81188">
        <ele>70.5</ele>
        <time>2018-05-19T10:23:28Z</time>
      </trkpt>
      <trkpt lat="43.1453" lon="2.81188">
        <ele>70.5</ele>
        <time>2018-05-19T10:23:33Z</time>
      </trkpt>
      <trkpt lat="43.14531" lon="2.81181">
        <ele>70.6</ele>
        <time>2018-05-19T10:23:38Z</time>
      </trkpt>
      <trkpt lat="43.14531" lon="2.81181">
        <ele>70.6</ele>
        <time>2018-05-19T10:23:43Z</time>
      </trkpt>
      <trkpt lat="43.14531" lon="2.81181">
        <ele>70.6</ele>
        <time>2018-05-19T10:23:48Z</time>
      </trkpt>
      <trkpt lat="43.14531" lon="2.81181">
        <ele>70.6</ele>
        <time>2018-05-19T10:23:53Z</time>
      </trkpt>
      <trkpt lat="43.14526" lon="2.81181">
        <ele>70.6</ele>
        <time>2018-05-19T10:23:58Z</time>
      </trkpt>
      <trkpt lat="43.14526" lon="2.81181">
        <ele>70.6</ele>
        <time>2018-05-19T10:24:03Z</time>
      </trkpt>
      <trkpt lat="43.14526" lon="2.81181">
        <ele>70.6</ele>
        <time>2018-05-19T10:24:08Z</time>
      </trkpt>
      <trkpt lat="43.14526" lon="2.81181">
        <ele>70.6</ele>
        <time>2018-05-19T10:24:13Z</time>
      </trkpt>
      <trkpt lat="43.14526" lon="2.81181">
        <ele>70.6</ele>
        <time>2018-05-19T10:24:18Z</time>
      </trkpt>
      <trkpt lat="43.14527" lon="2.81175">
        <ele>70.7</ele>
        <time>2018-05-19T10:25:33Z</time>
      </trkpt>
      <trkpt lat="43.14527" lon="2.81175">
        <ele>70.7</ele>
        <time>2018-05-19T10:25:38Z</time>
      </trkpt>
      <trkpt lat="43.14527" lon="2.81175">
        <ele>70.7</ele>
        <time>2018-05-19T10:25:43Z</time>
      </trkpt>
      <trkpt lat="43.14522" lon="2.81174">
        <ele>70.7</ele>
        <time>2018-05-19T10:25:48Z</time>
      </trkpt>
      <trkpt lat="43.14522" lon="2.81174">
        <ele>70.7</ele>
        <time>2018-05-19T10:25:53Z</time>
      </trkpt>
      <trkpt lat="43.14522" lon="2.81174">
        <ele>70.7</ele>
        <time>2018-05-19T10:25:58Z</time>
      </trkpt>
      <trkpt lat="43.14522" lon="2.81174">
        <ele>70.7</ele>
        <time>2018-05-19T10:26:03Z</time>
      </trkpt>
      <trkpt lat="43.14522" lon="2.81174">
        <ele>70.7</ele>
        <time>2018-05-19T10:26:08Z</time>
      </trkpt>
      <trkpt lat="43.14521" lon="2.81167">
        <ele>70.7</ele>
        <time>2018-05-19T10:26:53Z</time>
      </trkpt>
      <trkpt lat="43.14518" lon="2.81153">
        <ele>72.3</ele>
        <time>2018-05-19T10:26:58Z</time>
      </trkpt>
      <trkpt lat="43.14515" lon="2.81138">
        <ele>72.5</ele>
        <time>2018-05-19T10:27:03Z</time>
      </trkpt>
      <trkpt lat="43.14511" lon="2.81118">
        <ele>72.8</ele>
        <time>2018-05-19T10:27:08Z</time>
      </trkpt>
      <trkpt lat="43.14509" lon="2.81104">
        <ele>72.7</ele>
        <time>2018-05-19T10:27:13Z</time>
      </trkpt>
      <trkpt lat="43.14506" lon="2.8108">
        <ele>73</ele>
        <time>2018-05-19T10:27:18Z</time>
      </trkpt>
      <trkpt lat="43.14501" lon="2.81065">
        <ele>74.2</ele>
        <time>2018-05-19T10:27:23Z</time>
      </trkpt>
      <trkpt lat="43.14496" lon="2.81046">
        <ele>73.1</ele>
        <time>2018-05-19T10:27:27Z</time>
      </trkpt>
      <trkpt lat="43.14495" lon="2.81032">
        <ele>73.5</ele>
        <time>2018-05-19T10:27:33Z</time>
      </trkpt>
      <trkpt lat="43.14491" lon="2.8101">
        <ele>74.6</ele>
        <time>2018-05-19T10:27:38Z</time>
      </trkpt>
      <trkpt lat="43.14488" lon="2.80997">
        <ele>75.4</ele>
        <time>2018-05-19T10:27:43Z</time>
      </trkpt>
      <trkpt lat="43.14487" lon="2.80977">
        <ele>75.1</ele>
        <time>2018-05-19T10:27:48Z</time>
      </trkpt>
      <trkpt lat="43.14484" lon="2.80965">
        <ele>75</ele>
        <time>2018-05-19T10:27:53Z</time>
      </trkpt>
      <trkpt lat="43.14481" lon="2.80945">
        <ele>75.2</ele>
        <time>2018-05-19T10:27:58Z</time>
      </trkpt>
      <trkpt lat="43.1448" lon="2.8093">
        <ele>75.4</ele>
        <time>2018-05-19T10:28:03Z</time>
      </trkpt>
      <trkpt lat="43.14479" lon="2.80906">
        <ele>76</ele>
        <time>2018-05-19T10:28:08Z</time>
      </trkpt>
      <trkpt lat="43.14479" lon="2.80889">
        <ele>75.9</ele>
        <time>2018-05-19T10:28:13Z</time>
      </trkpt>
      <trkpt lat="43.14479" lon="2.80861">
        <ele>76.1</ele>
        <time>2018-05-19T10:28:18Z</time>
      </trkpt>
      <trkpt lat="43.14482" lon="2.80844">
        <ele>76.6</ele>
        <time>2018-05-19T10:28:23Z</time>
      </trkpt>
      <trkpt lat="43.14489" lon="2.8082">
        <ele>77.6</ele>
        <time>2018-05-19T10:28:28Z</time>
      </trkpt>
      <trkpt lat="43.14492" lon="2.80802">
        <ele>77.6</ele>
        <time>2018-05-19T10:28:33Z</time>
      </trkpt>
      <trkpt lat="43.14499" lon="2.80778">
        <ele>77.9</ele>
        <time>2018-05-19T10:28:38Z</time>
      </trkpt>
      <trkpt lat="43.14504" lon="2.80762">
        <ele>80.4</ele>
        <time>2018-05-19T10:28:43Z</time>
      </trkpt>
      <trkpt lat="43.14509" lon="2.8074">
        <ele>81.8</ele>
        <time>2018-05-19T10:28:48Z</time>
      </trkpt>
      <trkpt lat="43.14513" lon="2.80724">
        <ele>83.5</ele>
        <time>2018-05-19T10:28:53Z</time>
      </trkpt>
      <trkpt lat="43.14519" lon="2.80699">
        <ele>84.4</ele>
        <time>2018-05-19T10:28:58Z</time>
      </trkpt>
      <trkpt lat="43.14522" lon="2.80682">
        <ele>84.3</ele>
        <time>2018-05-19T10:29:03Z</time>
      </trkpt>
      <trkpt lat="43.14526" lon="2.8066">
        <ele>84.5</ele>
        <time>2018-05-19T10:29:08Z</time>
      </trkpt>
      <trkpt lat="43.1453" lon="2.80649">
        <ele>85.2</ele>
        <time>2018-05-19T10:29:13Z</time>
      </trkpt>
      <trkpt lat="43.14536" lon="2.80627">
        <ele>85.6</ele>
        <time>2018-05-19T10:29:18Z</time>
      </trkpt>
      <trkpt lat="43.14539" lon="2.80612">
        <ele>85.6</ele>
        <time>2018-05-19T10:29:23Z</time>
      </trkpt>
      <trkpt lat="43.14543" lon="2.80588">
        <ele>85.5</ele>
        <time>2018-05-19T10:29:28Z</time>
      </trkpt>
      <trkpt lat="43.14547" lon="2.80571">
        <ele>83.8</ele>
        <time>2018-05-19T10:29:33Z</time>
      </trkpt>
      <trkpt lat="43.14557" lon="2.80552">
        <ele>83.9</ele>
        <time>2018-05-19T10:29:38Z</time>
      </trkpt>
      <trkpt lat="43.14567" lon="2.80539">
        <ele>83.7</ele>
        <time>2018-05-19T10:29:43Z</time>
      </trkpt>
      <trkpt lat="43.14577" lon="2.80519">
        <ele>83.3</ele>
        <time>2018-05-19T10:29:48Z</time>
      </trkpt>
      <trkpt lat="43.14585" lon="2.80506">
        <ele>84.6</ele>
        <time>2018-05-19T10:29:53Z</time>
      </trkpt>
      <trkpt lat="43.146" lon="2.80488">
        <ele>84.1</ele>
        <time>2018-05-19T10:29:58Z</time>
      </trkpt>
      <trkpt lat="43.14609" lon="2.80475">
        <ele>84.5</ele>
        <time>2018-05-19T10:30:03Z</time>
      </trkpt>
      <trkpt lat="43.14623" lon="2.80457">
        <ele>84.7</ele>
        <time>2018-05-19T10:30:08Z</time>
      </trkpt>
      <trkpt lat="43.14633" lon="2.80446">
        <ele>84.8</ele>
        <time>2018-05-19T10:30:13Z</time>
      </trkpt>
      <trkpt lat="43.14646" lon="2.80429">
        <ele>84.8</ele>
        <time>2018-05-19T10:30:18Z</time>
      </trkpt>
      <trkpt lat="43.14653" lon="2.8042">
        <ele>84.9</ele>
        <time>2018-05-19T10:30:23Z</time>
      </trkpt>
      <trkpt lat="43.14666" lon="2.804">
        <ele>84.5</ele>
        <time>2018-05-19T10:30:28Z</time>
      </trkpt>
      <trkpt lat="43.14673" lon="2.80382">
        <ele>84.2</ele>
        <time>2018-05-19T10:30:33Z</time>
      </trkpt>
      <trkpt lat="43.14683" lon="2.80357">
        <ele>84</ele>
        <time>2018-05-19T10:30:38Z</time>
      </trkpt>
      <trkpt lat="43.14693" lon="2.8034">
        <ele>83.9</ele>
        <time>2018-05-19T10:30:43Z</time>
      </trkpt>
      <trkpt lat="43.14713" lon="2.80327">
        <ele>85.2</ele>
        <time>2018-05-19T10:30:48Z</time>
      </trkpt>
      <trkpt lat="43.14727" lon="2.80322">
        <ele>85</ele>
        <time>2018-05-19T10:30:53Z</time>
      </trkpt>
      <trkpt lat="43.14747" lon="2.80315">
        <ele>84.8</ele>
        <time>2018-05-19T10:30:58Z</time>
      </trkpt>
      <trkpt lat="43.14763" lon="2.80312">
        <ele>84.1</ele>
        <time>2018-05-19T10:31:03Z</time>
      </trkpt>
      <trkpt lat="43.14791" lon="2.80304">
        <ele>84</ele>
        <time>2018-05-19T10:31:08Z</time>
      </trkpt>
      <trkpt lat="43.14819" lon="2.80298">
        <ele>83.7</ele>
        <time>2018-05-19T10:31:13Z</time>
      </trkpt>
      <trkpt lat="43.14846" lon="2.80291">
        <ele>82.2</ele>
        <time>2018-05-19T10:31:18Z</time>
      </trkpt>
      <trkpt lat="43.14871" lon="2.80283">
        <ele>82.1</ele>
        <time>2018-05-19T10:31:23Z</time>
      </trkpt>
      <trkpt lat="43.14891" lon="2.80274">
        <ele>82</ele>
        <time>2018-05-19T10:31:28Z</time>
      </trkpt>
      <trkpt lat="43.14915" lon="2.80247">
        <ele>82.7</ele>
        <time>2018-05-19T10:31:33Z</time>
      </trkpt>
      <trkpt lat="43.14923" lon="2.80223">
        <ele>82.1</ele>
        <time>2018-05-19T10:31:38Z</time>
      </trkpt>
      <trkpt lat="43.14932" lon="2.80194">
        <ele>82.6</ele>
        <time>2018-05-19T10:31:43Z</time>
      </trkpt>
      <trkpt lat="43.14938" lon="2.80165">
        <ele>82.7</ele>
        <time>2018-05-19T10:31:48Z</time>
      </trkpt>
      <trkpt lat="43.1494" lon="2.80137">
        <ele>81.8</ele>
        <time>2018-05-19T10:31:53Z</time>
      </trkpt>
      <trkpt lat="43.14944" lon="2.80105">
        <ele>81.1</ele>
        <time>2018-05-19T10:31:58Z</time>
      </trkpt>
      <trkpt lat="43.14946" lon="2.80082">
        <ele>80.6</ele>
        <time>2018-05-19T10:32:03Z</time>
      </trkpt>
      <trkpt lat="43.14954" lon="2.80052">
        <ele>80.5</ele>
        <time>2018-05-19T10:32:08Z</time>
      </trkpt>
      <trkpt lat="43.14955" lon="2.80036">
        <ele>80.6</ele>
        <time>2018-05-19T10:32:13Z</time>
      </trkpt>
      <trkpt lat="43.14958" lon="2.80014">
        <ele>80.8</ele>
        <time>2018-05-19T10:32:18Z</time>
      </trkpt>
      <trkpt lat="43.14959" lon="2.8">
        <ele>82.4</ele>
        <time>2018-05-19T10:32:23Z</time>
      </trkpt>
      <trkpt lat="43.14961" lon="2.79976">
        <ele>82.7</ele>
        <time>2018-05-19T10:32:28Z</time>
      </trkpt>
      <trkpt lat="43.14962" lon="2.79963">
        <ele>82.9</ele>
        <time>2018-05-19T10:32:33Z</time>
      </trkpt>
      <trkpt lat="43.14963" lon="2.79942">
        <ele>83.3</ele>
        <time>2018-05-19T10:32:38Z</time>
      </trkpt>
      <trkpt lat="43.14965" lon="2.79927">
        <ele>83.4</ele>
        <time>2018-05-19T10:32:43Z</time>
      </trkpt>
      <trkpt lat="43.14963" lon="2.799">
        <ele>85.5</ele>
        <time>2018-05-19T10:32:48Z</time>
      </trkpt>
      <trkpt lat="43.14964" lon="2.79886">
        <ele>85.8</ele>
        <time>2018-05-19T10:32:53Z</time>
      </trkpt>
      <trkpt lat="43.14965" lon="2.79869">
        <ele>86</ele>
        <time>2018-05-19T10:32:58Z</time>
      </trkpt>
      <trkpt lat="43.14965" lon="2.79854">
        <ele>86.2</ele>
        <time>2018-05-19T10:33:03Z</time>
      </trkpt>
      <trkpt lat="43.14964" lon="2.7983">
        <ele>87.3</ele>
        <time>2018-05-19T10:33:08Z</time>
      </trkpt>
      <trkpt lat="43.14964" lon="2.79814">
        <ele>87.4</ele>
        <time>2018-05-19T10:33:13Z</time>
      </trkpt>
      <trkpt lat="43.14964" lon="2.79787">
        <ele>87.4</ele>
        <time>2018-05-19T10:33:18Z</time>
      </trkpt>
      <trkpt lat="43.14963" lon="2.79767">
        <ele>87.4</ele>
        <time>2018-05-19T10:33:23Z</time>
      </trkpt>
      <trkpt lat="43.14961" lon="2.79737">
        <ele>86.4</ele>
        <time>2018-05-19T10:33:28Z</time>
      </trkpt>
      <trkpt lat="43.1496" lon="2.79715">
        <ele>86.1</ele>
        <time>2018-05-19T10:33:33Z</time>
      </trkpt>
      <trkpt lat="43.14956" lon="2.79679">
        <ele>85.6</ele>
        <time>2018-05-19T10:33:38Z</time>
      </trkpt>
      <trkpt lat="43.14949" lon="2.79651">
        <ele>83.5</ele>
        <time>2018-05-19T10:33:43Z</time>
      </trkpt>
      <trkpt lat="43.1494" lon="2.79618">
        <ele>83</ele>
        <time>2018-05-19T10:33:48Z</time>
      </trkpt>
      <trkpt lat="43.14931" lon="2.79589">
        <ele>83.6</ele>
        <time>2018-05-19T10:33:53Z</time>
      </trkpt>
      <trkpt lat="43.14927" lon="2.7957">
        <ele>81.5</ele>
        <time>2018-05-19T10:33:58Z</time>
      </trkpt>
      <trkpt lat="43.14923" lon="2.79549">
        <ele>79.8</ele>
        <time>2018-05-19T10:34:03Z</time>
      </trkpt>
      <trkpt lat="43.14919" lon="2.79537">
        <ele>79.3</ele>
        <time>2018-05-19T10:34:08Z</time>
      </trkpt>
      <trkpt lat="43.14909" lon="2.79514">
        <ele>82.5</ele>
        <time>2018-05-19T10:34:13Z</time>
      </trkpt>
      <trkpt lat="43.149" lon="2.79497">
        <ele>80.8</ele>
        <time>2018-05-19T10:34:18Z</time>
      </trkpt>
      <trkpt lat="43.14885" lon="2.79473">
        <ele>81.8</ele>
        <time>2018-05-19T10:34:23Z</time>
      </trkpt>
      <trkpt lat="43.14872" lon="2.79448">
        <ele>81.8</ele>
        <time>2018-05-19T10:34:28Z</time>
      </trkpt>
      <trkpt lat="43.14861" lon="2.79425">
        <ele>81.7</ele>
        <time>2018-05-19T10:34:33Z</time>
      </trkpt>
      <trkpt lat="43.14856" lon="2.79422">
        <ele>81.8</ele>
        <time>2018-05-19T10:34:38Z</time>
      </trkpt>
      <trkpt lat="43.14856" lon="2.79422">
        <ele>81.8</ele>
        <time>2018-05-19T10:34:43Z</time>
      </trkpt>
      <trkpt lat="43.14844" lon="2.79411">
        <ele>80.7</ele>
        <time>2018-05-19T10:54:28Z</time>
      </trkpt>
      <trkpt lat="43.14842" lon="2.79409">
        <ele>80.7</ele>
        <time>2018-05-19T10:56:48Z</time>
      </trkpt>
      <trkpt lat="43.14849" lon="2.79403">
        <ele>80</ele>
        <time>2018-05-19T11:14:53Z</time>
      </trkpt>
      <trkpt lat="43.14854" lon="2.79389">
        <ele>79.3</ele>
        <time>2018-05-19T11:14:58Z</time>
      </trkpt>
      <trkpt lat="43.14857" lon="2.79373">
        <ele>78.9</ele>
        <time>2018-05-19T11:15:03Z</time>
      </trkpt>
      <trkpt lat="43.14858" lon="2.79358">
        <ele>78.7</ele>
        <time>2018-05-19T11:15:08Z</time>
      </trkpt>
      <trkpt lat="43.14856" lon="2.79329">
        <ele>78.5</ele>
        <time>2018-05-19T11:15:13Z</time>
      </trkpt>
      <trkpt lat="43.14854" lon="2.79306">
        <ele>78.6</ele>
        <time>2018-05-19T11:15:18Z</time>
      </trkpt>
      <trkpt lat="43.14855" lon="2.79271">
        <ele>79.3</ele>
        <time>2018-05-19T11:15:23Z</time>
      </trkpt>
      <trkpt lat="43.14856" lon="2.79247">
        <ele>80.3</ele>
        <time>2018-05-19T11:15:27Z</time>
      </trkpt>
      <trkpt lat="43.1485" lon="2.79216">
        <ele>80.3</ele>
        <time>2018-05-19T11:15:33Z</time>
      </trkpt>
      <trkpt lat="43.14846" lon="2.79199">
        <ele>80.6</ele>
        <time>2018-05-19T11:15:38Z</time>
      </trkpt>
      <trkpt lat="43.14835" lon="2.79178">
        <ele>81.8</ele>
        <time>2018-05-19T11:15:43Z</time>
      </trkpt>
      <trkpt lat="43.1482" lon="2.79156">
        <ele>85.2</ele>
        <time>2018-05-19T11:15:48Z</time>
      </trkpt>
      <trkpt lat="43.14816" lon="2.79142">
        <ele>86.1</ele>
        <time>2018-05-19T11:15:53Z</time>
      </trkpt>
      <trkpt lat="43.1481" lon="2.79125">
        <ele>86.8</ele>
        <time>2018-05-19T11:15:58Z</time>
      </trkpt>
      <trkpt lat="43.14801" lon="2.79117">
        <ele>87.2</ele>
        <time>2018-05-19T11:16:03Z</time>
      </trkpt>
      <trkpt lat="43.14802" lon="2.79102">
        <ele>87.3</ele>
        <time>2018-05-19T11:16:08Z</time>
      </trkpt>
      <trkpt lat="43.14807" lon="2.79089">
        <ele>87</ele>
        <time>2018-05-19T11:16:13Z</time>
      </trkpt>
      <trkpt lat="43.14812" lon="2.79076">
        <ele>88.3</ele>
        <time>2018-05-19T11:16:18Z</time>
      </trkpt>
      <trkpt lat="43.14814" lon="2.7907">
        <ele>88.3</ele>
        <time>2018-05-19T11:16:23Z</time>
      </trkpt>
      <trkpt lat="43.14816" lon="2.79063">
        <ele>88.5</ele>
        <time>2018-05-19T11:16:28Z</time>
      </trkpt>
      <trkpt lat="43.14823" lon="2.79049">
        <ele>88.9</ele>
        <time>2018-05-19T11:16:33Z</time>
      </trkpt>
      <trkpt lat="43.14827" lon="2.7903">
        <ele>89.4</ele>
        <time>2018-05-19T11:16:38Z</time>
      </trkpt>
      <trkpt lat="43.14828" lon="2.79021">
        <ele>89.4</ele>
        <time>2018-05-19T11:16:43Z</time>
      </trkpt>
      <trkpt lat="43.14829" lon="2.79007">
        <ele>89.3</ele>
        <time>2018-05-19T11:16:48Z</time>
      </trkpt>
      <trkpt lat="43.14824" lon="2.78992">
        <ele>89.9</ele>
        <time>2018-05-19T11:16:53Z</time>
      </trkpt>
      <trkpt lat="43.1482" lon="2.7897">
        <ele>90.4</ele>
        <time>2018-05-19T11:16:58Z</time>
      </trkpt>
      <trkpt lat="43.14822" lon="2.78956">
        <ele>90.4</ele>
        <time>2018-05-19T11:17:03Z</time>
      </trkpt>
      <trkpt lat="43.14831" lon="2.78935">
        <ele>89.6</ele>
        <time>2018-05-19T11:17:08Z</time>
      </trkpt>
      <trkpt lat="43.14838" lon="2.7892">
        <ele>87</ele>
        <time>2018-05-19T11:17:13Z</time>
      </trkpt>
      <trkpt lat="43.1485" lon="2.78896">
        <ele>85.9</ele>
        <time>2018-05-19T11:17:18Z</time>
      </trkpt>
      <trkpt lat="43.14855" lon="2.7888">
        <ele>85.7</ele>
        <time>2018-05-19T11:17:23Z</time>
      </trkpt>
      <trkpt lat="43.14859" lon="2.78857">
        <ele>85.9</ele>
        <time>2018-05-19T11:17:28Z</time>
      </trkpt>
      <trkpt lat="43.1486" lon="2.78843">
        <ele>86.3</ele>
        <time>2018-05-19T11:17:33Z</time>
      </trkpt>
      <trkpt lat="43.1486" lon="2.78829">
        <ele>87.9</ele>
        <time>2018-05-19T11:17:38Z</time>
      </trkpt>
      <trkpt lat="43.14861" lon="2.78815">
        <ele>87.9</ele>
        <time>2018-05-19T11:17:43Z</time>
      </trkpt>
      <trkpt lat="43.14862" lon="2.78798">
        <ele>88</ele>
        <time>2018-05-19T11:17:48Z</time>
      </trkpt>
      <trkpt lat="43.14861" lon="2.78784">
        <ele>88.2</ele>
        <time>2018-05-19T11:17:53Z</time>
      </trkpt>
      <trkpt lat="43.14854" lon="2.78763">
        <ele>89.2</ele>
        <time>2018-05-19T11:17:58Z</time>
      </trkpt>
      <trkpt lat="43.14851" lon="2.78749">
        <ele>91.8</ele>
        <time>2018-05-19T11:18:03Z</time>
      </trkpt>
      <trkpt lat="43.14854" lon="2.78737">
        <ele>91.9</ele>
        <time>2018-05-19T11:18:08Z</time>
      </trkpt>
      <trkpt lat="43.14857" lon="2.78722">
        <ele>92.2</ele>
        <time>2018-05-19T11:18:13Z</time>
      </trkpt>
      <trkpt lat="43.14864" lon="2.78701">
        <ele>92.7</ele>
        <time>2018-05-19T11:18:18Z</time>
      </trkpt>
      <trkpt lat="43.14867" lon="2.78687">
        <ele>93.2</ele>
        <time>2018-05-19T11:18:23Z</time>
      </trkpt>
      <trkpt lat="43.14868" lon="2.78674">
        <ele>93.6</ele>
        <time>2018-05-19T11:18:28Z</time>
      </trkpt>
      <trkpt lat="43.14869" lon="2.78657">
        <ele>96.9</ele>
        <time>2018-05-19T11:18:33Z</time>
      </trkpt>
      <trkpt lat="43.14868" lon="2.78641">
        <ele>97.3</ele>
        <time>2018-05-19T11:18:38Z</time>
      </trkpt>
      <trkpt lat="43.14867" lon="2.78629">
        <ele>97.6</ele>
        <time>2018-05-19T11:18:43Z</time>
      </trkpt>
      <trkpt lat="43.14866" lon="2.78609">
        <ele>98.3</ele>
        <time>2018-05-19T11:18:48Z</time>
      </trkpt>
      <trkpt lat="43.14867" lon="2.78594">
        <ele>98.8</ele>
        <time>2018-05-19T11:18:53Z</time>
      </trkpt>
      <trkpt lat="43.14865" lon="2.78581">
        <ele>101.9</ele>
        <time>2018-05-19T11:18:58Z</time>
      </trkpt>
      <trkpt lat="43.14863" lon="2.78566">
        <ele>102.1</ele>
        <time>2018-05-19T11:19:03Z</time>
      </trkpt>
      <trkpt lat="43.14862" lon="2.78551">
        <ele>102.4</ele>
        <time>2018-05-19T11:19:08Z</time>
      </trkpt>
      <trkpt lat="43.14862" lon="2.78534">
        <ele>103</ele>
        <time>2018-05-19T11:19:13Z</time>
      </trkpt>
      <trkpt lat="43.14863" lon="2.78526">
        <ele>103.3</ele>
        <time>2018-05-19T11:19:18Z</time>
      </trkpt>
      <trkpt lat="43.14863" lon="2.7851">
        <ele>103.9</ele>
        <time>2018-05-19T11:19:23Z</time>
      </trkpt>
      <trkpt lat="43.14861" lon="2.78496">
        <ele>107.8</ele>
        <time>2018-05-19T11:19:28Z</time>
      </trkpt>
      <trkpt lat="43.14858" lon="2.78483">
        <ele>108.1</ele>
        <time>2018-05-19T11:19:33Z</time>
      </trkpt>
      <trkpt lat="43.14858" lon="2.78469">
        <ele>108.3</ele>
        <time>2018-05-19T11:19:38Z</time>
      </trkpt>
      <trkpt lat="43.14859" lon="2.7846">
        <ele>108.4</ele>
        <time>2018-05-19T11:19:43Z</time>
      </trkpt>
      <trkpt lat="43.14861" lon="2.78446">
        <ele>108.9</ele>
        <time>2018-05-19T11:19:48Z</time>
      </trkpt>
      <trkpt lat="43.14865" lon="2.7843">
        <ele>109.4</ele>
        <time>2018-05-19T11:19:53Z</time>
      </trkpt>
      <trkpt lat="43.14865" lon="2.78423">
        <ele>109.6</ele>
        <time>2018-05-19T11:19:58Z</time>
      </trkpt>
      <trkpt lat="43.14865" lon="2.78402">
        <ele>112.4</ele>
        <time>2018-05-19T11:20:03Z</time>
      </trkpt>
      <trkpt lat="43.14863" lon="2.78394">
        <ele>112.5</ele>
        <time>2018-05-19T11:20:08Z</time>
      </trkpt>
      <trkpt lat="43.14863" lon="2.78381">
        <ele>112.5</ele>
        <time>2018-05-19T11:20:13Z</time>
      </trkpt>
      <trkpt lat="43.14861" lon="2.78375">
        <ele>112.6</ele>
        <time>2018-05-19T11:20:18Z</time>
      </trkpt>
      <trkpt lat="43.14858" lon="2.78361">
        <ele>112.8</ele>
        <time>2018-05-19T11:20:23Z</time>
      </trkpt>
      <trkpt lat="43.14858" lon="2.78353">
        <ele>112.9</ele>
        <time>2018-05-19T11:20:28Z</time>
      </trkpt>
      <trkpt lat="43.14855" lon="2.78341">
        <ele>113.1</ele>
        <time>2018-05-19T11:20:33Z</time>
      </trkpt>
      <trkpt lat="43.14854" lon="2.78333">
        <ele>114.2</ele>
        <time>2018-05-19T11:20:38Z</time>
      </trkpt>
      <trkpt lat="43.14852" lon="2.78326">
        <ele>114.2</ele>
        <time>2018-05-19T11:20:43Z</time>
      </trkpt>
      <trkpt lat="43.14852" lon="2.78312">
        <ele>114.3</ele>
        <time>2018-05-19T11:20:48Z</time>
      </trkpt>
      <trkpt lat="43.14853" lon="2.78304">
        <ele>114.4</ele>
        <time>2018-05-19T11:20:53Z</time>
      </trkpt>
      <trkpt lat="43.14856" lon="2.7829">
        <ele>114.5</ele>
        <time>2018-05-19T11:20:58Z</time>
      </trkpt>
      <trkpt lat="43.14856" lon="2.78276">
        <ele>114.7</ele>
        <time>2018-05-19T11:21:03Z</time>
      </trkpt>
      <trkpt lat="43.14855" lon="2.78268">
        <ele>114.7</ele>
        <time>2018-05-19T11:21:08Z</time>
      </trkpt>
      <trkpt lat="43.14855" lon="2.78254">
        <ele>114.8</ele>
        <time>2018-05-19T11:21:12Z</time>
      </trkpt>
      <trkpt lat="43.14853" lon="2.78241">
        <ele>116.3</ele>
        <time>2018-05-19T11:21:18Z</time>
      </trkpt>
      <trkpt lat="43.14853" lon="2.78234">
        <ele>116.4</ele>
        <time>2018-05-19T11:21:23Z</time>
      </trkpt>
      <trkpt lat="43.14853" lon="2.78219">
        <ele>116.8</ele>
        <time>2018-05-19T11:21:28Z</time>
      </trkpt>
      <trkpt lat="43.14851" lon="2.78205">
        <ele>117.1</ele>
        <time>2018-05-19T11:21:33Z</time>
      </trkpt>
      <trkpt lat="43.1485" lon="2.78198">
        <ele>117.3</ele>
        <time>2018-05-19T11:21:38Z</time>
      </trkpt>
      <trkpt lat="43.14848" lon="2.78183">
        <ele>117.6</ele>
        <time>2018-05-19T11:21:43Z</time>
      </trkpt>
      <trkpt lat="43.14847" lon="2.78169">
        <ele>117.8</ele>
        <time>2018-05-19T11:21:48Z</time>
      </trkpt>
      <trkpt lat="43.14846" lon="2.78162">
        <ele>119.1</ele>
        <time>2018-05-19T11:21:53Z</time>
      </trkpt>
      <trkpt lat="43.14846" lon="2.78147">
        <ele>119.7</ele>
        <time>2018-05-19T11:21:57Z</time>
      </trkpt>
      <trkpt lat="43.14845" lon="2.78132">
        <ele>120.3</ele>
        <time>2018-05-19T11:22:03Z</time>
      </trkpt>
      <trkpt lat="43.14844" lon="2.78125">
        <ele>120.5</ele>
        <time>2018-05-19T11:22:08Z</time>
      </trkpt>
      <trkpt lat="43.14841" lon="2.7811">
        <ele>121</ele>
        <time>2018-05-19T11:22:13Z</time>
      </trkpt>
      <trkpt lat="43.14842" lon="2.78101">
        <ele>121.2</ele>
        <time>2018-05-19T11:22:18Z</time>
      </trkpt>
      <trkpt lat="43.14844" lon="2.78087">
        <ele>121.6</ele>
        <time>2018-05-19T11:22:23Z</time>
      </trkpt>
      <trkpt lat="43.14844" lon="2.78071">
        <ele>122.5</ele>
        <time>2018-05-19T11:22:28Z</time>
      </trkpt>
      <trkpt lat="43.14843" lon="2.78057">
        <ele>122.7</ele>
        <time>2018-05-19T11:22:33Z</time>
      </trkpt>
      <trkpt lat="43.14843" lon="2.78049">
        <ele>122.8</ele>
        <time>2018-05-19T11:22:38Z</time>
      </trkpt>
      <trkpt lat="43.14841" lon="2.78028">
        <ele>122.8</ele>
        <time>2018-05-19T11:22:43Z</time>
      </trkpt>
      <trkpt lat="43.14841" lon="2.78013">
        <ele>122.6</ele>
        <time>2018-05-19T11:22:48Z</time>
      </trkpt>
      <trkpt lat="43.14839" lon="2.78005">
        <ele>122.4</ele>
        <time>2018-05-19T11:22:52Z</time>
      </trkpt>
      <trkpt lat="43.14835" lon="2.7799">
        <ele>122.8</ele>
        <time>2018-05-19T11:22:58Z</time>
      </trkpt>
      <trkpt lat="43.14831" lon="2.77975">
        <ele>124.1</ele>
        <time>2018-05-19T11:23:03Z</time>
      </trkpt>
      <trkpt lat="43.14829" lon="2.77967">
        <ele>124.4</ele>
        <time>2018-05-19T11:23:08Z</time>
      </trkpt>
      <trkpt lat="43.14825" lon="2.77953">
        <ele>124.7</ele>
        <time>2018-05-19T11:23:13Z</time>
      </trkpt>
      <trkpt lat="43.14822" lon="2.77937">
        <ele>124.7</ele>
        <time>2018-05-19T11:23:18Z</time>
      </trkpt>
      <trkpt lat="43.1482" lon="2.7793">
        <ele>124.7</ele>
        <time>2018-05-19T11:23:23Z</time>
      </trkpt>
      <trkpt lat="43.14816" lon="2.77915">
        <ele>124.5</ele>
        <time>2018-05-19T11:23:28Z</time>
      </trkpt>
      <trkpt lat="43.14809" lon="2.779">
        <ele>124.6</ele>
        <time>2018-05-19T11:23:33Z</time>
      </trkpt>
      <trkpt lat="43.14807" lon="2.77893">
        <ele>124.6</ele>
        <time>2018-05-19T11:23:38Z</time>
      </trkpt>
      <trkpt lat="43.14804" lon="2.77878">
        <ele>124.6</ele>
        <time>2018-05-19T11:23:43Z</time>
      </trkpt>
      <trkpt lat="43.14802" lon="2.77871">
        <ele>124.6</ele>
        <time>2018-05-19T11:23:47Z</time>
      </trkpt>
      <trkpt lat="43.14797" lon="2.77859">
        <ele>124.5</ele>
        <time>2018-05-19T11:23:53Z</time>
      </trkpt>
      <trkpt lat="43.14797" lon="2.77859">
        <ele>124.5</ele>
        <time>2018-05-19T11:23:57Z</time>
      </trkpt>
      <trkpt lat="43.14797" lon="2.77859">
        <ele>124.5</ele>
        <time>2018-05-19T11:24:03Z</time>
      </trkpt>
      <trkpt lat="43.14797" lon="2.77859">
        <ele>124.5</ele>
        <time>2018-05-19T11:24:07Z</time>
      </trkpt>
      <trkpt lat="43.14797" lon="2.77859">
        <ele>124.5</ele>
        <time>2018-05-19T11:24:13Z</time>
      </trkpt>
      <trkpt lat="43.14794" lon="2.77855">
        <ele>124.5</ele>
        <time>2018-05-19T11:24:38Z</time>
      </trkpt>
      <trkpt lat="43.14792" lon="2.77838">
        <ele>124.5</ele>
        <time>2018-05-19T11:24:42Z</time>
      </trkpt>
      <trkpt lat="43.14783" lon="2.7781">
        <ele>123.5</ele>
        <time>2018-05-19T11:24:48Z</time>
      </trkpt>
      <trkpt lat="43.14775" lon="2.77783">
        <ele>123.2</ele>
        <time>2018-05-19T11:24:52Z</time>
      </trkpt>
      <trkpt lat="43.14767" lon="2.7775">
        <ele>121.8</ele>
        <time>2018-05-19T11:24:58Z</time>
      </trkpt>
      <trkpt lat="43.14758" lon="2.77714">
        <ele>121.2</ele>
        <time>2018-05-19T11:25:02Z</time>
      </trkpt>
      <trkpt lat="43.14746" lon="2.77677">
        <ele>120.4</ele>
        <time>2018-05-19T11:25:08Z</time>
      </trkpt>
      <trkpt lat="43.14743" lon="2.77646">
        <ele>121</ele>
        <time>2018-05-19T11:25:12Z</time>
      </trkpt>
      <trkpt lat="43.14741" lon="2.77612">
        <ele>121</ele>
        <time>2018-05-19T11:25:18Z</time>
      </trkpt>
      <trkpt lat="43.14739" lon="2.77583">
        <ele>117.7</ele>
        <time>2018-05-19T11:25:23Z</time>
      </trkpt>
      <trkpt lat="43.14731" lon="2.77557">
        <ele>119.1</ele>
        <time>2018-05-19T11:25:28Z</time>
      </trkpt>
      <trkpt lat="43.14718" lon="2.77532">
        <ele>119.4</ele>
        <time>2018-05-19T11:25:33Z</time>
      </trkpt>
      <trkpt lat="43.14709" lon="2.77518">
        <ele>119.8</ele>
        <time>2018-05-19T11:25:37Z</time>
      </trkpt>
      <trkpt lat="43.14698" lon="2.77502">
        <ele>120.7</ele>
        <time>2018-05-19T11:25:43Z</time>
      </trkpt>
      <trkpt lat="43.14691" lon="2.77488">
        <ele>119.2</ele>
        <time>2018-05-19T11:25:47Z</time>
      </trkpt>
      <trkpt lat="43.14677" lon="2.7747">
        <ele>119.3</ele>
        <time>2018-05-19T11:25:53Z</time>
      </trkpt>
      <trkpt lat="43.14661" lon="2.77447">
        <ele>123.5</ele>
        <time>2018-05-19T11:25:58Z</time>
      </trkpt>
      <trkpt lat="43.14644" lon="2.77423">
        <ele>122.8</ele>
        <time>2018-05-19T11:26:03Z</time>
      </trkpt>
      <trkpt lat="43.14633" lon="2.77392">
        <ele>119.7</ele>
        <time>2018-05-19T11:26:07Z</time>
      </trkpt>
      <trkpt lat="43.14628" lon="2.77355">
        <ele>119.3</ele>
        <time>2018-05-19T11:26:13Z</time>
      </trkpt>
      <trkpt lat="43.14625" lon="2.7731">
        <ele>119.7</ele>
        <time>2018-05-19T11:26:18Z</time>
      </trkpt>
      <trkpt lat="43.14623" lon="2.77274">
        <ele>120.2</ele>
        <time>2018-05-19T11:26:23Z</time>
      </trkpt>
      <trkpt lat="43.14588" lon="2.77237">
        <ele>120.1</ele>
        <time>2018-05-19T11:26:28Z</time>
      </trkpt>
      <trkpt lat="43.14557" lon="2.77213">
        <ele>118.3</ele>
        <time>2018-05-19T11:26:33Z</time>
      </trkpt>
      <trkpt lat="43.14539" lon="2.77175">
        <ele>117.7</ele>
        <time>2018-05-19T11:26:38Z</time>
      </trkpt>
      <trkpt lat="43.14534" lon="2.77127">
        <ele>115.5</ele>
        <time>2018-05-19T11:26:42Z</time>
      </trkpt>
      <trkpt lat="43.1453" lon="2.77082">
        <ele>113.2</ele>
        <time>2018-05-19T11:26:48Z</time>
      </trkpt>
      <trkpt lat="43.14528" lon="2.77038">
        <ele>113.2</ele>
        <time>2018-05-19T11:26:53Z</time>
      </trkpt>
      <trkpt lat="43.14527" lon="2.76995">
        <ele>110.4</ele>
        <time>2018-05-19T11:26:58Z</time>
      </trkpt>
      <trkpt lat="43.14527" lon="2.76951">
        <ele>110.2</ele>
        <time>2018-05-19T11:27:02Z</time>
      </trkpt>
      <trkpt lat="43.14524" lon="2.76906">
        <ele>106.4</ele>
        <time>2018-05-19T11:27:08Z</time>
      </trkpt>
      <trkpt lat="43.14526" lon="2.76858">
        <ele>106.6</ele>
        <time>2018-05-19T11:27:12Z</time>
      </trkpt>
      <trkpt lat="43.14527" lon="2.7681">
        <ele>104.3</ele>
        <time>2018-05-19T11:27:18Z</time>
      </trkpt>
      <trkpt lat="43.14531" lon="2.76765">
        <ele>103.8</ele>
        <time>2018-05-19T11:27:23Z</time>
      </trkpt>
      <trkpt lat="43.14536" lon="2.76725">
        <ele>102.6</ele>
        <time>2018-05-19T11:27:28Z</time>
      </trkpt>
      <trkpt lat="43.14543" lon="2.76681">
        <ele>102.6</ele>
        <time>2018-05-19T11:27:33Z</time>
      </trkpt>
      <trkpt lat="43.14542" lon="2.76633">
        <ele>100</ele>
        <time>2018-05-19T11:27:37Z</time>
      </trkpt>
      <trkpt lat="43.1454" lon="2.76586">
        <ele>98.8</ele>
        <time>2018-05-19T11:27:43Z</time>
      </trkpt>
      <trkpt lat="43.14537" lon="2.76534">
        <ele>96.1</ele>
        <time>2018-05-19T11:27:47Z</time>
      </trkpt>
      <trkpt lat="43.14533" lon="2.76487">
        <ele>93.3</ele>
        <time>2018-05-19T11:27:53Z</time>
      </trkpt>
      <trkpt lat="43.14534" lon="2.76443">
        <ele>92.4</ele>
        <time>2018-05-19T11:27:57Z</time>
      </trkpt>
      <trkpt lat="43.14533" lon="2.76401">
        <ele>89.6</ele>
        <time>2018-05-19T11:28:03Z</time>
      </trkpt>
      <trkpt lat="43.14537" lon="2.76354">
        <ele>89.3</ele>
        <time>2018-05-19T11:28:08Z</time>
      </trkpt>
      <trkpt lat="43.14549" lon="2.76323">
        <ele>87.4</ele>
        <time>2018-05-19T11:28:13Z</time>
      </trkpt>
      <trkpt lat="43.14571" lon="2.7629">
        <ele>86.7</ele>
        <time>2018-05-19T11:28:18Z</time>
      </trkpt>
      <trkpt lat="43.14597" lon="2.76257">
        <ele>86.9</ele>
        <time>2018-05-19T11:28:23Z</time>
      </trkpt>
      <trkpt lat="43.14623" lon="2.76227">
        <ele>84.5</ele>
        <time>2018-05-19T11:28:28Z</time>
      </trkpt>
      <trkpt lat="43.14651" lon="2.76211">
        <ele>84.3</ele>
        <time>2018-05-19T11:28:32Z</time>
      </trkpt>
      <trkpt lat="43.14682" lon="2.76206">
        <ele>83.8</ele>
        <time>2018-05-19T11:28:38Z</time>
      </trkpt>
      <trkpt lat="43.14711" lon="2.76202">
        <ele>83.5</ele>
        <time>2018-05-19T11:28:43Z</time>
      </trkpt>
      <trkpt lat="43.14734" lon="2.76199">
        <ele>83.1</ele>
        <time>2018-05-19T11:28:48Z</time>
      </trkpt>
      <trkpt lat="43.14767" lon="2.76199">
        <ele>81.6</ele>
        <time>2018-05-19T11:28:52Z</time>
      </trkpt>
      <trkpt lat="43.14792" lon="2.76212">
        <ele>81.6</ele>
        <time>2018-05-19T11:28:58Z</time>
      </trkpt>
      <trkpt lat="43.14812" lon="2.76233">
        <ele>81.5</ele>
        <time>2018-05-19T11:29:02Z</time>
      </trkpt>
      <trkpt lat="43.14831" lon="2.76258">
        <ele>82.7</ele>
        <time>2018-05-19T11:29:08Z</time>
      </trkpt>
      <trkpt lat="43.14856" lon="2.76262">
        <ele>81.2</ele>
        <time>2018-05-19T11:29:13Z</time>
      </trkpt>
      <trkpt lat="43.14852" lon="2.76259">
        <ele>81.2</ele>
        <time>2018-05-19T11:29:18Z</time>
      </trkpt>
      <trkpt lat="43.14851" lon="2.76266">
        <ele>81.3</ele>
        <time>2018-05-19T11:29:23Z</time>
      </trkpt>
      <trkpt lat="43.14851" lon="2.76266">
        <ele>81.3</ele>
        <time>2018-05-19T11:29:27Z</time>
      </trkpt>
      <trkpt lat="43.14851" lon="2.76266">
        <ele>81.3</ele>
        <time>2018-05-19T11:29:33Z</time>
      </trkpt>
      <trkpt lat="43.14851" lon="2.76266">
        <ele>81.3</ele>
        <time>2018-05-19T11:29:37Z</time>
      </trkpt>
      <trkpt lat="43.14859" lon="2.7627">
        <ele>81.3</ele>
        <time>2018-05-19T11:30:18Z</time>
      </trkpt>
      <trkpt lat="43.14881" lon="2.76262">
        <ele>80.7</ele>
        <time>2018-05-19T11:30:22Z</time>
      </trkpt>
      <trkpt lat="43.14897" lon="2.76256">
        <ele>80.1</ele>
        <time>2018-05-19T11:30:28Z</time>
      </trkpt>
      <trkpt lat="43.14923" lon="2.76247">
        <ele>79.7</ele>
        <time>2018-05-19T11:30:32Z</time>
      </trkpt>
      <trkpt lat="43.14939" lon="2.76241">
        <ele>80.7</ele>
        <time>2018-05-19T11:30:38Z</time>
      </trkpt>
      <trkpt lat="43.14962" lon="2.76234">
        <ele>81.3</ele>
        <time>2018-05-19T11:30:42Z</time>
      </trkpt>
      <trkpt lat="43.14977" lon="2.76235">
        <ele>81.4</ele>
        <time>2018-05-19T11:30:48Z</time>
      </trkpt>
      <trkpt lat="43.15006" lon="2.76241">
        <ele>81</ele>
        <time>2018-05-19T11:30:53Z</time>
      </trkpt>
      <trkpt lat="43.15033" lon="2.76245">
        <ele>80.8</ele>
        <time>2018-05-19T11:30:58Z</time>
      </trkpt>
      <trkpt lat="43.15063" lon="2.7625">
        <ele>80.1</ele>
        <time>2018-05-19T11:31:03Z</time>
      </trkpt>
      <trkpt lat="43.15092" lon="2.76257">
        <ele>78.7</ele>
        <time>2018-05-19T11:31:07Z</time>
      </trkpt>
      <trkpt lat="43.15121" lon="2.76263">
        <ele>78.5</ele>
        <time>2018-05-19T11:31:13Z</time>
      </trkpt>
      <trkpt lat="43.1515" lon="2.76264">
        <ele>78.6</ele>
        <time>2018-05-19T11:31:18Z</time>
      </trkpt>
      <trkpt lat="43.15178" lon="2.76247">
        <ele>78.3</ele>
        <time>2018-05-19T11:31:23Z</time>
      </trkpt>
      <trkpt lat="43.15205" lon="2.76216">
        <ele>77.3</ele>
        <time>2018-05-19T11:31:27Z</time>
      </trkpt>
      <trkpt lat="43.1523" lon="2.76193">
        <ele>77</ele>
        <time>2018-05-19T11:31:33Z</time>
      </trkpt>
      <trkpt lat="43.15253" lon="2.76172">
        <ele>76.3</ele>
        <time>2018-05-19T11:31:38Z</time>
      </trkpt>
      <trkpt lat="43.15279" lon="2.76148">
        <ele>75.9</ele>
        <time>2018-05-19T11:31:43Z</time>
      </trkpt>
      <trkpt lat="43.15301" lon="2.76127">
        <ele>75.5</ele>
        <time>2018-05-19T11:31:48Z</time>
      </trkpt>
      <trkpt lat="43.15331" lon="2.76104">
        <ele>75.3</ele>
        <time>2018-05-19T11:31:53Z</time>
      </trkpt>
      <trkpt lat="43.15357" lon="2.76095">
        <ele>73.3</ele>
        <time>2018-05-19T11:31:58Z</time>
      </trkpt>
      <trkpt lat="43.15392" lon="2.76092">
        <ele>72.5</ele>
        <time>2018-05-19T11:32:02Z</time>
      </trkpt>
      <trkpt lat="43.15422" lon="2.76075">
        <ele>71.8</ele>
        <time>2018-05-19T11:32:08Z</time>
      </trkpt>
      <trkpt lat="43.15448" lon="2.76049">
        <ele>71.4</ele>
        <time>2018-05-19T11:32:13Z</time>
      </trkpt>
      <trkpt lat="43.15469" lon="2.76014">
        <ele>71.4</ele>
        <time>2018-05-19T11:32:18Z</time>
      </trkpt>
      <trkpt lat="43.15488" lon="2.75979">
        <ele>72.3</ele>
        <time>2018-05-19T11:32:22Z</time>
      </trkpt>
      <trkpt lat="43.15507" lon="2.75945">
        <ele>69.1</ele>
        <time>2018-05-19T11:32:28Z</time>
      </trkpt>
      <trkpt lat="43.15526" lon="2.75911">
        <ele>69.2</ele>
        <time>2018-05-19T11:32:33Z</time>
      </trkpt>
      <trkpt lat="43.15547" lon="2.75877">
        <ele>68.4</ele>
        <time>2018-05-19T11:32:38Z</time>
      </trkpt>
      <trkpt lat="43.15562" lon="2.75847">
        <ele>67.7</ele>
        <time>2018-05-19T11:32:43Z</time>
      </trkpt>
      <trkpt lat="43.15583" lon="2.75815">
        <ele>66.7</ele>
        <time>2018-05-19T11:32:47Z</time>
      </trkpt>
      <trkpt lat="43.156" lon="2.75784">
        <ele>65.3</ele>
        <time>2018-05-19T11:32:53Z</time>
      </trkpt>
      <trkpt lat="43.15621" lon="2.75751">
        <ele>64.9</ele>
        <time>2018-05-19T11:32:57Z</time>
      </trkpt>
      <trkpt lat="43.15638" lon="2.75722">
        <ele>64.3</ele>
        <time>2018-05-19T11:33:03Z</time>
      </trkpt>
      <trkpt lat="43.15638" lon="2.75684">
        <ele>64.4</ele>
        <time>2018-05-19T11:33:07Z</time>
      </trkpt>
      <trkpt lat="43.15626" lon="2.75654">
        <ele>63.8</ele>
        <time>2018-05-19T11:33:13Z</time>
      </trkpt>
      <trkpt lat="43.15616" lon="2.75624">
        <ele>63.6</ele>
        <time>2018-05-19T11:33:18Z</time>
      </trkpt>
      <trkpt lat="43.15602" lon="2.75595">
        <ele>63.6</ele>
        <time>2018-05-19T11:33:23Z</time>
      </trkpt>
      <trkpt lat="43.1559" lon="2.75569">
        <ele>63.2</ele>
        <time>2018-05-19T11:33:28Z</time>
      </trkpt>
      <trkpt lat="43.15576" lon="2.75541">
        <ele>63.7</ele>
        <time>2018-05-19T11:33:33Z</time>
      </trkpt>
      <trkpt lat="43.15564" lon="2.75511">
        <ele>63.4</ele>
        <time>2018-05-19T11:33:38Z</time>
      </trkpt>
      <trkpt lat="43.15552" lon="2.75481">
        <ele>62.6</ele>
        <time>2018-05-19T11:33:43Z</time>
      </trkpt>
      <trkpt lat="43.15541" lon="2.7545">
        <ele>62.4</ele>
        <time>2018-05-19T11:33:48Z</time>
      </trkpt>
      <trkpt lat="43.15531" lon="2.75419">
        <ele>62.3</ele>
        <time>2018-05-19T11:33:52Z</time>
      </trkpt>
      <trkpt lat="43.15523" lon="2.75389">
        <ele>62.1</ele>
        <time>2018-05-19T11:33:58Z</time>
      </trkpt>
      <trkpt lat="43.15512" lon="2.75368">
        <ele>62.2</ele>
        <time>2018-05-19T11:34:02Z</time>
      </trkpt>
      <trkpt lat="43.15495" lon="2.7534">
        <ele>63</ele>
        <time>2018-05-19T11:34:08Z</time>
      </trkpt>
      <trkpt lat="43.15483" lon="2.75313">
        <ele>62.6</ele>
        <time>2018-05-19T11:34:12Z</time>
      </trkpt>
      <trkpt lat="43.15475" lon="2.75283">
        <ele>62.3</ele>
        <time>2018-05-19T11:34:18Z</time>
      </trkpt>
      <trkpt lat="43.15466" lon="2.75257">
        <ele>62.2</ele>
        <time>2018-05-19T11:34:23Z</time>
      </trkpt>
      <trkpt lat="43.15458" lon="2.7523">
        <ele>62.2</ele>
        <time>2018-05-19T11:34:28Z</time>
      </trkpt>
      <trkpt lat="43.15452" lon="2.752">
        <ele>62.4</ele>
        <time>2018-05-19T11:34:33Z</time>
      </trkpt>
      <trkpt lat="43.15447" lon="2.7518">
        <ele>62.6</ele>
        <time>2018-05-19T11:34:37Z</time>
      </trkpt>
      <trkpt lat="43.1544" lon="2.7515">
        <ele>63.4</ele>
        <time>2018-05-19T11:34:43Z</time>
      </trkpt>
      <trkpt lat="43.15435" lon="2.75122">
        <ele>63.6</ele>
        <time>2018-05-19T11:34:47Z</time>
      </trkpt>
      <trkpt lat="43.15432" lon="2.75094">
        <ele>64.1</ele>
        <time>2018-05-19T11:34:53Z</time>
      </trkpt>
      <trkpt lat="43.15426" lon="2.75063">
        <ele>64</ele>
        <time>2018-05-19T11:34:57Z</time>
      </trkpt>
      <trkpt lat="43.15421" lon="2.75028">
        <ele>63.6</ele>
        <time>2018-05-19T11:35:03Z</time>
      </trkpt>
      <trkpt lat="43.15413" lon="2.74993">
        <ele>64</ele>
        <time>2018-05-19T11:35:08Z</time>
      </trkpt>
      <trkpt lat="43.15405" lon="2.74966">
        <ele>63.9</ele>
        <time>2018-05-19T11:35:13Z</time>
      </trkpt>
      <trkpt lat="43.15393" lon="2.7493">
        <ele>63.7</ele>
        <time>2018-05-19T11:35:18Z</time>
      </trkpt>
      <trkpt lat="43.15383" lon="2.74901">
        <ele>63.9</ele>
        <time>2018-05-19T11:35:23Z</time>
      </trkpt>
      <trkpt lat="43.15374" lon="2.74874">
        <ele>64</ele>
        <time>2018-05-19T11:35:28Z</time>
      </trkpt>
      <trkpt lat="43.15365" lon="2.74852">
        <ele>64.1</ele>
        <time>2018-05-19T11:35:33Z</time>
      </trkpt>
      <trkpt lat="43.15355" lon="2.74817">
        <ele>64.6</ele>
        <time>2018-05-19T11:35:38Z</time>
      </trkpt>
      <trkpt lat="43.15348" lon="2.74794">
        <ele>64.8</ele>
        <time>2018-05-19T11:35:43Z</time>
      </trkpt>
      <trkpt lat="43.15337" lon="2.7477">
        <ele>65.2</ele>
        <time>2018-05-19T11:35:48Z</time>
      </trkpt>
      <trkpt lat="43.15322" lon="2.7474">
        <ele>65.9</ele>
        <time>2018-05-19T11:35:53Z</time>
      </trkpt>
      <trkpt lat="43.15312" lon="2.74715">
        <ele>65.7</ele>
        <time>2018-05-19T11:35:58Z</time>
      </trkpt>
      <trkpt lat="43.15304" lon="2.74694">
        <ele>65.6</ele>
        <time>2018-05-19T11:36:03Z</time>
      </trkpt>
      <trkpt lat="43.15296" lon="2.74667">
        <ele>65.5</ele>
        <time>2018-05-19T11:36:08Z</time>
      </trkpt>
      <trkpt lat="43.15287" lon="2.74636">
        <ele>65</ele>
        <time>2018-05-19T11:36:13Z</time>
      </trkpt>
      <trkpt lat="43.15283" lon="2.74613">
        <ele>65.1</ele>
        <time>2018-05-19T11:36:18Z</time>
      </trkpt>
      <trkpt lat="43.15278" lon="2.74579">
        <ele>65.4</ele>
        <time>2018-05-19T11:36:23Z</time>
      </trkpt>
      <trkpt lat="43.15273" lon="2.74553">
        <ele>65.4</ele>
        <time>2018-05-19T11:36:27Z</time>
      </trkpt>
      <trkpt lat="43.15262" lon="2.74523">
        <ele>65.6</ele>
        <time>2018-05-19T11:36:33Z</time>
      </trkpt>
      <trkpt lat="43.1525" lon="2.74496">
        <ele>66.2</ele>
        <time>2018-05-19T11:36:37Z</time>
      </trkpt>
      <trkpt lat="43.15243" lon="2.74476">
        <ele>66.6</ele>
        <time>2018-05-19T11:36:43Z</time>
      </trkpt>
      <trkpt lat="43.1523" lon="2.74448">
        <ele>66.7</ele>
        <time>2018-05-19T11:36:48Z</time>
      </trkpt>
      <trkpt lat="43.15221" lon="2.74427">
        <ele>66.7</ele>
        <time>2018-05-19T11:36:53Z</time>
      </trkpt>
      <trkpt lat="43.15211" lon="2.74401">
        <ele>66.9</ele>
        <time>2018-05-19T11:36:58Z</time>
      </trkpt>
      <trkpt lat="43.15198" lon="2.74368">
        <ele>67.2</ele>
        <time>2018-05-19T11:37:02Z</time>
      </trkpt>
      <trkpt lat="43.15186" lon="2.74337">
        <ele>67.4</ele>
        <time>2018-05-19T11:37:08Z</time>
      </trkpt>
      <trkpt lat="43.15177" lon="2.74314">
        <ele>67.6</ele>
        <time>2018-05-19T11:37:12Z</time>
      </trkpt>
      <trkpt lat="43.15165" lon="2.74287">
        <ele>68.3</ele>
        <time>2018-05-19T11:37:18Z</time>
      </trkpt>
      <trkpt lat="43.15158" lon="2.7427">
        <ele>68.3</ele>
        <time>2018-05-19T11:37:22Z</time>
      </trkpt>
      <trkpt lat="43.15151" lon="2.74243">
        <ele>68.2</ele>
        <time>2018-05-19T11:37:28Z</time>
      </trkpt>
      <trkpt lat="43.15145" lon="2.74225">
        <ele>68.2</ele>
        <time>2018-05-19T11:37:32Z</time>
      </trkpt>
      <trkpt lat="43.15136" lon="2.74202">
        <ele>68.2</ele>
        <time>2018-05-19T11:37:38Z</time>
      </trkpt>
      <trkpt lat="43.1513" lon="2.74187">
        <ele>68.2</ele>
        <time>2018-05-19T11:37:43Z</time>
      </trkpt>
      <trkpt lat="43.15122" lon="2.74167">
        <ele>67.8</ele>
        <time>2018-05-19T11:37:48Z</time>
      </trkpt>
      <trkpt lat="43.15116" lon="2.74151">
        <ele>67.8</ele>
        <time>2018-05-19T11:37:53Z</time>
      </trkpt>
      <trkpt lat="43.15107" lon="2.74126">
        <ele>67.8</ele>
        <time>2018-05-19T11:37:57Z</time>
      </trkpt>
      <trkpt lat="43.151" lon="2.74109">
        <ele>67.8</ele>
        <time>2018-05-19T11:38:03Z</time>
      </trkpt>
      <trkpt lat="43.1509" lon="2.74083">
        <ele>67.9</ele>
        <time>2018-05-19T11:38:07Z</time>
      </trkpt>
      <trkpt lat="43.15083" lon="2.74065">
        <ele>68.6</ele>
        <time>2018-05-19T11:38:13Z</time>
      </trkpt>
      <trkpt lat="43.15071" lon="2.74038">
        <ele>68.9</ele>
        <time>2018-05-19T11:38:18Z</time>
      </trkpt>
      <trkpt lat="43.15064" lon="2.7402">
        <ele>68.8</ele>
        <time>2018-05-19T11:38:23Z</time>
      </trkpt>
      <trkpt lat="43.15053" lon="2.73995">
        <ele>68.5</ele>
        <time>2018-05-19T11:38:28Z</time>
      </trkpt>
      <trkpt lat="43.15044" lon="2.73977">
        <ele>68.6</ele>
        <time>2018-05-19T11:38:33Z</time>
      </trkpt>
      <trkpt lat="43.15039" lon="2.73948">
        <ele>68.5</ele>
        <time>2018-05-19T11:38:38Z</time>
      </trkpt>
      <trkpt lat="43.15037" lon="2.73929">
        <ele>68.4</ele>
        <time>2018-05-19T11:38:43Z</time>
      </trkpt>
      <trkpt lat="43.15035" lon="2.739">
        <ele>68.1</ele>
        <time>2018-05-19T11:38:48Z</time>
      </trkpt>
      <trkpt lat="43.15034" lon="2.73884">
        <ele>68.1</ele>
        <time>2018-05-19T11:38:52Z</time>
      </trkpt>
      <trkpt lat="43.15032" lon="2.73859">
        <ele>68.1</ele>
        <time>2018-05-19T11:38:58Z</time>
      </trkpt>
      <trkpt lat="43.15032" lon="2.73841">
        <ele>68.2</ele>
        <time>2018-05-19T11:39:02Z</time>
      </trkpt>
      <trkpt lat="43.15022" lon="2.73816">
        <ele>67.9</ele>
        <time>2018-05-19T11:39:08Z</time>
      </trkpt>
      <trkpt lat="43.15016" lon="2.738">
        <ele>67.8</ele>
        <time>2018-05-19T11:39:12Z</time>
      </trkpt>
      <trkpt lat="43.15007" lon="2.73773">
        <ele>67.4</ele>
        <time>2018-05-19T11:39:18Z</time>
      </trkpt>
      <trkpt lat="43.15001" lon="2.73755">
        <ele>67.1</ele>
        <time>2018-05-19T11:39:23Z</time>
      </trkpt>
      <trkpt lat="43.14991" lon="2.73725">
        <ele>67.9</ele>
        <time>2018-05-19T11:39:28Z</time>
      </trkpt>
      <trkpt lat="43.14984" lon="2.73706">
        <ele>68.2</ele>
        <time>2018-05-19T11:39:33Z</time>
      </trkpt>
      <trkpt lat="43.14973" lon="2.73677">
        <ele>68.4</ele>
        <time>2018-05-19T11:39:37Z</time>
      </trkpt>
      <trkpt lat="43.14967" lon="2.73657">
        <ele>68.9</ele>
        <time>2018-05-19T11:39:43Z</time>
      </trkpt>
      <trkpt lat="43.14957" lon="2.73631">
        <ele>69</ele>
        <time>2018-05-19T11:39:48Z</time>
      </trkpt>
      <trkpt lat="43.14951" lon="2.73615">
        <ele>69.1</ele>
        <time>2018-05-19T11:39:53Z</time>
      </trkpt>
      <trkpt lat="43.14942" lon="2.73588">
        <ele>69.3</ele>
        <time>2018-05-19T11:39:58Z</time>
      </trkpt>
      <trkpt lat="43.14936" lon="2.73569">
        <ele>69.4</ele>
        <time>2018-05-19T11:40:03Z</time>
      </trkpt>
      <trkpt lat="43.14928" lon="2.73541">
        <ele>69.3</ele>
        <time>2018-05-19T11:40:08Z</time>
      </trkpt>
      <trkpt lat="43.14923" lon="2.73523">
        <ele>69.4</ele>
        <time>2018-05-19T11:40:13Z</time>
      </trkpt>
      <trkpt lat="43.14916" lon="2.735">
        <ele>70</ele>
        <time>2018-05-19T11:40:18Z</time>
      </trkpt>
      <trkpt lat="43.14911" lon="2.73483">
        <ele>71.4</ele>
        <time>2018-05-19T11:40:23Z</time>
      </trkpt>
      <trkpt lat="43.14902" lon="2.7346">
        <ele>72.2</ele>
        <time>2018-05-19T11:40:28Z</time>
      </trkpt>
      <trkpt lat="43.14898" lon="2.73447">
        <ele>72.4</ele>
        <time>2018-05-19T11:40:32Z</time>
      </trkpt>
      <trkpt lat="43.1489" lon="2.73431">
        <ele>72.6</ele>
        <time>2018-05-19T11:40:38Z</time>
      </trkpt>
      <trkpt lat="43.14887" lon="2.73418">
        <ele>72.7</ele>
        <time>2018-05-19T11:40:42Z</time>
      </trkpt>
      <trkpt lat="43.14884" lon="2.73398">
        <ele>72.7</ele>
        <time>2018-05-19T11:40:48Z</time>
      </trkpt>
      <trkpt lat="43.14882" lon="2.73385">
        <ele>72.7</ele>
        <time>2018-05-19T11:40:52Z</time>
      </trkpt>
      <trkpt lat="43.14879" lon="2.73365">
        <ele>72.6</ele>
        <time>2018-05-19T11:40:58Z</time>
      </trkpt>
      <trkpt lat="43.14876" lon="2.73351">
        <ele>72.5</ele>
        <time>2018-05-19T11:41:03Z</time>
      </trkpt>
      <trkpt lat="43.14872" lon="2.73327">
        <ele>72.3</ele>
        <time>2018-05-19T11:41:08Z</time>
      </trkpt>
      <trkpt lat="43.14868" lon="2.73306">
        <ele>72.4</ele>
        <time>2018-05-19T11:41:13Z</time>
      </trkpt>
      <trkpt lat="43.1486" lon="2.73276">
        <ele>72.6</ele>
        <time>2018-05-19T11:41:18Z</time>
      </trkpt>
      <trkpt lat="43.14856" lon="2.73256">
        <ele>72.9</ele>
        <time>2018-05-19T11:41:23Z</time>
      </trkpt>
      <trkpt lat="43.14846" lon="2.73227">
        <ele>73.1</ele>
        <time>2018-05-19T11:41:28Z</time>
      </trkpt>
      <trkpt lat="43.1484" lon="2.73206">
        <ele>73</ele>
        <time>2018-05-19T11:41:33Z</time>
      </trkpt>
      <trkpt lat="43.14834" lon="2.73178">
        <ele>73</ele>
        <time>2018-05-19T11:41:37Z</time>
      </trkpt>
      <trkpt lat="43.14829" lon="2.7316">
        <ele>72.9</ele>
        <time>2018-05-19T11:41:43Z</time>
      </trkpt>
      <trkpt lat="43.14824" lon="2.73136">
        <ele>72.5</ele>
        <time>2018-05-19T11:41:48Z</time>
      </trkpt>
      <trkpt lat="43.14815" lon="2.73111">
        <ele>71.9</ele>
        <time>2018-05-19T11:41:53Z</time>
      </trkpt>
      <trkpt lat="43.14808" lon="2.73093">
        <ele>71.6</ele>
        <time>2018-05-19T11:41:58Z</time>
      </trkpt>
      <trkpt lat="43.14798" lon="2.73064">
        <ele>70.9</ele>
        <time>2018-05-19T11:42:02Z</time>
      </trkpt>
      <trkpt lat="43.14789" lon="2.73037">
        <ele>71.1</ele>
        <time>2018-05-19T11:42:08Z</time>
      </trkpt>
      <trkpt lat="43.14785" lon="2.73015">
        <ele>71.2</ele>
        <time>2018-05-19T11:42:12Z</time>
      </trkpt>
      <trkpt lat="43.1478" lon="2.72986">
        <ele>70.8</ele>
        <time>2018-05-19T11:42:18Z</time>
      </trkpt>
      <trkpt lat="43.14776" lon="2.7295">
        <ele>70.5</ele>
        <time>2018-05-19T11:42:22Z</time>
      </trkpt>
      <trkpt lat="43.14773" lon="2.72926">
        <ele>70.6</ele>
        <time>2018-05-19T11:42:28Z</time>
      </trkpt>
      <trkpt lat="43.14769" lon="2.72896">
        <ele>71</ele>
        <time>2018-05-19T11:42:32Z</time>
      </trkpt>
      <trkpt lat="43.14772" lon="2.72859">
        <ele>71.2</ele>
        <time>2018-05-19T11:42:38Z</time>
      </trkpt>
      <trkpt lat="43.14772" lon="2.72837">
        <ele>71.5</ele>
        <time>2018-05-19T11:42:43Z</time>
      </trkpt>
      <trkpt lat="43.14771" lon="2.72805">
        <ele>71.3</ele>
        <time>2018-05-19T11:42:48Z</time>
      </trkpt>
      <trkpt lat="43.14769" lon="2.72784">
        <ele>71.1</ele>
        <time>2018-05-19T11:42:53Z</time>
      </trkpt>
      <trkpt lat="43.14767" lon="2.72757">
        <ele>71.3</ele>
        <time>2018-05-19T11:42:57Z</time>
      </trkpt>
      <trkpt lat="43.14768" lon="2.72741">
        <ele>70.5</ele>
        <time>2018-05-19T11:43:03Z</time>
      </trkpt>
      <trkpt lat="43.14768" lon="2.72727">
        <ele>70.1</ele>
        <time>2018-05-19T11:43:07Z</time>
      </trkpt>
      <trkpt lat="43.14771" lon="2.72722">
        <ele>69.9</ele>
        <time>2018-05-19T11:43:13Z</time>
      </trkpt>
      <trkpt lat="43.14775" lon="2.727">
        <ele>69.5</ele>
        <time>2018-05-19T11:43:18Z</time>
      </trkpt>
      <trkpt lat="43.14781" lon="2.72687">
        <ele>69.3</ele>
        <time>2018-05-19T11:43:23Z</time>
      </trkpt>
      <trkpt lat="43.14797" lon="2.72664">
        <ele>67.4</ele>
        <time>2018-05-19T11:43:28Z</time>
      </trkpt>
      <trkpt lat="43.14808" lon="2.72653">
        <ele>67.1</ele>
        <time>2018-05-19T11:43:33Z</time>
      </trkpt>
      <trkpt lat="43.14825" lon="2.72637">
        <ele>66.6</ele>
        <time>2018-05-19T11:43:38Z</time>
      </trkpt>
      <trkpt lat="43.14823" lon="2.72616">
        <ele>66</ele>
        <time>2018-05-19T11:43:42Z</time>
      </trkpt>
      <trkpt lat="43.14809" lon="2.72587">
        <ele>65.6</ele>
        <time>2018-05-19T11:43:48Z</time>
      </trkpt>
      <trkpt lat="43.14796" lon="2.72565">
        <ele>63.7</ele>
        <time>2018-05-19T11:43:52Z</time>
      </trkpt>
      <trkpt lat="43.14792" lon="2.7256">
        <ele>63.7</ele>
        <time>2018-05-19T11:43:58Z</time>
      </trkpt>
      <trkpt lat="43.14792" lon="2.7256">
        <ele>63.7</ele>
        <time>2018-05-19T11:44:03Z</time>
      </trkpt>
      <trkpt lat="43.14784" lon="2.72566">
        <ele>64.2</ele>
        <time>2018-05-19T11:44:08Z</time>
      </trkpt>
      <trkpt lat="43.14778" lon="2.7258">
        <ele>64.8</ele>
        <time>2018-05-19T11:44:12Z</time>
      </trkpt>
      <trkpt lat="43.14773" lon="2.72592">
        <ele>67.2</ele>
        <time>2018-05-19T11:44:18Z</time>
      </trkpt>
      <trkpt lat="43.14768" lon="2.72594">
        <ele>67.3</ele>
        <time>2018-05-19T11:44:23Z</time>
      </trkpt>
      <trkpt lat="43.14758" lon="2.72596">
        <ele>67.5</ele>
        <time>2018-05-19T11:44:28Z</time>
      </trkpt>
      <trkpt lat="43.14746" lon="2.72594">
        <ele>68.3</ele>
        <time>2018-05-19T11:44:33Z</time>
      </trkpt>
      <trkpt lat="43.14732" lon="2.72592">
        <ele>68.4</ele>
        <time>2018-05-19T11:44:37Z</time>
      </trkpt>
      <trkpt lat="43.14729" lon="2.726">
        <ele>68.4</ele>
        <time>2018-05-19T11:44:43Z</time>
      </trkpt>
      <trkpt lat="43.14728" lon="2.72613">
        <ele>68.6</ele>
        <time>2018-05-19T11:44:47Z</time>
      </trkpt>
      <trkpt lat="43.14727" lon="2.7262">
        <ele>68.7</ele>
        <time>2018-05-19T11:44:53Z</time>
      </trkpt>
      <trkpt lat="43.14695" lon="2.72634">
        <ele>68.9</ele>
        <time>2018-05-19T11:58:53Z</time>
      </trkpt>
      <trkpt lat="43.14695" lon="2.72634">
        <ele>68.9</ele>
        <time>2018-05-19T11:58:58Z</time>
      </trkpt>
      <trkpt lat="43.14695" lon="2.72634">
        <ele>68.9</ele>
        <time>2018-05-19T11:59:03Z</time>
      </trkpt>
      <trkpt lat="43.14695" lon="2.72634">
        <ele>68.9</ele>
        <time>2018-05-19T11:59:07Z</time>
      </trkpt>
      <trkpt lat="43.14695" lon="2.72634">
        <ele>68.9</ele>
        <time>2018-05-19T11:59:13Z</time>
      </trkpt>
      <trkpt lat="43.14692" lon="2.7264">
        <ele>69</ele>
        <time>2018-05-19T11:59:17Z</time>
      </trkpt>
      <trkpt lat="43.14692" lon="2.7264">
        <ele>69</ele>
        <time>2018-05-19T11:59:23Z</time>
      </trkpt>
      <trkpt lat="43.14687" lon="2.72625">
        <ele>68.7</ele>
        <time>2018-05-19T11:59:27Z</time>
      </trkpt>
      <trkpt lat="43.1468" lon="2.72608">
        <ele>68.2</ele>
        <time>2018-05-19T11:59:33Z</time>
      </trkpt>
      <trkpt lat="43.14677" lon="2.72588">
        <ele>67.7</ele>
        <time>2018-05-19T11:59:37Z</time>
      </trkpt>
      <trkpt lat="43.14675" lon="2.72561">
        <ele>65.6</ele>
        <time>2018-05-19T11:59:43Z</time>
      </trkpt>
      <trkpt lat="43.14675" lon="2.72546">
        <ele>64.9</ele>
        <time>2018-05-19T11:59:48Z</time>
      </trkpt>
      <trkpt lat="43.14658" lon="2.72531">
        <ele>63.6</ele>
        <time>2018-05-19T11:59:53Z</time>
      </trkpt>
      <trkpt lat="43.14638" lon="2.72524">
        <ele>63.6</ele>
        <time>2018-05-19T11:59:58Z</time>
      </trkpt>
      <trkpt lat="43.14617" lon="2.72508">
        <ele>63.6</ele>
        <time>2018-05-19T12:00:02Z</time>
      </trkpt>
      <trkpt lat="43.14608" lon="2.72483">
        <ele>63</ele>
        <time>2018-05-19T12:00:08Z</time>
      </trkpt>
      <trkpt lat="43.14609" lon="2.72453">
        <ele>63.4</ele>
        <time>2018-05-19T12:00:12Z</time>
      </trkpt>
      <trkpt lat="43.14615" lon="2.72428">
        <ele>63.7</ele>
        <time>2018-05-19T12:00:18Z</time>
      </trkpt>
      <trkpt lat="43.14618" lon="2.72414">
        <ele>64.9</ele>
        <time>2018-05-19T12:00:22Z</time>
      </trkpt>
      <trkpt lat="43.1462" lon="2.72394">
        <ele>64.9</ele>
        <time>2018-05-19T12:00:28Z</time>
      </trkpt>
      <trkpt lat="43.14616" lon="2.72381">
        <ele>65.1</ele>
        <time>2018-05-19T12:00:33Z</time>
      </trkpt>
      <trkpt lat="43.14614" lon="2.72368">
        <ele>65.3</ele>
        <time>2018-05-19T12:00:38Z</time>
      </trkpt>
      <trkpt lat="43.14612" lon="2.72349">
        <ele>65.7</ele>
        <time>2018-05-19T12:00:43Z</time>
      </trkpt>
      <trkpt lat="43.1461" lon="2.72334">
        <ele>66</ele>
        <time>2018-05-19T12:00:48Z</time>
      </trkpt>
      <trkpt lat="43.14608" lon="2.72311">
        <ele>66.2</ele>
        <time>2018-05-19T12:00:53Z</time>
      </trkpt>
      <trkpt lat="43.14608" lon="2.72295">
        <ele>66</ele>
        <time>2018-05-19T12:00:58Z</time>
      </trkpt>
      <trkpt lat="43.14607" lon="2.72267">
        <ele>66.2</ele>
        <time>2018-05-19T12:01:03Z</time>
      </trkpt>
      <trkpt lat="43.14606" lon="2.72249">
        <ele>65.4</ele>
        <time>2018-05-19T12:01:07Z</time>
      </trkpt>
      <trkpt lat="43.14603" lon="2.72222">
        <ele>64.9</ele>
        <time>2018-05-19T12:01:13Z</time>
      </trkpt>
      <trkpt lat="43.14601" lon="2.72201">
        <ele>64.5</ele>
        <time>2018-05-19T12:01:17Z</time>
      </trkpt>
      <trkpt lat="43.14601" lon="2.72167">
        <ele>64.7</ele>
        <time>2018-05-19T12:01:23Z</time>
      </trkpt>
      <trkpt lat="43.14599" lon="2.72146">
        <ele>63.3</ele>
        <time>2018-05-19T12:01:28Z</time>
      </trkpt>
      <trkpt lat="43.14595" lon="2.72114">
        <ele>62.7</ele>
        <time>2018-05-19T12:01:33Z</time>
      </trkpt>
      <trkpt lat="43.14589" lon="2.72093">
        <ele>63.3</ele>
        <time>2018-05-19T12:01:38Z</time>
      </trkpt>
      <trkpt lat="43.14582" lon="2.72063">
        <ele>64.6</ele>
        <time>2018-05-19T12:01:42Z</time>
      </trkpt>
      <trkpt lat="43.14576" lon="2.72043">
        <ele>64.5</ele>
        <time>2018-05-19T12:01:48Z</time>
      </trkpt>
      <trkpt lat="43.14565" lon="2.72015">
        <ele>63.9</ele>
        <time>2018-05-19T12:01:53Z</time>
      </trkpt>
      <trkpt lat="43.14557" lon="2.71998">
        <ele>62.2</ele>
        <time>2018-05-19T12:01:58Z</time>
      </trkpt>
      <trkpt lat="43.14542" lon="2.71974">
        <ele>62.6</ele>
        <time>2018-05-19T12:02:03Z</time>
      </trkpt>
      <trkpt lat="43.14531" lon="2.71959">
        <ele>62.7</ele>
        <time>2018-05-19T12:02:08Z</time>
      </trkpt>
      <trkpt lat="43.14513" lon="2.71938">
        <ele>63</ele>
        <time>2018-05-19T12:02:12Z</time>
      </trkpt>
      <trkpt lat="43.14495" lon="2.71922">
        <ele>65.6</ele>
        <time>2018-05-19T12:02:18Z</time>
      </trkpt>
      <trkpt lat="43.14479" lon="2.71912">
        <ele>64.3</ele>
        <time>2018-05-19T12:02:23Z</time>
      </trkpt>
      <trkpt lat="43.14458" lon="2.71894">
        <ele>64.7</ele>
        <time>2018-05-19T12:02:28Z</time>
      </trkpt>
      <trkpt lat="43.14445" lon="2.71881">
        <ele>64.6</ele>
        <time>2018-05-19T12:02:33Z</time>
      </trkpt>
      <trkpt lat="43.1443" lon="2.71865">
        <ele>64</ele>
        <time>2018-05-19T12:02:37Z</time>
      </trkpt>
      <trkpt lat="43.14419" lon="2.7186">
        <ele>63.8</ele>
        <time>2018-05-19T12:02:43Z</time>
      </trkpt>
      <trkpt lat="43.144" lon="2.71857">
        <ele>66.6</ele>
        <time>2018-05-19T12:02:47Z</time>
      </trkpt>
      <trkpt lat="43.14385" lon="2.71852">
        <ele>67.1</ele>
        <time>2018-05-19T12:02:53Z</time>
      </trkpt>
      <trkpt lat="43.14364" lon="2.71845">
        <ele>67.5</ele>
        <time>2018-05-19T12:02:58Z</time>
      </trkpt>
      <trkpt lat="43.14349" lon="2.71837">
        <ele>67.2</ele>
        <time>2018-05-19T12:03:03Z</time>
      </trkpt>
      <trkpt lat="43.14331" lon="2.71824">
        <ele>66</ele>
        <time>2018-05-19T12:03:07Z</time>
      </trkpt>
      <trkpt lat="43.14319" lon="2.71814">
        <ele>66</ele>
        <time>2018-05-19T12:03:13Z</time>
      </trkpt>
      <trkpt lat="43.14304" lon="2.71795">
        <ele>65.7</ele>
        <time>2018-05-19T12:03:18Z</time>
      </trkpt>
      <trkpt lat="43.14289" lon="2.7177">
        <ele>65</ele>
        <time>2018-05-19T12:03:23Z</time>
      </trkpt>
      <trkpt lat="43.1427" lon="2.71748">
        <ele>60.7</ele>
        <time>2018-05-19T12:03:28Z</time>
      </trkpt>
      <trkpt lat="43.1426" lon="2.71735">
        <ele>60.7</ele>
        <time>2018-05-19T12:03:32Z</time>
      </trkpt>
      <trkpt lat="43.1424" lon="2.71717">
        <ele>62.1</ele>
        <time>2018-05-19T12:03:38Z</time>
      </trkpt>
      <trkpt lat="43.14225" lon="2.71708">
        <ele>62</ele>
        <time>2018-05-19T12:03:43Z</time>
      </trkpt>
      <trkpt lat="43.14204" lon="2.717">
        <ele>62.2</ele>
        <time>2018-05-19T12:03:48Z</time>
      </trkpt>
      <trkpt lat="43.14191" lon="2.71702">
        <ele>62.6</ele>
        <time>2018-05-19T12:03:52Z</time>
      </trkpt>
      <trkpt lat="43.14173" lon="2.71707">
        <ele>63.3</ele>
        <time>2018-05-19T12:03:58Z</time>
      </trkpt>
      <trkpt lat="43.14161" lon="2.71711">
        <ele>67</ele>
        <time>2018-05-19T12:04:02Z</time>
      </trkpt>
      <trkpt lat="43.14144" lon="2.7171">
        <ele>67.2</ele>
        <time>2018-05-19T12:04:08Z</time>
      </trkpt>
      <trkpt lat="43.14133" lon="2.71707">
        <ele>67.4</ele>
        <time>2018-05-19T12:04:13Z</time>
      </trkpt>
      <trkpt lat="43.1412" lon="2.71691">
        <ele>67.1</ele>
        <time>2018-05-19T12:04:18Z</time>
      </trkpt>
      <trkpt lat="43.14111" lon="2.71681">
        <ele>67.1</ele>
        <time>2018-05-19T12:04:23Z</time>
      </trkpt>
      <trkpt lat="43.14111" lon="2.71681">
        <ele>67.1</ele>
        <time>2018-05-19T12:04:28Z</time>
      </trkpt>
      <trkpt lat="43.14111" lon="2.71681">
        <ele>67.1</ele>
        <time>2018-05-19T12:04:33Z</time>
      </trkpt>
      <trkpt lat="43.14111" lon="2.71681">
        <ele>67.1</ele>
        <time>2018-05-19T12:04:37Z</time>
      </trkpt>
      <trkpt lat="43.14116" lon="2.71684">
        <ele>67</ele>
        <time>2018-05-19T12:07:12Z</time>
      </trkpt>
      <trkpt lat="43.14106" lon="2.71675">
        <ele>67.1</ele>
        <time>2018-05-19T12:09:18Z</time>
      </trkpt>
      <trkpt lat="43.14089" lon="2.7166">
        <ele>64.9</ele>
        <time>2018-05-19T12:09:23Z</time>
      </trkpt>
      <trkpt lat="43.14076" lon="2.71649">
        <ele>66.3</ele>
        <time>2018-05-19T12:09:28Z</time>
      </trkpt>
      <trkpt lat="43.1407" lon="2.71643">
        <ele>66.1</ele>
        <time>2018-05-19T12:09:33Z</time>
      </trkpt>
      <trkpt lat="43.1407" lon="2.71643">
        <ele>66.1</ele>
        <time>2018-05-19T12:09:37Z</time>
      </trkpt>
      <trkpt lat="43.1407" lon="2.71643">
        <ele>66.1</ele>
        <time>2018-05-19T12:09:43Z</time>
      </trkpt>
      <trkpt lat="43.14067" lon="2.71639">
        <ele>65.9</ele>
        <time>2018-05-19T12:10:13Z</time>
      </trkpt>
      <trkpt lat="43.14062" lon="2.71638">
        <ele>66</ele>
        <time>2018-05-19T12:10:18Z</time>
      </trkpt>
      <trkpt lat="43.14052" lon="2.71629">
        <ele>65.8</ele>
        <time>2018-05-19T12:10:22Z</time>
      </trkpt>
      <trkpt lat="43.14031" lon="2.71614">
        <ele>65.7</ele>
        <time>2018-05-19T12:10:28Z</time>
      </trkpt>
      <trkpt lat="43.14019" lon="2.71603">
        <ele>65.4</ele>
        <time>2018-05-19T12:10:32Z</time>
      </trkpt>
      <trkpt lat="43.13999" lon="2.71588">
        <ele>65.4</ele>
        <time>2018-05-19T12:10:38Z</time>
      </trkpt>
      <trkpt lat="43.13986" lon="2.71578">
        <ele>64.2</ele>
        <time>2018-05-19T12:10:42Z</time>
      </trkpt>
      <trkpt lat="43.13969" lon="2.71565">
        <ele>64.6</ele>
        <time>2018-05-19T12:10:48Z</time>
      </trkpt>
      <trkpt lat="43.1395" lon="2.71556">
        <ele>65.2</ele>
        <time>2018-05-19T12:10:53Z</time>
      </trkpt>
      <trkpt lat="43.13933" lon="2.71541">
        <ele>65.1</ele>
        <time>2018-05-19T12:10:58Z</time>
      </trkpt>
      <trkpt lat="43.13913" lon="2.71526">
        <ele>68.2</ele>
        <time>2018-05-19T12:11:03Z</time>
      </trkpt>
      <trkpt lat="43.139" lon="2.7152">
        <ele>68.2</ele>
        <time>2018-05-19T12:11:08Z</time>
      </trkpt>
      <trkpt lat="43.13885" lon="2.71506">
        <ele>68.4</ele>
        <time>2018-05-19T12:11:13Z</time>
      </trkpt>
      <trkpt lat="43.13875" lon="2.71496">
        <ele>64.6</ele>
        <time>2018-05-19T12:11:17Z</time>
      </trkpt>
      <trkpt lat="43.13855" lon="2.71482">
        <ele>65.1</ele>
        <time>2018-05-19T12:11:23Z</time>
      </trkpt>
      <trkpt lat="43.13836" lon="2.71471">
        <ele>65.1</ele>
        <time>2018-05-19T12:11:27Z</time>
      </trkpt>
      <trkpt lat="43.13822" lon="2.71466">
        <ele>66.9</ele>
        <time>2018-05-19T12:11:33Z</time>
      </trkpt>
      <trkpt lat="43.13802" lon="2.71461">
        <ele>66.9</ele>
        <time>2018-05-19T12:11:38Z</time>
      </trkpt>
      <trkpt lat="43.1379" lon="2.71461">
        <ele>67.1</ele>
        <time>2018-05-19T12:11:43Z</time>
      </trkpt>
      <trkpt lat="43.13768" lon="2.71464">
        <ele>67.7</ele>
        <time>2018-05-19T12:11:48Z</time>
      </trkpt>
      <trkpt lat="43.13753" lon="2.71457">
        <ele>67.5</ele>
        <time>2018-05-19T12:11:52Z</time>
      </trkpt>
      <trkpt lat="43.1373" lon="2.71443">
        <ele>68.8</ele>
        <time>2018-05-19T12:11:58Z</time>
      </trkpt>
      <trkpt lat="43.13718" lon="2.71434">
        <ele>68.9</ele>
        <time>2018-05-19T12:12:02Z</time>
      </trkpt>
      <trkpt lat="43.137" lon="2.71422">
        <ele>69.2</ele>
        <time>2018-05-19T12:12:08Z</time>
      </trkpt>
      <trkpt lat="43.13688" lon="2.71415">
        <ele>66.8</ele>
        <time>2018-05-19T12:12:12Z</time>
      </trkpt>
      <trkpt lat="43.13671" lon="2.71402">
        <ele>67.2</ele>
        <time>2018-05-19T12:12:18Z</time>
      </trkpt>
      <trkpt lat="43.13659" lon="2.71392">
        <ele>68.3</ele>
        <time>2018-05-19T12:12:22Z</time>
      </trkpt>
      <trkpt lat="43.13642" lon="2.71365">
        <ele>67.7</ele>
        <time>2018-05-19T12:12:28Z</time>
      </trkpt>
      <trkpt lat="43.13628" lon="2.71351">
        <ele>67.7</ele>
        <time>2018-05-19T12:12:33Z</time>
      </trkpt>
      <trkpt lat="43.13612" lon="2.71333">
        <ele>66.3</ele>
        <time>2018-05-19T12:12:38Z</time>
      </trkpt>
      <trkpt lat="43.13601" lon="2.7132">
        <ele>66.5</ele>
        <time>2018-05-19T12:12:43Z</time>
      </trkpt>
      <trkpt lat="43.13588" lon="2.71293">
        <ele>66.1</ele>
        <time>2018-05-19T12:12:47Z</time>
      </trkpt>
      <trkpt lat="43.1358" lon="2.71272">
        <ele>66.9</ele>
        <time>2018-05-19T12:12:53Z</time>
      </trkpt>
      <trkpt lat="43.13577" lon="2.71245">
        <ele>65.8</ele>
        <time>2018-05-19T12:12:58Z</time>
      </trkpt>
      <trkpt lat="43.13573" lon="2.71233">
        <ele>65.5</ele>
        <time>2018-05-19T12:13:03Z</time>
      </trkpt>
      <trkpt lat="43.13564" lon="2.71214">
        <ele>65.2</ele>
        <time>2018-05-19T12:13:07Z</time>
      </trkpt>
      <trkpt lat="43.13557" lon="2.712">
        <ele>65</ele>
        <time>2018-05-19T12:13:13Z</time>
      </trkpt>
      <trkpt lat="43.13547" lon="2.71178">
        <ele>64.8</ele>
        <time>2018-05-19T12:13:18Z</time>
      </trkpt>
      <trkpt lat="43.13543" lon="2.71164">
        <ele>63.4</ele>
        <time>2018-05-19T12:13:23Z</time>
      </trkpt>
      <trkpt lat="43.13535" lon="2.7115">
        <ele>63.4</ele>
        <time>2018-05-19T12:13:28Z</time>
      </trkpt>
      <trkpt lat="43.13521" lon="2.71128">
        <ele>63.3</ele>
        <time>2018-05-19T12:13:32Z</time>
      </trkpt>
      <trkpt lat="43.13511" lon="2.71118">
        <ele>63.2</ele>
        <time>2018-05-19T12:13:38Z</time>
      </trkpt>
      <trkpt lat="43.13492" lon="2.71113">
        <ele>64.9</ele>
        <time>2018-05-19T12:13:42Z</time>
      </trkpt>
      <trkpt lat="43.13479" lon="2.71105">
        <ele>64.9</ele>
        <time>2018-05-19T12:13:48Z</time>
      </trkpt>
      <trkpt lat="43.13465" lon="2.71093">
        <ele>65.1</ele>
        <time>2018-05-19T12:13:52Z</time>
      </trkpt>
      <trkpt lat="43.13461" lon="2.71077">
        <ele>63.8</ele>
        <time>2018-05-19T12:13:58Z</time>
      </trkpt>
      <trkpt lat="43.13453" lon="2.71066">
        <ele>63.9</ele>
        <time>2018-05-19T12:14:03Z</time>
      </trkpt>
      <trkpt lat="43.13436" lon="2.71057">
        <ele>64.2</ele>
        <time>2018-05-19T12:14:08Z</time>
      </trkpt>
      <trkpt lat="43.13424" lon="2.7105">
        <ele>64.2</ele>
        <time>2018-05-19T12:14:13Z</time>
      </trkpt>
      <trkpt lat="43.13407" lon="2.71043">
        <ele>66</ele>
        <time>2018-05-19T12:14:18Z</time>
      </trkpt>
      <trkpt lat="43.13399" lon="2.71037">
        <ele>66</ele>
        <time>2018-05-19T12:14:23Z</time>
      </trkpt>
      <trkpt lat="43.13393" lon="2.71036">
        <ele>66.1</ele>
        <time>2018-05-19T12:14:28Z</time>
      </trkpt>
      <trkpt lat="43.13388" lon="2.71034">
        <ele>66.2</ele>
        <time>2018-05-19T12:14:33Z</time>
      </trkpt>
      <trkpt lat="43.13397" lon="2.71023">
        <ele>65.8</ele>
        <time>2018-05-19T12:14:38Z</time>
      </trkpt>
      <trkpt lat="43.13402" lon="2.71018">
        <ele>65.5</ele>
        <time>2018-05-19T12:14:43Z</time>
      </trkpt>
      <trkpt lat="43.13411" lon="2.71008">
        <ele>64.8</ele>
        <time>2018-05-19T12:14:47Z</time>
      </trkpt>
      <trkpt lat="43.13424" lon="2.70989">
        <ele>63.5</ele>
        <time>2018-05-19T12:14:53Z</time>
      </trkpt>
      <trkpt lat="43.13426" lon="2.70967">
        <ele>63.2</ele>
        <time>2018-05-19T12:14:58Z</time>
      </trkpt>
      <trkpt lat="43.13407" lon="2.70948">
        <ele>64.3</ele>
        <time>2018-05-19T12:15:03Z</time>
      </trkpt>
      <trkpt lat="43.1339" lon="2.70926">
        <ele>64.2</ele>
        <time>2018-05-19T12:15:08Z</time>
      </trkpt>
      <trkpt lat="43.13377" lon="2.70909">
        <ele>63.2</ele>
        <time>2018-05-19T12:15:12Z</time>
      </trkpt>
      <trkpt lat="43.13363" lon="2.70886">
        <ele>63</ele>
        <time>2018-05-19T12:15:18Z</time>
      </trkpt>
      <trkpt lat="43.13348" lon="2.70858">
        <ele>62.7</ele>
        <time>2018-05-19T12:15:22Z</time>
      </trkpt>
      <trkpt lat="43.13336" lon="2.70834">
        <ele>62.1</ele>
        <time>2018-05-19T12:15:28Z</time>
      </trkpt>
      <trkpt lat="43.13323" lon="2.70808">
        <ele>62.3</ele>
        <time>2018-05-19T12:15:32Z</time>
      </trkpt>
      <trkpt lat="43.13312" lon="2.70782">
        <ele>62.4</ele>
        <time>2018-05-19T12:15:38Z</time>
      </trkpt>
      <trkpt lat="43.13308" lon="2.70758">
        <ele>62.3</ele>
        <time>2018-05-19T12:15:42Z</time>
      </trkpt>
      <trkpt lat="43.13315" lon="2.70731">
        <ele>61.6</ele>
        <time>2018-05-19T12:15:48Z</time>
      </trkpt>
      <trkpt lat="43.13326" lon="2.70695">
        <ele>61.1</ele>
        <time>2018-05-19T12:15:53Z</time>
      </trkpt>
      <trkpt lat="43.13325" lon="2.70655">
        <ele>60.6</ele>
        <time>2018-05-19T12:16:03Z</time>
      </trkpt>
      <trkpt lat="43.13325" lon="2.70655">
        <ele>60.6</ele>
        <time>2018-05-19T12:16:07Z</time>
      </trkpt>
      <trkpt lat="43.13325" lon="2.70655">
        <ele>60.6</ele>
        <time>2018-05-19T12:16:13Z</time>
      </trkpt>
      <trkpt lat="43.13322" lon="2.70643">
        <ele>60.8</ele>
        <time>2018-05-19T12:17:33Z</time>
      </trkpt>
      <trkpt lat="43.13318" lon="2.70616">
        <ele>61.1</ele>
        <time>2018-05-19T12:17:38Z</time>
      </trkpt>
      <trkpt lat="43.13324" lon="2.70607">
        <ele>61.1</ele>
        <time>2018-05-19T12:17:43Z</time>
      </trkpt>
      <trkpt lat="43.13338" lon="2.70592">
        <ele>60.8</ele>
        <time>2018-05-19T12:17:47Z</time>
      </trkpt>
      <trkpt lat="43.13347" lon="2.70575">
        <ele>61.1</ele>
        <time>2018-05-19T12:17:53Z</time>
      </trkpt>
      <trkpt lat="43.13347" lon="2.70548">
        <ele>61.2</ele>
        <time>2018-05-19T12:17:58Z</time>
      </trkpt>
      <trkpt lat="43.13345" lon="2.70528">
        <ele>61.2</ele>
        <time>2018-05-19T12:18:03Z</time>
      </trkpt>
      <trkpt lat="43.1334" lon="2.70498">
        <ele>61.3</ele>
        <time>2018-05-19T12:18:07Z</time>
      </trkpt>
      <trkpt lat="43.13339" lon="2.7047">
        <ele>61.9</ele>
        <time>2018-05-19T12:18:13Z</time>
      </trkpt>
      <trkpt lat="43.13338" lon="2.70445">
        <ele>62.5</ele>
        <time>2018-05-19T12:18:18Z</time>
      </trkpt>
      <trkpt lat="43.13338" lon="2.70414">
        <ele>63.7</ele>
        <time>2018-05-19T12:18:23Z</time>
      </trkpt>
      <trkpt lat="43.13336" lon="2.70384">
        <ele>62.7</ele>
        <time>2018-05-19T12:18:28Z</time>
      </trkpt>
      <trkpt lat="43.13325" lon="2.70354">
        <ele>62.6</ele>
        <time>2018-05-19T12:18:32Z</time>
      </trkpt>
      <trkpt lat="43.13311" lon="2.70343">
        <ele>62.6</ele>
        <time>2018-05-19T12:18:38Z</time>
      </trkpt>
      <trkpt lat="43.13315" lon="2.7033">
        <ele>62.4</ele>
        <time>2018-05-19T12:18:42Z</time>
      </trkpt>
      <trkpt lat="43.13323" lon="2.70323">
        <ele>62.3</ele>
        <time>2018-05-19T12:18:48Z</time>
      </trkpt>
      <trkpt lat="43.13327" lon="2.70317">
        <ele>62.4</ele>
        <time>2018-05-19T12:18:53Z</time>
      </trkpt>
      <trkpt lat="43.13327" lon="2.70317">
        <ele>62.4</ele>
        <time>2018-05-19T12:18:58Z</time>
      </trkpt>
      <trkpt lat="43.13327" lon="2.70317">
        <ele>62.4</ele>
        <time>2018-05-19T12:19:03Z</time>
      </trkpt>
      <trkpt lat="43.13327" lon="2.70317">
        <ele>62.4</ele>
        <time>2018-05-19T12:19:08Z</time>
      </trkpt>
      <trkpt lat="43.13327" lon="2.70317">
        <ele>62.4</ele>
        <time>2018-05-19T12:19:13Z</time>
      </trkpt>
      <trkpt lat="43.13333" lon="2.70306">
        <ele>62.6</ele>
        <time>2018-05-19T12:19:27Z</time>
      </trkpt>
      <trkpt lat="43.13342" lon="2.70291">
        <ele>62.7</ele>
        <time>2018-05-19T12:19:33Z</time>
      </trkpt>
      <trkpt lat="43.13357" lon="2.70266">
        <ele>62.9</ele>
        <time>2018-05-19T12:19:38Z</time>
      </trkpt>
      <trkpt lat="43.13368" lon="2.70247">
        <ele>63.3</ele>
        <time>2018-05-19T12:19:43Z</time>
      </trkpt>
      <trkpt lat="43.13378" lon="2.70221">
        <ele>63.2</ele>
        <time>2018-05-19T12:19:47Z</time>
      </trkpt>
      <trkpt lat="43.13383" lon="2.7019">
        <ele>63.2</ele>
        <time>2018-05-19T12:19:53Z</time>
      </trkpt>
      <trkpt lat="43.13384" lon="2.70168">
        <ele>63.3</ele>
        <time>2018-05-19T12:19:58Z</time>
      </trkpt>
      <trkpt lat="43.13388" lon="2.70134">
        <ele>63.4</ele>
        <time>2018-05-19T12:20:03Z</time>
      </trkpt>
      <trkpt lat="43.13391" lon="2.70113">
        <ele>63.4</ele>
        <time>2018-05-19T12:20:08Z</time>
      </trkpt>
      <trkpt lat="43.13395" lon="2.7009">
        <ele>63.3</ele>
        <time>2018-05-19T12:20:12Z</time>
      </trkpt>
      <trkpt lat="43.134" lon="2.70077">
        <ele>63</ele>
        <time>2018-05-19T12:20:18Z</time>
      </trkpt>
      <trkpt lat="43.13405" lon="2.70073">
        <ele>63</ele>
        <time>2018-05-19T12:20:22Z</time>
      </trkpt>
      <trkpt lat="43.13417" lon="2.7007">
        <ele>63</ele>
        <time>2018-05-19T12:20:28Z</time>
      </trkpt>
      <trkpt lat="43.13433" lon="2.70064">
        <ele>62.8</ele>
        <time>2018-05-19T12:20:32Z</time>
      </trkpt>
      <trkpt lat="43.13445" lon="2.70057">
        <ele>62.8</ele>
        <time>2018-05-19T12:20:38Z</time>
      </trkpt>
      <trkpt lat="43.13454" lon="2.70049">
        <ele>62.8</ele>
        <time>2018-05-19T12:20:43Z</time>
      </trkpt>
      <trkpt lat="43.13454" lon="2.7005">
        <ele>62.8</ele>
        <time>2018-05-19T12:21:33Z</time>
      </trkpt>
      <trkpt lat="43.13471" lon="2.70045">
        <ele>62.8</ele>
        <time>2018-05-19T12:21:38Z</time>
      </trkpt>
      <trkpt lat="43.13484" lon="2.70035">
        <ele>62.8</ele>
        <time>2018-05-19T12:21:42Z</time>
      </trkpt>
      <trkpt lat="43.13503" lon="2.70022">
        <ele>64.5</ele>
        <time>2018-05-19T12:21:48Z</time>
      </trkpt>
      <trkpt lat="43.13516" lon="2.70014">
        <ele>64.8</ele>
        <time>2018-05-19T12:21:52Z</time>
      </trkpt>
      <trkpt lat="43.13534" lon="2.70003">
        <ele>65.8</ele>
        <time>2018-05-19T12:21:58Z</time>
      </trkpt>
      <trkpt lat="43.13553" lon="2.69994">
        <ele>69.8</ele>
        <time>2018-05-19T12:22:02Z</time>
      </trkpt>
      <trkpt lat="43.13566" lon="2.69991">
        <ele>70.7</ele>
        <time>2018-05-19T12:22:08Z</time>
      </trkpt>
      <trkpt lat="43.13586" lon="2.69997">
        <ele>72.5</ele>
        <time>2018-05-19T12:22:13Z</time>
      </trkpt>
      <trkpt lat="43.13599" lon="2.69996">
        <ele>73.5</ele>
        <time>2018-05-19T12:22:18Z</time>
      </trkpt>
      <trkpt lat="43.13616" lon="2.6999">
        <ele>74.2</ele>
        <time>2018-05-19T12:22:23Z</time>
      </trkpt>
      <trkpt lat="43.13626" lon="2.69979">
        <ele>74.6</ele>
        <time>2018-05-19T12:22:28Z</time>
      </trkpt>
      <trkpt lat="43.13641" lon="2.69957">
        <ele>75.4</ele>
        <time>2018-05-19T12:22:33Z</time>
      </trkpt>
      <trkpt lat="43.13651" lon="2.69943">
        <ele>76</ele>
        <time>2018-05-19T12:22:37Z</time>
      </trkpt>
      <trkpt lat="43.13668" lon="2.69926">
        <ele>77.6</ele>
        <time>2018-05-19T12:22:43Z</time>
      </trkpt>
      <trkpt lat="43.1368" lon="2.69913">
        <ele>78.2</ele>
        <time>2018-05-19T12:22:47Z</time>
      </trkpt>
      <trkpt lat="43.13683" lon="2.69888">
        <ele>78.3</ele>
        <time>2018-05-19T12:22:53Z</time>
      </trkpt>
      <trkpt lat="43.13681" lon="2.69869">
        <ele>78.3</ele>
        <time>2018-05-19T12:22:58Z</time>
      </trkpt>
      <trkpt lat="43.13674" lon="2.69846">
        <ele>78.2</ele>
        <time>2018-05-19T12:23:03Z</time>
      </trkpt>
      <trkpt lat="43.1367" lon="2.69832">
        <ele>78</ele>
        <time>2018-05-19T12:23:08Z</time>
      </trkpt>
      <trkpt lat="43.1366" lon="2.6981">
        <ele>78.2</ele>
        <time>2018-05-19T12:23:13Z</time>
      </trkpt>
      <trkpt lat="43.13651" lon="2.69799">
        <ele>78.3</ele>
        <time>2018-05-19T12:23:18Z</time>
      </trkpt>
      <trkpt lat="43.13643" lon="2.69789">
        <ele>78.3</ele>
        <time>2018-05-19T12:23:22Z</time>
      </trkpt>
      <trkpt lat="43.13633" lon="2.69779">
        <ele>78.4</ele>
        <time>2018-05-19T12:23:28Z</time>
      </trkpt>
      <trkpt lat="43.13624" lon="2.6976">
        <ele>78.5</ele>
        <time>2018-05-19T12:23:32Z</time>
      </trkpt>
      <trkpt lat="43.13619" lon="2.69742">
        <ele>78.6</ele>
        <time>2018-05-19T12:23:38Z</time>
      </trkpt>
      <trkpt lat="43.13613" lon="2.69715">
        <ele>78.7</ele>
        <time>2018-05-19T12:23:42Z</time>
      </trkpt>
      <trkpt lat="43.13605" lon="2.697">
        <ele>78.9</ele>
        <time>2018-05-19T12:23:48Z</time>
      </trkpt>
      <trkpt lat="43.13592" lon="2.69682">
        <ele>79.3</ele>
        <time>2018-05-19T12:23:52Z</time>
      </trkpt>
      <trkpt lat="43.1358" lon="2.69659">
        <ele>79.5</ele>
        <time>2018-05-19T12:23:58Z</time>
      </trkpt>
      <trkpt lat="43.13575" lon="2.69639">
        <ele>78.8</ele>
        <time>2018-05-19T12:24:02Z</time>
      </trkpt>
      <trkpt lat="43.13566" lon="2.69605">
        <ele>78.5</ele>
        <time>2018-05-19T12:24:07Z</time>
      </trkpt>
      <trkpt lat="43.13563" lon="2.69573">
        <ele>78.1</ele>
        <time>2018-05-19T12:24:12Z</time>
      </trkpt>
      <trkpt lat="43.13554" lon="2.69546">
        <ele>77.7</ele>
        <time>2018-05-19T12:24:17Z</time>
      </trkpt>
      <trkpt lat="43.13548" lon="2.69524">
        <ele>77.5</ele>
        <time>2018-05-19T12:24:23Z</time>
      </trkpt>
      <trkpt lat="43.13545" lon="2.69487">
        <ele>77.6</ele>
        <time>2018-05-19T12:24:27Z</time>
      </trkpt>
      <trkpt lat="43.13546" lon="2.69463">
        <ele>77.8</ele>
        <time>2018-05-19T12:24:33Z</time>
      </trkpt>
      <trkpt lat="43.13538" lon="2.69432">
        <ele>77.9</ele>
        <time>2018-05-19T12:24:37Z</time>
      </trkpt>
      <trkpt lat="43.13531" lon="2.69413">
        <ele>78.5</ele>
        <time>2018-05-19T12:24:43Z</time>
      </trkpt>
      <trkpt lat="43.13518" lon="2.69385">
        <ele>78.5</ele>
        <time>2018-05-19T12:24:47Z</time>
      </trkpt>
      <trkpt lat="43.1351" lon="2.69366">
        <ele>78.5</ele>
        <time>2018-05-19T12:24:53Z</time>
      </trkpt>
      <trkpt lat="43.13496" lon="2.69338">
        <ele>77.7</ele>
        <time>2018-05-19T12:24:57Z</time>
      </trkpt>
      <trkpt lat="43.13487" lon="2.69319">
        <ele>77.3</ele>
        <time>2018-05-19T12:25:02Z</time>
      </trkpt>
      <trkpt lat="43.13474" lon="2.69295">
        <ele>76.9</ele>
        <time>2018-05-19T12:25:08Z</time>
      </trkpt>
      <trkpt lat="43.13464" lon="2.69279">
        <ele>76.8</ele>
        <time>2018-05-19T12:25:12Z</time>
      </trkpt>
      <trkpt lat="43.13446" lon="2.69254">
        <ele>76.5</ele>
        <time>2018-05-19T12:25:18Z</time>
      </trkpt>
      <trkpt lat="43.13435" lon="2.69237">
        <ele>76.5</ele>
        <time>2018-05-19T12:25:22Z</time>
      </trkpt>
      <trkpt lat="43.13417" lon="2.69213">
        <ele>76.6</ele>
        <time>2018-05-19T12:25:28Z</time>
      </trkpt>
      <trkpt lat="43.13401" lon="2.69193">
        <ele>76.3</ele>
        <time>2018-05-19T12:25:32Z</time>
      </trkpt>
      <trkpt lat="43.1339" lon="2.69176">
        <ele>76.3</ele>
        <time>2018-05-19T12:25:38Z</time>
      </trkpt>
      <trkpt lat="43.13376" lon="2.69147">
        <ele>76.1</ele>
        <time>2018-05-19T12:25:42Z</time>
      </trkpt>
      <trkpt lat="43.13372" lon="2.69127">
        <ele>76</ele>
        <time>2018-05-19T12:25:47Z</time>
      </trkpt>
      <trkpt lat="43.13366" lon="2.69097">
        <ele>75.8</ele>
        <time>2018-05-19T12:25:52Z</time>
      </trkpt>
      <trkpt lat="43.13364" lon="2.69078">
        <ele>75.7</ele>
        <time>2018-05-19T12:25:57Z</time>
      </trkpt>
      <trkpt lat="43.13364" lon="2.69054">
        <ele>75.9</ele>
        <time>2018-05-19T12:26:03Z</time>
      </trkpt>
      <trkpt lat="43.13366" lon="2.69036">
        <ele>76</ele>
        <time>2018-05-19T12:26:07Z</time>
      </trkpt>
      <trkpt lat="43.13368" lon="2.69006">
        <ele>76.1</ele>
        <time>2018-05-19T12:26:13Z</time>
      </trkpt>
      <trkpt lat="43.1337" lon="2.68987">
        <ele>77</ele>
        <time>2018-05-19T12:26:17Z</time>
      </trkpt>
      <trkpt lat="43.13372" lon="2.68959">
        <ele>77.2</ele>
        <time>2018-05-19T12:26:23Z</time>
      </trkpt>
      <trkpt lat="43.13374" lon="2.6894">
        <ele>77.4</ele>
        <time>2018-05-19T12:26:28Z</time>
      </trkpt>
      <trkpt lat="43.13376" lon="2.68911">
        <ele>77.7</ele>
        <time>2018-05-19T12:26:32Z</time>
      </trkpt>
      <trkpt lat="43.13376" lon="2.68891">
        <ele>77.6</ele>
        <time>2018-05-19T12:26:37Z</time>
      </trkpt>
      <trkpt lat="43.13374" lon="2.68862">
        <ele>77.4</ele>
        <time>2018-05-19T12:26:42Z</time>
      </trkpt>
      <trkpt lat="43.13373" lon="2.68842">
        <ele>77.3</ele>
        <time>2018-05-19T12:26:48Z</time>
      </trkpt>
      <trkpt lat="43.13374" lon="2.68814">
        <ele>77.8</ele>
        <time>2018-05-19T12:26:52Z</time>
      </trkpt>
      <trkpt lat="43.13376" lon="2.68795">
        <ele>78</ele>
        <time>2018-05-19T12:26:58Z</time>
      </trkpt>
      <trkpt lat="43.13373" lon="2.68767">
        <ele>78.3</ele>
        <time>2018-05-19T12:27:02Z</time>
      </trkpt>
      <trkpt lat="43.13369" lon="2.68749">
        <ele>79.2</ele>
        <time>2018-05-19T12:27:08Z</time>
      </trkpt>
      <trkpt lat="43.13364" lon="2.68722">
        <ele>79.2</ele>
        <time>2018-05-19T12:27:12Z</time>
      </trkpt>
      <trkpt lat="43.1336" lon="2.68703">
        <ele>79.3</ele>
        <time>2018-05-19T12:27:18Z</time>
      </trkpt>
      <trkpt lat="43.13355" lon="2.68674">
        <ele>79.5</ele>
        <time>2018-05-19T12:27:22Z</time>
      </trkpt>
      <trkpt lat="43.13352" lon="2.68655">
        <ele>79.9</ele>
        <time>2018-05-19T12:27:27Z</time>
      </trkpt>
      <trkpt lat="43.13347" lon="2.68626">
        <ele>79.9</ele>
        <time>2018-05-19T12:27:33Z</time>
      </trkpt>
      <trkpt lat="43.13343" lon="2.6861">
        <ele>79.7</ele>
        <time>2018-05-19T12:27:37Z</time>
      </trkpt>
      <trkpt lat="43.13335" lon="2.68583">
        <ele>79.1</ele>
        <time>2018-05-19T12:27:43Z</time>
      </trkpt>
      <trkpt lat="43.13332" lon="2.68563">
        <ele>79.1</ele>
        <time>2018-05-19T12:27:47Z</time>
      </trkpt>
      <trkpt lat="43.13329" lon="2.68534">
        <ele>79.2</ele>
        <time>2018-05-19T12:27:53Z</time>
      </trkpt>
      <trkpt lat="43.13328" lon="2.68517">
        <ele>79.5</ele>
        <time>2018-05-19T12:27:57Z</time>
      </trkpt>
      <trkpt lat="43.13326" lon="2.6849">
        <ele>79.7</ele>
        <time>2018-05-19T12:28:03Z</time>
      </trkpt>
      <trkpt lat="43.13326" lon="2.68471">
        <ele>79.5</ele>
        <time>2018-05-19T12:28:07Z</time>
      </trkpt>
      <trkpt lat="43.13326" lon="2.68442">
        <ele>79.6</ele>
        <time>2018-05-19T12:28:12Z</time>
      </trkpt>
      <trkpt lat="43.13328" lon="2.68425">
        <ele>79.8</ele>
        <time>2018-05-19T12:28:17Z</time>
      </trkpt>
      <trkpt lat="43.13329" lon="2.68398">
        <ele>80.1</ele>
        <time>2018-05-19T12:28:22Z</time>
      </trkpt>
      <trkpt lat="43.13328" lon="2.68382">
        <ele>80.3</ele>
        <time>2018-05-19T12:28:28Z</time>
      </trkpt>
      <trkpt lat="43.13321" lon="2.68361">
        <ele>80.6</ele>
        <time>2018-05-19T12:28:32Z</time>
      </trkpt>
      <trkpt lat="43.13318" lon="2.68347">
        <ele>80.8</ele>
        <time>2018-05-19T12:28:38Z</time>
      </trkpt>
      <trkpt lat="43.13314" lon="2.68321">
        <ele>81.4</ele>
        <time>2018-05-19T12:28:42Z</time>
      </trkpt>
      <trkpt lat="43.1331" lon="2.68304">
        <ele>81.3</ele>
        <time>2018-05-19T12:28:48Z</time>
      </trkpt>
      <trkpt lat="43.13304" lon="2.6828">
        <ele>81.4</ele>
        <time>2018-05-19T12:28:52Z</time>
      </trkpt>
      <trkpt lat="43.133" lon="2.68263">
        <ele>81.5</ele>
        <time>2018-05-19T12:28:58Z</time>
      </trkpt>
      <trkpt lat="43.13295" lon="2.68238">
        <ele>82</ele>
        <time>2018-05-19T12:29:02Z</time>
      </trkpt>
      <trkpt lat="43.13292" lon="2.68221">
        <ele>81.9</ele>
        <time>2018-05-19T12:29:07Z</time>
      </trkpt>
      <trkpt lat="43.13288" lon="2.68194">
        <ele>82</ele>
        <time>2018-05-19T12:29:12Z</time>
      </trkpt>
      <trkpt lat="43.13287" lon="2.68177">
        <ele>81.9</ele>
        <time>2018-05-19T12:29:18Z</time>
      </trkpt>
      <trkpt lat="43.13286" lon="2.68152">
        <ele>82.6</ele>
        <time>2018-05-19T12:29:23Z</time>
      </trkpt>
      <trkpt lat="43.13286" lon="2.68137">
        <ele>82.7</ele>
        <time>2018-05-19T12:29:27Z</time>
      </trkpt>
      <trkpt lat="43.13286" lon="2.6811">
        <ele>82.9</ele>
        <time>2018-05-19T12:29:33Z</time>
      </trkpt>
      <trkpt lat="43.13285" lon="2.68091">
        <ele>82.9</ele>
        <time>2018-05-19T12:29:37Z</time>
      </trkpt>
      <trkpt lat="43.13284" lon="2.68067">
        <ele>84.1</ele>
        <time>2018-05-19T12:29:43Z</time>
      </trkpt>
      <trkpt lat="43.13283" lon="2.68048">
        <ele>84.3</ele>
        <time>2018-05-19T12:29:47Z</time>
      </trkpt>
      <trkpt lat="43.13288" lon="2.6802">
        <ele>84.9</ele>
        <time>2018-05-19T12:29:52Z</time>
      </trkpt>
      <trkpt lat="43.1329" lon="2.68002">
        <ele>85.1</ele>
        <time>2018-05-19T12:29:58Z</time>
      </trkpt>
      <trkpt lat="43.13288" lon="2.67975">
        <ele>86.4</ele>
        <time>2018-05-19T12:30:02Z</time>
      </trkpt>
      <trkpt lat="43.13286" lon="2.67958">
        <ele>86.5</ele>
        <time>2018-05-19T12:30:08Z</time>
      </trkpt>
      <trkpt lat="43.13284" lon="2.67931">
        <ele>86.4</ele>
        <time>2018-05-19T12:30:12Z</time>
      </trkpt>
      <trkpt lat="43.13282" lon="2.67916">
        <ele>87</ele>
        <time>2018-05-19T12:30:18Z</time>
      </trkpt>
      <trkpt lat="43.1328" lon="2.67893">
        <ele>87.2</ele>
        <time>2018-05-19T12:30:22Z</time>
      </trkpt>
      <trkpt lat="43.13279" lon="2.67877">
        <ele>87.3</ele>
        <time>2018-05-19T12:30:28Z</time>
      </trkpt>
      <trkpt lat="43.13276" lon="2.67853">
        <ele>87.1</ele>
        <time>2018-05-19T12:30:32Z</time>
      </trkpt>
      <trkpt lat="43.13273" lon="2.67838">
        <ele>86.7</ele>
        <time>2018-05-19T12:30:38Z</time>
      </trkpt>
      <trkpt lat="43.1327" lon="2.67814">
        <ele>87.5</ele>
        <time>2018-05-19T12:30:42Z</time>
      </trkpt>
      <trkpt lat="43.13267" lon="2.67798">
        <ele>87.9</ele>
        <time>2018-05-19T12:30:48Z</time>
      </trkpt>
      <trkpt lat="43.13263" lon="2.67773">
        <ele>87.6</ele>
        <time>2018-05-19T12:30:52Z</time>
      </trkpt>
      <trkpt lat="43.13262" lon="2.67756">
        <ele>86.8</ele>
        <time>2018-05-19T12:30:58Z</time>
      </trkpt>
      <trkpt lat="43.1326" lon="2.67729">
        <ele>88.1</ele>
        <time>2018-05-19T12:31:03Z</time>
      </trkpt>
      <trkpt lat="43.13258" lon="2.67712">
        <ele>88.6</ele>
        <time>2018-05-19T12:31:07Z</time>
      </trkpt>
      <trkpt lat="43.13257" lon="2.67688">
        <ele>88.2</ele>
        <time>2018-05-19T12:31:13Z</time>
      </trkpt>
      <trkpt lat="43.13254" lon="2.6767">
        <ele>86.8</ele>
        <time>2018-05-19T12:31:17Z</time>
      </trkpt>
      <trkpt lat="43.13252" lon="2.67646">
        <ele>88.4</ele>
        <time>2018-05-19T12:31:23Z</time>
      </trkpt>
      <trkpt lat="43.13252" lon="2.6763">
        <ele>88.9</ele>
        <time>2018-05-19T12:31:27Z</time>
      </trkpt>
      <trkpt lat="43.13252" lon="2.67609">
        <ele>88.7</ele>
        <time>2018-05-19T12:31:32Z</time>
      </trkpt>
      <trkpt lat="43.13253" lon="2.67593">
        <ele>87.5</ele>
        <time>2018-05-19T12:31:37Z</time>
      </trkpt>
      <trkpt lat="43.13254" lon="2.67566">
        <ele>87.9</ele>
        <time>2018-05-19T12:31:42Z</time>
      </trkpt>
      <trkpt lat="43.13254" lon="2.67548">
        <ele>88.5</ele>
        <time>2018-05-19T12:31:48Z</time>
      </trkpt>
      <trkpt lat="43.13255" lon="2.67523">
        <ele>88.1</ele>
        <time>2018-05-19T12:31:52Z</time>
      </trkpt>
      <trkpt lat="43.13255" lon="2.67506">
        <ele>87</ele>
        <time>2018-05-19T12:31:58Z</time>
      </trkpt>
      <trkpt lat="43.13254" lon="2.67479">
        <ele>87.4</ele>
        <time>2018-05-19T12:32:02Z</time>
      </trkpt>
      <trkpt lat="43.13252" lon="2.6746">
        <ele>87.7</ele>
        <time>2018-05-19T12:32:08Z</time>
      </trkpt>
      <trkpt lat="43.13247" lon="2.67432">
        <ele>87</ele>
        <time>2018-05-19T12:32:12Z</time>
      </trkpt>
      <trkpt lat="43.13242" lon="2.67414">
        <ele>87.8</ele>
        <time>2018-05-19T12:32:18Z</time>
      </trkpt>
      <trkpt lat="43.13238" lon="2.6739">
        <ele>89</ele>
        <time>2018-05-19T12:32:22Z</time>
      </trkpt>
      <trkpt lat="43.13237" lon="2.67374">
        <ele>89.4</ele>
        <time>2018-05-19T12:32:27Z</time>
      </trkpt>
      <trkpt lat="43.13238" lon="2.67355">
        <ele>89.6</ele>
        <time>2018-05-19T12:32:33Z</time>
      </trkpt>
      <trkpt lat="43.13239" lon="2.67342">
        <ele>89.5</ele>
        <time>2018-05-19T12:32:37Z</time>
      </trkpt>
      <trkpt lat="43.13239" lon="2.67321">
        <ele>90.4</ele>
        <time>2018-05-19T12:32:43Z</time>
      </trkpt>
      <trkpt lat="43.1324" lon="2.67312">
        <ele>90.7</ele>
        <time>2018-05-19T12:32:47Z</time>
      </trkpt>
      <trkpt lat="43.1324" lon="2.67294">
        <ele>91</ele>
        <time>2018-05-19T12:32:53Z</time>
      </trkpt>
      <trkpt lat="43.1324" lon="2.67277">
        <ele>90.9</ele>
        <time>2018-05-19T12:32:58Z</time>
      </trkpt>
      <trkpt lat="43.1324" lon="2.67268">
        <ele>90.6</ele>
        <time>2018-05-19T12:33:03Z</time>
      </trkpt>
      <trkpt lat="43.13239" lon="2.67246">
        <ele>90.6</ele>
        <time>2018-05-19T12:33:07Z</time>
      </trkpt>
      <trkpt lat="43.13239" lon="2.67232">
        <ele>91.3</ele>
        <time>2018-05-19T12:33:12Z</time>
      </trkpt>
      <trkpt lat="43.13239" lon="2.67211">
        <ele>92</ele>
        <time>2018-05-19T12:33:18Z</time>
      </trkpt>
      <trkpt lat="43.13238" lon="2.67198">
        <ele>92.1</ele>
        <time>2018-05-19T12:33:22Z</time>
      </trkpt>
      <trkpt lat="43.13236" lon="2.67178">
        <ele>91.7</ele>
        <time>2018-05-19T12:33:28Z</time>
      </trkpt>
      <trkpt lat="43.13235" lon="2.67164">
        <ele>92</ele>
        <time>2018-05-19T12:33:32Z</time>
      </trkpt>
      <trkpt lat="43.13234" lon="2.67145">
        <ele>92.8</ele>
        <time>2018-05-19T12:33:38Z</time>
      </trkpt>
      <trkpt lat="43.13234" lon="2.67132">
        <ele>93.1</ele>
        <time>2018-05-19T12:33:42Z</time>
      </trkpt>
      <trkpt lat="43.13232" lon="2.67111">
        <ele>93.2</ele>
        <time>2018-05-19T12:33:48Z</time>
      </trkpt>
      <trkpt lat="43.13231" lon="2.67097">
        <ele>93.1</ele>
        <time>2018-05-19T12:33:52Z</time>
      </trkpt>
      <trkpt lat="43.13227" lon="2.67077">
        <ele>93.3</ele>
        <time>2018-05-19T12:33:58Z</time>
      </trkpt>
      <trkpt lat="43.13224" lon="2.67061">
        <ele>93.7</ele>
        <time>2018-05-19T12:34:03Z</time>
      </trkpt>
      <trkpt lat="43.13221" lon="2.67045">
        <ele>93.9</ele>
        <time>2018-05-19T12:34:08Z</time>
      </trkpt>
      <trkpt lat="43.13217" lon="2.67021">
        <ele>93.9</ele>
        <time>2018-05-19T12:34:13Z</time>
      </trkpt>
      <trkpt lat="43.13215" lon="2.67007">
        <ele>94</ele>
        <time>2018-05-19T12:34:17Z</time>
      </trkpt>
      <trkpt lat="43.13211" lon="2.66983">
        <ele>94.2</ele>
        <time>2018-05-19T12:34:23Z</time>
      </trkpt>
      <trkpt lat="43.13207" lon="2.66968">
        <ele>94.3</ele>
        <time>2018-05-19T12:34:28Z</time>
      </trkpt>
      <trkpt lat="43.13204" lon="2.66947">
        <ele>94.4</ele>
        <time>2018-05-19T12:34:33Z</time>
      </trkpt>
      <trkpt lat="43.13201" lon="2.66934">
        <ele>94.6</ele>
        <time>2018-05-19T12:34:38Z</time>
      </trkpt>
      <trkpt lat="43.13195" lon="2.66908">
        <ele>94.4</ele>
        <time>2018-05-19T12:34:43Z</time>
      </trkpt>
      <trkpt lat="43.13193" lon="2.66892">
        <ele>94.2</ele>
        <time>2018-05-19T12:34:47Z</time>
      </trkpt>
      <trkpt lat="43.13194" lon="2.66869">
        <ele>93.9</ele>
        <time>2018-05-19T12:34:53Z</time>
      </trkpt>
      <trkpt lat="43.13192" lon="2.6685">
        <ele>93.9</ele>
        <time>2018-05-19T12:34:58Z</time>
      </trkpt>
      <trkpt lat="43.13189" lon="2.66824">
        <ele>94</ele>
        <time>2018-05-19T12:35:02Z</time>
      </trkpt>
      <trkpt lat="43.13188" lon="2.66807">
        <ele>93.9</ele>
        <time>2018-05-19T12:35:07Z</time>
      </trkpt>
      <trkpt lat="43.13185" lon="2.66782">
        <ele>94.1</ele>
        <time>2018-05-19T12:35:13Z</time>
      </trkpt>
      <trkpt lat="43.13183" lon="2.66765">
        <ele>94.5</ele>
        <time>2018-05-19T12:35:18Z</time>
      </trkpt>
      <trkpt lat="43.13179" lon="2.6674">
        <ele>95</ele>
        <time>2018-05-19T12:35:22Z</time>
      </trkpt>
      <trkpt lat="43.13176" lon="2.66724">
        <ele>94.7</ele>
        <time>2018-05-19T12:35:28Z</time>
      </trkpt>
      <trkpt lat="43.13171" lon="2.66702">
        <ele>94.5</ele>
        <time>2018-05-19T12:35:32Z</time>
      </trkpt>
      <trkpt lat="43.13168" lon="2.66687">
        <ele>94.6</ele>
        <time>2018-05-19T12:35:38Z</time>
      </trkpt>
      <trkpt lat="43.13164" lon="2.66667">
        <ele>95.3</ele>
        <time>2018-05-19T12:35:43Z</time>
      </trkpt>
      <trkpt lat="43.13162" lon="2.66655">
        <ele>95.6</ele>
        <time>2018-05-19T12:35:47Z</time>
      </trkpt>
      <trkpt lat="43.13159" lon="2.66633">
        <ele>95.8</ele>
        <time>2018-05-19T12:35:52Z</time>
      </trkpt>
      <trkpt lat="43.13156" lon="2.66619">
        <ele>95.6</ele>
        <time>2018-05-19T12:35:58Z</time>
      </trkpt>
      <trkpt lat="43.13151" lon="2.66594">
        <ele>94.8</ele>
        <time>2018-05-19T12:36:03Z</time>
      </trkpt>
      <trkpt lat="43.13148" lon="2.66578">
        <ele>94.4</ele>
        <time>2018-05-19T12:36:07Z</time>
      </trkpt>
      <trkpt lat="43.13145" lon="2.66553">
        <ele>95</ele>
        <time>2018-05-19T12:36:13Z</time>
      </trkpt>
      <trkpt lat="43.13144" lon="2.66537">
        <ele>95.1</ele>
        <time>2018-05-19T12:36:17Z</time>
      </trkpt>
      <trkpt lat="43.13148" lon="2.66512">
        <ele>94.9</ele>
        <time>2018-05-19T12:36:23Z</time>
      </trkpt>
      <trkpt lat="43.13151" lon="2.66492">
        <ele>95</ele>
        <time>2018-05-19T12:36:28Z</time>
      </trkpt>
      <trkpt lat="43.13155" lon="2.66462">
        <ele>95.5</ele>
        <time>2018-05-19T12:36:33Z</time>
      </trkpt>
      <trkpt lat="43.13155" lon="2.66446">
        <ele>95.6</ele>
        <time>2018-05-19T12:36:38Z</time>
      </trkpt>
      <trkpt lat="43.13157" lon="2.66418">
        <ele>95.4</ele>
        <time>2018-05-19T12:36:43Z</time>
      </trkpt>
      <trkpt lat="43.13156" lon="2.66404">
        <ele>95.8</ele>
        <time>2018-05-19T12:36:48Z</time>
      </trkpt>
      <trkpt lat="43.13154" lon="2.66382">
        <ele>96.1</ele>
        <time>2018-05-19T12:36:52Z</time>
      </trkpt>
      <trkpt lat="43.13153" lon="2.66366">
        <ele>96.2</ele>
        <time>2018-05-19T12:36:58Z</time>
      </trkpt>
      <trkpt lat="43.13152" lon="2.66345">
        <ele>96.2</ele>
        <time>2018-05-19T12:37:02Z</time>
      </trkpt>
      <trkpt lat="43.1315" lon="2.66331">
        <ele>96.5</ele>
        <time>2018-05-19T12:37:08Z</time>
      </trkpt>
      <trkpt lat="43.13146" lon="2.66311">
        <ele>96.7</ele>
        <time>2018-05-19T12:37:12Z</time>
      </trkpt>
      <trkpt lat="43.13144" lon="2.66297">
        <ele>96.9</ele>
        <time>2018-05-19T12:37:18Z</time>
      </trkpt>
      <trkpt lat="43.13141" lon="2.66276">
        <ele>97</ele>
        <time>2018-05-19T12:37:22Z</time>
      </trkpt>
      <trkpt lat="43.13138" lon="2.66262">
        <ele>97.1</ele>
        <time>2018-05-19T12:37:28Z</time>
      </trkpt>
      <trkpt lat="43.13135" lon="2.66243">
        <ele>97.7</ele>
        <time>2018-05-19T12:37:32Z</time>
      </trkpt>
      <trkpt lat="43.13134" lon="2.66229">
        <ele>97.8</ele>
        <time>2018-05-19T12:37:37Z</time>
      </trkpt>
      <trkpt lat="43.1313" lon="2.66208">
        <ele>98</ele>
        <time>2018-05-19T12:37:42Z</time>
      </trkpt>
      <trkpt lat="43.13128" lon="2.66193">
        <ele>98.1</ele>
        <time>2018-05-19T12:37:47Z</time>
      </trkpt>
      <trkpt lat="43.13123" lon="2.66172">
        <ele>98.2</ele>
        <time>2018-05-19T12:37:53Z</time>
      </trkpt>
      <trkpt lat="43.13119" lon="2.66158">
        <ele>98.9</ele>
        <time>2018-05-19T12:37:58Z</time>
      </trkpt>
      <trkpt lat="43.13114" lon="2.66139">
        <ele>99.1</ele>
        <time>2018-05-19T12:38:03Z</time>
      </trkpt>
      <trkpt lat="43.13111" lon="2.66126">
        <ele>99.2</ele>
        <time>2018-05-19T12:38:07Z</time>
      </trkpt>
      <trkpt lat="43.13105" lon="2.66108">
        <ele>99.4</ele>
        <time>2018-05-19T12:38:13Z</time>
      </trkpt>
      <trkpt lat="43.13101" lon="2.66096">
        <ele>99.6</ele>
        <time>2018-05-19T12:38:17Z</time>
      </trkpt>
      <trkpt lat="43.13095" lon="2.66077">
        <ele>100.5</ele>
        <time>2018-05-19T12:38:23Z</time>
      </trkpt>
      <trkpt lat="43.13092" lon="2.66065">
        <ele>100.8</ele>
        <time>2018-05-19T12:38:28Z</time>
      </trkpt>
      <trkpt lat="43.13087" lon="2.66044">
        <ele>101.3</ele>
        <time>2018-05-19T12:38:33Z</time>
      </trkpt>
      <trkpt lat="43.13083" lon="2.66031">
        <ele>102.2</ele>
        <time>2018-05-19T12:38:37Z</time>
      </trkpt>
      <trkpt lat="43.13079" lon="2.66017">
        <ele>102.6</ele>
        <time>2018-05-19T12:38:42Z</time>
      </trkpt>
      <trkpt lat="43.13071" lon="2.66">
        <ele>102.8</ele>
        <time>2018-05-19T12:38:48Z</time>
      </trkpt>
      <trkpt lat="43.13067" lon="2.65987">
        <ele>104.7</ele>
        <time>2018-05-19T12:38:52Z</time>
      </trkpt>
      <trkpt lat="43.1306" lon="2.65972">
        <ele>105.4</ele>
        <time>2018-05-19T12:38:58Z</time>
      </trkpt>
      <trkpt lat="43.13057" lon="2.65958">
        <ele>105.8</ele>
        <time>2018-05-19T12:39:02Z</time>
      </trkpt>
      <trkpt lat="43.13053" lon="2.65945">
        <ele>106.2</ele>
        <time>2018-05-19T12:39:08Z</time>
      </trkpt>
      <trkpt lat="43.1305" lon="2.65931">
        <ele>106.5</ele>
        <time>2018-05-19T12:39:12Z</time>
      </trkpt>
      <trkpt lat="43.13049" lon="2.65914">
        <ele>108.2</ele>
        <time>2018-05-19T12:39:17Z</time>
      </trkpt>
      <trkpt lat="43.13047" lon="2.65905">
        <ele>108.2</ele>
        <time>2018-05-19T12:39:22Z</time>
      </trkpt>
      <trkpt lat="43.13044" lon="2.65888">
        <ele>108.4</ele>
        <time>2018-05-19T12:39:27Z</time>
      </trkpt>
      <trkpt lat="43.1304" lon="2.65872">
        <ele>108.5</ele>
        <time>2018-05-19T12:39:33Z</time>
      </trkpt>
      <trkpt lat="43.13036" lon="2.65857">
        <ele>108.7</ele>
        <time>2018-05-19T12:39:37Z</time>
      </trkpt>
      <trkpt lat="43.13033" lon="2.65843">
        <ele>108.8</ele>
        <time>2018-05-19T12:39:43Z</time>
      </trkpt>
      <trkpt lat="43.1303" lon="2.65836">
        <ele>108.9</ele>
        <time>2018-05-19T12:39:47Z</time>
      </trkpt>
      <trkpt lat="43.13024" lon="2.65823">
        <ele>110</ele>
        <time>2018-05-19T12:39:53Z</time>
      </trkpt>
      <trkpt lat="43.13017" lon="2.6581">
        <ele>110.2</ele>
        <time>2018-05-19T12:39:58Z</time>
      </trkpt>
      <trkpt lat="43.13011" lon="2.65799">
        <ele>110.4</ele>
        <time>2018-05-19T12:40:03Z</time>
      </trkpt>
      <trkpt lat="43.13003" lon="2.65783">
        <ele>110.7</ele>
        <time>2018-05-19T12:40:07Z</time>
      </trkpt>
      <trkpt lat="43.12996" lon="2.65771">
        <ele>110.8</ele>
        <time>2018-05-19T12:40:13Z</time>
      </trkpt>
      <trkpt lat="43.12992" lon="2.65763">
        <ele>111</ele>
        <time>2018-05-19T12:40:17Z</time>
      </trkpt>
      <trkpt lat="43.12986" lon="2.65747">
        <ele>111.6</ele>
        <time>2018-05-19T12:40:22Z</time>
      </trkpt>
      <trkpt lat="43.12982" lon="2.65729">
        <ele>111.3</ele>
        <time>2018-05-19T12:40:28Z</time>
      </trkpt>
      <trkpt lat="43.12978" lon="2.65718">
        <ele>111.2</ele>
        <time>2018-05-19T12:40:33Z</time>
      </trkpt>
      <trkpt lat="43.12971" lon="2.65699">
        <ele>111.2</ele>
        <time>2018-05-19T12:40:38Z</time>
      </trkpt>
      <trkpt lat="43.12968" lon="2.65687">
        <ele>111.1</ele>
        <time>2018-05-19T12:40:42Z</time>
      </trkpt>
      <trkpt lat="43.12962" lon="2.65664">
        <ele>110.5</ele>
        <time>2018-05-19T12:40:48Z</time>
      </trkpt>
      <trkpt lat="43.12956" lon="2.6565">
        <ele>110.2</ele>
        <time>2018-05-19T12:40:52Z</time>
      </trkpt>
      <trkpt lat="43.12945" lon="2.65623">
        <ele>109.7</ele>
        <time>2018-05-19T12:40:58Z</time>
      </trkpt>
      <trkpt lat="43.12923" lon="2.65589">
        <ele>107.9</ele>
        <time>2018-05-19T12:41:02Z</time>
      </trkpt>
      <trkpt lat="43.1292" lon="2.65545">
        <ele>108.3</ele>
        <time>2018-05-19T12:41:08Z</time>
      </trkpt>
      <trkpt lat="43.12925" lon="2.65515">
        <ele>108.3</ele>
        <time>2018-05-19T12:41:12Z</time>
      </trkpt>
      <trkpt lat="43.12929" lon="2.6549">
        <ele>108.6</ele>
        <time>2018-05-19T12:41:17Z</time>
      </trkpt>
      <trkpt lat="43.12925" lon="2.65474">
        <ele>109</ele>
        <time>2018-05-19T12:41:23Z</time>
      </trkpt>
      <trkpt lat="43.12924" lon="2.65454">
        <ele>109.4</ele>
        <time>2018-05-19T12:41:27Z</time>
      </trkpt>
      <trkpt lat="43.12925" lon="2.65442">
        <ele>109.8</ele>
        <time>2018-05-19T12:41:33Z</time>
      </trkpt>
      <trkpt lat="43.12927" lon="2.65426">
        <ele>110.2</ele>
        <time>2018-05-19T12:41:37Z</time>
      </trkpt>
      <trkpt lat="43.12928" lon="2.65403">
        <ele>111.3</ele>
        <time>2018-05-19T12:41:43Z</time>
      </trkpt>
      <trkpt lat="43.12928" lon="2.65389">
        <ele>111.6</ele>
        <time>2018-05-19T12:41:47Z</time>
      </trkpt>
      <trkpt lat="43.12926" lon="2.65369">
        <ele>112.2</ele>
        <time>2018-05-19T12:41:53Z</time>
      </trkpt>
      <trkpt lat="43.12926" lon="2.65356">
        <ele>112.8</ele>
        <time>2018-05-19T12:41:58Z</time>
      </trkpt>
      <trkpt lat="43.12922" lon="2.65337">
        <ele>114.2</ele>
        <time>2018-05-19T12:42:03Z</time>
      </trkpt>
      <trkpt lat="43.1292" lon="2.65324">
        <ele>115</ele>
        <time>2018-05-19T12:42:07Z</time>
      </trkpt>
      <trkpt lat="43.12918" lon="2.65308">
        <ele>115.3</ele>
        <time>2018-05-19T12:42:12Z</time>
      </trkpt>
      <trkpt lat="43.12918" lon="2.65299">
        <ele>115.5</ele>
        <time>2018-05-19T12:42:17Z</time>
      </trkpt>
      <trkpt lat="43.12915" lon="2.65285">
        <ele>117.2</ele>
        <time>2018-05-19T12:42:23Z</time>
      </trkpt>
      <trkpt lat="43.12915" lon="2.65285">
        <ele>117.2</ele>
        <time>2018-05-19T12:42:28Z</time>
      </trkpt>
      <trkpt lat="43.12915" lon="2.65285">
        <ele>117.2</ele>
        <time>2018-05-19T12:42:33Z</time>
      </trkpt>
      <trkpt lat="43.12915" lon="2.65285">
        <ele>117.2</ele>
        <time>2018-05-19T12:42:38Z</time>
      </trkpt>
      <trkpt lat="43.1291" lon="2.65283">
        <ele>117.3</ele>
        <time>2018-05-19T12:43:48Z</time>
      </trkpt>
      <trkpt lat="43.12912" lon="2.65266">
        <ele>118</ele>
        <time>2018-05-19T12:43:53Z</time>
      </trkpt>
      <trkpt lat="43.12912" lon="2.65249">
        <ele>119.2</ele>
        <time>2018-05-19T12:43:58Z</time>
      </trkpt>
      <trkpt lat="43.12912" lon="2.65228">
        <ele>119.6</ele>
        <time>2018-05-19T12:44:03Z</time>
      </trkpt>
      <trkpt lat="43.12911" lon="2.65213">
        <ele>119.9</ele>
        <time>2018-05-19T12:44:07Z</time>
      </trkpt>
      <trkpt lat="43.12908" lon="2.65189">
        <ele>120.3</ele>
        <time>2018-05-19T12:44:12Z</time>
      </trkpt>
      <trkpt lat="43.12906" lon="2.65174">
        <ele>120.6</ele>
        <time>2018-05-19T12:44:17Z</time>
      </trkpt>
      <trkpt lat="43.12912" lon="2.65153">
        <ele>121</ele>
        <time>2018-05-19T12:44:22Z</time>
      </trkpt>
      <trkpt lat="43.12915" lon="2.65139">
        <ele>121</ele>
        <time>2018-05-19T12:44:28Z</time>
      </trkpt>
      <trkpt lat="43.12911" lon="2.6512">
        <ele>121</ele>
        <time>2018-05-19T12:44:32Z</time>
      </trkpt>
      <trkpt lat="43.129" lon="2.65116">
        <ele>121</ele>
        <time>2018-05-19T12:44:38Z</time>
      </trkpt>
      <trkpt lat="43.12885" lon="2.65106">
        <ele>121</ele>
        <time>2018-05-19T12:44:42Z</time>
      </trkpt>
      <trkpt lat="43.12886" lon="2.65098">
        <ele>121</ele>
        <time>2018-05-19T12:44:48Z</time>
      </trkpt>
      <trkpt lat="43.12885" lon="2.65091">
        <ele>121</ele>
        <time>2018-05-19T12:44:52Z</time>
      </trkpt>
      <trkpt lat="43.1288" lon="2.65089">
        <ele>121</ele>
        <time>2018-05-19T12:44:58Z</time>
      </trkpt>
      <trkpt lat="43.1288" lon="2.65089">
        <ele>121</ele>
        <time>2018-05-19T12:45:02Z</time>
      </trkpt>
      <trkpt lat="43.1288" lon="2.65089">
        <ele>121</ele>
        <time>2018-05-19T12:45:08Z</time>
      </trkpt>
      <trkpt lat="43.1288" lon="2.65089">
        <ele>121</ele>
        <time>2018-05-19T12:45:12Z</time>
      </trkpt>
      <trkpt lat="43.1288" lon="2.65089">
        <ele>121</ele>
        <time>2018-05-19T12:45:17Z</time>
      </trkpt>
      <trkpt lat="43.12868" lon="2.65074">
        <ele>120.8</ele>
        <time>2018-05-19T12:45:27Z</time>
      </trkpt>
      <trkpt lat="43.12847" lon="2.65071">
        <ele>120.8</ele>
        <time>2018-05-19T12:45:33Z</time>
      </trkpt>
      <trkpt lat="43.12823" lon="2.65067">
        <ele>120</ele>
        <time>2018-05-19T12:45:37Z</time>
      </trkpt>
      <trkpt lat="43.12792" lon="2.65063">
        <ele>119.3</ele>
        <time>2018-05-19T12:45:43Z</time>
      </trkpt>
      <trkpt lat="43.1277" lon="2.6506">
        <ele>119</ele>
        <time>2018-05-19T12:45:47Z</time>
      </trkpt>
      <trkpt lat="43.12749" lon="2.6505">
        <ele>118</ele>
        <time>2018-05-19T12:45:53Z</time>
      </trkpt>
      <trkpt lat="43.1273" lon="2.65034">
        <ele>118</ele>
        <time>2018-05-19T12:45:58Z</time>
      </trkpt>
      <trkpt lat="43.12718" lon="2.65019">
        <ele>118</ele>
        <time>2018-05-19T12:46:02Z</time>
      </trkpt>
      <trkpt lat="43.12696" lon="2.65">
        <ele>118.5</ele>
        <time>2018-05-19T12:46:07Z</time>
      </trkpt>
      <trkpt lat="43.12677" lon="2.64984">
        <ele>118.4</ele>
        <time>2018-05-19T12:46:12Z</time>
      </trkpt>
      <trkpt lat="43.12664" lon="2.64971">
        <ele>117.7</ele>
        <time>2018-05-19T12:46:18Z</time>
      </trkpt>
      <trkpt lat="43.12644" lon="2.64952">
        <ele>117.6</ele>
        <time>2018-05-19T12:46:22Z</time>
      </trkpt>
      <trkpt lat="43.12633" lon="2.64938">
        <ele>117.6</ele>
        <time>2018-05-19T12:46:28Z</time>
      </trkpt>
      <trkpt lat="43.12615" lon="2.64918">
        <ele>117.7</ele>
        <time>2018-05-19T12:46:32Z</time>
      </trkpt>
      <trkpt lat="43.12605" lon="2.64904">
        <ele>118.6</ele>
        <time>2018-05-19T12:46:38Z</time>
      </trkpt>
      <trkpt lat="43.12591" lon="2.64882">
        <ele>118.9</ele>
        <time>2018-05-19T12:46:42Z</time>
      </trkpt>
      <trkpt lat="43.12584" lon="2.64865">
        <ele>119.2</ele>
        <time>2018-05-19T12:46:48Z</time>
      </trkpt>
      <trkpt lat="43.12574" lon="2.64839">
        <ele>119.3</ele>
        <time>2018-05-19T12:46:52Z</time>
      </trkpt>
      <trkpt lat="43.12573" lon="2.64819">
        <ele>119.3</ele>
        <time>2018-05-19T12:46:58Z</time>
      </trkpt>
      <trkpt lat="43.12575" lon="2.64791">
        <ele>118.8</ele>
        <time>2018-05-19T12:47:02Z</time>
      </trkpt>
      <trkpt lat="43.12576" lon="2.6477">
        <ele>118.5</ele>
        <time>2018-05-19T12:47:07Z</time>
      </trkpt>
      <trkpt lat="43.12577" lon="2.64738">
        <ele>117.9</ele>
        <time>2018-05-19T12:47:13Z</time>
      </trkpt>
      <trkpt lat="43.12577" lon="2.64716">
        <ele>117.6</ele>
        <time>2018-05-19T12:47:17Z</time>
      </trkpt>
      <trkpt lat="43.12578" lon="2.64681">
        <ele>116.8</ele>
        <time>2018-05-19T12:47:23Z</time>
      </trkpt>
      <trkpt lat="43.12579" lon="2.64648">
        <ele>116.1</ele>
        <time>2018-05-19T12:47:27Z</time>
      </trkpt>
      <trkpt lat="43.12581" lon="2.64616">
        <ele>115.9</ele>
        <time>2018-05-19T12:47:33Z</time>
      </trkpt>
      <trkpt lat="43.12582" lon="2.64581">
        <ele>115</ele>
        <time>2018-05-19T12:47:37Z</time>
      </trkpt>
      <trkpt lat="43.12583" lon="2.64547">
        <ele>115.2</ele>
        <time>2018-05-19T12:47:42Z</time>
      </trkpt>
      <trkpt lat="43.12585" lon="2.6451">
        <ele>115.3</ele>
        <time>2018-05-19T12:47:47Z</time>
      </trkpt>
      <trkpt lat="43.12587" lon="2.64473">
        <ele>114.7</ele>
        <time>2018-05-19T12:47:52Z</time>
      </trkpt>
      <trkpt lat="43.12588" lon="2.64437">
        <ele>114</ele>
        <time>2018-05-19T12:47:58Z</time>
      </trkpt>
      <trkpt lat="43.12589" lon="2.64403">
        <ele>112.7</ele>
        <time>2018-05-19T12:48:02Z</time>
      </trkpt>
      <trkpt lat="43.12591" lon="2.64369">
        <ele>111.8</ele>
        <time>2018-05-19T12:48:08Z</time>
      </trkpt>
      <trkpt lat="43.12593" lon="2.64332">
        <ele>109.5</ele>
        <time>2018-05-19T12:48:13Z</time>
      </trkpt>
      <trkpt lat="43.12596" lon="2.64291">
        <ele>109.6</ele>
        <time>2018-05-19T12:48:18Z</time>
      </trkpt>
      <trkpt lat="43.12594" lon="2.64242">
        <ele>107.3</ele>
        <time>2018-05-19T12:48:22Z</time>
      </trkpt>
      <trkpt lat="43.12578" lon="2.64196">
        <ele>105.1</ele>
        <time>2018-05-19T12:48:28Z</time>
      </trkpt>
      <trkpt lat="43.12549" lon="2.64184">
        <ele>105</ele>
        <time>2018-05-19T12:48:32Z</time>
      </trkpt>
      <trkpt lat="43.12518" lon="2.642">
        <ele>104.4</ele>
        <time>2018-05-19T12:48:37Z</time>
      </trkpt>
      <trkpt lat="43.12482" lon="2.64199">
        <ele>102.3</ele>
        <time>2018-05-19T12:48:42Z</time>
      </trkpt>
      <trkpt lat="43.12445" lon="2.64172">
        <ele>101.7</ele>
        <time>2018-05-19T12:48:47Z</time>
      </trkpt>
      <trkpt lat="43.12401" lon="2.64171">
        <ele>99.3</ele>
        <time>2018-05-19T12:48:52Z</time>
      </trkpt>
      <trkpt lat="43.12359" lon="2.64178">
        <ele>97.1</ele>
        <time>2018-05-19T12:48:58Z</time>
      </trkpt>
      <trkpt lat="43.12326" lon="2.64168">
        <ele>94.7</ele>
        <time>2018-05-19T12:49:03Z</time>
      </trkpt>
      <trkpt lat="43.12305" lon="2.64156">
        <ele>92.2</ele>
        <time>2018-05-19T12:49:07Z</time>
      </trkpt>
      <trkpt lat="43.12283" lon="2.64153">
        <ele>90.8</ele>
        <time>2018-05-19T12:49:13Z</time>
      </trkpt>
      <trkpt lat="43.12257" lon="2.64143">
        <ele>89.6</ele>
        <time>2018-05-19T12:49:17Z</time>
      </trkpt>
      <trkpt lat="43.12225" lon="2.64141">
        <ele>86.2</ele>
        <time>2018-05-19T12:49:23Z</time>
      </trkpt>
      <trkpt lat="43.12211" lon="2.64137">
        <ele>86</ele>
        <time>2018-05-19T12:49:27Z</time>
      </trkpt>
      <trkpt lat="43.12204" lon="2.64138">
        <ele>85.9</ele>
        <time>2018-05-19T12:49:33Z</time>
      </trkpt>
      <trkpt lat="43.12204" lon="2.64138">
        <ele>85.9</ele>
        <time>2018-05-19T12:49:37Z</time>
      </trkpt>
      <trkpt lat="43.12199" lon="2.64137">
        <ele>85.8</ele>
        <time>2018-05-19T12:49:42Z</time>
      </trkpt>
      <trkpt lat="43.12189" lon="2.64128">
        <ele>85.6</ele>
        <time>2018-05-19T12:49:48Z</time>
      </trkpt>
      <trkpt lat="43.12186" lon="2.64122">
        <ele>85.5</ele>
        <time>2018-05-19T12:49:52Z</time>
      </trkpt>
      <trkpt lat="43.12186" lon="2.64129">
        <ele>85.6</ele>
        <time>2018-05-19T12:49:58Z</time>
      </trkpt>
      <trkpt lat="43.12186" lon="2.64129">
        <ele>85.6</ele>
        <time>2018-05-19T12:50:02Z</time>
      </trkpt>
      <trkpt lat="43.12186" lon="2.64129">
        <ele>85.6</ele>
        <time>2018-05-19T12:50:08Z</time>
      </trkpt>
      <trkpt lat="43.12186" lon="2.64129">
        <ele>85.6</ele>
        <time>2018-05-19T12:50:12Z</time>
      </trkpt>
      <trkpt lat="43.12186" lon="2.64129">
        <ele>85.6</ele>
        <time>2018-05-19T12:50:18Z</time>
      </trkpt>
      <trkpt lat="43.12177" lon="2.64127">
        <ele>85.5</ele>
        <time>2018-05-19T12:51:17Z</time>
      </trkpt>
      <trkpt lat="43.12168" lon="2.64117">
        <ele>85.3</ele>
        <time>2018-05-19T12:51:22Z</time>
      </trkpt>
      <trkpt lat="43.12153" lon="2.64097">
        <ele>84.6</ele>
        <time>2018-05-19T12:51:27Z</time>
      </trkpt>
      <trkpt lat="43.12141" lon="2.64084">
        <ele>84.7</ele>
        <time>2018-05-19T12:51:32Z</time>
      </trkpt>
      <trkpt lat="43.12126" lon="2.64062">
        <ele>84.3</ele>
        <time>2018-05-19T12:51:38Z</time>
      </trkpt>
      <trkpt lat="43.12117" lon="2.64046">
        <ele>84.3</ele>
        <time>2018-05-19T12:51:43Z</time>
      </trkpt>
      <trkpt lat="43.12097" lon="2.64036">
        <ele>84.3</ele>
        <time>2018-05-19T12:51:48Z</time>
      </trkpt>
      <trkpt lat="43.12087" lon="2.64034">
        <ele>84.3</ele>
        <time>2018-05-19T12:51:53Z</time>
      </trkpt>
      <trkpt lat="43.12076" lon="2.6403">
        <ele>86.3</ele>
        <time>2018-05-19T12:51:58Z</time>
      </trkpt>
      <trkpt lat="43.12072" lon="2.64028">
        <ele>86.4</ele>
        <time>2018-05-19T12:52:03Z</time>
      </trkpt>
      <trkpt lat="43.12068" lon="2.64023">
        <ele>86.3</ele>
        <time>2018-05-19T12:52:08Z</time>
      </trkpt>
      <trkpt lat="43.12057" lon="2.64019">
        <ele>86.7</ele>
        <time>2018-05-19T12:52:12Z</time>
      </trkpt>
      <trkpt lat="43.1205" lon="2.64018">
        <ele>87.1</ele>
        <time>2018-05-19T12:52:17Z</time>
      </trkpt>
      <trkpt lat="43.12038" lon="2.64015">
        <ele>87.7</ele>
        <time>2018-05-19T12:52:22Z</time>
      </trkpt>
      <trkpt lat="43.12027" lon="2.64012">
        <ele>88.3</ele>
        <time>2018-05-19T12:52:28Z</time>
      </trkpt>
      <trkpt lat="43.12017" lon="2.6401">
        <ele>89</ele>
        <time>2018-05-19T12:52:33Z</time>
      </trkpt>
      <trkpt lat="43.12005" lon="2.64005">
        <ele>90.1</ele>
        <time>2018-05-19T12:52:37Z</time>
      </trkpt>
      <trkpt lat="43.11991" lon="2.63997">
        <ele>91.3</ele>
        <time>2018-05-19T12:52:43Z</time>
      </trkpt>
      <trkpt lat="43.11985" lon="2.63994">
        <ele>91.6</ele>
        <time>2018-05-19T12:52:47Z</time>
      </trkpt>
      <trkpt lat="43.11975" lon="2.63989">
        <ele>91.9</ele>
        <time>2018-05-19T12:52:53Z</time>
      </trkpt>
      <trkpt lat="43.1197" lon="2.63987">
        <ele>92.1</ele>
        <time>2018-05-19T12:52:58Z</time>
      </trkpt>
      <trkpt lat="43.11971" lon="2.63986">
        <ele>92</ele>
        <time>2018-05-19T12:53:18Z</time>
      </trkpt>
      <trkpt lat="43.1196" lon="2.63979">
        <ele>92.4</ele>
        <time>2018-05-19T12:53:22Z</time>
      </trkpt>
      <trkpt lat="43.11948" lon="2.63966">
        <ele>92.6</ele>
        <time>2018-05-19T12:53:28Z</time>
      </trkpt>
      <trkpt lat="43.11938" lon="2.63955">
        <ele>92.6</ele>
        <time>2018-05-19T12:53:32Z</time>
      </trkpt>
      <trkpt lat="43.11931" lon="2.63947">
        <ele>92.6</ele>
        <time>2018-05-19T12:53:38Z</time>
      </trkpt>
      <trkpt lat="43.11917" lon="2.63937">
        <ele>92.7</ele>
        <time>2018-05-19T12:53:42Z</time>
      </trkpt>
      <trkpt lat="43.11907" lon="2.63933">
        <ele>95</ele>
        <time>2018-05-19T12:53:48Z</time>
      </trkpt>
      <trkpt lat="43.11891" lon="2.63926">
        <ele>95.6</ele>
        <time>2018-05-19T12:53:52Z</time>
      </trkpt>
      <trkpt lat="43.1188" lon="2.63921">
        <ele>96.1</ele>
        <time>2018-05-19T12:53:58Z</time>
      </trkpt>
      <trkpt lat="43.11861" lon="2.63913">
        <ele>95.5</ele>
        <time>2018-05-19T12:54:02Z</time>
      </trkpt>
      <trkpt lat="43.11847" lon="2.63908">
        <ele>96.3</ele>
        <time>2018-05-19T12:54:07Z</time>
      </trkpt>
      <trkpt lat="43.11824" lon="2.63901">
        <ele>97.9</ele>
        <time>2018-05-19T12:54:13Z</time>
      </trkpt>
      <trkpt lat="43.11812" lon="2.63892">
        <ele>97.8</ele>
        <time>2018-05-19T12:54:17Z</time>
      </trkpt>
      <trkpt lat="43.1179" lon="2.63866">
        <ele>97.8</ele>
        <time>2018-05-19T12:54:23Z</time>
      </trkpt>
      <trkpt lat="43.11776" lon="2.63845">
        <ele>97.8</ele>
        <time>2018-05-19T12:54:27Z</time>
      </trkpt>
      <trkpt lat="43.11755" lon="2.63825">
        <ele>97.8</ele>
        <time>2018-05-19T12:54:33Z</time>
      </trkpt>
      <trkpt lat="43.11741" lon="2.63812">
        <ele>97.4</ele>
        <time>2018-05-19T12:54:37Z</time>
      </trkpt>
      <trkpt lat="43.1172" lon="2.63796">
        <ele>97.1</ele>
        <time>2018-05-19T12:54:42Z</time>
      </trkpt>
      <trkpt lat="43.11699" lon="2.63783">
        <ele>96.9</ele>
        <time>2018-05-19T12:54:48Z</time>
      </trkpt>
      <trkpt lat="43.11677" lon="2.63772">
        <ele>96.6</ele>
        <time>2018-05-19T12:54:52Z</time>
      </trkpt>
      <trkpt lat="43.11652" lon="2.63761">
        <ele>96</ele>
        <time>2018-05-19T12:54:58Z</time>
      </trkpt>
      <trkpt lat="43.11637" lon="2.63752">
        <ele>96</ele>
        <time>2018-05-19T12:55:02Z</time>
      </trkpt>
      <trkpt lat="43.1162" lon="2.63742">
        <ele>96.3</ele>
        <time>2018-05-19T12:55:08Z</time>
      </trkpt>
      <trkpt lat="43.11596" lon="2.63733">
        <ele>96.3</ele>
        <time>2018-05-19T12:55:12Z</time>
      </trkpt>
      <trkpt lat="43.11584" lon="2.63725">
        <ele>96.3</ele>
        <time>2018-05-19T12:55:18Z</time>
      </trkpt>
      <trkpt lat="43.11555" lon="2.63711">
        <ele>96.5</ele>
        <time>2018-05-19T12:55:22Z</time>
      </trkpt>
      <trkpt lat="43.11538" lon="2.63697">
        <ele>96.5</ele>
        <time>2018-05-19T12:55:28Z</time>
      </trkpt>
      <trkpt lat="43.11523" lon="2.63688">
        <ele>96.4</ele>
        <time>2018-05-19T12:55:32Z</time>
      </trkpt>
      <trkpt lat="43.11504" lon="2.63674">
        <ele>96.2</ele>
        <time>2018-05-19T12:55:38Z</time>
      </trkpt>
      <trkpt lat="43.11491" lon="2.63665">
        <ele>96.4</ele>
        <time>2018-05-19T12:55:42Z</time>
      </trkpt>
      <trkpt lat="43.1147" lon="2.63651">
        <ele>96.8</ele>
        <time>2018-05-19T12:55:47Z</time>
      </trkpt>
      <trkpt lat="43.11457" lon="2.6364">
        <ele>97</ele>
        <time>2018-05-19T12:55:53Z</time>
      </trkpt>
      <trkpt lat="43.11435" lon="2.63625">
        <ele>97.3</ele>
        <time>2018-05-19T12:55:57Z</time>
      </trkpt>
      <trkpt lat="43.11415" lon="2.63612">
        <ele>97.6</ele>
        <time>2018-05-19T12:56:03Z</time>
      </trkpt>
      <trkpt lat="43.114" lon="2.63599">
        <ele>97.7</ele>
        <time>2018-05-19T12:56:07Z</time>
      </trkpt>
      <trkpt lat="43.1138" lon="2.63581">
        <ele>98.2</ele>
        <time>2018-05-19T12:56:13Z</time>
      </trkpt>
      <trkpt lat="43.11366" lon="2.6357">
        <ele>98</ele>
        <time>2018-05-19T12:56:17Z</time>
      </trkpt>
      <trkpt lat="43.11345" lon="2.63553">
        <ele>97.9</ele>
        <time>2018-05-19T12:56:23Z</time>
      </trkpt>
      <trkpt lat="43.11333" lon="2.63542">
        <ele>97.2</ele>
        <time>2018-05-19T12:56:27Z</time>
      </trkpt>
      <trkpt lat="43.11315" lon="2.63528">
        <ele>97.2</ele>
        <time>2018-05-19T12:56:32Z</time>
      </trkpt>
      <trkpt lat="43.11294" lon="2.63512">
        <ele>97.2</ele>
        <time>2018-05-19T12:56:37Z</time>
      </trkpt>
      <trkpt lat="43.11278" lon="2.63493">
        <ele>97.7</ele>
        <time>2018-05-19T12:56:42Z</time>
      </trkpt>
      <trkpt lat="43.11268" lon="2.63477">
        <ele>97.7</ele>
        <time>2018-05-19T12:56:48Z</time>
      </trkpt>
      <trkpt lat="43.11252" lon="2.6345">
        <ele>97.9</ele>
        <time>2018-05-19T12:56:52Z</time>
      </trkpt>
      <trkpt lat="43.11239" lon="2.63432">
        <ele>98</ele>
        <time>2018-05-19T12:56:58Z</time>
      </trkpt>
      <trkpt lat="43.11222" lon="2.63408">
        <ele>98.5</ele>
        <time>2018-05-19T12:57:02Z</time>
      </trkpt>
      <trkpt lat="43.11212" lon="2.63394">
        <ele>98.7</ele>
        <time>2018-05-19T12:57:08Z</time>
      </trkpt>
      <trkpt lat="43.11194" lon="2.63373">
        <ele>98.8</ele>
        <time>2018-05-19T12:57:12Z</time>
      </trkpt>
      <trkpt lat="43.11183" lon="2.6336">
        <ele>98.8</ele>
        <time>2018-05-19T12:57:17Z</time>
      </trkpt>
      <trkpt lat="43.11162" lon="2.63347">
        <ele>98.4</ele>
        <time>2018-05-19T12:57:22Z</time>
      </trkpt>
      <trkpt lat="43.11145" lon="2.63342">
        <ele>98.2</ele>
        <time>2018-05-19T12:57:27Z</time>
      </trkpt>
      <trkpt lat="43.1112" lon="2.63336">
        <ele>97.8</ele>
        <time>2018-05-19T12:57:33Z</time>
      </trkpt>
      <trkpt lat="43.11103" lon="2.63331">
        <ele>98.5</ele>
        <time>2018-05-19T12:57:37Z</time>
      </trkpt>
      <trkpt lat="43.1108" lon="2.63323">
        <ele>97.1</ele>
        <time>2018-05-19T12:57:43Z</time>
      </trkpt>
      <trkpt lat="43.11069" lon="2.63317">
        <ele>96.4</ele>
        <time>2018-05-19T12:57:47Z</time>
      </trkpt>
      <trkpt lat="43.11051" lon="2.63312">
        <ele>95.6</ele>
        <time>2018-05-19T12:57:53Z</time>
      </trkpt>
      <trkpt lat="43.11031" lon="2.63313">
        <ele>94.9</ele>
        <time>2018-05-19T12:57:57Z</time>
      </trkpt>
      <trkpt lat="43.1099" lon="2.63357">
        <ele>91.1</ele>
        <time>2018-05-19T12:58:03Z</time>
      </trkpt>
      <trkpt lat="43.10968" lon="2.63391">
        <ele>90</ele>
        <time>2018-05-19T12:58:07Z</time>
      </trkpt>
      <trkpt lat="43.10956" lon="2.63406">
        <ele>89.6</ele>
        <time>2018-05-19T12:58:12Z</time>
      </trkpt>
      <trkpt lat="43.10939" lon="2.63389">
        <ele>89.5</ele>
        <time>2018-05-19T12:58:17Z</time>
      </trkpt>
      <trkpt lat="43.10927" lon="2.63379">
        <ele>89.5</ele>
        <time>2018-05-19T12:58:22Z</time>
      </trkpt>
      <trkpt lat="43.10907" lon="2.63362">
        <ele>89.5</ele>
        <time>2018-05-19T12:58:28Z</time>
      </trkpt>
      <trkpt lat="43.10892" lon="2.63349">
        <ele>89.6</ele>
        <time>2018-05-19T12:58:32Z</time>
      </trkpt>
      <trkpt lat="43.1087" lon="2.63333">
        <ele>89.5</ele>
        <time>2018-05-19T12:58:38Z</time>
      </trkpt>
      <trkpt lat="43.10853" lon="2.6331">
        <ele>89.6</ele>
        <time>2018-05-19T12:58:42Z</time>
      </trkpt>
      <trkpt lat="43.10844" lon="2.63291">
        <ele>89.5</ele>
        <time>2018-05-19T12:58:48Z</time>
      </trkpt>
      <trkpt lat="43.10829" lon="2.6327">
        <ele>91.8</ele>
        <time>2018-05-19T12:58:53Z</time>
      </trkpt>
      <trkpt lat="43.1082" lon="2.63269">
        <ele>92.1</ele>
        <time>2018-05-19T12:58:57Z</time>
      </trkpt>
      <trkpt lat="43.1081" lon="2.63273">
        <ele>92.9</ele>
        <time>2018-05-19T12:59:02Z</time>
      </trkpt>
      <trkpt lat="43.10805" lon="2.63277">
        <ele>93.3</ele>
        <time>2018-05-19T12:59:07Z</time>
      </trkpt>
      <trkpt lat="43.10794" lon="2.63284">
        <ele>94.1</ele>
        <time>2018-05-19T12:59:13Z</time>
      </trkpt>
      <trkpt lat="43.10786" lon="2.63291">
        <ele>94.8</ele>
        <time>2018-05-19T12:59:17Z</time>
      </trkpt>
      <trkpt lat="43.10781" lon="2.63296">
        <ele>95.3</ele>
        <time>2018-05-19T12:59:23Z</time>
      </trkpt>
      <trkpt lat="43.10781" lon="2.63296">
        <ele>95.3</ele>
        <time>2018-05-19T12:59:27Z</time>
      </trkpt>
      <trkpt lat="43.10781" lon="2.63296">
        <ele>95.3</ele>
        <time>2018-05-19T12:59:33Z</time>
      </trkpt>
      <trkpt lat="43.10781" lon="2.63296">
        <ele>95.3</ele>
        <time>2018-05-19T12:59:37Z</time>
      </trkpt>
      <trkpt lat="43.10781" lon="2.63296">
        <ele>95.3</ele>
        <time>2018-05-19T12:59:43Z</time>
      </trkpt>
      <trkpt lat="43.10786" lon="2.63296">
        <ele>95</ele>
        <time>2018-05-19T13:00:12Z</time>
      </trkpt>
      <trkpt lat="43.10789" lon="2.63302">
        <ele>95</ele>
        <time>2018-05-19T13:00:18Z</time>
      </trkpt>
      <trkpt lat="43.10789" lon="2.63302">
        <ele>95</ele>
        <time>2018-05-19T13:00:22Z</time>
      </trkpt>
      <trkpt lat="43.10789" lon="2.63302">
        <ele>95</ele>
        <time>2018-05-19T13:00:28Z</time>
      </trkpt>
      <trkpt lat="43.10789" lon="2.63302">
        <ele>95</ele>
        <time>2018-05-19T13:00:32Z</time>
      </trkpt>
      <trkpt lat="43.10789" lon="2.63302">
        <ele>95</ele>
        <time>2018-05-19T13:00:38Z</time>
      </trkpt>
      <trkpt lat="43.10784" lon="2.63296">
        <ele>95.1</ele>
        <time>2018-05-19T13:00:47Z</time>
      </trkpt>
      <trkpt lat="43.10784" lon="2.63296">
        <ele>95.1</ele>
        <time>2018-05-19T13:00:52Z</time>
      </trkpt>
      <trkpt lat="43.10784" lon="2.63296">
        <ele>95.1</ele>
        <time>2018-05-19T13:00:57Z</time>
      </trkpt>
      <trkpt lat="43.10784" lon="2.63296">
        <ele>95.1</ele>
        <time>2018-05-19T13:01:03Z</time>
      </trkpt>
      <trkpt lat="43.10779" lon="2.63292">
        <ele>95.3</ele>
        <time>2018-05-19T13:01:07Z</time>
      </trkpt>
      <trkpt lat="43.10779" lon="2.63292">
        <ele>95.3</ele>
        <time>2018-05-19T13:01:13Z</time>
      </trkpt>
      <trkpt lat="43.10779" lon="2.63292">
        <ele>95.3</ele>
        <time>2018-05-19T13:01:17Z</time>
      </trkpt>
      <trkpt lat="43.10779" lon="2.63292">
        <ele>95.3</ele>
        <time>2018-05-19T13:01:23Z</time>
      </trkpt>
      <trkpt lat="43.10779" lon="2.63292">
        <ele>95.3</ele>
        <time>2018-05-19T13:01:27Z</time>
      </trkpt>
      <trkpt lat="43.10783" lon="2.6329">
        <ele>94.9</ele>
        <time>2018-05-19T13:01:32Z</time>
      </trkpt>
      <trkpt lat="43.10783" lon="2.6329">
        <ele>94.9</ele>
        <time>2018-05-19T13:01:37Z</time>
      </trkpt>
      <trkpt lat="43.10783" lon="2.6329">
        <ele>94.9</ele>
        <time>2018-05-19T13:01:42Z</time>
      </trkpt>
      <trkpt lat="43.10783" lon="2.6329">
        <ele>94.9</ele>
        <time>2018-05-19T13:01:48Z</time>
      </trkpt>
      <trkpt lat="43.10783" lon="2.6329">
        <ele>94.9</ele>
        <time>2018-05-19T13:01:52Z</time>
      </trkpt>
      <trkpt lat="43.10783" lon="2.63296">
        <ele>95.2</ele>
        <time>2018-05-19T13:02:08Z</time>
      </trkpt>
      <trkpt lat="43.10772" lon="2.633">
        <ele>96.1</ele>
        <time>2018-05-19T13:02:12Z</time>
      </trkpt>
      <trkpt lat="43.10766" lon="2.633">
        <ele>96.5</ele>
        <time>2018-05-19T13:02:18Z</time>
      </trkpt>
      <trkpt lat="43.10757" lon="2.63296">
        <ele>96.6</ele>
        <time>2018-05-19T13:02:22Z</time>
      </trkpt>
      <trkpt lat="43.10747" lon="2.6329">
        <ele>103.7</ele>
        <time>2018-05-19T13:02:27Z</time>
      </trkpt>
      <trkpt lat="43.10747" lon="2.63297">
        <ele>104.3</ele>
        <time>2018-05-19T13:02:32Z</time>
      </trkpt>
      <trkpt lat="43.1075" lon="2.6331">
        <ele>98.4</ele>
        <time>2018-05-19T13:02:37Z</time>
      </trkpt>
      <trkpt lat="43.10753" lon="2.63316">
        <ele>99.3</ele>
        <time>2018-05-19T13:02:43Z</time>
      </trkpt>
      <trkpt lat="43.10755" lon="2.63324">
        <ele>100.7</ele>
        <time>2018-05-19T13:02:47Z</time>
      </trkpt>
      <trkpt lat="43.10755" lon="2.63339">
        <ele>102.6</ele>
        <time>2018-05-19T13:02:53Z</time>
      </trkpt>
      <trkpt lat="43.1076" lon="2.63353">
        <ele>101</ele>
        <time>2018-05-19T13:02:57Z</time>
      </trkpt>
      <trkpt lat="43.10761" lon="2.6336">
        <ele>100.7</ele>
        <time>2018-05-19T13:03:03Z</time>
      </trkpt>
      <trkpt lat="43.10764" lon="2.63374">
        <ele>100.5</ele>
        <time>2018-05-19T13:03:08Z</time>
      </trkpt>
      <trkpt lat="43.10769" lon="2.63386">
        <ele>100.7</ele>
        <time>2018-05-19T13:03:13Z</time>
      </trkpt>
      <trkpt lat="43.10768" lon="2.63393">
        <ele>101.1</ele>
        <time>2018-05-19T13:03:17Z</time>
      </trkpt>
      <trkpt lat="43.10757" lon="2.63409">
        <ele>104.1</ele>
        <time>2018-05-19T13:03:22Z</time>
      </trkpt>
      <trkpt lat="43.10752" lon="2.63413">
        <ele>105.8</ele>
        <time>2018-05-19T13:03:28Z</time>
      </trkpt>
      <trkpt lat="43.10742" lon="2.63414">
        <ele>108.3</ele>
        <time>2018-05-19T13:03:32Z</time>
      </trkpt>
      <trkpt lat="43.10729" lon="2.63409">
        <ele>109.8</ele>
        <time>2018-05-19T13:03:38Z</time>
      </trkpt>
      <trkpt lat="43.10715" lon="2.63399">
        <ele>111.1</ele>
        <time>2018-05-19T13:03:42Z</time>
      </trkpt>
      <trkpt lat="43.10713" lon="2.63391">
        <ele>111.3</ele>
        <time>2018-05-19T13:03:48Z</time>
      </trkpt>
      <trkpt lat="43.1071" lon="2.63377">
        <ele>111.4</ele>
        <time>2018-05-19T13:03:52Z</time>
      </trkpt>
      <trkpt lat="43.10703" lon="2.63366">
        <ele>111.9</ele>
        <time>2018-05-19T13:03:58Z</time>
      </trkpt>
      <trkpt lat="43.10694" lon="2.63357">
        <ele>112.7</ele>
        <time>2018-05-19T13:04:02Z</time>
      </trkpt>
      <trkpt lat="43.10692" lon="2.63351">
        <ele>113.1</ele>
        <time>2018-05-19T13:04:07Z</time>
      </trkpt>
      <trkpt lat="43.10689" lon="2.63336">
        <ele>113.7</ele>
        <time>2018-05-19T13:04:12Z</time>
      </trkpt>
      <trkpt lat="43.10687" lon="2.63331">
        <ele>111.6</ele>
        <time>2018-05-19T13:04:17Z</time>
      </trkpt>
      <trkpt lat="43.10684" lon="2.63325">
        <ele>111.7</ele>
        <time>2018-05-19T13:04:23Z</time>
      </trkpt>
      <trkpt lat="43.10681" lon="2.63319">
        <ele>111.6</ele>
        <time>2018-05-19T13:04:27Z</time>
      </trkpt>
      <trkpt lat="43.10679" lon="2.63304">
        <ele>109.8</ele>
        <time>2018-05-19T13:04:33Z</time>
      </trkpt>
      <trkpt lat="43.10679" lon="2.63295">
        <ele>109</ele>
        <time>2018-05-19T13:04:37Z</time>
      </trkpt>
      <trkpt lat="43.10676" lon="2.63279">
        <ele>108.1</ele>
        <time>2018-05-19T13:04:43Z</time>
      </trkpt>
      <trkpt lat="43.10673" lon="2.63261">
        <ele>108.1</ele>
        <time>2018-05-19T13:04:47Z</time>
      </trkpt>
      <trkpt lat="43.10669" lon="2.63249">
        <ele>108.1</ele>
        <time>2018-05-19T13:04:52Z</time>
      </trkpt>
      <trkpt lat="43.10665" lon="2.63238">
        <ele>111.4</ele>
        <time>2018-05-19T13:04:58Z</time>
      </trkpt>
      <trkpt lat="43.10657" lon="2.63221">
        <ele>112.8</ele>
        <time>2018-05-19T13:05:02Z</time>
      </trkpt>
      <trkpt lat="43.10648" lon="2.63202">
        <ele>113</ele>
        <time>2018-05-19T13:05:07Z</time>
      </trkpt>
      <trkpt lat="43.1064" lon="2.63187">
        <ele>113.1</ele>
        <time>2018-05-19T13:05:12Z</time>
      </trkpt>
      <trkpt lat="43.10627" lon="2.63166">
        <ele>112.8</ele>
        <time>2018-05-19T13:05:18Z</time>
      </trkpt>
      <trkpt lat="43.10617" lon="2.63152">
        <ele>114.5</ele>
        <time>2018-05-19T13:05:22Z</time>
      </trkpt>
      <trkpt lat="43.10606" lon="2.63131">
        <ele>115</ele>
        <time>2018-05-19T13:05:28Z</time>
      </trkpt>
      <trkpt lat="43.10597" lon="2.63118">
        <ele>115.3</ele>
        <time>2018-05-19T13:05:32Z</time>
      </trkpt>
      <trkpt lat="43.10584" lon="2.63098">
        <ele>117</ele>
        <time>2018-05-19T13:05:38Z</time>
      </trkpt>
      <trkpt lat="43.10575" lon="2.63082">
        <ele>122.3</ele>
        <time>2018-05-19T13:05:42Z</time>
      </trkpt>
      <trkpt lat="43.10563" lon="2.63059">
        <ele>125</ele>
        <time>2018-05-19T13:05:48Z</time>
      </trkpt>
      <trkpt lat="43.10556" lon="2.63045">
        <ele>125.4</ele>
        <time>2018-05-19T13:05:52Z</time>
      </trkpt>
      <trkpt lat="43.10546" lon="2.63025">
        <ele>125.5</ele>
        <time>2018-05-19T13:05:57Z</time>
      </trkpt>
      <trkpt lat="43.10541" lon="2.63013">
        <ele>126.1</ele>
        <time>2018-05-19T13:06:02Z</time>
      </trkpt>
      <trkpt lat="43.10531" lon="2.62993">
        <ele>121.4</ele>
        <time>2018-05-19T13:06:07Z</time>
      </trkpt>
      <trkpt lat="43.10524" lon="2.62981">
        <ele>122.1</ele>
        <time>2018-05-19T13:06:13Z</time>
      </trkpt>
      <trkpt lat="43.10517" lon="2.62962">
        <ele>120.8</ele>
        <time>2018-05-19T13:06:17Z</time>
      </trkpt>
      <trkpt lat="43.10512" lon="2.62949">
        <ele>120</ele>
        <time>2018-05-19T13:06:23Z</time>
      </trkpt>
      <trkpt lat="43.10506" lon="2.62931">
        <ele>120.5</ele>
        <time>2018-05-19T13:06:27Z</time>
      </trkpt>
      <trkpt lat="43.10501" lon="2.62919">
        <ele>122.3</ele>
        <time>2018-05-19T13:06:33Z</time>
      </trkpt>
      <trkpt lat="43.10495" lon="2.629">
        <ele>127.7</ele>
        <time>2018-05-19T13:06:37Z</time>
      </trkpt>
      <trkpt lat="43.10491" lon="2.62885">
        <ele>129.1</ele>
        <time>2018-05-19T13:06:42Z</time>
      </trkpt>
      <trkpt lat="43.10488" lon="2.62872">
        <ele>129.1</ele>
        <time>2018-05-19T13:06:48Z</time>
      </trkpt>
      <trkpt lat="43.10486" lon="2.6285">
        <ele>126.7</ele>
        <time>2018-05-19T13:06:53Z</time>
      </trkpt>
      <trkpt lat="43.10484" lon="2.62838">
        <ele>125.4</ele>
        <time>2018-05-19T13:06:58Z</time>
      </trkpt>
      <trkpt lat="43.10479" lon="2.62815">
        <ele>125.3</ele>
        <time>2018-05-19T13:07:03Z</time>
      </trkpt>
      <trkpt lat="43.10477" lon="2.62799">
        <ele>126.1</ele>
        <time>2018-05-19T13:07:08Z</time>
      </trkpt>
      <trkpt lat="43.10476" lon="2.62776">
        <ele>125.1</ele>
        <time>2018-05-19T13:07:13Z</time>
      </trkpt>
      <trkpt lat="43.10475" lon="2.62761">
        <ele>123.9</ele>
        <time>2018-05-19T13:07:18Z</time>
      </trkpt>
      <trkpt lat="43.1047" lon="2.62741">
        <ele>121.5</ele>
        <time>2018-05-19T13:07:23Z</time>
      </trkpt>
      <trkpt lat="43.10467" lon="2.62734">
        <ele>122.3</ele>
        <time>2018-05-19T13:07:28Z</time>
      </trkpt>
      <trkpt lat="43.10461" lon="2.62713">
        <ele>123</ele>
        <time>2018-05-19T13:07:33Z</time>
      </trkpt>
      <trkpt lat="43.10451" lon="2.62694">
        <ele>124.1</ele>
        <time>2018-05-19T13:07:38Z</time>
      </trkpt>
      <trkpt lat="43.10441" lon="2.62668">
        <ele>126.8</ele>
        <time>2018-05-19T13:07:43Z</time>
      </trkpt>
      <trkpt lat="43.10436" lon="2.62637">
        <ele>122.6</ele>
        <time>2018-05-19T13:07:48Z</time>
      </trkpt>
      <trkpt lat="43.10433" lon="2.6261">
        <ele>122.3</ele>
        <time>2018-05-19T13:07:53Z</time>
      </trkpt>
      <trkpt lat="43.10431" lon="2.62591">
        <ele>124.5</ele>
        <time>2018-05-19T13:07:58Z</time>
      </trkpt>
      <trkpt lat="43.10423" lon="2.62563">
        <ele>122.4</ele>
        <time>2018-05-19T13:08:03Z</time>
      </trkpt>
      <trkpt lat="43.10418" lon="2.62546">
        <ele>120.6</ele>
        <time>2018-05-19T13:08:08Z</time>
      </trkpt>
      <trkpt lat="43.10412" lon="2.6252">
        <ele>134.9</ele>
        <time>2018-05-19T13:08:13Z</time>
      </trkpt>
      <trkpt lat="43.10408" lon="2.62501">
        <ele>132.3</ele>
        <time>2018-05-19T13:08:17Z</time>
      </trkpt>
      <trkpt lat="43.10401" lon="2.62475">
        <ele>133.6</ele>
        <time>2018-05-19T13:08:23Z</time>
      </trkpt>
      <trkpt lat="43.104" lon="2.62458">
        <ele>133.6</ele>
        <time>2018-05-19T13:08:27Z</time>
      </trkpt>
      <trkpt lat="43.10401" lon="2.6243">
        <ele>131.8</ele>
        <time>2018-05-19T13:08:32Z</time>
      </trkpt>
      <trkpt lat="43.10403" lon="2.62412">
        <ele>127.6</ele>
        <time>2018-05-19T13:08:38Z</time>
      </trkpt>
      <trkpt lat="43.10408" lon="2.62385">
        <ele>127.3</ele>
        <time>2018-05-19T13:08:42Z</time>
      </trkpt>
      <trkpt lat="43.10412" lon="2.6237">
        <ele>126.8</ele>
        <time>2018-05-19T13:08:48Z</time>
      </trkpt>
      <trkpt lat="43.10412" lon="2.6235">
        <ele>126</ele>
        <time>2018-05-19T13:08:52Z</time>
      </trkpt>
      <trkpt lat="43.10412" lon="2.62336">
        <ele>125.3</ele>
        <time>2018-05-19T13:08:58Z</time>
      </trkpt>
      <trkpt lat="43.10411" lon="2.62312">
        <ele>121.4</ele>
        <time>2018-05-19T13:09:02Z</time>
      </trkpt>
      <trkpt lat="43.10412" lon="2.62298">
        <ele>120.3</ele>
        <time>2018-05-19T13:09:08Z</time>
      </trkpt>
      <trkpt lat="43.10403" lon="2.62283">
        <ele>119.3</ele>
        <time>2018-05-19T13:09:13Z</time>
      </trkpt>
      <trkpt lat="43.10393" lon="2.62282">
        <ele>119</ele>
        <time>2018-05-19T13:09:18Z</time>
      </trkpt>
      <trkpt lat="43.1037" lon="2.62295">
        <ele>118.4</ele>
        <time>2018-05-19T13:09:22Z</time>
      </trkpt>
      <trkpt lat="43.10358" lon="2.62309">
        <ele>118.7</ele>
        <time>2018-05-19T13:09:27Z</time>
      </trkpt>
      <trkpt lat="43.10345" lon="2.62335">
        <ele>123</ele>
        <time>2018-05-19T13:09:32Z</time>
      </trkpt>
      <trkpt lat="43.10338" lon="2.62349">
        <ele>124</ele>
        <time>2018-05-19T13:09:37Z</time>
      </trkpt>
      <trkpt lat="43.10328" lon="2.62371">
        <ele>122.8</ele>
        <time>2018-05-19T13:09:43Z</time>
      </trkpt>
      <trkpt lat="43.10322" lon="2.62384">
        <ele>124.4</ele>
        <time>2018-05-19T13:09:47Z</time>
      </trkpt>
      <trkpt lat="43.10308" lon="2.62401">
        <ele>125.3</ele>
        <time>2018-05-19T13:09:53Z</time>
      </trkpt>
      <trkpt lat="43.103" lon="2.62414">
        <ele>124.6</ele>
        <time>2018-05-19T13:09:57Z</time>
      </trkpt>
      <trkpt lat="43.10286" lon="2.62433">
        <ele>132</ele>
        <time>2018-05-19T13:10:03Z</time>
      </trkpt>
      <trkpt lat="43.10277" lon="2.62446">
        <ele>131.9</ele>
        <time>2018-05-19T13:10:07Z</time>
      </trkpt>
      <trkpt lat="43.10262" lon="2.62464">
        <ele>133.2</ele>
        <time>2018-05-19T13:10:13Z</time>
      </trkpt>
      <trkpt lat="43.10251" lon="2.62476">
        <ele>134.2</ele>
        <time>2018-05-19T13:10:17Z</time>
      </trkpt>
      <trkpt lat="43.10237" lon="2.62491">
        <ele>130</ele>
        <time>2018-05-19T13:10:22Z</time>
      </trkpt>
      <trkpt lat="43.10227" lon="2.62498">
        <ele>128.8</ele>
        <time>2018-05-19T13:10:27Z</time>
      </trkpt>
      <trkpt lat="43.10211" lon="2.62506">
        <ele>140.1</ele>
        <time>2018-05-19T13:10:32Z</time>
      </trkpt>
      <trkpt lat="43.10198" lon="2.62512">
        <ele>139.5</ele>
        <time>2018-05-19T13:10:38Z</time>
      </trkpt>
      <trkpt lat="43.10173" lon="2.6252">
        <ele>137.8</ele>
        <time>2018-05-19T13:10:42Z</time>
      </trkpt>
      <trkpt lat="43.10156" lon="2.62524">
        <ele>136.8</ele>
        <time>2018-05-19T13:10:48Z</time>
      </trkpt>
      <trkpt lat="43.10142" lon="2.62527">
        <ele>138</ele>
        <time>2018-05-19T13:10:52Z</time>
      </trkpt>
      <trkpt lat="43.10122" lon="2.62533">
        <ele>139</ele>
        <time>2018-05-19T13:10:58Z</time>
      </trkpt>
      <trkpt lat="43.10107" lon="2.62535">
        <ele>139</ele>
        <time>2018-05-19T13:11:02Z</time>
      </trkpt>
      <trkpt lat="43.10088" lon="2.62535">
        <ele>138.5</ele>
        <time>2018-05-19T13:11:08Z</time>
      </trkpt>
      <trkpt lat="43.10076" lon="2.62532">
        <ele>141.5</ele>
        <time>2018-05-19T13:11:12Z</time>
      </trkpt>
      <trkpt lat="43.1006" lon="2.62528">
        <ele>142.1</ele>
        <time>2018-05-19T13:11:17Z</time>
      </trkpt>
      <trkpt lat="43.10049" lon="2.62521">
        <ele>142.4</ele>
        <time>2018-05-19T13:11:22Z</time>
      </trkpt>
      <trkpt lat="43.10027" lon="2.62511">
        <ele>143.5</ele>
        <time>2018-05-19T13:11:27Z</time>
      </trkpt>
      <trkpt lat="43.10016" lon="2.62505">
        <ele>143.3</ele>
        <time>2018-05-19T13:11:33Z</time>
      </trkpt>
      <trkpt lat="43.09998" lon="2.62491">
        <ele>143</ele>
        <time>2018-05-19T13:11:37Z</time>
      </trkpt>
      <trkpt lat="43.09989" lon="2.6248">
        <ele>143.8</ele>
        <time>2018-05-19T13:11:43Z</time>
      </trkpt>
      <trkpt lat="43.09976" lon="2.62462">
        <ele>143.8</ele>
        <time>2018-05-19T13:11:47Z</time>
      </trkpt>
      <trkpt lat="43.09968" lon="2.62448">
        <ele>143.4</ele>
        <time>2018-05-19T13:11:53Z</time>
      </trkpt>
      <trkpt lat="43.09954" lon="2.62427">
        <ele>144.2</ele>
        <time>2018-05-19T13:11:57Z</time>
      </trkpt>
      <trkpt lat="43.09946" lon="2.62412">
        <ele>136.3</ele>
        <time>2018-05-19T13:12:02Z</time>
      </trkpt>
      <trkpt lat="43.09933" lon="2.62391">
        <ele>136.3</ele>
        <time>2018-05-19T13:12:07Z</time>
      </trkpt>
      <trkpt lat="43.09925" lon="2.62378">
        <ele>134.6</ele>
        <time>2018-05-19T13:12:12Z</time>
      </trkpt>
      <trkpt lat="43.09912" lon="2.62359">
        <ele>142.5</ele>
        <time>2018-05-19T13:12:18Z</time>
      </trkpt>
      <trkpt lat="43.09904" lon="2.62346">
        <ele>140.6</ele>
        <time>2018-05-19T13:12:22Z</time>
      </trkpt>
      <trkpt lat="43.0989" lon="2.62331">
        <ele>132.3</ele>
        <time>2018-05-19T13:12:28Z</time>
      </trkpt>
      <trkpt lat="43.0988" lon="2.62324">
        <ele>132.6</ele>
        <time>2018-05-19T13:12:32Z</time>
      </trkpt>
      <trkpt lat="43.09862" lon="2.62319">
        <ele>134.1</ele>
        <time>2018-05-19T13:12:38Z</time>
      </trkpt>
      <trkpt lat="43.09848" lon="2.6232">
        <ele>136.2</ele>
        <time>2018-05-19T13:12:42Z</time>
      </trkpt>
      <trkpt lat="43.09829" lon="2.62331">
        <ele>142.8</ele>
        <time>2018-05-19T13:12:47Z</time>
      </trkpt>
      <trkpt lat="43.09818" lon="2.62343">
        <ele>147.9</ele>
        <time>2018-05-19T13:12:52Z</time>
      </trkpt>
      <trkpt lat="43.09802" lon="2.62363">
        <ele>151.2</ele>
        <time>2018-05-19T13:12:57Z</time>
      </trkpt>
      <trkpt lat="43.09785" lon="2.62384">
        <ele>152.7</ele>
        <time>2018-05-19T13:13:03Z</time>
      </trkpt>
      <trkpt lat="43.09773" lon="2.62395">
        <ele>153.1</ele>
        <time>2018-05-19T13:13:07Z</time>
      </trkpt>
      <trkpt lat="43.09764" lon="2.62406">
        <ele>153.5</ele>
        <time>2018-05-19T13:13:13Z</time>
      </trkpt>
      <trkpt lat="43.0975" lon="2.62409">
        <ele>155.5</ele>
        <time>2018-05-19T13:13:17Z</time>
      </trkpt>
      <trkpt lat="43.09739" lon="2.62399">
        <ele>157.4</ele>
        <time>2018-05-19T13:13:23Z</time>
      </trkpt>
      <trkpt lat="43.09727" lon="2.62375">
        <ele>158.7</ele>
        <time>2018-05-19T13:13:27Z</time>
      </trkpt>
      <trkpt lat="43.09723" lon="2.62356">
        <ele>158.3</ele>
        <time>2018-05-19T13:13:33Z</time>
      </trkpt>
      <trkpt lat="43.09728" lon="2.62326">
        <ele>156.9</ele>
        <time>2018-05-19T13:13:37Z</time>
      </trkpt>
      <trkpt lat="43.09733" lon="2.62307">
        <ele>158</ele>
        <time>2018-05-19T13:13:42Z</time>
      </trkpt>
      <trkpt lat="43.0974" lon="2.62278">
        <ele>157.7</ele>
        <time>2018-05-19T13:13:47Z</time>
      </trkpt>
      <trkpt lat="43.09744" lon="2.62259">
        <ele>154.5</ele>
        <time>2018-05-19T13:13:52Z</time>
      </trkpt>
      <trkpt lat="43.0975" lon="2.62236">
        <ele>146</ele>
        <time>2018-05-19T13:13:58Z</time>
      </trkpt>
      <trkpt lat="43.09754" lon="2.62219">
        <ele>144.1</ele>
        <time>2018-05-19T13:14:02Z</time>
      </trkpt>
      <trkpt lat="43.09755" lon="2.62191">
        <ele>145.5</ele>
        <time>2018-05-19T13:14:08Z</time>
      </trkpt>
      <trkpt lat="43.09753" lon="2.62172">
        <ele>150.9</ele>
        <time>2018-05-19T13:14:12Z</time>
      </trkpt>
      <trkpt lat="43.09746" lon="2.62143">
        <ele>156.8</ele>
        <time>2018-05-19T13:14:18Z</time>
      </trkpt>
      <trkpt lat="43.0974" lon="2.62126">
        <ele>156.2</ele>
        <time>2018-05-19T13:14:22Z</time>
      </trkpt>
      <trkpt lat="43.09727" lon="2.62105">
        <ele>154.9</ele>
        <time>2018-05-19T13:14:27Z</time>
      </trkpt>
      <trkpt lat="43.09707" lon="2.6208">
        <ele>147.9</ele>
        <time>2018-05-19T13:14:32Z</time>
      </trkpt>
      <trkpt lat="43.09694" lon="2.62057">
        <ele>148.7</ele>
        <time>2018-05-19T13:14:37Z</time>
      </trkpt>
      <trkpt lat="43.0968" lon="2.62032">
        <ele>147.6</ele>
        <time>2018-05-19T13:14:43Z</time>
      </trkpt>
      <trkpt lat="43.09665" lon="2.6201">
        <ele>156.3</ele>
        <time>2018-05-19T13:14:47Z</time>
      </trkpt>
      <trkpt lat="43.09655" lon="2.61994">
        <ele>152.2</ele>
        <time>2018-05-19T13:14:53Z</time>
      </trkpt>
      <trkpt lat="43.09641" lon="2.6197">
        <ele>153.8</ele>
        <time>2018-05-19T13:14:57Z</time>
      </trkpt>
      <trkpt lat="43.09631" lon="2.61956">
        <ele>154.1</ele>
        <time>2018-05-19T13:15:03Z</time>
      </trkpt>
      <trkpt lat="43.09618" lon="2.61932">
        <ele>154.8</ele>
        <time>2018-05-19T13:15:07Z</time>
      </trkpt>
      <trkpt lat="43.09609" lon="2.61916">
        <ele>150.3</ele>
        <time>2018-05-19T13:15:12Z</time>
      </trkpt>
      <trkpt lat="43.09595" lon="2.61898">
        <ele>152</ele>
        <time>2018-05-19T13:15:17Z</time>
      </trkpt>
      <trkpt lat="43.09552" lon="2.61883">
        <ele>159.8</ele>
        <time>2018-05-19T13:16:37Z</time>
      </trkpt>
      <trkpt lat="43.09536" lon="2.6188">
        <ele>159.8</ele>
        <time>2018-05-19T13:16:43Z</time>
      </trkpt>
      <trkpt lat="43.09509" lon="2.6189">
        <ele>159.4</ele>
        <time>2018-05-19T13:16:47Z</time>
      </trkpt>
      <trkpt lat="43.09487" lon="2.61909">
        <ele>152.6</ele>
        <time>2018-05-19T13:16:52Z</time>
      </trkpt>
      <trkpt lat="43.09476" lon="2.61944">
        <ele>147.6</ele>
        <time>2018-05-19T13:16:57Z</time>
      </trkpt>
      <trkpt lat="43.09471" lon="2.61971">
        <ele>146.6</ele>
        <time>2018-05-19T13:17:02Z</time>
      </trkpt>
      <trkpt lat="43.09467" lon="2.61998">
        <ele>146.6</ele>
        <time>2018-05-19T13:17:08Z</time>
      </trkpt>
      <trkpt lat="43.09467" lon="2.61998">
        <ele>146.6</ele>
        <time>2018-05-19T13:17:12Z</time>
      </trkpt>
      <trkpt lat="43.09467" lon="2.61998">
        <ele>146.6</ele>
        <time>2018-05-19T13:17:18Z</time>
      </trkpt>
      <trkpt lat="43.09467" lon="2.62012">
        <ele>147.6</ele>
        <time>2018-05-19T13:18:07Z</time>
      </trkpt>
      <trkpt lat="43.09465" lon="2.62043">
        <ele>147.4</ele>
        <time>2018-05-19T13:18:13Z</time>
      </trkpt>
      <trkpt lat="43.09463" lon="2.6207">
        <ele>147.9</ele>
        <time>2018-05-19T13:18:17Z</time>
      </trkpt>
      <trkpt lat="43.09458" lon="2.62109">
        <ele>151.6</ele>
        <time>2018-05-19T13:18:23Z</time>
      </trkpt>
      <trkpt lat="43.0945" lon="2.62142">
        <ele>151.7</ele>
        <time>2018-05-19T13:18:27Z</time>
      </trkpt>
      <trkpt lat="43.09437" lon="2.62178">
        <ele>155.3</ele>
        <time>2018-05-19T13:18:32Z</time>
      </trkpt>
      <trkpt lat="43.09421" lon="2.62213">
        <ele>158.4</ele>
        <time>2018-05-19T13:18:37Z</time>
      </trkpt>
      <trkpt lat="43.09399" lon="2.62247">
        <ele>147.9</ele>
        <time>2018-05-19T13:18:42Z</time>
      </trkpt>
      <trkpt lat="43.09376" lon="2.62279">
        <ele>152.4</ele>
        <time>2018-05-19T13:18:48Z</time>
      </trkpt>
      <trkpt lat="43.09351" lon="2.62307">
        <ele>151.6</ele>
        <time>2018-05-19T13:18:52Z</time>
      </trkpt>
      <trkpt lat="43.09328" lon="2.62336">
        <ele>148.5</ele>
        <time>2018-05-19T13:18:58Z</time>
      </trkpt>
      <trkpt lat="43.09307" lon="2.6236">
        <ele>150.1</ele>
        <time>2018-05-19T13:19:02Z</time>
      </trkpt>
      <trkpt lat="43.09278" lon="2.62384">
        <ele>149.7</ele>
        <time>2018-05-19T13:19:08Z</time>
      </trkpt>
      <trkpt lat="43.09251" lon="2.62408">
        <ele>147.9</ele>
        <time>2018-05-19T13:19:12Z</time>
      </trkpt>
      <trkpt lat="43.09221" lon="2.62428">
        <ele>152.3</ele>
        <time>2018-05-19T13:19:18Z</time>
      </trkpt>
      <trkpt lat="43.0919" lon="2.62439">
        <ele>151.2</ele>
        <time>2018-05-19T13:19:22Z</time>
      </trkpt>
      <trkpt lat="43.09156" lon="2.62443">
        <ele>148.7</ele>
        <time>2018-05-19T13:19:27Z</time>
      </trkpt>
      <trkpt lat="43.09114" lon="2.62436">
        <ele>149.4</ele>
        <time>2018-05-19T13:19:32Z</time>
      </trkpt>
      <trkpt lat="43.09081" lon="2.62413">
        <ele>141.9</ele>
        <time>2018-05-19T13:19:37Z</time>
      </trkpt>
      <trkpt lat="43.09054" lon="2.62386">
        <ele>141.6</ele>
        <time>2018-05-19T13:19:43Z</time>
      </trkpt>
      <trkpt lat="43.09033" lon="2.62347">
        <ele>140.2</ele>
        <time>2018-05-19T13:19:47Z</time>
      </trkpt>
      <trkpt lat="43.09015" lon="2.62307">
        <ele>135.2</ele>
        <time>2018-05-19T13:19:53Z</time>
      </trkpt>
      <trkpt lat="43.09" lon="2.62265">
        <ele>133.5</ele>
        <time>2018-05-19T13:19:57Z</time>
      </trkpt>
      <trkpt lat="43.08988" lon="2.62223">
        <ele>135.6</ele>
        <time>2018-05-19T13:20:03Z</time>
      </trkpt>
      <trkpt lat="43.08977" lon="2.62185">
        <ele>135.5</ele>
        <time>2018-05-19T13:20:07Z</time>
      </trkpt>
      <trkpt lat="43.08969" lon="2.62149">
        <ele>135.6</ele>
        <time>2018-05-19T13:20:12Z</time>
      </trkpt>
      <trkpt lat="43.08968" lon="2.62122">
        <ele>136</ele>
        <time>2018-05-19T13:20:17Z</time>
      </trkpt>
      <trkpt lat="43.08969" lon="2.62086">
        <ele>135.8</ele>
        <time>2018-05-19T13:20:22Z</time>
      </trkpt>
      <trkpt lat="43.08971" lon="2.62064">
        <ele>136.5</ele>
        <time>2018-05-19T13:20:28Z</time>
      </trkpt>
      <trkpt lat="43.08976" lon="2.6205">
        <ele>136.6</ele>
        <time>2018-05-19T13:20:32Z</time>
      </trkpt>
      <trkpt lat="43.08986" lon="2.62048">
        <ele>136.4</ele>
        <time>2018-05-19T13:20:38Z</time>
      </trkpt>
      <trkpt lat="43.08998" lon="2.62051">
        <ele>136</ele>
        <time>2018-05-19T13:20:42Z</time>
      </trkpt>
      <trkpt lat="43.09008" lon="2.62055">
        <ele>133.3</ele>
        <time>2018-05-19T13:20:48Z</time>
      </trkpt>
      <trkpt lat="43.09028" lon="2.62062">
        <ele>132.9</ele>
        <time>2018-05-19T13:20:52Z</time>
      </trkpt>
      <trkpt lat="43.09043" lon="2.62069">
        <ele>132.5</ele>
        <time>2018-05-19T13:20:58Z</time>
      </trkpt>
      <trkpt lat="43.09069" lon="2.62076">
        <ele>131.4</ele>
        <time>2018-05-19T13:21:02Z</time>
      </trkpt>
      <trkpt lat="43.09087" lon="2.62082">
        <ele>130</ele>
        <time>2018-05-19T13:21:07Z</time>
      </trkpt>
      <trkpt lat="43.09107" lon="2.62089">
        <ele>129.5</ele>
        <time>2018-05-19T13:21:12Z</time>
      </trkpt>
      <trkpt lat="43.09124" lon="2.62084">
        <ele>129.4</ele>
        <time>2018-05-19T13:21:17Z</time>
      </trkpt>
      <trkpt lat="43.09125" lon="2.62068">
        <ele>129.9</ele>
        <time>2018-05-19T13:21:23Z</time>
      </trkpt>
      <trkpt lat="43.09126" lon="2.62045">
        <ele>130</ele>
        <time>2018-05-19T13:21:27Z</time>
      </trkpt>
      <trkpt lat="43.09125" lon="2.62031">
        <ele>130.1</ele>
        <time>2018-05-19T13:21:33Z</time>
      </trkpt>
      <trkpt lat="43.09135" lon="2.62012">
        <ele>129.9</ele>
        <time>2018-05-19T13:21:37Z</time>
      </trkpt>
      <trkpt lat="43.09141" lon="2.61996">
        <ele>129.6</ele>
        <time>2018-05-19T13:21:43Z</time>
      </trkpt>
      <trkpt lat="43.09143" lon="2.61972">
        <ele>129.6</ele>
        <time>2018-05-19T13:21:47Z</time>
      </trkpt>
      <trkpt lat="43.09144" lon="2.61963">
        <ele>129.5</ele>
        <time>2018-05-19T13:21:52Z</time>
      </trkpt>
      <trkpt lat="43.09148" lon="2.61947">
        <ele>129.3</ele>
        <time>2018-05-19T13:21:58Z</time>
      </trkpt>
      <trkpt lat="43.09149" lon="2.61931">
        <ele>129</ele>
        <time>2018-05-19T13:22:03Z</time>
      </trkpt>
      <trkpt lat="43.09152" lon="2.61917">
        <ele>128.8</ele>
        <time>2018-05-19T13:22:08Z</time>
      </trkpt>
      <trkpt lat="43.09153" lon="2.6191">
        <ele>127.4</ele>
        <time>2018-05-19T13:22:13Z</time>
      </trkpt>
      <trkpt lat="43.09153" lon="2.6191">
        <ele>127.4</ele>
        <time>2018-05-19T13:22:18Z</time>
      </trkpt>
      <trkpt lat="43.09158" lon="2.61912">
        <ele>127.6</ele>
        <time>2018-05-19T13:22:23Z</time>
      </trkpt>
      <trkpt lat="43.0916" lon="2.61928">
        <ele>128.7</ele>
        <time>2018-05-19T13:22:28Z</time>
      </trkpt>
      <trkpt lat="43.09158" lon="2.61943">
        <ele>129.1</ele>
        <time>2018-05-19T13:22:32Z</time>
      </trkpt>
      <trkpt lat="43.09154" lon="2.61956">
        <ele>129.3</ele>
        <time>2018-05-19T13:22:37Z</time>
      </trkpt>
      <trkpt lat="43.09147" lon="2.61962">
        <ele>129.5</ele>
        <time>2018-05-19T13:22:42Z</time>
      </trkpt>
      <trkpt lat="43.09142" lon="2.61962">
        <ele>129.5</ele>
        <time>2018-05-19T13:22:47Z</time>
      </trkpt>
      <trkpt lat="43.09132" lon="2.61959">
        <ele>129.6</ele>
        <time>2018-05-19T13:22:53Z</time>
      </trkpt>
      <trkpt lat="43.09121" lon="2.61952">
        <ele>129.8</ele>
        <time>2018-05-19T13:22:57Z</time>
      </trkpt>
      <trkpt lat="43.0911" lon="2.61949">
        <ele>129.9</ele>
        <time>2018-05-19T13:23:03Z</time>
      </trkpt>
      <trkpt lat="43.09105" lon="2.61947">
        <ele>129.9</ele>
        <time>2018-05-19T13:23:07Z</time>
      </trkpt>
      <trkpt lat="43.091" lon="2.61946">
        <ele>130</ele>
        <time>2018-05-19T13:23:13Z</time>
      </trkpt>
      <trkpt lat="43.091" lon="2.61946">
        <ele>130</ele>
        <time>2018-05-19T13:23:18Z</time>
      </trkpt>
      <trkpt lat="43.09096" lon="2.61949">
        <ele>130</ele>
        <time>2018-05-19T13:23:23Z</time>
      </trkpt>
      <trkpt lat="43.09096" lon="2.61949">
        <ele>130</ele>
        <time>2018-05-19T13:23:28Z</time>
      </trkpt>
      <trkpt lat="43.09101" lon="2.61949">
        <ele>130</ele>
        <time>2018-05-19T13:23:32Z</time>
      </trkpt>
      <trkpt lat="43.09106" lon="2.6195">
        <ele>129.9</ele>
        <time>2018-05-19T13:23:37Z</time>
      </trkpt>
      <trkpt lat="43.09106" lon="2.6195">
        <ele>129.9</ele>
        <time>2018-05-19T13:23:42Z</time>
      </trkpt>
      <trkpt lat="43.09106" lon="2.6195">
        <ele>129.9</ele>
        <time>2018-05-19T13:23:48Z</time>
      </trkpt>
      <trkpt lat="43.09106" lon="2.6195">
        <ele>129.9</ele>
        <time>2018-05-19T13:23:53Z</time>
      </trkpt>
      <trkpt lat="43.09106" lon="2.6195">
        <ele>129.9</ele>
        <time>2018-05-19T13:23:57Z</time>
      </trkpt>
      <trkpt lat="43.09108" lon="2.61957">
        <ele>130</ele>
        <time>2018-05-19T13:24:12Z</time>
      </trkpt>
      <trkpt lat="43.09103" lon="2.6197">
        <ele>130.2</ele>
        <time>2018-05-19T13:24:17Z</time>
      </trkpt>
      <trkpt lat="43.09098" lon="2.61981">
        <ele>130.6</ele>
        <time>2018-05-19T13:24:22Z</time>
      </trkpt>
      <trkpt lat="43.09088" lon="2.61986">
        <ele>131</ele>
        <time>2018-05-19T13:24:27Z</time>
      </trkpt>
      <trkpt lat="43.09088" lon="2.61982">
        <ele>130.8</ele>
        <time>2018-05-19T13:41:12Z</time>
      </trkpt>
      <trkpt lat="43.09093" lon="2.61969">
        <ele>130.4</ele>
        <time>2018-05-19T13:41:17Z</time>
      </trkpt>
      <trkpt lat="43.09094" lon="2.61955">
        <ele>130.1</ele>
        <time>2018-05-19T13:41:22Z</time>
      </trkpt>
      <trkpt lat="43.09095" lon="2.6194">
        <ele>129.9</ele>
        <time>2018-05-19T13:41:27Z</time>
      </trkpt>
      <trkpt lat="43.09096" lon="2.61934">
        <ele>129.9</ele>
        <time>2018-05-19T13:41:32Z</time>
      </trkpt>
      <trkpt lat="43.09094" lon="2.61918">
        <ele>129.9</ele>
        <time>2018-05-19T13:41:37Z</time>
      </trkpt>
      <trkpt lat="43.09099" lon="2.61905">
        <ele>128.1</ele>
        <time>2018-05-19T13:41:42Z</time>
      </trkpt>
      <trkpt lat="43.09109" lon="2.61903">
        <ele>127.6</ele>
        <time>2018-05-19T13:41:47Z</time>
      </trkpt>
      <trkpt lat="43.09115" lon="2.61903">
        <ele>127.5</ele>
        <time>2018-05-19T13:41:53Z</time>
      </trkpt>
      <trkpt lat="43.09125" lon="2.61896">
        <ele>127.1</ele>
        <time>2018-05-19T13:41:57Z</time>
      </trkpt>
      <trkpt lat="43.09132" lon="2.61888">
        <ele>126.8</ele>
        <time>2018-05-19T13:42:02Z</time>
      </trkpt>
      <trkpt lat="43.09142" lon="2.6188">
        <ele>126.6</ele>
        <time>2018-05-19T13:42:07Z</time>
      </trkpt>
      <trkpt lat="43.09142" lon="2.61873">
        <ele>126.3</ele>
        <time>2018-05-19T13:42:12Z</time>
      </trkpt>
      <trkpt lat="43.09137" lon="2.61871">
        <ele>126.3</ele>
        <time>2018-05-19T13:42:17Z</time>
      </trkpt>
      <trkpt lat="43.09137" lon="2.61871">
        <ele>126.3</ele>
        <time>2018-05-19T13:42:22Z</time>
      </trkpt>
      <trkpt lat="43.09134" lon="2.61875">
        <ele>126.5</ele>
        <time>2018-05-19T13:42:27Z</time>
      </trkpt>
      <trkpt lat="43.09134" lon="2.61875">
        <ele>126.5</ele>
        <time>2018-05-19T13:42:32Z</time>
      </trkpt>
      <trkpt lat="43.09134" lon="2.61875">
        <ele>126.5</ele>
        <time>2018-05-19T13:42:37Z</time>
      </trkpt>
      <trkpt lat="43.09134" lon="2.61875">
        <ele>126.5</ele>
        <time>2018-05-19T13:42:42Z</time>
      </trkpt>
      <trkpt lat="43.09134" lon="2.61875">
        <ele>126.5</ele>
        <time>2018-05-19T13:42:47Z</time>
      </trkpt>
      <trkpt lat="43.09139" lon="2.61872">
        <ele>126.3</ele>
        <time>2018-05-19T13:43:02Z</time>
      </trkpt>
      <trkpt lat="43.09139" lon="2.61872">
        <ele>126.3</ele>
        <time>2018-05-19T13:43:07Z</time>
      </trkpt>
      <trkpt lat="43.09139" lon="2.61872">
        <ele>126.3</ele>
        <time>2018-05-19T13:43:12Z</time>
      </trkpt>
      <trkpt lat="43.09143" lon="2.6187">
        <ele>126.2</ele>
        <time>2018-05-19T13:43:17Z</time>
      </trkpt>
      <trkpt lat="43.09147" lon="2.61869">
        <ele>126.2</ele>
        <time>2018-05-19T13:43:22Z</time>
      </trkpt>
      <trkpt lat="43.0916" lon="2.61871">
        <ele>126.2</ele>
        <time>2018-05-19T13:43:27Z</time>
      </trkpt>
      <trkpt lat="43.0917" lon="2.61868">
        <ele>125.1</ele>
        <time>2018-05-19T13:43:32Z</time>
      </trkpt>
      <trkpt lat="43.09175" lon="2.61867">
        <ele>125.1</ele>
        <time>2018-05-19T13:43:37Z</time>
      </trkpt>
      <trkpt lat="43.09186" lon="2.61871">
        <ele>125.2</ele>
        <time>2018-05-19T13:43:42Z</time>
      </trkpt>
      <trkpt lat="43.09198" lon="2.61874">
        <ele>125.1</ele>
        <time>2018-05-19T13:43:47Z</time>
      </trkpt>
      <trkpt lat="43.09205" lon="2.61882">
        <ele>125.1</ele>
        <time>2018-05-19T13:43:52Z</time>
      </trkpt>
      <trkpt lat="43.09205" lon="2.61882">
        <ele>125.1</ele>
        <time>2018-05-19T13:43:57Z</time>
      </trkpt>
      <trkpt lat="43.09208" lon="2.61888">
        <ele>125.1</ele>
        <time>2018-05-19T13:44:02Z</time>
      </trkpt>
      <trkpt lat="43.09213" lon="2.61884">
        <ele>125</ele>
        <time>2018-05-19T13:44:07Z</time>
      </trkpt>
      <trkpt lat="43.09215" lon="2.61877">
        <ele>124.9</ele>
        <time>2018-05-19T13:44:12Z</time>
      </trkpt>
      <trkpt lat="43.09219" lon="2.61863">
        <ele>124.8</ele>
        <time>2018-05-19T13:44:17Z</time>
      </trkpt>
      <trkpt lat="43.0922" lon="2.61856">
        <ele>124.7</ele>
        <time>2018-05-19T13:44:22Z</time>
      </trkpt>
      <trkpt lat="43.09222" lon="2.61849">
        <ele>124.6</ele>
        <time>2018-05-19T13:44:27Z</time>
      </trkpt>
      <trkpt lat="43.09224" lon="2.61842">
        <ele>124.6</ele>
        <time>2018-05-19T13:44:32Z</time>
      </trkpt>
      <trkpt lat="43.09224" lon="2.61842">
        <ele>124.6</ele>
        <time>2018-05-19T13:44:37Z</time>
      </trkpt>
      <trkpt lat="43.09224" lon="2.61842">
        <ele>124.6</ele>
        <time>2018-05-19T13:44:42Z</time>
      </trkpt>
      <trkpt lat="43.09227" lon="2.61837">
        <ele>124.5</ele>
        <time>2018-05-19T13:44:47Z</time>
      </trkpt>
      <trkpt lat="43.0923" lon="2.61832">
        <ele>125</ele>
        <time>2018-05-19T13:44:52Z</time>
      </trkpt>
      <trkpt lat="43.0923" lon="2.61832">
        <ele>125</ele>
        <time>2018-05-19T13:44:57Z</time>
      </trkpt>
      <trkpt lat="43.09235" lon="2.61818">
        <ele>125.2</ele>
        <time>2018-05-19T13:45:02Z</time>
      </trkpt>
      <trkpt lat="43.0923" lon="2.61799">
        <ele>125.9</ele>
        <time>2018-05-19T13:45:07Z</time>
      </trkpt>
      <trkpt lat="43.09226" lon="2.61794">
        <ele>126</ele>
        <time>2018-05-19T13:45:12Z</time>
      </trkpt>
      <trkpt lat="43.09221" lon="2.61795">
        <ele>126</ele>
        <time>2018-05-19T13:45:17Z</time>
      </trkpt>
      <trkpt lat="43.09221" lon="2.61795">
        <ele>126</ele>
        <time>2018-05-19T13:45:22Z</time>
      </trkpt>
      <trkpt lat="43.09221" lon="2.61795">
        <ele>126</ele>
        <time>2018-05-19T13:45:27Z</time>
      </trkpt>
      <trkpt lat="43.09221" lon="2.61795">
        <ele>126</ele>
        <time>2018-05-19T13:45:32Z</time>
      </trkpt>
      <trkpt lat="43.09221" lon="2.61795">
        <ele>126</ele>
        <time>2018-05-19T13:45:37Z</time>
      </trkpt>
      <trkpt lat="43.09215" lon="2.61785">
        <ele>126.2</ele>
        <time>2018-05-19T13:45:42Z</time>
      </trkpt>
      <trkpt lat="43.09205" lon="2.61774">
        <ele>126.4</ele>
        <time>2018-05-19T13:45:47Z</time>
      </trkpt>
      <trkpt lat="43.09197" lon="2.61764">
        <ele>126.5</ele>
        <time>2018-05-19T13:45:52Z</time>
      </trkpt>
      <trkpt lat="43.09183" lon="2.61749">
        <ele>128.8</ele>
        <time>2018-05-19T13:45:57Z</time>
      </trkpt>
      <trkpt lat="43.09176" lon="2.61739">
        <ele>128.8</ele>
        <time>2018-05-19T13:46:02Z</time>
      </trkpt>
      <trkpt lat="43.09163" lon="2.61727">
        <ele>129.8</ele>
        <time>2018-05-19T13:46:07Z</time>
      </trkpt>
      <trkpt lat="43.09152" lon="2.61724">
        <ele>130.1</ele>
        <time>2018-05-19T13:46:12Z</time>
      </trkpt>
      <trkpt lat="43.09136" lon="2.61722">
        <ele>130.2</ele>
        <time>2018-05-19T13:46:17Z</time>
      </trkpt>
      <trkpt lat="43.09143" lon="2.61733">
        <ele>129.6</ele>
        <time>2018-05-19T15:06:42Z</time>
      </trkpt>
      <trkpt lat="43.09156" lon="2.61738">
        <ele>128.9</ele>
        <time>2018-05-19T15:06:47Z</time>
      </trkpt>
      <trkpt lat="43.09177" lon="2.61743">
        <ele>128.6</ele>
        <time>2018-05-19T15:06:52Z</time>
      </trkpt>
      <trkpt lat="43.0919" lon="2.61753">
        <ele>126.6</ele>
        <time>2018-05-19T15:06:57Z</time>
      </trkpt>
      <trkpt lat="43.09206" lon="2.61768">
        <ele>126.5</ele>
        <time>2018-05-19T15:07:02Z</time>
      </trkpt>
      <trkpt lat="43.09215" lon="2.61784">
        <ele>126.2</ele>
        <time>2018-05-19T15:07:07Z</time>
      </trkpt>
      <trkpt lat="43.09231" lon="2.61805">
        <ele>125.7</ele>
        <time>2018-05-19T15:07:12Z</time>
      </trkpt>
      <trkpt lat="43.0924" lon="2.61817">
        <ele>125.2</ele>
        <time>2018-05-19T15:07:17Z</time>
      </trkpt>
      <trkpt lat="43.09242" lon="2.61823">
        <ele>124.9</ele>
        <time>2018-05-19T15:07:22Z</time>
      </trkpt>
      <trkpt lat="43.09238" lon="2.61817">
        <ele>125.2</ele>
        <time>2018-05-19T15:07:27Z</time>
      </trkpt>
      <trkpt lat="43.09238" lon="2.61817">
        <ele>125.2</ele>
        <time>2018-05-19T15:07:32Z</time>
      </trkpt>
      <trkpt lat="43.09238" lon="2.61817">
        <ele>125.2</ele>
        <time>2018-05-19T15:07:37Z</time>
      </trkpt>
      <trkpt lat="43.09238" lon="2.61817">
        <ele>125.2</ele>
        <time>2018-05-19T15:07:42Z</time>
      </trkpt>
      <trkpt lat="43.09243" lon="2.61811">
        <ele>125.4</ele>
        <time>2018-05-19T15:07:47Z</time>
      </trkpt>
      <trkpt lat="43.09253" lon="2.61809">
        <ele>124.2</ele>
        <time>2018-05-19T15:07:52Z</time>
      </trkpt>
      <trkpt lat="43.09264" lon="2.61809">
        <ele>124.1</ele>
        <time>2018-05-19T15:07:57Z</time>
      </trkpt>
      <trkpt lat="43.09283" lon="2.61803">
        <ele>123.8</ele>
        <time>2018-05-19T15:08:02Z</time>
      </trkpt>
      <trkpt lat="43.09296" lon="2.61797">
        <ele>123.6</ele>
        <time>2018-05-19T15:08:07Z</time>
      </trkpt>
      <trkpt lat="43.09314" lon="2.61804">
        <ele>122.9</ele>
        <time>2018-05-19T15:08:12Z</time>
      </trkpt>
      <trkpt lat="43.09317" lon="2.61827">
        <ele>122.3</ele>
        <time>2018-05-19T15:08:17Z</time>
      </trkpt>
      <trkpt lat="43.09315" lon="2.61857">
        <ele>121.8</ele>
        <time>2018-05-19T15:08:22Z</time>
      </trkpt>
      <trkpt lat="43.0931" lon="2.61871">
        <ele>121.9</ele>
        <time>2018-05-19T15:08:27Z</time>
      </trkpt>
      <trkpt lat="43.09294" lon="2.61913">
        <ele>122.1</ele>
        <time>2018-05-19T15:09:52Z</time>
      </trkpt>
      <trkpt lat="43.09284" lon="2.61947">
        <ele>123.7</ele>
        <time>2018-05-19T15:09:57Z</time>
      </trkpt>
      <trkpt lat="43.09277" lon="2.61977">
        <ele>124.5</ele>
        <time>2018-05-19T15:10:02Z</time>
      </trkpt>
      <trkpt lat="43.09268" lon="2.62005">
        <ele>126.4</ele>
        <time>2018-05-19T15:10:07Z</time>
      </trkpt>
      <trkpt lat="43.09254" lon="2.62025">
        <ele>126.5</ele>
        <time>2018-05-19T15:10:12Z</time>
      </trkpt>
      <trkpt lat="43.09239" lon="2.62046">
        <ele>128</ele>
        <time>2018-05-19T15:10:17Z</time>
      </trkpt>
      <trkpt lat="43.09226" lon="2.62062">
        <ele>128.2</ele>
        <time>2018-05-19T15:10:22Z</time>
      </trkpt>
      <trkpt lat="43.09203" lon="2.62082">
        <ele>128.4</ele>
        <time>2018-05-19T15:10:27Z</time>
      </trkpt>
      <trkpt lat="43.09183" lon="2.62101">
        <ele>128.4</ele>
        <time>2018-05-19T15:10:32Z</time>
      </trkpt>
      <trkpt lat="43.09168" lon="2.62109">
        <ele>128.4</ele>
        <time>2018-05-19T15:10:37Z</time>
      </trkpt>
      <trkpt lat="43.09146" lon="2.62109">
        <ele>129.1</ele>
        <time>2018-05-19T15:10:42Z</time>
      </trkpt>
      <trkpt lat="43.09134" lon="2.62108">
        <ele>129.2</ele>
        <time>2018-05-19T15:10:47Z</time>
      </trkpt>
      <trkpt lat="43.09129" lon="2.62098">
        <ele>129.3</ele>
        <time>2018-05-19T15:10:52Z</time>
      </trkpt>
      <trkpt lat="43.09144" lon="2.62086">
        <ele>129.2</ele>
        <time>2018-05-19T15:15:37Z</time>
      </trkpt>
      <trkpt lat="43.09147" lon="2.62097">
        <ele>129.2</ele>
        <time>2018-05-19T15:15:42Z</time>
      </trkpt>
      <trkpt lat="43.09158" lon="2.62099">
        <ele>129.1</ele>
        <time>2018-05-19T15:15:47Z</time>
      </trkpt>
      <trkpt lat="43.09181" lon="2.62097">
        <ele>128.5</ele>
        <time>2018-05-19T15:15:52Z</time>
      </trkpt>
      <trkpt lat="43.09198" lon="2.62093">
        <ele>128.3</ele>
        <time>2018-05-19T15:15:57Z</time>
      </trkpt>
      <trkpt lat="43.09216" lon="2.62072">
        <ele>128.3</ele>
        <time>2018-05-19T15:16:02Z</time>
      </trkpt>
      <trkpt lat="43.09226" lon="2.62054">
        <ele>128.1</ele>
        <time>2018-05-19T15:16:07Z</time>
      </trkpt>
      <trkpt lat="43.09243" lon="2.62033">
        <ele>127.9</ele>
        <time>2018-05-19T15:16:12Z</time>
      </trkpt>
      <trkpt lat="43.0925" lon="2.62019">
        <ele>127.7</ele>
        <time>2018-05-19T15:16:17Z</time>
      </trkpt>
      <trkpt lat="43.09262" lon="2.62002">
        <ele>126.6</ele>
        <time>2018-05-19T15:16:22Z</time>
      </trkpt>
      <trkpt lat="43.09274" lon="2.61992">
        <ele>124.9</ele>
        <time>2018-05-19T15:16:27Z</time>
      </trkpt>
      <trkpt lat="43.09292" lon="2.61973">
        <ele>124</ele>
        <time>2018-05-19T15:16:32Z</time>
      </trkpt>
      <trkpt lat="43.09303" lon="2.6195">
        <ele>123.3</ele>
        <time>2018-05-19T15:16:37Z</time>
      </trkpt>
      <trkpt lat="43.09307" lon="2.61924">
        <ele>122.5</ele>
        <time>2018-05-19T15:16:42Z</time>
      </trkpt>
      <trkpt lat="43.09313" lon="2.6189">
        <ele>121.7</ele>
        <time>2018-05-19T15:16:47Z</time>
      </trkpt>
      <trkpt lat="43.09317" lon="2.61866">
        <ele>121.8</ele>
        <time>2018-05-19T15:16:52Z</time>
      </trkpt>
      <trkpt lat="43.09314" lon="2.61831">
        <ele>122.4</ele>
        <time>2018-05-19T15:16:57Z</time>
      </trkpt>
      <trkpt lat="43.09307" lon="2.61795">
        <ele>123.2</ele>
        <time>2018-05-19T15:17:02Z</time>
      </trkpt>
      <trkpt lat="43.09298" lon="2.61769">
        <ele>123.7</ele>
        <time>2018-05-19T15:17:07Z</time>
      </trkpt>
      <trkpt lat="43.09291" lon="2.61748">
        <ele>125.4</ele>
        <time>2018-05-19T15:17:12Z</time>
      </trkpt>
      <trkpt lat="43.0928" lon="2.61718">
        <ele>125.9</ele>
        <time>2018-05-19T15:17:17Z</time>
      </trkpt>
      <trkpt lat="43.09269" lon="2.61683">
        <ele>126.2</ele>
        <time>2018-05-19T15:17:22Z</time>
      </trkpt>
      <trkpt lat="43.09256" lon="2.61647">
        <ele>126.3</ele>
        <time>2018-05-19T15:17:27Z</time>
      </trkpt>
      <trkpt lat="43.09247" lon="2.61617">
        <ele>130</ele>
        <time>2018-05-19T15:17:32Z</time>
      </trkpt>
      <trkpt lat="43.09237" lon="2.61575">
        <ele>127.7</ele>
        <time>2018-05-19T15:17:37Z</time>
      </trkpt>
      <trkpt lat="43.09226" lon="2.61535">
        <ele>131.9</ele>
        <time>2018-05-19T15:17:42Z</time>
      </trkpt>
      <trkpt lat="43.09216" lon="2.61496">
        <ele>130.1</ele>
        <time>2018-05-19T15:17:47Z</time>
      </trkpt>
      <trkpt lat="43.09205" lon="2.61459">
        <ele>130.5</ele>
        <time>2018-05-19T15:17:52Z</time>
      </trkpt>
      <trkpt lat="43.09193" lon="2.61423">
        <ele>128.9</ele>
        <time>2018-05-19T15:17:57Z</time>
      </trkpt>
      <trkpt lat="43.09183" lon="2.61387">
        <ele>126.4</ele>
        <time>2018-05-19T15:18:02Z</time>
      </trkpt>
      <trkpt lat="43.0917" lon="2.61351">
        <ele>123.5</ele>
        <time>2018-05-19T15:18:07Z</time>
      </trkpt>
      <trkpt lat="43.09158" lon="2.61319">
        <ele>126.9</ele>
        <time>2018-05-19T15:18:12Z</time>
      </trkpt>
      <trkpt lat="43.09152" lon="2.61283">
        <ele>130.1</ele>
        <time>2018-05-19T15:18:17Z</time>
      </trkpt>
      <trkpt lat="43.09154" lon="2.61247">
        <ele>123.3</ele>
        <time>2018-05-19T15:18:22Z</time>
      </trkpt>
      <trkpt lat="43.09149" lon="2.61218">
        <ele>126.1</ele>
        <time>2018-05-19T15:18:27Z</time>
      </trkpt>
      <trkpt lat="43.09139" lon="2.61177">
        <ele>125.9</ele>
        <time>2018-05-19T15:18:32Z</time>
      </trkpt>
      <trkpt lat="43.09138" lon="2.61143">
        <ele>126.3</ele>
        <time>2018-05-19T15:18:37Z</time>
      </trkpt>
      <trkpt lat="43.09138" lon="2.6111">
        <ele>126.9</ele>
        <time>2018-05-19T15:18:42Z</time>
      </trkpt>
      <trkpt lat="43.09142" lon="2.6108">
        <ele>131.2</ele>
        <time>2018-05-19T15:18:47Z</time>
      </trkpt>
      <trkpt lat="43.09152" lon="2.61059">
        <ele>132</ele>
        <time>2018-05-19T15:18:52Z</time>
      </trkpt>
      <trkpt lat="43.09172" lon="2.61028">
        <ele>128.2</ele>
        <time>2018-05-19T15:18:57Z</time>
      </trkpt>
      <trkpt lat="43.09187" lon="2.6101">
        <ele>129.1</ele>
        <time>2018-05-19T15:19:02Z</time>
      </trkpt>
      <trkpt lat="43.09213" lon="2.60982">
        <ele>132.5</ele>
        <time>2018-05-19T15:19:07Z</time>
      </trkpt>
      <trkpt lat="43.09234" lon="2.60958">
        <ele>132</ele>
        <time>2018-05-19T15:19:12Z</time>
      </trkpt>
      <trkpt lat="43.09253" lon="2.60935">
        <ele>126</ele>
        <time>2018-05-19T15:19:17Z</time>
      </trkpt>
      <trkpt lat="43.09268" lon="2.60907">
        <ele>126.5</ele>
        <time>2018-05-19T15:19:22Z</time>
      </trkpt>
      <trkpt lat="43.09289" lon="2.6088">
        <ele>126.1</ele>
        <time>2018-05-19T15:19:27Z</time>
      </trkpt>
      <trkpt lat="43.09309" lon="2.60853">
        <ele>124.4</ele>
        <time>2018-05-19T15:19:32Z</time>
      </trkpt>
      <trkpt lat="43.09329" lon="2.60834">
        <ele>119.4</ele>
        <time>2018-05-19T15:19:37Z</time>
      </trkpt>
      <trkpt lat="43.09355" lon="2.60808">
        <ele>120.5</ele>
        <time>2018-05-19T15:19:42Z</time>
      </trkpt>
      <trkpt lat="43.09376" lon="2.60778">
        <ele>121.2</ele>
        <time>2018-05-19T15:19:47Z</time>
      </trkpt>
      <trkpt lat="43.09392" lon="2.60761">
        <ele>120.2</ele>
        <time>2018-05-19T15:19:52Z</time>
      </trkpt>
      <trkpt lat="43.09412" lon="2.60735">
        <ele>124.3</ele>
        <time>2018-05-19T15:19:57Z</time>
      </trkpt>
      <trkpt lat="43.09435" lon="2.6072">
        <ele>120.1</ele>
        <time>2018-05-19T15:20:02Z</time>
      </trkpt>
      <trkpt lat="43.09457" lon="2.60695">
        <ele>120.8</ele>
        <time>2018-05-19T15:20:07Z</time>
      </trkpt>
      <trkpt lat="43.09477" lon="2.60674">
        <ele>119.9</ele>
        <time>2018-05-19T15:20:12Z</time>
      </trkpt>
      <trkpt lat="43.09492" lon="2.60656">
        <ele>125.3</ele>
        <time>2018-05-19T15:20:17Z</time>
      </trkpt>
      <trkpt lat="43.09508" lon="2.60641">
        <ele>121.4</ele>
        <time>2018-05-19T15:20:22Z</time>
      </trkpt>
      <trkpt lat="43.09525" lon="2.60623">
        <ele>122.7</ele>
        <time>2018-05-19T15:20:27Z</time>
      </trkpt>
      <trkpt lat="43.09539" lon="2.60604">
        <ele>123.1</ele>
        <time>2018-05-19T15:20:32Z</time>
      </trkpt>
      <trkpt lat="43.09549" lon="2.60581">
        <ele>125</ele>
        <time>2018-05-19T15:20:37Z</time>
      </trkpt>
      <trkpt lat="43.09551" lon="2.60563">
        <ele>124.9</ele>
        <time>2018-05-19T15:20:42Z</time>
      </trkpt>
      <trkpt lat="43.09541" lon="2.60536">
        <ele>125.8</ele>
        <time>2018-05-19T15:20:47Z</time>
      </trkpt>
      <trkpt lat="43.09533" lon="2.60522">
        <ele>126.5</ele>
        <time>2018-05-19T15:20:52Z</time>
      </trkpt>
      <trkpt lat="43.09523" lon="2.605">
        <ele>126.9</ele>
        <time>2018-05-19T15:20:57Z</time>
      </trkpt>
      <trkpt lat="43.09518" lon="2.60484">
        <ele>126.9</ele>
        <time>2018-05-19T15:21:02Z</time>
      </trkpt>
      <trkpt lat="43.09509" lon="2.60461">
        <ele>125.8</ele>
        <time>2018-05-19T15:21:07Z</time>
      </trkpt>
      <trkpt lat="43.09503" lon="2.60446">
        <ele>125.3</ele>
        <time>2018-05-19T15:21:12Z</time>
      </trkpt>
      <trkpt lat="43.09494" lon="2.60421">
        <ele>132.9</ele>
        <time>2018-05-19T15:21:17Z</time>
      </trkpt>
      <trkpt lat="43.09488" lon="2.60405">
        <ele>135.4</ele>
        <time>2018-05-19T15:21:22Z</time>
      </trkpt>
      <trkpt lat="43.09481" lon="2.60379">
        <ele>139.7</ele>
        <time>2018-05-19T15:21:27Z</time>
      </trkpt>
      <trkpt lat="43.09478" lon="2.60361">
        <ele>138.9</ele>
        <time>2018-05-19T15:21:32Z</time>
      </trkpt>
      <trkpt lat="43.09474" lon="2.60333">
        <ele>132.5</ele>
        <time>2018-05-19T15:21:37Z</time>
      </trkpt>
      <trkpt lat="43.09474" lon="2.60314">
        <ele>133.6</ele>
        <time>2018-05-19T15:21:42Z</time>
      </trkpt>
      <trkpt lat="43.0947" lon="2.60284">
        <ele>134.9</ele>
        <time>2018-05-19T15:21:47Z</time>
      </trkpt>
      <trkpt lat="43.09467" lon="2.60262">
        <ele>134.4</ele>
        <time>2018-05-19T15:21:52Z</time>
      </trkpt>
      <trkpt lat="43.09467" lon="2.60228">
        <ele>132.3</ele>
        <time>2018-05-19T15:21:57Z</time>
      </trkpt>
      <trkpt lat="43.09467" lon="2.60205">
        <ele>132.4</ele>
        <time>2018-05-19T15:22:02Z</time>
      </trkpt>
      <trkpt lat="43.09464" lon="2.60171">
        <ele>132.1</ele>
        <time>2018-05-19T15:22:07Z</time>
      </trkpt>
      <trkpt lat="43.09465" lon="2.60151">
        <ele>129.7</ele>
        <time>2018-05-19T15:22:12Z</time>
      </trkpt>
      <trkpt lat="43.09464" lon="2.60119">
        <ele>129.2</ele>
        <time>2018-05-19T15:22:17Z</time>
      </trkpt>
      <trkpt lat="43.09463" lon="2.60096">
        <ele>128.8</ele>
        <time>2018-05-19T15:22:22Z</time>
      </trkpt>
      <trkpt lat="43.09463" lon="2.60067">
        <ele>125.8</ele>
        <time>2018-05-19T15:22:27Z</time>
      </trkpt>
      <trkpt lat="43.09464" lon="2.60032">
        <ele>125</ele>
        <time>2018-05-19T15:22:32Z</time>
      </trkpt>
      <trkpt lat="43.09461" lon="2.6001">
        <ele>124.5</ele>
        <time>2018-05-19T15:22:37Z</time>
      </trkpt>
      <trkpt lat="43.09455" lon="2.59977">
        <ele>123.9</ele>
        <time>2018-05-19T15:22:42Z</time>
      </trkpt>
      <trkpt lat="43.09446" lon="2.59958">
        <ele>123.8</ele>
        <time>2018-05-19T15:22:47Z</time>
      </trkpt>
      <trkpt lat="43.09424" lon="2.5994">
        <ele>123</ele>
        <time>2018-05-19T15:22:52Z</time>
      </trkpt>
      <trkpt lat="43.09406" lon="2.59925">
        <ele>123.4</ele>
        <time>2018-05-19T15:22:57Z</time>
      </trkpt>
      <trkpt lat="43.09392" lon="2.59911">
        <ele>132.1</ele>
        <time>2018-05-19T15:23:02Z</time>
      </trkpt>
      <trkpt lat="43.0937" lon="2.59904">
        <ele>136.3</ele>
        <time>2018-05-19T15:23:07Z</time>
      </trkpt>
      <trkpt lat="43.09348" lon="2.59919">
        <ele>131.5</ele>
        <time>2018-05-19T15:23:12Z</time>
      </trkpt>
      <trkpt lat="43.09338" lon="2.59936">
        <ele>130.5</ele>
        <time>2018-05-19T15:23:17Z</time>
      </trkpt>
      <trkpt lat="43.09329" lon="2.59966">
        <ele>138.4</ele>
        <time>2018-05-19T15:23:22Z</time>
      </trkpt>
      <trkpt lat="43.09324" lon="2.59984">
        <ele>135.1</ele>
        <time>2018-05-19T15:23:27Z</time>
      </trkpt>
      <trkpt lat="43.09317" lon="2.60012">
        <ele>130.7</ele>
        <time>2018-05-19T15:23:32Z</time>
      </trkpt>
      <trkpt lat="43.09312" lon="2.6003">
        <ele>131.9</ele>
        <time>2018-05-19T15:23:37Z</time>
      </trkpt>
      <trkpt lat="43.09305" lon="2.60051">
        <ele>132</ele>
        <time>2018-05-19T15:23:42Z</time>
      </trkpt>
      <trkpt lat="43.09301" lon="2.60064">
        <ele>131.7</ele>
        <time>2018-05-19T15:23:47Z</time>
      </trkpt>
      <trkpt lat="43.09292" lon="2.60084">
        <ele>128.7</ele>
        <time>2018-05-19T15:23:52Z</time>
      </trkpt>
      <trkpt lat="43.09285" lon="2.60096">
        <ele>129.2</ele>
        <time>2018-05-19T15:23:57Z</time>
      </trkpt>
      <trkpt lat="43.0927" lon="2.6011">
        <ele>129.4</ele>
        <time>2018-05-19T15:24:02Z</time>
      </trkpt>
      <trkpt lat="43.0926" lon="2.60117">
        <ele>129.2</ele>
        <time>2018-05-19T15:24:07Z</time>
      </trkpt>
      <trkpt lat="43.09243" lon="2.6012">
        <ele>129.4</ele>
        <time>2018-05-19T15:24:12Z</time>
      </trkpt>
      <trkpt lat="43.0923" lon="2.60119">
        <ele>129.3</ele>
        <time>2018-05-19T15:24:17Z</time>
      </trkpt>
      <trkpt lat="43.09212" lon="2.60115">
        <ele>129.5</ele>
        <time>2018-05-19T15:24:22Z</time>
      </trkpt>
      <trkpt lat="43.09199" lon="2.60112">
        <ele>129.7</ele>
        <time>2018-05-19T15:24:27Z</time>
      </trkpt>
      <trkpt lat="43.09177" lon="2.60106">
        <ele>130.5</ele>
        <time>2018-05-19T15:24:32Z</time>
      </trkpt>
      <trkpt lat="43.09157" lon="2.60101">
        <ele>130</ele>
        <time>2018-05-19T15:24:37Z</time>
      </trkpt>
      <trkpt lat="43.09137" lon="2.60092">
        <ele>129</ele>
        <time>2018-05-19T15:24:42Z</time>
      </trkpt>
      <trkpt lat="43.09122" lon="2.60081">
        <ele>132.8</ele>
        <time>2018-05-19T15:24:47Z</time>
      </trkpt>
      <trkpt lat="43.09107" lon="2.60058">
        <ele>132.4</ele>
        <time>2018-05-19T15:24:52Z</time>
      </trkpt>
      <trkpt lat="43.091" lon="2.60039">
        <ele>132.8</ele>
        <time>2018-05-19T15:24:57Z</time>
      </trkpt>
      <trkpt lat="43.09097" lon="2.60009">
        <ele>132.1</ele>
        <time>2018-05-19T15:25:02Z</time>
      </trkpt>
      <trkpt lat="43.091" lon="2.59986">
        <ele>134.8</ele>
        <time>2018-05-19T15:25:07Z</time>
      </trkpt>
      <trkpt lat="43.09106" lon="2.59955">
        <ele>136.6</ele>
        <time>2018-05-19T15:25:12Z</time>
      </trkpt>
      <trkpt lat="43.09113" lon="2.59936">
        <ele>136.9</ele>
        <time>2018-05-19T15:25:17Z</time>
      </trkpt>
      <trkpt lat="43.09128" lon="2.59912">
        <ele>137.9</ele>
        <time>2018-05-19T15:25:22Z</time>
      </trkpt>
      <trkpt lat="43.09137" lon="2.59895">
        <ele>138.7</ele>
        <time>2018-05-19T15:25:27Z</time>
      </trkpt>
      <trkpt lat="43.09152" lon="2.59872">
        <ele>138.1</ele>
        <time>2018-05-19T15:25:32Z</time>
      </trkpt>
      <trkpt lat="43.09161" lon="2.59859">
        <ele>137.3</ele>
        <time>2018-05-19T15:25:37Z</time>
      </trkpt>
      <trkpt lat="43.09177" lon="2.59842">
        <ele>141.9</ele>
        <time>2018-05-19T15:25:42Z</time>
      </trkpt>
      <trkpt lat="43.09187" lon="2.5983">
        <ele>139.2</ele>
        <time>2018-05-19T15:25:47Z</time>
      </trkpt>
      <trkpt lat="43.09203" lon="2.59815">
        <ele>141.4</ele>
        <time>2018-05-19T15:25:52Z</time>
      </trkpt>
      <trkpt lat="43.09213" lon="2.59805">
        <ele>142.2</ele>
        <time>2018-05-19T15:25:59Z</time>
      </trkpt>
      <trkpt lat="43.09227" lon="2.59786">
        <ele>141.7</ele>
        <time>2018-05-19T15:26:02Z</time>
      </trkpt>
      <trkpt lat="43.09238" lon="2.59772">
        <ele>140.6</ele>
        <time>2018-05-19T15:26:07Z</time>
      </trkpt>
      <trkpt lat="43.09254" lon="2.59752">
        <ele>141.1</ele>
        <time>2018-05-19T15:26:12Z</time>
      </trkpt>
      <trkpt lat="43.09263" lon="2.5974">
        <ele>142.5</ele>
        <time>2018-05-19T15:26:17Z</time>
      </trkpt>
      <trkpt lat="43.09278" lon="2.59719">
        <ele>145.6</ele>
        <time>2018-05-19T15:26:22Z</time>
      </trkpt>
      <trkpt lat="43.09288" lon="2.59703">
        <ele>146.5</ele>
        <time>2018-05-19T15:26:27Z</time>
      </trkpt>
      <trkpt lat="43.09303" lon="2.59678">
        <ele>148.2</ele>
        <time>2018-05-19T15:26:32Z</time>
      </trkpt>
      <trkpt lat="43.0931" lon="2.59657">
        <ele>146.8</ele>
        <time>2018-05-19T15:26:37Z</time>
      </trkpt>
      <trkpt lat="43.09313" lon="2.59623">
        <ele>145.4</ele>
        <time>2018-05-19T15:26:42Z</time>
      </trkpt>
      <trkpt lat="43.0931" lon="2.59601">
        <ele>145.5</ele>
        <time>2018-05-19T15:26:47Z</time>
      </trkpt>
      <trkpt lat="43.09299" lon="2.59571">
        <ele>146.2</ele>
        <time>2018-05-19T15:26:52Z</time>
      </trkpt>
      <trkpt lat="43.09283" lon="2.59557">
        <ele>144.1</ele>
        <time>2018-05-19T15:26:57Z</time>
      </trkpt>
      <trkpt lat="43.09259" lon="2.59548">
        <ele>141.9</ele>
        <time>2018-05-19T15:27:02Z</time>
      </trkpt>
      <trkpt lat="43.09238" lon="2.59544">
        <ele>136.8</ele>
        <time>2018-05-19T15:27:07Z</time>
      </trkpt>
      <trkpt lat="43.09222" lon="2.5954">
        <ele>137.4</ele>
        <time>2018-05-19T15:27:12Z</time>
      </trkpt>
      <trkpt lat="43.092" lon="2.59531">
        <ele>137.9</ele>
        <time>2018-05-19T15:27:17Z</time>
      </trkpt>
      <trkpt lat="43.09187" lon="2.59512">
        <ele>136.8</ele>
        <time>2018-05-19T15:27:22Z</time>
      </trkpt>
      <trkpt lat="43.09183" lon="2.59491">
        <ele>136.5</ele>
        <time>2018-05-19T15:27:27Z</time>
      </trkpt>
      <trkpt lat="43.0918" lon="2.59457">
        <ele>137.7</ele>
        <time>2018-05-19T15:27:32Z</time>
      </trkpt>
      <trkpt lat="43.09183" lon="2.59432">
        <ele>137.4</ele>
        <time>2018-05-19T15:27:37Z</time>
      </trkpt>
      <trkpt lat="43.09193" lon="2.59406">
        <ele>140.9</ele>
        <time>2018-05-19T15:27:42Z</time>
      </trkpt>
      <trkpt lat="43.09206" lon="2.59379">
        <ele>143.2</ele>
        <time>2018-05-19T15:27:47Z</time>
      </trkpt>
      <trkpt lat="43.0921" lon="2.59362">
        <ele>143.9</ele>
        <time>2018-05-19T15:27:52Z</time>
      </trkpt>
      <trkpt lat="43.09215" lon="2.59337">
        <ele>144.8</ele>
        <time>2018-05-19T15:27:57Z</time>
      </trkpt>
      <trkpt lat="43.09218" lon="2.59318">
        <ele>145.8</ele>
        <time>2018-05-19T15:28:02Z</time>
      </trkpt>
      <trkpt lat="43.09216" lon="2.59285">
        <ele>145.4</ele>
        <time>2018-05-19T15:28:07Z</time>
      </trkpt>
      <trkpt lat="43.09218" lon="2.59264">
        <ele>145.9</ele>
        <time>2018-05-19T15:28:12Z</time>
      </trkpt>
      <trkpt lat="43.0922" lon="2.59234">
        <ele>148</ele>
        <time>2018-05-19T15:28:17Z</time>
      </trkpt>
      <trkpt lat="43.09219" lon="2.5921">
        <ele>148.2</ele>
        <time>2018-05-19T15:28:22Z</time>
      </trkpt>
      <trkpt lat="43.09218" lon="2.5918">
        <ele>149.1</ele>
        <time>2018-05-19T15:28:27Z</time>
      </trkpt>
      <trkpt lat="43.09217" lon="2.59161">
        <ele>149.8</ele>
        <time>2018-05-19T15:28:32Z</time>
      </trkpt>
      <trkpt lat="43.09217" lon="2.59133">
        <ele>149.2</ele>
        <time>2018-05-19T15:28:37Z</time>
      </trkpt>
      <trkpt lat="43.09217" lon="2.59115">
        <ele>148.9</ele>
        <time>2018-05-19T15:28:42Z</time>
      </trkpt>
      <trkpt lat="43.09218" lon="2.59088">
        <ele>148.8</ele>
        <time>2018-05-19T15:28:47Z</time>
      </trkpt>
      <trkpt lat="43.09219" lon="2.59072">
        <ele>147</ele>
        <time>2018-05-19T15:28:52Z</time>
      </trkpt>
      <trkpt lat="43.0922" lon="2.59046">
        <ele>146.5</ele>
        <time>2018-05-19T15:28:57Z</time>
      </trkpt>
      <trkpt lat="43.0922" lon="2.59029">
        <ele>146.3</ele>
        <time>2018-05-19T15:29:02Z</time>
      </trkpt>
      <trkpt lat="43.09223" lon="2.59006">
        <ele>146.5</ele>
        <time>2018-05-19T15:29:07Z</time>
      </trkpt>
      <trkpt lat="43.09226" lon="2.58989">
        <ele>146.2</ele>
        <time>2018-05-19T15:29:12Z</time>
      </trkpt>
      <trkpt lat="43.09229" lon="2.58965">
        <ele>145.8</ele>
        <time>2018-05-19T15:29:17Z</time>
      </trkpt>
      <trkpt lat="43.09231" lon="2.5895">
        <ele>145.6</ele>
        <time>2018-05-19T15:29:22Z</time>
      </trkpt>
      <trkpt lat="43.09236" lon="2.58925">
        <ele>145.3</ele>
        <time>2018-05-19T15:29:27Z</time>
      </trkpt>
      <trkpt lat="43.09241" lon="2.58907">
        <ele>145.7</ele>
        <time>2018-05-19T15:29:32Z</time>
      </trkpt>
      <trkpt lat="43.09248" lon="2.5888">
        <ele>145.9</ele>
        <time>2018-05-19T15:29:37Z</time>
      </trkpt>
      <trkpt lat="43.09254" lon="2.58862">
        <ele>151.4</ele>
        <time>2018-05-19T15:29:42Z</time>
      </trkpt>
      <trkpt lat="43.0926" lon="2.58837">
        <ele>147.5</ele>
        <time>2018-05-19T15:29:47Z</time>
      </trkpt>
      <trkpt lat="43.09266" lon="2.58823">
        <ele>150</ele>
        <time>2018-05-19T15:29:52Z</time>
      </trkpt>
      <trkpt lat="43.09275" lon="2.58801">
        <ele>153.7</ele>
        <time>2018-05-19T15:29:57Z</time>
      </trkpt>
      <trkpt lat="43.09277" lon="2.58784">
        <ele>154.2</ele>
        <time>2018-05-19T15:30:02Z</time>
      </trkpt>
      <trkpt lat="43.09281" lon="2.58755">
        <ele>154</ele>
        <time>2018-05-19T15:30:07Z</time>
      </trkpt>
      <trkpt lat="43.09284" lon="2.58735">
        <ele>153.5</ele>
        <time>2018-05-19T15:30:12Z</time>
      </trkpt>
      <trkpt lat="43.09288" lon="2.58703">
        <ele>153.6</ele>
        <time>2018-05-19T15:30:17Z</time>
      </trkpt>
      <trkpt lat="43.09293" lon="2.58684">
        <ele>153.8</ele>
        <time>2018-05-19T15:30:22Z</time>
      </trkpt>
      <trkpt lat="43.09306" lon="2.58663">
        <ele>153.4</ele>
        <time>2018-05-19T15:30:27Z</time>
      </trkpt>
      <trkpt lat="43.09305" lon="2.58634">
        <ele>152.1</ele>
        <time>2018-05-19T15:30:32Z</time>
      </trkpt>
      <trkpt lat="43.09306" lon="2.58612">
        <ele>151.5</ele>
        <time>2018-05-19T15:30:37Z</time>
      </trkpt>
      <trkpt lat="43.09309" lon="2.58579">
        <ele>150.7</ele>
        <time>2018-05-19T15:30:42Z</time>
      </trkpt>
      <trkpt lat="43.0931" lon="2.58559">
        <ele>150.4</ele>
        <time>2018-05-19T15:30:47Z</time>
      </trkpt>
      <trkpt lat="43.09316" lon="2.58527">
        <ele>150.1</ele>
        <time>2018-05-19T15:30:52Z</time>
      </trkpt>
      <trkpt lat="43.09321" lon="2.58507">
        <ele>150</ele>
        <time>2018-05-19T15:30:57Z</time>
      </trkpt>
      <trkpt lat="43.09328" lon="2.58477">
        <ele>149.9</ele>
        <time>2018-05-19T15:31:02Z</time>
      </trkpt>
      <trkpt lat="43.09332" lon="2.58456">
        <ele>150.3</ele>
        <time>2018-05-19T15:31:07Z</time>
      </trkpt>
      <trkpt lat="43.09335" lon="2.58425">
        <ele>158.8</ele>
        <time>2018-05-19T15:31:12Z</time>
      </trkpt>
      <trkpt lat="43.09326" lon="2.58397">
        <ele>155</ele>
        <time>2018-05-19T15:31:17Z</time>
      </trkpt>
      <trkpt lat="43.09311" lon="2.58373">
        <ele>156.6</ele>
        <time>2018-05-19T15:31:22Z</time>
      </trkpt>
      <trkpt lat="43.09295" lon="2.58351">
        <ele>156.5</ele>
        <time>2018-05-19T15:31:27Z</time>
      </trkpt>
      <trkpt lat="43.09284" lon="2.58336">
        <ele>154.6</ele>
        <time>2018-05-19T15:31:32Z</time>
      </trkpt>
      <trkpt lat="43.09266" lon="2.58316">
        <ele>164.8</ele>
        <time>2018-05-19T15:31:37Z</time>
      </trkpt>
      <trkpt lat="43.09251" lon="2.58305">
        <ele>166.5</ele>
        <time>2018-05-19T15:31:42Z</time>
      </trkpt>
      <trkpt lat="43.0923" lon="2.58291">
        <ele>161.7</ele>
        <time>2018-05-19T15:31:47Z</time>
      </trkpt>
      <trkpt lat="43.09215" lon="2.58284">
        <ele>162.7</ele>
        <time>2018-05-19T15:31:52Z</time>
      </trkpt>
      <trkpt lat="43.09193" lon="2.58279">
        <ele>163.3</ele>
        <time>2018-05-19T15:31:57Z</time>
      </trkpt>
      <trkpt lat="43.09178" lon="2.58279">
        <ele>163.5</ele>
        <time>2018-05-19T15:32:02Z</time>
      </trkpt>
      <trkpt lat="43.09156" lon="2.58288">
        <ele>160.3</ele>
        <time>2018-05-19T15:32:07Z</time>
      </trkpt>
      <trkpt lat="43.09144" lon="2.58298">
        <ele>158.4</ele>
        <time>2018-05-19T15:32:12Z</time>
      </trkpt>
      <trkpt lat="43.09128" lon="2.58312">
        <ele>157.1</ele>
        <time>2018-05-19T15:32:17Z</time>
      </trkpt>
      <trkpt lat="43.09117" lon="2.58323">
        <ele>156.5</ele>
        <time>2018-05-19T15:32:22Z</time>
      </trkpt>
      <trkpt lat="43.091" lon="2.58341">
        <ele>149.9</ele>
        <time>2018-05-19T15:32:27Z</time>
      </trkpt>
      <trkpt lat="43.09091" lon="2.58355">
        <ele>149.5</ele>
        <time>2018-05-19T15:32:32Z</time>
      </trkpt>
      <trkpt lat="43.09082" lon="2.58379">
        <ele>151</ele>
        <time>2018-05-19T15:32:37Z</time>
      </trkpt>
      <trkpt lat="43.09076" lon="2.58396">
        <ele>150</ele>
        <time>2018-05-19T15:32:42Z</time>
      </trkpt>
      <trkpt lat="43.09066" lon="2.58423">
        <ele>147.6</ele>
        <time>2018-05-19T15:32:47Z</time>
      </trkpt>
      <trkpt lat="43.0906" lon="2.58442">
        <ele>147.7</ele>
        <time>2018-05-19T15:32:52Z</time>
      </trkpt>
      <trkpt lat="43.09051" lon="2.5847">
        <ele>147.4</ele>
        <time>2018-05-19T15:32:57Z</time>
      </trkpt>
      <trkpt lat="43.09045" lon="2.58488">
        <ele>147</ele>
        <time>2018-05-19T15:33:02Z</time>
      </trkpt>
      <trkpt lat="43.09029" lon="2.58508">
        <ele>148.8</ele>
        <time>2018-05-19T15:33:07Z</time>
      </trkpt>
      <trkpt lat="43.09009" lon="2.58507">
        <ele>147.1</ele>
        <time>2018-05-19T15:33:12Z</time>
      </trkpt>
      <trkpt lat="43.08995" lon="2.58497">
        <ele>145.9</ele>
        <time>2018-05-19T15:33:17Z</time>
      </trkpt>
      <trkpt lat="43.08982" lon="2.58481">
        <ele>147.8</ele>
        <time>2018-05-19T15:33:22Z</time>
      </trkpt>
      <trkpt lat="43.08979" lon="2.58466">
        <ele>148.5</ele>
        <time>2018-05-19T15:33:27Z</time>
      </trkpt>
      <trkpt lat="43.08977" lon="2.58437">
        <ele>149.5</ele>
        <time>2018-05-19T15:33:32Z</time>
      </trkpt>
      <trkpt lat="43.0898" lon="2.5841">
        <ele>151</ele>
        <time>2018-05-19T15:33:37Z</time>
      </trkpt>
      <trkpt lat="43.08984" lon="2.5839">
        <ele>150.9</ele>
        <time>2018-05-19T15:33:42Z</time>
      </trkpt>
      <trkpt lat="43.08989" lon="2.58358">
        <ele>151.7</ele>
        <time>2018-05-19T15:33:47Z</time>
      </trkpt>
      <trkpt lat="43.0899" lon="2.58335">
        <ele>153.2</ele>
        <time>2018-05-19T15:33:52Z</time>
      </trkpt>
      <trkpt lat="43.08992" lon="2.58302">
        <ele>153</ele>
        <time>2018-05-19T15:33:57Z</time>
      </trkpt>
      <trkpt lat="43.08993" lon="2.58282">
        <ele>153.2</ele>
        <time>2018-05-19T15:34:02Z</time>
      </trkpt>
      <trkpt lat="43.08994" lon="2.58252">
        <ele>154.4</ele>
        <time>2018-05-19T15:34:07Z</time>
      </trkpt>
      <trkpt lat="43.08997" lon="2.58232">
        <ele>154.4</ele>
        <time>2018-05-19T15:34:12Z</time>
      </trkpt>
      <trkpt lat="43.09004" lon="2.58207">
        <ele>160.1</ele>
        <time>2018-05-19T15:34:17Z</time>
      </trkpt>
      <trkpt lat="43.09008" lon="2.5819">
        <ele>159</ele>
        <time>2018-05-19T15:34:22Z</time>
      </trkpt>
      <trkpt lat="43.09011" lon="2.58161">
        <ele>156.9</ele>
        <time>2018-05-19T15:34:27Z</time>
      </trkpt>
      <trkpt lat="43.09012" lon="2.58141">
        <ele>160.6</ele>
        <time>2018-05-19T15:34:32Z</time>
      </trkpt>
      <trkpt lat="43.0901" lon="2.58111">
        <ele>160.9</ele>
        <time>2018-05-19T15:34:37Z</time>
      </trkpt>
      <trkpt lat="43.09006" lon="2.58093">
        <ele>156.9</ele>
        <time>2018-05-19T15:34:42Z</time>
      </trkpt>
      <trkpt lat="43.09002" lon="2.58064">
        <ele>159.1</ele>
        <time>2018-05-19T15:34:47Z</time>
      </trkpt>
      <trkpt lat="43.09003" lon="2.58045">
        <ele>161.1</ele>
        <time>2018-05-19T15:34:52Z</time>
      </trkpt>
      <trkpt lat="43.09008" lon="2.58027">
        <ele>160.7</ele>
        <time>2018-05-19T15:34:57Z</time>
      </trkpt>
      <trkpt lat="43.09015" lon="2.58">
        <ele>158.9</ele>
        <time>2018-05-19T15:35:02Z</time>
      </trkpt>
      <trkpt lat="43.0902" lon="2.57972">
        <ele>159.6</ele>
        <time>2018-05-19T15:35:07Z</time>
      </trkpt>
      <trkpt lat="43.09024" lon="2.57953">
        <ele>159.6</ele>
        <time>2018-05-19T15:35:12Z</time>
      </trkpt>
      <trkpt lat="43.09033" lon="2.57926">
        <ele>159.4</ele>
        <time>2018-05-19T15:35:17Z</time>
      </trkpt>
      <trkpt lat="43.0904" lon="2.5791">
        <ele>156</ele>
        <time>2018-05-19T15:35:22Z</time>
      </trkpt>
      <trkpt lat="43.09042" lon="2.57879">
        <ele>155.4</ele>
        <time>2018-05-19T15:35:27Z</time>
      </trkpt>
      <trkpt lat="43.09038" lon="2.57858">
        <ele>154.7</ele>
        <time>2018-05-19T15:35:32Z</time>
      </trkpt>
      <trkpt lat="43.09035" lon="2.57836">
        <ele>154.4</ele>
        <time>2018-05-19T15:35:37Z</time>
      </trkpt>
      <trkpt lat="43.09044" lon="2.57801">
        <ele>162.6</ele>
        <time>2018-05-19T15:35:42Z</time>
      </trkpt>
      <trkpt lat="43.09062" lon="2.57788">
        <ele>163.4</ele>
        <time>2018-05-19T15:35:47Z</time>
      </trkpt>
      <trkpt lat="43.09076" lon="2.57785">
        <ele>163.3</ele>
        <time>2018-05-19T15:35:52Z</time>
      </trkpt>
      <trkpt lat="43.09101" lon="2.57785">
        <ele>158.5</ele>
        <time>2018-05-19T15:35:57Z</time>
      </trkpt>
      <trkpt lat="43.09114" lon="2.57785">
        <ele>158</ele>
        <time>2018-05-19T15:36:02Z</time>
      </trkpt>
      <trkpt lat="43.09133" lon="2.57782">
        <ele>157.5</ele>
        <time>2018-05-19T15:36:07Z</time>
      </trkpt>
      <trkpt lat="43.09147" lon="2.5778">
        <ele>157.3</ele>
        <time>2018-05-19T15:36:12Z</time>
      </trkpt>
      <trkpt lat="43.0917" lon="2.57778">
        <ele>157</ele>
        <time>2018-05-19T15:36:17Z</time>
      </trkpt>
      <trkpt lat="43.09184" lon="2.57772">
        <ele>157.1</ele>
        <time>2018-05-19T15:36:22Z</time>
      </trkpt>
      <trkpt lat="43.09202" lon="2.57756">
        <ele>156.9</ele>
        <time>2018-05-19T15:36:27Z</time>
      </trkpt>
      <trkpt lat="43.09215" lon="2.57745">
        <ele>159.6</ele>
        <time>2018-05-19T15:36:32Z</time>
      </trkpt>
      <trkpt lat="43.09234" lon="2.57728">
        <ele>159.3</ele>
        <time>2018-05-19T15:36:37Z</time>
      </trkpt>
      <trkpt lat="43.09246" lon="2.57717">
        <ele>160.1</ele>
        <time>2018-05-19T15:36:42Z</time>
      </trkpt>
      <trkpt lat="43.0926" lon="2.57692">
        <ele>163.5</ele>
        <time>2018-05-19T15:36:47Z</time>
      </trkpt>
      <trkpt lat="43.09265" lon="2.57671">
        <ele>163.7</ele>
        <time>2018-05-19T15:36:52Z</time>
      </trkpt>
      <trkpt lat="43.0927" lon="2.57639">
        <ele>166.7</ele>
        <time>2018-05-19T15:36:57Z</time>
      </trkpt>
      <trkpt lat="43.09273" lon="2.57618">
        <ele>168.4</ele>
        <time>2018-05-19T15:37:02Z</time>
      </trkpt>
      <trkpt lat="43.09278" lon="2.57586">
        <ele>170.3</ele>
        <time>2018-05-19T15:37:07Z</time>
      </trkpt>
      <trkpt lat="43.09282" lon="2.57564">
        <ele>174.3</ele>
        <time>2018-05-19T15:37:12Z</time>
      </trkpt>
      <trkpt lat="43.09291" lon="2.57531">
        <ele>174.3</ele>
        <time>2018-05-19T15:37:17Z</time>
      </trkpt>
      <trkpt lat="43.09297" lon="2.5751">
        <ele>173.1</ele>
        <time>2018-05-19T15:37:22Z</time>
      </trkpt>
      <trkpt lat="43.09307" lon="2.57479">
        <ele>176.2</ele>
        <time>2018-05-19T15:37:27Z</time>
      </trkpt>
      <trkpt lat="43.09313" lon="2.57458">
        <ele>176.6</ele>
        <time>2018-05-19T15:37:32Z</time>
      </trkpt>
      <trkpt lat="43.09324" lon="2.57431">
        <ele>172.3</ele>
        <time>2018-05-19T15:37:37Z</time>
      </trkpt>
      <trkpt lat="43.09332" lon="2.57413">
        <ele>167.7</ele>
        <time>2018-05-19T15:37:42Z</time>
      </trkpt>
      <trkpt lat="43.09344" lon="2.57388">
        <ele>167.8</ele>
        <time>2018-05-19T15:37:47Z</time>
      </trkpt>
      <trkpt lat="43.09353" lon="2.57372">
        <ele>168.8</ele>
        <time>2018-05-19T15:37:52Z</time>
      </trkpt>
      <trkpt lat="43.09362" lon="2.57348">
        <ele>169.3</ele>
        <time>2018-05-19T15:37:57Z</time>
      </trkpt>
      <trkpt lat="43.09369" lon="2.57331">
        <ele>167.4</ele>
        <time>2018-05-19T15:38:02Z</time>
      </trkpt>
      <trkpt lat="43.09387" lon="2.57309">
        <ele>165.4</ele>
        <time>2018-05-19T15:38:07Z</time>
      </trkpt>
      <trkpt lat="43.09398" lon="2.57286">
        <ele>164.3</ele>
        <time>2018-05-19T15:38:12Z</time>
      </trkpt>
      <trkpt lat="43.09399" lon="2.57264">
        <ele>162.8</ele>
        <time>2018-05-19T15:38:17Z</time>
      </trkpt>
      <trkpt lat="43.09396" lon="2.57234">
        <ele>162</ele>
        <time>2018-05-19T15:38:22Z</time>
      </trkpt>
      <trkpt lat="43.09389" lon="2.57214">
        <ele>162.9</ele>
        <time>2018-05-19T15:38:27Z</time>
      </trkpt>
      <trkpt lat="43.09371" lon="2.57195">
        <ele>163.1</ele>
        <time>2018-05-19T15:38:32Z</time>
      </trkpt>
      <trkpt lat="43.09356" lon="2.57191">
        <ele>162.7</ele>
        <time>2018-05-19T15:38:37Z</time>
      </trkpt>
      <trkpt lat="43.09335" lon="2.57188">
        <ele>162</ele>
        <time>2018-05-19T15:38:42Z</time>
      </trkpt>
      <trkpt lat="43.09321" lon="2.57187">
        <ele>165</ele>
        <time>2018-05-19T15:38:47Z</time>
      </trkpt>
      <trkpt lat="43.093" lon="2.57186">
        <ele>166.6</ele>
        <time>2018-05-19T15:38:52Z</time>
      </trkpt>
      <trkpt lat="43.09286" lon="2.57184">
        <ele>167.1</ele>
        <time>2018-05-19T15:38:57Z</time>
      </trkpt>
      <trkpt lat="43.09264" lon="2.57182">
        <ele>166.4</ele>
        <time>2018-05-19T15:39:02Z</time>
      </trkpt>
      <trkpt lat="43.0925" lon="2.57181">
        <ele>167.6</ele>
        <time>2018-05-19T15:39:07Z</time>
      </trkpt>
      <trkpt lat="43.09228" lon="2.57179">
        <ele>169.3</ele>
        <time>2018-05-19T15:39:12Z</time>
      </trkpt>
      <trkpt lat="43.09213" lon="2.57177">
        <ele>170.1</ele>
        <time>2018-05-19T15:39:17Z</time>
      </trkpt>
      <trkpt lat="43.0919" lon="2.57175">
        <ele>168.7</ele>
        <time>2018-05-19T15:39:22Z</time>
      </trkpt>
      <trkpt lat="43.09173" lon="2.57173">
        <ele>165</ele>
        <time>2018-05-19T15:39:27Z</time>
      </trkpt>
      <trkpt lat="43.09149" lon="2.5717">
        <ele>167.3</ele>
        <time>2018-05-19T15:39:32Z</time>
      </trkpt>
      <trkpt lat="43.09133" lon="2.57168">
        <ele>169.2</ele>
        <time>2018-05-19T15:39:37Z</time>
      </trkpt>
      <trkpt lat="43.09113" lon="2.57172">
        <ele>169.5</ele>
        <time>2018-05-19T15:39:42Z</time>
      </trkpt>
      <trkpt lat="43.091" lon="2.5718">
        <ele>169.3</ele>
        <time>2018-05-19T15:39:47Z</time>
      </trkpt>
      <trkpt lat="43.0908" lon="2.57194">
        <ele>168.7</ele>
        <time>2018-05-19T15:39:52Z</time>
      </trkpt>
      <trkpt lat="43.09068" lon="2.57203">
        <ele>169.9</ele>
        <time>2018-05-19T15:39:57Z</time>
      </trkpt>
      <trkpt lat="43.0905" lon="2.57214">
        <ele>170.7</ele>
        <time>2018-05-19T15:40:02Z</time>
      </trkpt>
      <trkpt lat="43.09039" lon="2.57222">
        <ele>170.9</ele>
        <time>2018-05-19T15:40:07Z</time>
      </trkpt>
      <trkpt lat="43.09022" lon="2.57233">
        <ele>171.1</ele>
        <time>2018-05-19T15:40:12Z</time>
      </trkpt>
      <trkpt lat="43.09011" lon="2.57239">
        <ele>171.6</ele>
        <time>2018-05-19T15:40:17Z</time>
      </trkpt>
      <trkpt lat="43.08993" lon="2.5724">
        <ele>173.2</ele>
        <time>2018-05-19T15:40:22Z</time>
      </trkpt>
      <trkpt lat="43.08982" lon="2.57237">
        <ele>173.6</ele>
        <time>2018-05-19T15:40:27Z</time>
      </trkpt>
      <trkpt lat="43.08965" lon="2.57226">
        <ele>174.3</ele>
        <time>2018-05-19T15:40:32Z</time>
      </trkpt>
      <trkpt lat="43.08955" lon="2.57216">
        <ele>174.6</ele>
        <time>2018-05-19T15:40:37Z</time>
      </trkpt>
      <trkpt lat="43.08941" lon="2.572">
        <ele>174.7</ele>
        <time>2018-05-19T15:40:42Z</time>
      </trkpt>
      <trkpt lat="43.08934" lon="2.57186">
        <ele>174.6</ele>
        <time>2018-05-19T15:40:47Z</time>
      </trkpt>
      <trkpt lat="43.0893" lon="2.57162">
        <ele>172.9</ele>
        <time>2018-05-19T15:40:52Z</time>
      </trkpt>
      <trkpt lat="43.08932" lon="2.57145">
        <ele>171.7</ele>
        <time>2018-05-19T15:40:57Z</time>
      </trkpt>
      <trkpt lat="43.08935" lon="2.57122">
        <ele>170.9</ele>
        <time>2018-05-19T15:41:02Z</time>
      </trkpt>
      <trkpt lat="43.08937" lon="2.57106">
        <ele>171.1</ele>
        <time>2018-05-19T15:41:07Z</time>
      </trkpt>
      <trkpt lat="43.0894" lon="2.57083">
        <ele>171.5</ele>
        <time>2018-05-19T15:41:12Z</time>
      </trkpt>
      <trkpt lat="43.08944" lon="2.57066">
        <ele>171</ele>
        <time>2018-05-19T15:41:17Z</time>
      </trkpt>
      <trkpt lat="43.08952" lon="2.57043">
        <ele>170.2</ele>
        <time>2018-05-19T15:41:22Z</time>
      </trkpt>
      <trkpt lat="43.08957" lon="2.57029">
        <ele>169.9</ele>
        <time>2018-05-19T15:41:27Z</time>
      </trkpt>
      <trkpt lat="43.08961" lon="2.57004">
        <ele>169.5</ele>
        <time>2018-05-19T15:41:32Z</time>
      </trkpt>
      <trkpt lat="43.08963" lon="2.56988">
        <ele>170.3</ele>
        <time>2018-05-19T15:41:37Z</time>
      </trkpt>
      <trkpt lat="43.08966" lon="2.56963">
        <ele>170.6</ele>
        <time>2018-05-19T15:41:42Z</time>
      </trkpt>
      <trkpt lat="43.08968" lon="2.56946">
        <ele>170.7</ele>
        <time>2018-05-19T15:41:47Z</time>
      </trkpt>
      <trkpt lat="43.08971" lon="2.56919">
        <ele>170.1</ele>
        <time>2018-05-19T15:41:52Z</time>
      </trkpt>
      <trkpt lat="43.08973" lon="2.56902">
        <ele>172.3</ele>
        <time>2018-05-19T15:41:57Z</time>
      </trkpt>
      <trkpt lat="43.08977" lon="2.56878">
        <ele>172.8</ele>
        <time>2018-05-19T15:42:02Z</time>
      </trkpt>
      <trkpt lat="43.0898" lon="2.56862">
        <ele>172.4</ele>
        <time>2018-05-19T15:42:07Z</time>
      </trkpt>
      <trkpt lat="43.08985" lon="2.56837">
        <ele>169.6</ele>
        <time>2018-05-19T15:42:12Z</time>
      </trkpt>
      <trkpt lat="43.08989" lon="2.5682">
        <ele>171.9</ele>
        <time>2018-05-19T15:42:17Z</time>
      </trkpt>
      <trkpt lat="43.08994" lon="2.56797">
        <ele>174.9</ele>
        <time>2018-05-19T15:42:22Z</time>
      </trkpt>
      <trkpt lat="43.08998" lon="2.56781">
        <ele>175.1</ele>
        <time>2018-05-19T15:42:27Z</time>
      </trkpt>
      <trkpt lat="43.09004" lon="2.56757">
        <ele>168.5</ele>
        <time>2018-05-19T15:42:32Z</time>
      </trkpt>
      <trkpt lat="43.09008" lon="2.5674">
        <ele>169.2</ele>
        <time>2018-05-19T15:42:37Z</time>
      </trkpt>
      <trkpt lat="43.09017" lon="2.56715">
        <ele>169.9</ele>
        <time>2018-05-19T15:42:42Z</time>
      </trkpt>
      <trkpt lat="43.09022" lon="2.567">
        <ele>170.5</ele>
        <time>2018-05-19T15:42:47Z</time>
      </trkpt>
      <trkpt lat="43.09031" lon="2.56676">
        <ele>170.9</ele>
        <time>2018-05-19T15:42:52Z</time>
      </trkpt>
      <trkpt lat="43.09035" lon="2.5666">
        <ele>172.3</ele>
        <time>2018-05-19T15:42:57Z</time>
      </trkpt>
      <trkpt lat="43.09042" lon="2.56634">
        <ele>171.6</ele>
        <time>2018-05-19T15:43:02Z</time>
      </trkpt>
      <trkpt lat="43.09047" lon="2.56619">
        <ele>171.1</ele>
        <time>2018-05-19T15:43:07Z</time>
      </trkpt>
      <trkpt lat="43.09053" lon="2.56594">
        <ele>170</ele>
        <time>2018-05-19T15:43:12Z</time>
      </trkpt>
      <trkpt lat="43.09057" lon="2.56574">
        <ele>171.7</ele>
        <time>2018-05-19T15:43:17Z</time>
      </trkpt>
      <trkpt lat="43.0906" lon="2.56544">
        <ele>173.2</ele>
        <time>2018-05-19T15:43:22Z</time>
      </trkpt>
      <trkpt lat="43.09064" lon="2.56528">
        <ele>172.8</ele>
        <time>2018-05-19T15:43:27Z</time>
      </trkpt>
      <trkpt lat="43.09073" lon="2.56504">
        <ele>168.6</ele>
        <time>2018-05-19T15:43:32Z</time>
      </trkpt>
      <trkpt lat="43.09078" lon="2.56486">
        <ele>173.3</ele>
        <time>2018-05-19T15:43:37Z</time>
      </trkpt>
      <trkpt lat="43.09083" lon="2.56458">
        <ele>179</ele>
        <time>2018-05-19T15:43:42Z</time>
      </trkpt>
      <trkpt lat="43.09087" lon="2.5644">
        <ele>171</ele>
        <time>2018-05-19T15:43:47Z</time>
      </trkpt>
      <trkpt lat="43.09094" lon="2.56413">
        <ele>173.9</ele>
        <time>2018-05-19T15:43:52Z</time>
      </trkpt>
      <trkpt lat="43.09097" lon="2.56395">
        <ele>174</ele>
        <time>2018-05-19T15:43:57Z</time>
      </trkpt>
      <trkpt lat="43.09103" lon="2.56369">
        <ele>174.8</ele>
        <time>2018-05-19T15:44:02Z</time>
      </trkpt>
      <trkpt lat="43.09108" lon="2.5635">
        <ele>175.5</ele>
        <time>2018-05-19T15:44:07Z</time>
      </trkpt>
      <trkpt lat="43.09114" lon="2.56323">
        <ele>177.1</ele>
        <time>2018-05-19T15:44:12Z</time>
      </trkpt>
      <trkpt lat="43.09117" lon="2.56306">
        <ele>176.8</ele>
        <time>2018-05-19T15:44:17Z</time>
      </trkpt>
      <trkpt lat="43.09121" lon="2.56282">
        <ele>176.7</ele>
        <time>2018-05-19T15:44:22Z</time>
      </trkpt>
      <trkpt lat="43.09123" lon="2.56262">
        <ele>176.8</ele>
        <time>2018-05-19T15:44:27Z</time>
      </trkpt>
      <trkpt lat="43.09125" lon="2.56234">
        <ele>177.6</ele>
        <time>2018-05-19T15:44:32Z</time>
      </trkpt>
      <trkpt lat="43.09126" lon="2.56218">
        <ele>177.5</ele>
        <time>2018-05-19T15:44:37Z</time>
      </trkpt>
      <trkpt lat="43.0913" lon="2.56193">
        <ele>177.2</ele>
        <time>2018-05-19T15:44:42Z</time>
      </trkpt>
      <trkpt lat="43.09134" lon="2.56174">
        <ele>176.5</ele>
        <time>2018-05-19T15:44:47Z</time>
      </trkpt>
      <trkpt lat="43.09139" lon="2.56147">
        <ele>176.2</ele>
        <time>2018-05-19T15:44:52Z</time>
      </trkpt>
      <trkpt lat="43.09141" lon="2.56128">
        <ele>176.4</ele>
        <time>2018-05-19T15:44:57Z</time>
      </trkpt>
      <trkpt lat="43.09142" lon="2.56101">
        <ele>175.8</ele>
        <time>2018-05-19T15:45:02Z</time>
      </trkpt>
      <trkpt lat="43.09141" lon="2.56084">
        <ele>175.5</ele>
        <time>2018-05-19T15:45:07Z</time>
      </trkpt>
      <trkpt lat="43.09133" lon="2.5606">
        <ele>175.3</ele>
        <time>2018-05-19T15:45:12Z</time>
      </trkpt>
      <trkpt lat="43.09133" lon="2.56044">
        <ele>175.1</ele>
        <time>2018-05-19T15:45:17Z</time>
      </trkpt>
      <trkpt lat="43.09126" lon="2.56018">
        <ele>175</ele>
        <time>2018-05-19T15:45:22Z</time>
      </trkpt>
      <trkpt lat="43.09124" lon="2.56">
        <ele>173.6</ele>
        <time>2018-05-19T15:45:27Z</time>
      </trkpt>
      <trkpt lat="43.0912" lon="2.55975">
        <ele>172.2</ele>
        <time>2018-05-19T15:45:32Z</time>
      </trkpt>
      <trkpt lat="43.0912" lon="2.55957">
        <ele>171.6</ele>
        <time>2018-05-19T15:45:37Z</time>
      </trkpt>
      <trkpt lat="43.0912" lon="2.55933">
        <ele>170.9</ele>
        <time>2018-05-19T15:45:42Z</time>
      </trkpt>
      <trkpt lat="43.09122" lon="2.55918">
        <ele>170.7</ele>
        <time>2018-05-19T15:45:47Z</time>
      </trkpt>
      <trkpt lat="43.09122" lon="2.55887">
        <ele>170.7</ele>
        <time>2018-05-19T15:45:52Z</time>
      </trkpt>
      <trkpt lat="43.09115" lon="2.55866">
        <ele>171.1</ele>
        <time>2018-05-19T15:45:57Z</time>
      </trkpt>
      <trkpt lat="43.09098" lon="2.55852">
        <ele>171.3</ele>
        <time>2018-05-19T15:46:02Z</time>
      </trkpt>
      <trkpt lat="43.09086" lon="2.55849">
        <ele>171.4</ele>
        <time>2018-05-19T15:46:07Z</time>
      </trkpt>
      <trkpt lat="43.09065" lon="2.55854">
        <ele>170.8</ele>
        <time>2018-05-19T15:46:12Z</time>
      </trkpt>
      <trkpt lat="43.0905" lon="2.55858">
        <ele>170.6</ele>
        <time>2018-05-19T15:46:17Z</time>
      </trkpt>
      <trkpt lat="43.09029" lon="2.5586">
        <ele>170.6</ele>
        <time>2018-05-19T15:46:22Z</time>
      </trkpt>
      <trkpt lat="43.09015" lon="2.55855">
        <ele>170.5</ele>
        <time>2018-05-19T15:46:27Z</time>
      </trkpt>
      <trkpt lat="43.08999" lon="2.55837">
        <ele>171.6</ele>
        <time>2018-05-19T15:46:32Z</time>
      </trkpt>
      <trkpt lat="43.08994" lon="2.55821">
        <ele>174</ele>
        <time>2018-05-19T15:46:37Z</time>
      </trkpt>
      <trkpt lat="43.08994" lon="2.55795">
        <ele>176.7</ele>
        <time>2018-05-19T15:46:42Z</time>
      </trkpt>
      <trkpt lat="43.08996" lon="2.55777">
        <ele>176.7</ele>
        <time>2018-05-19T15:46:47Z</time>
      </trkpt>
      <trkpt lat="43.09004" lon="2.55746">
        <ele>174.5</ele>
        <time>2018-05-19T15:46:52Z</time>
      </trkpt>
      <trkpt lat="43.0901" lon="2.55727">
        <ele>177.2</ele>
        <time>2018-05-19T15:46:57Z</time>
      </trkpt>
      <trkpt lat="43.09017" lon="2.55702">
        <ele>178.3</ele>
        <time>2018-05-19T15:47:02Z</time>
      </trkpt>
      <trkpt lat="43.09023" lon="2.55686">
        <ele>178.3</ele>
        <time>2018-05-19T15:47:07Z</time>
      </trkpt>
      <trkpt lat="43.0903" lon="2.5566">
        <ele>178.7</ele>
        <time>2018-05-19T15:47:12Z</time>
      </trkpt>
      <trkpt lat="43.09035" lon="2.55642">
        <ele>179.3</ele>
        <time>2018-05-19T15:47:17Z</time>
      </trkpt>
      <trkpt lat="43.09041" lon="2.55614">
        <ele>179.6</ele>
        <time>2018-05-19T15:47:22Z</time>
      </trkpt>
      <trkpt lat="43.09045" lon="2.55598">
        <ele>179.7</ele>
        <time>2018-05-19T15:47:27Z</time>
      </trkpt>
      <trkpt lat="43.09051" lon="2.55573">
        <ele>178.6</ele>
        <time>2018-05-19T15:47:32Z</time>
      </trkpt>
      <trkpt lat="43.09055" lon="2.55556">
        <ele>178.2</ele>
        <time>2018-05-19T15:47:37Z</time>
      </trkpt>
      <trkpt lat="43.09063" lon="2.5553">
        <ele>177.1</ele>
        <time>2018-05-19T15:47:42Z</time>
      </trkpt>
      <trkpt lat="43.09072" lon="2.55514">
        <ele>175.7</ele>
        <time>2018-05-19T15:47:47Z</time>
      </trkpt>
      <trkpt lat="43.09085" lon="2.55495">
        <ele>173.2</ele>
        <time>2018-05-19T15:47:52Z</time>
      </trkpt>
      <trkpt lat="43.09092" lon="2.55484">
        <ele>173.3</ele>
        <time>2018-05-19T15:47:57Z</time>
      </trkpt>
      <trkpt lat="43.09101" lon="2.55464">
        <ele>173</ele>
        <time>2018-05-19T15:48:02Z</time>
      </trkpt>
      <trkpt lat="43.09107" lon="2.55448">
        <ele>172.4</ele>
        <time>2018-05-19T15:48:07Z</time>
      </trkpt>
      <trkpt lat="43.09114" lon="2.55421">
        <ele>171.5</ele>
        <time>2018-05-19T15:48:12Z</time>
      </trkpt>
      <trkpt lat="43.09121" lon="2.55406">
        <ele>168.7</ele>
        <time>2018-05-19T15:48:17Z</time>
      </trkpt>
      <trkpt lat="43.09131" lon="2.55383">
        <ele>168.7</ele>
        <time>2018-05-19T15:48:22Z</time>
      </trkpt>
      <trkpt lat="43.09137" lon="2.55368">
        <ele>168.6</ele>
        <time>2018-05-19T15:48:27Z</time>
      </trkpt>
      <trkpt lat="43.09145" lon="2.55342">
        <ele>168.3</ele>
        <time>2018-05-19T15:48:32Z</time>
      </trkpt>
      <trkpt lat="43.09151" lon="2.55323">
        <ele>168.1</ele>
        <time>2018-05-19T15:48:37Z</time>
      </trkpt>
      <trkpt lat="43.09157" lon="2.55299">
        <ele>168.4</ele>
        <time>2018-05-19T15:48:42Z</time>
      </trkpt>
      <trkpt lat="43.09162" lon="2.55283">
        <ele>168.7</ele>
        <time>2018-05-19T15:48:47Z</time>
      </trkpt>
      <trkpt lat="43.09172" lon="2.55258">
        <ele>170.2</ele>
        <time>2018-05-19T15:48:52Z</time>
      </trkpt>
      <trkpt lat="43.09176" lon="2.55238">
        <ele>170.2</ele>
        <time>2018-05-19T15:48:57Z</time>
      </trkpt>
      <trkpt lat="43.09183" lon="2.55212">
        <ele>170.3</ele>
        <time>2018-05-19T15:49:02Z</time>
      </trkpt>
      <trkpt lat="43.09188" lon="2.55196">
        <ele>170.2</ele>
        <time>2018-05-19T15:49:07Z</time>
      </trkpt>
      <trkpt lat="43.09195" lon="2.55171">
        <ele>170.1</ele>
        <time>2018-05-19T15:49:12Z</time>
      </trkpt>
      <trkpt lat="43.092" lon="2.55154">
        <ele>170</ele>
        <time>2018-05-19T15:49:17Z</time>
      </trkpt>
      <trkpt lat="43.09211" lon="2.55128">
        <ele>170.3</ele>
        <time>2018-05-19T15:49:22Z</time>
      </trkpt>
      <trkpt lat="43.09217" lon="2.55109">
        <ele>170.5</ele>
        <time>2018-05-19T15:49:27Z</time>
      </trkpt>
      <trkpt lat="43.09228" lon="2.55082">
        <ele>171.6</ele>
        <time>2018-05-19T15:49:32Z</time>
      </trkpt>
      <trkpt lat="43.09234" lon="2.55063">
        <ele>171.7</ele>
        <time>2018-05-19T15:49:37Z</time>
      </trkpt>
      <trkpt lat="43.09242" lon="2.55038">
        <ele>172.1</ele>
        <time>2018-05-19T15:49:42Z</time>
      </trkpt>
      <trkpt lat="43.09245" lon="2.55025">
        <ele>172.5</ele>
        <time>2018-05-19T15:49:47Z</time>
      </trkpt>
      <trkpt lat="43.09246" lon="2.5501">
        <ele>173.1</ele>
        <time>2018-05-19T15:49:52Z</time>
      </trkpt>
      <trkpt lat="43.09243" lon="2.55003">
        <ele>173.4</ele>
        <time>2018-05-19T15:49:57Z</time>
      </trkpt>
      <trkpt lat="43.09231" lon="2.54997">
        <ele>173.1</ele>
        <time>2018-05-19T15:50:02Z</time>
      </trkpt>
      <trkpt lat="43.0922" lon="2.54992">
        <ele>172.8</ele>
        <time>2018-05-19T15:50:07Z</time>
      </trkpt>
      <trkpt lat="43.09205" lon="2.54986">
        <ele>172.4</ele>
        <time>2018-05-19T15:50:12Z</time>
      </trkpt>
      <trkpt lat="43.09185" lon="2.54977">
        <ele>172</ele>
        <time>2018-05-19T15:50:17Z</time>
      </trkpt>
      <trkpt lat="43.09163" lon="2.54965">
        <ele>170.4</ele>
        <time>2018-05-19T15:50:22Z</time>
      </trkpt>
      <trkpt lat="43.09139" lon="2.54956">
        <ele>170.2</ele>
        <time>2018-05-19T15:50:27Z</time>
      </trkpt>
      <trkpt lat="43.09115" lon="2.54943">
        <ele>170</ele>
        <time>2018-05-19T15:50:32Z</time>
      </trkpt>
      <trkpt lat="43.09103" lon="2.54937">
        <ele>169.9</ele>
        <time>2018-05-19T15:50:37Z</time>
      </trkpt>
      <trkpt lat="43.09085" lon="2.54928">
        <ele>169.9</ele>
        <time>2018-05-19T15:50:42Z</time>
      </trkpt>
      <trkpt lat="43.09072" lon="2.54922">
        <ele>169.7</ele>
        <time>2018-05-19T15:50:47Z</time>
      </trkpt>
      <trkpt lat="43.09054" lon="2.54913">
        <ele>170.1</ele>
        <time>2018-05-19T15:50:52Z</time>
      </trkpt>
      <trkpt lat="43.09041" lon="2.54906">
        <ele>170.2</ele>
        <time>2018-05-19T15:50:57Z</time>
      </trkpt>
      <trkpt lat="43.0902" lon="2.54895">
        <ele>170.2</ele>
        <time>2018-05-19T15:51:02Z</time>
      </trkpt>
      <trkpt lat="43.09004" lon="2.54887">
        <ele>170.3</ele>
        <time>2018-05-19T15:51:07Z</time>
      </trkpt>
      <trkpt lat="43.08982" lon="2.54873">
        <ele>170.7</ele>
        <time>2018-05-19T15:51:12Z</time>
      </trkpt>
      <trkpt lat="43.08968" lon="2.54863">
        <ele>170.8</ele>
        <time>2018-05-19T15:51:17Z</time>
      </trkpt>
      <trkpt lat="43.08951" lon="2.54842">
        <ele>170.8</ele>
        <time>2018-05-19T15:51:22Z</time>
      </trkpt>
      <trkpt lat="43.08941" lon="2.54828">
        <ele>171</ele>
        <time>2018-05-19T15:51:27Z</time>
      </trkpt>
      <trkpt lat="43.08929" lon="2.54805">
        <ele>171</ele>
        <time>2018-05-19T15:51:32Z</time>
      </trkpt>
      <trkpt lat="43.08922" lon="2.54791">
        <ele>171</ele>
        <time>2018-05-19T15:51:37Z</time>
      </trkpt>
      <trkpt lat="43.08916" lon="2.54767">
        <ele>171.2</ele>
        <time>2018-05-19T15:51:42Z</time>
      </trkpt>
      <trkpt lat="43.08912" lon="2.54752">
        <ele>171.1</ele>
        <time>2018-05-19T15:51:47Z</time>
      </trkpt>
      <trkpt lat="43.08904" lon="2.54731">
        <ele>171.9</ele>
        <time>2018-05-19T15:51:52Z</time>
      </trkpt>
      <trkpt lat="43.08898" lon="2.54717">
        <ele>172.2</ele>
        <time>2018-05-19T15:51:57Z</time>
      </trkpt>
      <trkpt lat="43.08891" lon="2.54694">
        <ele>172.6</ele>
        <time>2018-05-19T15:52:02Z</time>
      </trkpt>
      <trkpt lat="43.08885" lon="2.54681">
        <ele>172.7</ele>
        <time>2018-05-19T15:52:07Z</time>
      </trkpt>
      <trkpt lat="43.08875" lon="2.5466">
        <ele>173.8</ele>
        <time>2018-05-19T15:52:12Z</time>
      </trkpt>
      <trkpt lat="43.0887" lon="2.54647">
        <ele>173.9</ele>
        <time>2018-05-19T15:52:17Z</time>
      </trkpt>
      <trkpt lat="43.08861" lon="2.54628">
        <ele>174.1</ele>
        <time>2018-05-19T15:52:22Z</time>
      </trkpt>
      <trkpt lat="43.08855" lon="2.54617">
        <ele>174.2</ele>
        <time>2018-05-19T15:52:27Z</time>
      </trkpt>
      <trkpt lat="43.08843" lon="2.54594">
        <ele>174.6</ele>
        <time>2018-05-19T15:52:32Z</time>
      </trkpt>
      <trkpt lat="43.08835" lon="2.54579">
        <ele>175</ele>
        <time>2018-05-19T15:52:37Z</time>
      </trkpt>
      <trkpt lat="43.08825" lon="2.54559">
        <ele>174.8</ele>
        <time>2018-05-19T15:52:42Z</time>
      </trkpt>
      <trkpt lat="43.0882" lon="2.54545">
        <ele>174.8</ele>
        <time>2018-05-19T15:52:47Z</time>
      </trkpt>
      <trkpt lat="43.08811" lon="2.54522">
        <ele>174.9</ele>
        <time>2018-05-19T15:52:52Z</time>
      </trkpt>
      <trkpt lat="43.08803" lon="2.54505">
        <ele>174.9</ele>
        <time>2018-05-19T15:52:57Z</time>
      </trkpt>
      <trkpt lat="43.08794" lon="2.5448">
        <ele>175.4</ele>
        <time>2018-05-19T15:53:02Z</time>
      </trkpt>
      <trkpt lat="43.08788" lon="2.54462">
        <ele>175.4</ele>
        <time>2018-05-19T15:53:07Z</time>
      </trkpt>
      <trkpt lat="43.0878" lon="2.54436">
        <ele>175.6</ele>
        <time>2018-05-19T15:53:12Z</time>
      </trkpt>
      <trkpt lat="43.08774" lon="2.5442">
        <ele>175.7</ele>
        <time>2018-05-19T15:53:17Z</time>
      </trkpt>
      <trkpt lat="43.08767" lon="2.54397">
        <ele>176.2</ele>
        <time>2018-05-19T15:53:22Z</time>
      </trkpt>
      <trkpt lat="43.08763" lon="2.54381">
        <ele>176.3</ele>
        <time>2018-05-19T15:53:27Z</time>
      </trkpt>
      <trkpt lat="43.08756" lon="2.54355">
        <ele>176.5</ele>
        <time>2018-05-19T15:53:32Z</time>
      </trkpt>
      <trkpt lat="43.08754" lon="2.54339">
        <ele>176.8</ele>
        <time>2018-05-19T15:53:37Z</time>
      </trkpt>
      <trkpt lat="43.0875" lon="2.54313">
        <ele>176.8</ele>
        <time>2018-05-19T15:53:42Z</time>
      </trkpt>
      <trkpt lat="43.08747" lon="2.54296">
        <ele>176.8</ele>
        <time>2018-05-19T15:53:47Z</time>
      </trkpt>
      <trkpt lat="43.08744" lon="2.54267">
        <ele>177.2</ele>
        <time>2018-05-19T15:53:52Z</time>
      </trkpt>
      <trkpt lat="43.08742" lon="2.54249">
        <ele>177.8</ele>
        <time>2018-05-19T15:53:57Z</time>
      </trkpt>
      <trkpt lat="43.08738" lon="2.54224">
        <ele>177.6</ele>
        <time>2018-05-19T15:54:02Z</time>
      </trkpt>
      <trkpt lat="43.08735" lon="2.54208">
        <ele>177.6</ele>
        <time>2018-05-19T15:54:07Z</time>
      </trkpt>
      <trkpt lat="43.0873" lon="2.54182">
        <ele>177.9</ele>
        <time>2018-05-19T15:54:12Z</time>
      </trkpt>
      <trkpt lat="43.08725" lon="2.54164">
        <ele>178.6</ele>
        <time>2018-05-19T15:54:17Z</time>
      </trkpt>
      <trkpt lat="43.08719" lon="2.54139">
        <ele>178.6</ele>
        <time>2018-05-19T15:54:22Z</time>
      </trkpt>
      <trkpt lat="43.08715" lon="2.54123">
        <ele>178.6</ele>
        <time>2018-05-19T15:54:27Z</time>
      </trkpt>
      <trkpt lat="43.08708" lon="2.54098">
        <ele>178.6</ele>
        <time>2018-05-19T15:54:32Z</time>
      </trkpt>
      <trkpt lat="43.08703" lon="2.54079">
        <ele>179.7</ele>
        <time>2018-05-19T15:54:37Z</time>
      </trkpt>
      <trkpt lat="43.08697" lon="2.54055">
        <ele>180</ele>
        <time>2018-05-19T15:54:42Z</time>
      </trkpt>
      <trkpt lat="43.08692" lon="2.5404">
        <ele>180.3</ele>
        <time>2018-05-19T15:54:47Z</time>
      </trkpt>
      <trkpt lat="43.08684" lon="2.54017">
        <ele>181.2</ele>
        <time>2018-05-19T15:54:52Z</time>
      </trkpt>
      <trkpt lat="43.08675" lon="2.54002">
        <ele>182.1</ele>
        <time>2018-05-19T15:54:57Z</time>
      </trkpt>
      <trkpt lat="43.08663" lon="2.53982">
        <ele>182.3</ele>
        <time>2018-05-19T15:55:02Z</time>
      </trkpt>
      <trkpt lat="43.08656" lon="2.53968">
        <ele>182.2</ele>
        <time>2018-05-19T15:55:07Z</time>
      </trkpt>
      <trkpt lat="43.08642" lon="2.53948">
        <ele>182.3</ele>
        <time>2018-05-19T15:55:12Z</time>
      </trkpt>
      <trkpt lat="43.08634" lon="2.53935">
        <ele>182.2</ele>
        <time>2018-05-19T15:55:17Z</time>
      </trkpt>
      <trkpt lat="43.08623" lon="2.53915">
        <ele>184.4</ele>
        <time>2018-05-19T15:55:22Z</time>
      </trkpt>
      <trkpt lat="43.08616" lon="2.53899">
        <ele>184.3</ele>
        <time>2018-05-19T15:55:27Z</time>
      </trkpt>
      <trkpt lat="43.08606" lon="2.53875">
        <ele>185.2</ele>
        <time>2018-05-19T15:55:32Z</time>
      </trkpt>
      <trkpt lat="43.08599" lon="2.53859">
        <ele>186</ele>
        <time>2018-05-19T15:55:37Z</time>
      </trkpt>
      <trkpt lat="43.08586" lon="2.5384">
        <ele>187.4</ele>
        <time>2018-05-19T15:55:42Z</time>
      </trkpt>
      <trkpt lat="43.08575" lon="2.53829">
        <ele>188.4</ele>
        <time>2018-05-19T15:55:47Z</time>
      </trkpt>
      <trkpt lat="43.08556" lon="2.53813">
        <ele>188.9</ele>
        <time>2018-05-19T15:55:52Z</time>
      </trkpt>
      <trkpt lat="43.08545" lon="2.53808">
        <ele>188.7</ele>
        <time>2018-05-19T15:55:57Z</time>
      </trkpt>
      <trkpt lat="43.08523" lon="2.53806">
        <ele>187.6</ele>
        <time>2018-05-19T15:56:02Z</time>
      </trkpt>
      <trkpt lat="43.08502" lon="2.53808">
        <ele>186.4</ele>
        <time>2018-05-19T15:56:07Z</time>
      </trkpt>
      <trkpt lat="43.08482" lon="2.53812">
        <ele>182.9</ele>
        <time>2018-05-19T15:56:12Z</time>
      </trkpt>
      <trkpt lat="43.08468" lon="2.53807">
        <ele>183.1</ele>
        <time>2018-05-19T15:56:17Z</time>
      </trkpt>
      <trkpt lat="43.08451" lon="2.53792">
        <ele>183.3</ele>
        <time>2018-05-19T15:56:22Z</time>
      </trkpt>
      <trkpt lat="43.08441" lon="2.5378">
        <ele>183.4</ele>
        <time>2018-05-19T15:56:27Z</time>
      </trkpt>
      <trkpt lat="43.08425" lon="2.53762">
        <ele>183.3</ele>
        <time>2018-05-19T15:56:32Z</time>
      </trkpt>
      <trkpt lat="43.08415" lon="2.5375">
        <ele>182.8</ele>
        <time>2018-05-19T15:56:37Z</time>
      </trkpt>
      <trkpt lat="43.08399" lon="2.53734">
        <ele>182.7</ele>
        <time>2018-05-19T15:56:42Z</time>
      </trkpt>
      <trkpt lat="43.08388" lon="2.53724">
        <ele>182.6</ele>
        <time>2018-05-19T15:56:47Z</time>
      </trkpt>
      <trkpt lat="43.08375" lon="2.53708">
        <ele>182.5</ele>
        <time>2018-05-19T15:56:52Z</time>
      </trkpt>
      <trkpt lat="43.08367" lon="2.53695">
        <ele>182.5</ele>
        <time>2018-05-19T15:56:57Z</time>
      </trkpt>
      <trkpt lat="43.08355" lon="2.53673">
        <ele>182.4</ele>
        <time>2018-05-19T15:57:02Z</time>
      </trkpt>
      <trkpt lat="43.08347" lon="2.53658">
        <ele>183.6</ele>
        <time>2018-05-19T15:57:07Z</time>
      </trkpt>
      <trkpt lat="43.08335" lon="2.53635">
        <ele>184.3</ele>
        <time>2018-05-19T15:57:12Z</time>
      </trkpt>
      <trkpt lat="43.08329" lon="2.53621">
        <ele>183</ele>
        <time>2018-05-19T15:57:17Z</time>
      </trkpt>
      <trkpt lat="43.08321" lon="2.536">
        <ele>183.5</ele>
        <time>2018-05-19T15:57:22Z</time>
      </trkpt>
      <trkpt lat="43.08315" lon="2.53587">
        <ele>183.6</ele>
        <time>2018-05-19T15:57:27Z</time>
      </trkpt>
      <trkpt lat="43.08306" lon="2.53565">
        <ele>183.4</ele>
        <time>2018-05-19T15:57:32Z</time>
      </trkpt>
      <trkpt lat="43.08302" lon="2.53548">
        <ele>183.2</ele>
        <time>2018-05-19T15:57:37Z</time>
      </trkpt>
      <trkpt lat="43.08296" lon="2.53528">
        <ele>183.1</ele>
        <time>2018-05-19T15:57:42Z</time>
      </trkpt>
      <trkpt lat="43.08291" lon="2.53517">
        <ele>183</ele>
        <time>2018-05-19T15:57:47Z</time>
      </trkpt>
      <trkpt lat="43.08281" lon="2.53495">
        <ele>183.4</ele>
        <time>2018-05-19T15:57:52Z</time>
      </trkpt>
      <trkpt lat="43.08274" lon="2.53481">
        <ele>183.4</ele>
        <time>2018-05-19T15:57:57Z</time>
      </trkpt>
      <trkpt lat="43.08265" lon="2.53459">
        <ele>183.7</ele>
        <time>2018-05-19T15:58:02Z</time>
      </trkpt>
      <trkpt lat="43.08256" lon="2.53445">
        <ele>183.8</ele>
        <time>2018-05-19T15:58:07Z</time>
      </trkpt>
      <trkpt lat="43.08246" lon="2.53426">
        <ele>183.5</ele>
        <time>2018-05-19T15:58:12Z</time>
      </trkpt>
      <trkpt lat="43.0824" lon="2.53412">
        <ele>183.9</ele>
        <time>2018-05-19T15:58:17Z</time>
      </trkpt>
      <trkpt lat="43.08229" lon="2.53391">
        <ele>183.8</ele>
        <time>2018-05-19T15:58:22Z</time>
      </trkpt>
      <trkpt lat="43.08223" lon="2.53373">
        <ele>183.9</ele>
        <time>2018-05-19T15:58:27Z</time>
      </trkpt>
      <trkpt lat="43.08211" lon="2.53348">
        <ele>184</ele>
        <time>2018-05-19T15:58:32Z</time>
      </trkpt>
      <trkpt lat="43.08204" lon="2.53335">
        <ele>184</ele>
        <time>2018-05-19T15:58:37Z</time>
      </trkpt>
      <trkpt lat="43.08194" lon="2.53314">
        <ele>185.1</ele>
        <time>2018-05-19T15:58:42Z</time>
      </trkpt>
      <trkpt lat="43.0819" lon="2.53299">
        <ele>185.3</ele>
        <time>2018-05-19T15:58:47Z</time>
      </trkpt>
      <trkpt lat="43.08179" lon="2.53274">
        <ele>185.6</ele>
        <time>2018-05-19T15:58:52Z</time>
      </trkpt>
      <trkpt lat="43.08175" lon="2.53261">
        <ele>185.8</ele>
        <time>2018-05-19T15:58:57Z</time>
      </trkpt>
      <trkpt lat="43.08172" lon="2.53248">
        <ele>186.4</ele>
        <time>2018-05-19T15:59:02Z</time>
      </trkpt>
      <trkpt lat="43.08162" lon="2.53227">
        <ele>185.7</ele>
        <time>2018-05-19T15:59:07Z</time>
      </trkpt>
      <trkpt lat="43.08157" lon="2.53214">
        <ele>185.7</ele>
        <time>2018-05-19T15:59:12Z</time>
      </trkpt>
      <trkpt lat="43.08148" lon="2.5319">
        <ele>186.1</ele>
        <time>2018-05-19T15:59:17Z</time>
      </trkpt>
      <trkpt lat="43.08145" lon="2.53174">
        <ele>186.3</ele>
        <time>2018-05-19T15:59:22Z</time>
      </trkpt>
      <trkpt lat="43.08131" lon="2.53137">
        <ele>186.6</ele>
        <time>2018-05-19T16:15:07Z</time>
      </trkpt>
      <trkpt lat="43.0812" lon="2.53154">
        <ele>186.2</ele>
        <time>2018-05-19T16:15:12Z</time>
      </trkpt>
      <trkpt lat="43.08122" lon="2.53169">
        <ele>185.4</ele>
        <time>2018-05-19T16:15:17Z</time>
      </trkpt>
      <trkpt lat="43.08135" lon="2.53191">
        <ele>185.7</ele>
        <time>2018-05-19T16:15:22Z</time>
      </trkpt>
      <trkpt lat="43.08141" lon="2.53204">
        <ele>185.6</ele>
        <time>2018-05-19T16:15:27Z</time>
      </trkpt>
      <trkpt lat="43.08152" lon="2.53228">
        <ele>185.6</ele>
        <time>2018-05-19T16:15:32Z</time>
      </trkpt>
      <trkpt lat="43.08161" lon="2.53248">
        <ele>185.8</ele>
        <time>2018-05-19T16:15:37Z</time>
      </trkpt>
      <trkpt lat="43.08164" lon="2.53256">
        <ele>185.5</ele>
        <time>2018-05-19T16:15:42Z</time>
      </trkpt>
      <trkpt lat="43.08164" lon="2.53249">
        <ele>185.9</ele>
        <time>2018-05-19T16:15:47Z</time>
      </trkpt>
      <trkpt lat="43.08162" lon="2.53234">
        <ele>185.7</ele>
        <time>2018-05-19T16:15:52Z</time>
      </trkpt>
      <trkpt lat="43.08157" lon="2.53222">
        <ele>185.7</ele>
        <time>2018-05-19T16:15:57Z</time>
      </trkpt>
      <trkpt lat="43.08149" lon="2.53213">
        <ele>185.7</ele>
        <time>2018-05-19T16:16:02Z</time>
      </trkpt>
      <trkpt lat="43.08137" lon="2.53221">
        <ele>185.4</ele>
        <time>2018-05-19T16:16:07Z</time>
      </trkpt>
      <trkpt lat="43.08131" lon="2.53234">
        <ele>185.2</ele>
        <time>2018-05-19T16:16:12Z</time>
      </trkpt>
      <trkpt lat="43.0813" lon="2.53248">
        <ele>185.1</ele>
        <time>2018-05-19T16:16:17Z</time>
      </trkpt>
      <trkpt lat="43.0813" lon="2.53248">
        <ele>185.1</ele>
        <time>2018-05-19T16:16:22Z</time>
      </trkpt>
      <trkpt lat="43.0813" lon="2.53248">
        <ele>185.1</ele>
        <time>2018-05-19T16:16:27Z</time>
      </trkpt>
      <trkpt lat="43.0813" lon="2.53232">
        <ele>185.2</ele>
        <time>2018-05-19T16:16:32Z</time>
      </trkpt>
      <trkpt lat="43.08134" lon="2.53218">
        <ele>185.4</ele>
        <time>2018-05-19T16:16:37Z</time>
      </trkpt>
      <trkpt lat="43.08141" lon="2.53206">
        <ele>185.6</ele>
        <time>2018-05-19T16:16:42Z</time>
      </trkpt>
      <trkpt lat="43.08144" lon="2.53201">
        <ele>185.7</ele>
        <time>2018-05-19T16:16:47Z</time>
      </trkpt>
      <trkpt lat="43.08144" lon="2.53194">
        <ele>185.9</ele>
        <time>2018-05-19T16:16:52Z</time>
      </trkpt>
      <trkpt lat="43.08135" lon="2.53173">
        <ele>185.9</ele>
        <time>2018-05-19T16:16:57Z</time>
      </trkpt>
      <trkpt lat="43.08128" lon="2.53149">
        <ele>186.5</ele>
        <time>2018-05-19T16:17:02Z</time>
      </trkpt>
      <trkpt lat="43.08124" lon="2.5313">
        <ele>186.4</ele>
        <time>2018-05-19T16:17:07Z</time>
      </trkpt>
      <trkpt lat="43.08123" lon="2.53107">
        <ele>186.5</ele>
        <time>2018-05-19T16:17:12Z</time>
      </trkpt>
      <trkpt lat="43.08117" lon="2.53094">
        <ele>186.4</ele>
        <time>2018-05-19T16:17:17Z</time>
      </trkpt>
      <trkpt lat="43.08107" lon="2.53099">
        <ele>186.1</ele>
        <time>2018-05-19T16:17:22Z</time>
      </trkpt>
      <trkpt lat="43.0809" lon="2.53121">
        <ele>185.8</ele>
        <time>2018-05-19T16:17:27Z</time>
      </trkpt>
      <trkpt lat="43.08083" lon="2.53137">
        <ele>184.4</ele>
        <time>2018-05-19T16:17:32Z</time>
      </trkpt>
      <trkpt lat="43.08073" lon="2.53155">
        <ele>184.3</ele>
        <time>2018-05-19T16:17:37Z</time>
      </trkpt>
      <trkpt lat="43.08066" lon="2.53165">
        <ele>184.3</ele>
        <time>2018-05-19T16:17:42Z</time>
      </trkpt>
      <trkpt lat="43.08064" lon="2.5317">
        <ele>183.9</ele>
        <time>2018-05-19T16:17:47Z</time>
      </trkpt>
      <trkpt lat="43.08058" lon="2.53181">
        <ele>183.9</ele>
        <time>2018-05-19T16:17:52Z</time>
      </trkpt>
      <trkpt lat="43.08054" lon="2.53185">
        <ele>183.9</ele>
        <time>2018-05-19T16:17:57Z</time>
      </trkpt>
      <trkpt lat="43.08046" lon="2.53196">
        <ele>183.8</ele>
        <time>2018-05-19T16:18:02Z</time>
      </trkpt>
      <trkpt lat="43.08037" lon="2.53213">
        <ele>183.7</ele>
        <time>2018-05-19T16:18:07Z</time>
      </trkpt>
      <trkpt lat="43.08031" lon="2.53229">
        <ele>183.6</ele>
        <time>2018-05-19T16:18:12Z</time>
      </trkpt>
      <trkpt lat="43.08017" lon="2.53252">
        <ele>183.4</ele>
        <time>2018-05-19T16:18:17Z</time>
      </trkpt>
      <trkpt lat="43.08007" lon="2.53267">
        <ele>183.5</ele>
        <time>2018-05-19T16:18:22Z</time>
      </trkpt>
      <trkpt lat="43.07994" lon="2.53288">
        <ele>188.1</ele>
        <time>2018-05-19T16:18:27Z</time>
      </trkpt>
      <trkpt lat="43.07989" lon="2.53304">
        <ele>188.6</ele>
        <time>2018-05-19T16:18:32Z</time>
      </trkpt>
      <trkpt lat="43.07989" lon="2.53334">
        <ele>189.5</ele>
        <time>2018-05-19T16:18:37Z</time>
      </trkpt>
      <trkpt lat="43.07993" lon="2.53354">
        <ele>191.3</ele>
        <time>2018-05-19T16:18:42Z</time>
      </trkpt>
      <trkpt lat="43.08006" lon="2.53383">
        <ele>187.2</ele>
        <time>2018-05-19T16:18:47Z</time>
      </trkpt>
      <trkpt lat="43.08015" lon="2.53406">
        <ele>188.3</ele>
        <time>2018-05-19T16:18:52Z</time>
      </trkpt>
      <trkpt lat="43.08022" lon="2.53424">
        <ele>188.7</ele>
        <time>2018-05-19T16:18:57Z</time>
      </trkpt>
      <trkpt lat="43.08031" lon="2.53448">
        <ele>188</ele>
        <time>2018-05-19T16:19:02Z</time>
      </trkpt>
      <trkpt lat="43.08039" lon="2.53456">
        <ele>187.6</ele>
        <time>2018-05-19T16:19:07Z</time>
      </trkpt>
      <trkpt lat="43.08044" lon="2.53457">
        <ele>187.4</ele>
        <time>2018-05-19T16:19:12Z</time>
      </trkpt>
      <trkpt lat="43.08044" lon="2.53457">
        <ele>187.4</ele>
        <time>2018-05-19T16:19:17Z</time>
      </trkpt>
      <trkpt lat="43.08044" lon="2.5345">
        <ele>187.4</ele>
        <time>2018-05-19T16:19:22Z</time>
      </trkpt>
      <trkpt lat="43.08044" lon="2.5345">
        <ele>187.4</ele>
        <time>2018-05-19T16:19:27Z</time>
      </trkpt>
      <trkpt lat="43.08044" lon="2.5345">
        <ele>187.4</ele>
        <time>2018-05-19T16:19:32Z</time>
      </trkpt>
      <trkpt lat="43.08044" lon="2.5345">
        <ele>187.4</ele>
        <time>2018-05-19T16:19:37Z</time>
      </trkpt>
      <trkpt lat="43.08044" lon="2.5345">
        <ele>187.4</ele>
        <time>2018-05-19T16:19:42Z</time>
      </trkpt>
      <trkpt lat="43.0805" lon="2.53464">
        <ele>187.2</ele>
        <time>2018-05-19T16:19:47Z</time>
      </trkpt>
      <trkpt lat="43.08058" lon="2.53477">
        <ele>186.7</ele>
        <time>2018-05-19T16:19:52Z</time>
      </trkpt>
      <trkpt lat="43.08069" lon="2.53502">
        <ele>186</ele>
        <time>2018-05-19T16:19:57Z</time>
      </trkpt>
      <trkpt lat="43.08079" lon="2.53514">
        <ele>186</ele>
        <time>2018-05-19T16:20:02Z</time>
      </trkpt>
      <trkpt lat="43.08077" lon="2.53505">
        <ele>185.3</ele>
        <time>2018-05-19T16:20:07Z</time>
      </trkpt>
      <trkpt lat="43.08077" lon="2.53505">
        <ele>185.3</ele>
        <time>2018-05-19T16:20:12Z</time>
      </trkpt>
      <trkpt lat="43.08077" lon="2.53505">
        <ele>185.3</ele>
        <time>2018-05-19T16:20:17Z</time>
      </trkpt>
      <trkpt lat="43.08077" lon="2.53505">
        <ele>185.3</ele>
        <time>2018-05-19T16:20:22Z</time>
      </trkpt>
      <trkpt lat="43.08082" lon="2.53506">
        <ele>185</ele>
        <time>2018-05-19T16:20:42Z</time>
      </trkpt>
      <trkpt lat="43.08082" lon="2.53506">
        <ele>185</ele>
        <time>2018-05-19T16:20:47Z</time>
      </trkpt>
      <trkpt lat="43.08082" lon="2.53506">
        <ele>185</ele>
        <time>2018-05-19T16:20:52Z</time>
      </trkpt>
      <trkpt lat="43.08082" lon="2.53506">
        <ele>185</ele>
        <time>2018-05-19T16:20:57Z</time>
      </trkpt>
      <trkpt lat="43.08082" lon="2.53506">
        <ele>185</ele>
        <time>2018-05-19T16:21:02Z</time>
      </trkpt>
      <trkpt lat="43.08086" lon="2.53509">
        <ele>184.2</ele>
        <time>2018-05-19T16:21:12Z</time>
      </trkpt>
      <trkpt lat="43.08086" lon="2.53509">
        <ele>184.2</ele>
        <time>2018-05-19T16:21:17Z</time>
      </trkpt>
      <trkpt lat="43.08086" lon="2.53509">
        <ele>184.2</ele>
        <time>2018-05-19T16:21:22Z</time>
      </trkpt>
      <trkpt lat="43.08085" lon="2.53503">
        <ele>184.1</ele>
        <time>2018-05-19T16:21:27Z</time>
      </trkpt>
      <trkpt lat="43.08079" lon="2.53502">
        <ele>184.7</ele>
        <time>2018-05-19T16:21:32Z</time>
      </trkpt>
      <trkpt lat="43.08075" lon="2.53502">
        <ele>185.3</ele>
        <time>2018-05-19T16:21:37Z</time>
      </trkpt>
      <trkpt lat="43.08075" lon="2.53502">
        <ele>185.3</ele>
        <time>2018-05-19T16:21:42Z</time>
      </trkpt>
      <trkpt lat="43.08075" lon="2.53502">
        <ele>185.3</ele>
        <time>2018-05-19T16:21:47Z</time>
      </trkpt>
      <trkpt lat="43.0808" lon="2.53502">
        <ele>184.7</ele>
        <time>2018-05-19T16:21:52Z</time>
      </trkpt>
      <trkpt lat="43.08084" lon="2.535">
        <ele>184</ele>
        <time>2018-05-19T16:21:57Z</time>
      </trkpt>
      <trkpt lat="43.08088" lon="2.53495">
        <ele>183.8</ele>
        <time>2018-05-19T16:22:02Z</time>
      </trkpt>
      <trkpt lat="43.08091" lon="2.5349">
        <ele>183.6</ele>
        <time>2018-05-19T16:22:07Z</time>
      </trkpt>
      <trkpt lat="43.08095" lon="2.53487">
        <ele>183.5</ele>
        <time>2018-05-19T16:22:12Z</time>
      </trkpt>
      <trkpt lat="43.08095" lon="2.53487">
        <ele>183.5</ele>
        <time>2018-05-19T16:22:17Z</time>
      </trkpt>
      <trkpt lat="43.081" lon="2.53487">
        <ele>183.4</ele>
        <time>2018-05-19T16:22:22Z</time>
      </trkpt>
      <trkpt lat="43.081" lon="2.53487">
        <ele>183.4</ele>
        <time>2018-05-19T16:22:27Z</time>
      </trkpt>
      <trkpt lat="43.081" lon="2.53487">
        <ele>183.4</ele>
        <time>2018-05-19T16:22:32Z</time>
      </trkpt>
      <trkpt lat="43.08104" lon="2.53483">
        <ele>183.3</ele>
        <time>2018-05-19T16:22:37Z</time>
      </trkpt>
      <trkpt lat="43.08108" lon="2.53478">
        <ele>183.2</ele>
        <time>2018-05-19T16:22:42Z</time>
      </trkpt>
      <trkpt lat="43.08112" lon="2.53474">
        <ele>183.2</ele>
        <time>2018-05-19T16:22:47Z</time>
      </trkpt>
      <trkpt lat="43.08117" lon="2.5347">
        <ele>183.1</ele>
        <time>2018-05-19T16:22:52Z</time>
      </trkpt>
      <trkpt lat="43.08112" lon="2.53474">
        <ele>183.2</ele>
        <time>2018-05-19T16:22:57Z</time>
      </trkpt>
      <trkpt lat="43.08112" lon="2.53474">
        <ele>183.2</ele>
        <time>2018-05-19T16:23:02Z</time>
      </trkpt>
      <trkpt lat="43.08111" lon="2.53471">
        <ele>183.2</ele>
      </trkpt>
      <trkpt lat="43.08078" lon="2.53503">
        <ele>185</ele>
      </trkpt>
      <trkpt lat="43.08067" lon="2.53493">
        <ele>185.8</ele>
      </trkpt>
      <trkpt lat="43.08053" lon="2.53468">
        <ele>187</ele>
      </trkpt>
      <trkpt lat="43.08041" lon="2.53457">
        <ele>187.5</ele>
      </trkpt>
      <trkpt lat="43.08032" lon="2.5345">
        <ele>187.9</ele>
      </trkpt>
      <trkpt lat="43.08022" lon="2.53425">
        <ele>188.7</ele>
      </trkpt>
      <trkpt lat="43.07991" lon="2.53328">
        <ele>187.6</ele>
      </trkpt>
      <trkpt lat="43.07991" lon="2.53303">
        <ele>188.5</ele>
      </trkpt>
      <trkpt lat="43.07996" lon="2.53284">
        <ele>187.8</ele>
      </trkpt>
      <trkpt lat="43.0801" lon="2.53255">
        <ele>183.3</ele>
      </trkpt>
      <trkpt lat="43.08043" lon="2.53205">
        <ele>183.8</ele>
      </trkpt>
      <trkpt lat="43.08046" lon="2.532">
        <ele>183.8</ele>
      </trkpt>
      <trkpt lat="43.08074" lon="2.5315">
        <ele>184.3</ele>
      </trkpt>
      <trkpt lat="43.08093" lon="2.53121">
        <ele>185.9</ele>
      </trkpt>
      <trkpt lat="43.08105" lon="2.53102">
        <ele>186.1</ele>
      </trkpt>
      <trkpt lat="43.08113" lon="2.53092">
        <ele>186.3</ele>
      </trkpt>
      <trkpt lat="43.08119" lon="2.53078">
        <ele>186.6</ele>
      </trkpt>
      <trkpt lat="43.08121" lon="2.5306">
        <ele>186.7</ele>
      </trkpt>
      <trkpt lat="43.08123" lon="2.53038">
        <ele>186.7</ele>
      </trkpt>
      <trkpt lat="43.08123" lon="2.53034">
        <ele>186.7</ele>
      </trkpt>
      <trkpt lat="43.08125" lon="2.53002">
        <ele>186.7</ele>
      </trkpt>
      <trkpt lat="43.08128" lon="2.52982">
        <ele>186.4</ele>
      </trkpt>
      <trkpt lat="43.08132" lon="2.52967">
        <ele>186.4</ele>
      </trkpt>
      <trkpt lat="43.08182" lon="2.52915">
        <ele>190.6</ele>
      </trkpt>
      <trkpt lat="43.08195" lon="2.52894">
        <ele>192.5</ele>
      </trkpt>
      <trkpt lat="43.08204" lon="2.52874">
        <ele>193.4</ele>
      </trkpt>
      <trkpt lat="43.08221" lon="2.52799">
        <ele>195.8</ele>
      </trkpt>
      <trkpt lat="43.0826" lon="2.52538">
        <ele>198.1</ele>
      </trkpt>
      <trkpt lat="43.08268" lon="2.52493">
        <ele>194.2</ele>
      </trkpt>
      <trkpt lat="43.08279" lon="2.52452">
        <ele>195.3</ele>
      </trkpt>
      <trkpt lat="43.08283" lon="2.52439">
        <ele>195.1</ele>
      </trkpt>
      <trkpt lat="43.08291" lon="2.52415">
        <ele>193.6</ele>
      </trkpt>
      <trkpt lat="43.083" lon="2.5239">
        <ele>193.9</ele>
      </trkpt>
      <trkpt lat="43.0831" lon="2.52379">
        <ele>193.9</ele>
      </trkpt>
      <trkpt lat="43.08318" lon="2.52373">
        <ele>193.9</ele>
      </trkpt>
      <trkpt lat="43.08327" lon="2.5237">
        <ele>193.8</ele>
      </trkpt>
      <trkpt lat="43.08347" lon="2.52368">
        <ele>196.6</ele>
      </trkpt>
      <trkpt lat="43.08363" lon="2.52367">
        <ele>197.1</ele>
      </trkpt>
      <trkpt lat="43.08379" lon="2.52366">
        <ele>197.7</ele>
      </trkpt>
      <trkpt lat="43.08395" lon="2.52363">
        <ele>198.1</ele>
      </trkpt>
      <trkpt lat="43.08412" lon="2.5235">
        <ele>198.5</ele>
      </trkpt>
      <trkpt lat="43.08418" lon="2.52342">
        <ele>200.9</ele>
      </trkpt>
      <trkpt lat="43.08429" lon="2.5232">
        <ele>200.3</ele>
      </trkpt>
      <trkpt lat="43.08442" lon="2.52278">
        <ele>200.2</ele>
      </trkpt>
      <trkpt lat="43.08448" lon="2.52268">
        <ele>200.2</ele>
      </trkpt>
      <trkpt lat="43.08454" lon="2.52261">
        <ele>200.5</ele>
      </trkpt>
      <trkpt lat="43.08458" lon="2.52256">
        <ele>200.8</ele>
      </trkpt>
      <trkpt lat="43.08468" lon="2.5225">
        <ele>199.4</ele>
      </trkpt>
      <trkpt lat="43.08488" lon="2.52246">
        <ele>201.5</ele>
      </trkpt>
      <trkpt lat="43.0856" lon="2.52255">
        <ele>203.8</ele>
      </trkpt>
      <trkpt lat="43.08581" lon="2.52255">
        <ele>202.6</ele>
      </trkpt>
      <trkpt lat="43.08595" lon="2.52251">
        <ele>202.2</ele>
      </trkpt>
      <trkpt lat="43.08609" lon="2.52245">
        <ele>201.2</ele>
      </trkpt>
      <trkpt lat="43.08672" lon="2.52201">
        <ele>201.2</ele>
      </trkpt>
      <trkpt lat="43.08698" lon="2.52187">
        <ele>201.3</ele>
      </trkpt>
      <trkpt lat="43.08712" lon="2.52182">
        <ele>201.3</ele>
      </trkpt>
      <trkpt lat="43.08731" lon="2.52176">
        <ele>201.5</ele>
      </trkpt>
      <trkpt lat="43.08766" lon="2.52162">
        <ele>203.2</ele>
      </trkpt>
      <trkpt lat="43.08791" lon="2.52146">
        <ele>204.2</ele>
      </trkpt>
      <trkpt lat="43.08798" lon="2.52126">
        <ele>204.7</ele>
      </trkpt>
      <trkpt lat="43.08802" lon="2.52085">
        <ele>205.5</ele>
      </trkpt>
      <trkpt lat="43.08803" lon="2.52063">
        <ele>206.1</ele>
      </trkpt>
      <trkpt lat="43.08803" lon="2.52057">
        <ele>206.1</ele>
      </trkpt>
      <trkpt lat="43.08804" lon="2.52039">
        <ele>206.2</ele>
      </trkpt>
      <trkpt lat="43.08823" lon="2.51966">
        <ele>205.9</ele>
      </trkpt>
      <trkpt lat="43.08829" lon="2.51945">
        <ele>205.6</ele>
      </trkpt>
      <trkpt lat="43.0885" lon="2.51952">
        <ele>212.1</ele>
      </trkpt>
      <trkpt lat="43.0885" lon="2.51877">
        <ele>208.5</ele>
      </trkpt>
      <trkpt lat="43.08854" lon="2.51866">
        <ele>208.3</ele>
      </trkpt>
      <trkpt lat="43.08856" lon="2.5186">
        <ele>208.1</ele>
      </trkpt>
      <trkpt lat="43.08869" lon="2.51822">
        <ele>206.4</ele>
      </trkpt>
      <trkpt lat="43.08872" lon="2.51816">
        <ele>206.6</ele>
      </trkpt>
      <trkpt lat="43.08868" lon="2.51758">
        <ele>205.7</ele>
      </trkpt>
      <trkpt lat="43.08864" lon="2.5171">
        <ele>203.9</ele>
      </trkpt>
      <trkpt lat="43.08859" lon="2.51684">
        <ele>203.1</ele>
      </trkpt>
      <trkpt lat="43.08854" lon="2.51668">
        <ele>202.4</ele>
      </trkpt>
      <trkpt lat="43.08844" lon="2.51641">
        <ele>201.5</ele>
      </trkpt>
      <trkpt lat="43.08835" lon="2.51623">
        <ele>201.4</ele>
      </trkpt>
      <trkpt lat="43.08824" lon="2.51607">
        <ele>198.4</ele>
      </trkpt>
      <trkpt lat="43.08798" lon="2.51587">
        <ele>198</ele>
      </trkpt>
      <trkpt lat="43.08771" lon="2.51567">
        <ele>197.7</ele>
      </trkpt>
      <trkpt lat="43.08756" lon="2.51557">
        <ele>197.6</ele>
      </trkpt>
      <trkpt lat="43.08731" lon="2.51536">
        <ele>196.5</ele>
      </trkpt>
      <trkpt lat="43.08674" lon="2.51463">
        <ele>196.9</ele>
      </trkpt>
      <trkpt lat="43.08634" lon="2.51413">
        <ele>197.6</ele>
      </trkpt>
      <trkpt lat="43.08619" lon="2.51387">
        <ele>197.5</ele>
      </trkpt>
      <trkpt lat="43.08549" lon="2.51225">
        <ele>197.4</ele>
      </trkpt>
      <trkpt lat="43.08537" lon="2.5119">
        <ele>197.6</ele>
      </trkpt>
      <trkpt lat="43.08534" lon="2.51162">
        <ele>198.2</ele>
      </trkpt>
      <trkpt lat="43.08533" lon="2.51103">
        <ele>198.3</ele>
      </trkpt>
      <trkpt lat="43.0853" lon="2.51079">
        <ele>198.7</ele>
      </trkpt>
      <trkpt lat="43.08517" lon="2.51045">
        <ele>198.8</ele>
      </trkpt>
      <trkpt lat="43.08401" lon="2.50777">
        <ele>202.2</ele>
      </trkpt>
      <trkpt lat="43.08398" lon="2.50755">
        <ele>202.4</ele>
      </trkpt>
      <trkpt lat="43.08385" lon="2.50488">
        <ele>203.8</ele>
      </trkpt>
      <trkpt lat="43.08387" lon="2.50442">
        <ele>204.4</ele>
      </trkpt>
      <trkpt lat="43.08392" lon="2.5042">
        <ele>204.7</ele>
      </trkpt>
      <trkpt lat="43.08398" lon="2.50393">
        <ele>205.5</ele>
      </trkpt>
      <trkpt lat="43.08401" lon="2.50374">
        <ele>205.5</ele>
      </trkpt>
      <trkpt lat="43.08401" lon="2.50355">
        <ele>205.5</ele>
      </trkpt>
      <trkpt lat="43.08399" lon="2.50338">
        <ele>205.4</ele>
      </trkpt>
      <trkpt lat="43.08385" lon="2.50265">
        <ele>206.2</ele>
      </trkpt>
      <trkpt lat="43.08362" lon="2.50153">
        <ele>207.4</ele>
      </trkpt>
      <trkpt lat="43.08358" lon="2.50113">
        <ele>207.4</ele>
      </trkpt>
      <trkpt lat="43.08359" lon="2.50048">
        <ele>207.4</ele>
      </trkpt>
      <trkpt lat="43.08362" lon="2.50002">
        <ele>207.4</ele>
      </trkpt>
      <trkpt lat="43.08391" lon="2.49788">
        <ele>211.2</ele>
      </trkpt>
      <trkpt lat="43.08419" lon="2.49611">
        <ele>210.7</ele>
      </trkpt>
      <trkpt lat="43.08448" lon="2.49469">
        <ele>211.5</ele>
      </trkpt>
      <trkpt lat="43.08465" lon="2.493">
        <ele>212.8</ele>
      </trkpt>
      <trkpt lat="43.0847" lon="2.4927">
        <ele>212.8</ele>
      </trkpt>
      <trkpt lat="43.08498" lon="2.49196">
        <ele>213.2</ele>
      </trkpt>
      <trkpt lat="43.08507" lon="2.49155">
        <ele>214.7</ele>
      </trkpt>
      <trkpt lat="43.0851" lon="2.49133">
        <ele>215.1</ele>
      </trkpt>
      <trkpt lat="43.08511" lon="2.49103">
        <ele>215</ele>
      </trkpt>
      <trkpt lat="43.08496" lon="2.48987">
        <ele>213.5</ele>
      </trkpt>
      <trkpt lat="43.08492" lon="2.48965">
        <ele>214.1</ele>
      </trkpt>
      <trkpt lat="43.0849" lon="2.48938">
        <ele>214.5</ele>
      </trkpt>
      <trkpt lat="43.08486" lon="2.48676">
        <ele>219.6</ele>
      </trkpt>
      <trkpt lat="43.08489" lon="2.48609">
        <ele>219.7</ele>
      </trkpt>
      <trkpt lat="43.08488" lon="2.48585">
        <ele>219.8</ele>
      </trkpt>
      <trkpt lat="43.08469" lon="2.4842">
        <ele>221</ele>
      </trkpt>
      <trkpt lat="43.08458" lon="2.48385">
        <ele>222.2</ele>
      </trkpt>
      <trkpt lat="43.08385" lon="2.48237">
        <ele>223.1</ele>
      </trkpt>
      <trkpt lat="43.08378" lon="2.48216">
        <ele>223</ele>
      </trkpt>
      <trkpt lat="43.08372" lon="2.48189">
        <ele>223</ele>
      </trkpt>
      <trkpt lat="43.08371" lon="2.48165">
        <ele>224.2</ele>
      </trkpt>
      <trkpt lat="43.08375" lon="2.48074">
        <ele>226.3</ele>
      </trkpt>
      <trkpt lat="43.08375" lon="2.48056">
        <ele>226.4</ele>
      </trkpt>
      <trkpt lat="43.08372" lon="2.48042">
        <ele>226.4</ele>
      </trkpt>
      <trkpt lat="43.08361" lon="2.48019">
        <ele>226.4</ele>
      </trkpt>
      <trkpt lat="43.08355" lon="2.48012">
        <ele>226.3</ele>
      </trkpt>
      <trkpt lat="43.08341" lon="2.47996">
        <ele>226.4</ele>
      </trkpt>
      <trkpt lat="43.08302" lon="2.47952">
        <ele>226.7</ele>
      </trkpt>
      <trkpt lat="43.08296" lon="2.47938">
        <ele>226.7</ele>
      </trkpt>
      <trkpt lat="43.08295" lon="2.47921">
        <ele>226.7</ele>
      </trkpt>
      <trkpt lat="43.08301" lon="2.4789">
        <ele>227.4</ele>
      </trkpt>
      <trkpt lat="43.08299" lon="2.47873">
        <ele>227.6</ele>
      </trkpt>
      <trkpt lat="43.08295" lon="2.47861">
        <ele>227.7</ele>
      </trkpt>
      <trkpt lat="43.08275" lon="2.47843">
        <ele>227.5</ele>
      </trkpt>
      <trkpt lat="43.08227" lon="2.47806">
        <ele>228.4</ele>
      </trkpt>
      <trkpt lat="43.08225" lon="2.47795">
        <ele>228.7</ele>
      </trkpt>
      <trkpt lat="43.08219" lon="2.47787">
        <ele>228.9</ele>
      </trkpt>
      <trkpt lat="43.08206" lon="2.47782">
        <ele>229</ele>
      </trkpt>
      <trkpt lat="43.08196" lon="2.47769">
        <ele>229.4</ele>
      </trkpt>
      <trkpt lat="43.08187" lon="2.47742">
        <ele>231.7</ele>
      </trkpt>
      <trkpt lat="43.08148" lon="2.47582">
        <ele>238</ele>
      </trkpt>
      <trkpt lat="43.08124" lon="2.4747">
        <ele>240.4</ele>
      </trkpt>
      <trkpt lat="43.08122" lon="2.47447">
        <ele>240.7</ele>
      </trkpt>
      <trkpt lat="43.08129" lon="2.47403">
        <ele>241.8</ele>
      </trkpt>
      <trkpt lat="43.0813" lon="2.47375">
        <ele>241.9</ele>
      </trkpt>
      <trkpt lat="43.08128" lon="2.47353">
        <ele>242.1</ele>
      </trkpt>
      <trkpt lat="43.08108" lon="2.4727">
        <ele>242</ele>
      </trkpt>
      <trkpt lat="43.08103" lon="2.47234">
        <ele>242.1</ele>
      </trkpt>
      <trkpt lat="43.081" lon="2.47181">
        <ele>242.6</ele>
      </trkpt>
      <trkpt lat="43.08098" lon="2.47159">
        <ele>243.5</ele>
      </trkpt>
      <trkpt lat="43.08099" lon="2.47154">
        <ele>243.5</ele>
      </trkpt>
      <trkpt lat="43.08101" lon="2.47126">
        <ele>244</ele>
      </trkpt>
      <trkpt lat="43.08112" lon="2.47078">
        <ele>245.6</ele>
      </trkpt>
      <trkpt lat="43.08144" lon="2.46991">
        <ele>247</ele>
      </trkpt>
      <trkpt lat="43.08151" lon="2.46954">
        <ele>247</ele>
      </trkpt>
      <trkpt lat="43.08156" lon="2.46917">
        <ele>247</ele>
      </trkpt>
      <trkpt lat="43.08157" lon="2.46858">
        <ele>248</ele>
      </trkpt>
      <trkpt lat="43.08154" lon="2.46747">
        <ele>247.9</ele>
      </trkpt>
      <trkpt lat="43.08157" lon="2.46716">
        <ele>247.9</ele>
      </trkpt>
      <trkpt lat="43.0816" lon="2.467">
        <ele>248.1</ele>
      </trkpt>
      <trkpt lat="43.08179" lon="2.46637">
        <ele>250.2</ele>
      </trkpt>
      <trkpt lat="43.08179" lon="2.46607">
        <ele>250.4</ele>
      </trkpt>
      <trkpt lat="43.08176" lon="2.46594">
        <ele>250.3</ele>
      </trkpt>
      <trkpt lat="43.08173" lon="2.46565">
        <ele>251.1</ele>
      </trkpt>
      <trkpt lat="43.08179" lon="2.46444">
        <ele>254.2</ele>
      </trkpt>
      <trkpt lat="43.08183" lon="2.46409">
        <ele>255.9</ele>
      </trkpt>
      <trkpt lat="43.08206" lon="2.46304">
        <ele>259</ele>
      </trkpt>
      <trkpt lat="43.08239" lon="2.46176">
        <ele>262.4</ele>
      </trkpt>
      <trkpt lat="43.08256" lon="2.46095">
        <ele>266.9</ele>
      </trkpt>
      <trkpt lat="43.08258" lon="2.4609">
        <ele>266.6</ele>
      </trkpt>
      <trkpt lat="43.08263" lon="2.46071">
        <ele>268.2</ele>
      </trkpt>
      <trkpt lat="43.08283" lon="2.46023">
        <ele>270.6</ele>
      </trkpt>
      <trkpt lat="43.08309" lon="2.45956">
        <ele>273</ele>
      </trkpt>
      <trkpt lat="43.08314" lon="2.45943">
        <ele>273.1</ele>
      </trkpt>
      <trkpt lat="43.08331" lon="2.45913">
        <ele>273.5</ele>
      </trkpt>
      <trkpt lat="43.08341" lon="2.459">
        <ele>275.3</ele>
      </trkpt>
      <trkpt lat="43.08347" lon="2.45897">
        <ele>275.7</ele>
      </trkpt>
      <trkpt lat="43.08354" lon="2.45898">
        <ele>276</ele>
      </trkpt>
      <trkpt lat="43.08375" lon="2.45902">
        <ele>276.6</ele>
      </trkpt>
      <trkpt lat="43.08409" lon="2.45911">
        <ele>277</ele>
      </trkpt>
      <trkpt lat="43.0842" lon="2.45912">
        <ele>277.7</ele>
      </trkpt>
      <trkpt lat="43.08452" lon="2.45907">
        <ele>279.7</ele>
      </trkpt>
      <trkpt lat="43.08508" lon="2.45893">
        <ele>284.2</ele>
      </trkpt>
      <trkpt lat="43.08521" lon="2.45886">
        <ele>284.9</ele>
      </trkpt>
      <trkpt lat="43.08538" lon="2.45872">
        <ele>285.5</ele>
      </trkpt>
      <trkpt lat="43.08544" lon="2.45862">
        <ele>285.7</ele>
      </trkpt>
      <trkpt lat="43.08562" lon="2.45823">
        <ele>287.2</ele>
      </trkpt>
      <trkpt lat="43.08642" lon="2.45698">
        <ele>295.5</ele>
      </trkpt>
      <trkpt lat="43.08647" lon="2.45688">
        <ele>295.6</ele>
      </trkpt>
      <trkpt lat="43.08661" lon="2.45642">
        <ele>296.8</ele>
      </trkpt>
      <trkpt lat="43.08673" lon="2.45609">
        <ele>301.1</ele>
      </trkpt>
      <trkpt lat="43.08691" lon="2.45576">
        <ele>301.9</ele>
      </trkpt>
      <trkpt lat="43.08717" lon="2.45537">
        <ele>304.6</ele>
      </trkpt>
      <trkpt lat="43.08733" lon="2.45493">
        <ele>307.5</ele>
      </trkpt>
      <trkpt lat="43.08745" lon="2.45481">
        <ele>307.7</ele>
      </trkpt>
      <trkpt lat="43.08771" lon="2.45465">
        <ele>308.4</ele>
      </trkpt>
      <trkpt lat="43.08812" lon="2.45449">
        <ele>308.9</ele>
      </trkpt>
      <trkpt lat="43.08857" lon="2.45435">
        <ele>312.5</ele>
      </trkpt>
      <trkpt lat="43.08866" lon="2.45431">
        <ele>313.1</ele>
      </trkpt>
      <trkpt lat="43.08875" lon="2.45427">
        <ele>313.7</ele>
      </trkpt>
      <trkpt lat="43.08886" lon="2.45419">
        <ele>314.1</ele>
      </trkpt>
      <trkpt lat="43.08895" lon="2.45407">
        <ele>311.5</ele>
      </trkpt>
      <trkpt lat="43.089" lon="2.45393">
        <ele>311.4</ele>
      </trkpt>
      <trkpt lat="43.08899" lon="2.45375">
        <ele>311.2</ele>
      </trkpt>
      <trkpt lat="43.08891" lon="2.45359">
        <ele>311.1</ele>
      </trkpt>
      <trkpt lat="43.08884" lon="2.45354">
        <ele>310.9</ele>
      </trkpt>
      <trkpt lat="43.08872" lon="2.45355">
        <ele>310.3</ele>
      </trkpt>
      <trkpt lat="43.08847" lon="2.4535">
        <ele>309.2</ele>
      </trkpt>
      <trkpt lat="43.08841" lon="2.45341">
        <ele>308.7</ele>
      </trkpt>
      <trkpt lat="43.08835" lon="2.45328">
        <ele>310.1</ele>
      </trkpt>
      <trkpt lat="43.08803" lon="2.45232">
        <ele>323.8</ele>
      </trkpt>
      <trkpt lat="43.08785" lon="2.45202">
        <ele>324.9</ele>
      </trkpt>
      <trkpt lat="43.08782" lon="2.45192">
        <ele>325</ele>
      </trkpt>
      <trkpt lat="43.08776" lon="2.45126">
        <ele>328.8</ele>
      </trkpt>
      <trkpt lat="43.08771" lon="2.45096">
        <ele>328.4</ele>
      </trkpt>
      <trkpt lat="43.08768" lon="2.45086">
        <ele>327.9</ele>
      </trkpt>
      <trkpt lat="43.08749" lon="2.45061">
        <ele>330.9</ele>
      </trkpt>
      <trkpt lat="43.08746" lon="2.45052">
        <ele>332.1</ele>
      </trkpt>
      <trkpt lat="43.08746" lon="2.45042">
        <ele>332.8</ele>
      </trkpt>
      <trkpt lat="43.08748" lon="2.45035">
        <ele>332.9</ele>
      </trkpt>
      <trkpt lat="43.08753" lon="2.45026">
        <ele>332</ele>
      </trkpt>
      <trkpt lat="43.0876" lon="2.45018">
        <ele>332.2</ele>
      </trkpt>
      <trkpt lat="43.08767" lon="2.45015">
        <ele>332.5</ele>
      </trkpt>
      <trkpt lat="43.08774" lon="2.45016">
        <ele>332.9</ele>
      </trkpt>
      <trkpt lat="43.08781" lon="2.45019">
        <ele>333.4</ele>
      </trkpt>
      <trkpt lat="43.08791" lon="2.45033">
        <ele>333.8</ele>
      </trkpt>
      <trkpt lat="43.08795" lon="2.45043">
        <ele>334</ele>
      </trkpt>
      <trkpt lat="43.08797" lon="2.45053">
        <ele>334</ele>
      </trkpt>
      <trkpt lat="43.08791" lon="2.45086">
        <ele>330.7</ele>
      </trkpt>
      <trkpt lat="43.08792" lon="2.45095">
        <ele>330.7</ele>
      </trkpt>
      <trkpt lat="43.08795" lon="2.45108">
        <ele>330.6</ele>
      </trkpt>
      <trkpt lat="43.08815" lon="2.45151">
        <ele>330</ele>
      </trkpt>
      <trkpt lat="43.0882" lon="2.45158">
        <ele>330</ele>
      </trkpt>
      <trkpt lat="43.08827" lon="2.45163">
        <ele>330</ele>
      </trkpt>
      <trkpt lat="43.08847" lon="2.45167">
        <ele>331.5</ele>
      </trkpt>
      <trkpt lat="43.08852" lon="2.45169">
        <ele>332.1</ele>
      </trkpt>
      <trkpt lat="43.08857" lon="2.45175">
        <ele>332.5</ele>
      </trkpt>
      <trkpt lat="43.08875" lon="2.45234">
        <ele>331</ele>
      </trkpt>
      <trkpt lat="43.08879" lon="2.45242">
        <ele>331.1</ele>
      </trkpt>
      <trkpt lat="43.08884" lon="2.45244">
        <ele>331.5</ele>
      </trkpt>
      <trkpt lat="43.08889" lon="2.45244">
        <ele>331.9</ele>
      </trkpt>
      <trkpt lat="43.08894" lon="2.45241">
        <ele>332.4</ele>
      </trkpt>
      <trkpt lat="43.08911" lon="2.45225">
        <ele>333.8</ele>
      </trkpt>
      <trkpt lat="43.0892" lon="2.45221">
        <ele>339.6</ele>
      </trkpt>
      <trkpt lat="43.0896" lon="2.45212">
        <ele>341.6</ele>
      </trkpt>
      <trkpt lat="43.08988" lon="2.45208">
        <ele>342.5</ele>
      </trkpt>
      <trkpt lat="43.09014" lon="2.45199">
        <ele>344.5</ele>
      </trkpt>
      <trkpt lat="43.0903" lon="2.45189">
        <ele>345.1</ele>
      </trkpt>
      <trkpt lat="43.09043" lon="2.45185">
        <ele>344.9</ele>
      </trkpt>
      <trkpt lat="43.0906" lon="2.45186">
        <ele>344.7</ele>
      </trkpt>
      <trkpt lat="43.09069" lon="2.45184">
        <ele>345.2</ele>
      </trkpt>
      <trkpt lat="43.09076" lon="2.4518">
        <ele>346.1</ele>
      </trkpt>
      <trkpt lat="43.09082" lon="2.45173">
        <ele>347.6</ele>
      </trkpt>
      <trkpt lat="43.0913" lon="2.45064">
        <ele>363.4</ele>
      </trkpt>
      <trkpt lat="43.09155" lon="2.45029">
        <ele>366.1</ele>
      </trkpt>
      <trkpt lat="43.09162" lon="2.45022">
        <ele>366.8</ele>
      </trkpt>
      <trkpt lat="43.09182" lon="2.45017">
        <ele>361.2</ele>
      </trkpt>
      <trkpt lat="43.09198" lon="2.45017">
        <ele>359.8</ele>
      </trkpt>
      <trkpt lat="43.09242" lon="2.45022">
        <ele>359.6</ele>
      </trkpt>
      <trkpt lat="43.0925" lon="2.4502">
        <ele>358.9</ele>
      </trkpt>
      <trkpt lat="43.09259" lon="2.45012">
        <ele>360</ele>
      </trkpt>
      <trkpt lat="43.09323" lon="2.44876">
        <ele>376.6</ele>
      </trkpt>
      <trkpt lat="43.09346" lon="2.44839">
        <ele>373.9</ele>
      </trkpt>
      <trkpt lat="43.09408" lon="2.44759">
        <ele>382.6</ele>
      </trkpt>
      <trkpt lat="43.09418" lon="2.44744">
        <ele>384.4</ele>
      </trkpt>
      <trkpt lat="43.09422" lon="2.44729">
        <ele>386.9</ele>
      </trkpt>
      <trkpt lat="43.09422" lon="2.44712">
        <ele>388.6</ele>
      </trkpt>
      <trkpt lat="43.09424" lon="2.44696">
        <ele>389.9</ele>
      </trkpt>
      <trkpt lat="43.0943" lon="2.44685">
        <ele>390.7</ele>
      </trkpt>
      <trkpt lat="43.09438" lon="2.44674">
        <ele>391.1</ele>
      </trkpt>
      <trkpt lat="43.09448" lon="2.44673">
        <ele>391.3</ele>
      </trkpt>
      <trkpt lat="43.09457" lon="2.44679">
        <ele>391.5</ele>
      </trkpt>
      <trkpt lat="43.09475" lon="2.44715">
        <ele>389.6</ele>
      </trkpt>
      <trkpt lat="43.09482" lon="2.44723">
        <ele>388.9</ele>
      </trkpt>
      <trkpt lat="43.09492" lon="2.44725">
        <ele>388.7</ele>
      </trkpt>
      <trkpt lat="43.09509" lon="2.44724">
        <ele>395.3</ele>
      </trkpt>
      <trkpt lat="43.09522" lon="2.44727">
        <ele>396.4</ele>
      </trkpt>
      <trkpt lat="43.09551" lon="2.44753">
        <ele>393.4</ele>
      </trkpt>
      <trkpt lat="43.09582" lon="2.44786">
        <ele>394</ele>
      </trkpt>
      <trkpt lat="43.09597" lon="2.44805">
        <ele>407.2</ele>
      </trkpt>
      <trkpt lat="43.09605" lon="2.44822">
        <ele>406.1</ele>
      </trkpt>
      <trkpt lat="43.09608" lon="2.44838">
        <ele>405.3</ele>
      </trkpt>
      <trkpt lat="43.09606" lon="2.44854">
        <ele>406.4</ele>
      </trkpt>
      <trkpt lat="43.09593" lon="2.44876">
        <ele>406.8</ele>
      </trkpt>
      <trkpt lat="43.0959" lon="2.44886">
        <ele>406.8</ele>
      </trkpt>
      <trkpt lat="43.09587" lon="2.44908">
        <ele>404.1</ele>
      </trkpt>
      <trkpt lat="43.09581" lon="2.44928">
        <ele>399</ele>
      </trkpt>
      <trkpt lat="43.09572" lon="2.4494">
        <ele>397.7</ele>
      </trkpt>
      <trkpt lat="43.09548" lon="2.44966">
        <ele>396.1</ele>
      </trkpt>
      <trkpt lat="43.09542" lon="2.44975">
        <ele>395.6</ele>
      </trkpt>
      <trkpt lat="43.09538" lon="2.44992">
        <ele>395.4</ele>
      </trkpt>
      <trkpt lat="43.0954" lon="2.45012">
        <ele>400.7</ele>
      </trkpt>
      <trkpt lat="43.09551" lon="2.45098">
        <ele>408.8</ele>
      </trkpt>
      <trkpt lat="43.09559" lon="2.45135">
        <ele>410.8</ele>
      </trkpt>
      <trkpt lat="43.09558" lon="2.45144">
        <ele>411.4</ele>
      </trkpt>
      <trkpt lat="43.0955" lon="2.4518">
        <ele>413.4</ele>
      </trkpt>
      <trkpt lat="43.0954" lon="2.45267">
        <ele>414.5</ele>
      </trkpt>
      <trkpt lat="43.09539" lon="2.4528">
        <ele>414.3</ele>
      </trkpt>
      <trkpt lat="43.09538" lon="2.45291">
        <ele>414.1</ele>
      </trkpt>
      <trkpt lat="43.09539" lon="2.45305">
        <ele>414.2</ele>
      </trkpt>
      <trkpt lat="43.09542" lon="2.45318">
        <ele>414.6</ele>
      </trkpt>
      <trkpt lat="43.09608" lon="2.45408">
        <ele>427.7</ele>
      </trkpt>
      <trkpt lat="43.09671" lon="2.45447">
        <ele>438</ele>
      </trkpt>
      <trkpt lat="43.09677" lon="2.45453">
        <ele>437.8</ele>
      </trkpt>
      <trkpt lat="43.09685" lon="2.45466">
        <ele>436.8</ele>
      </trkpt>
      <trkpt lat="43.09698" lon="2.4551">
        <ele>426.5</ele>
      </trkpt>
      <trkpt lat="43.09708" lon="2.45526">
        <ele>427.8</ele>
      </trkpt>
      <trkpt lat="43.09724" lon="2.45544">
        <ele>428.8</ele>
      </trkpt>
      <trkpt lat="43.09781" lon="2.45592">
        <ele>436</ele>
      </trkpt>
      <trkpt lat="43.09806" lon="2.4561">
        <ele>439.5</ele>
      </trkpt>
      <trkpt lat="43.09813" lon="2.45617">
        <ele>439.7</ele>
      </trkpt>
      <trkpt lat="43.09842" lon="2.45662">
        <ele>450.9</ele>
      </trkpt>
      <trkpt lat="43.09845" lon="2.45672">
        <ele>449.5</ele>
      </trkpt>
      <trkpt lat="43.09845" lon="2.45715">
        <ele>453.5</ele>
      </trkpt>
      <trkpt lat="43.09851" lon="2.45767">
        <ele>451.9</ele>
      </trkpt>
      <trkpt lat="43.09851" lon="2.45792">
        <ele>454.7</ele>
      </trkpt>
      <trkpt lat="43.09844" lon="2.45831">
        <ele>448.6</ele>
      </trkpt>
      <trkpt lat="43.09829" lon="2.45869">
        <ele>437</ele>
      </trkpt>
      <trkpt lat="43.09822" lon="2.45915">
        <ele>444.6</ele>
      </trkpt>
      <trkpt lat="43.09811" lon="2.45961">
        <ele>442.2</ele>
      </trkpt>
      <trkpt lat="43.09808" lon="2.45991">
        <ele>444</ele>
      </trkpt>
      <trkpt lat="43.09814" lon="2.46039">
        <ele>442.5</ele>
      </trkpt>
      <trkpt lat="43.09827" lon="2.46071">
        <ele>446.4</ele>
      </trkpt>
      <trkpt lat="43.09835" lon="2.46115">
        <ele>461.1</ele>
      </trkpt>
      <trkpt lat="43.0984" lon="2.46134">
        <ele>460.6</ele>
      </trkpt>
      <trkpt lat="43.09844" lon="2.46149">
        <ele>458.1</ele>
      </trkpt>
      <trkpt lat="43.09862" lon="2.46192">
        <ele>459</ele>
      </trkpt>
      <trkpt lat="43.09864" lon="2.46201">
        <ele>459.5</ele>
      </trkpt>
      <trkpt lat="43.09863" lon="2.46241">
        <ele>457.4</ele>
      </trkpt>
      <trkpt lat="43.09866" lon="2.46266">
        <ele>454.3</ele>
      </trkpt>
      <trkpt lat="43.09873" lon="2.46289">
        <ele>455</ele>
      </trkpt>
      <trkpt lat="43.09879" lon="2.46297">
        <ele>455.6</ele>
      </trkpt>
      <trkpt lat="43.099" lon="2.46315">
        <ele>458.4</ele>
      </trkpt>
      <trkpt lat="43.09908" lon="2.46321">
        <ele>459.8</ele>
      </trkpt>
      <trkpt lat="43.09914" lon="2.46326">
        <ele>461.1</ele>
      </trkpt>
      <trkpt lat="43.09923" lon="2.46337">
        <ele>464.8</ele>
      </trkpt>
      <trkpt lat="43.09941" lon="2.46363">
        <ele>468</ele>
      </trkpt>
      <trkpt lat="43.09975" lon="2.46404">
        <ele>471.4</ele>
      </trkpt>
      <trkpt lat="43.09985" lon="2.46421">
        <ele>468.6</ele>
      </trkpt>
      <trkpt lat="43.09987" lon="2.46428">
        <ele>468.1</ele>
      </trkpt>
      <trkpt lat="43.09989" lon="2.46439">
        <ele>466</ele>
      </trkpt>
      <trkpt lat="43.09991" lon="2.4645">
        <ele>464.6</ele>
      </trkpt>
      <trkpt lat="43.09993" lon="2.46502">
        <ele>469.3</ele>
      </trkpt>
      <trkpt lat="43.10002" lon="2.46558">
        <ele>482.2</ele>
      </trkpt>
      <trkpt lat="43.10004" lon="2.46619">
        <ele>478.8</ele>
      </trkpt>
      <trkpt lat="43.10006" lon="2.46628">
        <ele>478.7</ele>
      </trkpt>
      <trkpt lat="43.1001" lon="2.46639">
        <ele>478.1</ele>
      </trkpt>
      <trkpt lat="43.10016" lon="2.4665">
        <ele>477.6</ele>
      </trkpt>
      <trkpt lat="43.10025" lon="2.46656">
        <ele>478.5</ele>
      </trkpt>
      <trkpt lat="43.10051" lon="2.46672">
        <ele>473.7</ele>
      </trkpt>
      <trkpt lat="43.10059" lon="2.46673">
        <ele>474.9</ele>
      </trkpt>
      <trkpt lat="43.10081" lon="2.46668">
        <ele>482.5</ele>
      </trkpt>
      <trkpt lat="43.10111" lon="2.46655">
        <ele>488.2</ele>
      </trkpt>
      <trkpt lat="43.10137" lon="2.46649">
        <ele>488</ele>
      </trkpt>
      <trkpt lat="43.10177" lon="2.46647">
        <ele>482.9</ele>
      </trkpt>
      <trkpt lat="43.1019" lon="2.46645">
        <ele>483.1</ele>
      </trkpt>
      <trkpt lat="43.10197" lon="2.46641">
        <ele>483.2</ele>
      </trkpt>
      <trkpt lat="43.10204" lon="2.46632">
        <ele>483.7</ele>
      </trkpt>
      <trkpt lat="43.10206" lon="2.46618">
        <ele>484.7</ele>
      </trkpt>
      <trkpt lat="43.1021" lon="2.46547">
        <ele>497</ele>
      </trkpt>
      <trkpt lat="43.10213" lon="2.46534">
        <ele>497.7</ele>
      </trkpt>
      <trkpt lat="43.1022" lon="2.46522">
        <ele>498</ele>
      </trkpt>
      <trkpt lat="43.10249" lon="2.46501">
        <ele>498</ele>
      </trkpt>
      <trkpt lat="43.10281" lon="2.46484">
        <ele>500.9</ele>
      </trkpt>
      <trkpt lat="43.103" lon="2.46451">
        <ele>501.7</ele>
      </trkpt>
      <trkpt lat="43.10308" lon="2.46431">
        <ele>501.5</ele>
      </trkpt>
      <trkpt lat="43.1031" lon="2.46414">
        <ele>502.9</ele>
      </trkpt>
      <trkpt lat="43.10312" lon="2.46394">
        <ele>503.2</ele>
      </trkpt>
      <trkpt lat="43.10312" lon="2.46377">
        <ele>503.5</ele>
      </trkpt>
      <trkpt lat="43.10306" lon="2.46346">
        <ele>503.3</ele>
      </trkpt>
      <trkpt lat="43.10285" lon="2.46286">
        <ele>507.9</ele>
      </trkpt>
      <trkpt lat="43.10282" lon="2.46269">
        <ele>508.7</ele>
      </trkpt>
      <trkpt lat="43.10284" lon="2.46251">
        <ele>508.8</ele>
      </trkpt>
      <trkpt lat="43.10288" lon="2.46237">
        <ele>511</ele>
      </trkpt>
      <trkpt lat="43.10308" lon="2.46219">
        <ele>509</ele>
      </trkpt>
      <trkpt lat="43.10313" lon="2.46211">
        <ele>509.1</ele>
      </trkpt>
      <trkpt lat="43.10328" lon="2.46151">
        <ele>512</ele>
      </trkpt>
      <trkpt lat="43.10334" lon="2.46139">
        <ele>503.8</ele>
      </trkpt>
      <trkpt lat="43.10352" lon="2.4612">
        <ele>503.7</ele>
      </trkpt>
      <trkpt lat="43.10356" lon="2.46113">
        <ele>503.9</ele>
      </trkpt>
      <trkpt lat="43.10358" lon="2.46076">
        <ele>510</ele>
      </trkpt>
      <trkpt lat="43.1036" lon="2.46061">
        <ele>509.6</ele>
      </trkpt>
      <trkpt lat="43.10365" lon="2.46048">
        <ele>509.3</ele>
      </trkpt>
      <trkpt lat="43.10379" lon="2.46035">
        <ele>508.7</ele>
      </trkpt>
      <trkpt lat="43.10396" lon="2.46033">
        <ele>507.9</ele>
      </trkpt>
      <trkpt lat="43.10426" lon="2.46035">
        <ele>498.4</ele>
      </trkpt>
      <trkpt lat="43.10434" lon="2.46032">
        <ele>498</ele>
      </trkpt>
      <trkpt lat="43.10438" lon="2.46028">
        <ele>498</ele>
      </trkpt>
      <trkpt lat="43.10442" lon="2.4602">
        <ele>498.1</ele>
      </trkpt>
      <trkpt lat="43.10445" lon="2.46004">
        <ele>498.6</ele>
      </trkpt>
      <trkpt lat="43.10448" lon="2.45978">
        <ele>499.4</ele>
      </trkpt>
      <trkpt lat="43.10446" lon="2.45963">
        <ele>499.2</ele>
      </trkpt>
      <trkpt lat="43.10443" lon="2.45954">
        <ele>499.4</ele>
      </trkpt>
      <trkpt lat="43.10385" lon="2.4586">
        <ele>498.9</ele>
      </trkpt>
      <trkpt lat="43.10378" lon="2.45857">
        <ele>499.1</ele>
      </trkpt>
      <trkpt lat="43.10366" lon="2.45856">
        <ele>499.4</ele>
      </trkpt>
      <trkpt lat="43.10356" lon="2.45861">
        <ele>499.8</ele>
      </trkpt>
      <trkpt lat="43.10347" lon="2.45865">
        <ele>500.2</ele>
      </trkpt>
      <trkpt lat="43.10333" lon="2.45868">
        <ele>506</ele>
      </trkpt>
      <trkpt lat="43.10326" lon="2.45866">
        <ele>506.1</ele>
      </trkpt>
      <trkpt lat="43.10304" lon="2.45845">
        <ele>506.4</ele>
      </trkpt>
      <trkpt lat="43.10289" lon="2.45836">
        <ele>508.2</ele>
      </trkpt>
      <trkpt lat="43.10283" lon="2.45831">
        <ele>505.9</ele>
      </trkpt>
      <trkpt lat="43.10278" lon="2.45823">
        <ele>506.5</ele>
      </trkpt>
      <trkpt lat="43.10277" lon="2.45811">
        <ele>506.2</ele>
      </trkpt>
      <trkpt lat="43.10279" lon="2.45802">
        <ele>505.7</ele>
      </trkpt>
      <trkpt lat="43.10289" lon="2.45782">
        <ele>504.4</ele>
      </trkpt>
      <trkpt lat="43.10292" lon="2.45751">
        <ele>503.7</ele>
      </trkpt>
      <trkpt lat="43.10297" lon="2.45742">
        <ele>504.6</ele>
      </trkpt>
      <trkpt lat="43.10323" lon="2.45706">
        <ele>503.4</ele>
      </trkpt>
      <trkpt lat="43.10327" lon="2.45696">
        <ele>503.1</ele>
      </trkpt>
      <trkpt lat="43.10329" lon="2.45683">
        <ele>502</ele>
      </trkpt>
      <trkpt lat="43.10325" lon="2.45642">
        <ele>507.7</ele>
      </trkpt>
      <trkpt lat="43.10328" lon="2.45626">
        <ele>509.3</ele>
      </trkpt>
      <trkpt lat="43.10347" lon="2.45591">
        <ele>497.6</ele>
      </trkpt>
      <trkpt lat="43.10348" lon="2.45581">
        <ele>499.3</ele>
      </trkpt>
      <trkpt lat="43.10345" lon="2.45557">
        <ele>497.6</ele>
      </trkpt>
      <trkpt lat="43.10337" lon="2.45536">
        <ele>497.7</ele>
      </trkpt>
      <trkpt lat="43.10312" lon="2.45507">
        <ele>511.6</ele>
      </trkpt>
      <trkpt lat="43.10307" lon="2.455">
        <ele>511.2</ele>
      </trkpt>
      <trkpt lat="43.10303" lon="2.4548">
        <ele>514.6</ele>
      </trkpt>
      <trkpt lat="43.10302" lon="2.45455">
        <ele>515.7</ele>
      </trkpt>
      <trkpt lat="43.10308" lon="2.45441">
        <ele>514.9</ele>
      </trkpt>
      <trkpt lat="43.10312" lon="2.45435">
        <ele>514.1</ele>
      </trkpt>
      <trkpt lat="43.10325" lon="2.45433">
        <ele>512.3</ele>
      </trkpt>
      <trkpt lat="43.10351" lon="2.45436">
        <ele>501.8</ele>
      </trkpt>
      <trkpt lat="43.10362" lon="2.45433">
        <ele>500.7</ele>
      </trkpt>
      <trkpt lat="43.10376" lon="2.45418">
        <ele>499.3</ele>
      </trkpt>
      <trkpt lat="43.10396" lon="2.45383">
        <ele>501.7</ele>
      </trkpt>
      <trkpt lat="43.10412" lon="2.45365">
        <ele>501.7</ele>
      </trkpt>
      <trkpt lat="43.10425" lon="2.45355">
        <ele>496.2</ele>
      </trkpt>
      <trkpt lat="43.10434" lon="2.45351">
        <ele>495.9</ele>
      </trkpt>
      <trkpt lat="43.10443" lon="2.4535">
        <ele>495.3</ele>
      </trkpt>
      <trkpt lat="43.10453" lon="2.45352">
        <ele>494.5</ele>
      </trkpt>
      <trkpt lat="43.10469" lon="2.45358">
        <ele>493.5</ele>
      </trkpt>
    </trkseg>
  </trk>
  <trk>
    <name><![CDATA[Aude J2]]></name>
    <extensions>
      <line xmlns="http://www.topografix.com/GPX/gpx_style/0/2">
        <color>0068f0</color>
        <width>4</width>
      </line>
    </extensions>
    <trkseg>
      <trkpt lat="43.10468" lon="2.4537">
        <ele>491</ele>
        <time>2018-05-20T07:15:19Z</time>
      </trkpt>
      <trkpt lat="43.10492" lon="2.45368">
        <ele>487</ele>
        <time>2018-05-20T07:15:48Z</time>
      </trkpt>
      <trkpt lat="43.10514" lon="2.45358">
        <ele>485</ele>
        <time>2018-05-20T07:15:52Z</time>
      </trkpt>
      <trkpt lat="43.10547" lon="2.4531">
        <ele>482</ele>
        <time>2018-05-20T07:16:01Z</time>
      </trkpt>
      <trkpt lat="43.10556" lon="2.45279">
        <ele>481</ele>
        <time>2018-05-20T07:16:05Z</time>
      </trkpt>
      <trkpt lat="43.10557" lon="2.45213">
        <ele>477</ele>
        <time>2018-05-20T07:16:12Z</time>
      </trkpt>
      <trkpt lat="43.10551" lon="2.45184">
        <ele>476</ele>
        <time>2018-05-20T07:16:14Z</time>
      </trkpt>
      <trkpt lat="43.10546" lon="2.45071">
        <ele>474</ele>
        <time>2018-05-20T07:16:26Z</time>
      </trkpt>
      <trkpt lat="43.10541" lon="2.45032">
        <ele>473</ele>
        <time>2018-05-20T07:16:31Z</time>
      </trkpt>
      <trkpt lat="43.10546" lon="2.45001">
        <ele>472</ele>
        <time>2018-05-20T07:16:33Z</time>
      </trkpt>
      <trkpt lat="43.10545" lon="2.44961">
        <ele>471</ele>
        <time>2018-05-20T07:16:37Z</time>
      </trkpt>
      <trkpt lat="43.10499" lon="2.44881">
        <ele>467</ele>
        <time>2018-05-20T07:16:47Z</time>
      </trkpt>
      <trkpt lat="43.10492" lon="2.4485">
        <ele>465</ele>
        <time>2018-05-20T07:16:51Z</time>
      </trkpt>
      <trkpt lat="43.10498" lon="2.4481">
        <ele>463</ele>
        <time>2018-05-20T07:16:55Z</time>
      </trkpt>
      <trkpt lat="43.1051" lon="2.44781">
        <ele>461</ele>
        <time>2018-05-20T07:16:59Z</time>
      </trkpt>
      <trkpt lat="43.10533" lon="2.44766">
        <ele>460</ele>
        <time>2018-05-20T07:17:03Z</time>
      </trkpt>
      <trkpt lat="43.10555" lon="2.44761">
        <ele>459</ele>
        <time>2018-05-20T07:17:32Z</time>
      </trkpt>
      <trkpt lat="43.10579" lon="2.44751">
        <ele>458</ele>
        <time>2018-05-20T07:17:39Z</time>
      </trkpt>
      <trkpt lat="43.10583" lon="2.44719">
        <ele>456</ele>
        <time>2018-05-20T07:17:46Z</time>
      </trkpt>
      <trkpt lat="43.10538" lon="2.44638">
        <ele>452</ele>
        <time>2018-05-20T07:17:59Z</time>
      </trkpt>
      <trkpt lat="43.10527" lon="2.44606">
        <ele>450</ele>
        <time>2018-05-20T07:18:03Z</time>
      </trkpt>
      <trkpt lat="43.10518" lon="2.44531">
        <ele>448</ele>
        <time>2018-05-20T07:18:11Z</time>
      </trkpt>
      <trkpt lat="43.105" lon="2.44461">
        <ele>445</ele>
        <time>2018-05-20T07:18:18Z</time>
      </trkpt>
      <trkpt lat="43.10471" lon="2.44402">
        <ele>442</ele>
        <time>2018-05-20T07:18:25Z</time>
      </trkpt>
      <trkpt lat="43.10427" lon="2.44209">
        <ele>436</ele>
        <time>2018-05-20T07:18:44Z</time>
      </trkpt>
      <trkpt lat="43.10408" lon="2.44073">
        <ele>432</ele>
        <time>2018-05-20T07:18:56Z</time>
      </trkpt>
      <trkpt lat="43.10401" lon="2.44043">
        <ele>431</ele>
        <time>2018-05-20T07:19:00Z</time>
      </trkpt>
      <trkpt lat="43.10381" lon="2.44016">
        <ele>429</ele>
        <time>2018-05-20T07:19:03Z</time>
      </trkpt>
      <trkpt lat="43.1037" lon="2.43984">
        <ele>427</ele>
        <time>2018-05-20T07:19:07Z</time>
      </trkpt>
      <trkpt lat="43.10366" lon="2.4395">
        <ele>426</ele>
        <time>2018-05-20T07:19:09Z</time>
      </trkpt>
      <trkpt lat="43.10372" lon="2.43911">
        <ele>425</ele>
        <time>2018-05-20T07:19:13Z</time>
      </trkpt>
      <trkpt lat="43.10417" lon="2.43832">
        <ele>422</ele>
        <time>2018-05-20T07:19:22Z</time>
      </trkpt>
      <trkpt lat="43.10425" lon="2.438">
        <ele>421</ele>
        <time>2018-05-20T07:19:25Z</time>
      </trkpt>
      <trkpt lat="43.10418" lon="2.43733">
        <ele>419</ele>
        <time>2018-05-20T07:19:32Z</time>
      </trkpt>
      <trkpt lat="43.10433" lon="2.43703">
        <ele>417</ele>
        <time>2018-05-20T07:19:35Z</time>
      </trkpt>
      <trkpt lat="43.10475" lon="2.43605">
        <ele>411</ele>
        <time>2018-05-20T07:19:47Z</time>
      </trkpt>
      <trkpt lat="43.10497" lon="2.43593">
        <ele>410</ele>
        <time>2018-05-20T07:19:51Z</time>
      </trkpt>
      <trkpt lat="43.1054" lon="2.43757">
        <ele>401</ele>
        <time>2018-05-20T07:20:08Z</time>
      </trkpt>
      <trkpt lat="43.10549" lon="2.43786">
        <ele>399</ele>
        <time>2018-05-20T07:20:11Z</time>
      </trkpt>
      <trkpt lat="43.10574" lon="2.43769">
        <ele>398</ele>
        <time>2018-05-20T07:20:17Z</time>
      </trkpt>
      <trkpt lat="43.10584" lon="2.43738">
        <ele>397</ele>
        <time>2018-05-20T07:20:20Z</time>
      </trkpt>
      <trkpt lat="43.1058" lon="2.43708">
        <ele>395</ele>
        <time>2018-05-20T07:20:23Z</time>
      </trkpt>
      <trkpt lat="43.10593" lon="2.43632">
        <ele>392</ele>
        <time>2018-05-20T07:20:32Z</time>
      </trkpt>
      <trkpt lat="43.10589" lon="2.43601">
        <ele>391</ele>
        <time>2018-05-20T07:20:34Z</time>
      </trkpt>
      <trkpt lat="43.10597" lon="2.43571">
        <ele>389</ele>
        <time>2018-05-20T07:20:38Z</time>
      </trkpt>
      <trkpt lat="43.10613" lon="2.43549">
        <ele>387</ele>
        <time>2018-05-20T07:20:41Z</time>
      </trkpt>
      <trkpt lat="43.10628" lon="2.43523">
        <ele>385</ele>
        <time>2018-05-20T07:20:43Z</time>
      </trkpt>
      <trkpt lat="43.10646" lon="2.43492">
        <ele>384</ele>
        <time>2018-05-20T07:20:48Z</time>
      </trkpt>
      <trkpt lat="43.10669" lon="2.43474">
        <ele>382</ele>
        <time>2018-05-20T07:20:51Z</time>
      </trkpt>
      <trkpt lat="43.10693" lon="2.43459">
        <ele>381</ele>
        <time>2018-05-20T07:20:55Z</time>
      </trkpt>
      <trkpt lat="43.10684" lon="2.43429">
        <ele>379</ele>
        <time>2018-05-20T07:20:59Z</time>
      </trkpt>
      <trkpt lat="43.10667" lon="2.43405">
        <ele>377</ele>
        <time>2018-05-20T07:21:04Z</time>
      </trkpt>
      <trkpt lat="43.10694" lon="2.43338">
        <ele>375</ele>
        <time>2018-05-20T07:21:13Z</time>
      </trkpt>
      <trkpt lat="43.10738" lon="2.43289">
        <ele>374</ele>
        <time>2018-05-20T07:21:20Z</time>
      </trkpt>
      <trkpt lat="43.10753" lon="2.4326">
        <ele>372</ele>
        <time>2018-05-20T07:21:30Z</time>
      </trkpt>
      <trkpt lat="43.10758" lon="2.43163">
        <ele>367</ele>
        <time>2018-05-20T07:21:54Z</time>
      </trkpt>
      <trkpt lat="43.10795" lon="2.43033">
        <ele>362</ele>
        <time>2018-05-20T07:22:10Z</time>
      </trkpt>
      <trkpt lat="43.1079" lon="2.42956">
        <ele>359</ele>
        <time>2018-05-20T07:22:19Z</time>
      </trkpt>
      <trkpt lat="43.10795" lon="2.42921">
        <ele>358</ele>
        <time>2018-05-20T07:22:22Z</time>
      </trkpt>
      <trkpt lat="43.10829" lon="2.42868">
        <ele>355</ele>
        <time>2018-05-20T07:22:29Z</time>
      </trkpt>
      <trkpt lat="43.1085" lon="2.42803">
        <ele>353</ele>
        <time>2018-05-20T07:22:36Z</time>
      </trkpt>
      <trkpt lat="43.10866" lon="2.42775">
        <ele>351</ele>
        <time>2018-05-20T07:22:41Z</time>
      </trkpt>
      <trkpt lat="43.10916" lon="2.42794">
        <ele>348</ele>
        <time>2018-05-20T07:22:49Z</time>
      </trkpt>
      <trkpt lat="43.10943" lon="2.42791">
        <ele>348</ele>
        <time>2018-05-20T07:22:54Z</time>
      </trkpt>
      <trkpt lat="43.10959" lon="2.42766">
        <ele>347</ele>
        <time>2018-05-20T07:22:58Z</time>
      </trkpt>
      <trkpt lat="43.10907" lon="2.42687">
        <ele>342</ele>
        <time>2018-05-20T07:23:14Z</time>
      </trkpt>
      <trkpt lat="43.10894" lon="2.42661">
        <ele>340</ele>
        <time>2018-05-20T07:23:19Z</time>
      </trkpt>
      <trkpt lat="43.10905" lon="2.42492">
        <ele>328</ele>
        <time>2018-05-20T07:23:41Z</time>
      </trkpt>
      <trkpt lat="43.10904" lon="2.42424">
        <ele>324</ele>
        <time>2018-05-20T07:23:50Z</time>
      </trkpt>
      <trkpt lat="43.10897" lon="2.42392">
        <ele>323</ele>
        <time>2018-05-20T07:23:54Z</time>
      </trkpt>
      <trkpt lat="43.10883" lon="2.42154">
        <ele>320</ele>
        <time>2018-05-20T07:24:27Z</time>
      </trkpt>
      <trkpt lat="43.10908" lon="2.42059">
        <ele>320</ele>
        <time>2018-05-20T07:24:37Z</time>
      </trkpt>
      <trkpt lat="43.109" lon="2.42027">
        <ele>319</ele>
        <time>2018-05-20T07:24:42Z</time>
      </trkpt>
      <trkpt lat="43.10827" lon="2.41987">
        <ele>319</ele>
        <time>2018-05-20T07:24:53Z</time>
      </trkpt>
      <trkpt lat="43.10807" lon="2.41971">
        <ele>319</ele>
        <time>2018-05-20T07:25:00Z</time>
      </trkpt>
      <trkpt lat="43.10798" lon="2.4194">
        <ele>319</ele>
        <time>2018-05-20T07:25:07Z</time>
      </trkpt>
      <trkpt lat="43.10798" lon="2.41907">
        <ele>311</ele>
        <time>2018-05-20T07:26:35Z</time>
      </trkpt>
      <trkpt lat="43.10811" lon="2.4181">
        <ele>309</ele>
        <time>2018-05-20T07:26:59Z</time>
      </trkpt>
      <trkpt lat="43.10805" lon="2.41741">
        <ele>309</ele>
        <time>2018-05-20T07:27:09Z</time>
      </trkpt>
      <trkpt lat="43.10806" lon="2.41706">
        <ele>309</ele>
        <time>2018-05-20T07:27:16Z</time>
      </trkpt>
      <trkpt lat="43.10817" lon="2.41677">
        <ele>308</ele>
        <time>2018-05-20T07:27:29Z</time>
      </trkpt>
      <trkpt lat="43.10835" lon="2.41658">
        <ele>308</ele>
        <time>2018-05-20T07:27:36Z</time>
      </trkpt>
      <trkpt lat="43.10855" lon="2.41637">
        <ele>307</ele>
        <time>2018-05-20T07:27:39Z</time>
      </trkpt>
      <trkpt lat="43.1088" lon="2.41569">
        <ele>307</ele>
        <time>2018-05-20T07:27:49Z</time>
      </trkpt>
      <trkpt lat="43.10922" lon="2.41517">
        <ele>306</ele>
        <time>2018-05-20T07:27:58Z</time>
      </trkpt>
      <trkpt lat="43.10923" lon="2.41483">
        <ele>306</ele>
        <time>2018-05-20T07:28:03Z</time>
      </trkpt>
      <trkpt lat="43.10895" lon="2.41426">
        <ele>304</ele>
        <time>2018-05-20T07:28:11Z</time>
      </trkpt>
      <trkpt lat="43.10877" lon="2.41402">
        <ele>303</ele>
        <time>2018-05-20T07:28:15Z</time>
      </trkpt>
      <trkpt lat="43.10867" lon="2.41372">
        <ele>302</ele>
        <time>2018-05-20T07:28:19Z</time>
      </trkpt>
      <trkpt lat="43.1084" lon="2.4131">
        <ele>301</ele>
        <time>2018-05-20T07:28:27Z</time>
      </trkpt>
      <trkpt lat="43.10819" lon="2.41284">
        <ele>300</ele>
        <time>2018-05-20T07:28:31Z</time>
      </trkpt>
      <trkpt lat="43.10763" lon="2.41271">
        <ele>299</ele>
        <time>2018-05-20T07:28:38Z</time>
      </trkpt>
      <trkpt lat="43.10752" lon="2.41239">
        <ele>298</ele>
        <time>2018-05-20T07:28:44Z</time>
      </trkpt>
      <trkpt lat="43.10764" lon="2.41174">
        <ele>297</ele>
        <time>2018-05-20T07:28:52Z</time>
      </trkpt>
      <trkpt lat="43.10772" lon="2.4114">
        <ele>296</ele>
        <time>2018-05-20T07:28:56Z</time>
      </trkpt>
      <trkpt lat="43.10814" lon="2.41098">
        <ele>294</ele>
        <time>2018-05-20T07:29:03Z</time>
      </trkpt>
      <trkpt lat="43.10803" lon="2.41067">
        <ele>293</ele>
        <time>2018-05-20T07:29:08Z</time>
      </trkpt>
      <trkpt lat="43.10781" lon="2.41053">
        <ele>293</ele>
        <time>2018-05-20T07:29:11Z</time>
      </trkpt>
      <trkpt lat="43.10758" lon="2.41042">
        <ele>290</ele>
        <time>2018-05-20T07:29:16Z</time>
      </trkpt>
      <trkpt lat="43.10731" lon="2.41031">
        <ele>289</ele>
        <time>2018-05-20T07:29:19Z</time>
      </trkpt>
      <trkpt lat="43.10705" lon="2.41035">
        <ele>289</ele>
        <time>2018-05-20T07:29:23Z</time>
      </trkpt>
      <trkpt lat="43.10684" lon="2.41054">
        <ele>290</ele>
        <time>2018-05-20T07:29:27Z</time>
      </trkpt>
      <trkpt lat="43.1066" lon="2.41074">
        <ele>290</ele>
        <time>2018-05-20T07:29:33Z</time>
      </trkpt>
      <trkpt lat="43.10587" lon="2.41095">
        <ele>289</ele>
        <time>2018-05-20T07:29:44Z</time>
      </trkpt>
      <trkpt lat="43.10564" lon="2.41114">
        <ele>289</ele>
        <time>2018-05-20T07:29:49Z</time>
      </trkpt>
      <trkpt lat="43.10537" lon="2.41114">
        <ele>289</ele>
        <time>2018-05-20T07:29:56Z</time>
      </trkpt>
      <trkpt lat="43.10531" lon="2.41083">
        <ele>289</ele>
        <time>2018-05-20T07:30:00Z</time>
      </trkpt>
      <trkpt lat="43.10519" lon="2.41054">
        <ele>288</ele>
        <time>2018-05-20T07:30:03Z</time>
      </trkpt>
      <trkpt lat="43.10503" lon="2.41032">
        <ele>287</ele>
        <time>2018-05-20T07:30:07Z</time>
      </trkpt>
      <trkpt lat="43.10452" lon="2.41018">
        <ele>286</ele>
        <time>2018-05-20T07:30:15Z</time>
      </trkpt>
      <trkpt lat="43.10428" lon="2.41029">
        <ele>285</ele>
        <time>2018-05-20T07:30:19Z</time>
      </trkpt>
      <trkpt lat="43.10405" lon="2.41015">
        <ele>284</ele>
        <time>2018-05-20T07:30:25Z</time>
      </trkpt>
      <trkpt lat="43.10412" lon="2.40911">
        <ele>278</ele>
        <time>2018-05-20T07:30:39Z</time>
      </trkpt>
      <trkpt lat="43.10384" lon="2.40745">
        <ele>273</ele>
        <time>2018-05-20T07:30:59Z</time>
      </trkpt>
      <trkpt lat="43.10347" lon="2.40652">
        <ele>272</ele>
        <time>2018-05-20T07:31:11Z</time>
      </trkpt>
      <trkpt lat="43.10321" lon="2.40642">
        <ele>271</ele>
        <time>2018-05-20T07:31:15Z</time>
      </trkpt>
      <trkpt lat="43.10298" lon="2.40649">
        <ele>271</ele>
        <time>2018-05-20T07:31:18Z</time>
      </trkpt>
      <trkpt lat="43.1025" lon="2.4062">
        <ele>270</ele>
        <time>2018-05-20T07:31:27Z</time>
      </trkpt>
      <trkpt lat="43.102" lon="2.4062">
        <ele>269</ele>
        <time>2018-05-20T07:31:34Z</time>
      </trkpt>
      <trkpt lat="43.10173" lon="2.40618">
        <ele>269</ele>
        <time>2018-05-20T07:31:37Z</time>
      </trkpt>
      <trkpt lat="43.10133" lon="2.40577">
        <ele>268</ele>
        <time>2018-05-20T07:31:46Z</time>
      </trkpt>
      <trkpt lat="43.10108" lon="2.40565">
        <ele>268</ele>
        <time>2018-05-20T07:31:51Z</time>
      </trkpt>
      <trkpt lat="43.10107" lon="2.40533">
        <ele>266</ele>
        <time>2018-05-20T07:32:01Z</time>
      </trkpt>
      <trkpt lat="43.10181" lon="2.4044">
        <ele>262</ele>
        <time>2018-05-20T07:32:24Z</time>
      </trkpt>
      <trkpt lat="43.10197" lon="2.40372">
        <ele>259</ele>
        <time>2018-05-20T07:32:34Z</time>
      </trkpt>
      <trkpt lat="43.10196" lon="2.40335">
        <ele>258</ele>
        <time>2018-05-20T07:32:38Z</time>
      </trkpt>
      <trkpt lat="43.10176" lon="2.40272">
        <ele>255</ele>
        <time>2018-05-20T07:32:47Z</time>
      </trkpt>
      <trkpt lat="43.10178" lon="2.40241">
        <ele>255</ele>
        <time>2018-05-20T07:32:51Z</time>
      </trkpt>
      <trkpt lat="43.10203" lon="2.40244">
        <ele>254</ele>
        <time>2018-05-20T07:32:55Z</time>
      </trkpt>
      <trkpt lat="43.10228" lon="2.40224">
        <ele>253</ele>
        <time>2018-05-20T07:32:58Z</time>
      </trkpt>
      <trkpt lat="43.10213" lon="2.4019">
        <ele>253</ele>
        <time>2018-05-20T07:33:02Z</time>
      </trkpt>
      <trkpt lat="43.10185" lon="2.40092">
        <ele>251</ele>
        <time>2018-05-20T07:33:15Z</time>
      </trkpt>
      <trkpt lat="43.10175" lon="2.40061">
        <ele>251</ele>
        <time>2018-05-20T07:33:18Z</time>
      </trkpt>
      <trkpt lat="43.10178" lon="2.39888">
        <ele>247</ele>
        <time>2018-05-20T07:33:39Z</time>
      </trkpt>
      <trkpt lat="43.10168" lon="2.3982">
        <ele>246</ele>
        <time>2018-05-20T07:33:48Z</time>
      </trkpt>
      <trkpt lat="43.10165" lon="2.39851">
        <ele>245</ele>
        <time>2018-05-20T07:34:11Z</time>
      </trkpt>
      <trkpt lat="43.10127" lon="2.40025">
        <ele>238</ele>
        <time>2018-05-20T07:34:37Z</time>
      </trkpt>
      <trkpt lat="43.10165" lon="2.40116">
        <ele>231</ele>
        <time>2018-05-20T07:34:51Z</time>
      </trkpt>
      <trkpt lat="43.10168" lon="2.40152">
        <ele>229</ele>
        <time>2018-05-20T07:34:56Z</time>
      </trkpt>
      <trkpt lat="43.10157" lon="2.40184">
        <ele>229</ele>
        <time>2018-05-20T07:35:01Z</time>
      </trkpt>
      <trkpt lat="43.10133" lon="2.40199">
        <ele>230</ele>
        <time>2018-05-20T07:35:07Z</time>
      </trkpt>
      <trkpt lat="43.10127" lon="2.40234">
        <ele>230</ele>
        <time>2018-05-20T07:35:13Z</time>
      </trkpt>
      <trkpt lat="43.10112" lon="2.40262">
        <ele>231</ele>
        <time>2018-05-20T07:35:21Z</time>
      </trkpt>
      <trkpt lat="43.10096" lon="2.40285">
        <ele>233</ele>
        <time>2018-05-20T07:35:34Z</time>
      </trkpt>
      <trkpt lat="43.10076" lon="2.40268">
        <ele>234</ele>
        <time>2018-05-20T07:35:46Z</time>
      </trkpt>
      <trkpt lat="43.10067" lon="2.40236">
        <ele>237</ele>
        <time>2018-05-20T07:36:25Z</time>
      </trkpt>
      <trkpt lat="43.10048" lon="2.40219">
        <ele>249</ele>
        <time>2018-05-20T07:37:36Z</time>
      </trkpt>
      <trkpt lat="43.10037" lon="2.40192">
        <ele>250</ele>
        <time>2018-05-20T07:37:54Z</time>
      </trkpt>
      <trkpt lat="43.1002" lon="2.40171">
        <ele>253</ele>
        <time>2018-05-20T07:38:08Z</time>
      </trkpt>
      <trkpt lat="43.10006" lon="2.40196">
        <ele>254</ele>
        <time>2018-05-20T07:38:23Z</time>
      </trkpt>
      <trkpt lat="43.0996" lon="2.40186">
        <ele>254</ele>
        <time>2018-05-20T07:38:45Z</time>
      </trkpt>
      <trkpt lat="43.09915" lon="2.40182">
        <ele>257</ele>
        <time>2018-05-20T07:39:09Z</time>
      </trkpt>
      <trkpt lat="43.09877" lon="2.40146">
        <ele>260</ele>
        <time>2018-05-20T07:39:38Z</time>
      </trkpt>
      <trkpt lat="43.09839" lon="2.40182">
        <ele>261</ele>
        <time>2018-05-20T07:40:08Z</time>
      </trkpt>
      <trkpt lat="43.09815" lon="2.40184">
        <ele>263</ele>
        <time>2018-05-20T07:40:21Z</time>
      </trkpt>
      <trkpt lat="43.09721" lon="2.40211">
        <ele>266</ele>
        <time>2018-05-20T07:40:48Z</time>
      </trkpt>
      <trkpt lat="43.09698" lon="2.40219">
        <ele>267</ele>
        <time>2018-05-20T07:40:58Z</time>
      </trkpt>
      <trkpt lat="43.09696" lon="2.40188">
        <ele>288</ele>
        <time>2018-05-20T07:43:40Z</time>
      </trkpt>
      <trkpt lat="43.0968" lon="2.40182">
        <ele>288</ele>
        <time>2018-05-20T09:35:56Z</time>
      </trkpt>
      <trkpt lat="43.09696" lon="2.40194">
        <ele>270</ele>
        <time>2018-05-20T09:40:38Z</time>
      </trkpt>
      <trkpt lat="43.09694" lon="2.40191">
        <ele>272</ele>
        <time>2018-05-20T10:18:00Z</time>
      </trkpt>
      <trkpt lat="43.09715" lon="2.40208">
        <ele>278</ele>
        <time>2018-05-20T11:15:49Z</time>
      </trkpt>
      <trkpt lat="43.09738" lon="2.40203">
        <ele>276</ele>
        <time>2018-05-20T11:16:01Z</time>
      </trkpt>
      <trkpt lat="43.09831" lon="2.40176">
        <ele>277</ele>
        <time>2018-05-20T11:16:35Z</time>
      </trkpt>
      <trkpt lat="43.09872" lon="2.40145">
        <ele>277</ele>
        <time>2018-05-20T11:16:47Z</time>
      </trkpt>
      <trkpt lat="43.09895" lon="2.40152">
        <ele>277</ele>
        <time>2018-05-20T11:16:54Z</time>
      </trkpt>
      <trkpt lat="43.09913" lon="2.40174">
        <ele>275</ele>
        <time>2018-05-20T11:17:00Z</time>
      </trkpt>
      <trkpt lat="43.09937" lon="2.40179">
        <ele>274</ele>
        <time>2018-05-20T11:17:06Z</time>
      </trkpt>
      <trkpt lat="43.09985" lon="2.40191">
        <ele>270</ele>
        <time>2018-05-20T11:17:18Z</time>
      </trkpt>
      <trkpt lat="43.10007" lon="2.40184">
        <ele>269</ele>
        <time>2018-05-20T11:17:27Z</time>
      </trkpt>
      <trkpt lat="43.10033" lon="2.40173">
        <ele>266</ele>
        <time>2018-05-20T11:17:33Z</time>
      </trkpt>
      <trkpt lat="43.10055" lon="2.40236">
        <ele>261</ele>
        <time>2018-05-20T11:17:43Z</time>
      </trkpt>
      <trkpt lat="43.10073" lon="2.40256">
        <ele>257</ele>
        <time>2018-05-20T11:17:49Z</time>
      </trkpt>
      <trkpt lat="43.10092" lon="2.40275">
        <ele>254</ele>
        <time>2018-05-20T11:17:55Z</time>
      </trkpt>
      <trkpt lat="43.10112" lon="2.40256">
        <ele>250</ele>
        <time>2018-05-20T11:18:01Z</time>
      </trkpt>
      <trkpt lat="43.10121" lon="2.40223">
        <ele>249</ele>
        <time>2018-05-20T11:18:08Z</time>
      </trkpt>
      <trkpt lat="43.10132" lon="2.40193">
        <ele>248</ele>
        <time>2018-05-20T11:18:16Z</time>
      </trkpt>
      <trkpt lat="43.10152" lon="2.40178">
        <ele>247</ele>
        <time>2018-05-20T11:18:22Z</time>
      </trkpt>
      <trkpt lat="43.10167" lon="2.40152">
        <ele>245</ele>
        <time>2018-05-20T11:18:29Z</time>
      </trkpt>
      <trkpt lat="43.10164" lon="2.40119">
        <ele>244</ele>
        <time>2018-05-20T11:18:35Z</time>
      </trkpt>
      <trkpt lat="43.10126" lon="2.40031">
        <ele>242</ele>
        <time>2018-05-20T11:18:56Z</time>
      </trkpt>
      <trkpt lat="43.10124" lon="2.40001">
        <ele>242</ele>
        <time>2018-05-20T11:19:05Z</time>
      </trkpt>
      <trkpt lat="43.10136" lon="2.39971">
        <ele>243</ele>
        <time>2018-05-20T11:19:13Z</time>
      </trkpt>
      <trkpt lat="43.10161" lon="2.39879">
        <ele>244</ele>
        <time>2018-05-20T11:19:47Z</time>
      </trkpt>
      <trkpt lat="43.10165" lon="2.39848">
        <ele>245</ele>
        <time>2018-05-20T11:19:57Z</time>
      </trkpt>
      <trkpt lat="43.1015" lon="2.39789">
        <ele>247</ele>
        <time>2018-05-20T11:20:21Z</time>
      </trkpt>
      <trkpt lat="43.10144" lon="2.39757">
        <ele>248</ele>
        <time>2018-05-20T11:21:12Z</time>
      </trkpt>
      <trkpt lat="43.10122" lon="2.39689">
        <ele>249</ele>
        <time>2018-05-20T11:21:24Z</time>
      </trkpt>
      <trkpt lat="43.10114" lon="2.39658">
        <ele>249</ele>
        <time>2018-05-20T11:21:29Z</time>
      </trkpt>
      <trkpt lat="43.10084" lon="2.39566">
        <ele>249</ele>
        <time>2018-05-20T11:21:43Z</time>
      </trkpt>
      <trkpt lat="43.10079" lon="2.39533">
        <ele>248</ele>
        <time>2018-05-20T11:21:48Z</time>
      </trkpt>
      <trkpt lat="43.10097" lon="2.39465">
        <ele>247</ele>
        <time>2018-05-20T11:21:58Z</time>
      </trkpt>
      <trkpt lat="43.10117" lon="2.39444">
        <ele>246</ele>
        <time>2018-05-20T11:22:02Z</time>
      </trkpt>
      <trkpt lat="43.10116" lon="2.39412">
        <ele>246</ele>
        <time>2018-05-20T11:22:07Z</time>
      </trkpt>
      <trkpt lat="43.10083" lon="2.39364">
        <ele>245</ele>
        <time>2018-05-20T11:22:15Z</time>
      </trkpt>
      <trkpt lat="43.10057" lon="2.39263">
        <ele>245</ele>
        <time>2018-05-20T11:22:29Z</time>
      </trkpt>
      <trkpt lat="43.10052" lon="2.39167">
        <ele>244</ele>
        <time>2018-05-20T11:22:41Z</time>
      </trkpt>
      <trkpt lat="43.10048" lon="2.39129">
        <ele>244</ele>
        <time>2018-05-20T11:22:45Z</time>
      </trkpt>
      <trkpt lat="43.10041" lon="2.39096">
        <ele>244</ele>
        <time>2018-05-20T11:22:51Z</time>
      </trkpt>
      <trkpt lat="43.10059" lon="2.39035">
        <ele>243</ele>
        <time>2018-05-20T11:22:59Z</time>
      </trkpt>
      <trkpt lat="43.10064" lon="2.39001">
        <ele>243</ele>
        <time>2018-05-20T11:23:03Z</time>
      </trkpt>
      <trkpt lat="43.1005" lon="2.38905">
        <ele>241</ele>
        <time>2018-05-20T11:23:15Z</time>
      </trkpt>
      <trkpt lat="43.10025" lon="2.38849">
        <ele>239</ele>
        <time>2018-05-20T11:23:23Z</time>
      </trkpt>
      <trkpt lat="43.0997" lon="2.38777">
        <ele>237</ele>
        <time>2018-05-20T11:23:35Z</time>
      </trkpt>
      <trkpt lat="43.09967" lon="2.38715">
        <ele>235</ele>
        <time>2018-05-20T11:23:43Z</time>
      </trkpt>
      <trkpt lat="43.1002" lon="2.38602">
        <ele>231</ele>
        <time>2018-05-20T11:24:00Z</time>
      </trkpt>
      <trkpt lat="43.10062" lon="2.38435">
        <ele>226</ele>
        <time>2018-05-20T11:24:18Z</time>
      </trkpt>
      <trkpt lat="43.10068" lon="2.38358">
        <ele>225</ele>
        <time>2018-05-20T11:24:26Z</time>
      </trkpt>
      <trkpt lat="43.10059" lon="2.38287">
        <ele>222</ele>
        <time>2018-05-20T11:24:34Z</time>
      </trkpt>
      <trkpt lat="43.10061" lon="2.38185">
        <ele>220</ele>
        <time>2018-05-20T11:24:46Z</time>
      </trkpt>
      <trkpt lat="43.10057" lon="2.38152">
        <ele>220</ele>
        <time>2018-05-20T11:24:50Z</time>
      </trkpt>
      <trkpt lat="43.10056" lon="2.38089">
        <ele>220</ele>
        <time>2018-05-20T11:24:58Z</time>
      </trkpt>
      <trkpt lat="43.10051" lon="2.38015">
        <ele>218</ele>
        <time>2018-05-20T11:25:08Z</time>
      </trkpt>
      <trkpt lat="43.10046" lon="2.37985">
        <ele>217</ele>
        <time>2018-05-20T11:25:13Z</time>
      </trkpt>
      <trkpt lat="43.1" lon="2.37966">
        <ele>216</ele>
        <time>2018-05-20T11:25:20Z</time>
      </trkpt>
      <trkpt lat="43.09974" lon="2.37954">
        <ele>216</ele>
        <time>2018-05-20T11:25:26Z</time>
      </trkpt>
      <trkpt lat="43.0995" lon="2.37948">
        <ele>216</ele>
        <time>2018-05-20T11:25:32Z</time>
      </trkpt>
      <trkpt lat="43.09926" lon="2.3795">
        <ele>215</ele>
        <time>2018-05-20T11:25:40Z</time>
      </trkpt>
      <trkpt lat="43.09891" lon="2.38081">
        <ele>215</ele>
        <time>2018-05-20T11:26:12Z</time>
      </trkpt>
      <trkpt lat="43.09869" lon="2.38139">
        <ele>215</ele>
        <time>2018-05-20T11:26:25Z</time>
      </trkpt>
      <trkpt lat="43.09811" lon="2.3824">
        <ele>214</ele>
        <time>2018-05-20T11:26:55Z</time>
      </trkpt>
      <trkpt lat="43.09792" lon="2.38264">
        <ele>214</ele>
        <time>2018-05-20T11:27:03Z</time>
      </trkpt>
      <trkpt lat="43.09771" lon="2.38273">
        <ele>214</ele>
        <time>2018-05-20T11:27:10Z</time>
      </trkpt>
      <trkpt lat="43.09745" lon="2.38275">
        <ele>215</ele>
        <time>2018-05-20T11:27:18Z</time>
      </trkpt>
      <trkpt lat="43.09632" lon="2.38212">
        <ele>218</ele>
        <time>2018-05-20T11:27:52Z</time>
      </trkpt>
      <trkpt lat="43.0951" lon="2.3817">
        <ele>217</ele>
        <time>2018-05-20T11:28:25Z</time>
      </trkpt>
      <trkpt lat="43.09485" lon="2.38161">
        <ele>217</ele>
        <time>2018-05-20T11:28:32Z</time>
      </trkpt>
      <trkpt lat="43.09465" lon="2.38147">
        <ele>217</ele>
        <time>2018-05-20T11:28:37Z</time>
      </trkpt>
      <trkpt lat="43.09453" lon="2.3812">
        <ele>218</ele>
        <time>2018-05-20T11:28:44Z</time>
      </trkpt>
      <trkpt lat="43.09446" lon="2.38057">
        <ele>220</ele>
        <time>2018-05-20T11:28:55Z</time>
      </trkpt>
      <trkpt lat="43.09452" lon="2.3799">
        <ele>221</ele>
        <time>2018-05-20T11:29:05Z</time>
      </trkpt>
      <trkpt lat="43.0945" lon="2.37956">
        <ele>221</ele>
        <time>2018-05-20T11:29:10Z</time>
      </trkpt>
      <trkpt lat="43.09424" lon="2.37893">
        <ele>222</ele>
        <time>2018-05-20T11:29:19Z</time>
      </trkpt>
      <trkpt lat="43.09404" lon="2.37875">
        <ele>222</ele>
        <time>2018-05-20T11:29:23Z</time>
      </trkpt>
      <trkpt lat="43.09377" lon="2.37871">
        <ele>222</ele>
        <time>2018-05-20T11:29:27Z</time>
      </trkpt>
      <trkpt lat="43.09351" lon="2.37868">
        <ele>222</ele>
        <time>2018-05-20T11:29:31Z</time>
      </trkpt>
      <trkpt lat="43.09267" lon="2.37933">
        <ele>221</ele>
        <time>2018-05-20T11:29:51Z</time>
      </trkpt>
      <trkpt lat="43.09243" lon="2.37938">
        <ele>220</ele>
        <time>2018-05-20T11:30:01Z</time>
      </trkpt>
      <trkpt lat="43.09176" lon="2.37973">
        <ele>223</ele>
        <time>2018-05-20T11:30:33Z</time>
      </trkpt>
      <trkpt lat="43.09152" lon="2.37971">
        <ele>224</ele>
        <time>2018-05-20T11:30:44Z</time>
      </trkpt>
      <trkpt lat="43.09068" lon="2.37902">
        <ele>226</ele>
        <time>2018-05-20T11:31:11Z</time>
      </trkpt>
      <trkpt lat="43.09051" lon="2.3788">
        <ele>227</ele>
        <time>2018-05-20T11:31:17Z</time>
      </trkpt>
      <trkpt lat="43.09035" lon="2.37814">
        <ele>228</ele>
        <time>2018-05-20T11:31:31Z</time>
      </trkpt>
      <trkpt lat="43.09021" lon="2.37786">
        <ele>229</ele>
        <time>2018-05-20T11:31:38Z</time>
      </trkpt>
      <trkpt lat="43.09" lon="2.37768">
        <ele>229</ele>
        <time>2018-05-20T11:31:45Z</time>
      </trkpt>
      <trkpt lat="43.08884" lon="2.37788">
        <ele>231</ele>
        <time>2018-05-20T11:32:20Z</time>
      </trkpt>
      <trkpt lat="43.08838" lon="2.37798">
        <ele>233</ele>
        <time>2018-05-20T11:32:36Z</time>
      </trkpt>
      <trkpt lat="43.08767" lon="2.3782">
        <ele>231</ele>
        <time>2018-05-20T11:32:53Z</time>
      </trkpt>
      <trkpt lat="43.08744" lon="2.37823">
        <ele>231</ele>
        <time>2018-05-20T11:32:59Z</time>
      </trkpt>
      <trkpt lat="43.08722" lon="2.37815">
        <ele>232</ele>
        <time>2018-05-20T11:33:06Z</time>
      </trkpt>
      <trkpt lat="43.08703" lon="2.37796">
        <ele>232</ele>
        <time>2018-05-20T11:33:14Z</time>
      </trkpt>
      <trkpt lat="43.08691" lon="2.37767">
        <ele>233</ele>
        <time>2018-05-20T11:33:23Z</time>
      </trkpt>
      <trkpt lat="43.0868" lon="2.37705">
        <ele>235</ele>
        <time>2018-05-20T11:33:39Z</time>
      </trkpt>
      <trkpt lat="43.08671" lon="2.37676">
        <ele>237</ele>
        <time>2018-05-20T11:33:47Z</time>
      </trkpt>
      <trkpt lat="43.08627" lon="2.37662">
        <ele>240</ele>
        <time>2018-05-20T11:34:05Z</time>
      </trkpt>
      <trkpt lat="43.08605" lon="2.37662">
        <ele>241</ele>
        <time>2018-05-20T11:34:14Z</time>
      </trkpt>
      <trkpt lat="43.0858" lon="2.37668">
        <ele>241</ele>
        <time>2018-05-20T11:34:22Z</time>
      </trkpt>
      <trkpt lat="43.08561" lon="2.37688">
        <ele>240</ele>
        <time>2018-05-20T11:34:30Z</time>
      </trkpt>
      <trkpt lat="43.08537" lon="2.37687">
        <ele>240</ele>
        <time>2018-05-20T11:34:38Z</time>
      </trkpt>
      <trkpt lat="43.08521" lon="2.37662">
        <ele>240</ele>
        <time>2018-05-20T11:34:46Z</time>
      </trkpt>
      <trkpt lat="43.08501" lon="2.37641">
        <ele>240</ele>
        <time>2018-05-20T11:34:54Z</time>
      </trkpt>
      <trkpt lat="43.08476" lon="2.37637">
        <ele>241</ele>
        <time>2018-05-20T11:35:02Z</time>
      </trkpt>
      <trkpt lat="43.08455" lon="2.37657">
        <ele>240</ele>
        <time>2018-05-20T11:35:10Z</time>
      </trkpt>
      <trkpt lat="43.08431" lon="2.37647">
        <ele>241</ele>
        <time>2018-05-20T11:35:18Z</time>
      </trkpt>
      <trkpt lat="43.08413" lon="2.37622">
        <ele>241</ele>
        <time>2018-05-20T11:35:26Z</time>
      </trkpt>
      <trkpt lat="43.08392" lon="2.37611">
        <ele>241</ele>
        <time>2018-05-20T11:35:33Z</time>
      </trkpt>
      <trkpt lat="43.08369" lon="2.37608">
        <ele>241</ele>
        <time>2018-05-20T11:35:40Z</time>
      </trkpt>
      <trkpt lat="43.08328" lon="2.37645">
        <ele>242</ele>
        <time>2018-05-20T11:35:54Z</time>
      </trkpt>
      <trkpt lat="43.08305" lon="2.3765">
        <ele>242</ele>
        <time>2018-05-20T11:36:01Z</time>
      </trkpt>
      <trkpt lat="43.08286" lon="2.37631">
        <ele>243</ele>
        <time>2018-05-20T11:36:08Z</time>
      </trkpt>
      <trkpt lat="43.08244" lon="2.37603">
        <ele>243</ele>
        <time>2018-05-20T11:36:22Z</time>
      </trkpt>
      <trkpt lat="43.08207" lon="2.37563">
        <ele>244</ele>
        <time>2018-05-20T11:36:36Z</time>
      </trkpt>
      <trkpt lat="43.08157" lon="2.37547">
        <ele>246</ele>
        <time>2018-05-20T11:36:50Z</time>
      </trkpt>
      <trkpt lat="43.08132" lon="2.37543">
        <ele>246</ele>
        <time>2018-05-20T11:36:57Z</time>
      </trkpt>
      <trkpt lat="43.08044" lon="2.37587">
        <ele>250</ele>
        <time>2018-05-20T11:37:27Z</time>
      </trkpt>
      <trkpt lat="43.07957" lon="2.37652">
        <ele>252</ele>
        <time>2018-05-20T11:38:03Z</time>
      </trkpt>
      <trkpt lat="43.07935" lon="2.37667">
        <ele>252</ele>
        <time>2018-05-20T11:38:12Z</time>
      </trkpt>
      <trkpt lat="43.07912" lon="2.37669">
        <ele>253</ele>
        <time>2018-05-20T11:38:20Z</time>
      </trkpt>
      <trkpt lat="43.0789" lon="2.37651">
        <ele>254</ele>
        <time>2018-05-20T11:38:29Z</time>
      </trkpt>
      <trkpt lat="43.07867" lon="2.37645">
        <ele>255</ele>
        <time>2018-05-20T11:38:38Z</time>
      </trkpt>
      <trkpt lat="43.07823" lon="2.37663">
        <ele>257</ele>
        <time>2018-05-20T11:38:56Z</time>
      </trkpt>
      <trkpt lat="43.07805" lon="2.37683">
        <ele>258</ele>
        <time>2018-05-20T11:39:05Z</time>
      </trkpt>
      <trkpt lat="43.078" lon="2.37713">
        <ele>257</ele>
        <time>2018-05-20T11:39:14Z</time>
      </trkpt>
      <trkpt lat="43.07794" lon="2.37744">
        <ele>258</ele>
        <time>2018-05-20T11:39:24Z</time>
      </trkpt>
      <trkpt lat="43.07764" lon="2.37796">
        <ele>258</ele>
        <time>2018-05-20T11:39:40Z</time>
      </trkpt>
      <trkpt lat="43.0774" lon="2.3785">
        <ele>256</ele>
        <time>2018-05-20T11:39:50Z</time>
      </trkpt>
      <trkpt lat="43.07725" lon="2.3788">
        <ele>255</ele>
        <time>2018-05-20T11:39:55Z</time>
      </trkpt>
      <trkpt lat="43.07699" lon="2.37884">
        <ele>255</ele>
        <time>2018-05-20T11:40:00Z</time>
      </trkpt>
      <trkpt lat="43.07699" lon="2.37888">
        <ele>257</ele>
        <time>2018-05-20T11:40:22Z</time>
      </trkpt>
      <trkpt lat="43.07705" lon="2.37891">
        <ele>255</ele>
        <time>2018-05-20T11:41:56Z</time>
      </trkpt>
      <trkpt lat="43.07683" lon="2.37876">
        <ele>256</ele>
        <time>2018-05-20T11:42:12Z</time>
      </trkpt>
      <trkpt lat="43.07657" lon="2.37818">
        <ele>256</ele>
        <time>2018-05-20T11:42:29Z</time>
      </trkpt>
      <trkpt lat="43.07653" lon="2.37788">
        <ele>257</ele>
        <time>2018-05-20T11:42:36Z</time>
      </trkpt>
      <trkpt lat="43.07658" lon="2.37755">
        <ele>258</ele>
        <time>2018-05-20T11:42:44Z</time>
      </trkpt>
      <trkpt lat="43.07657" lon="2.37724">
        <ele>260</ele>
        <time>2018-05-20T11:42:52Z</time>
      </trkpt>
      <trkpt lat="43.07643" lon="2.37698">
        <ele>261</ele>
        <time>2018-05-20T11:42:58Z</time>
      </trkpt>
      <trkpt lat="43.07601" lon="2.3766">
        <ele>261</ele>
        <time>2018-05-20T11:43:08Z</time>
      </trkpt>
      <trkpt lat="43.07556" lon="2.37637">
        <ele>262</ele>
        <time>2018-05-20T11:43:16Z</time>
      </trkpt>
      <trkpt lat="43.07455" lon="2.37651">
        <ele>261</ele>
        <time>2018-05-20T11:43:34Z</time>
      </trkpt>
      <trkpt lat="43.07314" lon="2.37584">
        <ele>264</ele>
        <time>2018-05-20T11:44:07Z</time>
      </trkpt>
      <trkpt lat="43.0729" lon="2.37574">
        <ele>265</ele>
        <time>2018-05-20T11:44:13Z</time>
      </trkpt>
      <trkpt lat="43.07243" lon="2.37594">
        <ele>267</ele>
        <time>2018-05-20T11:44:26Z</time>
      </trkpt>
      <trkpt lat="43.07218" lon="2.37599">
        <ele>267</ele>
        <time>2018-05-20T11:44:32Z</time>
      </trkpt>
      <trkpt lat="43.07192" lon="2.37598">
        <ele>267</ele>
        <time>2018-05-20T11:44:38Z</time>
      </trkpt>
      <trkpt lat="43.07173" lon="2.37581">
        <ele>267</ele>
        <time>2018-05-20T11:44:44Z</time>
      </trkpt>
      <trkpt lat="43.07155" lon="2.37558">
        <ele>268</ele>
        <time>2018-05-20T11:44:51Z</time>
      </trkpt>
      <trkpt lat="43.07065" lon="2.37522">
        <ele>271</ele>
        <time>2018-05-20T11:45:23Z</time>
      </trkpt>
      <trkpt lat="43.07043" lon="2.37513">
        <ele>272</ele>
        <time>2018-05-20T11:45:32Z</time>
      </trkpt>
      <trkpt lat="43.06948" lon="2.37514">
        <ele>274</ele>
        <time>2018-05-20T11:46:06Z</time>
      </trkpt>
      <trkpt lat="43.06925" lon="2.37513">
        <ele>275</ele>
        <time>2018-05-20T11:46:14Z</time>
      </trkpt>
      <trkpt lat="43.06902" lon="2.37514">
        <ele>278</ele>
        <time>2018-05-20T11:46:23Z</time>
      </trkpt>
      <trkpt lat="43.06878" lon="2.37516">
        <ele>279</ele>
        <time>2018-05-20T11:46:32Z</time>
      </trkpt>
      <trkpt lat="43.06856" lon="2.37508">
        <ele>280</ele>
        <time>2018-05-20T11:46:40Z</time>
      </trkpt>
      <trkpt lat="43.06788" lon="2.37539">
        <ele>284</ele>
        <time>2018-05-20T11:47:09Z</time>
      </trkpt>
      <trkpt lat="43.06751" lon="2.37576">
        <ele>287</ele>
        <time>2018-05-20T11:47:28Z</time>
      </trkpt>
      <trkpt lat="43.06731" lon="2.37592">
        <ele>289</ele>
        <time>2018-05-20T11:47:38Z</time>
      </trkpt>
      <trkpt lat="43.06711" lon="2.3761">
        <ele>291</ele>
        <time>2018-05-20T11:47:48Z</time>
      </trkpt>
      <trkpt lat="43.06695" lon="2.37671">
        <ele>295</ele>
        <time>2018-05-20T11:48:06Z</time>
      </trkpt>
      <trkpt lat="43.06682" lon="2.37701">
        <ele>296</ele>
        <time>2018-05-20T11:48:20Z</time>
      </trkpt>
      <trkpt lat="43.06675" lon="2.37732">
        <ele>297</ele>
        <time>2018-05-20T11:48:29Z</time>
      </trkpt>
      <trkpt lat="43.06666" lon="2.3776">
        <ele>297</ele>
        <time>2018-05-20T11:48:38Z</time>
      </trkpt>
      <trkpt lat="43.06646" lon="2.37781">
        <ele>296</ele>
        <time>2018-05-20T11:48:47Z</time>
      </trkpt>
      <trkpt lat="43.06624" lon="2.37796">
        <ele>297</ele>
        <time>2018-05-20T11:48:57Z</time>
      </trkpt>
      <trkpt lat="43.0659" lon="2.3784">
        <ele>298</ele>
        <time>2018-05-20T11:49:13Z</time>
      </trkpt>
      <trkpt lat="43.0657" lon="2.37898">
        <ele>300</ele>
        <time>2018-05-20T11:49:33Z</time>
      </trkpt>
      <trkpt lat="43.06538" lon="2.37946">
        <ele>299</ele>
        <time>2018-05-20T11:49:58Z</time>
      </trkpt>
      <trkpt lat="43.06523" lon="2.37972">
        <ele>299</ele>
        <time>2018-05-20T11:50:07Z</time>
      </trkpt>
      <trkpt lat="43.06506" lon="2.37994">
        <ele>302</ele>
        <time>2018-05-20T11:51:11Z</time>
      </trkpt>
      <trkpt lat="43.06491" lon="2.3802">
        <ele>310</ele>
        <time>2018-05-20T11:51:23Z</time>
      </trkpt>
      <trkpt lat="43.06477" lon="2.38046">
        <ele>310</ele>
        <time>2018-05-20T11:51:33Z</time>
      </trkpt>
      <trkpt lat="43.06456" lon="2.38058">
        <ele>311</ele>
        <time>2018-05-20T11:51:39Z</time>
      </trkpt>
      <trkpt lat="43.06411" lon="2.3809">
        <ele>311</ele>
        <time>2018-05-20T11:51:49Z</time>
      </trkpt>
      <trkpt lat="43.06396" lon="2.38114">
        <ele>311</ele>
        <time>2018-05-20T11:51:54Z</time>
      </trkpt>
      <trkpt lat="43.06376" lon="2.3813">
        <ele>312</ele>
        <time>2018-05-20T11:52:00Z</time>
      </trkpt>
      <trkpt lat="43.06366" lon="2.38159">
        <ele>319</ele>
        <time>2018-05-20T11:53:46Z</time>
      </trkpt>
      <trkpt lat="43.06353" lon="2.38185">
        <ele>315</ele>
        <time>2018-05-20T11:53:52Z</time>
      </trkpt>
      <trkpt lat="43.06344" lon="2.38213">
        <ele>312</ele>
        <time>2018-05-20T11:54:00Z</time>
      </trkpt>
      <trkpt lat="43.06334" lon="2.38278">
        <ele>312</ele>
        <time>2018-05-20T11:54:18Z</time>
      </trkpt>
      <trkpt lat="43.06327" lon="2.38309">
        <ele>313</ele>
        <time>2018-05-20T11:54:27Z</time>
      </trkpt>
      <trkpt lat="43.06315" lon="2.38338">
        <ele>311</ele>
        <time>2018-05-20T11:54:36Z</time>
      </trkpt>
      <trkpt lat="43.06297" lon="2.38431">
        <ele>311</ele>
        <time>2018-05-20T11:55:00Z</time>
      </trkpt>
      <trkpt lat="43.06301" lon="2.38462">
        <ele>313</ele>
        <time>2018-05-20T11:55:08Z</time>
      </trkpt>
      <trkpt lat="43.06314" lon="2.38489">
        <ele>315</ele>
        <time>2018-05-20T11:55:17Z</time>
      </trkpt>
      <trkpt lat="43.06322" lon="2.38518">
        <ele>315</ele>
        <time>2018-05-20T11:55:27Z</time>
      </trkpt>
      <trkpt lat="43.06322" lon="2.38549">
        <ele>317</ele>
        <time>2018-05-20T11:55:35Z</time>
      </trkpt>
      <trkpt lat="43.06316" lon="2.38581">
        <ele>318</ele>
        <time>2018-05-20T11:55:46Z</time>
      </trkpt>
      <trkpt lat="43.06306" lon="2.38612">
        <ele>317</ele>
        <time>2018-05-20T11:55:54Z</time>
      </trkpt>
      <trkpt lat="43.06302" lon="2.38645">
        <ele>317</ele>
        <time>2018-05-20T11:56:04Z</time>
      </trkpt>
      <trkpt lat="43.06281" lon="2.38772">
        <ele>320</ele>
        <time>2018-05-20T11:56:45Z</time>
      </trkpt>
      <trkpt lat="43.0627" lon="2.38801">
        <ele>321</ele>
        <time>2018-05-20T11:56:55Z</time>
      </trkpt>
      <trkpt lat="43.06223" lon="2.38877">
        <ele>319</ele>
        <time>2018-05-20T11:57:18Z</time>
      </trkpt>
      <trkpt lat="43.06207" lon="2.38902">
        <ele>319</ele>
        <time>2018-05-20T11:57:25Z</time>
      </trkpt>
      <trkpt lat="43.06184" lon="2.38906">
        <ele>320</ele>
        <time>2018-05-20T11:57:54Z</time>
      </trkpt>
      <trkpt lat="43.06162" lon="2.38924">
        <ele>321</ele>
        <time>2018-05-20T11:58:00Z</time>
      </trkpt>
      <trkpt lat="43.0615" lon="2.3895">
        <ele>321</ele>
        <time>2018-05-20T11:58:04Z</time>
      </trkpt>
      <trkpt lat="43.06115" lon="2.39052">
        <ele>317</ele>
        <time>2018-05-20T11:58:19Z</time>
      </trkpt>
      <trkpt lat="43.06107" lon="2.39082">
        <ele>316</ele>
        <time>2018-05-20T11:58:23Z</time>
      </trkpt>
      <trkpt lat="43.06099" lon="2.39115">
        <ele>316</ele>
        <time>2018-05-20T11:58:28Z</time>
      </trkpt>
      <trkpt lat="43.06082" lon="2.39139">
        <ele>315</ele>
        <time>2018-05-20T11:58:31Z</time>
      </trkpt>
      <trkpt lat="43.06074" lon="2.392">
        <ele>315</ele>
        <time>2018-05-20T11:58:43Z</time>
      </trkpt>
      <trkpt lat="43.06076" lon="2.39232">
        <ele>316</ele>
        <time>2018-05-20T11:58:50Z</time>
      </trkpt>
      <trkpt lat="43.06071" lon="2.3927">
        <ele>315</ele>
        <time>2018-05-20T11:58:58Z</time>
      </trkpt>
      <trkpt lat="43.06083" lon="2.39296">
        <ele>315</ele>
        <time>2018-05-20T11:59:06Z</time>
      </trkpt>
      <trkpt lat="43.06113" lon="2.39348">
        <ele>315</ele>
        <time>2018-05-20T11:59:25Z</time>
      </trkpt>
      <trkpt lat="43.06147" lon="2.39435">
        <ele>324</ele>
        <time>2018-05-20T11:59:57Z</time>
      </trkpt>
      <trkpt lat="43.06181" lon="2.39476">
        <ele>333</ele>
        <time>2018-05-20T12:00:22Z</time>
      </trkpt>
      <trkpt lat="43.062" lon="2.39536">
        <ele>337</ele>
        <time>2018-05-20T12:00:51Z</time>
      </trkpt>
      <trkpt lat="43.06215" lon="2.3956">
        <ele>336</ele>
        <time>2018-05-20T12:01:03Z</time>
      </trkpt>
      <trkpt lat="43.06232" lon="2.39622">
        <ele>336</ele>
        <time>2018-05-20T12:01:17Z</time>
      </trkpt>
      <trkpt lat="43.0623" lon="2.39657">
        <ele>335</ele>
        <time>2018-05-20T12:01:23Z</time>
      </trkpt>
      <trkpt lat="43.06213" lon="2.3972">
        <ele>333</ele>
        <time>2018-05-20T12:01:35Z</time>
      </trkpt>
      <trkpt lat="43.062" lon="2.3975">
        <ele>334</ele>
        <time>2018-05-20T12:01:42Z</time>
      </trkpt>
      <trkpt lat="43.06183" lon="2.39772">
        <ele>335</ele>
        <time>2018-05-20T12:01:49Z</time>
      </trkpt>
      <trkpt lat="43.06177" lon="2.39806">
        <ele>335</ele>
        <time>2018-05-20T12:01:57Z</time>
      </trkpt>
      <trkpt lat="43.06184" lon="2.39838">
        <ele>336</ele>
        <time>2018-05-20T12:02:04Z</time>
      </trkpt>
      <trkpt lat="43.06179" lon="2.39869">
        <ele>336</ele>
        <time>2018-05-20T12:02:11Z</time>
      </trkpt>
      <trkpt lat="43.06166" lon="2.39899">
        <ele>335</ele>
        <time>2018-05-20T12:02:18Z</time>
      </trkpt>
      <trkpt lat="43.06153" lon="2.39927">
        <ele>331</ele>
        <time>2018-05-20T12:02:25Z</time>
      </trkpt>
      <trkpt lat="43.06136" lon="2.3995">
        <ele>330</ele>
        <time>2018-05-20T12:02:32Z</time>
      </trkpt>
      <trkpt lat="43.06088" lon="2.39971">
        <ele>330</ele>
        <time>2018-05-20T12:02:46Z</time>
      </trkpt>
      <trkpt lat="43.06068" lon="2.3999">
        <ele>333</ele>
        <time>2018-05-20T12:02:53Z</time>
      </trkpt>
      <trkpt lat="43.06045" lon="2.40046">
        <ele>336</ele>
        <time>2018-05-20T12:03:07Z</time>
      </trkpt>
      <trkpt lat="43.06029" lon="2.40069">
        <ele>336</ele>
        <time>2018-05-20T12:03:14Z</time>
      </trkpt>
      <trkpt lat="43.06005" lon="2.40077">
        <ele>338</ele>
        <time>2018-05-20T12:03:22Z</time>
      </trkpt>
      <trkpt lat="43.05955" lon="2.40071">
        <ele>342</ele>
        <time>2018-05-20T12:03:38Z</time>
      </trkpt>
      <trkpt lat="43.05931" lon="2.40077">
        <ele>342</ele>
        <time>2018-05-20T12:03:48Z</time>
      </trkpt>
      <trkpt lat="43.05913" lon="2.40097">
        <ele>342</ele>
        <time>2018-05-20T12:03:56Z</time>
      </trkpt>
      <trkpt lat="43.05894" lon="2.40158">
        <ele>341</ele>
        <time>2018-05-20T12:04:11Z</time>
      </trkpt>
      <trkpt lat="43.0586" lon="2.40207">
        <ele>343</ele>
        <time>2018-05-20T12:04:26Z</time>
      </trkpt>
      <trkpt lat="43.05828" lon="2.40259">
        <ele>343</ele>
        <time>2018-05-20T12:04:38Z</time>
      </trkpt>
      <trkpt lat="43.05816" lon="2.40288">
        <ele>340</ele>
        <time>2018-05-20T12:04:42Z</time>
      </trkpt>
      <trkpt lat="43.05804" lon="2.40319">
        <ele>338</ele>
        <time>2018-05-20T12:04:47Z</time>
      </trkpt>
      <trkpt lat="43.058" lon="2.40383">
        <ele>335</ele>
        <time>2018-05-20T12:04:57Z</time>
      </trkpt>
      <trkpt lat="43.05786" lon="2.40449">
        <ele>332</ele>
        <time>2018-05-20T12:05:07Z</time>
      </trkpt>
      <trkpt lat="43.05776" lon="2.4051">
        <ele>333</ele>
        <time>2018-05-20T12:05:17Z</time>
      </trkpt>
      <trkpt lat="43.05768" lon="2.40539">
        <ele>335</ele>
        <time>2018-05-20T12:05:22Z</time>
      </trkpt>
      <trkpt lat="43.05745" lon="2.40634">
        <ele>335</ele>
        <time>2018-05-20T12:05:41Z</time>
      </trkpt>
      <trkpt lat="43.05734" lon="2.40663">
        <ele>335</ele>
        <time>2018-05-20T12:05:48Z</time>
      </trkpt>
      <trkpt lat="43.05715" lon="2.40685">
        <ele>334</ele>
        <time>2018-05-20T12:05:57Z</time>
      </trkpt>
      <trkpt lat="43.05702" lon="2.40713">
        <ele>334</ele>
        <time>2018-05-20T12:06:05Z</time>
      </trkpt>
      <trkpt lat="43.05699" lon="2.40744">
        <ele>336</ele>
        <time>2018-05-20T12:06:11Z</time>
      </trkpt>
      <trkpt lat="43.05689" lon="2.40774">
        <ele>337</ele>
        <time>2018-05-20T12:06:17Z</time>
      </trkpt>
      <trkpt lat="43.05673" lon="2.40802">
        <ele>335</ele>
        <time>2018-05-20T12:06:24Z</time>
      </trkpt>
      <trkpt lat="43.05656" lon="2.40823">
        <ele>334</ele>
        <time>2018-05-20T12:06:30Z</time>
      </trkpt>
      <trkpt lat="43.05614" lon="2.40856">
        <ele>335</ele>
        <time>2018-05-20T12:06:43Z</time>
      </trkpt>
      <trkpt lat="43.05597" lon="2.40881">
        <ele>336</ele>
        <time>2018-05-20T12:06:51Z</time>
      </trkpt>
      <trkpt lat="43.05607" lon="2.40948">
        <ele>339</ele>
        <time>2018-05-20T12:07:05Z</time>
      </trkpt>
      <trkpt lat="43.05608" lon="2.40983">
        <ele>341</ele>
        <time>2018-05-20T12:07:12Z</time>
      </trkpt>
      <trkpt lat="43.05592" lon="2.41007">
        <ele>341</ele>
        <time>2018-05-20T12:07:19Z</time>
      </trkpt>
      <trkpt lat="43.05527" lon="2.4105">
        <ele>344</ele>
        <time>2018-05-20T12:07:41Z</time>
      </trkpt>
      <trkpt lat="43.05516" lon="2.41112">
        <ele>345</ele>
        <time>2018-05-20T12:07:54Z</time>
      </trkpt>
      <trkpt lat="43.05487" lon="2.41162">
        <ele>345</ele>
        <time>2018-05-20T12:08:07Z</time>
      </trkpt>
      <trkpt lat="43.05421" lon="2.41208">
        <ele>346</ele>
        <time>2018-05-20T12:08:27Z</time>
      </trkpt>
      <trkpt lat="43.05344" lon="2.41283">
        <ele>348</ele>
        <time>2018-05-20T12:08:53Z</time>
      </trkpt>
      <trkpt lat="43.05331" lon="2.41346">
        <ele>347</ele>
        <time>2018-05-20T12:09:07Z</time>
      </trkpt>
      <trkpt lat="43.05276" lon="2.41461">
        <ele>347</ele>
        <time>2018-05-20T12:09:31Z</time>
      </trkpt>
      <trkpt lat="43.0526" lon="2.41486">
        <ele>347</ele>
        <time>2018-05-20T12:09:42Z</time>
      </trkpt>
      <trkpt lat="43.05165" lon="2.41512">
        <ele>350</ele>
        <time>2018-05-20T12:10:14Z</time>
      </trkpt>
      <trkpt lat="43.05142" lon="2.41521">
        <ele>351</ele>
        <time>2018-05-20T12:10:22Z</time>
      </trkpt>
      <trkpt lat="43.05119" lon="2.41513">
        <ele>353</ele>
        <time>2018-05-20T12:10:30Z</time>
      </trkpt>
      <trkpt lat="43.05074" lon="2.41492">
        <ele>358</ele>
        <time>2018-05-20T12:10:51Z</time>
      </trkpt>
      <trkpt lat="43.0498" lon="2.41521">
        <ele>359</ele>
        <time>2018-05-20T12:11:23Z</time>
      </trkpt>
      <trkpt lat="43.04957" lon="2.41522">
        <ele>360</ele>
        <time>2018-05-20T12:11:30Z</time>
      </trkpt>
      <trkpt lat="43.04935" lon="2.41535">
        <ele>359</ele>
        <time>2018-05-20T12:11:38Z</time>
      </trkpt>
      <trkpt lat="43.04922" lon="2.41567">
        <ele>358</ele>
        <time>2018-05-20T12:11:45Z</time>
      </trkpt>
      <trkpt lat="43.04884" lon="2.4161">
        <ele>356</ele>
        <time>2018-05-20T12:11:57Z</time>
      </trkpt>
      <trkpt lat="43.04871" lon="2.41639">
        <ele>355</ele>
        <time>2018-05-20T12:12:02Z</time>
      </trkpt>
      <trkpt lat="43.04874" lon="2.41671">
        <ele>355</ele>
        <time>2018-05-20T12:12:08Z</time>
      </trkpt>
      <trkpt lat="43.04848" lon="2.41761">
        <ele>355</ele>
        <time>2018-05-20T12:12:31Z</time>
      </trkpt>
      <trkpt lat="43.04827" lon="2.41853">
        <ele>360</ele>
        <time>2018-05-20T12:12:56Z</time>
      </trkpt>
      <trkpt lat="43.04763" lon="2.419">
        <ele>363</ele>
        <time>2018-05-20T12:13:22Z</time>
      </trkpt>
      <trkpt lat="43.04744" lon="2.41918">
        <ele>362</ele>
        <time>2018-05-20T12:13:32Z</time>
      </trkpt>
      <trkpt lat="43.04719" lon="2.41977">
        <ele>362</ele>
        <time>2018-05-20T12:13:47Z</time>
      </trkpt>
      <trkpt lat="43.04676" lon="2.42015">
        <ele>363</ele>
        <time>2018-05-20T12:13:59Z</time>
      </trkpt>
      <trkpt lat="43.0464" lon="2.42065">
        <ele>363</ele>
        <time>2018-05-20T12:14:09Z</time>
      </trkpt>
      <trkpt lat="43.04618" lon="2.42083">
        <ele>364</ele>
        <time>2018-05-20T12:14:15Z</time>
      </trkpt>
      <trkpt lat="43.04586" lon="2.42082">
        <ele>365</ele>
        <time>2018-05-20T12:14:20Z</time>
      </trkpt>
      <trkpt lat="43.04546" lon="2.4213">
        <ele>364</ele>
        <time>2018-05-20T12:14:30Z</time>
      </trkpt>
      <trkpt lat="43.04524" lon="2.42141">
        <ele>363</ele>
        <time>2018-05-20T12:14:35Z</time>
      </trkpt>
      <trkpt lat="43.04499" lon="2.42133">
        <ele>364</ele>
        <time>2018-05-20T12:14:41Z</time>
      </trkpt>
      <trkpt lat="43.04482" lon="2.42107">
        <ele>363</ele>
        <time>2018-05-20T12:14:48Z</time>
      </trkpt>
      <trkpt lat="43.04494" lon="2.42077">
        <ele>353</ele>
        <time>2018-05-20T12:19:24Z</time>
      </trkpt>
      <trkpt lat="43.04453" lon="2.42042">
        <ele>359</ele>
        <time>2018-05-20T12:19:45Z</time>
      </trkpt>
      <trkpt lat="43.04385" lon="2.42015">
        <ele>366</ele>
        <time>2018-05-20T12:20:07Z</time>
      </trkpt>
      <trkpt lat="43.04291" lon="2.4202">
        <ele>371</ele>
        <time>2018-05-20T12:20:40Z</time>
      </trkpt>
      <trkpt lat="43.04245" lon="2.42006">
        <ele>370</ele>
        <time>2018-05-20T12:20:57Z</time>
      </trkpt>
      <trkpt lat="43.0422" lon="2.42002">
        <ele>373</ele>
        <time>2018-05-20T12:21:06Z</time>
      </trkpt>
      <trkpt lat="43.04127" lon="2.42028">
        <ele>375</ele>
        <time>2018-05-20T12:21:43Z</time>
      </trkpt>
      <trkpt lat="43.04104" lon="2.42035">
        <ele>373</ele>
        <time>2018-05-20T12:21:50Z</time>
      </trkpt>
      <trkpt lat="43.04081" lon="2.42046">
        <ele>373</ele>
        <time>2018-05-20T12:21:59Z</time>
      </trkpt>
      <trkpt lat="43.0401" lon="2.42043">
        <ele>373</ele>
        <time>2018-05-20T12:22:23Z</time>
      </trkpt>
      <trkpt lat="43.03986" lon="2.42038">
        <ele>372</ele>
        <time>2018-05-20T12:22:32Z</time>
      </trkpt>
      <trkpt lat="43.03943" lon="2.42006">
        <ele>371</ele>
        <time>2018-05-20T12:22:49Z</time>
      </trkpt>
      <trkpt lat="43.03926" lon="2.41985">
        <ele>370</ele>
        <time>2018-05-20T12:22:58Z</time>
      </trkpt>
      <trkpt lat="43.03931" lon="2.41922">
        <ele>376</ele>
        <time>2018-05-20T12:23:15Z</time>
      </trkpt>
      <trkpt lat="43.03935" lon="2.41889">
        <ele>376</ele>
        <time>2018-05-20T12:23:23Z</time>
      </trkpt>
      <trkpt lat="43.03933" lon="2.41858">
        <ele>376</ele>
        <time>2018-05-20T12:23:31Z</time>
      </trkpt>
      <trkpt lat="43.03895" lon="2.41814">
        <ele>378</ele>
        <time>2018-05-20T12:23:49Z</time>
      </trkpt>
      <trkpt lat="43.03875" lon="2.41796">
        <ele>378</ele>
        <time>2018-05-20T12:23:56Z</time>
      </trkpt>
      <trkpt lat="43.03852" lon="2.41785">
        <ele>378</ele>
        <time>2018-05-20T12:24:08Z</time>
      </trkpt>
      <trkpt lat="43.03831" lon="2.41799">
        <ele>377</ele>
        <time>2018-05-20T12:24:18Z</time>
      </trkpt>
      <trkpt lat="43.03817" lon="2.41826">
        <ele>377</ele>
        <time>2018-05-20T12:24:27Z</time>
      </trkpt>
      <trkpt lat="43.03818" lon="2.41857">
        <ele>380</ele>
        <time>2018-05-20T12:24:36Z</time>
      </trkpt>
      <trkpt lat="43.03805" lon="2.41885">
        <ele>382</ele>
        <time>2018-05-20T12:24:45Z</time>
      </trkpt>
      <trkpt lat="43.03782" lon="2.41888">
        <ele>384</ele>
        <time>2018-05-20T12:24:53Z</time>
      </trkpt>
      <trkpt lat="43.03734" lon="2.41888">
        <ele>385</ele>
        <time>2018-05-20T12:25:10Z</time>
      </trkpt>
      <trkpt lat="43.03713" lon="2.41873">
        <ele>384</ele>
        <time>2018-05-20T12:25:21Z</time>
      </trkpt>
      <trkpt lat="43.03708" lon="2.4184">
        <ele>382</ele>
        <time>2018-05-20T12:25:30Z</time>
      </trkpt>
      <trkpt lat="43.03706" lon="2.41806">
        <ele>381</ele>
        <time>2018-05-20T12:25:39Z</time>
      </trkpt>
      <trkpt lat="43.03704" lon="2.41772">
        <ele>382</ele>
        <time>2018-05-20T12:25:48Z</time>
      </trkpt>
      <trkpt lat="43.03737" lon="2.41686">
        <ele>381</ele>
        <time>2018-05-20T12:26:13Z</time>
      </trkpt>
      <trkpt lat="43.03736" lon="2.41653">
        <ele>381</ele>
        <time>2018-05-20T12:26:22Z</time>
      </trkpt>
      <trkpt lat="43.03726" lon="2.41623">
        <ele>382</ele>
        <time>2018-05-20T12:26:30Z</time>
      </trkpt>
      <trkpt lat="43.03706" lon="2.41602">
        <ele>383</ele>
        <time>2018-05-20T12:26:39Z</time>
      </trkpt>
      <trkpt lat="43.03687" lon="2.41583">
        <ele>384</ele>
        <time>2018-05-20T12:26:47Z</time>
      </trkpt>
      <trkpt lat="43.03617" lon="2.41567">
        <ele>390</ele>
        <time>2018-05-20T12:27:14Z</time>
      </trkpt>
      <trkpt lat="43.03595" lon="2.41573">
        <ele>393</ele>
        <time>2018-05-20T12:27:23Z</time>
      </trkpt>
      <trkpt lat="43.03577" lon="2.41551">
        <ele>394</ele>
        <time>2018-05-20T12:27:33Z</time>
      </trkpt>
      <trkpt lat="43.03559" lon="2.41532">
        <ele>394</ele>
        <time>2018-05-20T12:27:43Z</time>
      </trkpt>
      <trkpt lat="43.03536" lon="2.41528">
        <ele>394</ele>
        <time>2018-05-20T12:27:51Z</time>
      </trkpt>
      <trkpt lat="43.0344" lon="2.41508">
        <ele>401</ele>
        <time>2018-05-20T12:28:28Z</time>
      </trkpt>
      <trkpt lat="43.03417" lon="2.41504">
        <ele>405</ele>
        <time>2018-05-20T12:28:38Z</time>
      </trkpt>
      <trkpt lat="43.03349" lon="2.41468">
        <ele>409</ele>
        <time>2018-05-20T12:29:11Z</time>
      </trkpt>
      <trkpt lat="43.03301" lon="2.41469">
        <ele>410</ele>
        <time>2018-05-20T12:29:35Z</time>
      </trkpt>
      <trkpt lat="43.0323" lon="2.41485">
        <ele>416</ele>
        <time>2018-05-20T12:30:05Z</time>
      </trkpt>
      <trkpt lat="43.03207" lon="2.41493">
        <ele>418</ele>
        <time>2018-05-20T12:30:18Z</time>
      </trkpt>
      <trkpt lat="43.03184" lon="2.41503">
        <ele>417</ele>
        <time>2018-05-20T12:30:29Z</time>
      </trkpt>
      <trkpt lat="43.03163" lon="2.41516">
        <ele>418</ele>
        <time>2018-05-20T12:30:42Z</time>
      </trkpt>
      <trkpt lat="43.03094" lon="2.41543">
        <ele>416</ele>
        <time>2018-05-20T12:31:13Z</time>
      </trkpt>
      <trkpt lat="43.03073" lon="2.41556">
        <ele>416</ele>
        <time>2018-05-20T12:31:21Z</time>
      </trkpt>
      <trkpt lat="43.0305" lon="2.41563">
        <ele>418</ele>
        <time>2018-05-20T12:31:33Z</time>
      </trkpt>
      <trkpt lat="43.03028" lon="2.41554">
        <ele>422</ele>
        <time>2018-05-20T12:31:49Z</time>
      </trkpt>
      <trkpt lat="43.03028" lon="2.41523">
        <ele>436</ele>
        <time>2018-05-20T12:36:48Z</time>
      </trkpt>
      <trkpt lat="43.03014" lon="2.41498">
        <ele>431</ele>
        <time>2018-05-20T12:37:04Z</time>
      </trkpt>
      <trkpt lat="43.03007" lon="2.41467">
        <ele>434</ele>
        <time>2018-05-20T12:37:22Z</time>
      </trkpt>
      <trkpt lat="43.03" lon="2.41437">
        <ele>434</ele>
        <time>2018-05-20T12:37:36Z</time>
      </trkpt>
      <trkpt lat="43.02985" lon="2.41412">
        <ele>434</ele>
        <time>2018-05-20T12:37:51Z</time>
      </trkpt>
      <trkpt lat="43.02981" lon="2.4138">
        <ele>435</ele>
        <time>2018-05-20T12:38:06Z</time>
      </trkpt>
      <trkpt lat="43.02972" lon="2.41352">
        <ele>437</ele>
        <time>2018-05-20T12:38:20Z</time>
      </trkpt>
      <trkpt lat="43.02956" lon="2.41326">
        <ele>441</ele>
        <time>2018-05-20T12:38:33Z</time>
      </trkpt>
      <trkpt lat="43.02938" lon="2.41268">
        <ele>445</ele>
        <time>2018-05-20T12:39:03Z</time>
      </trkpt>
      <trkpt lat="43.02929" lon="2.41237">
        <ele>444</ele>
        <time>2018-05-20T12:39:19Z</time>
      </trkpt>
      <trkpt lat="43.0291" lon="2.41179">
        <ele>445</ele>
        <time>2018-05-20T12:39:50Z</time>
      </trkpt>
      <trkpt lat="43.02886" lon="2.41125">
        <ele>451</ele>
        <time>2018-05-20T12:40:22Z</time>
      </trkpt>
      <trkpt lat="43.02834" lon="2.41059">
        <ele>465</ele>
        <time>2018-05-20T12:41:04Z</time>
      </trkpt>
      <trkpt lat="43.02798" lon="2.41018">
        <ele>468</ele>
        <time>2018-05-20T12:41:30Z</time>
      </trkpt>
      <trkpt lat="43.02776" lon="2.41007">
        <ele>467</ele>
        <time>2018-05-20T12:41:44Z</time>
      </trkpt>
      <trkpt lat="43.0273" lon="2.41011">
        <ele>468</ele>
        <time>2018-05-20T12:42:14Z</time>
      </trkpt>
      <trkpt lat="43.02671" lon="2.41061">
        <ele>471</ele>
        <time>2018-05-20T12:42:53Z</time>
      </trkpt>
      <trkpt lat="43.02649" lon="2.41074">
        <ele>473</ele>
        <time>2018-05-20T12:43:07Z</time>
      </trkpt>
      <trkpt lat="43.02625" lon="2.41073">
        <ele>475</ele>
        <time>2018-05-20T12:43:17Z</time>
      </trkpt>
      <trkpt lat="43.02603" lon="2.41063">
        <ele>477</ele>
        <time>2018-05-20T12:43:34Z</time>
      </trkpt>
      <trkpt lat="43.0261" lon="2.41033">
        <ele>478</ele>
        <time>2018-05-20T12:43:48Z</time>
      </trkpt>
      <trkpt lat="43.02625" lon="2.41008">
        <ele>480</ele>
        <time>2018-05-20T12:44:02Z</time>
      </trkpt>
      <trkpt lat="43.02637" lon="2.4098">
        <ele>482</ele>
        <time>2018-05-20T12:44:19Z</time>
      </trkpt>
      <trkpt lat="43.0264" lon="2.40948">
        <ele>481</ele>
        <time>2018-05-20T12:44:35Z</time>
      </trkpt>
      <trkpt lat="43.02655" lon="2.40925">
        <ele>481</ele>
        <time>2018-05-20T12:44:50Z</time>
      </trkpt>
      <trkpt lat="43.02678" lon="2.40923">
        <ele>482</ele>
        <time>2018-05-20T12:45:01Z</time>
      </trkpt>
      <trkpt lat="43.02702" lon="2.40925">
        <ele>485</ele>
        <time>2018-05-20T12:45:11Z</time>
      </trkpt>
      <trkpt lat="43.02742" lon="2.40893">
        <ele>486</ele>
        <time>2018-05-20T12:45:38Z</time>
      </trkpt>
      <trkpt lat="43.02788" lon="2.4088">
        <ele>488</ele>
        <time>2018-05-20T12:46:08Z</time>
      </trkpt>
      <trkpt lat="43.02808" lon="2.40865">
        <ele>491</ele>
        <time>2018-05-20T12:46:22Z</time>
      </trkpt>
      <trkpt lat="43.02831" lon="2.40873">
        <ele>493</ele>
        <time>2018-05-20T12:46:40Z</time>
      </trkpt>
      <trkpt lat="43.02871" lon="2.40906">
        <ele>497</ele>
        <time>2018-05-20T12:47:06Z</time>
      </trkpt>
      <trkpt lat="43.02894" lon="2.40897">
        <ele>501</ele>
        <time>2018-05-20T12:47:21Z</time>
      </trkpt>
      <trkpt lat="43.02916" lon="2.40842">
        <ele>503</ele>
        <time>2018-05-20T12:47:50Z</time>
      </trkpt>
      <trkpt lat="43.0292" lon="2.40811">
        <ele>502</ele>
        <time>2018-05-20T12:48:06Z</time>
      </trkpt>
      <trkpt lat="43.02935" lon="2.40786">
        <ele>503</ele>
        <time>2018-05-20T12:48:28Z</time>
      </trkpt>
      <trkpt lat="43.02957" lon="2.40775">
        <ele>507</ele>
        <time>2018-05-20T12:49:20Z</time>
      </trkpt>
      <trkpt lat="43.02955" lon="2.40743">
        <ele>512</ele>
        <time>2018-05-20T12:49:43Z</time>
      </trkpt>
      <trkpt lat="43.02978" lon="2.4074">
        <ele>515</ele>
        <time>2018-05-20T12:50:01Z</time>
      </trkpt>
      <trkpt lat="43.03012" lon="2.40784">
        <ele>522</ele>
        <time>2018-05-20T12:50:23Z</time>
      </trkpt>
      <trkpt lat="43.03024" lon="2.40812">
        <ele>522</ele>
        <time>2018-05-20T12:50:33Z</time>
      </trkpt>
      <trkpt lat="43.03037" lon="2.40839">
        <ele>521</ele>
        <time>2018-05-20T12:50:45Z</time>
      </trkpt>
      <trkpt lat="43.03041" lon="2.40809">
        <ele>520</ele>
        <time>2018-05-20T12:51:02Z</time>
      </trkpt>
      <trkpt lat="43.03019" lon="2.40797">
        <ele>519</ele>
        <time>2018-05-20T12:51:15Z</time>
      </trkpt>
      <trkpt lat="43.03006" lon="2.4077">
        <ele>518</ele>
        <time>2018-05-20T12:51:29Z</time>
      </trkpt>
      <trkpt lat="43.02983" lon="2.40715">
        <ele>518</ele>
        <time>2018-05-20T12:51:59Z</time>
      </trkpt>
      <trkpt lat="43.02962" lon="2.40704">
        <ele>520</ele>
        <time>2018-05-20T12:52:12Z</time>
      </trkpt>
      <trkpt lat="43.02943" lon="2.40722">
        <ele>522</ele>
        <time>2018-05-20T12:52:22Z</time>
      </trkpt>
      <trkpt lat="43.02939" lon="2.40754">
        <ele>528</ele>
        <time>2018-05-20T12:52:34Z</time>
      </trkpt>
      <trkpt lat="43.02901" lon="2.40836">
        <ele>540</ele>
        <time>2018-05-20T12:53:15Z</time>
      </trkpt>
      <trkpt lat="43.02878" lon="2.40843">
        <ele>540</ele>
        <time>2018-05-20T12:53:29Z</time>
      </trkpt>
      <trkpt lat="43.02857" lon="2.40829">
        <ele>541</ele>
        <time>2018-05-20T12:53:39Z</time>
      </trkpt>
      <trkpt lat="43.02841" lon="2.40805">
        <ele>542</ele>
        <time>2018-05-20T12:53:53Z</time>
      </trkpt>
      <trkpt lat="43.0282" lon="2.40791">
        <ele>544</ele>
        <time>2018-05-20T12:54:10Z</time>
      </trkpt>
      <trkpt lat="43.02752" lon="2.4082">
        <ele>544</ele>
        <time>2018-05-20T12:54:44Z</time>
      </trkpt>
      <trkpt lat="43.02727" lon="2.40819">
        <ele>544</ele>
        <time>2018-05-20T12:54:57Z</time>
      </trkpt>
      <trkpt lat="43.02704" lon="2.40817">
        <ele>545</ele>
        <time>2018-05-20T12:55:08Z</time>
      </trkpt>
      <trkpt lat="43.02688" lon="2.40795">
        <ele>544</ele>
        <time>2018-05-20T12:55:18Z</time>
      </trkpt>
      <trkpt lat="43.02666" lon="2.40789">
        <ele>546</ele>
        <time>2018-05-20T12:55:33Z</time>
      </trkpt>
      <trkpt lat="43.02644" lon="2.40803">
        <ele>548</ele>
        <time>2018-05-20T12:55:43Z</time>
      </trkpt>
      <trkpt lat="43.02626" lon="2.40824">
        <ele>550</ele>
        <time>2018-05-20T12:55:56Z</time>
      </trkpt>
      <trkpt lat="43.02606" lon="2.40841">
        <ele>552</ele>
        <time>2018-05-20T12:56:06Z</time>
      </trkpt>
      <trkpt lat="43.02583" lon="2.40844">
        <ele>554</ele>
        <time>2018-05-20T12:56:16Z</time>
      </trkpt>
      <trkpt lat="43.02571" lon="2.40815">
        <ele>555</ele>
        <time>2018-05-20T12:56:28Z</time>
      </trkpt>
      <trkpt lat="43.02559" lon="2.40754">
        <ele>558</ele>
        <time>2018-05-20T12:56:50Z</time>
      </trkpt>
      <trkpt lat="43.02558" lon="2.40722">
        <ele>558</ele>
        <time>2018-05-20T12:57:01Z</time>
      </trkpt>
      <trkpt lat="43.02524" lon="2.40678">
        <ele>562</ele>
        <time>2018-05-20T12:57:24Z</time>
      </trkpt>
      <trkpt lat="43.02492" lon="2.40555">
        <ele>567</ele>
        <time>2018-05-20T12:58:03Z</time>
      </trkpt>
      <trkpt lat="43.02487" lon="2.40524">
        <ele>569</ele>
        <time>2018-05-20T12:58:13Z</time>
      </trkpt>
      <trkpt lat="43.02487" lon="2.40494">
        <ele>569</ele>
        <time>2018-05-20T12:58:23Z</time>
      </trkpt>
      <trkpt lat="43.02492" lon="2.40463">
        <ele>568</ele>
        <time>2018-05-20T12:58:34Z</time>
      </trkpt>
      <trkpt lat="43.02492" lon="2.40429">
        <ele>568</ele>
        <time>2018-05-20T12:58:44Z</time>
      </trkpt>
      <trkpt lat="43.0248" lon="2.404">
        <ele>570</ele>
        <time>2018-05-20T12:58:55Z</time>
      </trkpt>
      <trkpt lat="43.02469" lon="2.40373">
        <ele>572</ele>
        <time>2018-05-20T12:59:05Z</time>
      </trkpt>
      <trkpt lat="43.02455" lon="2.40347">
        <ele>573</ele>
        <time>2018-05-20T12:59:16Z</time>
      </trkpt>
      <trkpt lat="43.02436" lon="2.4033">
        <ele>574</ele>
        <time>2018-05-20T12:59:27Z</time>
      </trkpt>
      <trkpt lat="43.02428" lon="2.40301">
        <ele>574</ele>
        <time>2018-05-20T12:59:39Z</time>
      </trkpt>
      <trkpt lat="43.02398" lon="2.40215">
        <ele>585</ele>
        <time>2018-05-20T13:00:11Z</time>
      </trkpt>
      <trkpt lat="43.02395" lon="2.40152">
        <ele>588</ele>
        <time>2018-05-20T13:00:33Z</time>
      </trkpt>
      <trkpt lat="43.02397" lon="2.4012">
        <ele>589</ele>
        <time>2018-05-20T13:00:45Z</time>
      </trkpt>
      <trkpt lat="43.02391" lon="2.40089">
        <ele>588</ele>
        <time>2018-05-20T13:01:40Z</time>
      </trkpt>
      <trkpt lat="43.0238" lon="2.4006">
        <ele>588</ele>
        <time>2018-05-20T13:01:55Z</time>
      </trkpt>
      <trkpt lat="43.02372" lon="2.4003">
        <ele>585</ele>
        <time>2018-05-20T13:02:09Z</time>
      </trkpt>
      <trkpt lat="43.02356" lon="2.40007">
        <ele>585</ele>
        <time>2018-05-20T13:02:22Z</time>
      </trkpt>
      <trkpt lat="43.02338" lon="2.39985">
        <ele>588</ele>
        <time>2018-05-20T13:02:36Z</time>
      </trkpt>
      <trkpt lat="43.02316" lon="2.39972">
        <ele>592</ele>
        <time>2018-05-20T13:02:50Z</time>
      </trkpt>
      <trkpt lat="43.02299" lon="2.39952">
        <ele>595</ele>
        <time>2018-05-20T13:03:03Z</time>
      </trkpt>
      <trkpt lat="43.02292" lon="2.39922">
        <ele>597</ele>
        <time>2018-05-20T13:03:19Z</time>
      </trkpt>
      <trkpt lat="43.0229" lon="2.39922">
        <ele>604</ele>
        <time>2018-05-20T13:09:15Z</time>
      </trkpt>
      <trkpt lat="43.02289" lon="2.39886">
        <ele>599</ele>
        <time>2018-05-20T13:09:24Z</time>
      </trkpt>
      <trkpt lat="43.02308" lon="2.39754">
        <ele>599</ele>
        <time>2018-05-20T13:09:41Z</time>
      </trkpt>
      <trkpt lat="43.02306" lon="2.3972">
        <ele>598</ele>
        <time>2018-05-20T13:09:47Z</time>
      </trkpt>
      <trkpt lat="43.02285" lon="2.39734">
        <ele>597</ele>
        <time>2018-05-20T13:09:53Z</time>
      </trkpt>
      <trkpt lat="43.02277" lon="2.39766">
        <ele>595</ele>
        <time>2018-05-20T13:09:58Z</time>
      </trkpt>
      <trkpt lat="43.02249" lon="2.39772">
        <ele>592</ele>
        <time>2018-05-20T13:10:03Z</time>
      </trkpt>
      <trkpt lat="43.02175" lon="2.39536">
        <ele>573</ele>
        <time>2018-05-20T13:10:30Z</time>
      </trkpt>
      <trkpt lat="43.02157" lon="2.39392">
        <ele>567</ele>
        <time>2018-05-20T13:10:46Z</time>
      </trkpt>
      <trkpt lat="43.02121" lon="2.39338">
        <ele>563</ele>
        <time>2018-05-20T13:10:56Z</time>
      </trkpt>
      <trkpt lat="43.02098" lon="2.39329">
        <ele>564</ele>
        <time>2018-05-20T13:11:02Z</time>
      </trkpt>
      <trkpt lat="43.02076" lon="2.39332">
        <ele>555</ele>
        <time>2018-05-20T13:12:29Z</time>
      </trkpt>
      <trkpt lat="43.02059" lon="2.39309">
        <ele>563</ele>
        <time>2018-05-20T13:12:55Z</time>
      </trkpt>
      <trkpt lat="43.02047" lon="2.39281">
        <ele>564</ele>
        <time>2018-05-20T13:13:02Z</time>
      </trkpt>
      <trkpt lat="43.02055" lon="2.39218">
        <ele>561</ele>
        <time>2018-05-20T13:13:17Z</time>
      </trkpt>
      <trkpt lat="43.0204" lon="2.39193">
        <ele>556</ele>
        <time>2018-05-20T13:13:47Z</time>
      </trkpt>
      <trkpt lat="43.02018" lon="2.39179">
        <ele>554</ele>
        <time>2018-05-20T13:13:53Z</time>
      </trkpt>
      <trkpt lat="43.02018" lon="2.39146">
        <ele>549</ele>
        <time>2018-05-20T13:14:05Z</time>
      </trkpt>
      <trkpt lat="43.0208" lon="2.39092">
        <ele>537</ele>
        <time>2018-05-20T13:14:21Z</time>
      </trkpt>
      <trkpt lat="43.021" lon="2.39074">
        <ele>536</ele>
        <time>2018-05-20T13:14:28Z</time>
      </trkpt>
      <trkpt lat="43.0212" lon="2.39054">
        <ele>534</ele>
        <time>2018-05-20T13:17:16Z</time>
      </trkpt>
      <trkpt lat="43.02137" lon="2.39035">
        <ele>527</ele>
        <time>2018-05-20T13:18:57Z</time>
      </trkpt>
      <trkpt lat="43.02156" lon="2.39013">
        <ele>529</ele>
        <time>2018-05-20T13:19:05Z</time>
      </trkpt>
      <trkpt lat="43.02168" lon="2.38981">
        <ele>530</ele>
        <time>2018-05-20T13:19:12Z</time>
      </trkpt>
      <trkpt lat="43.02202" lon="2.38934">
        <ele>532</ele>
        <time>2018-05-20T13:19:23Z</time>
      </trkpt>
      <trkpt lat="43.02317" lon="2.3881">
        <ele>528</ele>
        <time>2018-05-20T13:19:53Z</time>
      </trkpt>
      <trkpt lat="43.02345" lon="2.3876">
        <ele>530</ele>
        <time>2018-05-20T13:20:02Z</time>
      </trkpt>
      <trkpt lat="43.02366" lon="2.38739">
        <ele>530</ele>
        <time>2018-05-20T13:20:07Z</time>
      </trkpt>
      <trkpt lat="43.02389" lon="2.38736">
        <ele>531</ele>
        <time>2018-05-20T13:20:12Z</time>
      </trkpt>
      <trkpt lat="43.0241" lon="2.38719">
        <ele>530</ele>
        <time>2018-05-20T13:20:43Z</time>
      </trkpt>
      <trkpt lat="43.02427" lon="2.38695">
        <ele>528</ele>
        <time>2018-05-20T13:20:48Z</time>
      </trkpt>
      <trkpt lat="43.02445" lon="2.38675">
        <ele>528</ele>
        <time>2018-05-20T13:20:53Z</time>
      </trkpt>
      <trkpt lat="43.02466" lon="2.38661">
        <ele>527</ele>
        <time>2018-05-20T13:20:59Z</time>
      </trkpt>
      <trkpt lat="43.02485" lon="2.38641">
        <ele>525</ele>
        <time>2018-05-20T13:21:04Z</time>
      </trkpt>
      <trkpt lat="43.02497" lon="2.38609">
        <ele>521</ele>
        <time>2018-05-20T13:21:09Z</time>
      </trkpt>
      <trkpt lat="43.02496" lon="2.38572">
        <ele>519</ele>
        <time>2018-05-20T13:21:14Z</time>
      </trkpt>
      <trkpt lat="43.0251" lon="2.38546">
        <ele>519</ele>
        <time>2018-05-20T13:21:18Z</time>
      </trkpt>
      <trkpt lat="43.02531" lon="2.38528">
        <ele>519</ele>
        <time>2018-05-20T13:21:23Z</time>
      </trkpt>
      <trkpt lat="43.02532" lon="2.38493">
        <ele>508</ele>
        <time>2018-05-20T14:04:50Z</time>
      </trkpt>
      <trkpt lat="43.02516" lon="2.38389">
        <ele>505</ele>
        <time>2018-05-20T14:05:01Z</time>
      </trkpt>
      <trkpt lat="43.02516" lon="2.38358">
        <ele>504</ele>
        <time>2018-05-20T14:05:04Z</time>
      </trkpt>
      <trkpt lat="43.02532" lon="2.38246">
        <ele>499</ele>
        <time>2018-05-20T14:05:16Z</time>
      </trkpt>
      <trkpt lat="43.02542" lon="2.3821">
        <ele>498</ele>
        <time>2018-05-20T14:05:20Z</time>
      </trkpt>
      <trkpt lat="43.02566" lon="2.3819">
        <ele>497</ele>
        <time>2018-05-20T14:05:24Z</time>
      </trkpt>
      <trkpt lat="43.02572" lon="2.38155">
        <ele>496</ele>
        <time>2018-05-20T14:05:28Z</time>
      </trkpt>
      <trkpt lat="43.02529" lon="2.38066">
        <ele>490</ele>
        <time>2018-05-20T14:05:38Z</time>
      </trkpt>
      <trkpt lat="43.02527" lon="2.38034">
        <ele>489</ele>
        <time>2018-05-20T14:05:42Z</time>
      </trkpt>
      <trkpt lat="43.02541" lon="2.38008">
        <ele>488</ele>
        <time>2018-05-20T14:05:47Z</time>
      </trkpt>
      <trkpt lat="43.02469" lon="2.37923">
        <ele>486</ele>
        <time>2018-05-20T14:06:06Z</time>
      </trkpt>
      <trkpt lat="43.02438" lon="2.37868">
        <ele>487</ele>
        <time>2018-05-20T14:06:18Z</time>
      </trkpt>
      <trkpt lat="43.02421" lon="2.37841">
        <ele>487</ele>
        <time>2018-05-20T14:06:25Z</time>
      </trkpt>
      <trkpt lat="43.0235" lon="2.37829">
        <ele>484</ele>
        <time>2018-05-20T14:06:50Z</time>
      </trkpt>
      <trkpt lat="43.02327" lon="2.37826">
        <ele>485</ele>
        <time>2018-05-20T14:07:01Z</time>
      </trkpt>
      <trkpt lat="43.02256" lon="2.37831">
        <ele>485</ele>
        <time>2018-05-20T14:07:26Z</time>
      </trkpt>
      <trkpt lat="43.02233" lon="2.37845">
        <ele>485</ele>
        <time>2018-05-20T14:07:35Z</time>
      </trkpt>
      <trkpt lat="43.02198" lon="2.37887">
        <ele>481</ele>
        <time>2018-05-20T14:07:52Z</time>
      </trkpt>
      <trkpt lat="43.0217" lon="2.3794">
        <ele>483</ele>
        <time>2018-05-20T14:08:11Z</time>
      </trkpt>
      <trkpt lat="43.02154" lon="2.37963">
        <ele>487</ele>
        <time>2018-05-20T14:08:21Z</time>
      </trkpt>
      <trkpt lat="43.02137" lon="2.37985">
        <ele>487</ele>
        <time>2018-05-20T14:08:32Z</time>
      </trkpt>
      <trkpt lat="43.02118" lon="2.38003">
        <ele>485</ele>
        <time>2018-05-20T14:08:43Z</time>
      </trkpt>
      <trkpt lat="43.02098" lon="2.38022">
        <ele>487</ele>
        <time>2018-05-20T14:08:56Z</time>
      </trkpt>
      <trkpt lat="43.02078" lon="2.38038">
        <ele>488</ele>
        <time>2018-05-20T14:09:06Z</time>
      </trkpt>
      <trkpt lat="43.0201" lon="2.38011">
        <ele>495</ele>
        <time>2018-05-20T14:09:39Z</time>
      </trkpt>
      <trkpt lat="43.01964" lon="2.37998">
        <ele>505</ele>
        <time>2018-05-20T14:10:02Z</time>
      </trkpt>
      <trkpt lat="43.01943" lon="2.38013">
        <ele>509</ele>
        <time>2018-05-20T14:10:13Z</time>
      </trkpt>
      <trkpt lat="43.01924" lon="2.3803">
        <ele>511</ele>
        <time>2018-05-20T14:10:24Z</time>
      </trkpt>
      <trkpt lat="43.01902" lon="2.38024">
        <ele>513</ele>
        <time>2018-05-20T14:10:35Z</time>
      </trkpt>
      <trkpt lat="43.01883" lon="2.38004">
        <ele>513</ele>
        <time>2018-05-20T14:10:47Z</time>
      </trkpt>
      <trkpt lat="43.0186" lon="2.37996">
        <ele>515</ele>
        <time>2018-05-20T14:11:00Z</time>
      </trkpt>
      <trkpt lat="43.01796" lon="2.37955">
        <ele>519</ele>
        <time>2018-05-20T14:11:36Z</time>
      </trkpt>
      <trkpt lat="43.01725" lon="2.37945">
        <ele>522</ele>
        <time>2018-05-20T14:12:16Z</time>
      </trkpt>
      <trkpt lat="43.01701" lon="2.3794">
        <ele>524</ele>
        <time>2018-05-20T14:12:29Z</time>
      </trkpt>
      <trkpt lat="43.01679" lon="2.37928">
        <ele>526</ele>
        <time>2018-05-20T14:12:42Z</time>
      </trkpt>
      <trkpt lat="43.01667" lon="2.379">
        <ele>530</ele>
        <time>2018-05-20T14:12:55Z</time>
      </trkpt>
      <trkpt lat="43.01662" lon="2.3787">
        <ele>530</ele>
        <time>2018-05-20T14:13:07Z</time>
      </trkpt>
      <trkpt lat="43.01657" lon="2.3784">
        <ele>528</ele>
        <time>2018-05-20T14:13:20Z</time>
      </trkpt>
      <trkpt lat="43.01646" lon="2.37811">
        <ele>527</ele>
        <time>2018-05-20T14:13:34Z</time>
      </trkpt>
      <trkpt lat="43.01628" lon="2.3779">
        <ele>525</ele>
        <time>2018-05-20T14:13:46Z</time>
      </trkpt>
      <trkpt lat="43.01582" lon="2.37779">
        <ele>526</ele>
        <time>2018-05-20T14:14:11Z</time>
      </trkpt>
      <trkpt lat="43.01558" lon="2.37778">
        <ele>524</ele>
        <time>2018-05-20T14:14:25Z</time>
      </trkpt>
      <trkpt lat="43.01535" lon="2.37775">
        <ele>526</ele>
        <time>2018-05-20T14:14:39Z</time>
      </trkpt>
      <trkpt lat="43.01489" lon="2.37779">
        <ele>525</ele>
        <time>2018-05-20T14:15:04Z</time>
      </trkpt>
      <trkpt lat="43.01467" lon="2.3778">
        <ele>529</ele>
        <time>2018-05-20T14:15:18Z</time>
      </trkpt>
      <trkpt lat="43.01442" lon="2.3778">
        <ele>530</ele>
        <time>2018-05-20T14:15:31Z</time>
      </trkpt>
      <trkpt lat="43.01395" lon="2.37779">
        <ele>527</ele>
        <time>2018-05-20T14:15:57Z</time>
      </trkpt>
      <trkpt lat="43.01349" lon="2.37768">
        <ele>520</ele>
        <time>2018-05-20T14:16:24Z</time>
      </trkpt>
      <trkpt lat="43.01325" lon="2.37772">
        <ele>519</ele>
        <time>2018-05-20T14:16:36Z</time>
      </trkpt>
      <trkpt lat="43.01303" lon="2.37779">
        <ele>521</ele>
        <time>2018-05-20T14:16:48Z</time>
      </trkpt>
      <trkpt lat="43.01279" lon="2.37776">
        <ele>522</ele>
        <time>2018-05-20T14:17:02Z</time>
      </trkpt>
      <trkpt lat="43.01255" lon="2.37767">
        <ele>526</ele>
        <time>2018-05-20T14:17:14Z</time>
      </trkpt>
      <trkpt lat="43.01248" lon="2.37735">
        <ele>531</ele>
        <time>2018-05-20T14:17:28Z</time>
      </trkpt>
      <trkpt lat="43.01249" lon="2.37703">
        <ele>533</ele>
        <time>2018-05-20T14:17:40Z</time>
      </trkpt>
      <trkpt lat="43.01251" lon="2.37672">
        <ele>534</ele>
        <time>2018-05-20T14:17:52Z</time>
      </trkpt>
      <trkpt lat="43.01251" lon="2.37639">
        <ele>537</ele>
        <time>2018-05-20T14:18:06Z</time>
      </trkpt>
      <trkpt lat="43.01244" lon="2.37608">
        <ele>539</ele>
        <time>2018-05-20T14:18:19Z</time>
      </trkpt>
      <trkpt lat="43.01226" lon="2.37585">
        <ele>542</ele>
        <time>2018-05-20T14:18:31Z</time>
      </trkpt>
      <trkpt lat="43.01205" lon="2.37572">
        <ele>542</ele>
        <time>2018-05-20T14:18:45Z</time>
      </trkpt>
      <trkpt lat="43.01158" lon="2.37565">
        <ele>545</ele>
        <time>2018-05-20T14:19:07Z</time>
      </trkpt>
      <trkpt lat="43.01136" lon="2.37554">
        <ele>547</ele>
        <time>2018-05-20T14:19:19Z</time>
      </trkpt>
      <trkpt lat="43.01104" lon="2.3751">
        <ele>549</ele>
        <time>2018-05-20T14:19:41Z</time>
      </trkpt>
      <trkpt lat="43.01081" lon="2.37419">
        <ele>554</ele>
        <time>2018-05-20T14:20:17Z</time>
      </trkpt>
      <trkpt lat="43.0106" lon="2.37361">
        <ele>560</ele>
        <time>2018-05-20T14:20:38Z</time>
      </trkpt>
      <trkpt lat="43.01046" lon="2.37337">
        <ele>562</ele>
        <time>2018-05-20T14:20:48Z</time>
      </trkpt>
      <trkpt lat="43.00986" lon="2.3728">
        <ele>565</ele>
        <time>2018-05-20T14:21:18Z</time>
      </trkpt>
      <trkpt lat="43.00964" lon="2.37269">
        <ele>566</ele>
        <time>2018-05-20T14:21:26Z</time>
      </trkpt>
      <trkpt lat="43.00946" lon="2.37247">
        <ele>567</ele>
        <time>2018-05-20T14:21:33Z</time>
      </trkpt>
      <trkpt lat="43.0092" lon="2.37196">
        <ele>572</ele>
        <time>2018-05-20T14:21:46Z</time>
      </trkpt>
      <trkpt lat="43.00884" lon="2.37077">
        <ele>571</ele>
        <time>2018-05-20T14:22:11Z</time>
      </trkpt>
      <trkpt lat="43.00868" lon="2.37052">
        <ele>571</ele>
        <time>2018-05-20T14:22:18Z</time>
      </trkpt>
      <trkpt lat="43.00782" lon="2.36997">
        <ele>574</ele>
        <time>2018-05-20T14:22:45Z</time>
      </trkpt>
      <trkpt lat="43.00734" lon="2.36989">
        <ele>575</ele>
        <time>2018-05-20T14:22:58Z</time>
      </trkpt>
      <trkpt lat="43.00685" lon="2.37002">
        <ele>575</ele>
        <time>2018-05-20T14:23:12Z</time>
      </trkpt>
      <trkpt lat="43.00636" lon="2.37007">
        <ele>572</ele>
        <time>2018-05-20T14:23:26Z</time>
      </trkpt>
      <trkpt lat="43.0061" lon="2.37013">
        <ele>571</ele>
        <time>2018-05-20T14:23:33Z</time>
      </trkpt>
      <trkpt lat="43.00498" lon="2.37088">
        <ele>574</ele>
        <time>2018-05-20T14:24:09Z</time>
      </trkpt>
      <trkpt lat="43.00475" lon="2.37102">
        <ele>574</ele>
        <time>2018-05-20T14:24:17Z</time>
      </trkpt>
      <trkpt lat="43.00459" lon="2.37124">
        <ele>574</ele>
        <time>2018-05-20T14:24:25Z</time>
      </trkpt>
      <trkpt lat="43.00451" lon="2.37156">
        <ele>573</ele>
        <time>2018-05-20T14:24:35Z</time>
      </trkpt>
      <trkpt lat="43.00435" lon="2.37178">
        <ele>572</ele>
        <time>2018-05-20T14:24:43Z</time>
      </trkpt>
      <trkpt lat="43.00414" lon="2.37194">
        <ele>572</ele>
        <time>2018-05-20T14:24:51Z</time>
      </trkpt>
      <trkpt lat="43.00321" lon="2.3723">
        <ele>575</ele>
        <time>2018-05-20T14:25:21Z</time>
      </trkpt>
      <trkpt lat="43.00297" lon="2.37236">
        <ele>574</ele>
        <time>2018-05-20T14:25:29Z</time>
      </trkpt>
      <trkpt lat="43.0023" lon="2.37267">
        <ele>574</ele>
        <time>2018-05-20T14:25:50Z</time>
      </trkpt>
      <trkpt lat="43.00184" lon="2.3728">
        <ele>574</ele>
        <time>2018-05-20T14:26:09Z</time>
      </trkpt>
      <trkpt lat="43.00114" lon="2.37312">
        <ele>581</ele>
        <time>2018-05-20T14:26:34Z</time>
      </trkpt>
      <trkpt lat="43.0002" lon="2.37323">
        <ele>583</ele>
        <time>2018-05-20T14:27:07Z</time>
      </trkpt>
      <trkpt lat="42.99945" lon="2.37236">
        <ele>587</ele>
        <time>2018-05-20T14:27:37Z</time>
      </trkpt>
      <trkpt lat="42.99923" lon="2.37219">
        <ele>586</ele>
        <time>2018-05-20T14:27:45Z</time>
      </trkpt>
      <trkpt lat="42.99907" lon="2.37156">
        <ele>589</ele>
        <time>2018-05-20T14:28:01Z</time>
      </trkpt>
      <trkpt lat="42.99891" lon="2.37131">
        <ele>589</ele>
        <time>2018-05-20T14:28:10Z</time>
      </trkpt>
      <trkpt lat="42.99868" lon="2.37125">
        <ele>589</ele>
        <time>2018-05-20T14:28:17Z</time>
      </trkpt>
      <trkpt lat="42.99832" lon="2.37166">
        <ele>590</ele>
        <time>2018-05-20T14:28:31Z</time>
      </trkpt>
      <trkpt lat="42.99773" lon="2.37275">
        <ele>592</ele>
        <time>2018-05-20T14:29:05Z</time>
      </trkpt>
      <trkpt lat="42.99744" lon="2.37365">
        <ele>598</ele>
        <time>2018-05-20T14:29:29Z</time>
      </trkpt>
      <trkpt lat="42.99734" lon="2.37397">
        <ele>598</ele>
        <time>2018-05-20T14:29:37Z</time>
      </trkpt>
      <trkpt lat="42.99716" lon="2.37417">
        <ele>599</ele>
        <time>2018-05-20T14:29:45Z</time>
      </trkpt>
      <trkpt lat="42.9967" lon="2.37432">
        <ele>601</ele>
        <time>2018-05-20T14:30:01Z</time>
      </trkpt>
      <trkpt lat="42.99602" lon="2.37459">
        <ele>601</ele>
        <time>2018-05-20T14:30:28Z</time>
      </trkpt>
      <trkpt lat="42.9958" lon="2.37452">
        <ele>602</ele>
        <time>2018-05-20T14:30:37Z</time>
      </trkpt>
      <trkpt lat="42.99557" lon="2.37438">
        <ele>603</ele>
        <time>2018-05-20T14:30:46Z</time>
      </trkpt>
      <trkpt lat="42.99535" lon="2.37425">
        <ele>604</ele>
        <time>2018-05-20T14:30:55Z</time>
      </trkpt>
      <trkpt lat="42.99512" lon="2.37418">
        <ele>606</ele>
        <time>2018-05-20T14:31:03Z</time>
      </trkpt>
      <trkpt lat="42.99489" lon="2.37419">
        <ele>609</ele>
        <time>2018-05-20T14:31:11Z</time>
      </trkpt>
      <trkpt lat="42.99441" lon="2.37433">
        <ele>614</ele>
        <time>2018-05-20T14:31:29Z</time>
      </trkpt>
      <trkpt lat="42.99418" lon="2.37437">
        <ele>615</ele>
        <time>2018-05-20T14:31:38Z</time>
      </trkpt>
      <trkpt lat="42.99394" lon="2.37429">
        <ele>614</ele>
        <time>2018-05-20T14:31:47Z</time>
      </trkpt>
      <trkpt lat="42.99307" lon="2.37379">
        <ele>605</ele>
        <time>2018-05-20T14:32:22Z</time>
      </trkpt>
      <trkpt lat="42.99226" lon="2.37306">
        <ele>605</ele>
        <time>2018-05-20T14:32:57Z</time>
      </trkpt>
      <trkpt lat="42.99206" lon="2.37286">
        <ele>607</ele>
        <time>2018-05-20T14:33:05Z</time>
      </trkpt>
      <trkpt lat="42.99159" lon="2.37289">
        <ele>613</ele>
        <time>2018-05-20T14:33:22Z</time>
      </trkpt>
      <trkpt lat="42.99136" lon="2.37282">
        <ele>615</ele>
        <time>2018-05-20T14:33:30Z</time>
      </trkpt>
      <trkpt lat="42.99123" lon="2.37257">
        <ele>615</ele>
        <time>2018-05-20T14:33:39Z</time>
      </trkpt>
      <trkpt lat="42.99111" lon="2.37229">
        <ele>615</ele>
        <time>2018-05-20T14:33:50Z</time>
      </trkpt>
      <trkpt lat="42.99096" lon="2.37205">
        <ele>615</ele>
        <time>2018-05-20T14:33:59Z</time>
      </trkpt>
      <trkpt lat="42.99074" lon="2.37188">
        <ele>615</ele>
        <time>2018-05-20T14:34:07Z</time>
      </trkpt>
      <trkpt lat="42.99003" lon="2.3717">
        <ele>620</ele>
        <time>2018-05-20T14:34:34Z</time>
      </trkpt>
      <trkpt lat="42.98958" lon="2.3718">
        <ele>620</ele>
        <time>2018-05-20T14:34:51Z</time>
      </trkpt>
      <trkpt lat="42.98912" lon="2.37199">
        <ele>626</ele>
        <time>2018-05-20T14:35:07Z</time>
      </trkpt>
      <trkpt lat="42.98851" lon="2.37252">
        <ele>635</ele>
        <time>2018-05-20T14:35:32Z</time>
      </trkpt>
      <trkpt lat="42.98782" lon="2.3734">
        <ele>635</ele>
        <time>2018-05-20T14:36:01Z</time>
      </trkpt>
      <trkpt lat="42.98732" lon="2.3745">
        <ele>634</ele>
        <time>2018-05-20T14:36:33Z</time>
      </trkpt>
      <trkpt lat="42.98715" lon="2.37475">
        <ele>636</ele>
        <time>2018-05-20T14:36:41Z</time>
      </trkpt>
      <trkpt lat="42.98701" lon="2.37501">
        <ele>637</ele>
        <time>2018-05-20T14:36:50Z</time>
      </trkpt>
      <trkpt lat="42.98696" lon="2.37531">
        <ele>637</ele>
        <time>2018-05-20T14:36:57Z</time>
      </trkpt>
      <trkpt lat="42.98682" lon="2.37558">
        <ele>637</ele>
        <time>2018-05-20T14:37:05Z</time>
      </trkpt>
      <trkpt lat="42.98585" lon="2.37593">
        <ele>635</ele>
        <time>2018-05-20T14:37:38Z</time>
      </trkpt>
      <trkpt lat="42.98538" lon="2.3761">
        <ele>636</ele>
        <time>2018-05-20T14:37:55Z</time>
      </trkpt>
      <trkpt lat="42.98516" lon="2.37623">
        <ele>636</ele>
        <time>2018-05-20T14:38:03Z</time>
      </trkpt>
      <trkpt lat="42.98492" lon="2.37676">
        <ele>638</ele>
        <time>2018-05-20T14:38:18Z</time>
      </trkpt>
      <trkpt lat="42.9847" lon="2.37694">
        <ele>639</ele>
        <time>2018-05-20T14:38:27Z</time>
      </trkpt>
      <trkpt lat="42.98375" lon="2.37689">
        <ele>642</ele>
        <time>2018-05-20T14:38:59Z</time>
      </trkpt>
      <trkpt lat="42.98304" lon="2.3768">
        <ele>643</ele>
        <time>2018-05-20T14:39:30Z</time>
      </trkpt>
      <trkpt lat="42.98281" lon="2.37676">
        <ele>645</ele>
        <time>2018-05-20T14:39:40Z</time>
      </trkpt>
      <trkpt lat="42.98258" lon="2.37678">
        <ele>644</ele>
        <time>2018-05-20T14:39:50Z</time>
      </trkpt>
      <trkpt lat="42.98211" lon="2.37672">
        <ele>646</ele>
        <time>2018-05-20T14:40:10Z</time>
      </trkpt>
    </trkseg>
  </trk>
  <trk>
    <name><![CDATA[Aude J3]]></name>
    <extensions>
      <line xmlns="http://www.topografix.com/GPX/gpx_style/0/2">
        <color>ff00d4</color>
        <width>4</width>
      </line>
    </extensions>
    <trkseg>
      <trkpt lat="42.98188" lon="2.37682">
        <ele>700</ele>
        <time>2018-05-21T06:21:17Z</time>
      </trkpt>
      <trkpt lat="42.98171" lon="2.37661">
        <ele>670</ele>
        <time>2018-05-21T06:22:28Z</time>
      </trkpt>
      <trkpt lat="42.98148" lon="2.37655">
        <ele>667</ele>
        <time>2018-05-21T06:22:41Z</time>
      </trkpt>
      <trkpt lat="42.9813" lon="2.37636">
        <ele>667</ele>
        <time>2018-05-21T06:22:53Z</time>
      </trkpt>
      <trkpt lat="42.98107" lon="2.37641">
        <ele>668</ele>
        <time>2018-05-21T06:23:05Z</time>
      </trkpt>
      <trkpt lat="42.98091" lon="2.37664">
        <ele>669</ele>
        <time>2018-05-21T06:23:17Z</time>
      </trkpt>
      <trkpt lat="42.98073" lon="2.37686">
        <ele>669</ele>
        <time>2018-05-21T06:23:28Z</time>
      </trkpt>
      <trkpt lat="42.98035" lon="2.37766">
        <ele>668</ele>
        <time>2018-05-21T06:24:08Z</time>
      </trkpt>
      <trkpt lat="42.97986" lon="2.37834">
        <ele>673</ele>
        <time>2018-05-21T06:24:49Z</time>
      </trkpt>
      <trkpt lat="42.97958" lon="2.3792">
        <ele>679</ele>
        <time>2018-05-21T06:25:35Z</time>
      </trkpt>
      <trkpt lat="42.97941" lon="2.37941">
        <ele>684</ele>
        <time>2018-05-21T06:25:48Z</time>
      </trkpt>
      <trkpt lat="42.97902" lon="2.37975">
        <ele>688</ele>
        <time>2018-05-21T06:26:20Z</time>
      </trkpt>
      <trkpt lat="42.97861" lon="2.38006">
        <ele>690</ele>
        <time>2018-05-21T06:26:51Z</time>
      </trkpt>
      <trkpt lat="42.97839" lon="2.38016">
        <ele>691</ele>
        <time>2018-05-21T06:27:04Z</time>
      </trkpt>
      <trkpt lat="42.97769" lon="2.38012">
        <ele>694</ele>
        <time>2018-05-21T06:27:47Z</time>
      </trkpt>
      <trkpt lat="42.97745" lon="2.38007">
        <ele>697</ele>
        <time>2018-05-21T06:28:00Z</time>
      </trkpt>
      <trkpt lat="42.97731" lon="2.37982">
        <ele>699</ele>
        <time>2018-05-21T06:28:13Z</time>
      </trkpt>
      <trkpt lat="42.97716" lon="2.37959">
        <ele>699</ele>
        <time>2018-05-21T06:28:27Z</time>
      </trkpt>
      <trkpt lat="42.97692" lon="2.37954">
        <ele>700</ele>
        <time>2018-05-21T06:28:40Z</time>
      </trkpt>
      <trkpt lat="42.97623" lon="2.3797">
        <ele>706</ele>
        <time>2018-05-21T06:29:22Z</time>
      </trkpt>
      <trkpt lat="42.97577" lon="2.37969">
        <ele>710</ele>
        <time>2018-05-21T06:29:44Z</time>
      </trkpt>
      <trkpt lat="42.97582" lon="2.37937">
        <ele>707</ele>
        <time>2018-05-21T06:33:39Z</time>
      </trkpt>
      <trkpt lat="42.97594" lon="2.3791">
        <ele>707</ele>
        <time>2018-05-21T06:33:52Z</time>
      </trkpt>
      <trkpt lat="42.97607" lon="2.37883">
        <ele>705</ele>
        <time>2018-05-21T06:35:02Z</time>
      </trkpt>
      <trkpt lat="42.97617" lon="2.37855">
        <ele>707</ele>
        <time>2018-05-21T06:35:12Z</time>
      </trkpt>
      <trkpt lat="42.97622" lon="2.37825">
        <ele>709</ele>
        <time>2018-05-21T06:35:24Z</time>
      </trkpt>
      <trkpt lat="42.97611" lon="2.37855">
        <ele>714</ele>
        <time>2018-05-21T06:39:58Z</time>
      </trkpt>
      <trkpt lat="42.97601" lon="2.37887">
        <ele>714</ele>
        <time>2018-05-21T06:40:06Z</time>
      </trkpt>
      <trkpt lat="42.97579" lon="2.37943">
        <ele>710</ele>
        <time>2018-05-21T06:40:26Z</time>
      </trkpt>
      <trkpt lat="42.97555" lon="2.37957">
        <ele>710</ele>
        <time>2018-05-21T06:41:12Z</time>
      </trkpt>
      <trkpt lat="42.97533" lon="2.3796">
        <ele>706</ele>
        <time>2018-05-21T06:42:16Z</time>
      </trkpt>
      <trkpt lat="42.97511" lon="2.37983">
        <ele>708</ele>
        <time>2018-05-21T06:42:21Z</time>
      </trkpt>
      <trkpt lat="42.97467" lon="2.38015">
        <ele>707</ele>
        <time>2018-05-21T06:42:29Z</time>
      </trkpt>
      <trkpt lat="42.97444" lon="2.38026">
        <ele>706</ele>
        <time>2018-05-21T06:42:34Z</time>
      </trkpt>
      <trkpt lat="42.97421" lon="2.38035">
        <ele>688</ele>
        <time>2018-05-21T06:43:35Z</time>
      </trkpt>
      <trkpt lat="42.974" lon="2.38047">
        <ele>691</ele>
        <time>2018-05-21T06:43:47Z</time>
      </trkpt>
      <trkpt lat="42.97379" lon="2.38068">
        <ele>683</ele>
        <time>2018-05-21T06:45:16Z</time>
      </trkpt>
      <trkpt lat="42.97223" lon="2.38382">
        <ele>671</ele>
        <time>2018-05-21T06:45:47Z</time>
      </trkpt>
      <trkpt lat="42.9722" lon="2.38416">
        <ele>670</ele>
        <time>2018-05-21T06:45:50Z</time>
      </trkpt>
      <trkpt lat="42.9724" lon="2.38483">
        <ele>669</ele>
        <time>2018-05-21T06:45:56Z</time>
      </trkpt>
      <trkpt lat="42.97229" lon="2.38523">
        <ele>668</ele>
        <time>2018-05-21T06:45:59Z</time>
      </trkpt>
      <trkpt lat="42.97214" lon="2.38556">
        <ele>668</ele>
        <time>2018-05-21T06:46:02Z</time>
      </trkpt>
      <trkpt lat="42.97194" lon="2.38578">
        <ele>667</ele>
        <time>2018-05-21T06:46:05Z</time>
      </trkpt>
      <trkpt lat="42.97171" lon="2.38591">
        <ele>666</ele>
        <time>2018-05-21T06:46:08Z</time>
      </trkpt>
      <trkpt lat="42.97163" lon="2.38624">
        <ele>665</ele>
        <time>2018-05-21T06:46:13Z</time>
      </trkpt>
      <trkpt lat="42.9718" lon="2.38651">
        <ele>663</ele>
        <time>2018-05-21T06:46:17Z</time>
      </trkpt>
      <trkpt lat="42.97195" lon="2.38676">
        <ele>662</ele>
        <time>2018-05-21T06:46:20Z</time>
      </trkpt>
      <trkpt lat="42.97209" lon="2.38709">
        <ele>661</ele>
        <time>2018-05-21T06:46:23Z</time>
      </trkpt>
      <trkpt lat="42.97172" lon="2.3876">
        <ele>660</ele>
        <time>2018-05-21T06:46:29Z</time>
      </trkpt>
      <trkpt lat="42.97153" lon="2.38791">
        <ele>659</ele>
        <time>2018-05-21T06:46:32Z</time>
      </trkpt>
      <trkpt lat="42.97124" lon="2.38942">
        <ele>652</ele>
        <time>2018-05-21T06:46:44Z</time>
      </trkpt>
      <trkpt lat="42.97113" lon="2.39131">
        <ele>643</ele>
        <time>2018-05-21T06:46:59Z</time>
      </trkpt>
      <trkpt lat="42.97124" lon="2.3916">
        <ele>640</ele>
        <time>2018-05-21T06:47:03Z</time>
      </trkpt>
      <trkpt lat="42.97145" lon="2.39174">
        <ele>636</ele>
        <time>2018-05-21T06:47:07Z</time>
      </trkpt>
      <trkpt lat="42.97147" lon="2.39209">
        <ele>632</ele>
        <time>2018-05-21T06:47:12Z</time>
      </trkpt>
      <trkpt lat="42.97127" lon="2.39225">
        <ele>629</ele>
        <time>2018-05-21T06:47:16Z</time>
      </trkpt>
      <trkpt lat="42.97121" lon="2.39257">
        <ele>628</ele>
        <time>2018-05-21T06:47:21Z</time>
      </trkpt>
      <trkpt lat="42.97125" lon="2.39289">
        <ele>626</ele>
        <time>2018-05-21T06:47:28Z</time>
      </trkpt>
      <trkpt lat="42.97136" lon="2.39317">
        <ele>626</ele>
        <time>2018-05-21T06:47:35Z</time>
      </trkpt>
      <trkpt lat="42.97186" lon="2.39384">
        <ele>624</ele>
        <time>2018-05-21T06:48:15Z</time>
      </trkpt>
      <trkpt lat="42.9719" lon="2.39416">
        <ele>625</ele>
        <time>2018-05-21T06:48:27Z</time>
      </trkpt>
      <trkpt lat="42.97182" lon="2.39446">
        <ele>626</ele>
        <time>2018-05-21T06:48:40Z</time>
      </trkpt>
      <trkpt lat="42.9716" lon="2.3946">
        <ele>626</ele>
        <time>2018-05-21T06:48:52Z</time>
      </trkpt>
      <trkpt lat="42.97143" lon="2.39479">
        <ele>627</ele>
        <time>2018-05-21T06:49:04Z</time>
      </trkpt>
      <trkpt lat="42.97141" lon="2.39575">
        <ele>631</ele>
        <time>2018-05-21T06:49:37Z</time>
      </trkpt>
      <trkpt lat="42.97169" lon="2.39661">
        <ele>633</ele>
        <time>2018-05-21T06:50:11Z</time>
      </trkpt>
      <trkpt lat="42.97194" lon="2.39717">
        <ele>635</ele>
        <time>2018-05-21T06:50:33Z</time>
      </trkpt>
      <trkpt lat="42.9721" lon="2.39742">
        <ele>635</ele>
        <time>2018-05-21T06:50:43Z</time>
      </trkpt>
      <trkpt lat="42.97229" lon="2.3976">
        <ele>636</ele>
        <time>2018-05-21T06:50:56Z</time>
      </trkpt>
      <trkpt lat="42.97254" lon="2.39758">
        <ele>637</ele>
        <time>2018-05-21T06:51:08Z</time>
      </trkpt>
      <trkpt lat="42.97279" lon="2.39765">
        <ele>640</ele>
        <time>2018-05-21T06:51:21Z</time>
      </trkpt>
      <trkpt lat="42.97288" lon="2.39827">
        <ele>643</ele>
        <time>2018-05-21T06:51:45Z</time>
      </trkpt>
      <trkpt lat="42.9729" lon="2.39859">
        <ele>643</ele>
        <time>2018-05-21T06:51:56Z</time>
      </trkpt>
      <trkpt lat="42.97305" lon="2.39882">
        <ele>643</ele>
        <time>2018-05-21T06:52:07Z</time>
      </trkpt>
      <trkpt lat="42.97328" lon="2.39876">
        <ele>644</ele>
        <time>2018-05-21T06:52:18Z</time>
      </trkpt>
      <trkpt lat="42.9735" lon="2.3987">
        <ele>645</ele>
        <time>2018-05-21T06:52:32Z</time>
      </trkpt>
      <trkpt lat="42.97373" lon="2.3988">
        <ele>647</ele>
        <time>2018-05-21T06:52:43Z</time>
      </trkpt>
      <trkpt lat="42.97391" lon="2.39899">
        <ele>650</ele>
        <time>2018-05-21T06:53:03Z</time>
      </trkpt>
      <trkpt lat="42.97381" lon="2.3993">
        <ele>652</ele>
        <time>2018-05-21T06:53:11Z</time>
      </trkpt>
      <trkpt lat="42.97372" lon="2.40026">
        <ele>654</ele>
        <time>2018-05-21T06:53:42Z</time>
      </trkpt>
      <trkpt lat="42.9737" lon="2.4009">
        <ele>654</ele>
        <time>2018-05-21T06:54:02Z</time>
      </trkpt>
      <trkpt lat="42.97355" lon="2.40116">
        <ele>664</ele>
        <time>2018-05-21T06:57:11Z</time>
      </trkpt>
      <trkpt lat="42.9735" lon="2.40148">
        <ele>659</ele>
        <time>2018-05-21T06:57:21Z</time>
      </trkpt>
      <trkpt lat="42.97349" lon="2.40181">
        <ele>661</ele>
        <time>2018-05-21T06:57:34Z</time>
      </trkpt>
      <trkpt lat="42.97369" lon="2.40199">
        <ele>659</ele>
        <time>2018-05-21T06:57:48Z</time>
      </trkpt>
      <trkpt lat="42.97393" lon="2.402">
        <ele>658</ele>
        <time>2018-05-21T06:57:58Z</time>
      </trkpt>
      <trkpt lat="42.97416" lon="2.4021">
        <ele>658</ele>
        <time>2018-05-21T06:58:08Z</time>
      </trkpt>
      <trkpt lat="42.97452" lon="2.40248">
        <ele>658</ele>
        <time>2018-05-21T06:58:29Z</time>
      </trkpt>
      <trkpt lat="42.97474" lon="2.4024">
        <ele>657</ele>
        <time>2018-05-21T06:58:40Z</time>
      </trkpt>
      <trkpt lat="42.97492" lon="2.4022">
        <ele>654</ele>
        <time>2018-05-21T06:58:52Z</time>
      </trkpt>
      <trkpt lat="42.97506" lon="2.40246">
        <ele>654</ele>
        <time>2018-05-21T06:59:06Z</time>
      </trkpt>
      <trkpt lat="42.97498" lon="2.40276">
        <ele>654</ele>
        <time>2018-05-21T06:59:17Z</time>
      </trkpt>
      <trkpt lat="42.9745" lon="2.40349">
        <ele>657</ele>
        <time>2018-05-21T06:59:50Z</time>
      </trkpt>
      <trkpt lat="42.9743" lon="2.40407">
        <ele>657</ele>
        <time>2018-05-21T07:00:24Z</time>
      </trkpt>
      <trkpt lat="42.97419" lon="2.40434">
        <ele>659</ele>
        <time>2018-05-21T07:00:41Z</time>
      </trkpt>
      <trkpt lat="42.97427" lon="2.40464">
        <ele>662</ele>
        <time>2018-05-21T07:00:54Z</time>
      </trkpt>
      <trkpt lat="42.97452" lon="2.4047">
        <ele>673</ele>
        <time>2018-05-21T07:02:26Z</time>
      </trkpt>
      <trkpt lat="42.97475" lon="2.40461">
        <ele>680</ele>
        <time>2018-05-21T07:07:24Z</time>
      </trkpt>
      <trkpt lat="42.97521" lon="2.40451">
        <ele>681</ele>
        <time>2018-05-21T07:07:44Z</time>
      </trkpt>
      <trkpt lat="42.97544" lon="2.40463">
        <ele>679</ele>
        <time>2018-05-21T07:07:56Z</time>
      </trkpt>
      <trkpt lat="42.97546" lon="2.40494">
        <ele>679</ele>
        <time>2018-05-21T07:08:35Z</time>
      </trkpt>
      <trkpt lat="42.97549" lon="2.40525">
        <ele>679</ele>
        <time>2018-05-21T07:09:13Z</time>
      </trkpt>
      <trkpt lat="42.9757" lon="2.4054">
        <ele>680</ele>
        <time>2018-05-21T07:09:29Z</time>
      </trkpt>
      <trkpt lat="42.97586" lon="2.40565">
        <ele>680</ele>
        <time>2018-05-21T07:09:43Z</time>
      </trkpt>
      <trkpt lat="42.97582" lon="2.40629">
        <ele>684</ele>
        <time>2018-05-21T07:10:06Z</time>
      </trkpt>
      <trkpt lat="42.97588" lon="2.40661">
        <ele>685</ele>
        <time>2018-05-21T07:10:16Z</time>
      </trkpt>
      <trkpt lat="42.97605" lon="2.40684">
        <ele>686</ele>
        <time>2018-05-21T07:10:27Z</time>
      </trkpt>
      <trkpt lat="42.97627" lon="2.40698">
        <ele>687</ele>
        <time>2018-05-21T07:10:38Z</time>
      </trkpt>
      <trkpt lat="42.97651" lon="2.40704">
        <ele>687</ele>
        <time>2018-05-21T07:10:48Z</time>
      </trkpt>
      <trkpt lat="42.97694" lon="2.4068">
        <ele>689</ele>
        <time>2018-05-21T07:11:11Z</time>
      </trkpt>
      <trkpt lat="42.97711" lon="2.40659">
        <ele>689</ele>
        <time>2018-05-21T07:11:21Z</time>
      </trkpt>
      <trkpt lat="42.97748" lon="2.40573">
        <ele>692</ele>
        <time>2018-05-21T07:11:52Z</time>
      </trkpt>
      <trkpt lat="42.97771" lon="2.40448">
        <ele>693</ele>
        <time>2018-05-21T07:12:29Z</time>
      </trkpt>
      <trkpt lat="42.97778" lon="2.40418">
        <ele>694</ele>
        <time>2018-05-21T07:12:43Z</time>
      </trkpt>
      <trkpt lat="42.97793" lon="2.40393">
        <ele>696</ele>
        <time>2018-05-21T07:12:52Z</time>
      </trkpt>
      <trkpt lat="42.97816" lon="2.40382">
        <ele>697</ele>
        <time>2018-05-21T07:13:01Z</time>
      </trkpt>
      <trkpt lat="42.9786" lon="2.40408">
        <ele>698</ele>
        <time>2018-05-21T07:13:19Z</time>
      </trkpt>
      <trkpt lat="42.97872" lon="2.40434">
        <ele>700</ele>
        <time>2018-05-21T07:13:25Z</time>
      </trkpt>
      <trkpt lat="42.97875" lon="2.40467">
        <ele>701</ele>
        <time>2018-05-21T07:13:32Z</time>
      </trkpt>
      <trkpt lat="42.97871" lon="2.40497">
        <ele>703</ele>
        <time>2018-05-21T07:13:38Z</time>
      </trkpt>
      <trkpt lat="42.9786" lon="2.40526">
        <ele>706</ele>
        <time>2018-05-21T07:13:45Z</time>
      </trkpt>
      <trkpt lat="42.97882" lon="2.40585">
        <ele>706</ele>
        <time>2018-05-21T07:14:01Z</time>
      </trkpt>
      <trkpt lat="42.97901" lon="2.40606">
        <ele>706</ele>
        <time>2018-05-21T07:14:07Z</time>
      </trkpt>
      <trkpt lat="42.97924" lon="2.40616">
        <ele>706</ele>
        <time>2018-05-21T07:14:13Z</time>
      </trkpt>
      <trkpt lat="42.97945" lon="2.40628">
        <ele>707</ele>
        <time>2018-05-21T07:14:20Z</time>
      </trkpt>
      <trkpt lat="42.97951" lon="2.40658">
        <ele>708</ele>
        <time>2018-05-21T07:14:27Z</time>
      </trkpt>
      <trkpt lat="42.9794" lon="2.40686">
        <ele>709</ele>
        <time>2018-05-21T07:14:32Z</time>
      </trkpt>
      <trkpt lat="42.97938" lon="2.40749">
        <ele>710</ele>
        <time>2018-05-21T07:14:44Z</time>
      </trkpt>
      <trkpt lat="42.97936" lon="2.40781">
        <ele>710</ele>
        <time>2018-05-21T07:14:50Z</time>
      </trkpt>
      <trkpt lat="42.97916" lon="2.40799">
        <ele>711</ele>
        <time>2018-05-21T07:14:56Z</time>
      </trkpt>
      <trkpt lat="42.97894" lon="2.40783">
        <ele>712</ele>
        <time>2018-05-21T07:15:01Z</time>
      </trkpt>
      <trkpt lat="42.97871" lon="2.40783">
        <ele>713</ele>
        <time>2018-05-21T07:15:07Z</time>
      </trkpt>
      <trkpt lat="42.9785" lon="2.40796">
        <ele>713</ele>
        <time>2018-05-21T07:15:13Z</time>
      </trkpt>
      <trkpt lat="42.97835" lon="2.4082">
        <ele>714</ele>
        <time>2018-05-21T07:15:19Z</time>
      </trkpt>
      <trkpt lat="42.97822" lon="2.40849">
        <ele>715</ele>
        <time>2018-05-21T07:15:26Z</time>
      </trkpt>
      <trkpt lat="42.97818" lon="2.40884">
        <ele>716</ele>
        <time>2018-05-21T07:15:33Z</time>
      </trkpt>
      <trkpt lat="42.97822" lon="2.40916">
        <ele>717</ele>
        <time>2018-05-21T07:15:39Z</time>
      </trkpt>
      <trkpt lat="42.97837" lon="2.40945">
        <ele>718</ele>
        <time>2018-05-21T07:15:46Z</time>
      </trkpt>
      <trkpt lat="42.97857" lon="2.40959">
        <ele>718</ele>
        <time>2018-05-21T07:15:53Z</time>
      </trkpt>
      <trkpt lat="42.97882" lon="2.40949">
        <ele>717</ele>
        <time>2018-05-21T07:16:00Z</time>
      </trkpt>
      <trkpt lat="42.97905" lon="2.40957">
        <ele>717</ele>
        <time>2018-05-21T07:16:07Z</time>
      </trkpt>
      <trkpt lat="42.97931" lon="2.40961">
        <ele>717</ele>
        <time>2018-05-21T07:16:15Z</time>
      </trkpt>
      <trkpt lat="42.98021" lon="2.40918">
        <ele>718</ele>
        <time>2018-05-21T07:16:45Z</time>
      </trkpt>
      <trkpt lat="42.98043" lon="2.40919">
        <ele>718</ele>
        <time>2018-05-21T07:16:52Z</time>
      </trkpt>
      <trkpt lat="42.98066" lon="2.40932">
        <ele>718</ele>
        <time>2018-05-21T07:16:59Z</time>
      </trkpt>
      <trkpt lat="42.98077" lon="2.4096">
        <ele>719</ele>
        <time>2018-05-21T07:17:05Z</time>
      </trkpt>
      <trkpt lat="42.98071" lon="2.40994">
        <ele>719</ele>
        <time>2018-05-21T07:17:11Z</time>
      </trkpt>
      <trkpt lat="42.9804" lon="2.41041">
        <ele>719</ele>
        <time>2018-05-21T07:17:22Z</time>
      </trkpt>
      <trkpt lat="42.9796" lon="2.41122">
        <ele>722</ele>
        <time>2018-05-21T07:17:49Z</time>
      </trkpt>
      <trkpt lat="42.97942" lon="2.41141">
        <ele>726</ele>
        <time>2018-05-21T07:18:52Z</time>
      </trkpt>
      <trkpt lat="42.9793" lon="2.41171">
        <ele>726</ele>
        <time>2018-05-21T07:18:59Z</time>
      </trkpt>
      <trkpt lat="42.97925" lon="2.41203">
        <ele>726</ele>
        <time>2018-05-21T07:19:05Z</time>
      </trkpt>
      <trkpt lat="42.97933" lon="2.41237">
        <ele>726</ele>
        <time>2018-05-21T07:19:12Z</time>
      </trkpt>
      <trkpt lat="42.97954" lon="2.41252">
        <ele>725</ele>
        <time>2018-05-21T07:19:18Z</time>
      </trkpt>
      <trkpt lat="42.98032" lon="2.41234">
        <ele>724</ele>
        <time>2018-05-21T07:19:31Z</time>
      </trkpt>
      <trkpt lat="42.98098" lon="2.4118">
        <ele>721</ele>
        <time>2018-05-21T07:19:42Z</time>
      </trkpt>
      <trkpt lat="42.98117" lon="2.41163">
        <ele>717</ele>
        <time>2018-05-21T07:19:46Z</time>
      </trkpt>
      <trkpt lat="42.98139" lon="2.4116">
        <ele>716</ele>
        <time>2018-05-21T07:19:50Z</time>
      </trkpt>
      <trkpt lat="42.98162" lon="2.41171">
        <ele>716</ele>
        <time>2018-05-21T07:19:55Z</time>
      </trkpt>
      <trkpt lat="42.9816" lon="2.41268">
        <ele>715</ele>
        <time>2018-05-21T07:20:25Z</time>
      </trkpt>
      <trkpt lat="42.98154" lon="2.41299">
        <ele>715</ele>
        <time>2018-05-21T07:20:36Z</time>
      </trkpt>
      <trkpt lat="42.98149" lon="2.41331">
        <ele>715</ele>
        <time>2018-05-21T07:20:48Z</time>
      </trkpt>
      <trkpt lat="42.98159" lon="2.41395">
        <ele>718</ele>
        <time>2018-05-21T07:21:11Z</time>
      </trkpt>
      <trkpt lat="42.98156" lon="2.41427">
        <ele>720</ele>
        <time>2018-05-21T07:21:22Z</time>
      </trkpt>
      <trkpt lat="42.98147" lon="2.41456">
        <ele>721</ele>
        <time>2018-05-21T07:21:33Z</time>
      </trkpt>
      <trkpt lat="42.98151" lon="2.41488">
        <ele>723</ele>
        <time>2018-05-21T07:21:43Z</time>
      </trkpt>
      <trkpt lat="42.98175" lon="2.4149">
        <ele>725</ele>
        <time>2018-05-21T07:21:55Z</time>
      </trkpt>
      <trkpt lat="42.98207" lon="2.41435">
        <ele>729</ele>
        <time>2018-05-21T07:22:30Z</time>
      </trkpt>
      <trkpt lat="42.98232" lon="2.41421">
        <ele>730</ele>
        <time>2018-05-21T07:22:36Z</time>
      </trkpt>
      <trkpt lat="42.98279" lon="2.41424">
        <ele>731</ele>
        <time>2018-05-21T07:22:43Z</time>
      </trkpt>
      <trkpt lat="42.98303" lon="2.41428">
        <ele>731</ele>
        <time>2018-05-21T07:22:47Z</time>
      </trkpt>
      <trkpt lat="42.98324" lon="2.41446">
        <ele>730</ele>
        <time>2018-05-21T07:22:51Z</time>
      </trkpt>
      <trkpt lat="42.98341" lon="2.41477">
        <ele>730</ele>
        <time>2018-05-21T07:22:55Z</time>
      </trkpt>
      <trkpt lat="42.98342" lon="2.41514">
        <ele>729</ele>
        <time>2018-05-21T07:22:59Z</time>
      </trkpt>
      <trkpt lat="42.98302" lon="2.41606">
        <ele>726</ele>
        <time>2018-05-21T07:23:10Z</time>
      </trkpt>
      <trkpt lat="42.98285" lon="2.41637">
        <ele>725</ele>
        <time>2018-05-21T07:23:14Z</time>
      </trkpt>
      <trkpt lat="42.98266" lon="2.41668">
        <ele>724</ele>
        <time>2018-05-21T07:23:18Z</time>
      </trkpt>
      <trkpt lat="42.98255" lon="2.41743">
        <ele>721</ele>
        <time>2018-05-21T07:23:26Z</time>
      </trkpt>
      <trkpt lat="42.98287" lon="2.41951">
        <ele>713</ele>
        <time>2018-05-21T07:23:49Z</time>
      </trkpt>
      <trkpt lat="42.98311" lon="2.41973">
        <ele>712</ele>
        <time>2018-05-21T07:23:53Z</time>
      </trkpt>
      <trkpt lat="42.98331" lon="2.41956">
        <ele>711</ele>
        <time>2018-05-21T07:23:56Z</time>
      </trkpt>
      <trkpt lat="42.98347" lon="2.41922">
        <ele>710</ele>
        <time>2018-05-21T07:24:00Z</time>
      </trkpt>
      <trkpt lat="42.98357" lon="2.41889">
        <ele>710</ele>
        <time>2018-05-21T07:24:04Z</time>
      </trkpt>
      <trkpt lat="42.98368" lon="2.41857">
        <ele>709</ele>
        <time>2018-05-21T07:24:08Z</time>
      </trkpt>
      <trkpt lat="42.98392" lon="2.41834">
        <ele>707</ele>
        <time>2018-05-21T07:24:12Z</time>
      </trkpt>
      <trkpt lat="42.98445" lon="2.41844">
        <ele>705</ele>
        <time>2018-05-21T07:24:20Z</time>
      </trkpt>
      <trkpt lat="42.98472" lon="2.41836">
        <ele>704</ele>
        <time>2018-05-21T07:24:24Z</time>
      </trkpt>
      <trkpt lat="42.98496" lon="2.41838">
        <ele>703</ele>
        <time>2018-05-21T07:24:27Z</time>
      </trkpt>
      <trkpt lat="42.98514" lon="2.41859">
        <ele>702</ele>
        <time>2018-05-21T07:24:30Z</time>
      </trkpt>
      <trkpt lat="42.98522" lon="2.41888">
        <ele>701</ele>
        <time>2018-05-21T07:24:33Z</time>
      </trkpt>
      <trkpt lat="42.98514" lon="2.41994">
        <ele>699</ele>
        <time>2018-05-21T07:24:44Z</time>
      </trkpt>
      <trkpt lat="42.98572" lon="2.42068">
        <ele>698</ele>
        <time>2018-05-21T07:24:55Z</time>
      </trkpt>
      <trkpt lat="42.98582" lon="2.42096">
        <ele>697</ele>
        <time>2018-05-21T07:24:58Z</time>
      </trkpt>
      <trkpt lat="42.98568" lon="2.42157">
        <ele>696</ele>
        <time>2018-05-21T07:25:04Z</time>
      </trkpt>
      <trkpt lat="42.98574" lon="2.42192">
        <ele>695</ele>
        <time>2018-05-21T07:25:08Z</time>
      </trkpt>
      <trkpt lat="42.98594" lon="2.42223">
        <ele>694</ele>
        <time>2018-05-21T07:25:12Z</time>
      </trkpt>
      <trkpt lat="42.98604" lon="2.42261">
        <ele>692</ele>
        <time>2018-05-21T07:25:16Z</time>
      </trkpt>
      <trkpt lat="42.98595" lon="2.42292">
        <ele>691</ele>
        <time>2018-05-21T07:25:20Z</time>
      </trkpt>
      <trkpt lat="42.98572" lon="2.42299">
        <ele>690</ele>
        <time>2018-05-21T07:25:28Z</time>
      </trkpt>
      <trkpt lat="42.98559" lon="2.42326">
        <ele>688</ele>
        <time>2018-05-21T07:25:38Z</time>
      </trkpt>
      <trkpt lat="42.98555" lon="2.42422">
        <ele>685</ele>
        <time>2018-05-21T07:26:15Z</time>
      </trkpt>
      <trkpt lat="42.98555" lon="2.42455">
        <ele>685</ele>
        <time>2018-05-21T07:26:27Z</time>
      </trkpt>
      <trkpt lat="42.98559" lon="2.42487">
        <ele>685</ele>
        <time>2018-05-21T07:26:39Z</time>
      </trkpt>
      <trkpt lat="42.98551" lon="2.42517">
        <ele>686</ele>
        <time>2018-05-21T07:26:52Z</time>
      </trkpt>
      <trkpt lat="42.98551" lon="2.42548">
        <ele>687</ele>
        <time>2018-05-21T07:27:06Z</time>
      </trkpt>
      <trkpt lat="42.98532" lon="2.42639">
        <ele>691</ele>
        <time>2018-05-21T07:27:43Z</time>
      </trkpt>
      <trkpt lat="42.98527" lon="2.42702">
        <ele>694</ele>
        <time>2018-05-21T07:28:08Z</time>
      </trkpt>
      <trkpt lat="42.98545" lon="2.42796">
        <ele>700</ele>
        <time>2018-05-21T07:28:42Z</time>
      </trkpt>
      <trkpt lat="42.98542" lon="2.42861">
        <ele>703</ele>
        <time>2018-05-21T07:29:08Z</time>
      </trkpt>
      <trkpt lat="42.98549" lon="2.42891">
        <ele>706</ele>
        <time>2018-05-21T07:29:20Z</time>
      </trkpt>
      <trkpt lat="42.98565" lon="2.42912">
        <ele>708</ele>
        <time>2018-05-21T07:29:33Z</time>
      </trkpt>
      <trkpt lat="42.98588" lon="2.4291">
        <ele>710</ele>
        <time>2018-05-21T07:31:48Z</time>
      </trkpt>
      <trkpt lat="42.9861" lon="2.42921">
        <ele>712</ele>
        <time>2018-05-21T07:31:55Z</time>
      </trkpt>
      <trkpt lat="42.98629" lon="2.42943">
        <ele>712</ele>
        <time>2018-05-21T07:32:01Z</time>
      </trkpt>
      <trkpt lat="42.98635" lon="2.42977">
        <ele>712</ele>
        <time>2018-05-21T07:32:05Z</time>
      </trkpt>
      <trkpt lat="42.98629" lon="2.43009">
        <ele>712</ele>
        <time>2018-05-21T07:32:09Z</time>
      </trkpt>
      <trkpt lat="42.9862" lon="2.43038">
        <ele>712</ele>
        <time>2018-05-21T07:32:13Z</time>
      </trkpt>
      <trkpt lat="42.98613" lon="2.43071">
        <ele>711</ele>
        <time>2018-05-21T07:32:17Z</time>
      </trkpt>
      <trkpt lat="42.98618" lon="2.43104">
        <ele>711</ele>
        <time>2018-05-21T07:32:21Z</time>
      </trkpt>
      <trkpt lat="42.98636" lon="2.43128">
        <ele>710</ele>
        <time>2018-05-21T07:32:25Z</time>
      </trkpt>
      <trkpt lat="42.9865" lon="2.43159">
        <ele>709</ele>
        <time>2018-05-21T07:32:29Z</time>
      </trkpt>
      <trkpt lat="42.98645" lon="2.43253">
        <ele>706</ele>
        <time>2018-05-21T07:32:38Z</time>
      </trkpt>
      <trkpt lat="42.98652" lon="2.43289">
        <ele>705</ele>
        <time>2018-05-21T07:32:42Z</time>
      </trkpt>
      <trkpt lat="42.98633" lon="2.43304">
        <ele>704</ele>
        <time>2018-05-21T07:32:46Z</time>
      </trkpt>
      <trkpt lat="42.98619" lon="2.43273">
        <ele>703</ele>
        <time>2018-05-21T07:32:49Z</time>
      </trkpt>
      <trkpt lat="42.98615" lon="2.43239">
        <ele>700</ele>
        <time>2018-05-21T07:32:53Z</time>
      </trkpt>
      <trkpt lat="42.98613" lon="2.43206">
        <ele>699</ele>
        <time>2018-05-21T07:32:57Z</time>
      </trkpt>
      <trkpt lat="42.98592" lon="2.43221">
        <ele>698</ele>
        <time>2018-05-21T07:32:58Z</time>
      </trkpt>
      <trkpt lat="42.98569" lon="2.4323">
        <ele>698</ele>
        <time>2018-05-21T07:33:03Z</time>
      </trkpt>
      <trkpt lat="42.98494" lon="2.43312">
        <ele>696</ele>
        <time>2018-05-21T07:33:42Z</time>
      </trkpt>
      <trkpt lat="42.98481" lon="2.43338">
        <ele>695</ele>
        <time>2018-05-21T07:33:53Z</time>
      </trkpt>
      <trkpt lat="42.98498" lon="2.43315">
        <ele>698</ele>
        <time>2018-05-21T07:38:21Z</time>
      </trkpt>
      <trkpt lat="42.98516" lon="2.43293">
        <ele>694</ele>
        <time>2018-05-21T07:38:26Z</time>
      </trkpt>
      <trkpt lat="42.98575" lon="2.4323">
        <ele>692</ele>
        <time>2018-05-21T07:38:38Z</time>
      </trkpt>
      <trkpt lat="42.98597" lon="2.43217">
        <ele>692</ele>
        <time>2018-05-21T07:38:43Z</time>
      </trkpt>
      <trkpt lat="42.98573" lon="2.43213">
        <ele>692</ele>
        <time>2018-05-21T07:38:48Z</time>
      </trkpt>
      <trkpt lat="42.98483" lon="2.43278">
        <ele>690</ele>
        <time>2018-05-21T07:39:04Z</time>
      </trkpt>
      <trkpt lat="42.98463" lon="2.43299">
        <ele>689</ele>
        <time>2018-05-21T07:39:07Z</time>
      </trkpt>
      <trkpt lat="42.98444" lon="2.43328">
        <ele>688</ele>
        <time>2018-05-21T07:39:11Z</time>
      </trkpt>
      <trkpt lat="42.98432" lon="2.43356">
        <ele>687</ele>
        <time>2018-05-21T07:39:14Z</time>
      </trkpt>
      <trkpt lat="42.98428" lon="2.43392">
        <ele>686</ele>
        <time>2018-05-21T07:39:17Z</time>
      </trkpt>
      <trkpt lat="42.98418" lon="2.43425">
        <ele>685</ele>
        <time>2018-05-21T07:39:20Z</time>
      </trkpt>
      <trkpt lat="42.98391" lon="2.43421">
        <ele>684</ele>
        <time>2018-05-21T07:39:23Z</time>
      </trkpt>
      <trkpt lat="42.98341" lon="2.434">
        <ele>679</ele>
        <time>2018-05-21T07:39:29Z</time>
      </trkpt>
      <trkpt lat="42.98287" lon="2.43399">
        <ele>673</ele>
        <time>2018-05-21T07:39:36Z</time>
      </trkpt>
      <trkpt lat="42.98262" lon="2.43401">
        <ele>661</ele>
        <time>2018-05-21T07:42:25Z</time>
      </trkpt>
      <trkpt lat="42.98236" lon="2.4341">
        <ele>656</ele>
        <time>2018-05-21T07:42:32Z</time>
      </trkpt>
      <trkpt lat="42.98171" lon="2.43461">
        <ele>654</ele>
        <time>2018-05-21T07:42:43Z</time>
      </trkpt>
      <trkpt lat="42.98155" lon="2.43496">
        <ele>654</ele>
        <time>2018-05-21T07:42:47Z</time>
      </trkpt>
      <trkpt lat="42.98142" lon="2.43567">
        <ele>653</ele>
        <time>2018-05-21T07:42:54Z</time>
      </trkpt>
      <trkpt lat="42.98113" lon="2.43565">
        <ele>652</ele>
        <time>2018-05-21T07:42:59Z</time>
      </trkpt>
      <trkpt lat="42.98069" lon="2.43538">
        <ele>650</ele>
        <time>2018-05-21T07:43:06Z</time>
      </trkpt>
      <trkpt lat="42.98015" lon="2.43541">
        <ele>647</ele>
        <time>2018-05-21T07:43:13Z</time>
      </trkpt>
      <trkpt lat="42.97968" lon="2.43579">
        <ele>645</ele>
        <time>2018-05-21T07:43:19Z</time>
      </trkpt>
      <trkpt lat="42.97951" lon="2.43608">
        <ele>644</ele>
        <time>2018-05-21T07:43:22Z</time>
      </trkpt>
      <trkpt lat="42.97952" lon="2.43645">
        <ele>644</ele>
        <time>2018-05-21T07:43:25Z</time>
      </trkpt>
      <trkpt lat="42.97939" lon="2.43676">
        <ele>643</ele>
        <time>2018-05-21T07:43:29Z</time>
      </trkpt>
      <trkpt lat="42.97918" lon="2.43651">
        <ele>642</ele>
        <time>2018-05-21T07:43:33Z</time>
      </trkpt>
      <trkpt lat="42.97864" lon="2.43524">
        <ele>638</ele>
        <time>2018-05-21T07:43:45Z</time>
      </trkpt>
      <trkpt lat="42.97811" lon="2.43486">
        <ele>636</ele>
        <time>2018-05-21T07:43:51Z</time>
      </trkpt>
      <trkpt lat="42.97785" lon="2.43487">
        <ele>635</ele>
        <time>2018-05-21T07:43:54Z</time>
      </trkpt>
      <trkpt lat="42.97732" lon="2.4351">
        <ele>631</ele>
        <time>2018-05-21T07:44:00Z</time>
      </trkpt>
      <trkpt lat="42.97653" lon="2.43562">
        <ele>625</ele>
        <time>2018-05-21T07:44:09Z</time>
      </trkpt>
      <trkpt lat="42.97633" lon="2.43587">
        <ele>623</ele>
        <time>2018-05-21T07:44:12Z</time>
      </trkpt>
      <trkpt lat="42.97634" lon="2.43629">
        <ele>623</ele>
        <time>2018-05-21T07:44:15Z</time>
      </trkpt>
      <trkpt lat="42.97649" lon="2.43743">
        <ele>621</ele>
        <time>2018-05-21T07:44:24Z</time>
      </trkpt>
      <trkpt lat="42.97639" lon="2.43775">
        <ele>620</ele>
        <time>2018-05-21T07:44:28Z</time>
      </trkpt>
      <trkpt lat="42.97545" lon="2.43667">
        <ele>616</ele>
        <time>2018-05-21T07:44:42Z</time>
      </trkpt>
      <trkpt lat="42.97522" lon="2.43652">
        <ele>614</ele>
        <time>2018-05-21T07:44:45Z</time>
      </trkpt>
      <trkpt lat="42.97496" lon="2.43651">
        <ele>612</ele>
        <time>2018-05-21T07:44:48Z</time>
      </trkpt>
      <trkpt lat="42.97446" lon="2.43676">
        <ele>608</ele>
        <time>2018-05-21T07:44:54Z</time>
      </trkpt>
      <trkpt lat="42.97248" lon="2.43855">
        <ele>588</ele>
        <time>2018-05-21T07:45:21Z</time>
      </trkpt>
      <trkpt lat="42.97169" lon="2.43994">
        <ele>584</ele>
        <time>2018-05-21T07:45:36Z</time>
      </trkpt>
      <trkpt lat="42.97172" lon="2.44032">
        <ele>584</ele>
        <time>2018-05-21T07:45:39Z</time>
      </trkpt>
      <trkpt lat="42.97167" lon="2.44065">
        <ele>584</ele>
        <time>2018-05-21T07:45:42Z</time>
      </trkpt>
      <trkpt lat="42.97138" lon="2.44115">
        <ele>583</ele>
        <time>2018-05-21T07:45:48Z</time>
      </trkpt>
      <trkpt lat="42.97114" lon="2.44114">
        <ele>582</ele>
        <time>2018-05-21T07:45:52Z</time>
      </trkpt>
      <trkpt lat="42.97096" lon="2.44009">
        <ele>579</ele>
        <time>2018-05-21T07:46:02Z</time>
      </trkpt>
      <trkpt lat="42.97083" lon="2.4397">
        <ele>577</ele>
        <time>2018-05-21T07:46:06Z</time>
      </trkpt>
      <trkpt lat="42.96991" lon="2.43888">
        <ele>569</ele>
        <time>2018-05-21T07:46:18Z</time>
      </trkpt>
      <trkpt lat="42.96965" lon="2.43883">
        <ele>567</ele>
        <time>2018-05-21T07:46:21Z</time>
      </trkpt>
      <trkpt lat="42.96909" lon="2.43905">
        <ele>562</ele>
        <time>2018-05-21T07:46:27Z</time>
      </trkpt>
      <trkpt lat="42.96835" lon="2.43957">
        <ele>555</ele>
        <time>2018-05-21T07:46:36Z</time>
      </trkpt>
      <trkpt lat="42.96789" lon="2.44001">
        <ele>552</ele>
        <time>2018-05-21T07:46:42Z</time>
      </trkpt>
      <trkpt lat="42.96672" lon="2.44166">
        <ele>542</ele>
        <time>2018-05-21T07:47:00Z</time>
      </trkpt>
      <trkpt lat="42.96667" lon="2.44202">
        <ele>540</ele>
        <time>2018-05-21T07:47:03Z</time>
      </trkpt>
      <trkpt lat="42.96677" lon="2.44237">
        <ele>538</ele>
        <time>2018-05-21T07:47:06Z</time>
      </trkpt>
      <trkpt lat="42.96673" lon="2.44269">
        <ele>537</ele>
        <time>2018-05-21T07:47:10Z</time>
      </trkpt>
      <trkpt lat="42.96464" lon="2.44521">
        <ele>525</ele>
        <time>2018-05-21T07:47:41Z</time>
      </trkpt>
      <trkpt lat="42.96447" lon="2.44549">
        <ele>523</ele>
        <time>2018-05-21T07:47:44Z</time>
      </trkpt>
      <trkpt lat="42.96388" lon="2.44774">
        <ele>517</ele>
        <time>2018-05-21T07:48:06Z</time>
      </trkpt>
      <trkpt lat="42.9639" lon="2.44886">
        <ele>517</ele>
        <time>2018-05-21T07:48:17Z</time>
      </trkpt>
      <trkpt lat="42.96373" lon="2.44962">
        <ele>515</ele>
        <time>2018-05-21T07:48:25Z</time>
      </trkpt>
      <trkpt lat="42.96365" lon="2.44996">
        <ele>514</ele>
        <time>2018-05-21T07:48:29Z</time>
      </trkpt>
      <trkpt lat="42.96367" lon="2.45069">
        <ele>510</ele>
        <time>2018-05-21T07:48:37Z</time>
      </trkpt>
      <trkpt lat="42.96359" lon="2.45104">
        <ele>509</ele>
        <time>2018-05-21T07:48:42Z</time>
      </trkpt>
      <trkpt lat="42.96325" lon="2.4515">
        <ele>506</ele>
        <time>2018-05-21T07:48:50Z</time>
      </trkpt>
      <trkpt lat="42.96287" lon="2.45243">
        <ele>503</ele>
        <time>2018-05-21T07:49:01Z</time>
      </trkpt>
      <trkpt lat="42.96298" lon="2.45277">
        <ele>502</ele>
        <time>2018-05-21T07:49:06Z</time>
      </trkpt>
      <trkpt lat="42.96276" lon="2.4556">
        <ele>497</ele>
        <time>2018-05-21T07:49:37Z</time>
      </trkpt>
      <trkpt lat="42.96282" lon="2.4563">
        <ele>496</ele>
        <time>2018-05-21T07:49:45Z</time>
      </trkpt>
      <trkpt lat="42.96293" lon="2.45663">
        <ele>495</ele>
        <time>2018-05-21T07:49:49Z</time>
      </trkpt>
      <trkpt lat="42.96309" lon="2.45689">
        <ele>493</ele>
        <time>2018-05-21T07:49:53Z</time>
      </trkpt>
      <trkpt lat="42.96396" lon="2.4574">
        <ele>487</ele>
        <time>2018-05-21T07:50:09Z</time>
      </trkpt>
      <trkpt lat="42.96417" lon="2.45757">
        <ele>486</ele>
        <time>2018-05-21T07:50:13Z</time>
      </trkpt>
      <trkpt lat="42.96432" lon="2.45785">
        <ele>485</ele>
        <time>2018-05-21T07:50:17Z</time>
      </trkpt>
      <trkpt lat="42.96418" lon="2.45922">
        <ele>483</ele>
        <time>2018-05-21T07:50:31Z</time>
      </trkpt>
      <trkpt lat="42.96456" lon="2.46011">
        <ele>479</ele>
        <time>2018-05-21T07:50:42Z</time>
      </trkpt>
      <trkpt lat="42.96459" lon="2.46043">
        <ele>478</ele>
        <time>2018-05-21T07:50:45Z</time>
      </trkpt>
      <trkpt lat="42.9645" lon="2.46104">
        <ele>475</ele>
        <time>2018-05-21T07:50:51Z</time>
      </trkpt>
      <trkpt lat="42.96433" lon="2.4613">
        <ele>474</ele>
        <time>2018-05-21T07:50:54Z</time>
      </trkpt>
      <trkpt lat="42.96377" lon="2.46141">
        <ele>472</ele>
        <time>2018-05-21T07:51:00Z</time>
      </trkpt>
      <trkpt lat="42.96352" lon="2.46235">
        <ele>468</ele>
        <time>2018-05-21T07:51:11Z</time>
      </trkpt>
      <trkpt lat="42.96344" lon="2.46375">
        <ele>463</ele>
        <time>2018-05-21T07:51:25Z</time>
      </trkpt>
      <trkpt lat="42.9633" lon="2.46439">
        <ele>461</ele>
        <time>2018-05-21T07:51:32Z</time>
      </trkpt>
      <trkpt lat="42.96318" lon="2.46473">
        <ele>461</ele>
        <time>2018-05-21T07:51:35Z</time>
      </trkpt>
      <trkpt lat="42.96327" lon="2.46502">
        <ele>462</ele>
        <time>2018-05-21T07:51:38Z</time>
      </trkpt>
      <trkpt lat="42.9632" lon="2.46537">
        <ele>462</ele>
        <time>2018-05-21T07:51:42Z</time>
      </trkpt>
      <trkpt lat="42.96287" lon="2.46605">
        <ele>461</ele>
        <time>2018-05-21T07:51:50Z</time>
      </trkpt>
      <trkpt lat="42.96267" lon="2.46675">
        <ele>459</ele>
        <time>2018-05-21T07:51:58Z</time>
      </trkpt>
      <trkpt lat="42.96219" lon="2.46744">
        <ele>457</ele>
        <time>2018-05-21T07:52:07Z</time>
      </trkpt>
      <trkpt lat="42.96172" lon="2.46913">
        <ele>452</ele>
        <time>2018-05-21T07:52:25Z</time>
      </trkpt>
      <trkpt lat="42.96162" lon="2.4699">
        <ele>450</ele>
        <time>2018-05-21T07:52:33Z</time>
      </trkpt>
      <trkpt lat="42.96132" lon="2.4708">
        <ele>448</ele>
        <time>2018-05-21T07:52:42Z</time>
      </trkpt>
      <trkpt lat="42.96127" lon="2.47114">
        <ele>447</ele>
        <time>2018-05-21T07:52:45Z</time>
      </trkpt>
      <trkpt lat="42.96085" lon="2.47193">
        <ele>443</ele>
        <time>2018-05-21T07:52:54Z</time>
      </trkpt>
      <trkpt lat="42.96068" lon="2.47215">
        <ele>440</ele>
        <time>2018-05-21T07:52:57Z</time>
      </trkpt>
      <trkpt lat="42.96043" lon="2.47229">
        <ele>437</ele>
        <time>2018-05-21T07:53:01Z</time>
      </trkpt>
      <trkpt lat="42.96019" lon="2.47224">
        <ele>434</ele>
        <time>2018-05-21T07:53:04Z</time>
      </trkpt>
      <trkpt lat="42.95998" lon="2.47212">
        <ele>433</ele>
        <time>2018-05-21T07:53:07Z</time>
      </trkpt>
      <trkpt lat="42.95978" lon="2.47233">
        <ele>432</ele>
        <time>2018-05-21T07:53:12Z</time>
      </trkpt>
      <trkpt lat="42.95985" lon="2.47269">
        <ele>430</ele>
        <time>2018-05-21T07:53:16Z</time>
      </trkpt>
      <trkpt lat="42.95979" lon="2.47308">
        <ele>429</ele>
        <time>2018-05-21T07:53:20Z</time>
      </trkpt>
      <trkpt lat="42.95881" lon="2.4743">
        <ele>425</ele>
        <time>2018-05-21T07:53:37Z</time>
      </trkpt>
      <trkpt lat="42.95867" lon="2.47464">
        <ele>424</ele>
        <time>2018-05-21T07:53:41Z</time>
      </trkpt>
      <trkpt lat="42.95844" lon="2.47528">
        <ele>423</ele>
        <time>2018-05-21T07:53:48Z</time>
      </trkpt>
      <trkpt lat="42.95826" lon="2.47549">
        <ele>421</ele>
        <time>2018-05-21T07:55:10Z</time>
      </trkpt>
      <trkpt lat="42.95817" lon="2.47583">
        <ele>423</ele>
        <time>2018-05-21T07:55:15Z</time>
      </trkpt>
      <trkpt lat="42.95813" lon="2.47614">
        <ele>423</ele>
        <time>2018-05-21T07:55:19Z</time>
      </trkpt>
      <trkpt lat="42.95798" lon="2.47643">
        <ele>422</ele>
        <time>2018-05-21T07:55:23Z</time>
      </trkpt>
      <trkpt lat="42.95791" lon="2.47674">
        <ele>421</ele>
        <time>2018-05-21T07:55:26Z</time>
      </trkpt>
      <trkpt lat="42.95737" lon="2.47755">
        <ele>422</ele>
        <time>2018-05-21T07:55:37Z</time>
      </trkpt>
      <trkpt lat="42.95699" lon="2.47952">
        <ele>412</ele>
        <time>2018-05-21T07:55:56Z</time>
      </trkpt>
      <trkpt lat="42.95689" lon="2.48018">
        <ele>408</ele>
        <time>2018-05-21T07:56:02Z</time>
      </trkpt>
      <trkpt lat="42.95652" lon="2.48151">
        <ele>404</ele>
        <time>2018-05-21T07:56:15Z</time>
      </trkpt>
      <trkpt lat="42.9562" lon="2.4822">
        <ele>402</ele>
        <time>2018-05-21T07:56:21Z</time>
      </trkpt>
      <trkpt lat="42.95629" lon="2.4829">
        <ele>398</ele>
        <time>2018-05-21T07:56:27Z</time>
      </trkpt>
      <trkpt lat="42.95619" lon="2.48331">
        <ele>396</ele>
        <time>2018-05-21T07:56:31Z</time>
      </trkpt>
      <trkpt lat="42.95608" lon="2.484">
        <ele>392</ele>
        <time>2018-05-21T07:56:37Z</time>
      </trkpt>
      <trkpt lat="42.95548" lon="2.48464">
        <ele>387</ele>
        <time>2018-05-21T07:56:48Z</time>
      </trkpt>
      <trkpt lat="42.95528" lon="2.48524">
        <ele>386</ele>
        <time>2018-05-21T08:00:17Z</time>
      </trkpt>
      <trkpt lat="42.95528" lon="2.4859">
        <ele>389</ele>
        <time>2018-05-21T08:00:27Z</time>
      </trkpt>
      <trkpt lat="42.95528" lon="2.48732">
        <ele>384</ele>
        <time>2018-05-21T08:00:47Z</time>
      </trkpt>
      <trkpt lat="42.95512" lon="2.48805">
        <ele>382</ele>
        <time>2018-05-21T08:00:55Z</time>
      </trkpt>
      <trkpt lat="42.95495" lon="2.48865">
        <ele>382</ele>
        <time>2018-05-21T08:01:01Z</time>
      </trkpt>
      <trkpt lat="42.9549" lon="2.49027">
        <ele>377</ele>
        <time>2018-05-21T08:01:16Z</time>
      </trkpt>
      <trkpt lat="42.95505" lon="2.49198">
        <ele>370</ele>
        <time>2018-05-21T08:01:31Z</time>
      </trkpt>
      <trkpt lat="42.95515" lon="2.49226">
        <ele>370</ele>
        <time>2018-05-21T08:01:34Z</time>
      </trkpt>
      <trkpt lat="42.95578" lon="2.49325">
        <ele>368</ele>
        <time>2018-05-21T08:01:46Z</time>
      </trkpt>
      <trkpt lat="42.95595" lon="2.49394">
        <ele>368</ele>
        <time>2018-05-21T08:01:52Z</time>
      </trkpt>
      <trkpt lat="42.95592" lon="2.49431">
        <ele>368</ele>
        <time>2018-05-21T08:01:56Z</time>
      </trkpt>
      <trkpt lat="42.95567" lon="2.49446">
        <ele>368</ele>
        <time>2018-05-21T08:01:59Z</time>
      </trkpt>
      <trkpt lat="42.95538" lon="2.49454">
        <ele>367</ele>
        <time>2018-05-21T08:02:02Z</time>
      </trkpt>
      <trkpt lat="42.95541" lon="2.49523">
        <ele>366</ele>
        <time>2018-05-21T08:02:10Z</time>
      </trkpt>
      <trkpt lat="42.95558" lon="2.49545">
        <ele>365</ele>
        <time>2018-05-21T08:02:15Z</time>
      </trkpt>
      <trkpt lat="42.95632" lon="2.4952">
        <ele>365</ele>
        <time>2018-05-21T08:02:31Z</time>
      </trkpt>
      <trkpt lat="42.95654" lon="2.4954">
        <ele>365</ele>
        <time>2018-05-21T08:02:35Z</time>
      </trkpt>
      <trkpt lat="42.95679" lon="2.49545">
        <ele>365</ele>
        <time>2018-05-21T08:02:39Z</time>
      </trkpt>
      <trkpt lat="42.95704" lon="2.49534">
        <ele>365</ele>
        <time>2018-05-21T08:02:44Z</time>
      </trkpt>
      <trkpt lat="42.95755" lon="2.49496">
        <ele>365</ele>
        <time>2018-05-21T08:02:52Z</time>
      </trkpt>
      <trkpt lat="42.95781" lon="2.49487">
        <ele>364</ele>
        <time>2018-05-21T08:02:56Z</time>
      </trkpt>
      <trkpt lat="42.95804" lon="2.49497">
        <ele>363</ele>
        <time>2018-05-21T08:03:00Z</time>
      </trkpt>
      <trkpt lat="42.95829" lon="2.49481">
        <ele>359</ele>
        <time>2018-05-21T08:03:05Z</time>
      </trkpt>
      <trkpt lat="42.95828" lon="2.49446">
        <ele>357</ele>
        <time>2018-05-21T08:03:10Z</time>
      </trkpt>
      <trkpt lat="42.95821" lon="2.49415">
        <ele>356</ele>
        <time>2018-05-21T08:03:14Z</time>
      </trkpt>
      <trkpt lat="42.95835" lon="2.4939">
        <ele>355</ele>
        <time>2018-05-21T08:03:19Z</time>
      </trkpt>
      <trkpt lat="42.95846" lon="2.49363">
        <ele>353</ele>
        <time>2018-05-21T08:03:24Z</time>
      </trkpt>
      <trkpt lat="42.95911" lon="2.49312">
        <ele>350</ele>
        <time>2018-05-21T08:03:40Z</time>
      </trkpt>
      <trkpt lat="42.9596" lon="2.49296">
        <ele>351</ele>
        <time>2018-05-21T08:03:52Z</time>
      </trkpt>
      <trkpt lat="42.95985" lon="2.49292">
        <ele>351</ele>
        <time>2018-05-21T08:03:58Z</time>
      </trkpt>
      <trkpt lat="42.96058" lon="2.49299">
        <ele>353</ele>
        <time>2018-05-21T08:04:14Z</time>
      </trkpt>
      <trkpt lat="42.96101" lon="2.49318">
        <ele>355</ele>
        <time>2018-05-21T08:04:25Z</time>
      </trkpt>
      <trkpt lat="42.96198" lon="2.49355">
        <ele>355</ele>
        <time>2018-05-21T08:04:49Z</time>
      </trkpt>
      <trkpt lat="42.96234" lon="2.49411">
        <ele>355</ele>
        <time>2018-05-21T08:04:58Z</time>
      </trkpt>
      <trkpt lat="42.96292" lon="2.49518">
        <ele>353</ele>
        <time>2018-05-21T08:05:17Z</time>
      </trkpt>
      <trkpt lat="42.96308" lon="2.49542">
        <ele>353</ele>
        <time>2018-05-21T08:05:22Z</time>
      </trkpt>
      <trkpt lat="42.96332" lon="2.49537">
        <ele>353</ele>
        <time>2018-05-21T08:05:29Z</time>
      </trkpt>
      <trkpt lat="42.96341" lon="2.49508">
        <ele>353</ele>
        <time>2018-05-21T08:05:36Z</time>
      </trkpt>
      <trkpt lat="42.96339" lon="2.49473">
        <ele>351</ele>
        <time>2018-05-21T08:05:40Z</time>
      </trkpt>
      <trkpt lat="42.96352" lon="2.49444">
        <ele>350</ele>
        <time>2018-05-21T08:05:44Z</time>
      </trkpt>
      <trkpt lat="42.96373" lon="2.49425">
        <ele>349</ele>
        <time>2018-05-21T08:05:48Z</time>
      </trkpt>
      <trkpt lat="42.96389" lon="2.49402">
        <ele>349</ele>
        <time>2018-05-21T08:05:52Z</time>
      </trkpt>
      <trkpt lat="42.96408" lon="2.49382">
        <ele>347</ele>
        <time>2018-05-21T08:06:08Z</time>
      </trkpt>
      <trkpt lat="42.9642" lon="2.49355">
        <ele>345</ele>
        <time>2018-05-21T08:06:13Z</time>
      </trkpt>
      <trkpt lat="42.96424" lon="2.49285">
        <ele>343</ele>
        <time>2018-05-21T08:06:21Z</time>
      </trkpt>
      <trkpt lat="42.96399" lon="2.49227">
        <ele>342</ele>
        <time>2018-05-21T08:06:30Z</time>
      </trkpt>
      <trkpt lat="42.96427" lon="2.49066">
        <ele>341</ele>
        <time>2018-05-21T08:06:52Z</time>
      </trkpt>
      <trkpt lat="42.96459" lon="2.49012">
        <ele>340</ele>
        <time>2018-05-21T08:07:02Z</time>
      </trkpt>
      <trkpt lat="42.96501" lon="2.48842">
        <ele>338</ele>
        <time>2018-05-21T08:07:28Z</time>
      </trkpt>
      <trkpt lat="42.96506" lon="2.4881">
        <ele>335</ele>
        <time>2018-05-21T08:07:34Z</time>
      </trkpt>
      <trkpt lat="42.96505" lon="2.48777">
        <ele>334</ele>
        <time>2018-05-21T08:08:58Z</time>
      </trkpt>
      <trkpt lat="42.96505" lon="2.48745">
        <ele>334</ele>
        <time>2018-05-21T08:09:04Z</time>
      </trkpt>
      <trkpt lat="42.96503" lon="2.48711">
        <ele>332</ele>
        <time>2018-05-21T08:09:08Z</time>
      </trkpt>
      <trkpt lat="42.96501" lon="2.48679">
        <ele>333</ele>
        <time>2018-05-21T08:09:13Z</time>
      </trkpt>
      <trkpt lat="42.96494" lon="2.48645">
        <ele>335</ele>
        <time>2018-05-21T08:09:18Z</time>
      </trkpt>
      <trkpt lat="42.96482" lon="2.48614">
        <ele>334</ele>
        <time>2018-05-21T08:09:23Z</time>
      </trkpt>
      <trkpt lat="42.9647" lon="2.4858">
        <ele>334</ele>
        <time>2018-05-21T08:09:28Z</time>
      </trkpt>
      <trkpt lat="42.96472" lon="2.48545">
        <ele>334</ele>
        <time>2018-05-21T08:09:32Z</time>
      </trkpt>
      <trkpt lat="42.96623" lon="2.48429">
        <ele>326</ele>
        <time>2018-05-21T08:10:03Z</time>
      </trkpt>
      <trkpt lat="42.96646" lon="2.48417">
        <ele>325</ele>
        <time>2018-05-21T08:10:07Z</time>
      </trkpt>
      <trkpt lat="42.96689" lon="2.48393">
        <ele>327</ele>
        <time>2018-05-21T08:10:15Z</time>
      </trkpt>
      <trkpt lat="42.96775" lon="2.48321">
        <ele>330</ele>
        <time>2018-05-21T08:10:31Z</time>
      </trkpt>
      <trkpt lat="42.968" lon="2.48305">
        <ele>330</ele>
        <time>2018-05-21T08:10:36Z</time>
      </trkpt>
      <trkpt lat="42.96863" lon="2.48254">
        <ele>333</ele>
        <time>2018-05-21T08:10:47Z</time>
      </trkpt>
      <trkpt lat="42.96885" lon="2.48242">
        <ele>333</ele>
        <time>2018-05-21T08:10:51Z</time>
      </trkpt>
      <trkpt lat="42.96981" lon="2.48228">
        <ele>334</ele>
        <time>2018-05-21T08:11:08Z</time>
      </trkpt>
      <trkpt lat="42.97005" lon="2.4825">
        <ele>334</ele>
        <time>2018-05-21T08:11:12Z</time>
      </trkpt>
      <trkpt lat="42.97051" lon="2.48249">
        <ele>333</ele>
        <time>2018-05-21T08:11:21Z</time>
      </trkpt>
      <trkpt lat="42.97076" lon="2.48241">
        <ele>332</ele>
        <time>2018-05-21T08:11:24Z</time>
      </trkpt>
      <trkpt lat="42.97101" lon="2.48242">
        <ele>332</ele>
        <time>2018-05-21T08:11:28Z</time>
      </trkpt>
      <trkpt lat="42.97124" lon="2.4823">
        <ele>331</ele>
        <time>2018-05-21T08:11:32Z</time>
      </trkpt>
      <trkpt lat="42.97143" lon="2.4821">
        <ele>332</ele>
        <time>2018-05-21T08:11:36Z</time>
      </trkpt>
      <trkpt lat="42.97139" lon="2.48176">
        <ele>332</ele>
        <time>2018-05-21T08:11:42Z</time>
      </trkpt>
      <trkpt lat="42.97133" lon="2.48143">
        <ele>332</ele>
        <time>2018-05-21T08:11:46Z</time>
      </trkpt>
      <trkpt lat="42.97141" lon="2.48112">
        <ele>332</ele>
        <time>2018-05-21T08:11:50Z</time>
      </trkpt>
      <trkpt lat="42.97157" lon="2.48049">
        <ele>331</ele>
        <time>2018-05-21T08:11:59Z</time>
      </trkpt>
      <trkpt lat="42.97188" lon="2.47991">
        <ele>330</ele>
        <time>2018-05-21T08:12:09Z</time>
      </trkpt>
      <trkpt lat="42.97211" lon="2.47975">
        <ele>330</ele>
        <time>2018-05-21T08:12:14Z</time>
      </trkpt>
      <trkpt lat="42.97258" lon="2.47989">
        <ele>328</ele>
        <time>2018-05-21T08:12:23Z</time>
      </trkpt>
      <trkpt lat="42.97298" lon="2.48082">
        <ele>325</ele>
        <time>2018-05-21T08:12:38Z</time>
      </trkpt>
      <trkpt lat="42.97322" lon="2.48081">
        <ele>324</ele>
        <time>2018-05-21T08:12:42Z</time>
      </trkpt>
      <trkpt lat="42.97342" lon="2.48059">
        <ele>324</ele>
        <time>2018-05-21T08:12:47Z</time>
      </trkpt>
      <trkpt lat="42.97341" lon="2.48028">
        <ele>323</ele>
        <time>2018-05-21T08:12:51Z</time>
      </trkpt>
      <trkpt lat="42.9734" lon="2.47994">
        <ele>323</ele>
        <time>2018-05-21T08:12:56Z</time>
      </trkpt>
      <trkpt lat="42.97315" lon="2.47899">
        <ele>327</ele>
        <time>2018-05-21T08:13:10Z</time>
      </trkpt>
      <trkpt lat="42.97317" lon="2.47867">
        <ele>328</ele>
        <time>2018-05-21T08:13:15Z</time>
      </trkpt>
      <trkpt lat="42.97342" lon="2.47768">
        <ele>330</ele>
        <time>2018-05-21T08:13:29Z</time>
      </trkpt>
      <trkpt lat="42.97394" lon="2.47645">
        <ele>332</ele>
        <time>2018-05-21T08:13:49Z</time>
      </trkpt>
      <trkpt lat="42.97409" lon="2.4762">
        <ele>331</ele>
        <time>2018-05-21T08:13:53Z</time>
      </trkpt>
      <trkpt lat="42.97433" lon="2.47601">
        <ele>330</ele>
        <time>2018-05-21T08:13:58Z</time>
      </trkpt>
      <trkpt lat="42.97505" lon="2.47606">
        <ele>328</ele>
        <time>2018-05-21T08:14:12Z</time>
      </trkpt>
      <trkpt lat="42.97527" lon="2.47621">
        <ele>328</ele>
        <time>2018-05-21T08:14:16Z</time>
      </trkpt>
      <trkpt lat="42.97539" lon="2.47652">
        <ele>327</ele>
        <time>2018-05-21T08:14:21Z</time>
      </trkpt>
      <trkpt lat="42.97559" lon="2.4767">
        <ele>327</ele>
        <time>2018-05-21T08:14:26Z</time>
      </trkpt>
      <trkpt lat="42.97575" lon="2.47701">
        <ele>327</ele>
        <time>2018-05-21T08:14:31Z</time>
      </trkpt>
      <trkpt lat="42.97595" lon="2.47719">
        <ele>326</ele>
        <time>2018-05-21T08:14:35Z</time>
      </trkpt>
      <trkpt lat="42.9762" lon="2.4772">
        <ele>326</ele>
        <time>2018-05-21T08:14:40Z</time>
      </trkpt>
      <trkpt lat="42.9763" lon="2.47687">
        <ele>325</ele>
        <time>2018-05-21T08:14:45Z</time>
      </trkpt>
      <trkpt lat="42.97615" lon="2.47656">
        <ele>324</ele>
        <time>2018-05-21T08:14:51Z</time>
      </trkpt>
      <trkpt lat="42.97617" lon="2.47622">
        <ele>324</ele>
        <time>2018-05-21T08:14:56Z</time>
      </trkpt>
      <trkpt lat="42.97629" lon="2.47588">
        <ele>324</ele>
        <time>2018-05-21T08:15:01Z</time>
      </trkpt>
      <trkpt lat="42.9765" lon="2.4757">
        <ele>324</ele>
        <time>2018-05-21T08:15:06Z</time>
      </trkpt>
      <trkpt lat="42.97675" lon="2.47568">
        <ele>325</ele>
        <time>2018-05-21T08:15:11Z</time>
      </trkpt>
      <trkpt lat="42.97698" lon="2.47555">
        <ele>326</ele>
        <time>2018-05-21T08:15:16Z</time>
      </trkpt>
      <trkpt lat="42.97721" lon="2.4755">
        <ele>326</ele>
        <time>2018-05-21T08:15:21Z</time>
      </trkpt>
      <trkpt lat="42.97745" lon="2.47553">
        <ele>326</ele>
        <time>2018-05-21T08:15:26Z</time>
      </trkpt>
      <trkpt lat="42.97765" lon="2.47569">
        <ele>326</ele>
        <time>2018-05-21T08:15:31Z</time>
      </trkpt>
      <trkpt lat="42.97788" lon="2.47583">
        <ele>327</ele>
        <time>2018-05-21T08:15:37Z</time>
      </trkpt>
      <trkpt lat="42.97866" lon="2.47561">
        <ele>327</ele>
        <time>2018-05-21T08:15:51Z</time>
      </trkpt>
      <trkpt lat="42.97904" lon="2.4752">
        <ele>327</ele>
        <time>2018-05-21T08:16:00Z</time>
      </trkpt>
      <trkpt lat="42.97927" lon="2.47513">
        <ele>326</ele>
        <time>2018-05-21T08:16:06Z</time>
      </trkpt>
      <trkpt lat="42.9795" lon="2.4751">
        <ele>325</ele>
        <time>2018-05-21T08:16:12Z</time>
      </trkpt>
      <trkpt lat="42.98065" lon="2.47568">
        <ele>321</ele>
        <time>2018-05-21T08:16:44Z</time>
      </trkpt>
      <trkpt lat="42.98114" lon="2.47583">
        <ele>320</ele>
        <time>2018-05-21T08:16:56Z</time>
      </trkpt>
      <trkpt lat="42.98142" lon="2.47587">
        <ele>320</ele>
        <time>2018-05-21T08:17:03Z</time>
      </trkpt>
      <trkpt lat="42.98154" lon="2.47558">
        <ele>320</ele>
        <time>2018-05-21T08:17:09Z</time>
      </trkpt>
      <trkpt lat="42.98134" lon="2.4746">
        <ele>319</ele>
        <time>2018-05-21T08:17:23Z</time>
      </trkpt>
      <trkpt lat="42.98131" lon="2.47429">
        <ele>319</ele>
        <time>2018-05-21T08:17:27Z</time>
      </trkpt>
      <trkpt lat="42.98132" lon="2.47394">
        <ele>320</ele>
        <time>2018-05-21T08:17:32Z</time>
      </trkpt>
      <trkpt lat="42.98149" lon="2.47368">
        <ele>320</ele>
        <time>2018-05-21T08:17:37Z</time>
      </trkpt>
      <trkpt lat="42.98173" lon="2.47365">
        <ele>320</ele>
        <time>2018-05-21T08:17:41Z</time>
      </trkpt>
      <trkpt lat="42.98241" lon="2.47323">
        <ele>318</ele>
        <time>2018-05-21T08:18:00Z</time>
      </trkpt>
      <trkpt lat="42.98259" lon="2.473">
        <ele>316</ele>
        <time>2018-05-21T08:18:08Z</time>
      </trkpt>
      <trkpt lat="42.98281" lon="2.47284">
        <ele>314</ele>
        <time>2018-05-21T08:18:12Z</time>
      </trkpt>
      <trkpt lat="42.98396" lon="2.47331">
        <ele>313</ele>
        <time>2018-05-21T08:18:44Z</time>
      </trkpt>
      <trkpt lat="42.98464" lon="2.473">
        <ele>314</ele>
        <time>2018-05-21T08:19:03Z</time>
      </trkpt>
      <trkpt lat="42.98487" lon="2.4731">
        <ele>314</ele>
        <time>2018-05-21T08:19:09Z</time>
      </trkpt>
      <trkpt lat="42.98484" lon="2.47343">
        <ele>314</ele>
        <time>2018-05-21T08:19:16Z</time>
      </trkpt>
      <trkpt lat="42.98489" lon="2.47373">
        <ele>314</ele>
        <time>2018-05-21T08:19:23Z</time>
      </trkpt>
      <trkpt lat="42.98504" lon="2.47399">
        <ele>315</ele>
        <time>2018-05-21T08:19:30Z</time>
      </trkpt>
      <trkpt lat="42.98527" lon="2.47413">
        <ele>316</ele>
        <time>2018-05-21T08:19:39Z</time>
      </trkpt>
      <trkpt lat="42.98542" lon="2.4744">
        <ele>317</ele>
        <time>2018-05-21T08:19:46Z</time>
      </trkpt>
      <trkpt lat="42.98561" lon="2.47458">
        <ele>318</ele>
        <time>2018-05-21T08:19:52Z</time>
      </trkpt>
      <trkpt lat="42.98583" lon="2.47471">
        <ele>319</ele>
        <time>2018-05-21T08:19:59Z</time>
      </trkpt>
      <trkpt lat="42.98606" lon="2.47478">
        <ele>321</ele>
        <time>2018-05-21T08:20:08Z</time>
      </trkpt>
      <trkpt lat="42.98727" lon="2.47491">
        <ele>320</ele>
        <time>2018-05-21T08:20:45Z</time>
      </trkpt>
      <trkpt lat="42.98751" lon="2.47489">
        <ele>321</ele>
        <time>2018-05-21T08:20:54Z</time>
      </trkpt>
      <trkpt lat="42.98819" lon="2.47483">
        <ele>317</ele>
        <time>2018-05-21T08:21:14Z</time>
      </trkpt>
      <trkpt lat="42.98851" lon="2.47435">
        <ele>316</ele>
        <time>2018-05-21T08:21:27Z</time>
      </trkpt>
      <trkpt lat="42.98874" lon="2.4742">
        <ele>317</ele>
        <time>2018-05-21T08:21:35Z</time>
      </trkpt>
      <trkpt lat="42.98898" lon="2.47425">
        <ele>318</ele>
        <time>2018-05-21T08:21:42Z</time>
      </trkpt>
      <trkpt lat="42.98911" lon="2.47451">
        <ele>319</ele>
        <time>2018-05-21T08:21:50Z</time>
      </trkpt>
      <trkpt lat="42.98903" lon="2.47587">
        <ele>322</ele>
        <time>2018-05-21T08:22:22Z</time>
      </trkpt>
      <trkpt lat="42.98907" lon="2.47619">
        <ele>325</ele>
        <time>2018-05-21T08:22:30Z</time>
      </trkpt>
      <trkpt lat="42.9892" lon="2.47644">
        <ele>328</ele>
        <time>2018-05-21T08:22:39Z</time>
      </trkpt>
      <trkpt lat="42.98941" lon="2.47658">
        <ele>330</ele>
        <time>2018-05-21T08:22:46Z</time>
      </trkpt>
      <trkpt lat="42.98992" lon="2.47684">
        <ele>329</ele>
        <time>2018-05-21T08:22:59Z</time>
      </trkpt>
      <trkpt lat="42.99026" lon="2.47732">
        <ele>329</ele>
        <time>2018-05-21T08:23:10Z</time>
      </trkpt>
      <trkpt lat="42.9909" lon="2.47791">
        <ele>331</ele>
        <time>2018-05-21T08:23:25Z</time>
      </trkpt>
      <trkpt lat="42.99111" lon="2.4782">
        <ele>331</ele>
        <time>2018-05-21T08:23:30Z</time>
      </trkpt>
      <trkpt lat="42.99133" lon="2.4788">
        <ele>331</ele>
        <time>2018-05-21T08:23:40Z</time>
      </trkpt>
      <trkpt lat="42.99151" lon="2.47906">
        <ele>331</ele>
        <time>2018-05-21T08:23:45Z</time>
      </trkpt>
      <trkpt lat="42.99195" lon="2.47941">
        <ele>328</ele>
        <time>2018-05-21T08:23:55Z</time>
      </trkpt>
      <trkpt lat="42.99205" lon="2.47971">
        <ele>326</ele>
        <time>2018-05-21T08:24:00Z</time>
      </trkpt>
      <trkpt lat="42.9921" lon="2.48075">
        <ele>324</ele>
        <time>2018-05-21T08:24:16Z</time>
      </trkpt>
      <trkpt lat="42.99214" lon="2.48109">
        <ele>325</ele>
        <time>2018-05-21T08:24:20Z</time>
      </trkpt>
      <trkpt lat="42.99256" lon="2.482">
        <ele>328</ele>
        <time>2018-05-21T08:24:35Z</time>
      </trkpt>
      <trkpt lat="42.99298" lon="2.48282">
        <ele>327</ele>
        <time>2018-05-21T08:28:55Z</time>
      </trkpt>
      <trkpt lat="42.99316" lon="2.48305">
        <ele>333</ele>
        <time>2018-05-21T08:29:02Z</time>
      </trkpt>
      <trkpt lat="42.99338" lon="2.48293">
        <ele>334</ele>
        <time>2018-05-21T08:29:06Z</time>
      </trkpt>
      <trkpt lat="42.99362" lon="2.48283">
        <ele>333</ele>
        <time>2018-05-21T08:29:11Z</time>
      </trkpt>
      <trkpt lat="42.99391" lon="2.48282">
        <ele>333</ele>
        <time>2018-05-21T08:29:16Z</time>
      </trkpt>
      <trkpt lat="42.99473" lon="2.4831">
        <ele>332</ele>
        <time>2018-05-21T08:29:29Z</time>
      </trkpt>
      <trkpt lat="42.99549" lon="2.48404">
        <ele>329</ele>
        <time>2018-05-21T08:29:41Z</time>
      </trkpt>
      <trkpt lat="42.99591" lon="2.48435">
        <ele>325</ele>
        <time>2018-05-21T08:29:47Z</time>
      </trkpt>
      <trkpt lat="42.99651" lon="2.48506">
        <ele>320</ele>
        <time>2018-05-21T08:29:58Z</time>
      </trkpt>
      <trkpt lat="42.99677" lon="2.48517">
        <ele>318</ele>
        <time>2018-05-21T08:30:02Z</time>
      </trkpt>
      <trkpt lat="42.99699" lon="2.48506">
        <ele>317</ele>
        <time>2018-05-21T08:30:05Z</time>
      </trkpt>
      <trkpt lat="42.99728" lon="2.48497">
        <ele>316</ele>
        <time>2018-05-21T08:30:09Z</time>
      </trkpt>
      <trkpt lat="42.99754" lon="2.4851">
        <ele>315</ele>
        <time>2018-05-21T08:30:12Z</time>
      </trkpt>
      <trkpt lat="42.99809" lon="2.48595">
        <ele>312</ele>
        <time>2018-05-21T08:30:21Z</time>
      </trkpt>
      <trkpt lat="42.99832" lon="2.48615">
        <ele>311</ele>
        <time>2018-05-21T08:30:25Z</time>
      </trkpt>
      <trkpt lat="42.99858" lon="2.48621">
        <ele>311</ele>
        <time>2018-05-21T08:30:28Z</time>
      </trkpt>
      <trkpt lat="42.99887" lon="2.48623">
        <ele>311</ele>
        <time>2018-05-21T08:30:32Z</time>
      </trkpt>
      <trkpt lat="42.99917" lon="2.48624">
        <ele>309</ele>
        <time>2018-05-21T08:30:36Z</time>
      </trkpt>
      <trkpt lat="42.99933" lon="2.48649">
        <ele>308</ele>
        <time>2018-05-21T08:30:39Z</time>
      </trkpt>
      <trkpt lat="42.99982" lon="2.4865">
        <ele>305</ele>
        <time>2018-05-21T08:30:45Z</time>
      </trkpt>
      <trkpt lat="43.00011" lon="2.48655">
        <ele>304</ele>
        <time>2018-05-21T08:30:49Z</time>
      </trkpt>
      <trkpt lat="43.00081" lon="2.48747">
        <ele>296</ele>
        <time>2018-05-21T08:31:02Z</time>
      </trkpt>
      <trkpt lat="43.00102" lon="2.48763">
        <ele>287</ele>
        <time>2018-05-21T08:33:34Z</time>
      </trkpt>
      <trkpt lat="43.00109" lon="2.48797">
        <ele>290</ele>
        <time>2018-05-21T08:33:38Z</time>
      </trkpt>
      <trkpt lat="43.00109" lon="2.48832">
        <ele>291</ele>
        <time>2018-05-21T08:33:42Z</time>
      </trkpt>
      <trkpt lat="43.00119" lon="2.48908">
        <ele>289</ele>
        <time>2018-05-21T08:33:52Z</time>
      </trkpt>
      <trkpt lat="43.00171" lon="2.48982">
        <ele>283</ele>
        <time>2018-05-21T08:34:04Z</time>
      </trkpt>
      <trkpt lat="43.00225" lon="2.49002">
        <ele>280</ele>
        <time>2018-05-21T08:34:12Z</time>
      </trkpt>
      <trkpt lat="43.00293" lon="2.49117">
        <ele>273</ele>
        <time>2018-05-21T08:34:28Z</time>
      </trkpt>
      <trkpt lat="43.00305" lon="2.49149">
        <ele>272</ele>
        <time>2018-05-21T08:34:33Z</time>
      </trkpt>
      <trkpt lat="43.00341" lon="2.4927">
        <ele>270</ele>
        <time>2018-05-21T08:34:59Z</time>
      </trkpt>
      <trkpt lat="43.00364" lon="2.49326">
        <ele>272</ele>
        <time>2018-05-21T08:35:17Z</time>
      </trkpt>
      <trkpt lat="43.00378" lon="2.49354">
        <ele>274</ele>
        <time>2018-05-21T08:35:23Z</time>
      </trkpt>
      <trkpt lat="43.00398" lon="2.49378">
        <ele>275</ele>
        <time>2018-05-21T08:35:29Z</time>
      </trkpt>
      <trkpt lat="43.00496" lon="2.49405">
        <ele>277</ele>
        <time>2018-05-21T08:35:49Z</time>
      </trkpt>
      <trkpt lat="43.00543" lon="2.49444">
        <ele>276</ele>
        <time>2018-05-21T08:35:59Z</time>
      </trkpt>
      <trkpt lat="43.00575" lon="2.49499">
        <ele>275</ele>
        <time>2018-05-21T08:36:09Z</time>
      </trkpt>
      <trkpt lat="43.00588" lon="2.49525">
        <ele>275</ele>
        <time>2018-05-21T08:36:13Z</time>
      </trkpt>
      <trkpt lat="43.00647" lon="2.49589">
        <ele>274</ele>
        <time>2018-05-21T08:36:25Z</time>
      </trkpt>
      <trkpt lat="43.00814" lon="2.49859">
        <ele>263</ele>
        <time>2018-05-21T08:36:56Z</time>
      </trkpt>
      <trkpt lat="43.0083" lon="2.49883">
        <ele>262</ele>
        <time>2018-05-21T08:36:59Z</time>
      </trkpt>
      <trkpt lat="43.00846" lon="2.49946">
        <ele>258</ele>
        <time>2018-05-21T08:37:06Z</time>
      </trkpt>
      <trkpt lat="43.00842" lon="2.50059">
        <ele>254</ele>
        <time>2018-05-21T08:37:20Z</time>
      </trkpt>
      <trkpt lat="43.00872" lon="2.50226">
        <ele>250</ele>
        <time>2018-05-21T08:37:44Z</time>
      </trkpt>
      <trkpt lat="43.00867" lon="2.50257">
        <ele>250</ele>
        <time>2018-05-21T08:37:49Z</time>
      </trkpt>
      <trkpt lat="43.0085" lon="2.50279">
        <ele>249</ele>
        <time>2018-05-21T08:37:53Z</time>
      </trkpt>
      <trkpt lat="43.00839" lon="2.50309">
        <ele>249</ele>
        <time>2018-05-21T08:37:57Z</time>
      </trkpt>
      <trkpt lat="43.00849" lon="2.50512">
        <ele>246</ele>
        <time>2018-05-21T08:38:21Z</time>
      </trkpt>
      <trkpt lat="43.00819" lon="2.50649">
        <ele>247</ele>
        <time>2018-05-21T08:38:39Z</time>
      </trkpt>
      <trkpt lat="43.00832" lon="2.50682">
        <ele>248</ele>
        <time>2018-05-21T08:38:44Z</time>
      </trkpt>
      <trkpt lat="43.00799" lon="2.50913">
        <ele>246</ele>
        <time>2018-05-21T08:39:16Z</time>
      </trkpt>
      <trkpt lat="43.00768" lon="2.51152">
        <ele>244</ele>
        <time>2018-05-21T08:39:50Z</time>
      </trkpt>
      <trkpt lat="43.00764" lon="2.51182">
        <ele>244</ele>
        <time>2018-05-21T08:39:55Z</time>
      </trkpt>
      <trkpt lat="43.00754" lon="2.51214">
        <ele>244</ele>
        <time>2018-05-21T08:40:01Z</time>
      </trkpt>
      <trkpt lat="43.00721" lon="2.51407">
        <ele>244</ele>
        <time>2018-05-21T08:40:32Z</time>
      </trkpt>
      <trkpt lat="43.00688" lon="2.51528">
        <ele>244</ele>
        <time>2018-05-21T08:40:52Z</time>
      </trkpt>
      <trkpt lat="43.00666" lon="2.5159">
        <ele>243</ele>
        <time>2018-05-21T08:41:01Z</time>
      </trkpt>
      <trkpt lat="43.00659" lon="2.51625">
        <ele>242</ele>
        <time>2018-05-21T08:41:05Z</time>
      </trkpt>
      <trkpt lat="43.00646" lon="2.51689">
        <ele>242</ele>
        <time>2018-05-21T08:41:13Z</time>
      </trkpt>
      <trkpt lat="43.00635" lon="2.51723">
        <ele>242</ele>
        <time>2018-05-21T08:41:18Z</time>
      </trkpt>
      <trkpt lat="43.00599" lon="2.51762">
        <ele>242</ele>
        <time>2018-05-21T08:41:29Z</time>
      </trkpt>
      <trkpt lat="43.00581" lon="2.51828">
        <ele>241</ele>
        <time>2018-05-21T08:41:37Z</time>
      </trkpt>
      <trkpt lat="43.00537" lon="2.52008">
        <ele>240</ele>
        <time>2018-05-21T08:42:01Z</time>
      </trkpt>
      <trkpt lat="43.0053" lon="2.52041">
        <ele>239</ele>
        <time>2018-05-21T08:42:06Z</time>
      </trkpt>
      <trkpt lat="43.00523" lon="2.52072">
        <ele>238</ele>
        <time>2018-05-21T08:42:11Z</time>
      </trkpt>
      <trkpt lat="43.00527" lon="2.52106">
        <ele>237</ele>
        <time>2018-05-21T08:42:17Z</time>
      </trkpt>
      <trkpt lat="43.00543" lon="2.52132">
        <ele>237</ele>
        <time>2018-05-21T08:42:24Z</time>
      </trkpt>
      <trkpt lat="43.00597" lon="2.522">
        <ele>240</ele>
        <time>2018-05-21T08:42:41Z</time>
      </trkpt>
      <trkpt lat="43.00601" lon="2.52301">
        <ele>240</ele>
        <time>2018-05-21T08:42:56Z</time>
      </trkpt>
      <trkpt lat="43.00597" lon="2.52333">
        <ele>240</ele>
        <time>2018-05-21T08:43:02Z</time>
      </trkpt>
      <trkpt lat="43.00596" lon="2.52365">
        <ele>240</ele>
        <time>2018-05-21T08:43:09Z</time>
      </trkpt>
      <trkpt lat="43.00665" lon="2.52468">
        <ele>242</ele>
        <time>2018-05-21T08:43:38Z</time>
      </trkpt>
      <trkpt lat="43.00706" lon="2.52507">
        <ele>241</ele>
        <time>2018-05-21T08:43:50Z</time>
      </trkpt>
      <trkpt lat="43.00756" lon="2.52522">
        <ele>242</ele>
        <time>2018-05-21T08:44:02Z</time>
      </trkpt>
      <trkpt lat="43.00781" lon="2.52532">
        <ele>241</ele>
        <time>2018-05-21T08:44:08Z</time>
      </trkpt>
      <trkpt lat="43.00852" lon="2.52585">
        <ele>235</ele>
        <time>2018-05-21T08:44:26Z</time>
      </trkpt>
      <trkpt lat="43.00882" lon="2.52633">
        <ele>235</ele>
        <time>2018-05-21T08:44:37Z</time>
      </trkpt>
      <trkpt lat="43.00932" lon="2.52657">
        <ele>238</ele>
        <time>2018-05-21T08:44:49Z</time>
      </trkpt>
      <trkpt lat="43.01029" lon="2.52666">
        <ele>238</ele>
        <time>2018-05-21T08:45:08Z</time>
      </trkpt>
      <trkpt lat="43.01054" lon="2.52672">
        <ele>238</ele>
        <time>2018-05-21T08:45:13Z</time>
      </trkpt>
      <trkpt lat="43.01082" lon="2.52726">
        <ele>238</ele>
        <time>2018-05-21T08:45:24Z</time>
      </trkpt>
      <trkpt lat="43.01094" lon="2.52754">
        <ele>239</ele>
        <time>2018-05-21T08:45:30Z</time>
      </trkpt>
      <trkpt lat="43.01134" lon="2.52792">
        <ele>241</ele>
        <time>2018-05-21T08:45:41Z</time>
      </trkpt>
      <trkpt lat="43.01204" lon="2.52842">
        <ele>243</ele>
        <time>2018-05-21T08:45:56Z</time>
      </trkpt>
      <trkpt lat="43.01241" lon="2.52888">
        <ele>243</ele>
        <time>2018-05-21T08:46:06Z</time>
      </trkpt>
      <trkpt lat="43.01263" lon="2.52952">
        <ele>242</ele>
        <time>2018-05-21T08:46:16Z</time>
      </trkpt>
      <trkpt lat="43.01268" lon="2.52985">
        <ele>241</ele>
        <time>2018-05-21T08:46:22Z</time>
      </trkpt>
      <trkpt lat="43.01266" lon="2.53022">
        <ele>240</ele>
        <time>2018-05-21T08:46:27Z</time>
      </trkpt>
      <trkpt lat="43.01266" lon="2.5309">
        <ele>238</ele>
        <time>2018-05-21T08:46:38Z</time>
      </trkpt>
      <trkpt lat="43.01274" lon="2.53119">
        <ele>238</ele>
        <time>2018-05-21T08:46:43Z</time>
      </trkpt>
      <trkpt lat="43.0122" lon="2.53268">
        <ele>240</ele>
        <time>2018-05-21T08:47:10Z</time>
      </trkpt>
      <trkpt lat="43.01218" lon="2.53302">
        <ele>240</ele>
        <time>2018-05-21T08:47:17Z</time>
      </trkpt>
      <trkpt lat="43.01206" lon="2.53334">
        <ele>241</ele>
        <time>2018-05-21T08:47:24Z</time>
      </trkpt>
      <trkpt lat="43.01228" lon="2.5343">
        <ele>240</ele>
        <time>2018-05-21T08:47:41Z</time>
      </trkpt>
      <trkpt lat="43.01237" lon="2.53459">
        <ele>240</ele>
        <time>2018-05-21T08:47:47Z</time>
      </trkpt>
      <trkpt lat="43.01263" lon="2.53467">
        <ele>241</ele>
        <time>2018-05-21T08:47:52Z</time>
      </trkpt>
      <trkpt lat="43.01293" lon="2.53521">
        <ele>241</ele>
        <time>2018-05-21T08:48:03Z</time>
      </trkpt>
      <trkpt lat="43.01295" lon="2.53553">
        <ele>241</ele>
        <time>2018-05-21T08:48:07Z</time>
      </trkpt>
      <trkpt lat="43.01229" lon="2.53612">
        <ele>242</ele>
        <time>2018-05-21T08:48:23Z</time>
      </trkpt>
      <trkpt lat="43.01217" lon="2.53641">
        <ele>242</ele>
        <time>2018-05-21T08:48:27Z</time>
      </trkpt>
      <trkpt lat="43.0121" lon="2.5371">
        <ele>243</ele>
        <time>2018-05-21T08:48:37Z</time>
      </trkpt>
      <trkpt lat="43.01225" lon="2.5384">
        <ele>240</ele>
        <time>2018-05-21T08:48:58Z</time>
      </trkpt>
      <trkpt lat="43.01241" lon="2.53904">
        <ele>239</ele>
        <time>2018-05-21T08:49:08Z</time>
      </trkpt>
      <trkpt lat="43.01264" lon="2.53912">
        <ele>238</ele>
        <time>2018-05-21T08:49:12Z</time>
      </trkpt>
      <trkpt lat="43.01288" lon="2.53894">
        <ele>236</ele>
        <time>2018-05-21T08:49:17Z</time>
      </trkpt>
      <trkpt lat="43.01312" lon="2.539">
        <ele>235</ele>
        <time>2018-05-21T08:49:21Z</time>
      </trkpt>
      <trkpt lat="43.01336" lon="2.53921">
        <ele>233</ele>
        <time>2018-05-21T08:49:25Z</time>
      </trkpt>
      <trkpt lat="43.01361" lon="2.53925">
        <ele>230</ele>
        <time>2018-05-21T08:49:29Z</time>
      </trkpt>
      <trkpt lat="43.01417" lon="2.53903">
        <ele>226</ele>
        <time>2018-05-21T08:49:37Z</time>
      </trkpt>
      <trkpt lat="43.01444" lon="2.53914">
        <ele>223</ele>
        <time>2018-05-21T08:49:40Z</time>
      </trkpt>
      <trkpt lat="43.01472" lon="2.53909">
        <ele>220</ele>
        <time>2018-05-21T08:49:44Z</time>
      </trkpt>
      <trkpt lat="43.01497" lon="2.53895">
        <ele>216</ele>
        <time>2018-05-21T08:49:48Z</time>
      </trkpt>
      <trkpt lat="43.01519" lon="2.53883">
        <ele>215</ele>
        <time>2018-05-21T08:49:52Z</time>
      </trkpt>
      <trkpt lat="43.01543" lon="2.53885">
        <ele>215</ele>
        <time>2018-05-21T08:49:58Z</time>
      </trkpt>
      <trkpt lat="43.01588" lon="2.53896">
        <ele>218</ele>
        <time>2018-05-21T08:50:15Z</time>
      </trkpt>
      <trkpt lat="43.01602" lon="2.53922">
        <ele>221</ele>
        <time>2018-05-21T08:50:28Z</time>
      </trkpt>
      <trkpt lat="43.01586" lon="2.54047">
        <ele>228</ele>
        <time>2018-05-21T08:51:07Z</time>
      </trkpt>
      <trkpt lat="43.01557" lon="2.54173">
        <ele>230</ele>
        <time>2018-05-21T08:51:45Z</time>
      </trkpt>
      <trkpt lat="43.01545" lon="2.54271">
        <ele>234</ele>
        <time>2018-05-21T08:52:08Z</time>
      </trkpt>
      <trkpt lat="43.01551" lon="2.54337">
        <ele>236</ele>
        <time>2018-05-21T08:52:25Z</time>
      </trkpt>
      <trkpt lat="43.01548" lon="2.54368">
        <ele>238</ele>
        <time>2018-05-21T08:52:34Z</time>
      </trkpt>
      <trkpt lat="43.01508" lon="2.54402">
        <ele>239</ele>
        <time>2018-05-21T08:52:53Z</time>
      </trkpt>
      <trkpt lat="43.01465" lon="2.54425">
        <ele>241</ele>
        <time>2018-05-21T08:53:14Z</time>
      </trkpt>
      <trkpt lat="43.01448" lon="2.54447">
        <ele>243</ele>
        <time>2018-05-21T08:53:23Z</time>
      </trkpt>
      <trkpt lat="43.01375" lon="2.54474">
        <ele>247</ele>
        <time>2018-05-21T08:53:42Z</time>
      </trkpt>
      <trkpt lat="43.0135" lon="2.54482">
        <ele>246</ele>
        <time>2018-05-21T08:53:48Z</time>
      </trkpt>
      <trkpt lat="43.01312" lon="2.5444">
        <ele>246</ele>
        <time>2018-05-21T08:53:59Z</time>
      </trkpt>
      <trkpt lat="43.01287" lon="2.54425">
        <ele>245</ele>
        <time>2018-05-21T08:54:04Z</time>
      </trkpt>
      <trkpt lat="43.01264" lon="2.54428">
        <ele>245</ele>
        <time>2018-05-21T08:54:08Z</time>
      </trkpt>
      <trkpt lat="43.01238" lon="2.54434">
        <ele>245</ele>
        <time>2018-05-21T08:54:13Z</time>
      </trkpt>
      <trkpt lat="43.01196" lon="2.54466">
        <ele>248</ele>
        <time>2018-05-21T08:54:22Z</time>
      </trkpt>
      <trkpt lat="43.01179" lon="2.54525">
        <ele>247</ele>
        <time>2018-05-21T08:54:37Z</time>
      </trkpt>
      <trkpt lat="43.01129" lon="2.54552">
        <ele>246</ele>
        <time>2018-05-21T08:54:50Z</time>
      </trkpt>
      <trkpt lat="43.01084" lon="2.54585">
        <ele>245</ele>
        <time>2018-05-21T08:54:58Z</time>
      </trkpt>
      <trkpt lat="43.01044" lon="2.54547">
        <ele>244</ele>
        <time>2018-05-21T08:55:05Z</time>
      </trkpt>
      <trkpt lat="43.01027" lon="2.54527">
        <ele>243</ele>
        <time>2018-05-21T08:55:09Z</time>
      </trkpt>
      <trkpt lat="43.00972" lon="2.54511">
        <ele>242</ele>
        <time>2018-05-21T08:55:17Z</time>
      </trkpt>
      <trkpt lat="43.00952" lon="2.54532">
        <ele>242</ele>
        <time>2018-05-21T08:55:20Z</time>
      </trkpt>
      <trkpt lat="43.00938" lon="2.54599">
        <ele>240</ele>
        <time>2018-05-21T08:55:28Z</time>
      </trkpt>
      <trkpt lat="43.00934" lon="2.54632">
        <ele>239</ele>
        <time>2018-05-21T08:55:32Z</time>
      </trkpt>
      <trkpt lat="43.00934" lon="2.54665">
        <ele>238</ele>
        <time>2018-05-21T08:55:36Z</time>
      </trkpt>
      <trkpt lat="43.00976" lon="2.54788">
        <ele>238</ele>
        <time>2018-05-21T08:55:54Z</time>
      </trkpt>
      <trkpt lat="43.00979" lon="2.54821">
        <ele>238</ele>
        <time>2018-05-21T08:55:59Z</time>
      </trkpt>
      <trkpt lat="43.00961" lon="2.54844">
        <ele>238</ele>
        <time>2018-05-21T08:56:05Z</time>
      </trkpt>
      <trkpt lat="43.00926" lon="2.54893">
        <ele>237</ele>
        <time>2018-05-21T08:56:19Z</time>
      </trkpt>
      <trkpt lat="43.00916" lon="2.54922">
        <ele>237</ele>
        <time>2018-05-21T08:56:26Z</time>
      </trkpt>
      <trkpt lat="43.00898" lon="2.54945">
        <ele>238</ele>
        <time>2018-05-21T08:56:34Z</time>
      </trkpt>
      <trkpt lat="43.0088" lon="2.54964">
        <ele>240</ele>
        <time>2018-05-21T08:56:41Z</time>
      </trkpt>
      <trkpt lat="43.00848" lon="2.55017">
        <ele>242</ele>
        <time>2018-05-21T08:57:00Z</time>
      </trkpt>
      <trkpt lat="43.00829" lon="2.55076">
        <ele>247</ele>
        <time>2018-05-21T08:57:18Z</time>
      </trkpt>
      <trkpt lat="43.00823" lon="2.55106">
        <ele>248</ele>
        <time>2018-05-21T08:57:30Z</time>
      </trkpt>
      <trkpt lat="43.00799" lon="2.55113">
        <ele>248</ele>
        <time>2018-05-21T08:57:42Z</time>
      </trkpt>
      <trkpt lat="43.00753" lon="2.55116">
        <ele>246</ele>
        <time>2018-05-21T08:58:06Z</time>
      </trkpt>
      <trkpt lat="43.00714" lon="2.55079">
        <ele>244</ele>
        <time>2018-05-21T08:58:40Z</time>
      </trkpt>
      <trkpt lat="43.0069" lon="2.55081">
        <ele>243</ele>
        <time>2018-05-21T08:58:50Z</time>
      </trkpt>
      <trkpt lat="43.00643" lon="2.5509">
        <ele>244</ele>
        <time>2018-05-21T08:59:11Z</time>
      </trkpt>
      <trkpt lat="43.00597" lon="2.55104">
        <ele>247</ele>
        <time>2018-05-21T08:59:39Z</time>
      </trkpt>
      <trkpt lat="43.00572" lon="2.55104">
        <ele>248</ele>
        <time>2018-05-21T08:59:50Z</time>
      </trkpt>
      <trkpt lat="43.00552" lon="2.5509">
        <ele>249</ele>
        <time>2018-05-21T09:00:01Z</time>
      </trkpt>
      <trkpt lat="43.0053" lon="2.55073">
        <ele>250</ele>
        <time>2018-05-21T09:00:12Z</time>
      </trkpt>
      <trkpt lat="43.00509" lon="2.55083">
        <ele>252</ele>
        <time>2018-05-21T09:00:21Z</time>
      </trkpt>
      <trkpt lat="43.00505" lon="2.55114">
        <ele>254</ele>
        <time>2018-05-21T09:00:35Z</time>
      </trkpt>
      <trkpt lat="43.00441" lon="2.55156">
        <ele>262</ele>
        <time>2018-05-21T09:01:12Z</time>
      </trkpt>
      <trkpt lat="43.00424" lon="2.55179">
        <ele>265</ele>
        <time>2018-05-21T09:01:26Z</time>
      </trkpt>
      <trkpt lat="43.00399" lon="2.55233">
        <ele>272</ele>
        <time>2018-05-21T09:01:51Z</time>
      </trkpt>
      <trkpt lat="43.00375" lon="2.55242">
        <ele>273</ele>
        <time>2018-05-21T09:02:03Z</time>
      </trkpt>
      <trkpt lat="43.00351" lon="2.55244">
        <ele>274</ele>
        <time>2018-05-21T09:02:15Z</time>
      </trkpt>
      <trkpt lat="43.00336" lon="2.55271">
        <ele>274</ele>
        <time>2018-05-21T09:02:26Z</time>
      </trkpt>
      <trkpt lat="43.00332" lon="2.55302">
        <ele>275</ele>
        <time>2018-05-21T09:02:37Z</time>
      </trkpt>
      <trkpt lat="43.00349" lon="2.55325">
        <ele>276</ele>
        <time>2018-05-21T09:02:49Z</time>
      </trkpt>
      <trkpt lat="43.0037" lon="2.55335">
        <ele>279</ele>
        <time>2018-05-21T09:03:00Z</time>
      </trkpt>
      <trkpt lat="43.00394" lon="2.55347">
        <ele>277</ele>
        <time>2018-05-21T09:03:09Z</time>
      </trkpt>
      <trkpt lat="43.00418" lon="2.55345">
        <ele>277</ele>
        <time>2018-05-21T09:03:20Z</time>
      </trkpt>
      <trkpt lat="43.00433" lon="2.55321">
        <ele>277</ele>
        <time>2018-05-21T09:03:28Z</time>
      </trkpt>
      <trkpt lat="43.00449" lon="2.55299">
        <ele>281</ele>
        <time>2018-05-21T09:03:39Z</time>
      </trkpt>
      <trkpt lat="43.00472" lon="2.55287">
        <ele>283</ele>
        <time>2018-05-21T09:03:51Z</time>
      </trkpt>
      <trkpt lat="43.0049" lon="2.55306">
        <ele>285</ele>
        <time>2018-05-21T09:04:02Z</time>
      </trkpt>
      <trkpt lat="43.00474" lon="2.5533">
        <ele>287</ele>
        <time>2018-05-21T09:04:12Z</time>
      </trkpt>
      <trkpt lat="43.00455" lon="2.55346">
        <ele>287</ele>
        <time>2018-05-21T09:04:24Z</time>
      </trkpt>
      <trkpt lat="43.00454" lon="2.55379">
        <ele>288</ele>
        <time>2018-05-21T09:04:34Z</time>
      </trkpt>
      <trkpt lat="43.00496" lon="2.55454">
        <ele>294</ele>
        <time>2018-05-21T09:05:11Z</time>
      </trkpt>
      <trkpt lat="43.00512" lon="2.55475">
        <ele>297</ele>
        <time>2018-05-21T09:05:22Z</time>
      </trkpt>
      <trkpt lat="43.00522" lon="2.55503">
        <ele>297</ele>
        <time>2018-05-21T09:05:46Z</time>
      </trkpt>
      <trkpt lat="43.00471" lon="2.5563">
        <ele>304</ele>
        <time>2018-05-21T09:12:52Z</time>
      </trkpt>
      <trkpt lat="43.00438" lon="2.55674">
        <ele>314</ele>
        <time>2018-05-21T09:17:47Z</time>
      </trkpt>
      <trkpt lat="43.00435" lon="2.55687">
        <ele>311</ele>
        <time>2018-05-21T09:17:51Z</time>
      </trkpt>
      <trkpt lat="43.00436" lon="2.55718">
        <ele>314</ele>
        <time>2018-05-21T09:18:05Z</time>
      </trkpt>
      <trkpt lat="43.00427" lon="2.55812">
        <ele>318</ele>
        <time>2018-05-21T09:18:42Z</time>
      </trkpt>
      <trkpt lat="43.00433" lon="2.55842">
        <ele>319</ele>
        <time>2018-05-21T09:18:56Z</time>
      </trkpt>
      <trkpt lat="43.00453" lon="2.55861">
        <ele>321</ele>
        <time>2018-05-21T09:19:08Z</time>
      </trkpt>
      <trkpt lat="43.00499" lon="2.55863">
        <ele>325</ele>
        <time>2018-05-21T09:19:34Z</time>
      </trkpt>
      <trkpt lat="43.00512" lon="2.55889">
        <ele>327</ele>
        <time>2018-05-21T09:19:48Z</time>
      </trkpt>
      <trkpt lat="43.00503" lon="2.55952">
        <ele>328</ele>
        <time>2018-05-21T09:20:15Z</time>
      </trkpt>
      <trkpt lat="43.00484" lon="2.56012">
        <ele>328</ele>
        <time>2018-05-21T09:20:32Z</time>
      </trkpt>
      <trkpt lat="43.00475" lon="2.56145">
        <ele>330</ele>
        <time>2018-05-21T09:21:06Z</time>
      </trkpt>
      <trkpt lat="43.00473" lon="2.56176">
        <ele>331</ele>
        <time>2018-05-21T09:21:13Z</time>
      </trkpt>
      <trkpt lat="43.00464" lon="2.56205">
        <ele>330</ele>
        <time>2018-05-21T09:21:19Z</time>
      </trkpt>
      <trkpt lat="43.00437" lon="2.56208">
        <ele>329</ele>
        <time>2018-05-21T09:21:25Z</time>
      </trkpt>
      <trkpt lat="43.00389" lon="2.5619">
        <ele>329</ele>
        <time>2018-05-21T09:21:36Z</time>
      </trkpt>
      <trkpt lat="43.00367" lon="2.56171">
        <ele>329</ele>
        <time>2018-05-21T09:21:43Z</time>
      </trkpt>
      <trkpt lat="43.00354" lon="2.56146">
        <ele>330</ele>
        <time>2018-05-21T09:21:51Z</time>
      </trkpt>
      <trkpt lat="43.00361" lon="2.56116">
        <ele>330</ele>
        <time>2018-05-21T09:22:43Z</time>
      </trkpt>
      <trkpt lat="43.00366" lon="2.56082">
        <ele>330</ele>
        <time>2018-05-21T09:22:50Z</time>
      </trkpt>
      <trkpt lat="43.00365" lon="2.56013">
        <ele>331</ele>
        <time>2018-05-21T09:23:06Z</time>
      </trkpt>
      <trkpt lat="43.00358" lon="2.55979">
        <ele>331</ele>
        <time>2018-05-21T09:23:13Z</time>
      </trkpt>
      <trkpt lat="43.00346" lon="2.55948">
        <ele>332</ele>
        <time>2018-05-21T09:23:20Z</time>
      </trkpt>
      <trkpt lat="43.00313" lon="2.55902">
        <ele>334</ele>
        <time>2018-05-21T09:23:33Z</time>
      </trkpt>
      <trkpt lat="43.00247" lon="2.55879">
        <ele>333</ele>
        <time>2018-05-21T09:23:58Z</time>
      </trkpt>
      <trkpt lat="43.00179" lon="2.559">
        <ele>336</ele>
        <time>2018-05-21T09:24:27Z</time>
      </trkpt>
      <trkpt lat="43.00156" lon="2.55893">
        <ele>339</ele>
        <time>2018-05-21T09:24:36Z</time>
      </trkpt>
      <trkpt lat="43.00134" lon="2.5589">
        <ele>342</ele>
        <time>2018-05-21T09:24:46Z</time>
      </trkpt>
      <trkpt lat="43.00115" lon="2.55912">
        <ele>343</ele>
        <time>2018-05-21T09:24:53Z</time>
      </trkpt>
      <trkpt lat="43.00093" lon="2.55972">
        <ele>343</ele>
        <time>2018-05-21T09:25:07Z</time>
      </trkpt>
      <trkpt lat="43.00103" lon="2.56039">
        <ele>342</ele>
        <time>2018-05-21T09:25:20Z</time>
      </trkpt>
      <trkpt lat="43.00103" lon="2.56072">
        <ele>342</ele>
        <time>2018-05-21T09:25:26Z</time>
      </trkpt>
      <trkpt lat="43.00089" lon="2.56099">
        <ele>341</ele>
        <time>2018-05-21T09:25:55Z</time>
      </trkpt>
      <trkpt lat="43.00033" lon="2.5616">
        <ele>342</ele>
        <time>2018-05-21T09:26:25Z</time>
      </trkpt>
      <trkpt lat="43.00033" lon="2.56192">
        <ele>352</ele>
        <time>2018-05-21T09:28:12Z</time>
      </trkpt>
      <trkpt lat="43.00041" lon="2.56222">
        <ele>349</ele>
        <time>2018-05-21T09:28:30Z</time>
      </trkpt>
      <trkpt lat="43.00039" lon="2.56253">
        <ele>347</ele>
        <time>2018-05-21T09:28:45Z</time>
      </trkpt>
      <trkpt lat="43.00043" lon="2.56284">
        <ele>346</ele>
        <time>2018-05-21T09:29:08Z</time>
      </trkpt>
      <trkpt lat="43.00043" lon="2.56314">
        <ele>342</ele>
        <time>2018-05-21T09:50:55Z</time>
      </trkpt>
      <trkpt lat="43.00048" lon="2.56345">
        <ele>340</ele>
        <time>2018-05-21T09:57:55Z</time>
      </trkpt>
      <trkpt lat="43.00055" lon="2.56374">
        <ele>344</ele>
        <time>2018-05-21T09:58:11Z</time>
      </trkpt>
      <trkpt lat="43.0006" lon="2.56405">
        <ele>345</ele>
        <time>2018-05-21T09:58:26Z</time>
      </trkpt>
      <trkpt lat="43.00074" lon="2.56464">
        <ele>347</ele>
        <time>2018-05-21T09:58:59Z</time>
      </trkpt>
      <trkpt lat="43.00081" lon="2.56494">
        <ele>348</ele>
        <time>2018-05-21T09:59:15Z</time>
      </trkpt>
      <trkpt lat="43.00092" lon="2.56521">
        <ele>349</ele>
        <time>2018-05-21T09:59:32Z</time>
      </trkpt>
      <trkpt lat="43.00134" lon="2.56549">
        <ele>354</ele>
        <time>2018-05-21T10:00:07Z</time>
      </trkpt>
      <trkpt lat="43.00156" lon="2.56558">
        <ele>356</ele>
        <time>2018-05-21T10:00:22Z</time>
      </trkpt>
      <trkpt lat="43.00195" lon="2.56591">
        <ele>358</ele>
        <time>2018-05-21T10:00:48Z</time>
      </trkpt>
      <trkpt lat="43.00209" lon="2.56616">
        <ele>360</ele>
        <time>2018-05-21T10:01:04Z</time>
      </trkpt>
      <trkpt lat="43.00217" lon="2.56645">
        <ele>362</ele>
        <time>2018-05-21T10:01:19Z</time>
      </trkpt>
      <trkpt lat="43.00212" lon="2.56676">
        <ele>364</ele>
        <time>2018-05-21T10:01:36Z</time>
      </trkpt>
      <trkpt lat="43.00213" lon="2.56708">
        <ele>364</ele>
        <time>2018-05-21T10:01:52Z</time>
      </trkpt>
      <trkpt lat="43.00206" lon="2.56738">
        <ele>366</ele>
        <time>2018-05-21T10:02:05Z</time>
      </trkpt>
      <trkpt lat="43.0019" lon="2.56761">
        <ele>366</ele>
        <time>2018-05-21T10:02:20Z</time>
      </trkpt>
      <trkpt lat="43.00182" lon="2.56824">
        <ele>364</ele>
        <time>2018-05-21T10:02:50Z</time>
      </trkpt>
      <trkpt lat="43.00179" lon="2.56888">
        <ele>359</ele>
        <time>2018-05-21T10:03:20Z</time>
      </trkpt>
      <trkpt lat="43.0017" lon="2.56919">
        <ele>358</ele>
        <time>2018-05-21T10:03:35Z</time>
      </trkpt>
      <trkpt lat="43.00166" lon="2.5695">
        <ele>358</ele>
        <time>2018-05-21T10:03:50Z</time>
      </trkpt>
      <trkpt lat="43.00132" lon="2.57032">
        <ele>365</ele>
        <time>2018-05-21T10:04:31Z</time>
      </trkpt>
      <trkpt lat="43.00104" lon="2.57119">
        <ele>376</ele>
        <time>2018-05-21T10:05:13Z</time>
      </trkpt>
      <trkpt lat="43.00102" lon="2.57152">
        <ele>380</ele>
        <time>2018-05-21T10:05:27Z</time>
      </trkpt>
      <trkpt lat="43.00095" lon="2.57182">
        <ele>385</ele>
        <time>2018-05-21T10:05:41Z</time>
      </trkpt>
      <trkpt lat="43.00064" lon="2.57227">
        <ele>390</ele>
        <time>2018-05-21T10:06:09Z</time>
      </trkpt>
      <trkpt lat="43.00039" lon="2.57317">
        <ele>395</ele>
        <time>2018-05-21T10:06:50Z</time>
      </trkpt>
      <trkpt lat="43.00003" lon="2.57359">
        <ele>398</ele>
        <time>2018-05-21T10:07:16Z</time>
      </trkpt>
      <trkpt lat="42.99993" lon="2.57387">
        <ele>400</ele>
        <time>2018-05-21T10:07:29Z</time>
      </trkpt>
      <trkpt lat="42.99992" lon="2.57418">
        <ele>403</ele>
        <time>2018-05-21T10:07:43Z</time>
      </trkpt>
      <trkpt lat="42.99974" lon="2.57477">
        <ele>407</ele>
        <time>2018-05-21T10:08:14Z</time>
      </trkpt>
      <trkpt lat="42.99965" lon="2.57541">
        <ele>410</ele>
        <time>2018-05-21T10:08:43Z</time>
      </trkpt>
      <trkpt lat="42.99939" lon="2.57594">
        <ele>412</ele>
        <time>2018-05-21T10:09:11Z</time>
      </trkpt>
      <trkpt lat="42.99906" lon="2.57641">
        <ele>415</ele>
        <time>2018-05-21T10:09:39Z</time>
      </trkpt>
      <trkpt lat="42.99895" lon="2.57669">
        <ele>415</ele>
        <time>2018-05-21T10:09:55Z</time>
      </trkpt>
      <trkpt lat="42.9991" lon="2.57692">
        <ele>418</ele>
        <time>2018-05-21T10:10:13Z</time>
      </trkpt>
      <trkpt lat="42.99955" lon="2.5767">
        <ele>423</ele>
        <time>2018-05-21T10:10:39Z</time>
      </trkpt>
      <trkpt lat="42.99994" lon="2.5764">
        <ele>427</ele>
        <time>2018-05-21T10:11:07Z</time>
      </trkpt>
      <trkpt lat="43.00016" lon="2.57649">
        <ele>429</ele>
        <time>2018-05-21T10:11:21Z</time>
      </trkpt>
      <trkpt lat="43.00036" lon="2.57668">
        <ele>433</ele>
        <time>2018-05-21T10:11:39Z</time>
      </trkpt>
      <trkpt lat="43.00053" lon="2.57648">
        <ele>440</ele>
        <time>2018-05-21T10:11:58Z</time>
      </trkpt>
      <trkpt lat="43.00053" lon="2.57616">
        <ele>446</ele>
        <time>2018-05-21T10:12:11Z</time>
      </trkpt>
      <trkpt lat="43.00052" lon="2.57583">
        <ele>447</ele>
        <time>2018-05-21T10:12:26Z</time>
      </trkpt>
      <trkpt lat="43.00055" lon="2.57552">
        <ele>446</ele>
        <time>2018-05-21T10:12:41Z</time>
      </trkpt>
      <trkpt lat="43.00067" lon="2.57522">
        <ele>446</ele>
        <time>2018-05-21T10:12:55Z</time>
      </trkpt>
      <trkpt lat="43.00078" lon="2.57495">
        <ele>449</ele>
        <time>2018-05-21T10:13:06Z</time>
      </trkpt>
      <trkpt lat="43.00095" lon="2.57472">
        <ele>450</ele>
        <time>2018-05-21T10:13:17Z</time>
      </trkpt>
      <trkpt lat="43.00146" lon="2.57406">
        <ele>450</ele>
        <time>2018-05-21T10:13:52Z</time>
      </trkpt>
      <trkpt lat="43.00159" lon="2.57379">
        <ele>451</ele>
        <time>2018-05-21T10:14:05Z</time>
      </trkpt>
      <trkpt lat="43.00181" lon="2.57367">
        <ele>456</ele>
        <time>2018-05-21T10:17:04Z</time>
      </trkpt>
      <trkpt lat="43.00204" lon="2.57377">
        <ele>459</ele>
        <time>2018-05-21T10:17:22Z</time>
      </trkpt>
      <trkpt lat="43.00267" lon="2.57421">
        <ele>462</ele>
        <time>2018-05-21T10:18:03Z</time>
      </trkpt>
      <trkpt lat="43.0029" lon="2.5742">
        <ele>463</ele>
        <time>2018-05-21T10:18:15Z</time>
      </trkpt>
      <trkpt lat="43.00306" lon="2.57442">
        <ele>467</ele>
        <time>2018-05-21T10:18:30Z</time>
      </trkpt>
      <trkpt lat="43.00294" lon="2.57468">
        <ele>469</ele>
        <time>2018-05-21T10:18:45Z</time>
      </trkpt>
      <trkpt lat="43.00272" lon="2.57484">
        <ele>469</ele>
        <time>2018-05-21T10:18:57Z</time>
      </trkpt>
      <trkpt lat="43.00255" lon="2.57508">
        <ele>470</ele>
        <time>2018-05-21T10:19:11Z</time>
      </trkpt>
      <trkpt lat="43.00187" lon="2.57527">
        <ele>473</ele>
        <time>2018-05-21T10:19:45Z</time>
      </trkpt>
      <trkpt lat="43.0017" lon="2.57549">
        <ele>474</ele>
        <time>2018-05-21T10:19:52Z</time>
      </trkpt>
      <trkpt lat="43.00151" lon="2.57609">
        <ele>475</ele>
        <time>2018-05-21T10:20:03Z</time>
      </trkpt>
      <trkpt lat="43.00126" lon="2.57733">
        <ele>479</ele>
        <time>2018-05-21T10:20:33Z</time>
      </trkpt>
      <trkpt lat="43.00115" lon="2.57763">
        <ele>481</ele>
        <time>2018-05-21T10:20:42Z</time>
      </trkpt>
      <trkpt lat="43.0007" lon="2.57839">
        <ele>481</ele>
        <time>2018-05-21T10:21:06Z</time>
      </trkpt>
      <trkpt lat="43.00051" lon="2.57859">
        <ele>482</ele>
        <time>2018-05-21T10:21:15Z</time>
      </trkpt>
      <trkpt lat="43.00032" lon="2.57875">
        <ele>483</ele>
        <time>2018-05-21T10:21:25Z</time>
      </trkpt>
      <trkpt lat="42.99998" lon="2.57825">
        <ele>487</ele>
        <time>2018-05-21T10:21:42Z</time>
      </trkpt>
      <trkpt lat="42.99976" lon="2.57813">
        <ele>489</ele>
        <time>2018-05-21T10:21:52Z</time>
      </trkpt>
      <trkpt lat="42.99954" lon="2.57824">
        <ele>490</ele>
        <time>2018-05-21T10:22:01Z</time>
      </trkpt>
      <trkpt lat="42.99904" lon="2.57891">
        <ele>498</ele>
        <time>2018-05-21T10:22:27Z</time>
      </trkpt>
      <trkpt lat="42.99866" lon="2.57933">
        <ele>499</ele>
        <time>2018-05-21T10:22:46Z</time>
      </trkpt>
      <trkpt lat="42.99858" lon="2.57962">
        <ele>500</ele>
        <time>2018-05-21T10:22:54Z</time>
      </trkpt>
      <trkpt lat="42.99848" lon="2.5799">
        <ele>500</ele>
        <time>2018-05-21T10:23:03Z</time>
      </trkpt>
      <trkpt lat="42.99808" lon="2.5802">
        <ele>500</ele>
        <time>2018-05-21T10:23:20Z</time>
      </trkpt>
      <trkpt lat="42.9979" lon="2.58043">
        <ele>501</ele>
        <time>2018-05-21T10:23:30Z</time>
      </trkpt>
      <trkpt lat="42.99776" lon="2.58069">
        <ele>503</ele>
        <time>2018-05-21T10:23:39Z</time>
      </trkpt>
      <trkpt lat="42.99776" lon="2.58102">
        <ele>504</ele>
        <time>2018-05-21T10:23:48Z</time>
      </trkpt>
      <trkpt lat="42.99773" lon="2.58136">
        <ele>504</ele>
        <time>2018-05-21T10:23:58Z</time>
      </trkpt>
      <trkpt lat="42.99752" lon="2.5815">
        <ele>504</ele>
        <time>2018-05-21T10:24:10Z</time>
      </trkpt>
      <trkpt lat="42.99707" lon="2.58122">
        <ele>504</ele>
        <time>2018-05-21T10:24:29Z</time>
      </trkpt>
      <trkpt lat="42.99685" lon="2.58119">
        <ele>503</ele>
        <time>2018-05-21T10:24:39Z</time>
      </trkpt>
      <trkpt lat="42.99661" lon="2.58129">
        <ele>503</ele>
        <time>2018-05-21T10:24:50Z</time>
      </trkpt>
      <trkpt lat="42.99604" lon="2.58186">
        <ele>504</ele>
        <time>2018-05-21T10:25:24Z</time>
      </trkpt>
      <trkpt lat="42.99582" lon="2.58197">
        <ele>505</ele>
        <time>2018-05-21T10:25:35Z</time>
      </trkpt>
      <trkpt lat="42.99559" lon="2.58201">
        <ele>506</ele>
        <time>2018-05-21T10:25:46Z</time>
      </trkpt>
      <trkpt lat="42.99536" lon="2.58196">
        <ele>508</ele>
        <time>2018-05-21T10:25:56Z</time>
      </trkpt>
      <trkpt lat="42.99515" lon="2.58181">
        <ele>509</ele>
        <time>2018-05-21T10:26:07Z</time>
      </trkpt>
      <trkpt lat="42.9947" lon="2.58106">
        <ele>513</ele>
        <time>2018-05-21T10:26:43Z</time>
      </trkpt>
      <trkpt lat="42.99438" lon="2.58058">
        <ele>516</ele>
        <time>2018-05-21T10:27:01Z</time>
      </trkpt>
      <trkpt lat="42.99374" lon="2.58005">
        <ele>518</ele>
        <time>2018-05-21T10:27:15Z</time>
      </trkpt>
      <trkpt lat="42.99281" lon="2.57948">
        <ele>517</ele>
        <time>2018-05-21T10:27:27Z</time>
      </trkpt>
      <trkpt lat="42.99253" lon="2.57933">
        <ele>515</ele>
        <time>2018-05-21T10:27:31Z</time>
      </trkpt>
      <trkpt lat="42.99215" lon="2.57878">
        <ele>511</ele>
        <time>2018-05-21T10:27:37Z</time>
      </trkpt>
      <trkpt lat="42.99214" lon="2.57838">
        <ele>508</ele>
        <time>2018-05-21T10:27:41Z</time>
      </trkpt>
      <trkpt lat="42.99165" lon="2.57861">
        <ele>504</ele>
        <time>2018-05-21T10:27:48Z</time>
      </trkpt>
      <trkpt lat="42.99142" lon="2.57858">
        <ele>501</ele>
        <time>2018-05-21T10:27:51Z</time>
      </trkpt>
      <trkpt lat="42.99096" lon="2.57821">
        <ele>498</ele>
        <time>2018-05-21T10:27:57Z</time>
      </trkpt>
      <trkpt lat="42.99081" lon="2.57793">
        <ele>497</ele>
        <time>2018-05-21T10:28:00Z</time>
      </trkpt>
      <trkpt lat="42.99048" lon="2.5769">
        <ele>493</ele>
        <time>2018-05-21T10:28:09Z</time>
      </trkpt>
      <trkpt lat="42.99025" lon="2.57665">
        <ele>492</ele>
        <time>2018-05-21T10:28:12Z</time>
      </trkpt>
      <trkpt lat="42.98944" lon="2.57639">
        <ele>488</ele>
        <time>2018-05-21T10:28:21Z</time>
      </trkpt>
      <trkpt lat="42.98902" lon="2.57598">
        <ele>486</ele>
        <time>2018-05-21T10:28:27Z</time>
      </trkpt>
      <trkpt lat="42.98793" lon="2.57573">
        <ele>477</ele>
        <time>2018-05-21T10:28:38Z</time>
      </trkpt>
      <trkpt lat="42.98741" lon="2.57528">
        <ele>474</ele>
        <time>2018-05-21T10:28:44Z</time>
      </trkpt>
      <trkpt lat="42.98703" lon="2.57466">
        <ele>471</ele>
        <time>2018-05-21T10:28:50Z</time>
      </trkpt>
      <trkpt lat="42.98651" lon="2.57423">
        <ele>466</ele>
        <time>2018-05-21T10:28:56Z</time>
      </trkpt>
      <trkpt lat="42.98623" lon="2.57431">
        <ele>465</ele>
        <time>2018-05-21T10:28:59Z</time>
      </trkpt>
      <trkpt lat="42.98595" lon="2.57485">
        <ele>461</ele>
        <time>2018-05-21T10:29:05Z</time>
      </trkpt>
      <trkpt lat="42.9858" lon="2.57508">
        <ele>459</ele>
        <time>2018-05-21T10:29:08Z</time>
      </trkpt>
      <trkpt lat="42.98554" lon="2.57525">
        <ele>458</ele>
        <time>2018-05-21T10:29:12Z</time>
      </trkpt>
      <trkpt lat="42.98503" lon="2.57511">
        <ele>458</ele>
        <time>2018-05-21T10:29:20Z</time>
      </trkpt>
      <trkpt lat="42.98469" lon="2.57454">
        <ele>455</ele>
        <time>2018-05-21T10:29:28Z</time>
      </trkpt>
      <trkpt lat="42.98428" lon="2.57412">
        <ele>453</ele>
        <time>2018-05-21T10:29:35Z</time>
      </trkpt>
      <trkpt lat="42.98403" lon="2.574">
        <ele>453</ele>
        <time>2018-05-21T10:29:39Z</time>
      </trkpt>
      <trkpt lat="42.98374" lon="2.57398">
        <ele>451</ele>
        <time>2018-05-21T10:29:43Z</time>
      </trkpt>
      <trkpt lat="42.98346" lon="2.57406">
        <ele>449</ele>
        <time>2018-05-21T10:29:47Z</time>
      </trkpt>
      <trkpt lat="42.98275" lon="2.57472">
        <ele>442</ele>
        <time>2018-05-21T10:29:59Z</time>
      </trkpt>
      <trkpt lat="42.98205" lon="2.57591">
        <ele>436</ele>
        <time>2018-05-21T10:30:14Z</time>
      </trkpt>
      <trkpt lat="42.98181" lon="2.57606">
        <ele>434</ele>
        <time>2018-05-21T10:30:18Z</time>
      </trkpt>
      <trkpt lat="42.98126" lon="2.57612">
        <ele>431</ele>
        <time>2018-05-21T10:30:25Z</time>
      </trkpt>
      <trkpt lat="42.98077" lon="2.57653">
        <ele>428</ele>
        <time>2018-05-21T10:30:32Z</time>
      </trkpt>
      <trkpt lat="42.97986" lon="2.57698">
        <ele>427</ele>
        <time>2018-05-21T10:31:07Z</time>
      </trkpt>
      <trkpt lat="42.97964" lon="2.57709">
        <ele>427</ele>
        <time>2018-05-21T10:31:18Z</time>
      </trkpt>
      <trkpt lat="42.97942" lon="2.57704">
        <ele>428</ele>
        <time>2018-05-21T10:31:27Z</time>
      </trkpt>
      <trkpt lat="42.97898" lon="2.57677">
        <ele>432</ele>
        <time>2018-05-21T10:31:48Z</time>
      </trkpt>
      <trkpt lat="42.97854" lon="2.57659">
        <ele>435</ele>
        <time>2018-05-21T10:32:09Z</time>
      </trkpt>
      <trkpt lat="42.97831" lon="2.57654">
        <ele>436</ele>
        <time>2018-05-21T10:32:21Z</time>
      </trkpt>
      <trkpt lat="42.97763" lon="2.57673">
        <ele>438</ele>
        <time>2018-05-21T10:32:54Z</time>
      </trkpt>
      <trkpt lat="42.97743" lon="2.57656">
        <ele>439</ele>
        <time>2018-05-21T10:33:04Z</time>
      </trkpt>
      <trkpt lat="42.97748" lon="2.57625">
        <ele>440</ele>
        <time>2018-05-21T10:33:16Z</time>
      </trkpt>
      <trkpt lat="42.97774" lon="2.57572">
        <ele>442</ele>
        <time>2018-05-21T10:33:36Z</time>
      </trkpt>
      <trkpt lat="42.97769" lon="2.57541">
        <ele>444</ele>
        <time>2018-05-21T10:33:46Z</time>
      </trkpt>
      <trkpt lat="42.97747" lon="2.57483">
        <ele>448</ele>
        <time>2018-05-21T10:34:06Z</time>
      </trkpt>
      <trkpt lat="42.9773" lon="2.57459">
        <ele>449</ele>
        <time>2018-05-21T10:34:17Z</time>
      </trkpt>
      <trkpt lat="42.97707" lon="2.57451">
        <ele>451</ele>
        <time>2018-05-21T10:34:27Z</time>
      </trkpt>
      <trkpt lat="42.97667" lon="2.57489">
        <ele>453</ele>
        <time>2018-05-21T10:34:46Z</time>
      </trkpt>
      <trkpt lat="42.97618" lon="2.57488">
        <ele>456</ele>
        <time>2018-05-21T10:35:04Z</time>
      </trkpt>
      <trkpt lat="42.97596" lon="2.575">
        <ele>457</ele>
        <time>2018-05-21T10:35:14Z</time>
      </trkpt>
      <trkpt lat="42.97587" lon="2.57528">
        <ele>457</ele>
        <time>2018-05-21T10:35:23Z</time>
      </trkpt>
      <trkpt lat="42.97555" lon="2.57574">
        <ele>453</ele>
        <time>2018-05-21T10:35:44Z</time>
      </trkpt>
      <trkpt lat="42.9749" lon="2.57622">
        <ele>453</ele>
        <time>2018-05-21T10:36:10Z</time>
      </trkpt>
      <trkpt lat="42.97468" lon="2.57629">
        <ele>454</ele>
        <time>2018-05-21T10:36:20Z</time>
      </trkpt>
      <trkpt lat="42.97444" lon="2.57635">
        <ele>456</ele>
        <time>2018-05-21T10:36:29Z</time>
      </trkpt>
      <trkpt lat="42.97404" lon="2.5767">
        <ele>458</ele>
        <time>2018-05-21T10:36:45Z</time>
      </trkpt>
      <trkpt lat="42.97389" lon="2.57693">
        <ele>460</ele>
        <time>2018-05-21T10:36:54Z</time>
      </trkpt>
      <trkpt lat="42.97386" lon="2.57726">
        <ele>461</ele>
        <time>2018-05-21T10:37:03Z</time>
      </trkpt>
      <trkpt lat="42.97353" lon="2.57849">
        <ele>469</ele>
        <time>2018-05-21T10:37:38Z</time>
      </trkpt>
      <trkpt lat="42.97342" lon="2.57912">
        <ele>470</ele>
        <time>2018-05-21T10:37:57Z</time>
      </trkpt>
      <trkpt lat="42.97344" lon="2.57942">
        <ele>471</ele>
        <time>2018-05-21T10:38:06Z</time>
      </trkpt>
      <trkpt lat="42.97371" lon="2.57992">
        <ele>471</ele>
        <time>2018-05-21T10:38:24Z</time>
      </trkpt>
      <trkpt lat="42.97385" lon="2.58018">
        <ele>472</ele>
        <time>2018-05-21T10:38:35Z</time>
      </trkpt>
      <trkpt lat="42.97381" lon="2.5805">
        <ele>473</ele>
        <time>2018-05-21T10:38:44Z</time>
      </trkpt>
      <trkpt lat="42.97364" lon="2.58072">
        <ele>475</ele>
        <time>2018-05-21T10:38:53Z</time>
      </trkpt>
      <trkpt lat="42.97375" lon="2.58101">
        <ele>486</ele>
        <time>2018-05-21T10:42:34Z</time>
      </trkpt>
      <trkpt lat="42.97391" lon="2.58125">
        <ele>487</ele>
        <time>2018-05-21T10:42:43Z</time>
      </trkpt>
      <trkpt lat="42.97413" lon="2.58143">
        <ele>488</ele>
        <time>2018-05-21T10:42:52Z</time>
      </trkpt>
      <trkpt lat="42.97526" lon="2.58154">
        <ele>484</ele>
        <time>2018-05-21T10:43:11Z</time>
      </trkpt>
      <trkpt lat="42.97569" lon="2.58197">
        <ele>482</ele>
        <time>2018-05-21T10:43:18Z</time>
      </trkpt>
      <trkpt lat="42.97744" lon="2.58479">
        <ele>472</ele>
        <time>2018-05-21T10:43:48Z</time>
      </trkpt>
      <trkpt lat="42.97983" lon="2.58749">
        <ele>459</ele>
        <time>2018-05-21T10:44:17Z</time>
      </trkpt>
      <trkpt lat="42.98017" lon="2.58821">
        <ele>456</ele>
        <time>2018-05-21T10:44:23Z</time>
      </trkpt>
      <trkpt lat="42.98019" lon="2.58905">
        <ele>452</ele>
        <time>2018-05-21T10:44:29Z</time>
      </trkpt>
      <trkpt lat="42.98029" lon="2.58942">
        <ele>451</ele>
        <time>2018-05-21T10:44:32Z</time>
      </trkpt>
      <trkpt lat="42.98052" lon="2.58969">
        <ele>449</ele>
        <time>2018-05-21T10:44:35Z</time>
      </trkpt>
      <trkpt lat="42.98112" lon="2.58991">
        <ele>445</ele>
        <time>2018-05-21T10:44:41Z</time>
      </trkpt>
      <trkpt lat="42.98134" lon="2.59023">
        <ele>443</ele>
        <time>2018-05-21T10:44:44Z</time>
      </trkpt>
      <trkpt lat="42.9814" lon="2.59103">
        <ele>440</ele>
        <time>2018-05-21T10:44:50Z</time>
      </trkpt>
      <trkpt lat="42.98126" lon="2.5933">
        <ele>432</ele>
        <time>2018-05-21T10:45:08Z</time>
      </trkpt>
      <trkpt lat="42.98145" lon="2.59424">
        <ele>429</ele>
        <time>2018-05-21T10:45:17Z</time>
      </trkpt>
      <trkpt lat="42.98249" lon="2.5963">
        <ele>418</ele>
        <time>2018-05-21T10:45:38Z</time>
      </trkpt>
      <trkpt lat="42.98273" lon="2.59733">
        <ele>414</ele>
        <time>2018-05-21T10:45:47Z</time>
      </trkpt>
      <trkpt lat="42.98263" lon="2.59883">
        <ele>409</ele>
        <time>2018-05-21T10:45:59Z</time>
      </trkpt>
      <trkpt lat="42.98275" lon="2.59947">
        <ele>407</ele>
        <time>2018-05-21T10:46:05Z</time>
      </trkpt>
      <trkpt lat="42.98333" lon="2.60068">
        <ele>402</ele>
        <time>2018-05-21T10:46:17Z</time>
      </trkpt>
      <trkpt lat="42.98351" lon="2.60139">
        <ele>399</ele>
        <time>2018-05-21T10:46:23Z</time>
      </trkpt>
      <trkpt lat="42.98344" lon="2.60175">
        <ele>398</ele>
        <time>2018-05-21T10:46:26Z</time>
      </trkpt>
      <trkpt lat="42.98285" lon="2.60341">
        <ele>393</ele>
        <time>2018-05-21T10:46:40Z</time>
      </trkpt>
      <trkpt lat="42.9829" lon="2.60461">
        <ele>389</ele>
        <time>2018-05-21T10:46:49Z</time>
      </trkpt>
      <trkpt lat="42.98282" lon="2.60499">
        <ele>389</ele>
        <time>2018-05-21T10:46:52Z</time>
      </trkpt>
      <trkpt lat="42.98231" lon="2.6059">
        <ele>386</ele>
        <time>2018-05-21T10:47:01Z</time>
      </trkpt>
      <trkpt lat="42.9823" lon="2.60668">
        <ele>383</ele>
        <time>2018-05-21T10:47:07Z</time>
      </trkpt>
      <trkpt lat="42.98241" lon="2.60742">
        <ele>379</ele>
        <time>2018-05-21T10:47:13Z</time>
      </trkpt>
      <trkpt lat="42.9825" lon="2.60777">
        <ele>377</ele>
        <time>2018-05-21T10:47:16Z</time>
      </trkpt>
      <trkpt lat="42.9827" lon="2.60803">
        <ele>375</ele>
        <time>2018-05-21T10:47:19Z</time>
      </trkpt>
      <trkpt lat="42.98294" lon="2.60818">
        <ele>373</ele>
        <time>2018-05-21T10:47:22Z</time>
      </trkpt>
      <trkpt lat="42.98323" lon="2.60821">
        <ele>370</ele>
        <time>2018-05-21T10:47:25Z</time>
      </trkpt>
      <trkpt lat="42.98351" lon="2.60835">
        <ele>368</ele>
        <time>2018-05-21T10:47:28Z</time>
      </trkpt>
      <trkpt lat="42.98387" lon="2.60894">
        <ele>365</ele>
        <time>2018-05-21T10:47:34Z</time>
      </trkpt>
      <trkpt lat="42.9841" lon="2.60919">
        <ele>363</ele>
        <time>2018-05-21T10:47:37Z</time>
      </trkpt>
      <trkpt lat="42.98528" lon="2.60928">
        <ele>356</ele>
        <time>2018-05-21T10:47:49Z</time>
      </trkpt>
      <trkpt lat="42.98575" lon="2.60965">
        <ele>353</ele>
        <time>2018-05-21T10:47:55Z</time>
      </trkpt>
      <trkpt lat="42.98609" lon="2.61017">
        <ele>350</ele>
        <time>2018-05-21T10:48:01Z</time>
      </trkpt>
      <trkpt lat="42.98728" lon="2.61278">
        <ele>339</ele>
        <time>2018-05-21T10:48:32Z</time>
      </trkpt>
      <trkpt lat="42.9878" lon="2.61389">
        <ele>337</ele>
        <time>2018-05-21T10:49:04Z</time>
      </trkpt>
      <trkpt lat="42.98819" lon="2.61431">
        <ele>334</ele>
        <time>2018-05-21T10:49:14Z</time>
      </trkpt>
      <trkpt lat="42.98838" lon="2.61448">
        <ele>333</ele>
        <time>2018-05-21T10:49:19Z</time>
      </trkpt>
      <trkpt lat="42.98854" lon="2.61426">
        <ele>332</ele>
        <time>2018-05-21T10:49:30Z</time>
      </trkpt>
      <trkpt lat="42.98843" lon="2.61453">
        <ele>331</ele>
        <time>2018-05-21T10:50:06Z</time>
      </trkpt>
      <trkpt lat="42.98862" lon="2.61477">
        <ele>331</ele>
        <time>2018-05-21T10:50:16Z</time>
      </trkpt>
      <trkpt lat="42.98899" lon="2.61518">
        <ele>329</ele>
        <time>2018-05-21T10:50:32Z</time>
      </trkpt>
      <trkpt lat="42.9888" lon="2.61538">
        <ele>327</ele>
        <time>2018-05-21T10:50:41Z</time>
      </trkpt>
      <trkpt lat="42.98861" lon="2.61557">
        <ele>325</ele>
        <time>2018-05-21T10:50:49Z</time>
      </trkpt>
      <trkpt lat="42.98848" lon="2.61586">
        <ele>322</ele>
        <time>2018-05-21T10:51:02Z</time>
      </trkpt>
      <trkpt lat="42.98878" lon="2.61672">
        <ele>320</ele>
        <time>2018-05-21T10:51:34Z</time>
      </trkpt>
      <trkpt lat="42.98874" lon="2.61704">
        <ele>322</ele>
        <time>2018-05-21T10:51:48Z</time>
      </trkpt>
      <trkpt lat="42.98873" lon="2.61704">
        <ele>327</ele>
        <time>2018-05-21T10:52:15Z</time>
      </trkpt>
      <trkpt lat="42.98855" lon="2.61576">
        <ele>330</ele>
        <time>2018-05-21T10:52:42Z</time>
      </trkpt>
      <trkpt lat="42.98877" lon="2.61569">
        <ele>330</ele>
        <time>2018-05-21T10:52:50Z</time>
      </trkpt>
      <trkpt lat="42.98903" lon="2.61553">
        <ele>329</ele>
        <time>2018-05-21T10:52:57Z</time>
      </trkpt>
      <trkpt lat="42.98886" lon="2.61575">
        <ele>328</ele>
        <time>2018-05-21T10:53:20Z</time>
      </trkpt>
      <trkpt lat="42.98863" lon="2.6158">
        <ele>328</ele>
        <time>2018-05-21T10:53:36Z</time>
      </trkpt>
      <trkpt lat="42.9887" lon="2.61548">
        <ele>327</ele>
        <time>2018-05-21T10:53:48Z</time>
      </trkpt>
      <trkpt lat="42.98883" lon="2.61523">
        <ele>325</ele>
        <time>2018-05-21T10:53:55Z</time>
      </trkpt>
      <trkpt lat="42.98906" lon="2.61521">
        <ele>333</ele>
        <time>2018-05-21T11:26:14Z</time>
      </trkpt>
      <trkpt lat="42.98923" lon="2.61541">
        <ele>332</ele>
        <time>2018-05-21T11:26:26Z</time>
      </trkpt>
      <trkpt lat="42.98944" lon="2.61558">
        <ele>332</ele>
        <time>2018-05-21T11:26:37Z</time>
      </trkpt>
      <trkpt lat="42.98992" lon="2.61539">
        <ele>332</ele>
        <time>2018-05-21T11:27:11Z</time>
      </trkpt>
      <trkpt lat="42.99013" lon="2.61523">
        <ele>332</ele>
        <time>2018-05-21T11:27:18Z</time>
      </trkpt>
      <trkpt lat="42.99038" lon="2.61517">
        <ele>332</ele>
        <time>2018-05-21T11:27:25Z</time>
      </trkpt>
      <trkpt lat="42.99057" lon="2.61536">
        <ele>332</ele>
        <time>2018-05-21T11:27:31Z</time>
      </trkpt>
      <trkpt lat="42.99067" lon="2.61566">
        <ele>332</ele>
        <time>2018-05-21T11:27:39Z</time>
      </trkpt>
      <trkpt lat="42.99079" lon="2.61593">
        <ele>333</ele>
        <time>2018-05-21T11:27:49Z</time>
      </trkpt>
      <trkpt lat="42.99112" lon="2.61678">
        <ele>336</ele>
        <time>2018-05-21T11:28:27Z</time>
      </trkpt>
      <trkpt lat="42.99124" lon="2.6174">
        <ele>339</ele>
        <time>2018-05-21T11:28:49Z</time>
      </trkpt>
      <trkpt lat="42.99129" lon="2.61834">
        <ele>340</ele>
        <time>2018-05-21T11:29:24Z</time>
      </trkpt>
      <trkpt lat="42.99129" lon="2.61867">
        <ele>340</ele>
        <time>2018-05-21T11:29:36Z</time>
      </trkpt>
      <trkpt lat="42.99147" lon="2.61958">
        <ele>342</ele>
        <time>2018-05-21T11:30:15Z</time>
      </trkpt>
      <trkpt lat="42.99152" lon="2.61988">
        <ele>343</ele>
        <time>2018-05-21T11:30:29Z</time>
      </trkpt>
      <trkpt lat="42.9916" lon="2.62052">
        <ele>341</ele>
        <time>2018-05-21T11:30:57Z</time>
      </trkpt>
      <trkpt lat="42.99171" lon="2.62081">
        <ele>342</ele>
        <time>2018-05-21T11:31:10Z</time>
      </trkpt>
      <trkpt lat="42.99186" lon="2.62106">
        <ele>343</ele>
        <time>2018-05-21T11:31:23Z</time>
      </trkpt>
      <trkpt lat="42.99206" lon="2.62126">
        <ele>346</ele>
        <time>2018-05-21T11:31:37Z</time>
      </trkpt>
      <trkpt lat="42.99227" lon="2.6214">
        <ele>347</ele>
        <time>2018-05-21T11:31:50Z</time>
      </trkpt>
      <trkpt lat="42.99295" lon="2.62163">
        <ele>349</ele>
        <time>2018-05-21T11:32:31Z</time>
      </trkpt>
      <trkpt lat="42.99366" lon="2.62179">
        <ele>352</ele>
        <time>2018-05-21T11:33:09Z</time>
      </trkpt>
      <trkpt lat="42.99411" lon="2.62194">
        <ele>355</ele>
        <time>2018-05-21T11:33:36Z</time>
      </trkpt>
      <trkpt lat="42.99457" lon="2.62202">
        <ele>357</ele>
        <time>2018-05-21T11:34:00Z</time>
      </trkpt>
      <trkpt lat="42.99526" lon="2.62194">
        <ele>357</ele>
        <time>2018-05-21T11:34:39Z</time>
      </trkpt>
      <trkpt lat="42.9955" lon="2.62201">
        <ele>359</ele>
        <time>2018-05-21T11:34:50Z</time>
      </trkpt>
      <trkpt lat="42.99567" lon="2.62222">
        <ele>360</ele>
        <time>2018-05-21T11:34:58Z</time>
      </trkpt>
      <trkpt lat="42.99604" lon="2.6231">
        <ele>362</ele>
        <time>2018-05-21T11:35:12Z</time>
      </trkpt>
      <trkpt lat="42.99804" lon="2.62505">
        <ele>360</ele>
        <time>2018-05-21T11:35:41Z</time>
      </trkpt>
      <trkpt lat="42.99831" lon="2.62513">
        <ele>358</ele>
        <time>2018-05-21T11:35:44Z</time>
      </trkpt>
      <trkpt lat="43.00079" lon="2.62448">
        <ele>344</ele>
        <time>2018-05-21T11:36:06Z</time>
      </trkpt>
      <trkpt lat="43.0011" lon="2.62456">
        <ele>342</ele>
        <time>2018-05-21T11:36:09Z</time>
      </trkpt>
      <trkpt lat="43.0013" lon="2.62492">
        <ele>340</ele>
        <time>2018-05-21T11:36:12Z</time>
      </trkpt>
      <trkpt lat="43.00138" lon="2.62532">
        <ele>338</ele>
        <time>2018-05-21T11:36:15Z</time>
      </trkpt>
      <trkpt lat="43.00157" lon="2.62558">
        <ele>337</ele>
        <time>2018-05-21T11:36:18Z</time>
      </trkpt>
      <trkpt lat="43.00184" lon="2.6256">
        <ele>336</ele>
        <time>2018-05-21T11:36:21Z</time>
      </trkpt>
      <trkpt lat="43.00228" lon="2.62587">
        <ele>333</ele>
        <time>2018-05-21T11:36:28Z</time>
      </trkpt>
      <trkpt lat="43.00252" lon="2.6259">
        <ele>331</ele>
        <time>2018-05-21T11:36:32Z</time>
      </trkpt>
      <trkpt lat="43.00375" lon="2.62534">
        <ele>328</ele>
        <time>2018-05-21T11:36:57Z</time>
      </trkpt>
      <trkpt lat="43.00423" lon="2.62548">
        <ele>327</ele>
        <time>2018-05-21T11:37:08Z</time>
      </trkpt>
      <trkpt lat="43.00492" lon="2.6264">
        <ele>326</ele>
        <time>2018-05-21T11:37:31Z</time>
      </trkpt>
      <trkpt lat="43.00517" lon="2.62692">
        <ele>327</ele>
        <time>2018-05-21T11:37:53Z</time>
      </trkpt>
      <trkpt lat="43.00559" lon="2.62719">
        <ele>331</ele>
        <time>2018-05-21T11:38:18Z</time>
      </trkpt>
      <trkpt lat="43.00569" lon="2.62751">
        <ele>330</ele>
        <time>2018-05-21T11:38:50Z</time>
      </trkpt>
      <trkpt lat="43.00569" lon="2.62749">
        <ele>328</ele>
        <time>2018-05-21T11:39:28Z</time>
      </trkpt>
      <trkpt lat="43.00617" lon="2.62759">
        <ele>324</ele>
        <time>2018-05-21T11:39:41Z</time>
      </trkpt>
      <trkpt lat="43.00639" lon="2.62744">
        <ele>322</ele>
        <time>2018-05-21T11:39:47Z</time>
      </trkpt>
      <trkpt lat="43.00649" lon="2.62713">
        <ele>320</ele>
        <time>2018-05-21T11:39:54Z</time>
      </trkpt>
      <trkpt lat="43.00653" lon="2.62683">
        <ele>316</ele>
        <time>2018-05-21T11:41:08Z</time>
      </trkpt>
      <trkpt lat="43.00663" lon="2.62712">
        <ele>313</ele>
        <time>2018-05-21T12:17:15Z</time>
      </trkpt>
      <trkpt lat="43.00688" lon="2.62715">
        <ele>314</ele>
        <time>2018-05-21T12:17:28Z</time>
      </trkpt>
      <trkpt lat="43.0071" lon="2.62704">
        <ele>314</ele>
        <time>2018-05-21T12:17:46Z</time>
      </trkpt>
      <trkpt lat="43.00718" lon="2.62675">
        <ele>315</ele>
        <time>2018-05-21T12:18:00Z</time>
      </trkpt>
      <trkpt lat="43.00739" lon="2.62664">
        <ele>316</ele>
        <time>2018-05-21T12:18:20Z</time>
      </trkpt>
      <trkpt lat="43.00742" lon="2.62696">
        <ele>316</ele>
        <time>2018-05-21T12:18:34Z</time>
      </trkpt>
      <trkpt lat="43.00723" lon="2.62789">
        <ele>318</ele>
        <time>2018-05-21T12:19:07Z</time>
      </trkpt>
      <trkpt lat="43.00711" lon="2.62815">
        <ele>318</ele>
        <time>2018-05-21T12:19:15Z</time>
      </trkpt>
      <trkpt lat="43.00715" lon="2.62916">
        <ele>318</ele>
        <time>2018-05-21T12:19:43Z</time>
      </trkpt>
      <trkpt lat="43.00711" lon="2.62947">
        <ele>319</ele>
        <time>2018-05-21T12:19:52Z</time>
      </trkpt>
      <trkpt lat="43.00694" lon="2.62971">
        <ele>320</ele>
        <time>2018-05-21T12:20:03Z</time>
      </trkpt>
      <trkpt lat="43.0067" lon="2.63025">
        <ele>319</ele>
        <time>2018-05-21T12:20:27Z</time>
      </trkpt>
      <trkpt lat="43.00673" lon="2.6306">
        <ele>319</ele>
        <time>2018-05-21T12:20:58Z</time>
      </trkpt>
      <trkpt lat="43.00688" lon="2.6312">
        <ele>321</ele>
        <time>2018-05-21T12:21:15Z</time>
      </trkpt>
      <trkpt lat="43.00693" lon="2.63182">
        <ele>322</ele>
        <time>2018-05-21T12:21:38Z</time>
      </trkpt>
      <trkpt lat="43.00698" lon="2.63246">
        <ele>324</ele>
        <time>2018-05-21T12:22:02Z</time>
      </trkpt>
      <trkpt lat="43.00726" lon="2.63337">
        <ele>327</ele>
        <time>2018-05-21T12:22:39Z</time>
      </trkpt>
      <trkpt lat="43.00752" lon="2.63426">
        <ele>330</ele>
        <time>2018-05-21T12:23:12Z</time>
      </trkpt>
      <trkpt lat="43.00769" lon="2.63484">
        <ele>332</ele>
        <time>2018-05-21T12:23:33Z</time>
      </trkpt>
      <trkpt lat="43.00818" lon="2.63555">
        <ele>336</ele>
        <time>2018-05-21T12:24:05Z</time>
      </trkpt>
      <trkpt lat="43.00827" lon="2.63584">
        <ele>337</ele>
        <time>2018-05-21T12:24:16Z</time>
      </trkpt>
      <trkpt lat="43.00836" lon="2.63613">
        <ele>341</ele>
        <time>2018-05-21T12:24:30Z</time>
      </trkpt>
      <trkpt lat="43.00828" lon="2.63641">
        <ele>351</ele>
        <time>2018-05-21T12:26:30Z</time>
      </trkpt>
      <trkpt lat="43.00812" lon="2.63703">
        <ele>350</ele>
        <time>2018-05-21T12:26:43Z</time>
      </trkpt>
      <trkpt lat="43.00771" lon="2.63785">
        <ele>349</ele>
        <time>2018-05-21T12:26:58Z</time>
      </trkpt>
      <trkpt lat="43.00736" lon="2.63981">
        <ele>345</ele>
        <time>2018-05-21T12:27:28Z</time>
      </trkpt>
      <trkpt lat="43.00734" lon="2.64012">
        <ele>345</ele>
        <time>2018-05-21T12:27:33Z</time>
      </trkpt>
      <trkpt lat="43.00758" lon="2.64108">
        <ele>345</ele>
        <time>2018-05-21T12:27:49Z</time>
      </trkpt>
      <trkpt lat="43.00755" lon="2.64139">
        <ele>344</ele>
        <time>2018-05-21T12:27:54Z</time>
      </trkpt>
      <trkpt lat="43.00733" lon="2.6415">
        <ele>345</ele>
        <time>2018-05-21T12:28:01Z</time>
      </trkpt>
      <trkpt lat="43.00716" lon="2.64169">
        <ele>346</ele>
        <time>2018-05-21T12:28:08Z</time>
      </trkpt>
      <trkpt lat="43.00714" lon="2.64332">
        <ele>350</ele>
        <time>2018-05-21T12:28:44Z</time>
      </trkpt>
      <trkpt lat="43.00707" lon="2.64461">
        <ele>354</ele>
        <time>2018-05-21T12:29:21Z</time>
      </trkpt>
      <trkpt lat="43.00717" lon="2.64585">
        <ele>356</ele>
        <time>2018-05-21T12:29:55Z</time>
      </trkpt>
      <trkpt lat="43.0073" lon="2.64713">
        <ele>358</ele>
        <time>2018-05-21T12:30:27Z</time>
      </trkpt>
      <trkpt lat="43.0073" lon="2.64746">
        <ele>360</ele>
        <time>2018-05-21T12:30:34Z</time>
      </trkpt>
      <trkpt lat="43.00709" lon="2.64803">
        <ele>362</ele>
        <time>2018-05-21T12:30:51Z</time>
      </trkpt>
      <trkpt lat="43.00634" lon="2.64931">
        <ele>361</ele>
        <time>2018-05-21T12:31:22Z</time>
      </trkpt>
      <trkpt lat="43.00618" lon="2.64954">
        <ele>361</ele>
        <time>2018-05-21T12:31:27Z</time>
      </trkpt>
      <trkpt lat="43.00595" lon="2.64965">
        <ele>361</ele>
        <time>2018-05-21T12:31:30Z</time>
      </trkpt>
      <trkpt lat="43.00576" lon="2.64986">
        <ele>361</ele>
        <time>2018-05-21T12:31:35Z</time>
      </trkpt>
      <trkpt lat="43.00573" lon="2.65021">
        <ele>360</ele>
        <time>2018-05-21T12:31:38Z</time>
      </trkpt>
      <trkpt lat="43.00553" lon="2.65054">
        <ele>359</ele>
        <time>2018-05-21T12:31:43Z</time>
      </trkpt>
      <trkpt lat="43.00526" lon="2.65041">
        <ele>358</ele>
        <time>2018-05-21T12:31:47Z</time>
      </trkpt>
      <trkpt lat="43.00504" lon="2.65054">
        <ele>357</ele>
        <time>2018-05-21T12:31:51Z</time>
      </trkpt>
      <trkpt lat="43.00489" lon="2.65079">
        <ele>356</ele>
        <time>2018-05-21T12:31:56Z</time>
      </trkpt>
      <trkpt lat="43.00487" lon="2.65114">
        <ele>355</ele>
        <time>2018-05-21T12:32:24Z</time>
      </trkpt>
      <trkpt lat="43.00511" lon="2.6513">
        <ele>354</ele>
        <time>2018-05-21T12:32:28Z</time>
      </trkpt>
      <trkpt lat="43.00533" lon="2.65152">
        <ele>354</ele>
        <time>2018-05-21T12:32:33Z</time>
      </trkpt>
      <trkpt lat="43.00546" lon="2.65179">
        <ele>353</ele>
        <time>2018-05-21T12:32:36Z</time>
      </trkpt>
      <trkpt lat="43.00545" lon="2.6529">
        <ele>349</ele>
        <time>2018-05-21T12:32:47Z</time>
      </trkpt>
      <trkpt lat="43.0051" lon="2.65577">
        <ele>338</ele>
        <time>2018-05-21T12:33:14Z</time>
      </trkpt>
      <trkpt lat="43.00499" lon="2.65605">
        <ele>336</ele>
        <time>2018-05-21T12:33:17Z</time>
      </trkpt>
      <trkpt lat="43.00469" lon="2.65603">
        <ele>334</ele>
        <time>2018-05-21T12:33:21Z</time>
      </trkpt>
      <trkpt lat="43.00445" lon="2.65577">
        <ele>332</ele>
        <time>2018-05-21T12:33:25Z</time>
      </trkpt>
      <trkpt lat="43.00423" lon="2.65566">
        <ele>331</ele>
        <time>2018-05-21T12:33:28Z</time>
      </trkpt>
      <trkpt lat="43.00402" lon="2.65578">
        <ele>330</ele>
        <time>2018-05-21T12:33:31Z</time>
      </trkpt>
      <trkpt lat="43.00403" lon="2.65615">
        <ele>329</ele>
        <time>2018-05-21T12:33:35Z</time>
      </trkpt>
      <trkpt lat="43.00415" lon="2.65651">
        <ele>329</ele>
        <time>2018-05-21T12:33:39Z</time>
      </trkpt>
      <trkpt lat="43.00454" lon="2.6569">
        <ele>328</ele>
        <time>2018-05-21T12:33:45Z</time>
      </trkpt>
      <trkpt lat="43.00474" lon="2.65714">
        <ele>327</ele>
        <time>2018-05-21T12:33:49Z</time>
      </trkpt>
      <trkpt lat="43.00494" lon="2.65735">
        <ele>327</ele>
        <time>2018-05-21T12:33:53Z</time>
      </trkpt>
      <trkpt lat="43.00523" lon="2.65788">
        <ele>325</ele>
        <time>2018-05-21T12:34:00Z</time>
      </trkpt>
      <trkpt lat="43.00536" lon="2.65854">
        <ele>322</ele>
        <time>2018-05-21T12:34:10Z</time>
      </trkpt>
      <trkpt lat="43.00545" lon="2.65927">
        <ele>321</ele>
        <time>2018-05-21T12:34:21Z</time>
      </trkpt>
      <trkpt lat="43.00529" lon="2.65949">
        <ele>320</ele>
        <time>2018-05-21T12:34:23Z</time>
      </trkpt>
      <trkpt lat="43.0051" lon="2.65978">
        <ele>319</ele>
        <time>2018-05-21T12:34:27Z</time>
      </trkpt>
      <trkpt lat="43.00516" lon="2.6601">
        <ele>319</ele>
        <time>2018-05-21T12:34:31Z</time>
      </trkpt>
      <trkpt lat="43.00536" lon="2.66033">
        <ele>319</ele>
        <time>2018-05-21T12:34:36Z</time>
      </trkpt>
      <trkpt lat="43.0055" lon="2.66066">
        <ele>319</ele>
        <time>2018-05-21T12:34:41Z</time>
      </trkpt>
      <trkpt lat="43.00557" lon="2.66133">
        <ele>318</ele>
        <time>2018-05-21T12:34:50Z</time>
      </trkpt>
      <trkpt lat="43.00549" lon="2.66167">
        <ele>318</ele>
        <time>2018-05-21T12:34:55Z</time>
      </trkpt>
      <trkpt lat="43.00562" lon="2.66196">
        <ele>317</ele>
        <time>2018-05-21T12:34:59Z</time>
      </trkpt>
      <trkpt lat="43.00563" lon="2.66234">
        <ele>317</ele>
        <time>2018-05-21T12:35:04Z</time>
      </trkpt>
      <trkpt lat="43.00567" lon="2.66267">
        <ele>315</ele>
        <time>2018-05-21T12:35:08Z</time>
      </trkpt>
      <trkpt lat="43.00602" lon="2.66315">
        <ele>314</ele>
        <time>2018-05-21T12:35:16Z</time>
      </trkpt>
      <trkpt lat="43.00618" lon="2.66514">
        <ele>311</ele>
        <time>2018-05-21T12:35:40Z</time>
      </trkpt>
      <trkpt lat="43.006" lon="2.66541">
        <ele>310</ele>
        <time>2018-05-21T12:35:45Z</time>
      </trkpt>
      <trkpt lat="43.00576" lon="2.66546">
        <ele>309</ele>
        <time>2018-05-21T12:35:48Z</time>
      </trkpt>
      <trkpt lat="43.00537" lon="2.66582">
        <ele>306</ele>
        <time>2018-05-21T12:35:54Z</time>
      </trkpt>
      <trkpt lat="43.00534" lon="2.66614">
        <ele>304</ele>
        <time>2018-05-21T12:35:57Z</time>
      </trkpt>
      <trkpt lat="43.00554" lon="2.66631">
        <ele>303</ele>
        <time>2018-05-21T12:36:00Z</time>
      </trkpt>
      <trkpt lat="43.00578" lon="2.66629">
        <ele>302</ele>
        <time>2018-05-21T12:36:04Z</time>
      </trkpt>
      <trkpt lat="43.00601" lon="2.66641">
        <ele>302</ele>
        <time>2018-05-21T12:36:10Z</time>
      </trkpt>
      <trkpt lat="43.00622" lon="2.66658">
        <ele>302</ele>
        <time>2018-05-21T12:36:17Z</time>
      </trkpt>
      <trkpt lat="43.00642" lon="2.66677">
        <ele>303</ele>
        <time>2018-05-21T12:36:27Z</time>
      </trkpt>
      <trkpt lat="43.00657" lon="2.66738">
        <ele>305</ele>
        <time>2018-05-21T12:36:49Z</time>
      </trkpt>
      <trkpt lat="43.00678" lon="2.66753">
        <ele>307</ele>
        <time>2018-05-21T12:36:56Z</time>
      </trkpt>
      <trkpt lat="43.0068" lon="2.66784">
        <ele>308</ele>
        <time>2018-05-21T12:37:07Z</time>
      </trkpt>
      <trkpt lat="43.00729" lon="2.66898">
        <ele>312</ele>
        <time>2018-05-21T12:37:44Z</time>
      </trkpt>
      <trkpt lat="43.00736" lon="2.6693">
        <ele>312</ele>
        <time>2018-05-21T12:37:53Z</time>
      </trkpt>
      <trkpt lat="43.00728" lon="2.66994">
        <ele>312</ele>
        <time>2018-05-21T12:38:09Z</time>
      </trkpt>
      <trkpt lat="43.0072" lon="2.67024">
        <ele>313</ele>
        <time>2018-05-21T12:38:18Z</time>
      </trkpt>
      <trkpt lat="43.00689" lon="2.67072">
        <ele>313</ele>
        <time>2018-05-21T12:38:37Z</time>
      </trkpt>
      <trkpt lat="43.00671" lon="2.67093">
        <ele>313</ele>
        <time>2018-05-21T12:38:46Z</time>
      </trkpt>
      <trkpt lat="43.00675" lon="2.67158">
        <ele>314</ele>
        <time>2018-05-21T12:39:02Z</time>
      </trkpt>
      <trkpt lat="43.0067" lon="2.67225">
        <ele>315</ele>
        <time>2018-05-21T12:39:15Z</time>
      </trkpt>
      <trkpt lat="43.0062" lon="2.67334">
        <ele>319</ele>
        <time>2018-05-21T12:39:49Z</time>
      </trkpt>
      <trkpt lat="43.00604" lon="2.67357">
        <ele>320</ele>
        <time>2018-05-21T12:39:58Z</time>
      </trkpt>
      <trkpt lat="43.00573" lon="2.67408">
        <ele>320</ele>
        <time>2018-05-21T12:40:18Z</time>
      </trkpt>
      <trkpt lat="43.00553" lon="2.67429">
        <ele>319</ele>
        <time>2018-05-21T12:40:26Z</time>
      </trkpt>
      <trkpt lat="43.0053" lon="2.67436">
        <ele>319</ele>
        <time>2018-05-21T12:40:33Z</time>
      </trkpt>
      <trkpt lat="43.00509" lon="2.67453">
        <ele>318</ele>
        <time>2018-05-21T12:40:41Z</time>
      </trkpt>
      <trkpt lat="43.00514" lon="2.67483">
        <ele>317</ele>
        <time>2018-05-21T12:40:51Z</time>
      </trkpt>
      <trkpt lat="43.00529" lon="2.67507">
        <ele>318</ele>
        <time>2018-05-21T12:41:01Z</time>
      </trkpt>
      <trkpt lat="43.00556" lon="2.67631">
        <ele>322</ele>
        <time>2018-05-21T12:41:39Z</time>
      </trkpt>
      <trkpt lat="43.00562" lon="2.67663">
        <ele>323</ele>
        <time>2018-05-21T12:41:47Z</time>
      </trkpt>
      <trkpt lat="43.00551" lon="2.67691">
        <ele>324</ele>
        <time>2018-05-21T12:41:57Z</time>
      </trkpt>
      <trkpt lat="43.00527" lon="2.67701">
        <ele>323</ele>
        <time>2018-05-21T12:42:03Z</time>
      </trkpt>
      <trkpt lat="43.00509" lon="2.67722">
        <ele>323</ele>
        <time>2018-05-21T12:42:11Z</time>
      </trkpt>
      <trkpt lat="43.00486" lon="2.67778">
        <ele>326</ele>
        <time>2018-05-21T12:42:28Z</time>
      </trkpt>
      <trkpt lat="43.00479" lon="2.6781">
        <ele>326</ele>
        <time>2018-05-21T12:42:37Z</time>
      </trkpt>
      <trkpt lat="43.00495" lon="2.67835">
        <ele>327</ele>
        <time>2018-05-21T12:42:46Z</time>
      </trkpt>
      <trkpt lat="43.00514" lon="2.67857">
        <ele>328</ele>
        <time>2018-05-21T12:42:54Z</time>
      </trkpt>
      <trkpt lat="43.00513" lon="2.67925">
        <ele>329</ele>
        <time>2018-05-21T12:43:12Z</time>
      </trkpt>
      <trkpt lat="43.00512" lon="2.67955">
        <ele>329</ele>
        <time>2018-05-21T12:43:20Z</time>
      </trkpt>
      <trkpt lat="43.00532" lon="2.68013">
        <ele>330</ele>
        <time>2018-05-21T12:43:36Z</time>
      </trkpt>
      <trkpt lat="43.00536" lon="2.68047">
        <ele>332</ele>
        <time>2018-05-21T12:43:44Z</time>
      </trkpt>
      <trkpt lat="43.00533" lon="2.68077">
        <ele>333</ele>
        <time>2018-05-21T12:43:52Z</time>
      </trkpt>
      <trkpt lat="43.00533" lon="2.6811">
        <ele>333</ele>
        <time>2018-05-21T12:44:01Z</time>
      </trkpt>
      <trkpt lat="43.00552" lon="2.68131">
        <ele>332</ele>
        <time>2018-05-21T12:44:09Z</time>
      </trkpt>
      <trkpt lat="43.00548" lon="2.68165">
        <ele>332</ele>
        <time>2018-05-21T12:44:16Z</time>
      </trkpt>
      <trkpt lat="43.00534" lon="2.68188">
        <ele>334</ele>
        <time>2018-05-21T12:44:23Z</time>
      </trkpt>
      <trkpt lat="43.00515" lon="2.68208">
        <ele>335</ele>
        <time>2018-05-21T12:44:27Z</time>
      </trkpt>
      <trkpt lat="43.00521" lon="2.68241">
        <ele>337</ele>
        <time>2018-05-21T12:44:32Z</time>
      </trkpt>
      <trkpt lat="43.00548" lon="2.68292">
        <ele>334</ele>
        <time>2018-05-21T12:44:41Z</time>
      </trkpt>
      <trkpt lat="43.00548" lon="2.68323">
        <ele>334</ele>
        <time>2018-05-21T12:44:45Z</time>
      </trkpt>
      <trkpt lat="43.00471" lon="2.68322">
        <ele>333</ele>
        <time>2018-05-21T12:45:01Z</time>
      </trkpt>
      <trkpt lat="43.00449" lon="2.68337">
        <ele>333</ele>
        <time>2018-05-21T12:45:08Z</time>
      </trkpt>
      <trkpt lat="43.00448" lon="2.68368">
        <ele>334</ele>
        <time>2018-05-21T12:45:15Z</time>
      </trkpt>
      <trkpt lat="43.00472" lon="2.68424">
        <ele>331</ele>
        <time>2018-05-21T12:45:31Z</time>
      </trkpt>
      <trkpt lat="43.0049" lon="2.68444">
        <ele>331</ele>
        <time>2018-05-21T12:45:38Z</time>
      </trkpt>
      <trkpt lat="43.0054" lon="2.68453">
        <ele>331</ele>
        <time>2018-05-21T12:45:49Z</time>
      </trkpt>
      <trkpt lat="43.00562" lon="2.68473">
        <ele>332</ele>
        <time>2018-05-21T12:45:55Z</time>
      </trkpt>
      <trkpt lat="43.00575" lon="2.68502">
        <ele>332</ele>
        <time>2018-05-21T12:46:02Z</time>
      </trkpt>
      <trkpt lat="43.00557" lon="2.68667">
        <ele>333</ele>
        <time>2018-05-21T12:46:33Z</time>
      </trkpt>
      <trkpt lat="43.00539" lon="2.68729">
        <ele>332</ele>
        <time>2018-05-21T12:46:48Z</time>
      </trkpt>
      <trkpt lat="43.00539" lon="2.68825">
        <ele>331</ele>
        <time>2018-05-21T12:47:09Z</time>
      </trkpt>
      <trkpt lat="43.00531" lon="2.68856">
        <ele>331</ele>
        <time>2018-05-21T12:47:16Z</time>
      </trkpt>
      <trkpt lat="43.00523" lon="2.68886">
        <ele>332</ele>
        <time>2018-05-21T12:47:24Z</time>
      </trkpt>
      <trkpt lat="43.00493" lon="2.68939">
        <ele>333</ele>
        <time>2018-05-21T12:47:42Z</time>
      </trkpt>
      <trkpt lat="43.00484" lon="2.69003">
        <ele>338</ele>
        <time>2018-05-21T12:48:04Z</time>
      </trkpt>
      <trkpt lat="43.00481" lon="2.69035">
        <ele>340</ele>
        <time>2018-05-21T12:48:14Z</time>
      </trkpt>
      <trkpt lat="43.00455" lon="2.69089">
        <ele>342</ele>
        <time>2018-05-21T12:48:32Z</time>
      </trkpt>
      <trkpt lat="43.00443" lon="2.69152">
        <ele>342</ele>
        <time>2018-05-21T12:48:51Z</time>
      </trkpt>
      <trkpt lat="43.00413" lon="2.69241">
        <ele>343</ele>
        <time>2018-05-21T12:49:21Z</time>
      </trkpt>
      <trkpt lat="43.00367" lon="2.69314">
        <ele>346</ele>
        <time>2018-05-21T12:49:50Z</time>
      </trkpt>
      <trkpt lat="43.00333" lon="2.69362">
        <ele>349</ele>
        <time>2018-05-21T12:50:09Z</time>
      </trkpt>
      <trkpt lat="43.00301" lon="2.69481">
        <ele>351</ele>
        <time>2018-05-21T12:50:48Z</time>
      </trkpt>
      <trkpt lat="43.00293" lon="2.69512">
        <ele>351</ele>
        <time>2018-05-21T12:51:00Z</time>
      </trkpt>
      <trkpt lat="43.00281" lon="2.69639">
        <ele>353</ele>
        <time>2018-05-21T12:51:40Z</time>
      </trkpt>
      <trkpt lat="43.00273" lon="2.69702">
        <ele>355</ele>
        <time>2018-05-21T12:52:00Z</time>
      </trkpt>
      <trkpt lat="43.00314" lon="2.69822">
        <ele>360</ele>
        <time>2018-05-21T12:52:33Z</time>
      </trkpt>
      <trkpt lat="43.00321" lon="2.69957">
        <ele>361</ele>
        <time>2018-05-21T12:53:05Z</time>
      </trkpt>
      <trkpt lat="43.00326" lon="2.70056">
        <ele>360</ele>
        <time>2018-05-21T12:53:23Z</time>
      </trkpt>
      <trkpt lat="43.00332" lon="2.70088">
        <ele>359</ele>
        <time>2018-05-21T12:53:28Z</time>
      </trkpt>
      <trkpt lat="43.00355" lon="2.70257">
        <ele>353</ele>
        <time>2018-05-21T12:53:49Z</time>
      </trkpt>
      <trkpt lat="43.00364" lon="2.70288">
        <ele>351</ele>
        <time>2018-05-21T12:53:53Z</time>
      </trkpt>
      <trkpt lat="43.00375" lon="2.70319">
        <ele>350</ele>
        <time>2018-05-21T12:53:57Z</time>
      </trkpt>
      <trkpt lat="43.00386" lon="2.70346">
        <ele>349</ele>
        <time>2018-05-21T12:54:01Z</time>
      </trkpt>
      <trkpt lat="43.00387" lon="2.70378">
        <ele>348</ele>
        <time>2018-05-21T12:54:07Z</time>
      </trkpt>
      <trkpt lat="43.00401" lon="2.70404">
        <ele>346</ele>
        <time>2018-05-21T12:56:46Z</time>
      </trkpt>
      <trkpt lat="43.00409" lon="2.7044">
        <ele>345</ele>
        <time>2018-05-21T12:56:51Z</time>
      </trkpt>
      <trkpt lat="43.00418" lon="2.70468">
        <ele>344</ele>
        <time>2018-05-21T12:56:55Z</time>
      </trkpt>
      <trkpt lat="43.00432" lon="2.70494">
        <ele>343</ele>
        <time>2018-05-21T12:56:59Z</time>
      </trkpt>
      <trkpt lat="43.00442" lon="2.70522">
        <ele>342</ele>
        <time>2018-05-21T12:57:03Z</time>
      </trkpt>
      <trkpt lat="43.00439" lon="2.70554">
        <ele>342</ele>
        <time>2018-05-21T12:57:07Z</time>
      </trkpt>
      <trkpt lat="43.00443" lon="2.70586">
        <ele>341</ele>
        <time>2018-05-21T12:57:11Z</time>
      </trkpt>
      <trkpt lat="43.00462" lon="2.70614">
        <ele>339</ele>
        <time>2018-05-21T12:57:15Z</time>
      </trkpt>
      <trkpt lat="43.00462" lon="2.70689">
        <ele>337</ele>
        <time>2018-05-21T12:57:22Z</time>
      </trkpt>
      <trkpt lat="43.00455" lon="2.7072">
        <ele>335</ele>
        <time>2018-05-21T12:57:25Z</time>
      </trkpt>
      <trkpt lat="43.00454" lon="2.70756">
        <ele>333</ele>
        <time>2018-05-21T12:57:28Z</time>
      </trkpt>
      <trkpt lat="43.00464" lon="2.70827">
        <ele>329</ele>
        <time>2018-05-21T12:57:34Z</time>
      </trkpt>
      <trkpt lat="43.00463" lon="2.70862">
        <ele>327</ele>
        <time>2018-05-21T12:57:37Z</time>
      </trkpt>
      <trkpt lat="43.00467" lon="2.70898">
        <ele>325</ele>
        <time>2018-05-21T12:57:40Z</time>
      </trkpt>
      <trkpt lat="43.00462" lon="2.71069">
        <ele>319</ele>
        <time>2018-05-21T12:57:55Z</time>
      </trkpt>
      <trkpt lat="43.00472" lon="2.71134">
        <ele>314</ele>
        <time>2018-05-21T12:58:01Z</time>
      </trkpt>
      <trkpt lat="43.00466" lon="2.71214">
        <ele>310</ele>
        <time>2018-05-21T12:58:09Z</time>
      </trkpt>
      <trkpt lat="43.00476" lon="2.71251">
        <ele>308</ele>
        <time>2018-05-21T12:58:13Z</time>
      </trkpt>
      <trkpt lat="43.00491" lon="2.71279">
        <ele>307</ele>
        <time>2018-05-21T12:58:17Z</time>
      </trkpt>
      <trkpt lat="43.00496" lon="2.71347">
        <ele>306</ele>
        <time>2018-05-21T12:58:25Z</time>
      </trkpt>
      <trkpt lat="43.00493" lon="2.71377">
        <ele>306</ele>
        <time>2018-05-21T12:58:28Z</time>
      </trkpt>
      <trkpt lat="43.005" lon="2.71451">
        <ele>304</ele>
        <time>2018-05-21T12:58:36Z</time>
      </trkpt>
      <trkpt lat="43.00529" lon="2.7155">
        <ele>302</ele>
        <time>2018-05-21T12:58:48Z</time>
      </trkpt>
      <trkpt lat="43.00543" lon="2.71581">
        <ele>301</ele>
        <time>2018-05-21T12:58:52Z</time>
      </trkpt>
      <trkpt lat="43.00556" lon="2.71616">
        <ele>300</ele>
        <time>2018-05-21T12:58:56Z</time>
      </trkpt>
      <trkpt lat="43.00559" lon="2.71687">
        <ele>298</ele>
        <time>2018-05-21T12:59:04Z</time>
      </trkpt>
      <trkpt lat="43.00564" lon="2.71719">
        <ele>297</ele>
        <time>2018-05-21T12:59:09Z</time>
      </trkpt>
      <trkpt lat="43.00577" lon="2.71745">
        <ele>294</ele>
        <time>2018-05-21T13:01:23Z</time>
      </trkpt>
      <trkpt lat="43.00605" lon="2.71807">
        <ele>292</ele>
        <time>2018-05-21T13:01:34Z</time>
      </trkpt>
      <trkpt lat="43.00615" lon="2.7184">
        <ele>292</ele>
        <time>2018-05-21T13:01:39Z</time>
      </trkpt>
      <trkpt lat="43.00614" lon="2.71911">
        <ele>292</ele>
        <time>2018-05-21T13:01:48Z</time>
      </trkpt>
      <trkpt lat="43.00647" lon="2.71965">
        <ele>292</ele>
        <time>2018-05-21T13:01:56Z</time>
      </trkpt>
      <trkpt lat="43.00653" lon="2.72002">
        <ele>292</ele>
        <time>2018-05-21T13:02:00Z</time>
      </trkpt>
      <trkpt lat="43.00658" lon="2.72041">
        <ele>290</ele>
        <time>2018-05-21T13:02:04Z</time>
      </trkpt>
      <trkpt lat="43.00688" lon="2.72099">
        <ele>286</ele>
        <time>2018-05-21T13:02:11Z</time>
      </trkpt>
      <trkpt lat="43.00698" lon="2.72138">
        <ele>285</ele>
        <time>2018-05-21T13:02:15Z</time>
      </trkpt>
      <trkpt lat="43.00692" lon="2.72168">
        <ele>284</ele>
        <time>2018-05-21T13:02:18Z</time>
      </trkpt>
      <trkpt lat="43.0069" lon="2.72208">
        <ele>283</ele>
        <time>2018-05-21T13:02:22Z</time>
      </trkpt>
      <trkpt lat="43.00703" lon="2.72236">
        <ele>282</ele>
        <time>2018-05-21T13:02:25Z</time>
      </trkpt>
      <trkpt lat="43.00714" lon="2.72264">
        <ele>281</ele>
        <time>2018-05-21T13:02:28Z</time>
      </trkpt>
      <trkpt lat="43.00715" lon="2.72296">
        <ele>279</ele>
        <time>2018-05-21T13:02:31Z</time>
      </trkpt>
      <trkpt lat="43.00748" lon="2.72388">
        <ele>273</ele>
        <time>2018-05-21T13:02:40Z</time>
      </trkpt>
      <trkpt lat="43.00748" lon="2.72457">
        <ele>270</ele>
        <time>2018-05-21T13:02:46Z</time>
      </trkpt>
      <trkpt lat="43.00752" lon="2.72525">
        <ele>268</ele>
        <time>2018-05-21T13:02:52Z</time>
      </trkpt>
      <trkpt lat="43.00712" lon="2.72699">
        <ele>268</ele>
        <time>2018-05-21T13:03:12Z</time>
      </trkpt>
      <trkpt lat="43.00717" lon="2.72927">
        <ele>262</ele>
        <time>2018-05-21T13:03:44Z</time>
      </trkpt>
      <trkpt lat="43.00719" lon="2.72995">
        <ele>260</ele>
        <time>2018-05-21T13:03:53Z</time>
      </trkpt>
      <trkpt lat="43.00715" lon="2.73026">
        <ele>259</ele>
        <time>2018-05-21T13:03:57Z</time>
      </trkpt>
      <trkpt lat="43.00624" lon="2.73126">
        <ele>254</ele>
        <time>2018-05-21T13:04:17Z</time>
      </trkpt>
      <trkpt lat="43.00605" lon="2.73153">
        <ele>253</ele>
        <time>2018-05-21T13:04:22Z</time>
      </trkpt>
      <trkpt lat="43.006" lon="2.73185">
        <ele>253</ele>
        <time>2018-05-21T13:04:27Z</time>
      </trkpt>
      <trkpt lat="43.00603" lon="2.73218">
        <ele>253</ele>
        <time>2018-05-21T13:04:32Z</time>
      </trkpt>
      <trkpt lat="43.0062" lon="2.73277">
        <ele>252</ele>
        <time>2018-05-21T13:04:42Z</time>
      </trkpt>
      <trkpt lat="43.00618" lon="2.73308">
        <ele>251</ele>
        <time>2018-05-21T13:04:47Z</time>
      </trkpt>
      <trkpt lat="43.00614" lon="2.73343">
        <ele>251</ele>
        <time>2018-05-21T13:04:53Z</time>
      </trkpt>
      <trkpt lat="43.00605" lon="2.73374">
        <ele>250</ele>
        <time>2018-05-21T13:05:02Z</time>
      </trkpt>
      <trkpt lat="43.00623" lon="2.73393">
        <ele>250</ele>
        <time>2018-05-21T13:05:14Z</time>
      </trkpt>
      <trkpt lat="43.00645" lon="2.73387">
        <ele>249</ele>
        <time>2018-05-21T13:05:25Z</time>
      </trkpt>
      <trkpt lat="43.00668" lon="2.73381">
        <ele>248</ele>
        <time>2018-05-21T13:05:39Z</time>
      </trkpt>
      <trkpt lat="43.00676" lon="2.7352">
        <ele>249</ele>
        <time>2018-05-21T13:06:14Z</time>
      </trkpt>
      <trkpt lat="43.00675" lon="2.73593">
        <ele>248</ele>
        <time>2018-05-21T13:06:24Z</time>
      </trkpt>
      <trkpt lat="43.00662" lon="2.73625">
        <ele>246</ele>
        <time>2018-05-21T13:06:29Z</time>
      </trkpt>
      <trkpt lat="43.00636" lon="2.73631">
        <ele>244</ele>
        <time>2018-05-21T13:06:33Z</time>
      </trkpt>
      <trkpt lat="43.00581" lon="2.73609">
        <ele>241</ele>
        <time>2018-05-21T13:06:41Z</time>
      </trkpt>
      <trkpt lat="43.00554" lon="2.73593">
        <ele>240</ele>
        <time>2018-05-21T13:06:45Z</time>
      </trkpt>
      <trkpt lat="43.00535" lon="2.73566">
        <ele>239</ele>
        <time>2018-05-21T13:06:49Z</time>
      </trkpt>
      <trkpt lat="43.00496" lon="2.73424">
        <ele>233</ele>
        <time>2018-05-21T13:07:04Z</time>
      </trkpt>
      <trkpt lat="43.00484" lon="2.73397">
        <ele>232</ele>
        <time>2018-05-21T13:07:07Z</time>
      </trkpt>
      <trkpt lat="43.00462" lon="2.73378">
        <ele>230</ele>
        <time>2018-05-21T13:07:11Z</time>
      </trkpt>
      <trkpt lat="43.00436" lon="2.73371">
        <ele>228</ele>
        <time>2018-05-21T13:07:15Z</time>
      </trkpt>
      <trkpt lat="43.00412" lon="2.73378">
        <ele>227</ele>
        <time>2018-05-21T13:07:19Z</time>
      </trkpt>
      <trkpt lat="43.0039" lon="2.73393">
        <ele>222</ele>
        <time>2018-05-21T13:08:52Z</time>
      </trkpt>
      <trkpt lat="43.00346" lon="2.73439">
        <ele>221</ele>
        <time>2018-05-21T13:09:03Z</time>
      </trkpt>
      <trkpt lat="43.00279" lon="2.73494">
        <ele>219</ele>
        <time>2018-05-21T13:09:15Z</time>
      </trkpt>
      <trkpt lat="43.00259" lon="2.73514">
        <ele>218</ele>
        <time>2018-05-21T13:09:20Z</time>
      </trkpt>
      <trkpt lat="43.00236" lon="2.73532">
        <ele>215</ele>
        <time>2018-05-21T13:10:34Z</time>
      </trkpt>
      <trkpt lat="43.00213" lon="2.7352">
        <ele>214</ele>
        <time>2018-05-21T13:10:39Z</time>
      </trkpt>
      <trkpt lat="43.00191" lon="2.73412">
        <ele>212</ele>
        <time>2018-05-21T13:10:51Z</time>
      </trkpt>
      <trkpt lat="43.00169" lon="2.73395">
        <ele>212</ele>
        <time>2018-05-21T13:10:54Z</time>
      </trkpt>
      <trkpt lat="43.00114" lon="2.73397">
        <ele>212</ele>
        <time>2018-05-21T13:11:02Z</time>
      </trkpt>
      <trkpt lat="43.00089" lon="2.73406">
        <ele>211</ele>
        <time>2018-05-21T13:11:07Z</time>
      </trkpt>
      <trkpt lat="43.00109" lon="2.73424">
        <ele>211</ele>
        <time>2018-05-21T13:11:18Z</time>
      </trkpt>
      <trkpt lat="43.00085" lon="2.73413">
        <ele>211</ele>
        <time>2018-05-21T13:11:54Z</time>
      </trkpt>
      <trkpt lat="43.00065" lon="2.73427">
        <ele>209</ele>
        <time>2018-05-21T13:12:02Z</time>
      </trkpt>
      <trkpt lat="43.00045" lon="2.73445">
        <ele>205</ele>
        <time>2018-05-21T13:13:13Z</time>
      </trkpt>
      <trkpt lat="43.00025" lon="2.73461">
        <ele>206</ele>
        <time>2018-05-21T13:13:22Z</time>
      </trkpt>
      <trkpt lat="43.00012" lon="2.73491">
        <ele>208</ele>
        <time>2018-05-21T13:13:30Z</time>
      </trkpt>
      <trkpt lat="43.0001" lon="2.73523">
        <ele>209</ele>
        <time>2018-05-21T13:13:34Z</time>
      </trkpt>
      <trkpt lat="42.99939" lon="2.73742">
        <ele>209</ele>
        <time>2018-05-21T13:14:08Z</time>
      </trkpt>
      <trkpt lat="42.99872" lon="2.73962">
        <ele>205</ele>
        <time>2018-05-21T13:14:39Z</time>
      </trkpt>
      <trkpt lat="42.99835" lon="2.7409">
        <ele>203</ele>
        <time>2018-05-21T13:14:57Z</time>
      </trkpt>
      <trkpt lat="42.99818" lon="2.74119">
        <ele>202</ele>
        <time>2018-05-21T13:15:02Z</time>
      </trkpt>
      <trkpt lat="42.9978" lon="2.74159">
        <ele>201</ele>
        <time>2018-05-21T13:15:11Z</time>
      </trkpt>
      <trkpt lat="42.99753" lon="2.74211">
        <ele>199</ele>
        <time>2018-05-21T13:15:20Z</time>
      </trkpt>
      <trkpt lat="42.99662" lon="2.74277">
        <ele>193</ele>
        <time>2018-05-21T13:15:40Z</time>
      </trkpt>
      <trkpt lat="42.99623" lon="2.7432">
        <ele>190</ele>
        <time>2018-05-21T13:15:50Z</time>
      </trkpt>
      <trkpt lat="42.99611" lon="2.74385">
        <ele>187</ele>
        <time>2018-05-21T13:15:59Z</time>
      </trkpt>
      <trkpt lat="42.99594" lon="2.74454">
        <ele>188</ele>
        <time>2018-05-21T13:16:09Z</time>
      </trkpt>
      <trkpt lat="42.99574" lon="2.74478">
        <ele>188</ele>
        <time>2018-05-21T13:16:14Z</time>
      </trkpt>
      <trkpt lat="42.99527" lon="2.74495">
        <ele>188</ele>
        <time>2018-05-21T13:16:47Z</time>
      </trkpt>
      <trkpt lat="42.99506" lon="2.74514">
        <ele>188</ele>
        <time>2018-05-21T13:16:55Z</time>
      </trkpt>
      <trkpt lat="42.99432" lon="2.74514">
        <ele>185</ele>
        <time>2018-05-21T13:17:11Z</time>
      </trkpt>
      <trkpt lat="42.99405" lon="2.74523">
        <ele>184</ele>
        <time>2018-05-21T13:17:16Z</time>
      </trkpt>
      <trkpt lat="42.99327" lon="2.74624">
        <ele>182</ele>
        <time>2018-05-21T13:17:32Z</time>
      </trkpt>
      <trkpt lat="42.99303" lon="2.74647">
        <ele>181</ele>
        <time>2018-05-21T13:17:36Z</time>
      </trkpt>
      <trkpt lat="42.99278" lon="2.74665">
        <ele>181</ele>
        <time>2018-05-21T13:17:40Z</time>
      </trkpt>
      <trkpt lat="42.99255" lon="2.74653">
        <ele>180</ele>
        <time>2018-05-21T13:17:44Z</time>
      </trkpt>
      <trkpt lat="42.99199" lon="2.74583">
        <ele>177</ele>
        <time>2018-05-21T13:17:56Z</time>
      </trkpt>
      <trkpt lat="42.99177" lon="2.74574">
        <ele>175</ele>
        <time>2018-05-21T13:18:10Z</time>
      </trkpt>
      <trkpt lat="42.99146" lon="2.74633">
        <ele>169</ele>
        <time>2018-05-21T13:18:21Z</time>
      </trkpt>
      <trkpt lat="42.99103" lon="2.74676">
        <ele>166</ele>
        <time>2018-05-21T13:18:29Z</time>
      </trkpt>
      <trkpt lat="42.99057" lon="2.74705">
        <ele>165</ele>
        <time>2018-05-21T13:18:37Z</time>
      </trkpt>
      <trkpt lat="42.99048" lon="2.74733">
        <ele>164</ele>
        <time>2018-05-21T13:18:41Z</time>
      </trkpt>
      <trkpt lat="42.9905" lon="2.74764">
        <ele>164</ele>
        <time>2018-05-21T13:18:45Z</time>
      </trkpt>
      <trkpt lat="42.99096" lon="2.74856">
        <ele>165</ele>
        <time>2018-05-21T13:18:57Z</time>
      </trkpt>
      <trkpt lat="42.99186" lon="2.7499">
        <ele>165</ele>
        <time>2018-05-21T13:19:18Z</time>
      </trkpt>
      <trkpt lat="42.99203" lon="2.75054">
        <ele>164</ele>
        <time>2018-05-21T13:19:27Z</time>
      </trkpt>
      <trkpt lat="42.99201" lon="2.75087">
        <ele>163</ele>
        <time>2018-05-21T13:19:31Z</time>
      </trkpt>
      <trkpt lat="42.99193" lon="2.75116">
        <ele>163</ele>
        <time>2018-05-21T13:19:36Z</time>
      </trkpt>
      <trkpt lat="42.99144" lon="2.75197">
        <ele>159</ele>
        <time>2018-05-21T13:19:50Z</time>
      </trkpt>
      <trkpt lat="42.99118" lon="2.75298">
        <ele>159</ele>
        <time>2018-05-21T13:20:04Z</time>
      </trkpt>
      <trkpt lat="42.99119" lon="2.75334">
        <ele>158</ele>
        <time>2018-05-21T13:20:09Z</time>
      </trkpt>
      <trkpt lat="42.9913" lon="2.75471">
        <ele>160</ele>
        <time>2018-05-21T13:20:29Z</time>
      </trkpt>
      <trkpt lat="42.99121" lon="2.75504">
        <ele>160</ele>
        <time>2018-05-21T13:20:35Z</time>
      </trkpt>
      <trkpt lat="42.99095" lon="2.75507">
        <ele>160</ele>
        <time>2018-05-21T13:20:42Z</time>
      </trkpt>
      <trkpt lat="42.99001" lon="2.75476">
        <ele>157</ele>
        <time>2018-05-21T13:21:01Z</time>
      </trkpt>
      <trkpt lat="42.98929" lon="2.75491">
        <ele>153</ele>
        <time>2018-05-21T13:21:13Z</time>
      </trkpt>
      <trkpt lat="42.98906" lon="2.75504">
        <ele>152</ele>
        <time>2018-05-21T13:21:17Z</time>
      </trkpt>
      <trkpt lat="42.98892" lon="2.75529">
        <ele>152</ele>
        <time>2018-05-21T13:21:21Z</time>
      </trkpt>
      <trkpt lat="42.98873" lon="2.75552">
        <ele>151</ele>
        <time>2018-05-21T13:21:25Z</time>
      </trkpt>
      <trkpt lat="42.98851" lon="2.75562">
        <ele>152</ele>
        <time>2018-05-21T13:21:29Z</time>
      </trkpt>
      <trkpt lat="42.98826" lon="2.75577">
        <ele>151</ele>
        <time>2018-05-21T13:21:34Z</time>
      </trkpt>
      <trkpt lat="42.98796" lon="2.75627">
        <ele>151</ele>
        <time>2018-05-21T13:21:50Z</time>
      </trkpt>
      <trkpt lat="42.98776" lon="2.75646">
        <ele>152</ele>
        <time>2018-05-21T13:22:24Z</time>
      </trkpt>
      <trkpt lat="42.98622" lon="2.75765">
        <ele>149</ele>
        <time>2018-05-21T13:22:59Z</time>
      </trkpt>
      <trkpt lat="42.98581" lon="2.75796">
        <ele>148</ele>
        <time>2018-05-21T13:23:08Z</time>
      </trkpt>
      <trkpt lat="42.98565" lon="2.75821">
        <ele>148</ele>
        <time>2018-05-21T13:23:16Z</time>
      </trkpt>
      <trkpt lat="42.9855" lon="2.75854">
        <ele>148</ele>
        <time>2018-05-21T13:23:23Z</time>
      </trkpt>
      <trkpt lat="42.98536" lon="2.75884">
        <ele>147</ele>
        <time>2018-05-21T13:23:27Z</time>
      </trkpt>
      <trkpt lat="42.98431" lon="2.76074">
        <ele>145</ele>
        <time>2018-05-21T13:23:59Z</time>
      </trkpt>
      <trkpt lat="42.98405" lon="2.76135">
        <ele>144</ele>
        <time>2018-05-21T13:24:08Z</time>
      </trkpt>
      <trkpt lat="42.98288" lon="2.76319">
        <ele>140</ele>
        <time>2018-05-21T13:24:40Z</time>
      </trkpt>
      <trkpt lat="42.98153" lon="2.76496">
        <ele>136</ele>
        <time>2018-05-21T13:25:15Z</time>
      </trkpt>
      <trkpt lat="42.98048" lon="2.76643">
        <ele>137</ele>
        <time>2018-05-21T13:25:45Z</time>
      </trkpt>
      <trkpt lat="42.98022" lon="2.767">
        <ele>137</ele>
        <time>2018-05-21T13:25:55Z</time>
      </trkpt>
      <trkpt lat="42.97962" lon="2.7688">
        <ele>134</ele>
        <time>2018-05-21T13:26:26Z</time>
      </trkpt>
      <trkpt lat="42.97947" lon="2.76909">
        <ele>133</ele>
        <time>2018-05-21T13:26:31Z</time>
      </trkpt>
      <trkpt lat="42.97925" lon="2.77003">
        <ele>132</ele>
        <time>2018-05-21T13:26:46Z</time>
      </trkpt>
      <trkpt lat="42.97907" lon="2.77211">
        <ele>130</ele>
        <time>2018-05-21T13:27:16Z</time>
      </trkpt>
      <trkpt lat="42.97902" lon="2.77346">
        <ele>128</ele>
        <time>2018-05-21T13:27:36Z</time>
      </trkpt>
      <trkpt lat="42.97892" lon="2.77408">
        <ele>128</ele>
        <time>2018-05-21T13:27:47Z</time>
      </trkpt>
      <trkpt lat="42.97824" lon="2.77553">
        <ele>128</ele>
        <time>2018-05-21T13:28:13Z</time>
      </trkpt>
      <trkpt lat="42.97743" lon="2.77675">
        <ele>128</ele>
        <time>2018-05-21T13:28:44Z</time>
      </trkpt>
      <trkpt lat="42.97698" lon="2.77694">
        <ele>130</ele>
        <time>2018-05-21T13:28:57Z</time>
      </trkpt>
      <trkpt lat="42.97686" lon="2.77598">
        <ele>130</ele>
        <time>2018-05-21T13:29:33Z</time>
      </trkpt>
      <trkpt lat="42.97676" lon="2.7757">
        <ele>130</ele>
        <time>2018-05-21T13:29:40Z</time>
      </trkpt>
      <trkpt lat="42.97688" lon="2.77633">
        <ele>128</ele>
        <time>2018-05-21T13:30:00Z</time>
      </trkpt>
      <trkpt lat="42.97691" lon="2.77669">
        <ele>128</ele>
        <time>2018-05-21T13:30:07Z</time>
      </trkpt>
      <trkpt lat="42.97696" lon="2.77735">
        <ele>126</ele>
        <time>2018-05-21T13:30:19Z</time>
      </trkpt>
      <trkpt lat="42.97698" lon="2.7777">
        <ele>126</ele>
        <time>2018-05-21T13:30:25Z</time>
      </trkpt>
      <trkpt lat="42.97722" lon="2.77864">
        <ele>131</ele>
        <time>2018-05-21T13:30:41Z</time>
      </trkpt>
      <trkpt lat="42.9775" lon="2.77917">
        <ele>132</ele>
        <time>2018-05-21T13:30:49Z</time>
      </trkpt>
      <trkpt lat="42.97778" lon="2.77967">
        <ele>130</ele>
        <time>2018-05-21T13:30:58Z</time>
      </trkpt>
      <trkpt lat="42.97867" lon="2.78035">
        <ele>127</ele>
        <time>2018-05-21T13:31:18Z</time>
      </trkpt>
      <trkpt lat="42.98036" lon="2.78131">
        <ele>121</ele>
        <time>2018-05-21T13:31:50Z</time>
      </trkpt>
      <trkpt lat="42.98059" lon="2.78137">
        <ele>121</ele>
        <time>2018-05-21T13:31:53Z</time>
      </trkpt>
      <trkpt lat="42.98141" lon="2.78215">
        <ele>118</ele>
        <time>2018-05-21T13:32:11Z</time>
      </trkpt>
      <trkpt lat="42.98165" lon="2.78223">
        <ele>117</ele>
        <time>2018-05-21T13:32:15Z</time>
      </trkpt>
      <trkpt lat="42.98215" lon="2.78234">
        <ele>118</ele>
        <time>2018-05-21T13:32:24Z</time>
      </trkpt>
      <trkpt lat="42.98237" lon="2.78245">
        <ele>119</ele>
        <time>2018-05-21T13:32:28Z</time>
      </trkpt>
      <trkpt lat="42.98256" lon="2.78267">
        <ele>119</ele>
        <time>2018-05-21T13:32:33Z</time>
      </trkpt>
      <trkpt lat="42.98269" lon="2.783">
        <ele>120</ele>
        <time>2018-05-21T13:32:38Z</time>
      </trkpt>
      <trkpt lat="42.98282" lon="2.78397">
        <ele>121</ele>
        <time>2018-05-21T13:32:53Z</time>
      </trkpt>
      <trkpt lat="42.98308" lon="2.78459">
        <ele>121</ele>
        <time>2018-05-21T13:33:03Z</time>
      </trkpt>
      <trkpt lat="42.98321" lon="2.78531">
        <ele>122</ele>
        <time>2018-05-21T13:33:13Z</time>
      </trkpt>
      <trkpt lat="42.98322" lon="2.7867">
        <ele>121</ele>
        <time>2018-05-21T13:33:33Z</time>
      </trkpt>
      <trkpt lat="42.98331" lon="2.78703">
        <ele>121</ele>
        <time>2018-05-21T13:33:38Z</time>
      </trkpt>
      <trkpt lat="42.98344" lon="2.7873">
        <ele>121</ele>
        <time>2018-05-21T13:33:42Z</time>
      </trkpt>
      <trkpt lat="42.9843" lon="2.7881">
        <ele>119</ele>
        <time>2018-05-21T13:34:00Z</time>
      </trkpt>
      <trkpt lat="42.98461" lon="2.78865">
        <ele>118</ele>
        <time>2018-05-21T13:34:08Z</time>
      </trkpt>
      <trkpt lat="42.98485" lon="2.78883">
        <ele>118</ele>
        <time>2018-05-21T13:34:13Z</time>
      </trkpt>
      <trkpt lat="42.98615" lon="2.78887">
        <ele>119</ele>
        <time>2018-05-21T13:34:35Z</time>
      </trkpt>
      <trkpt lat="42.98665" lon="2.78873">
        <ele>120</ele>
        <time>2018-05-21T13:34:44Z</time>
      </trkpt>
      <trkpt lat="42.98698" lon="2.78822">
        <ele>122</ele>
        <time>2018-05-21T13:34:53Z</time>
      </trkpt>
      <trkpt lat="42.98743" lon="2.78804">
        <ele>120</ele>
        <time>2018-05-21T13:35:01Z</time>
      </trkpt>
      <trkpt lat="42.98794" lon="2.78815">
        <ele>118</ele>
        <time>2018-05-21T13:35:11Z</time>
      </trkpt>
      <trkpt lat="42.98819" lon="2.78827">
        <ele>118</ele>
        <time>2018-05-21T13:35:16Z</time>
      </trkpt>
      <trkpt lat="42.98885" lon="2.78938">
        <ele>119</ele>
        <time>2018-05-21T13:35:35Z</time>
      </trkpt>
      <trkpt lat="42.98926" lon="2.78976">
        <ele>118</ele>
        <time>2018-05-21T13:35:43Z</time>
      </trkpt>
      <trkpt lat="42.98945" lon="2.79002">
        <ele>116</ele>
        <time>2018-05-21T13:35:48Z</time>
      </trkpt>
      <trkpt lat="42.98967" lon="2.79016">
        <ele>114</ele>
        <time>2018-05-21T13:35:52Z</time>
      </trkpt>
      <trkpt lat="42.99015" lon="2.7901">
        <ele>111</ele>
        <time>2018-05-21T13:36:00Z</time>
      </trkpt>
      <trkpt lat="42.99049" lon="2.78955">
        <ele>110</ele>
        <time>2018-05-21T13:36:08Z</time>
      </trkpt>
      <trkpt lat="42.99072" lon="2.78937">
        <ele>110</ele>
        <time>2018-05-21T13:36:13Z</time>
      </trkpt>
      <trkpt lat="42.99118" lon="2.78926">
        <ele>109</ele>
        <time>2018-05-21T13:36:21Z</time>
      </trkpt>
      <trkpt lat="42.99191" lon="2.78944">
        <ele>107</ele>
        <time>2018-05-21T13:36:34Z</time>
      </trkpt>
      <trkpt lat="42.99234" lon="2.78974">
        <ele>105</ele>
        <time>2018-05-21T13:36:42Z</time>
      </trkpt>
      <trkpt lat="42.99243" lon="2.79011">
        <ele>105</ele>
        <time>2018-05-21T13:36:46Z</time>
      </trkpt>
      <trkpt lat="42.99246" lon="2.79049">
        <ele>104</ele>
        <time>2018-05-21T13:36:50Z</time>
      </trkpt>
      <trkpt lat="42.99217" lon="2.79214">
        <ele>106</ele>
        <time>2018-05-21T13:37:09Z</time>
      </trkpt>
      <trkpt lat="42.99225" lon="2.79415">
        <ele>103</ele>
        <time>2018-05-21T13:37:39Z</time>
      </trkpt>
      <trkpt lat="42.99217" lon="2.7951">
        <ele>102</ele>
        <time>2018-05-21T13:37:51Z</time>
      </trkpt>
      <trkpt lat="42.99204" lon="2.79572">
        <ele>102</ele>
        <time>2018-05-21T13:38:00Z</time>
      </trkpt>
      <trkpt lat="42.99212" lon="2.79709">
        <ele>99</ele>
        <time>2018-05-21T13:38:19Z</time>
      </trkpt>
      <trkpt lat="42.99252" lon="2.79874">
        <ele>100</ele>
        <time>2018-05-21T13:38:44Z</time>
      </trkpt>
      <trkpt lat="42.99219" lon="2.80097">
        <ele>97</ele>
        <time>2018-05-21T13:39:15Z</time>
      </trkpt>
      <trkpt lat="42.99212" lon="2.8013">
        <ele>96</ele>
        <time>2018-05-21T13:39:20Z</time>
      </trkpt>
      <trkpt lat="42.99197" lon="2.80265">
        <ele>97</ele>
        <time>2018-05-21T13:39:38Z</time>
      </trkpt>
      <trkpt lat="42.9921" lon="2.8044">
        <ele>96</ele>
        <time>2018-05-21T13:40:03Z</time>
      </trkpt>
      <trkpt lat="42.9921" lon="2.80675">
        <ele>97</ele>
        <time>2018-05-21T13:40:37Z</time>
      </trkpt>
      <trkpt lat="42.99213" lon="2.80706">
        <ele>97</ele>
        <time>2018-05-21T13:40:42Z</time>
      </trkpt>
      <trkpt lat="42.99242" lon="2.80899">
        <ele>95</ele>
        <time>2018-05-21T13:41:13Z</time>
      </trkpt>
      <trkpt lat="42.99249" lon="2.80933">
        <ele>95</ele>
        <time>2018-05-21T13:41:18Z</time>
      </trkpt>
      <trkpt lat="42.99258" lon="2.80964">
        <ele>95</ele>
        <time>2018-05-21T13:41:23Z</time>
      </trkpt>
      <trkpt lat="42.99287" lon="2.81099">
        <ele>93</ele>
        <time>2018-05-21T13:41:44Z</time>
      </trkpt>
      <trkpt lat="42.99375" lon="2.81299">
        <ele>90</ele>
        <time>2018-05-21T13:42:15Z</time>
      </trkpt>
      <trkpt lat="42.9947" lon="2.81453">
        <ele>87</ele>
        <time>2018-05-21T13:42:46Z</time>
      </trkpt>
      <trkpt lat="42.99557" lon="2.8158">
        <ele>85</ele>
        <time>2018-05-21T13:43:20Z</time>
      </trkpt>
      <trkpt lat="42.99662" lon="2.81721">
        <ele>80</ele>
        <time>2018-05-21T13:43:55Z</time>
      </trkpt>
      <trkpt lat="42.99703" lon="2.81841">
        <ele>81</ele>
        <time>2018-05-21T13:44:21Z</time>
      </trkpt>
      <trkpt lat="42.99752" lon="2.8196">
        <ele>87</ele>
        <time>2018-05-21T13:44:55Z</time>
      </trkpt>
      <trkpt lat="42.99733" lon="2.81946">
        <ele>66</ele>
        <time>2018-05-21T13:55:48Z</time>
      </trkpt>
      <trkpt lat="42.99748" lon="2.81942">
        <ele>76</ele>
        <time>2018-05-21T13:57:21Z</time>
      </trkpt>
      <trkpt lat="42.99762" lon="2.81966">
        <ele>117</ele>
        <time>2018-05-21T14:00:53Z</time>
      </trkpt>
      <trkpt lat="42.99766" lon="2.81999">
        <ele>89</ele>
        <time>2018-05-21T14:09:44Z</time>
      </trkpt>
      <trkpt lat="42.99828" lon="2.82178">
        <ele>84</ele>
        <time>2018-05-21T14:10:17Z</time>
      </trkpt>
      <trkpt lat="42.99896" lon="2.82367">
        <ele>79</ele>
        <time>2018-05-21T14:10:47Z</time>
      </trkpt>
      <trkpt lat="42.99902" lon="2.82401">
        <ele>78</ele>
        <time>2018-05-21T14:10:53Z</time>
      </trkpt>
      <trkpt lat="42.99903" lon="2.82438">
        <ele>79</ele>
        <time>2018-05-21T14:10:58Z</time>
      </trkpt>
      <trkpt lat="42.99899" lon="2.82469">
        <ele>79</ele>
        <time>2018-05-21T14:11:02Z</time>
      </trkpt>
      <trkpt lat="42.99896" lon="2.82501">
        <ele>77</ele>
        <time>2018-05-21T14:11:07Z</time>
      </trkpt>
      <trkpt lat="42.99901" lon="2.82537">
        <ele>77</ele>
        <time>2018-05-21T14:11:12Z</time>
      </trkpt>
      <trkpt lat="42.99974" lon="2.8258">
        <ele>78</ele>
        <time>2018-05-21T14:11:29Z</time>
      </trkpt>
      <trkpt lat="43.0014" lon="2.82652">
        <ele>86</ele>
        <time>2018-05-21T14:12:03Z</time>
      </trkpt>
      <trkpt lat="43.00287" lon="2.82725">
        <ele>80</ele>
        <time>2018-05-21T14:12:34Z</time>
      </trkpt>
      <trkpt lat="43.00456" lon="2.82711">
        <ele>76</ele>
        <time>2018-05-21T14:13:03Z</time>
      </trkpt>
      <trkpt lat="43.00483" lon="2.82699">
        <ele>76</ele>
        <time>2018-05-21T14:13:08Z</time>
      </trkpt>
      <trkpt lat="43.00644" lon="2.82526">
        <ele>73</ele>
        <time>2018-05-21T14:13:40Z</time>
      </trkpt>
      <trkpt lat="43.00684" lon="2.82489">
        <ele>72</ele>
        <time>2018-05-21T14:13:47Z</time>
      </trkpt>
      <trkpt lat="43.00707" lon="2.82485">
        <ele>73</ele>
        <time>2018-05-21T14:13:51Z</time>
      </trkpt>
      <trkpt lat="43.00753" lon="2.82501">
        <ele>73</ele>
        <time>2018-05-21T14:13:59Z</time>
      </trkpt>
      <trkpt lat="43.00889" lon="2.82659">
        <ele>77</ele>
        <time>2018-05-21T14:14:31Z</time>
      </trkpt>
      <trkpt lat="43.00974" lon="2.82794">
        <ele>77</ele>
        <time>2018-05-21T14:14:54Z</time>
      </trkpt>
      <trkpt lat="43.00987" lon="2.82829">
        <ele>76</ele>
        <time>2018-05-21T14:14:59Z</time>
      </trkpt>
      <trkpt lat="43.01006" lon="2.83079">
        <ele>76</ele>
        <time>2018-05-21T14:15:31Z</time>
      </trkpt>
      <trkpt lat="43.01024" lon="2.83142">
        <ele>76</ele>
        <time>2018-05-21T14:15:40Z</time>
      </trkpt>
      <trkpt lat="43.0107" lon="2.83226">
        <ele>76</ele>
        <time>2018-05-21T14:15:55Z</time>
      </trkpt>
      <trkpt lat="43.01208" lon="2.83372">
        <ele>78</ele>
        <time>2018-05-21T14:16:27Z</time>
      </trkpt>
      <trkpt lat="43.01269" lon="2.8344">
        <ele>80</ele>
        <time>2018-05-21T14:16:40Z</time>
      </trkpt>
      <trkpt lat="43.01313" lon="2.83473">
        <ele>82</ele>
        <time>2018-05-21T14:16:48Z</time>
      </trkpt>
      <trkpt lat="43.01336" lon="2.83477">
        <ele>82</ele>
        <time>2018-05-21T14:16:52Z</time>
      </trkpt>
      <trkpt lat="43.01523" lon="2.83402">
        <ele>75</ele>
        <time>2018-05-21T14:17:24Z</time>
      </trkpt>
      <trkpt lat="43.01694" lon="2.8337">
        <ele>73</ele>
        <time>2018-05-21T14:17:56Z</time>
      </trkpt>
      <trkpt lat="43.01694" lon="2.83371">
        <ele>85.9</ele>
      </trkpt>
      <trkpt lat="43.01704" lon="2.83369">
        <ele>87.3</ele>
      </trkpt>
      <trkpt lat="43.01747" lon="2.8335">
        <ele>86.9</ele>
      </trkpt>
      <trkpt lat="43.0176" lon="2.83335">
        <ele>89.7</ele>
      </trkpt>
      <trkpt lat="43.0177" lon="2.83318">
        <ele>87.5</ele>
      </trkpt>
      <trkpt lat="43.01779" lon="2.83294">
        <ele>87.5</ele>
      </trkpt>
      <trkpt lat="43.01785" lon="2.83274">
        <ele>86.8</ele>
      </trkpt>
      <trkpt lat="43.01793" lon="2.83256">
        <ele>86.9</ele>
      </trkpt>
      <trkpt lat="43.01806" lon="2.83241">
        <ele>83</ele>
      </trkpt>
      <trkpt lat="43.01848" lon="2.83183">
        <ele>86.1</ele>
      </trkpt>
      <trkpt lat="43.01868" lon="2.83161">
        <ele>81.9</ele>
      </trkpt>
      <trkpt lat="43.01894" lon="2.83141">
        <ele>83.3</ele>
      </trkpt>
      <trkpt lat="43.01906" lon="2.83135">
        <ele>83.4</ele>
      </trkpt>
      <trkpt lat="43.01947" lon="2.83122">
        <ele>84.4</ele>
      </trkpt>
      <trkpt lat="43.02003" lon="2.83096">
        <ele>81.2</ele>
      </trkpt>
      <trkpt lat="43.02029" lon="2.83088">
        <ele>82.7</ele>
      </trkpt>
      <trkpt lat="43.02041" lon="2.8309">
        <ele>83.2</ele>
      </trkpt>
      <trkpt lat="43.02101" lon="2.83114">
        <ele>85.3</ele>
      </trkpt>
      <trkpt lat="43.02123" lon="2.83116">
        <ele>85.7</ele>
      </trkpt>
      <trkpt lat="43.02141" lon="2.83115">
        <ele>85.6</ele>
      </trkpt>
      <trkpt lat="43.02152" lon="2.83112">
        <ele>85.1</ele>
      </trkpt>
      <trkpt lat="43.02159" lon="2.83107">
        <ele>84.4</ele>
      </trkpt>
      <trkpt lat="43.02181" lon="2.83089">
        <ele>84.9</ele>
      </trkpt>
      <trkpt lat="43.022" lon="2.83075">
        <ele>81.5</ele>
      </trkpt>
      <trkpt lat="43.02226" lon="2.83058">
        <ele>82.5</ele>
      </trkpt>
      <trkpt lat="43.02237" lon="2.83051">
        <ele>82.5</ele>
      </trkpt>
      <trkpt lat="43.02249" lon="2.83038">
        <ele>81.7</ele>
      </trkpt>
      <trkpt lat="43.02266" lon="2.83012">
        <ele>86.7</ele>
      </trkpt>
      <trkpt lat="43.02279" lon="2.82997">
        <ele>81.4</ele>
      </trkpt>
      <trkpt lat="43.02308" lon="2.82975">
        <ele>83.1</ele>
      </trkpt>
      <trkpt lat="43.02327" lon="2.82963">
        <ele>82.7</ele>
      </trkpt>
      <trkpt lat="43.0234" lon="2.82961">
        <ele>83.6</ele>
      </trkpt>
      <trkpt lat="43.02364" lon="2.82964">
        <ele>83.4</ele>
      </trkpt>
      <trkpt lat="43.02498" lon="2.82993">
        <ele>81.2</ele>
      </trkpt>
      <trkpt lat="43.02522" lon="2.83003">
        <ele>83.6</ele>
      </trkpt>
      <trkpt lat="43.02559" lon="2.83029">
        <ele>83.4</ele>
      </trkpt>
      <trkpt lat="43.02568" lon="2.83034">
        <ele>83.5</ele>
      </trkpt>
      <trkpt lat="43.02582" lon="2.83037">
        <ele>83.3</ele>
      </trkpt>
      <trkpt lat="43.02624" lon="2.83028">
        <ele>83</ele>
      </trkpt>
      <trkpt lat="43.02651" lon="2.83017">
        <ele>82.3</ele>
      </trkpt>
      <trkpt lat="43.02664" lon="2.83006">
        <ele>80.3</ele>
      </trkpt>
      <trkpt lat="43.02674" lon="2.8299">
        <ele>78.6</ele>
      </trkpt>
      <trkpt lat="43.02684" lon="2.82964">
        <ele>77.7</ele>
      </trkpt>
      <trkpt lat="43.02689" lon="2.82957">
        <ele>77.5</ele>
      </trkpt>
      <trkpt lat="43.02707" lon="2.82947">
        <ele>77.4</ele>
      </trkpt>
      <trkpt lat="43.02717" lon="2.82946">
        <ele>77.6</ele>
      </trkpt>
      <trkpt lat="43.02731" lon="2.8295">
        <ele>77.9</ele>
      </trkpt>
      <trkpt lat="43.0277" lon="2.82969">
        <ele>79.7</ele>
      </trkpt>
      <trkpt lat="43.02834" lon="2.83021">
        <ele>82</ele>
      </trkpt>
      <trkpt lat="43.0286" lon="2.83035">
        <ele>84.2</ele>
      </trkpt>
      <trkpt lat="43.02893" lon="2.83049">
        <ele>83.9</ele>
      </trkpt>
      <trkpt lat="43.02954" lon="2.83053">
        <ele>81.9</ele>
      </trkpt>
      <trkpt lat="43.02968" lon="2.8305">
        <ele>82</ele>
      </trkpt>
      <trkpt lat="43.0298" lon="2.83042">
        <ele>81.7</ele>
      </trkpt>
      <trkpt lat="43.03014" lon="2.83008">
        <ele>84</ele>
      </trkpt>
      <trkpt lat="43.03059" lon="2.82965">
        <ele>80.7</ele>
      </trkpt>
      <trkpt lat="43.03078" lon="2.8295">
        <ele>79.4</ele>
      </trkpt>
      <trkpt lat="43.03097" lon="2.82942">
        <ele>78.9</ele>
      </trkpt>
      <trkpt lat="43.03126" lon="2.82939">
        <ele>78.6</ele>
      </trkpt>
      <trkpt lat="43.03154" lon="2.82946">
        <ele>78.1</ele>
      </trkpt>
      <trkpt lat="43.03166" lon="2.82954">
        <ele>78.7</ele>
      </trkpt>
      <trkpt lat="43.03175" lon="2.82966">
        <ele>78</ele>
      </trkpt>
      <trkpt lat="43.03191" lon="2.8301">
        <ele>80.4</ele>
      </trkpt>
      <trkpt lat="43.03204" lon="2.83073">
        <ele>79.7</ele>
      </trkpt>
      <trkpt lat="43.03206" lon="2.83098">
        <ele>79.4</ele>
      </trkpt>
      <trkpt lat="43.032" lon="2.83198">
        <ele>78.3</ele>
      </trkpt>
      <trkpt lat="43.03199" lon="2.8323">
        <ele>77.8</ele>
      </trkpt>
      <trkpt lat="43.03198" lon="2.83271">
        <ele>75.8</ele>
      </trkpt>
      <trkpt lat="43.03198" lon="2.83311">
        <ele>75.1</ele>
      </trkpt>
      <trkpt lat="43.03205" lon="2.83334">
        <ele>77</ele>
      </trkpt>
      <trkpt lat="43.03209" lon="2.83341">
        <ele>76.9</ele>
      </trkpt>
      <trkpt lat="43.03213" lon="2.83345">
        <ele>76.8</ele>
      </trkpt>
      <trkpt lat="43.03219" lon="2.83351">
        <ele>76.6</ele>
      </trkpt>
      <trkpt lat="43.03236" lon="2.8336">
        <ele>76.3</ele>
      </trkpt>
      <trkpt lat="43.03265" lon="2.83368">
        <ele>75.3</ele>
      </trkpt>
      <trkpt lat="43.0332" lon="2.83382">
        <ele>76.9</ele>
      </trkpt>
      <trkpt lat="43.03341" lon="2.83383">
        <ele>79.1</ele>
      </trkpt>
      <trkpt lat="43.03412" lon="2.83366">
        <ele>78.6</ele>
      </trkpt>
      <trkpt lat="43.03425" lon="2.83358">
        <ele>85.8</ele>
      </trkpt>
      <trkpt lat="43.03436" lon="2.83345">
        <ele>84.8</ele>
      </trkpt>
      <trkpt lat="43.03442" lon="2.83336">
        <ele>85.6</ele>
      </trkpt>
      <trkpt lat="43.03452" lon="2.83297">
        <ele>78.9</ele>
      </trkpt>
      <trkpt lat="43.03459" lon="2.83281">
        <ele>78.8</ele>
      </trkpt>
      <trkpt lat="43.03471" lon="2.83267">
        <ele>78.8</ele>
      </trkpt>
      <trkpt lat="43.03548" lon="2.83225">
        <ele>82.2</ele>
      </trkpt>
      <trkpt lat="43.03563" lon="2.83221">
        <ele>82.6</ele>
      </trkpt>
      <trkpt lat="43.03583" lon="2.83219">
        <ele>82.8</ele>
      </trkpt>
      <trkpt lat="43.03601" lon="2.83222">
        <ele>83.1</ele>
      </trkpt>
      <trkpt lat="43.03794" lon="2.83315">
        <ele>79.4</ele>
      </trkpt>
      <trkpt lat="43.03813" lon="2.83327">
        <ele>77</ele>
      </trkpt>
      <trkpt lat="43.0383" lon="2.83344">
        <ele>77.2</ele>
      </trkpt>
      <trkpt lat="43.03844" lon="2.83364">
        <ele>75.6</ele>
      </trkpt>
      <trkpt lat="43.0385" lon="2.83383">
        <ele>76.5</ele>
      </trkpt>
      <trkpt lat="43.03852" lon="2.83402">
        <ele>77.3</ele>
      </trkpt>
      <trkpt lat="43.03845" lon="2.83451">
        <ele>75</ele>
      </trkpt>
      <trkpt lat="43.03845" lon="2.83462">
        <ele>74.2</ele>
      </trkpt>
      <trkpt lat="43.03857" lon="2.83529">
        <ele>71.5</ele>
      </trkpt>
      <trkpt lat="43.03862" lon="2.83552">
        <ele>71.5</ele>
      </trkpt>
      <trkpt lat="43.03873" lon="2.83567">
        <ele>71.8</ele>
      </trkpt>
      <trkpt lat="43.03886" lon="2.83577">
        <ele>72.3</ele>
      </trkpt>
      <trkpt lat="43.03896" lon="2.83582">
        <ele>72.8</ele>
      </trkpt>
      <trkpt lat="43.03914" lon="2.83579">
        <ele>73.6</ele>
      </trkpt>
      <trkpt lat="43.03929" lon="2.83571">
        <ele>71.4</ele>
      </trkpt>
      <trkpt lat="43.03989" lon="2.8351">
        <ele>67.3</ele>
      </trkpt>
      <trkpt lat="43.04003" lon="2.83487">
        <ele>66.2</ele>
      </trkpt>
      <trkpt lat="43.0402" lon="2.83448">
        <ele>67.9</ele>
      </trkpt>
      <trkpt lat="43.04035" lon="2.83428">
        <ele>68.2</ele>
      </trkpt>
      <trkpt lat="43.04045" lon="2.83418">
        <ele>67.9</ele>
      </trkpt>
      <trkpt lat="43.04083" lon="2.83404">
        <ele>70.7</ele>
      </trkpt>
      <trkpt lat="43.04097" lon="2.83402">
        <ele>78.1</ele>
      </trkpt>
      <trkpt lat="43.04106" lon="2.83405">
        <ele>79.8</ele>
      </trkpt>
      <trkpt lat="43.04242" lon="2.83507">
        <ele>69.8</ele>
      </trkpt>
      <trkpt lat="43.04259" lon="2.83533">
        <ele>74.8</ele>
      </trkpt>
      <trkpt lat="43.04279" lon="2.83588">
        <ele>64.7</ele>
      </trkpt>
      <trkpt lat="43.04294" lon="2.83617">
        <ele>65.9</ele>
      </trkpt>
      <trkpt lat="43.04366" lon="2.83694">
        <ele>69.6</ele>
      </trkpt>
      <trkpt lat="43.04384" lon="2.83735">
        <ele>70</ele>
      </trkpt>
      <trkpt lat="43.04386" lon="2.8378">
        <ele>67.4</ele>
      </trkpt>
      <trkpt lat="43.04364" lon="2.83843">
        <ele>63.6</ele>
      </trkpt>
      <trkpt lat="43.04359" lon="2.83873">
        <ele>63.3</ele>
      </trkpt>
      <trkpt lat="43.04359" lon="2.83905">
        <ele>62.1</ele>
      </trkpt>
      <trkpt lat="43.04392" lon="2.83993">
        <ele>62.2</ele>
      </trkpt>
      <trkpt lat="43.04394" lon="2.84047">
        <ele>60.3</ele>
      </trkpt>
      <trkpt lat="43.04377" lon="2.84093">
        <ele>60.8</ele>
      </trkpt>
      <trkpt lat="43.04323" lon="2.8424">
        <ele>59.7</ele>
      </trkpt>
      <trkpt lat="43.04303" lon="2.8427">
        <ele>64.6</ele>
      </trkpt>
      <trkpt lat="43.04174" lon="2.84367">
        <ele>63.5</ele>
      </trkpt>
      <trkpt lat="43.04158" lon="2.84381">
        <ele>58.5</ele>
      </trkpt>
      <trkpt lat="43.04142" lon="2.84404">
        <ele>59.4</ele>
      </trkpt>
      <trkpt lat="43.04143" lon="2.84445">
        <ele>61.4</ele>
      </trkpt>
      <trkpt lat="43.04204" lon="2.84618">
        <ele>68.6</ele>
      </trkpt>
      <trkpt lat="43.04221" lon="2.8472">
        <ele>69.9</ele>
      </trkpt>
      <trkpt lat="43.04229" lon="2.85009">
        <ele>60.4</ele>
      </trkpt>
      <trkpt lat="43.04226" lon="2.85062">
        <ele>61</ele>
      </trkpt>
      <trkpt lat="43.04193" lon="2.85153">
        <ele>59.8</ele>
      </trkpt>
      <trkpt lat="43.0417" lon="2.85256">
        <ele>57</ele>
      </trkpt>
      <trkpt lat="43.04166" lon="2.85357">
        <ele>54.3</ele>
      </trkpt>
      <trkpt lat="43.04176" lon="2.85469">
        <ele>61.1</ele>
      </trkpt>
      <trkpt lat="43.04178" lon="2.85483">
        <ele>60.2</ele>
      </trkpt>
      <trkpt lat="43.04187" lon="2.85702">
        <ele>56.6</ele>
      </trkpt>
      <trkpt lat="43.0419" lon="2.85737">
        <ele>55.7</ele>
      </trkpt>
      <trkpt lat="43.04196" lon="2.85757">
        <ele>53.4</ele>
      </trkpt>
      <trkpt lat="43.04203" lon="2.85771">
        <ele>53.8</ele>
      </trkpt>
      <trkpt lat="43.04211" lon="2.85782">
        <ele>54</ele>
      </trkpt>
      <trkpt lat="43.0422" lon="2.85789">
        <ele>54.1</ele>
      </trkpt>
      <trkpt lat="43.04344" lon="2.85842">
        <ele>55.2</ele>
      </trkpt>
      <trkpt lat="43.04432" lon="2.85871">
        <ele>56.7</ele>
      </trkpt>
      <trkpt lat="43.04481" lon="2.85889">
        <ele>56</ele>
      </trkpt>
      <trkpt lat="43.04512" lon="2.85904">
        <ele>57.6</ele>
      </trkpt>
      <trkpt lat="43.04561" lon="2.85941">
        <ele>52.4</ele>
      </trkpt>
      <trkpt lat="43.04594" lon="2.85954">
        <ele>53.8</ele>
      </trkpt>
      <trkpt lat="43.04632" lon="2.85963">
        <ele>53.4</ele>
      </trkpt>
      <trkpt lat="43.0468" lon="2.85971">
        <ele>53</ele>
      </trkpt>
      <trkpt lat="43.04746" lon="2.85978">
        <ele>51.8</ele>
      </trkpt>
      <trkpt lat="43.04801" lon="2.85983">
        <ele>54.1</ele>
      </trkpt>
      <trkpt lat="43.04823" lon="2.85991">
        <ele>53.4</ele>
      </trkpt>
      <trkpt lat="43.04848" lon="2.8601">
        <ele>55.8</ele>
      </trkpt>
      <trkpt lat="43.04877" lon="2.86051">
        <ele>59.2</ele>
      </trkpt>
      <trkpt lat="43.04888" lon="2.86088">
        <ele>58.8</ele>
      </trkpt>
      <trkpt lat="43.04882" lon="2.86189">
        <ele>55.9</ele>
      </trkpt>
      <trkpt lat="43.04906" lon="2.86315">
        <ele>56.2</ele>
      </trkpt>
      <trkpt lat="43.04902" lon="2.86374">
        <ele>54.6</ele>
      </trkpt>
      <trkpt lat="43.0487" lon="2.86467">
        <ele>54</ele>
      </trkpt>
      <trkpt lat="43.04814" lon="2.86577">
        <ele>49.2</ele>
      </trkpt>
      <trkpt lat="43.0479" lon="2.86644">
        <ele>47.1</ele>
      </trkpt>
      <trkpt lat="43.0478" lon="2.86713">
        <ele>45.9</ele>
      </trkpt>
      <trkpt lat="43.04792" lon="2.8679">
        <ele>44.8</ele>
      </trkpt>
      <trkpt lat="43.05008" lon="2.87084">
        <ele>42.2</ele>
      </trkpt>
      <trkpt lat="43.05038" lon="2.87138">
        <ele>42.1</ele>
      </trkpt>
      <trkpt lat="43.0506" lon="2.87213">
        <ele>40</ele>
      </trkpt>
      <trkpt lat="43.05142" lon="2.8765">
        <ele>42.8</ele>
      </trkpt>
      <trkpt lat="43.05144" lon="2.87719">
        <ele>41.2</ele>
      </trkpt>
      <trkpt lat="43.05142" lon="2.87775">
        <ele>41.2</ele>
      </trkpt>
      <trkpt lat="43.05133" lon="2.87826">
        <ele>41.6</ele>
      </trkpt>
      <trkpt lat="43.05107" lon="2.87878">
        <ele>45.8</ele>
      </trkpt>
      <trkpt lat="43.05076" lon="2.87908">
        <ele>44.8</ele>
      </trkpt>
      <trkpt lat="43.04996" lon="2.87913">
        <ele>42.9</ele>
      </trkpt>
      <trkpt lat="43.04978" lon="2.87917">
        <ele>42.4</ele>
      </trkpt>
      <trkpt lat="43.04964" lon="2.87925">
        <ele>41.5</ele>
      </trkpt>
      <trkpt lat="43.04951" lon="2.8794">
        <ele>40.9</ele>
      </trkpt>
      <trkpt lat="43.04941" lon="2.87957">
        <ele>40.9</ele>
      </trkpt>
      <trkpt lat="43.04933" lon="2.87978">
        <ele>40.7</ele>
      </trkpt>
      <trkpt lat="43.04928" lon="2.88001">
        <ele>40.5</ele>
      </trkpt>
      <trkpt lat="43.04929" lon="2.88026">
        <ele>41.4</ele>
      </trkpt>
      <trkpt lat="43.04933" lon="2.88051">
        <ele>41.6</ele>
      </trkpt>
      <trkpt lat="43.05037" lon="2.88316">
        <ele>41</ele>
      </trkpt>
      <trkpt lat="43.05058" lon="2.88372">
        <ele>41.1</ele>
      </trkpt>
      <trkpt lat="43.0517" lon="2.88657">
        <ele>38.4</ele>
      </trkpt>
      <trkpt lat="43.0521" lon="2.88761">
        <ele>35.4</ele>
      </trkpt>
      <trkpt lat="43.05219" lon="2.88784">
        <ele>35.3</ele>
      </trkpt>
      <trkpt lat="43.0524" lon="2.88836">
        <ele>34.4</ele>
      </trkpt>
      <trkpt lat="43.05277" lon="2.88933">
        <ele>36.2</ele>
      </trkpt>
      <trkpt lat="43.05375" lon="2.89183">
        <ele>37.9</ele>
      </trkpt>
      <trkpt lat="43.054" lon="2.89267">
        <ele>41.6</ele>
      </trkpt>
      <trkpt lat="43.05582" lon="2.89863">
        <ele>51</ele>
      </trkpt>
      <trkpt lat="43.05589" lon="2.89881">
        <ele>52.2</ele>
      </trkpt>
      <trkpt lat="43.05677" lon="2.90108">
        <ele>54.1</ele>
      </trkpt>
      <trkpt lat="43.05973" lon="2.9087">
        <ele>50.3</ele>
      </trkpt>
      <trkpt lat="43.05993" lon="2.9096">
        <ele>49.3</ele>
      </trkpt>
      <trkpt lat="43.05995" lon="2.90973">
        <ele>49.1</ele>
      </trkpt>
      <trkpt lat="43.05997" lon="2.91001">
        <ele>48.3</ele>
      </trkpt>
      <trkpt lat="43.05998" lon="2.91462">
        <ele>45.5</ele>
      </trkpt>
      <trkpt lat="43.05991" lon="2.91529">
        <ele>44</ele>
      </trkpt>
      <trkpt lat="43.05985" lon="2.91586">
        <ele>43.6</ele>
      </trkpt>
      <trkpt lat="43.05976" lon="2.91646">
        <ele>42.4</ele>
      </trkpt>
      <trkpt lat="43.05964" lon="2.91728">
        <ele>40</ele>
      </trkpt>
      <trkpt lat="43.05964" lon="2.91728">
        <ele>40</ele>
      </trkpt>
      <trkpt lat="43.05961" lon="2.9175">
        <ele>39.3</ele>
      </trkpt>
      <trkpt lat="43.05962" lon="2.91773">
        <ele>38.1</ele>
      </trkpt>
      <trkpt lat="43.05972" lon="2.91801">
        <ele>37.9</ele>
      </trkpt>
      <trkpt lat="43.06025" lon="2.91868">
        <ele>39.5</ele>
      </trkpt>
      <trkpt lat="43.06082" lon="2.91941">
        <ele>38.4</ele>
      </trkpt>
      <trkpt lat="43.06105" lon="2.91974">
        <ele>39</ele>
      </trkpt>
      <trkpt lat="43.06119" lon="2.91991">
        <ele>38.9</ele>
      </trkpt>
      <trkpt lat="43.06159" lon="2.92044">
        <ele>39.9</ele>
      </trkpt>
      <trkpt lat="43.06168" lon="2.92056">
        <ele>41.6</ele>
      </trkpt>
      <trkpt lat="43.06173" lon="2.92049">
        <ele>41.5</ele>
      </trkpt>
      <trkpt lat="43.0618" lon="2.92039">
        <ele>41.3</ele>
      </trkpt>
      <trkpt lat="43.06188" lon="2.92033">
        <ele>41.3</ele>
      </trkpt>
      <trkpt lat="43.06205" lon="2.92023">
        <ele>41.4</ele>
      </trkpt>
      <trkpt lat="43.06239" lon="2.92009">
        <ele>41.9</ele>
      </trkpt>
      <trkpt lat="43.06268" lon="2.91995">
        <ele>43.2</ele>
      </trkpt>
      <trkpt lat="43.06284" lon="2.9198">
        <ele>43.9</ele>
      </trkpt>
      <trkpt lat="43.0633" lon="2.91914">
        <ele>44.8</ele>
      </trkpt>
      <trkpt lat="43.06375" lon="2.91866">
        <ele>47.7</ele>
      </trkpt>
      <trkpt lat="43.06379" lon="2.91862">
        <ele>47.8</ele>
      </trkpt>
      <trkpt lat="43.06425" lon="2.91808">
        <ele>49.9</ele>
      </trkpt>
      <trkpt lat="43.06444" lon="2.9179">
        <ele>50.2</ele>
      </trkpt>
      <trkpt lat="43.0645" lon="2.91785">
        <ele>50.3</ele>
      </trkpt>
      <trkpt lat="43.06476" lon="2.91771">
        <ele>50.4</ele>
      </trkpt>
      <trkpt lat="43.06529" lon="2.91765">
        <ele>51.8</ele>
      </trkpt>
      <trkpt lat="43.06557" lon="2.91765">
        <ele>52.2</ele>
      </trkpt>
      <trkpt lat="43.06573" lon="2.91769">
        <ele>52.3</ele>
      </trkpt>
      <trkpt lat="43.0661" lon="2.91787">
        <ele>51.9</ele>
      </trkpt>
      <trkpt lat="43.06613" lon="2.91789">
        <ele>51.9</ele>
      </trkpt>
      <trkpt lat="43.06653" lon="2.91803">
        <ele>51.1</ele>
      </trkpt>
      <trkpt lat="43.06704" lon="2.91815">
        <ele>51</ele>
      </trkpt>
      <trkpt lat="43.06723" lon="2.91825">
        <ele>51.2</ele>
      </trkpt>
      <trkpt lat="43.06765" lon="2.91861">
        <ele>50.6</ele>
      </trkpt>
      <trkpt lat="43.06775" lon="2.91861">
        <ele>50.6</ele>
      </trkpt>
      <trkpt lat="43.06803" lon="2.91833">
        <ele>52.5</ele>
      </trkpt>
      <trkpt lat="43.06811" lon="2.91829">
        <ele>52.5</ele>
      </trkpt>
      <trkpt lat="43.06814" lon="2.91833">
        <ele>52.4</ele>
      </trkpt>
      <trkpt lat="43.06818" lon="2.91837">
        <ele>51.3</ele>
      </trkpt>
      <trkpt lat="43.0683" lon="2.91865">
        <ele>50.9</ele>
      </trkpt>
      <trkpt lat="43.06848" lon="2.91894">
        <ele>51.8</ele>
      </trkpt>
      <trkpt lat="43.06866" lon="2.91913">
        <ele>52</ele>
      </trkpt>
      <trkpt lat="43.06922" lon="2.91958">
        <ele>52.2</ele>
      </trkpt>
      <trkpt lat="43.06922" lon="2.91958">
        <ele>52.2</ele>
      </trkpt>
      <trkpt lat="43.06942" lon="2.91975">
        <ele>52</ele>
      </trkpt>
      <trkpt lat="43.0698" lon="2.92009">
        <ele>51.7</ele>
      </trkpt>
      <trkpt lat="43.06986" lon="2.92016">
        <ele>51.7</ele>
      </trkpt>
      <trkpt lat="43.07039" lon="2.92078">
        <ele>53.9</ele>
      </trkpt>
      <trkpt lat="43.07057" lon="2.92098">
        <ele>54.4</ele>
      </trkpt>
      <trkpt lat="43.0712" lon="2.92178">
        <ele>55.9</ele>
      </trkpt>
      <trkpt lat="43.07176" lon="2.92246">
        <ele>57.1</ele>
      </trkpt>
      <trkpt lat="43.07301" lon="2.92389">
        <ele>58.4</ele>
      </trkpt>
      <trkpt lat="43.0734" lon="2.92431">
        <ele>57.1</ele>
      </trkpt>
      <trkpt lat="43.07352" lon="2.92448">
        <ele>57.1</ele>
      </trkpt>
      <trkpt lat="43.0737" lon="2.92485">
        <ele>56.8</ele>
      </trkpt>
      <trkpt lat="43.07375" lon="2.92518">
        <ele>55.4</ele>
      </trkpt>
      <trkpt lat="43.07382" lon="2.92544">
        <ele>55.3</ele>
      </trkpt>
      <trkpt lat="43.07389" lon="2.92556">
        <ele>55.2</ele>
      </trkpt>
      <trkpt lat="43.07436" lon="2.92606">
        <ele>55.6</ele>
      </trkpt>
      <trkpt lat="43.07446" lon="2.92621">
        <ele>55.7</ele>
      </trkpt>
      <trkpt lat="43.07472" lon="2.92675">
        <ele>55.1</ele>
      </trkpt>
      <trkpt lat="43.07491" lon="2.92727">
        <ele>54.5</ele>
      </trkpt>
      <trkpt lat="43.0752" lon="2.92825">
        <ele>51.1</ele>
      </trkpt>
      <trkpt lat="43.07523" lon="2.92833">
        <ele>50.9</ele>
      </trkpt>
      <trkpt lat="43.07531" lon="2.92868">
        <ele>49</ele>
      </trkpt>
      <trkpt lat="43.07533" lon="2.92939">
        <ele>45.6</ele>
      </trkpt>
      <trkpt lat="43.07545" lon="2.92999">
        <ele>43.4</ele>
      </trkpt>
      <trkpt lat="43.0756" lon="2.93009">
        <ele>39.1</ele>
      </trkpt>
      <trkpt lat="43.0761" lon="2.93026">
        <ele>40.6</ele>
      </trkpt>
      <trkpt lat="43.07615" lon="2.93033">
        <ele>40.7</ele>
      </trkpt>
      <trkpt lat="43.07636" lon="2.93081">
        <ele>41</ele>
      </trkpt>
      <trkpt lat="43.07654" lon="2.9311">
        <ele>39.5</ele>
      </trkpt>
      <trkpt lat="43.07668" lon="2.93134">
        <ele>43.2</ele>
      </trkpt>
      <trkpt lat="43.0767" lon="2.93155">
        <ele>42.2</ele>
      </trkpt>
      <trkpt lat="43.07663" lon="2.93229">
        <ele>37.7</ele>
      </trkpt>
      <trkpt lat="43.07656" lon="2.93289">
        <ele>36.2</ele>
      </trkpt>
      <trkpt lat="43.07647" lon="2.93325">
        <ele>35.7</ele>
      </trkpt>
      <trkpt lat="43.07643" lon="2.93394">
        <ele>34.4</ele>
      </trkpt>
      <trkpt lat="43.0764" lon="2.93412">
        <ele>34.3</ele>
      </trkpt>
      <trkpt lat="43.07629" lon="2.93495">
        <ele>31.3</ele>
      </trkpt>
      <trkpt lat="43.07627" lon="2.93561">
        <ele>29.7</ele>
      </trkpt>
      <trkpt lat="43.07634" lon="2.93607">
        <ele>30.3</ele>
      </trkpt>
      <trkpt lat="43.07639" lon="2.93631">
        <ele>30.5</ele>
      </trkpt>
      <trkpt lat="43.07645" lon="2.93671">
        <ele>31.6</ele>
      </trkpt>
      <trkpt lat="43.07649" lon="2.93698">
        <ele>31.5</ele>
      </trkpt>
      <trkpt lat="43.0765" lon="2.93714">
        <ele>31.5</ele>
      </trkpt>
      <trkpt lat="43.07648" lon="2.9373">
        <ele>31.4</ele>
      </trkpt>
      <trkpt lat="43.0763" lon="2.9378">
        <ele>31.2</ele>
      </trkpt>
      <trkpt lat="43.07625" lon="2.93793">
        <ele>31.2</ele>
      </trkpt>
      <trkpt lat="43.07608" lon="2.93841">
        <ele>30.6</ele>
      </trkpt>
      <trkpt lat="43.07594" lon="2.9388">
        <ele>30</ele>
      </trkpt>
      <trkpt lat="43.07586" lon="2.93935">
        <ele>29.5</ele>
      </trkpt>
      <trkpt lat="43.07583" lon="2.93997">
        <ele>32.6</ele>
      </trkpt>
      <trkpt lat="43.07603" lon="2.94085">
        <ele>30.3</ele>
      </trkpt>
      <trkpt lat="43.07639" lon="2.94148">
        <ele>29.3</ele>
      </trkpt>
      <trkpt lat="43.07655" lon="2.94184">
        <ele>29.7</ele>
      </trkpt>
      <trkpt lat="43.07704" lon="2.94258">
        <ele>28.4</ele>
      </trkpt>
      <trkpt lat="43.07707" lon="2.94274">
        <ele>28.5</ele>
      </trkpt>
      <trkpt lat="43.07709" lon="2.94283">
        <ele>28.6</ele>
      </trkpt>
      <trkpt lat="43.07804" lon="2.94372">
        <ele>31</ele>
      </trkpt>
      <trkpt lat="43.08003" lon="2.94713">
        <ele>26</ele>
      </trkpt>
      <trkpt lat="43.08193" lon="2.94901">
        <ele>16.7</ele>
      </trkpt>
      <trkpt lat="43.08278" lon="2.95056">
        <ele>12.2</ele>
      </trkpt>
      <trkpt lat="43.08334" lon="2.95137">
        <ele>11.1</ele>
      </trkpt>
      <trkpt lat="43.08393" lon="2.95224">
        <ele>11.4</ele>
      </trkpt>
      <trkpt lat="43.08422" lon="2.95266">
        <ele>11.8</ele>
      </trkpt>
      <trkpt lat="43.08433" lon="2.95308">
        <ele>11.6</ele>
      </trkpt>
      <trkpt lat="43.08437" lon="2.95337">
        <ele>11.4</ele>
      </trkpt>
      <trkpt lat="43.0844" lon="2.95351">
        <ele>11.5</ele>
      </trkpt>
      <trkpt lat="43.08451" lon="2.95375">
        <ele>11.7</ele>
      </trkpt>
      <trkpt lat="43.08471" lon="2.95425">
        <ele>12.7</ele>
      </trkpt>
      <trkpt lat="43.08488" lon="2.95458">
        <ele>13</ele>
      </trkpt>
      <trkpt lat="43.08488" lon="2.95458">
        <ele>13</ele>
      </trkpt>
      <trkpt lat="43.08499" lon="2.95483">
        <ele>13.4</ele>
      </trkpt>
      <trkpt lat="43.08518" lon="2.95515">
        <ele>14.5</ele>
      </trkpt>
      <trkpt lat="43.08576" lon="2.95555">
        <ele>14.4</ele>
      </trkpt>
      <trkpt lat="43.08652" lon="2.95609">
        <ele>13.6</ele>
      </trkpt>
      <trkpt lat="43.08681" lon="2.95661">
        <ele>12.6</ele>
      </trkpt>
      <trkpt lat="43.08747" lon="2.95772">
        <ele>13.5</ele>
      </trkpt>
      <trkpt lat="43.08741" lon="2.95793">
        <ele>13.6</ele>
      </trkpt>
      <trkpt lat="43.08741" lon="2.95793">
        <ele>13.6</ele>
      </trkpt>
      <trkpt lat="43.0874" lon="2.95797">
        <ele>13.6</ele>
      </trkpt>
      <trkpt lat="43.08737" lon="2.95805">
        <ele>13.4</ele>
      </trkpt>
      <trkpt lat="43.08736" lon="2.95811">
        <ele>13.1</ele>
      </trkpt>
      <trkpt lat="43.08734" lon="2.95817">
        <ele>12.9</ele>
      </trkpt>
      <trkpt lat="43.08727" lon="2.95844">
        <ele>11.3</ele>
      </trkpt>
      <trkpt lat="43.08722" lon="2.95859">
        <ele>11.6</ele>
      </trkpt>
      <trkpt lat="43.08715" lon="2.95882">
        <ele>11.4</ele>
      </trkpt>
      <trkpt lat="43.08717" lon="2.95895">
        <ele>10.7</ele>
      </trkpt>
      <trkpt lat="43.08724" lon="2.95903">
        <ele>9.9</ele>
      </trkpt>
      <trkpt lat="43.08749" lon="2.9592">
        <ele>5.4</ele>
      </trkpt>
      <trkpt lat="43.0877" lon="2.95925">
        <ele>4.7</ele>
      </trkpt>
      <trkpt lat="43.08774" lon="2.95936">
        <ele>4.6</ele>
      </trkpt>
      <trkpt lat="43.08796" lon="2.95945">
        <ele>4.5</ele>
      </trkpt>
      <trkpt lat="43.08801" lon="2.95935">
        <ele>4.6</ele>
      </trkpt>
      <trkpt lat="43.0881" lon="2.95925">
        <ele>4.9</ele>
      </trkpt>
      <trkpt lat="43.0881" lon="2.95925">
        <ele>4.9</ele>
      </trkpt>
      <trkpt lat="43.08812" lon="2.95923">
        <ele>5</ele>
      </trkpt>
      <trkpt lat="43.0885" lon="2.95892">
        <ele>7.8</ele>
      </trkpt>
      <trkpt lat="43.08862" lon="2.95902">
        <ele>7.8</ele>
      </trkpt>
      <trkpt lat="43.08905" lon="2.95939">
        <ele>6.3</ele>
      </trkpt>
      <trkpt lat="43.08914" lon="2.95945">
        <ele>6.1</ele>
      </trkpt>
      <trkpt lat="43.08928" lon="2.9595">
        <ele>5.9</ele>
      </trkpt>
      <trkpt lat="43.08943" lon="2.95951">
        <ele>5.6</ele>
      </trkpt>
      <trkpt lat="43.08954" lon="2.95948">
        <ele>5.4</ele>
      </trkpt>
      <trkpt lat="43.08959" lon="2.95947">
        <ele>5.3</ele>
      </trkpt>
      <trkpt lat="43.08963" lon="2.95949">
        <ele>5.2</ele>
      </trkpt>
      <trkpt lat="43.08968" lon="2.95952">
        <ele>5.1</ele>
      </trkpt>
      <trkpt lat="43.09034" lon="2.96031">
        <ele>4.3</ele>
      </trkpt>
      <trkpt lat="43.0907" lon="2.96073">
        <ele>4.1</ele>
      </trkpt>
      <trkpt lat="43.09081" lon="2.96084">
        <ele>4</ele>
      </trkpt>
      <trkpt lat="43.09127" lon="2.96132">
        <ele>3.3</ele>
      </trkpt>
      <trkpt lat="43.09138" lon="2.9614">
        <ele>3.2</ele>
      </trkpt>
      <trkpt lat="43.09163" lon="2.96149">
        <ele>3.1</ele>
      </trkpt>
      <trkpt lat="43.09175" lon="2.96158">
        <ele>2.7</ele>
      </trkpt>
      <trkpt lat="43.09186" lon="2.96171">
        <ele>2.5</ele>
      </trkpt>
      <trkpt lat="43.09236" lon="2.96263">
        <ele>2.8</ele>
      </trkpt>
      <trkpt lat="43.09246" lon="2.96278">
        <ele>3.4</ele>
      </trkpt>
      <trkpt lat="43.09254" lon="2.96286">
        <ele>4.1</ele>
      </trkpt>
      <trkpt lat="43.09266" lon="2.96298">
        <ele>4.5</ele>
      </trkpt>
      <trkpt lat="43.09315" lon="2.96339">
        <ele>7.5</ele>
      </trkpt>
      <trkpt lat="43.09327" lon="2.9635">
        <ele>7.5</ele>
      </trkpt>
      <trkpt lat="43.09422" lon="2.9642">
        <ele>7.1</ele>
      </trkpt>
      <trkpt lat="43.09486" lon="2.96455">
        <ele>6.7</ele>
      </trkpt>
      <trkpt lat="43.09516" lon="2.96466">
        <ele>4.7</ele>
      </trkpt>
      <trkpt lat="43.09621" lon="2.96535">
        <ele>3.9</ele>
      </trkpt>
      <trkpt lat="43.09636" lon="2.96541">
        <ele>4</ele>
      </trkpt>
      <trkpt lat="43.09653" lon="2.96542">
        <ele>4</ele>
      </trkpt>
      <trkpt lat="43.09675" lon="2.96541">
        <ele>3.8</ele>
      </trkpt>
      <trkpt lat="43.09695" lon="2.96537">
        <ele>3.7</ele>
      </trkpt>
      <trkpt lat="43.09707" lon="2.96538">
        <ele>3.7</ele>
      </trkpt>
      <trkpt lat="43.09723" lon="2.96546">
        <ele>3.8</ele>
      </trkpt>
      <trkpt lat="43.09736" lon="2.96556">
        <ele>4</ele>
      </trkpt>
      <trkpt lat="43.09785" lon="2.9661">
        <ele>4.4</ele>
      </trkpt>
      <trkpt lat="43.09802" lon="2.96625">
        <ele>4.3</ele>
      </trkpt>
      <trkpt lat="43.09838" lon="2.96648">
        <ele>3.1</ele>
      </trkpt>
      <trkpt lat="43.09851" lon="2.96655">
        <ele>3.1</ele>
      </trkpt>
      <trkpt lat="43.09866" lon="2.96657">
        <ele>2.8</ele>
      </trkpt>
      <trkpt lat="43.09896" lon="2.96656">
        <ele>2.3</ele>
      </trkpt>
      <trkpt lat="43.09905" lon="2.96658">
        <ele>2.2</ele>
      </trkpt>
      <trkpt lat="43.09974" lon="2.96714">
        <ele>2.1</ele>
      </trkpt>
      <trkpt lat="43.10009" lon="2.96754">
        <ele>1.4</ele>
      </trkpt>
      <trkpt lat="43.1002" lon="2.96775">
        <ele>2</ele>
      </trkpt>
      <trkpt lat="43.10036" lon="2.96816">
        <ele>2.6</ele>
      </trkpt>
      <trkpt lat="43.10047" lon="2.96837">
        <ele>4.2</ele>
      </trkpt>
      <trkpt lat="43.10061" lon="2.96848">
        <ele>3.9</ele>
      </trkpt>
      <trkpt lat="43.10141" lon="2.96888">
        <ele>2.4</ele>
      </trkpt>
      <trkpt lat="43.1015" lon="2.96895">
        <ele>2.1</ele>
      </trkpt>
      <trkpt lat="43.10158" lon="2.96904">
        <ele>1.7</ele>
      </trkpt>
      <trkpt lat="43.10193" lon="2.96962">
        <ele>5.8</ele>
      </trkpt>
      <trkpt lat="43.10241" lon="2.97002">
        <ele>12.2</ele>
      </trkpt>
      <trkpt lat="43.10253" lon="2.97017">
        <ele>11</ele>
      </trkpt>
      <trkpt lat="43.10299" lon="2.97089">
        <ele>10.3</ele>
      </trkpt>
      <trkpt lat="43.10307" lon="2.97103">
        <ele>10.2</ele>
      </trkpt>
      <trkpt lat="43.10357" lon="2.97207">
      </trkpt>
      <trkpt lat="43.10415" lon="2.97324">
      </trkpt>
      <trkpt lat="43.10428" lon="2.97351">
      </trkpt>
      <trkpt lat="43.10455" lon="2.97408">
        <ele>1</ele>
      </trkpt>
      <trkpt lat="43.10473" lon="2.97446">
        <ele>1</ele>
      </trkpt>
      <trkpt lat="43.10476" lon="2.97453">
        <ele>1</ele>
      </trkpt>
      <trkpt lat="43.10514" lon="2.97527">
      </trkpt>
      <trkpt lat="43.10522" lon="2.97542">
        <ele>1.42</ele>
      </trkpt>
      <trkpt lat="43.10539" lon="2.97568">
        <ele>1</ele>
      </trkpt>
      <trkpt lat="43.10552" lon="2.97582">
        <ele>1</ele>
      </trkpt>
      <trkpt lat="43.10568" lon="2.97592">
        <ele>1.3</ele>
      </trkpt>
      <trkpt lat="43.10651" lon="2.9763">
        <ele>1.8</ele>
      </trkpt>
      <trkpt lat="43.10662" lon="2.97638">
        <ele>1.1</ele>
      </trkpt>
      <trkpt lat="43.10673" lon="2.97651">
        <ele>1</ele>
      </trkpt>
      <trkpt lat="43.10766" lon="2.97782">
        <ele>1</ele>
      </trkpt>
      <trkpt lat="43.10772" lon="2.9779">
        <ele>1</ele>
      </trkpt>
      <trkpt lat="43.10913" lon="2.97988">
      </trkpt>
      <trkpt lat="43.11067" lon="2.98201">
        <ele>3.3</ele>
      </trkpt>
      <trkpt lat="43.11075" lon="2.98213">
        <ele>3.3</ele>
      </trkpt>
      <trkpt lat="43.11082" lon="2.98221">
        <ele>3.3</ele>
      </trkpt>
      <trkpt lat="43.11091" lon="2.98232">
        <ele>7.9</ele>
      </trkpt>
      <trkpt lat="43.11116" lon="2.98256">
        <ele>5.2</ele>
      </trkpt>
      <trkpt lat="43.11196" lon="2.98329">
        <ele>4.8</ele>
      </trkpt>
      <trkpt lat="43.1124" lon="2.9837">
        <ele>4.5</ele>
      </trkpt>
      <trkpt lat="43.11264" lon="2.98388">
        <ele>6.2</ele>
      </trkpt>
      <trkpt lat="43.11275" lon="2.98393">
        <ele>6.3</ele>
      </trkpt>
      <trkpt lat="43.11342" lon="2.98418">
        <ele>7.1</ele>
      </trkpt>
      <trkpt lat="43.11352" lon="2.98423">
        <ele>7.1</ele>
      </trkpt>
      <trkpt lat="43.11362" lon="2.9843">
        <ele>7.1</ele>
      </trkpt>
      <trkpt lat="43.11402" lon="2.98469">
        <ele>6.6</ele>
      </trkpt>
      <trkpt lat="43.11402" lon="2.98469">
        <ele>6.6</ele>
      </trkpt>
      <trkpt lat="43.11443" lon="2.98507">
        <ele>5.6</ele>
      </trkpt>
      <trkpt lat="43.11464" lon="2.98526">
        <ele>5.8</ele>
      </trkpt>
      <trkpt lat="43.11493" lon="2.98553">
        <ele>4.8</ele>
      </trkpt>
      <trkpt lat="43.11599" lon="2.98636">
        <ele>15.5</ele>
      </trkpt>
      <trkpt lat="43.1168" lon="2.98705">
        <ele>14.7</ele>
      </trkpt>
      <trkpt lat="43.11711" lon="2.98728">
        <ele>16.6</ele>
      </trkpt>
      <trkpt lat="43.1178" lon="2.98768">
        <ele>11</ele>
      </trkpt>
      <trkpt lat="43.11818" lon="2.98795">
        <ele>11</ele>
      </trkpt>
      <trkpt lat="43.11842" lon="2.98825">
        <ele>6.8</ele>
      </trkpt>
      <trkpt lat="43.1186" lon="2.98864">
        <ele>4</ele>
      </trkpt>
      <trkpt lat="43.11869" lon="2.98879">
        <ele>4</ele>
      </trkpt>
      <trkpt lat="43.11881" lon="2.98887">
        <ele>4</ele>
      </trkpt>
      <trkpt lat="43.11896" lon="2.98894">
        <ele>4</ele>
      </trkpt>
      <trkpt lat="43.11913" lon="2.98899">
        <ele>4</ele>
      </trkpt>
      <trkpt lat="43.11942" lon="2.98903">
        <ele>4.8</ele>
      </trkpt>
      <trkpt lat="43.11955" lon="2.98906">
        <ele>4.8</ele>
      </trkpt>
      <trkpt lat="43.11967" lon="2.9891">
        <ele>4.7</ele>
      </trkpt>
      <trkpt lat="43.11976" lon="2.98917">
        <ele>3.3</ele>
      </trkpt>
      <trkpt lat="43.12053" lon="2.98985">
        <ele>4.2</ele>
      </trkpt>
      <trkpt lat="43.1207" lon="2.99">
        <ele>4.1</ele>
      </trkpt>
      <trkpt lat="43.12078" lon="2.99007">
        <ele>4.4</ele>
      </trkpt>
      <trkpt lat="43.12099" lon="2.99037">
        <ele>4.3</ele>
      </trkpt>
      <trkpt lat="43.12106" lon="2.99044">
        <ele>4.2</ele>
      </trkpt>
      <trkpt lat="43.12118" lon="2.99049">
        <ele>4.3</ele>
      </trkpt>
      <trkpt lat="43.12137" lon="2.99052">
        <ele>4.5</ele>
      </trkpt>
      <trkpt lat="43.12143" lon="2.99053">
        <ele>4.6</ele>
      </trkpt>
      <trkpt lat="43.12156" lon="2.99055">
        <ele>4.7</ele>
      </trkpt>
      <trkpt lat="43.12166" lon="2.99056">
        <ele>4.8</ele>
      </trkpt>
      <trkpt lat="43.12179" lon="2.99064">
        <ele>7.1</ele>
      </trkpt>
      <trkpt lat="43.1219" lon="2.99075">
        <ele>7.4</ele>
      </trkpt>
      <trkpt lat="43.12224" lon="2.99109">
        <ele>6.8</ele>
      </trkpt>
      <trkpt lat="43.12234" lon="2.9912">
        <ele>6.8</ele>
      </trkpt>
      <trkpt lat="43.12244" lon="2.99137">
        <ele>6.6</ele>
      </trkpt>
      <trkpt lat="43.12268" lon="2.99186">
        <ele>10.2</ele>
      </trkpt>
      <trkpt lat="43.12271" lon="2.99194">
        <ele>10.6</ele>
      </trkpt>
      <trkpt lat="43.12283" lon="2.99234">
        <ele>10.7</ele>
      </trkpt>
      <trkpt lat="43.12287" lon="2.99271">
        <ele>8.4</ele>
      </trkpt>
      <trkpt lat="43.12294" lon="2.99285">
        <ele>8.6</ele>
      </trkpt>
      <trkpt lat="43.12317" lon="2.99317">
        <ele>9.4</ele>
      </trkpt>
      <trkpt lat="43.12339" lon="2.99343">
        <ele>11.1</ele>
      </trkpt>
      <trkpt lat="43.12379" lon="2.99389">
        <ele>10.6</ele>
      </trkpt>
      <trkpt lat="43.12396" lon="2.99406">
        <ele>10.2</ele>
      </trkpt>
      <trkpt lat="43.12418" lon="2.99424">
        <ele>8</ele>
      </trkpt>
      <trkpt lat="43.12432" lon="2.99435">
        <ele>6.5</ele>
      </trkpt>
      <trkpt lat="43.12435" lon="2.99437">
        <ele>6.3</ele>
      </trkpt>
      <trkpt lat="43.12453" lon="2.99444">
        <ele>5.5</ele>
      </trkpt>
      <trkpt lat="43.12465" lon="2.99449">
        <ele>5.2</ele>
      </trkpt>
      <trkpt lat="43.12477" lon="2.9945">
        <ele>5.1</ele>
      </trkpt>
      <trkpt lat="43.12495" lon="2.99449">
        <ele>5.1</ele>
      </trkpt>
      <trkpt lat="43.12504" lon="2.99443">
        <ele>5</ele>
      </trkpt>
      <trkpt lat="43.12509" lon="2.99438">
        <ele>5</ele>
      </trkpt>
      <trkpt lat="43.12511" lon="2.99432">
        <ele>5</ele>
      </trkpt>
      <trkpt lat="43.12513" lon="2.99423">
        <ele>5</ele>
      </trkpt>
      <trkpt lat="43.12513" lon="2.99417">
        <ele>5</ele>
      </trkpt>
      <trkpt lat="43.1251" lon="2.99395">
        <ele>5</ele>
      </trkpt>
      <trkpt lat="43.12506" lon="2.99379">
        <ele>5</ele>
      </trkpt>
      <trkpt lat="43.12498" lon="2.99358">
        <ele>11.2</ele>
      </trkpt>
      <trkpt lat="43.12498" lon="2.99358">
        <ele>11.2</ele>
      </trkpt>
      <trkpt lat="43.12486" lon="2.99328">
        <ele>23.6</ele>
      </trkpt>
      <trkpt lat="43.12483" lon="2.99314">
        <ele>23.7</ele>
      </trkpt>
      <trkpt lat="43.12479" lon="2.9929">
        <ele>24</ele>
      </trkpt>
      <trkpt lat="43.12477" lon="2.99247">
        <ele>18.1</ele>
      </trkpt>
      <trkpt lat="43.12478" lon="2.99172">
        <ele>11.3</ele>
      </trkpt>
      <trkpt lat="43.1248" lon="2.99116">
        <ele>12.4</ele>
      </trkpt>
      <trkpt lat="43.12479" lon="2.99103">
        <ele>12.9</ele>
      </trkpt>
      <trkpt lat="43.12472" lon="2.99077">
        <ele>12</ele>
      </trkpt>
      <trkpt lat="43.1243" lon="2.9898">
        <ele>6.2</ele>
      </trkpt>
      <trkpt lat="43.12424" lon="2.98959">
        <ele>5.5</ele>
      </trkpt>
      <trkpt lat="43.12419" lon="2.98933">
        <ele>4.6</ele>
      </trkpt>
      <trkpt lat="43.12418" lon="2.9892">
        <ele>4.1</ele>
      </trkpt>
      <trkpt lat="43.12418" lon="2.98901">
        <ele>4</ele>
      </trkpt>
      <trkpt lat="43.12418" lon="2.98867">
        <ele>4</ele>
      </trkpt>
      <trkpt lat="43.12418" lon="2.98854">
        <ele>4</ele>
      </trkpt>
      <trkpt lat="43.12418" lon="2.98846">
        <ele>4</ele>
      </trkpt>
      <trkpt lat="43.12419" lon="2.98833">
        <ele>4</ele>
      </trkpt>
      <trkpt lat="43.12426" lon="2.98807">
        <ele>4.4</ele>
      </trkpt>
      <trkpt lat="43.12432" lon="2.98796">
        <ele>4.5</ele>
      </trkpt>
      <trkpt lat="43.12437" lon="2.98788">
        <ele>4.6</ele>
      </trkpt>
      <trkpt lat="43.12444" lon="2.9878">
        <ele>4.6</ele>
      </trkpt>
      <trkpt lat="43.12452" lon="2.98773">
        <ele>4.5</ele>
      </trkpt>
      <trkpt lat="43.12542" lon="2.98718">
        <ele>4.3</ele>
      </trkpt>
      <trkpt lat="43.12555" lon="2.98713">
        <ele>4.3</ele>
      </trkpt>
      <trkpt lat="43.12645" lon="2.98692">
        <ele>3.6</ele>
      </trkpt>
      <trkpt lat="43.1274" lon="2.98699">
        <ele>1.6</ele>
      </trkpt>
      <trkpt lat="43.12778" lon="2.98693">
        <ele>1.8</ele>
      </trkpt>
      <trkpt lat="43.12822" lon="2.98691">
        <ele>2.5</ele>
      </trkpt>
      <trkpt lat="43.12843" lon="2.98685">
        <ele>3</ele>
      </trkpt>
      <trkpt lat="43.12968" lon="2.98617">
        <ele>6.2</ele>
      </trkpt>
      <trkpt lat="43.13047" lon="2.98579">
        <ele>6.4</ele>
      </trkpt>
      <trkpt lat="43.13077" lon="2.98568">
        <ele>5.9</ele>
      </trkpt>
      <trkpt lat="43.13103" lon="2.98564">
        <ele>7.7</ele>
      </trkpt>
      <trkpt lat="43.13135" lon="2.98567">
        <ele>8.3</ele>
      </trkpt>
      <trkpt lat="43.13178" lon="2.98583">
        <ele>8</ele>
      </trkpt>
      <trkpt lat="43.13227" lon="2.98604">
        <ele>8.1</ele>
      </trkpt>
      <trkpt lat="43.1324" lon="2.98608">
        <ele>8.5</ele>
      </trkpt>
      <trkpt lat="43.13273" lon="2.98611">
        <ele>7.4</ele>
      </trkpt>
      <trkpt lat="43.133" lon="2.98609">
        <ele>6.2</ele>
      </trkpt>
      <trkpt lat="43.13316" lon="2.98606">
        <ele>5.9</ele>
      </trkpt>
      <trkpt lat="43.13328" lon="2.98601">
        <ele>5.8</ele>
      </trkpt>
      <trkpt lat="43.13334" lon="2.98596">
        <ele>4.8</ele>
      </trkpt>
      <trkpt lat="43.13355" lon="2.98571">
        <ele>5</ele>
      </trkpt>
      <trkpt lat="43.1337" lon="2.9855">
        <ele>4.6</ele>
      </trkpt>
      <trkpt lat="43.13381" lon="2.98536">
        <ele>4.3</ele>
      </trkpt>
      <trkpt lat="43.13394" lon="2.98522">
        <ele>3.9</ele>
      </trkpt>
      <trkpt lat="43.13456" lon="2.98467">
        <ele>2</ele>
      </trkpt>
      <trkpt lat="43.13484" lon="2.98435">
        <ele>2</ele>
      </trkpt>
      <trkpt lat="43.13493" lon="2.98421">
        <ele>2</ele>
      </trkpt>
      <trkpt lat="43.13511" lon="2.98393">
        <ele>1.9</ele>
      </trkpt>
      <trkpt lat="43.13531" lon="2.98365">
        <ele>2.1</ele>
      </trkpt>
      <trkpt lat="43.1355" lon="2.98343">
        <ele>2.3</ele>
      </trkpt>
      <trkpt lat="43.13599" lon="2.98293">
        <ele>2.5</ele>
      </trkpt>
      <trkpt lat="43.13608" lon="2.98279">
        <ele>2.4</ele>
      </trkpt>
      <trkpt lat="43.13623" lon="2.98253">
        <ele>2.3</ele>
      </trkpt>
      <trkpt lat="43.13633" lon="2.98236">
        <ele>2.2</ele>
      </trkpt>
      <trkpt lat="43.13649" lon="2.98212">
        <ele>2.3</ele>
      </trkpt>
      <trkpt lat="43.1369" lon="2.98152">
        <ele>3.6</ele>
      </trkpt>
      <trkpt lat="43.13697" lon="2.98144">
        <ele>3.8</ele>
      </trkpt>
      <trkpt lat="43.13719" lon="2.98128">
        <ele>4</ele>
      </trkpt>
      <trkpt lat="43.13758" lon="2.98108">
        <ele>3.8</ele>
      </trkpt>
      <trkpt lat="43.13774" lon="2.98093">
        <ele>3.8</ele>
      </trkpt>
      <trkpt lat="43.13781" lon="2.98084">
        <ele>3.7</ele>
      </trkpt>
      <trkpt lat="43.13794" lon="2.9806">
        <ele>4</ele>
      </trkpt>
      <trkpt lat="43.13813" lon="2.98008">
        <ele>3.6</ele>
      </trkpt>
      <trkpt lat="43.13825" lon="2.97985">
        <ele>3.8</ele>
      </trkpt>
      <trkpt lat="43.13832" lon="2.97978">
        <ele>3.9</ele>
      </trkpt>
      <trkpt lat="43.13848" lon="2.97965">
        <ele>3.3</ele>
      </trkpt>
      <trkpt lat="43.13869" lon="2.97955">
        <ele>3.3</ele>
      </trkpt>
      <trkpt lat="43.1389" lon="2.97953">
        <ele>3.2</ele>
      </trkpt>
      <trkpt lat="43.139" lon="2.97954">
        <ele>3.2</ele>
      </trkpt>
      <trkpt lat="43.13911" lon="2.97956">
        <ele>3.2</ele>
      </trkpt>
      <trkpt lat="43.1392" lon="2.9796">
        <ele>3.8</ele>
      </trkpt>
      <trkpt lat="43.13948" lon="2.97979">
        <ele>3.9</ele>
      </trkpt>
      <trkpt lat="43.14167" lon="2.98177">
        <ele>6.2</ele>
      </trkpt>
      <trkpt lat="43.14271" lon="2.98287">
        <ele>7.6</ele>
      </trkpt>
      <trkpt lat="43.14297" lon="2.98311">
        <ele>7.2</ele>
      </trkpt>
      <trkpt lat="43.1432" lon="2.98324">
        <ele>6.8</ele>
      </trkpt>
      <trkpt lat="43.14364" lon="2.98341">
        <ele>4.9</ele>
      </trkpt>
      <trkpt lat="43.14376" lon="2.98344">
        <ele>4.8</ele>
      </trkpt>
      <trkpt lat="43.14388" lon="2.98342">
        <ele>4.8</ele>
      </trkpt>
      <trkpt lat="43.14394" lon="2.98339">
        <ele>4.8</ele>
      </trkpt>
      <trkpt lat="43.14399" lon="2.98333">
        <ele>6.1</ele>
      </trkpt>
      <trkpt lat="43.14404" lon="2.98325">
        <ele>6.1</ele>
      </trkpt>
      <trkpt lat="43.1441" lon="2.98311">
        <ele>6.4</ele>
      </trkpt>
      <trkpt lat="43.14433" lon="2.98247">
        <ele>7.8</ele>
      </trkpt>
      <trkpt lat="43.14433" lon="2.98247">
        <ele>7.8</ele>
      </trkpt>
      <trkpt lat="43.1444" lon="2.98226">
        <ele>8.3</ele>
      </trkpt>
      <trkpt lat="43.14447" lon="2.98214">
        <ele>8.6</ele>
      </trkpt>
      <trkpt lat="43.1446" lon="2.98197">
        <ele>8.9</ele>
      </trkpt>
      <trkpt lat="43.14469" lon="2.98184">
        <ele>9.1</ele>
      </trkpt>
      <trkpt lat="43.14484" lon="2.98161">
        <ele>10.2</ele>
      </trkpt>
      <trkpt lat="43.14499" lon="2.98136">
        <ele>10.3</ele>
      </trkpt>
      <trkpt lat="43.14513" lon="2.98111">
        <ele>10</ele>
      </trkpt>
      <trkpt lat="43.14534" lon="2.98074">
        <ele>10.5</ele>
      </trkpt>
      <trkpt lat="43.14541" lon="2.98062">
        <ele>10.7</ele>
      </trkpt>
      <trkpt lat="43.14557" lon="2.98031">
        <ele>11.1</ele>
      </trkpt>
      <trkpt lat="43.14565" lon="2.98011">
        <ele>11.5</ele>
      </trkpt>
      <trkpt lat="43.14575" lon="2.97976">
        <ele>13.2</ele>
      </trkpt>
      <trkpt lat="43.14589" lon="2.97921">
        <ele>13.6</ele>
      </trkpt>
      <trkpt lat="43.14619" lon="2.97792">
        <ele>17.2</ele>
      </trkpt>
      <trkpt lat="43.1462" lon="2.97779">
        <ele>17.4</ele>
      </trkpt>
      <trkpt lat="43.14617" lon="2.97768">
        <ele>17.7</ele>
      </trkpt>
      <trkpt lat="43.14612" lon="2.97762">
        <ele>18.1</ele>
      </trkpt>
      <trkpt lat="43.14486" lon="2.97688">
        <ele>19.4</ele>
      </trkpt>
      <trkpt lat="43.14481" lon="2.97683">
        <ele>19.4</ele>
      </trkpt>
      <trkpt lat="43.14476" lon="2.97673">
        <ele>19.5</ele>
      </trkpt>
      <trkpt lat="43.14476" lon="2.97664">
        <ele>20.5</ele>
      </trkpt>
      <trkpt lat="43.14477" lon="2.97654">
        <ele>20.6</ele>
      </trkpt>
      <trkpt lat="43.14483" lon="2.97632">
        <ele>20.9</ele>
      </trkpt>
      <trkpt lat="43.14497" lon="2.97605">
        <ele>21.4</ele>
      </trkpt>
      <trkpt lat="43.14505" lon="2.9759">
        <ele>21.7</ele>
      </trkpt>
      <trkpt lat="43.14512" lon="2.97589">
        <ele>21.6</ele>
      </trkpt>
      <trkpt lat="43.14519" lon="2.97584">
        <ele>21.5</ele>
      </trkpt>
      <trkpt lat="43.14521" lon="2.97582">
        <ele>22.6</ele>
      </trkpt>
      <trkpt lat="43.14526" lon="2.97581">
        <ele>22.7</ele>
      </trkpt>
      <trkpt lat="43.14531" lon="2.97582">
        <ele>22.8</ele>
      </trkpt>
      <trkpt lat="43.14539" lon="2.97583">
        <ele>22.8</ele>
      </trkpt>
      <trkpt lat="43.14546" lon="2.97587">
        <ele>21.4</ele>
      </trkpt>
      <trkpt lat="43.14826" lon="2.97747">
        <ele>14.1</ele>
      </trkpt>
      <trkpt lat="43.14826" lon="2.97747">
        <ele>14.1</ele>
      </trkpt>
      <trkpt lat="43.14877" lon="2.97777">
        <ele>15.5</ele>
      </trkpt>
      <trkpt lat="43.14969" lon="2.97829">
        <ele>16.5</ele>
      </trkpt>
      <trkpt lat="43.15112" lon="2.97911">
        <ele>16.8</ele>
      </trkpt>
      <trkpt lat="43.15128" lon="2.9792">
        <ele>16.5</ele>
      </trkpt>
      <trkpt lat="43.15179" lon="2.97945">
        <ele>16.6</ele>
      </trkpt>
      <trkpt lat="43.15338" lon="2.98012">
        <ele>12.3</ele>
      </trkpt>
      <trkpt lat="43.15504" lon="2.9808">
        <ele>11</ele>
      </trkpt>
      <trkpt lat="43.15521" lon="2.98087">
        <ele>10.6</ele>
      </trkpt>
      <trkpt lat="43.1556" lon="2.98102">
        <ele>10.8</ele>
      </trkpt>
      <trkpt lat="43.15588" lon="2.98116">
        <ele>10.9</ele>
      </trkpt>
      <trkpt lat="43.15613" lon="2.98126">
        <ele>10.6</ele>
      </trkpt>
      <trkpt lat="43.15641" lon="2.9814">
        <ele>10</ele>
      </trkpt>
      <trkpt lat="43.1565" lon="2.98146">
        <ele>9.7</ele>
      </trkpt>
      <trkpt lat="43.1566" lon="2.98155">
        <ele>9.1</ele>
      </trkpt>
      <trkpt lat="43.15663" lon="2.98162">
        <ele>8.6</ele>
      </trkpt>
      <trkpt lat="43.15667" lon="2.98173">
        <ele>8.2</ele>
      </trkpt>
      <trkpt lat="43.15677" lon="2.98185">
        <ele>8.5</ele>
      </trkpt>
      <trkpt lat="43.15688" lon="2.98189">
        <ele>8.7</ele>
      </trkpt>
      <trkpt lat="43.15698" lon="2.98186">
        <ele>8.8</ele>
      </trkpt>
      <trkpt lat="43.15707" lon="2.98178">
        <ele>9</ele>
      </trkpt>
      <trkpt lat="43.15713" lon="2.98165">
        <ele>9.7</ele>
      </trkpt>
      <trkpt lat="43.15715" lon="2.98146">
        <ele>9.8</ele>
      </trkpt>
      <trkpt lat="43.15711" lon="2.98133">
        <ele>9.9</ele>
      </trkpt>
      <trkpt lat="43.15706" lon="2.98125">
        <ele>10</ele>
      </trkpt>
      <trkpt lat="43.15706" lon="2.98113">
        <ele>10.2</ele>
      </trkpt>
      <trkpt lat="43.15708" lon="2.98101">
        <ele>10.3</ele>
      </trkpt>
      <trkpt lat="43.15715" lon="2.98099">
        <ele>10.2</ele>
      </trkpt>
      <trkpt lat="43.15721" lon="2.98101">
        <ele>10.2</ele>
      </trkpt>
      <trkpt lat="43.15726" lon="2.9811">
        <ele>10.1</ele>
      </trkpt>
      <trkpt lat="43.15729" lon="2.98123">
        <ele>10</ele>
      </trkpt>
      <trkpt lat="43.15737" lon="2.98139">
        <ele>9.9</ele>
      </trkpt>
      <trkpt lat="43.15744" lon="2.9815">
        <ele>9.9</ele>
      </trkpt>
      <trkpt lat="43.15756" lon="2.98158">
        <ele>9.9</ele>
      </trkpt>
      <trkpt lat="43.15894" lon="2.98209">
        <ele>10.1</ele>
      </trkpt>
      <trkpt lat="43.15932" lon="2.9822">
        <ele>10.4</ele>
      </trkpt>
      <trkpt lat="43.15969" lon="2.98235">
        <ele>10</ele>
      </trkpt>
      <trkpt lat="43.15992" lon="2.98245">
        <ele>9.4</ele>
      </trkpt>
      <trkpt lat="43.16043" lon="2.98267">
        <ele>9.5</ele>
      </trkpt>
      <trkpt lat="43.16052" lon="2.98263">
        <ele>9.6</ele>
      </trkpt>
      <trkpt lat="43.1606" lon="2.98256">
        <ele>9.6</ele>
      </trkpt>
      <trkpt lat="43.16066" lon="2.98251">
        <ele>9.7</ele>
      </trkpt>
      <trkpt lat="43.1608" lon="2.98249">
        <ele>10.1</ele>
      </trkpt>
      <trkpt lat="43.16093" lon="2.98255">
        <ele>10.2</ele>
      </trkpt>
      <trkpt lat="43.16103" lon="2.98213">
        <ele>12</ele>
      </trkpt>
      <trkpt lat="43.16115" lon="2.98219">
        <ele>12</ele>
      </trkpt>
      <trkpt lat="43.16128" lon="2.9822">
        <ele>12.1</ele>
      </trkpt>
      <trkpt lat="43.1614" lon="2.98215">
        <ele>12.3</ele>
      </trkpt>
      <trkpt lat="43.16147" lon="2.98204">
        <ele>12.5</ele>
      </trkpt>
      <trkpt lat="43.16151" lon="2.98184">
        <ele>13</ele>
      </trkpt>
      <trkpt lat="43.16186" lon="2.98198">
        <ele>13.7</ele>
      </trkpt>
      <trkpt lat="43.16186" lon="2.98198">
        <ele>13.7</ele>
      </trkpt>
      <trkpt lat="43.16151" lon="2.98184">
        <ele>13</ele>
      </trkpt>
      <trkpt lat="43.16155" lon="2.98165">
        <ele>13.5</ele>
      </trkpt>
      <trkpt lat="43.16159" lon="2.98146">
        <ele>13.2</ele>
      </trkpt>
      <trkpt lat="43.16163" lon="2.98128">
        <ele>12.9</ele>
      </trkpt>
      <trkpt lat="43.16166" lon="2.9811">
        <ele>12.6</ele>
      </trkpt>
      <trkpt lat="43.16176" lon="2.98064">
        <ele>14.2</ele>
      </trkpt>
      <trkpt lat="43.16172" lon="2.98036">
        <ele>15</ele>
      </trkpt>
      <trkpt lat="43.16173" lon="2.9801">
        <ele>14.7</ele>
      </trkpt>
      <trkpt lat="43.16183" lon="2.97981">
        <ele>16.8</ele>
      </trkpt>
      <trkpt lat="43.16222" lon="2.97949">
        <ele>19.2</ele>
      </trkpt>
      <trkpt lat="43.16261" lon="2.97919">
        <ele>23.5</ele>
      </trkpt>
      <trkpt lat="43.16287" lon="2.979">
        <ele>26.5</ele>
      </trkpt>
      <trkpt lat="43.16306" lon="2.97892">
        <ele>27.4</ele>
      </trkpt>
      <trkpt lat="43.16307" lon="2.97896">
        <ele>27.4</ele>
      </trkpt>
      <trkpt lat="43.16309" lon="2.97899">
        <ele>27.5</ele>
      </trkpt>
      <trkpt lat="43.16313" lon="2.97901">
        <ele>27.6</ele>
      </trkpt>
      <trkpt lat="43.16317" lon="2.97901">
        <ele>27.8</ele>
      </trkpt>
      <trkpt lat="43.16321" lon="2.97897">
        <ele>27.9</ele>
      </trkpt>
      <trkpt lat="43.16322" lon="2.97895">
        <ele>27.9</ele>
      </trkpt>
      <trkpt lat="43.16331" lon="2.97902">
        <ele>28.2</ele>
      </trkpt>
      <trkpt lat="43.16358" lon="2.97943">
        <ele>29.6</ele>
      </trkpt>
      <trkpt lat="43.16369" lon="2.97961">
        <ele>29.5</ele>
      </trkpt>
      <trkpt lat="43.16435" lon="2.98045">
        <ele>28.9</ele>
      </trkpt>
      <trkpt lat="43.16435" lon="2.98045">
        <ele>28.9</ele>
      </trkpt>
      <trkpt lat="43.16435" lon="2.98045">
        <ele>28.9</ele>
      </trkpt>
      <trkpt lat="43.16469" lon="2.98082">
        <ele>28.9</ele>
      </trkpt>
      <trkpt lat="43.16509" lon="2.98113">
        <ele>27.9</ele>
      </trkpt>
      <trkpt lat="43.16515" lon="2.98117">
        <ele>27.7</ele>
      </trkpt>
      <trkpt lat="43.1655" lon="2.98137">
        <ele>27.1</ele>
      </trkpt>
      <trkpt lat="43.16581" lon="2.98155">
        <ele>25.4</ele>
      </trkpt>
      <trkpt lat="43.16604" lon="2.9817">
        <ele>23</ele>
      </trkpt>
      <trkpt lat="43.16623" lon="2.98182">
        <ele>22.2</ele>
      </trkpt>
      <trkpt lat="43.16645" lon="2.98203">
        <ele>21.6</ele>
      </trkpt>
      <trkpt lat="43.16648" lon="2.98206">
        <ele>21.6</ele>
      </trkpt>
      <trkpt lat="43.16671" lon="2.98235">
        <ele>18.9</ele>
      </trkpt>
      <trkpt lat="43.16688" lon="2.98244">
        <ele>18.7</ele>
      </trkpt>
      <trkpt lat="43.167" lon="2.98243">
        <ele>18.5</ele>
      </trkpt>
      <trkpt lat="43.16718" lon="2.98233">
        <ele>18.2</ele>
      </trkpt>
      <trkpt lat="43.16732" lon="2.98215">
        <ele>18.4</ele>
      </trkpt>
      <trkpt lat="43.16745" lon="2.98204">
        <ele>18.6</ele>
      </trkpt>
      <trkpt lat="43.16757" lon="2.98201">
        <ele>17.3</ele>
      </trkpt>
      <trkpt lat="43.16763" lon="2.98201">
        <ele>17.2</ele>
      </trkpt>
      <trkpt lat="43.16781" lon="2.98204">
        <ele>16.8</ele>
      </trkpt>
      <trkpt lat="43.1681" lon="2.98218">
        <ele>16</ele>
      </trkpt>
      <trkpt lat="43.16823" lon="2.98226">
        <ele>15.6</ele>
      </trkpt>
      <trkpt lat="43.16832" lon="2.98236">
        <ele>15</ele>
      </trkpt>
      <trkpt lat="43.16858" lon="2.98264">
        <ele>13.7</ele>
      </trkpt>
      <trkpt lat="43.16882" lon="2.9829">
        <ele>13.5</ele>
      </trkpt>
      <trkpt lat="43.16892" lon="2.98295">
        <ele>13.4</ele>
      </trkpt>
      <trkpt lat="43.16901" lon="2.98297">
        <ele>13.3</ele>
      </trkpt>
      <trkpt lat="43.16918" lon="2.98299">
        <ele>13.8</ele>
      </trkpt>
      <trkpt lat="43.16921" lon="2.98303">
        <ele>13.7</ele>
      </trkpt>
      <trkpt lat="43.16924" lon="2.98306">
        <ele>13.7</ele>
      </trkpt>
      <trkpt lat="43.16928" lon="2.98308">
        <ele>13.7</ele>
      </trkpt>
      <trkpt lat="43.16932" lon="2.98319">
        <ele>13.5</ele>
      </trkpt>
      <trkpt lat="43.16936" lon="2.98336">
        <ele>13.4</ele>
      </trkpt>
      <trkpt lat="43.16935" lon="2.98351">
        <ele>13.7</ele>
      </trkpt>
      <trkpt lat="43.16928" lon="2.9837">
        <ele>14.1</ele>
      </trkpt>
      <trkpt lat="43.16878" lon="2.98489">
        <ele>15</ele>
      </trkpt>
      <trkpt lat="43.1689" lon="2.98513">
        <ele>15.6</ele>
      </trkpt>
      <trkpt lat="43.16937" lon="2.9859">
        <ele>15.1</ele>
      </trkpt>
      <trkpt lat="43.16937" lon="2.9859">
        <ele>15.1</ele>
      </trkpt>
      <trkpt lat="43.16951" lon="2.98611">
        <ele>14.6</ele>
      </trkpt>
      <trkpt lat="43.16958" lon="2.98628">
        <ele>14.5</ele>
      </trkpt>
      <trkpt lat="43.16939" lon="2.98709">
        <ele>13.3</ele>
      </trkpt>
      <trkpt lat="43.16981" lon="2.98725">
        <ele>13.7</ele>
      </trkpt>
      <trkpt lat="43.1698" lon="2.98727">
        <ele>13.7</ele>
      </trkpt>
      <trkpt lat="43.16981" lon="2.98733">
        <ele>13.7</ele>
      </trkpt>
      <trkpt lat="43.16984" lon="2.9874">
        <ele>13.7</ele>
      </trkpt>
      <trkpt lat="43.16987" lon="2.98742">
        <ele>13.8</ele>
      </trkpt>
      <trkpt lat="43.16978" lon="2.9878">
        <ele>13</ele>
      </trkpt>
      <trkpt lat="43.16974" lon="2.98798">
        <ele>12.9</ele>
      </trkpt>
      <trkpt lat="43.16964" lon="2.98839">
        <ele>13</ele>
      </trkpt>
      <trkpt lat="43.16964" lon="2.98839">
        <ele>13</ele>
      </trkpt>
      <trkpt lat="43.16962" lon="2.98848">
        <ele>13.1</ele>
      </trkpt>
      <trkpt lat="43.16957" lon="2.98866">
        <ele>13.2</ele>
      </trkpt>
      <trkpt lat="43.16951" lon="2.98883">
        <ele>13.2</ele>
      </trkpt>
      <trkpt lat="43.16944" lon="2.98886">
        <ele>13.2</ele>
      </trkpt>
      <trkpt lat="43.16939" lon="2.98893">
        <ele>13.2</ele>
      </trkpt>
      <trkpt lat="43.16936" lon="2.98904">
        <ele>13.2</ele>
      </trkpt>
      <trkpt lat="43.16936" lon="2.98914">
        <ele>13.2</ele>
      </trkpt>
      <trkpt lat="43.16939" lon="2.98923">
        <ele>13.7</ele>
      </trkpt>
      <trkpt lat="43.16943" lon="2.98928">
        <ele>13.8</ele>
      </trkpt>
      <trkpt lat="43.16948" lon="2.98931">
        <ele>13.9</ele>
      </trkpt>
      <trkpt lat="43.16956" lon="2.98933">
        <ele>14</ele>
      </trkpt>
      <trkpt lat="43.16959" lon="2.98932">
        <ele>14</ele>
      </trkpt>
      <trkpt lat="43.16967" lon="2.98933">
        <ele>14.1</ele>
      </trkpt>
      <trkpt lat="43.16979" lon="2.98942">
        <ele>14.2</ele>
      </trkpt>
      <trkpt lat="43.1702" lon="2.98967">
        <ele>13.9</ele>
      </trkpt>
      <trkpt lat="43.17052" lon="2.98984">
        <ele>13.7</ele>
      </trkpt>
      <trkpt lat="43.1709" lon="2.98998">
        <ele>13.1</ele>
      </trkpt>
      <trkpt lat="43.17122" lon="2.99015">
        <ele>13</ele>
      </trkpt>
      <trkpt lat="43.1716" lon="2.99035">
        <ele>13.1</ele>
      </trkpt>
      <trkpt lat="43.17186" lon="2.99053">
        <ele>12.9</ele>
      </trkpt>
      <trkpt lat="43.17235" lon="2.99092">
        <ele>12.4</ele>
      </trkpt>
      <trkpt lat="43.17303" lon="2.99144">
        <ele>11.7</ele>
      </trkpt>
      <trkpt lat="43.17316" lon="2.99158">
        <ele>11.4</ele>
      </trkpt>
      <trkpt lat="43.17345" lon="2.99183">
        <ele>10.4</ele>
      </trkpt>
      <trkpt lat="43.17352" lon="2.99191">
        <ele>10.2</ele>
      </trkpt>
      <trkpt lat="43.17356" lon="2.99197">
        <ele>10.1</ele>
      </trkpt>
      <trkpt lat="43.17357" lon="2.99205">
        <ele>10</ele>
      </trkpt>
      <trkpt lat="43.17357" lon="2.99214">
        <ele>9.9</ele>
      </trkpt>
      <trkpt lat="43.17359" lon="2.99222">
        <ele>9.9</ele>
      </trkpt>
      <trkpt lat="43.17364" lon="2.99233">
        <ele>9.8</ele>
      </trkpt>
      <trkpt lat="43.17372" lon="2.99241">
        <ele>9.8</ele>
      </trkpt>
      <trkpt lat="43.17381" lon="2.99244">
        <ele>9.9</ele>
      </trkpt>
      <trkpt lat="43.17389" lon="2.99242">
        <ele>9.9</ele>
      </trkpt>
      <trkpt lat="43.17404" lon="2.99241">
        <ele>10</ele>
      </trkpt>
      <trkpt lat="43.17414" lon="2.99243">
        <ele>10</ele>
      </trkpt>
      <trkpt lat="43.17451" lon="2.99271">
        <ele>9.4</ele>
      </trkpt>
      <trkpt lat="43.17464" lon="2.9928">
        <ele>9.4</ele>
      </trkpt>
      <trkpt lat="43.17487" lon="2.99295">
        <ele>9.3</ele>
      </trkpt>
      <trkpt lat="43.17514" lon="2.99314">
        <ele>10.3</ele>
      </trkpt>
      <trkpt lat="43.17529" lon="2.99322">
        <ele>10.6</ele>
      </trkpt>
      <trkpt lat="43.17542" lon="2.99329">
        <ele>11</ele>
      </trkpt>
      <trkpt lat="43.17554" lon="2.99334">
        <ele>10.7</ele>
      </trkpt>
      <trkpt lat="43.17568" lon="2.99343">
        <ele>11.3</ele>
      </trkpt>
      <trkpt lat="43.1758" lon="2.99352">
        <ele>11.3</ele>
      </trkpt>
      <trkpt lat="43.17604" lon="2.99368">
        <ele>11.8</ele>
      </trkpt>
      <trkpt lat="43.17652" lon="2.994">
        <ele>11.4</ele>
      </trkpt>
      <trkpt lat="43.17663" lon="2.99407">
        <ele>11.3</ele>
      </trkpt>
      <trkpt lat="43.17716" lon="2.99442">
        <ele>11</ele>
      </trkpt>
      <trkpt lat="43.17734" lon="2.99454">
        <ele>11</ele>
      </trkpt>
      <trkpt lat="43.17756" lon="2.99469">
        <ele>11</ele>
      </trkpt>
      <trkpt lat="43.17773" lon="2.9948">
        <ele>11</ele>
      </trkpt>
      <trkpt lat="43.17789" lon="2.99491">
        <ele>11</ele>
      </trkpt>
      <trkpt lat="43.17798" lon="2.99496">
        <ele>11</ele>
      </trkpt>
      <trkpt lat="43.17823" lon="2.99513">
        <ele>11.5</ele>
      </trkpt>
      <trkpt lat="43.17861" lon="2.99538">
        <ele>13.4</ele>
      </trkpt>
      <trkpt lat="43.17879" lon="2.9955">
        <ele>13.9</ele>
      </trkpt>
      <trkpt lat="43.17889" lon="2.99557">
        <ele>14.2</ele>
      </trkpt>
      <trkpt lat="43.17896" lon="2.99561">
        <ele>14.4</ele>
      </trkpt>
      <trkpt lat="43.17916" lon="2.99574">
        <ele>15.3</ele>
      </trkpt>
      <trkpt lat="43.17926" lon="2.99581">
        <ele>15.6</ele>
      </trkpt>
      <trkpt lat="43.17932" lon="2.99585">
        <ele>15.2</ele>
      </trkpt>
      <trkpt lat="43.17976" lon="2.99614">
        <ele>14.2</ele>
      </trkpt>
      <trkpt lat="43.17999" lon="2.99629">
        <ele>13.9</ele>
      </trkpt>
      <trkpt lat="43.18022" lon="2.99645">
        <ele>12.8</ele>
      </trkpt>
      <trkpt lat="43.18047" lon="2.99661">
        <ele>12.6</ele>
      </trkpt>
      <trkpt lat="43.18068" lon="2.99675">
        <ele>12.5</ele>
      </trkpt>
      <trkpt lat="43.18068" lon="2.99675">
        <ele>12.5</ele>
      </trkpt>
      <trkpt lat="43.18082" lon="2.99685">
        <ele>12.6</ele>
      </trkpt>
      <trkpt lat="43.18153" lon="2.99732">
        <ele>14.1</ele>
      </trkpt>
      <trkpt lat="43.18176" lon="2.99751">
        <ele>15.5</ele>
      </trkpt>
      <trkpt lat="43.18225" lon="2.99791">
        <ele>16.6</ele>
      </trkpt>
      <trkpt lat="43.18239" lon="2.99803">
        <ele>16.9</ele>
      </trkpt>
      <trkpt lat="43.18252" lon="2.99808">
        <ele>17</ele>
      </trkpt>
      <trkpt lat="43.1826" lon="2.9978">
        <ele>16.5</ele>
      </trkpt>
      <trkpt lat="43.18262" lon="2.99759">
        <ele>16.2</ele>
      </trkpt>
      <trkpt lat="43.18262" lon="2.9976">
        <ele>16.2</ele>
      </trkpt>
      <trkpt lat="43.18259" lon="2.99761">
        <ele>16.2</ele>
      </trkpt>
      <trkpt lat="43.18252" lon="2.9976">
        <ele>16.2</ele>
      </trkpt>
      <trkpt lat="43.18249" lon="2.99759">
        <ele>16.2</ele>
      </trkpt>
      <trkpt lat="43.18247" lon="2.99757">
        <ele>16.1</ele>
      </trkpt>
      <trkpt lat="43.18244" lon="2.99753">
        <ele>16.1</ele>
      </trkpt>
      <trkpt lat="43.18242" lon="2.99748">
        <ele>15.6</ele>
      </trkpt>
      <trkpt lat="43.18239" lon="2.99737">
        <ele>15.3</ele>
      </trkpt>
      <trkpt lat="43.18236" lon="2.99671">
        <ele>14.2</ele>
      </trkpt>
      <trkpt lat="43.18235" lon="2.99656">
        <ele>14</ele>
      </trkpt>
      <trkpt lat="43.18234" lon="2.9964">
        <ele>14</ele>
      </trkpt>
      <trkpt lat="43.18233" lon="2.996">
        <ele>14</ele>
      </trkpt>
      <trkpt lat="43.18232" lon="2.99579">
        <ele>14.2</ele>
      </trkpt>
      <trkpt lat="43.1823" lon="2.99554">
        <ele>14.2</ele>
      </trkpt>
      <trkpt lat="43.1823" lon="2.99549">
        <ele>14.2</ele>
      </trkpt>
      <trkpt lat="43.18228" lon="2.99505">
        <ele>14.1</ele>
      </trkpt>
      <trkpt lat="43.18228" lon="2.99492">
        <ele>13.9</ele>
      </trkpt>
      <trkpt lat="43.1822" lon="2.99327">
        <ele>14</ele>
      </trkpt>
      <trkpt lat="43.18218" lon="2.99268">
        <ele>13.8</ele>
      </trkpt>
      <trkpt lat="43.1821" lon="2.99102">
        <ele>13.2</ele>
      </trkpt>
      <trkpt lat="43.18205" lon="2.98987">
        <ele>13.7</ele>
      </trkpt>
      <trkpt lat="43.182" lon="2.98898">
        <ele>14.5</ele>
      </trkpt>
      <trkpt lat="43.18199" lon="2.98865">
        <ele>14.7</ele>
      </trkpt>
      <trkpt lat="43.18198" lon="2.98846">
        <ele>14.8</ele>
      </trkpt>
      <trkpt lat="43.18195" lon="2.9878">
        <ele>14.6</ele>
      </trkpt>
      <trkpt lat="43.18225" lon="2.98774">
        <ele>14.2</ele>
      </trkpt>
      <trkpt lat="43.18256" lon="2.98769">
        <ele>13.2</ele>
      </trkpt>
      <trkpt lat="43.18257" lon="2.98768">
        <ele>13.2</ele>
      </trkpt>
      <trkpt lat="43.18257" lon="2.98768">
        <ele>13.2</ele>
      </trkpt>
      <trkpt lat="43.18344" lon="2.98756">
        <ele>13.2</ele>
      </trkpt>
      <trkpt lat="43.18356" lon="2.98755">
        <ele>13.3</ele>
      </trkpt>
      <trkpt lat="43.18439" lon="2.98742">
        <ele>13.5</ele>
      </trkpt>
      <trkpt lat="43.18466" lon="2.98738">
        <ele>13.3</ele>
      </trkpt>
      <trkpt lat="43.18511" lon="2.98731">
        <ele>13.2</ele>
      </trkpt>
      <trkpt lat="43.18557" lon="2.98724">
        <ele>13.4</ele>
      </trkpt>
      <trkpt lat="43.18558" lon="2.98687">
        <ele>13.2</ele>
      </trkpt>
      <trkpt lat="43.18558" lon="2.98687">
        <ele>13.2</ele>
      </trkpt>
      <trkpt lat="43.18558" lon="2.98673">
        <ele>13.2</ele>
      </trkpt>
      <trkpt lat="43.18559" lon="2.98658">
        <ele>13.4</ele>
      </trkpt>
      <trkpt lat="43.1856" lon="2.98598">
        <ele>13.9</ele>
      </trkpt>
      <trkpt lat="43.1856" lon="2.9857">
        <ele>14</ele>
      </trkpt>
      <trkpt lat="43.18558" lon="2.985">
        <ele>13.6</ele>
      </trkpt>
      <trkpt lat="43.18558" lon="2.98495">
        <ele>13.6</ele>
      </trkpt>
      <trkpt lat="43.18555" lon="2.98404">
        <ele>14.7</ele>
      </trkpt>
      <trkpt lat="43.1856" lon="2.98368">
        <ele>15.1</ele>
      </trkpt>
      <trkpt lat="43.18566" lon="2.9833">
        <ele>15.6</ele>
      </trkpt>
      <trkpt lat="43.18566" lon="2.98327">
        <ele>15.6</ele>
      </trkpt>
      <trkpt lat="43.18571" lon="2.98292">
        <ele>15.8</ele>
      </trkpt>
      <trkpt lat="43.18573" lon="2.98285">
        <ele>15.9</ele>
      </trkpt>
      <trkpt lat="43.18576" lon="2.98286">
        <ele>15.9</ele>
      </trkpt>
      <trkpt lat="43.1858" lon="2.98286">
        <ele>15.9</ele>
      </trkpt>
      <trkpt lat="43.18584" lon="2.98285">
        <ele>15.2</ele>
      </trkpt>
      <trkpt lat="43.18586" lon="2.98282">
        <ele>15.3</ele>
      </trkpt>
      <trkpt lat="43.18588" lon="2.98277">
        <ele>15.3</ele>
      </trkpt>
      <trkpt lat="43.18589" lon="2.98271">
        <ele>15.4</ele>
      </trkpt>
      <trkpt lat="43.18589" lon="2.98268">
        <ele>15.4</ele>
      </trkpt>
      <trkpt lat="43.18588" lon="2.98265">
        <ele>15.5</ele>
      </trkpt>
      <trkpt lat="43.18583" lon="2.98258">
        <ele>16</ele>
      </trkpt>
      <trkpt lat="43.1858" lon="2.98257">
        <ele>16</ele>
      </trkpt>
      <trkpt lat="43.18577" lon="2.98257">
        <ele>16</ele>
      </trkpt>
      <trkpt lat="43.18573" lon="2.98258">
        <ele>16</ele>
      </trkpt>
      <trkpt lat="43.18569" lon="2.98258">
        <ele>16</ele>
      </trkpt>
      <trkpt lat="43.18566" lon="2.98257">
        <ele>16</ele>
      </trkpt>
      <trkpt lat="43.18563" lon="2.98255">
        <ele>16</ele>
      </trkpt>
      <trkpt lat="43.18555" lon="2.98248">
        <ele>16</ele>
      </trkpt>
      <trkpt lat="43.18547" lon="2.98241">
        <ele>16</ele>
      </trkpt>
      <trkpt lat="43.18543" lon="2.98232">
        <ele>16</ele>
      </trkpt>
      <trkpt lat="43.18543" lon="2.98232">
        <ele>16</ele>
      </trkpt>
      <trkpt lat="43.18538" lon="2.98223">
        <ele>16</ele>
      </trkpt>
      <trkpt lat="43.18533" lon="2.98202">
        <ele>16</ele>
      </trkpt>
      <trkpt lat="43.18515" lon="2.98102">
        <ele>15.3</ele>
      </trkpt>
      <trkpt lat="43.18508" lon="2.98073">
        <ele>14.9</ele>
      </trkpt>
      <trkpt lat="43.18504" lon="2.98056">
        <ele>14.8</ele>
      </trkpt>
      <trkpt lat="43.18484" lon="2.97973">
        <ele>15.3</ele>
      </trkpt>
      <trkpt lat="43.18483" lon="2.97966">
        <ele>15.4</ele>
      </trkpt>
      <trkpt lat="43.18484" lon="2.9796">
        <ele>15.4</ele>
      </trkpt>
      <trkpt lat="43.18485" lon="2.97956">
        <ele>15.4</ele>
      </trkpt>
      <trkpt lat="43.18489" lon="2.9795">
        <ele>15.4</ele>
      </trkpt>
      <trkpt lat="43.18491" lon="2.97947">
        <ele>15.4</ele>
      </trkpt>
      <trkpt lat="43.18495" lon="2.9794">
        <ele>15.3</ele>
      </trkpt>
      <trkpt lat="43.18496" lon="2.97931">
        <ele>15.3</ele>
      </trkpt>
      <trkpt lat="43.18494" lon="2.97924">
        <ele>15.2</ele>
      </trkpt>
      <trkpt lat="43.18493" lon="2.97921">
        <ele>15.2</ele>
      </trkpt>
      <trkpt lat="43.1849" lon="2.97905">
        <ele>15.6</ele>
      </trkpt>
      <trkpt lat="43.18483" lon="2.97868">
        <ele>16.3</ele>
      </trkpt>
      <trkpt lat="43.18481" lon="2.97854">
        <ele>16.5</ele>
      </trkpt>
      <trkpt lat="43.18464" lon="2.97771">
        <ele>15.8</ele>
      </trkpt>
      <trkpt lat="43.18455" lon="2.9772">
        <ele>15.4</ele>
      </trkpt>
      <trkpt lat="43.18454" lon="2.97701">
        <ele>15.5</ele>
      </trkpt>
      <trkpt lat="43.18456" lon="2.97689">
        <ele>15.6</ele>
      </trkpt>
      <trkpt lat="43.1846" lon="2.97684">
        <ele>15.6</ele>
      </trkpt>
      <trkpt lat="43.18464" lon="2.9768">
        <ele>15.7</ele>
      </trkpt>
      <trkpt lat="43.18467" lon="2.97676">
        <ele>15.7</ele>
      </trkpt>
      <trkpt lat="43.18468" lon="2.97674">
        <ele>15.7</ele>
      </trkpt>
      <trkpt lat="43.18469" lon="2.97671">
        <ele>15.7</ele>
      </trkpt>
      <trkpt lat="43.18471" lon="2.9766">
        <ele>16.4</ele>
      </trkpt>
      <trkpt lat="43.1847" lon="2.97654">
        <ele>16.5</ele>
      </trkpt>
      <trkpt lat="43.18468" lon="2.97648">
        <ele>16.5</ele>
      </trkpt>
      <trkpt lat="43.18464" lon="2.97642">
        <ele>16.6</ele>
      </trkpt>
      <trkpt lat="43.18461" lon="2.97634">
        <ele>16.7</ele>
      </trkpt>
      <trkpt lat="43.18459" lon="2.97627">
        <ele>16.7</ele>
      </trkpt>
      <trkpt lat="43.18459" lon="2.97619">
        <ele>16.8</ele>
      </trkpt>
      <trkpt lat="43.18459" lon="2.97616">
        <ele>16.8</ele>
      </trkpt>
      <trkpt lat="43.18463" lon="2.97618">
        <ele>16.8</ele>
      </trkpt>
      <trkpt lat="43.1848" lon="2.97572">
        <ele>17.6</ele>
      </trkpt>
      <trkpt lat="43.1848" lon="2.97572">
        <ele>17.6</ele>
      </trkpt>
      <trkpt lat="43.18463" lon="2.97618">
        <ele>16.8</ele>
      </trkpt>
      <trkpt lat="43.18459" lon="2.97616">
        <ele>16.8</ele>
      </trkpt>
      <trkpt lat="43.1846" lon="2.97611">
        <ele>16.9</ele>
      </trkpt>
      <trkpt lat="43.18463" lon="2.97595">
        <ele>17</ele>
      </trkpt>
      <trkpt lat="43.18467" lon="2.97579">
        <ele>17.7</ele>
      </trkpt>
      <trkpt lat="43.18488" lon="2.9753">
        <ele>17.9</ele>
      </trkpt>
      <trkpt lat="43.18511" lon="2.97487">
        <ele>20.6</ele>
      </trkpt>
      <trkpt lat="43.18521" lon="2.97477">
        <ele>21.8</ele>
      </trkpt>
      <trkpt lat="43.18531" lon="2.97468">
        <ele>22.6</ele>
      </trkpt>
      <trkpt lat="43.18537" lon="2.97467">
        <ele>22.8</ele>
      </trkpt>
      <trkpt lat="43.18544" lon="2.97465">
        <ele>23.1</ele>
      </trkpt>
      <trkpt lat="43.18553" lon="2.97467">
        <ele>23.3</ele>
      </trkpt>
      <trkpt lat="43.18575" lon="2.97484">
        <ele>23.2</ele>
      </trkpt>
      <trkpt lat="43.18603" lon="2.97506">
        <ele>21.9</ele>
      </trkpt>
      <trkpt lat="43.18603" lon="2.97506">
        <ele>21.9</ele>
      </trkpt>
      <trkpt lat="43.18605" lon="2.97508">
        <ele>21.8</ele>
      </trkpt>
      <trkpt lat="43.18616" lon="2.97515">
        <ele>21.4</ele>
      </trkpt>
      <trkpt lat="43.1863" lon="2.97523">
        <ele>21.1</ele>
      </trkpt>
      <trkpt lat="43.18645" lon="2.9753">
        <ele>20.9</ele>
      </trkpt>
      <trkpt lat="43.18662" lon="2.97533">
        <ele>20.8</ele>
      </trkpt>
      <trkpt lat="43.18677" lon="2.97535">
        <ele>20.8</ele>
      </trkpt>
      <trkpt lat="43.18689" lon="2.97536">
        <ele>20.9</ele>
      </trkpt>
      <trkpt lat="43.18713" lon="2.97537">
        <ele>21.1</ele>
      </trkpt>
      <trkpt lat="43.18726" lon="2.97538">
        <ele>21.3</ele>
      </trkpt>
      <trkpt lat="43.18726" lon="2.97538">
        <ele>21.3</ele>
      </trkpt>
      <trkpt lat="43.18732" lon="2.97538">
        <ele>21.3</ele>
      </trkpt>
      <trkpt lat="43.18733" lon="2.97558">
        <ele>21.1</ele>
      </trkpt>
      <trkpt lat="43.18734" lon="2.97565">
        <ele>21</ele>
      </trkpt>
    </trkseg>
  </trk>
</gpx>